<?xml version='1.0' encoding='UTF-8'?><gpx version="1.1" creator="JPX - https://github.com/jenetics/jpx" xmlns="http://www.topografix.com/GPX/1/1"><trk><trkseg><trkpt lat="45.86837466561055" lon="11.01291584451584"><ele>167.0</ele><time>2026-05-01T13:39:41Z</time></trkpt><trkpt lat="45.86839123945391" lon="11.012782101957693"><ele>167.0</ele><time>2026-05-01T13:39:42Z</time></trkpt><trkpt lat="45.868370508847036" lon="11.012661632689332"><ele>167.0</ele><time>2026-05-01T13:39:43Z</time></trkpt><trkpt lat="45.86830766829914" lon="11.012557998181705"><ele>167.0</ele><time>2026-05-01T13:39:44.001Z</time></trkpt><trkpt lat="45.868220560097235" lon="11.01247961481479"><ele>167.0</ele><time>2026-05-01T13:39:45.001Z</time></trkpt><trkpt lat="45.8681300950705" lon="11.012398811584132"><ele>166.75</ele><time>2026-05-01T13:39:46.001Z</time></trkpt><trkpt lat="45.86805623255689" lon="11.012274926607622"><ele>166.5</ele><time>2026-05-01T13:39:47.001Z</time></trkpt><trkpt lat="45.86799904779016" lon="11.012117196318776"><ele>166.25</ele><time>2026-05-01T13:39:48.001Z</time></trkpt><trkpt lat="45.86794543054123" lon="11.01194086114409"><ele>166.0</ele><time>2026-05-01T13:39:49.001Z</time></trkpt><trkpt lat="45.8678860389401" lon="11.011757931992719"><ele>165.66666666666669</ele><time>2026-05-01T13:39:50.001Z</time></trkpt><trkpt lat="45.86782356763443" lon="11.011567306167084"><ele>165.33333333333334</ele><time>2026-05-01T13:39:51.001Z</time></trkpt><trkpt lat="45.86774831121104" lon="11.011374330120049"><ele>165.0</ele><time>2026-05-01T13:39:52.001Z</time></trkpt><trkpt lat="45.867674309340174" lon="11.011179213780759"><ele>166.33333333333334</ele><time>2026-05-01T13:39:53.001Z</time></trkpt><trkpt lat="45.86760062799783" lon="11.010980550482694"><ele>167.66666666666669</ele><time>2026-05-01T13:39:54.001Z</time></trkpt><trkpt lat="45.867515329218634" lon="11.01079214369233"><ele>169.0</ele><time>2026-05-01T13:39:55.001Z</time></trkpt><trkpt lat="45.86742914590724" lon="11.01060523476069"><ele>169.0</ele><time>2026-05-01T13:39:56.001Z</time></trkpt><trkpt lat="45.86733370705776" lon="11.010420632243614"><ele>169.0</ele><time>2026-05-01T13:39:57.001Z</time></trkpt><trkpt lat="45.86723395531494" lon="11.010259418510174"><ele>169.0</ele><time>2026-05-01T13:39:58.001Z</time></trkpt><trkpt lat="45.86712678963657" lon="11.010093844328702"><ele>169.0</ele><time>2026-05-01T13:39:59.001Z</time></trkpt><trkpt lat="45.86701083866484" lon="11.009925594186292"><ele>169.0</ele><time>2026-05-01T13:40:00.001Z</time></trkpt><trkpt lat="45.86690683021083" lon="11.009762010170125"><ele>169.0</ele><time>2026-05-01T13:40:01.001Z</time></trkpt><trkpt lat="45.86681930541535" lon="11.009615990253469"><ele>168.75</ele><time>2026-05-01T13:40:02.001Z</time></trkpt><trkpt lat="45.866730132096514" lon="11.009471412552712"><ele>168.5</ele><time>2026-05-01T13:40:03.001Z</time></trkpt><trkpt lat="45.86664546147701" lon="11.009331303932028"><ele>168.25</ele><time>2026-05-01T13:40:04.001Z</time></trkpt><trkpt lat="45.86657223162065" lon="11.009195326353046"><ele>168.0</ele><time>2026-05-01T13:40:05.001Z</time></trkpt><trkpt lat="45.866505841539855" lon="11.009062255615229"><ele>168.4</ele><time>2026-05-01T13:40:06.001Z</time></trkpt><trkpt lat="45.86643851133596" lon="11.008924927280065"><ele>168.8</ele><time>2026-05-01T13:40:07.001Z</time></trkpt><trkpt lat="45.8663749644395" lon="11.008781878177752"><ele>169.2</ele><time>2026-05-01T13:40:08.001Z</time></trkpt><trkpt lat="45.86633418707914" lon="11.008641750537153"><ele>169.6</ele><time>2026-05-01T13:40:09.001Z</time></trkpt><trkpt lat="45.86630236270541" lon="11.008516156450714"><ele>170.0</ele><time>2026-05-01T13:40:10.001Z</time></trkpt><trkpt lat="45.866299002192285" lon="11.008372484526404"><ele>169.6</ele><time>2026-05-01T13:40:12.001Z</time></trkpt><trkpt lat="45.86633433493449" lon="11.008240458576381"><ele>169.2</ele><time>2026-05-01T13:40:16.001Z</time></trkpt><trkpt lat="45.866382084913916" lon="11.008159533188023"><ele>168.8</ele><time>2026-05-01T13:40:17.001Z</time></trkpt><trkpt lat="45.86645313699154" lon="11.00804808573364"><ele>168.4</ele><time>2026-05-01T13:40:18.001Z</time></trkpt><trkpt lat="45.866499409266055" lon="11.007928759574476"><ele>168.0</ele><time>2026-05-01T13:40:19.001Z</time></trkpt><trkpt lat="45.866499321049616" lon="11.007791813822513"><ele>168.0</ele><time>2026-05-01T13:40:20.001Z</time></trkpt><trkpt lat="45.86647329841465" lon="11.007665955253877"><ele>168.0</ele><time>2026-05-01T13:40:21.001Z</time></trkpt><trkpt lat="45.86642414842985" lon="11.00754305030243"><ele>168.0</ele><time>2026-05-01T13:40:22.001Z</time></trkpt><trkpt lat="45.86637679773523" lon="11.007442137531728"><ele>168.0</ele><time>2026-05-01T13:40:23.001Z</time></trkpt><trkpt lat="45.8663284105776" lon="11.00737194523213"><ele>168.0</ele><time>2026-05-01T13:40:24.001Z</time></trkpt><trkpt lat="45.866249169855664" lon="11.007249292156597"><ele>167.8</ele><time>2026-05-01T13:40:26.001Z</time></trkpt><trkpt lat="45.866188862213065" lon="11.007162057209095"><ele>167.60000000000002</ele><time>2026-05-01T13:40:27.001Z</time></trkpt><trkpt lat="45.8661211645767" lon="11.007057506838159"><ele>167.39999999999998</ele><time>2026-05-01T13:40:28.001Z</time></trkpt><trkpt lat="45.86604923600678" lon="11.006939257814645"><ele>167.2</ele><time>2026-05-01T13:40:29.001Z</time></trkpt><trkpt lat="45.865968990972995" lon="11.006814465834111"><ele>167.0</ele><time>2026-05-01T13:40:30.001Z</time></trkpt><trkpt lat="45.865879092401336" lon="11.006685104587488"><ele>167.75</ele><time>2026-05-01T13:40:31.001Z</time></trkpt><trkpt lat="45.865783197070385" lon="11.006552872903065"><ele>168.5</ele><time>2026-05-01T13:40:32.001Z</time></trkpt><trkpt lat="45.865677299646094" lon="11.006409441548728"><ele>169.25</ele><time>2026-05-01T13:40:33.001Z</time></trkpt><trkpt lat="45.86557674012978" lon="11.006255619176565"><ele>170.0</ele><time>2026-05-01T13:40:34.002Z</time></trkpt><trkpt lat="45.865478914189644" lon="11.006082835396382"><ele>170.0</ele><time>2026-05-01T13:40:35.002Z</time></trkpt><trkpt lat="45.86538320574858" lon="11.005904478972353"><ele>170.0</ele><time>2026-05-01T13:40:36.002Z</time></trkpt><trkpt lat="45.865291231593" lon="11.00572970523191"><ele>170.0</ele><time>2026-05-01T13:40:37.002Z</time></trkpt><trkpt lat="45.86519230461331" lon="11.005554696159491"><ele>170.66666666666666</ele><time>2026-05-01T13:40:38.002Z</time></trkpt><trkpt lat="45.865100859161906" lon="11.00537580799162"><ele>171.33333333333334</ele><time>2026-05-01T13:40:39.002Z</time></trkpt><trkpt lat="45.86500278234106" lon="11.005195194656256"><ele>172.0</ele><time>2026-05-01T13:40:40.002Z</time></trkpt><trkpt lat="45.86491358199366" lon="11.005029311652633"><ele>171.75</ele><time>2026-05-01T13:40:41.002Z</time></trkpt><trkpt lat="45.86482430965433" lon="11.004867328940302"><ele>171.5</ele><time>2026-05-01T13:40:42.002Z</time></trkpt><trkpt lat="45.86473467471257" lon="11.004704887282523"><ele>171.25</ele><time>2026-05-01T13:40:43.002Z</time></trkpt><trkpt lat="45.864643940796896" lon="11.00453501701947"><ele>171.0</ele><time>2026-05-01T13:40:44.002Z</time></trkpt><trkpt lat="45.864544764713436" lon="11.004366813463623"><ele>171.0</ele><time>2026-05-01T13:40:45.002Z</time></trkpt><trkpt lat="45.864436317771485" lon="11.00420250006569"><ele>171.0</ele><time>2026-05-01T13:40:46.002Z</time></trkpt><trkpt lat="45.86432243497579" lon="11.0040453253294"><ele>171.0</ele><time>2026-05-01T13:40:47.002Z</time></trkpt><trkpt lat="45.864201754659135" lon="11.00389152025238"><ele>170.75</ele><time>2026-05-01T13:40:48.002Z</time></trkpt><trkpt lat="45.86409258408134" lon="11.003744369509414"><ele>170.5</ele><time>2026-05-01T13:40:49.002Z</time></trkpt><trkpt lat="45.86398284866754" lon="11.003602304298434"><ele>170.25</ele><time>2026-05-01T13:40:50.002Z</time></trkpt><trkpt lat="45.863881345054914" lon="11.00346926730948"><ele>170.0</ele><time>2026-05-01T13:40:51.002Z</time></trkpt><trkpt lat="45.86378217000409" lon="11.003348854474838"><ele>170.0</ele><time>2026-05-01T13:40:52.002Z</time></trkpt><trkpt lat="45.86367863552307" lon="11.003242061479128"><ele>170.0</ele><time>2026-05-01T13:40:53.002Z</time></trkpt><trkpt lat="45.86356380690329" lon="11.003143901667215"><ele>170.0</ele><time>2026-05-01T13:40:54.002Z</time></trkpt><trkpt lat="45.863439665730944" lon="11.003059762425202"><ele>170.0</ele><time>2026-05-01T13:40:55.002Z</time></trkpt><trkpt lat="45.86331486392152" lon="11.002989860038916"><ele>169.5</ele><time>2026-05-01T13:40:56.002Z</time></trkpt><trkpt lat="45.86319084024178" lon="11.002928972711404"><ele>169.0</ele><time>2026-05-01T13:40:57.002Z</time></trkpt><trkpt lat="45.863067500570715" lon="11.00287135393014"><ele>168.5</ele><time>2026-05-01T13:40:58.002Z</time></trkpt><trkpt lat="45.86295342013122" lon="11.002813022315205"><ele>168.0</ele><time>2026-05-01T13:40:59.002Z</time></trkpt><trkpt lat="45.8628510740438" lon="11.002752425519144"><ele>168.0</ele><time>2026-05-01T13:41:00.002Z</time></trkpt><trkpt lat="45.86275892066974" lon="11.002706555616575"><ele>168.0</ele><time>2026-05-01T13:41:01.002Z</time></trkpt><trkpt lat="45.86266937610651" lon="11.002660374300076"><ele>168.0</ele><time>2026-05-01T13:41:02.002Z</time></trkpt><trkpt lat="45.862582603634905" lon="11.002613116898376"><ele>168.0</ele><time>2026-05-01T13:41:03.002Z</time></trkpt><trkpt lat="45.86248994042118" lon="11.002562111723037"><ele>168.0</ele><time>2026-05-01T13:41:04Z</time></trkpt><trkpt lat="45.86239766199136" lon="11.002513065597675"><ele>168.0</ele><time>2026-05-01T13:41:05Z</time></trkpt><trkpt lat="45.862307065173304" lon="11.002471884292449"><ele>168.0</ele><time>2026-05-01T13:41:06Z</time></trkpt><trkpt lat="45.86222712733338" lon="11.002430320323885"><ele>168.0</ele><time>2026-05-01T13:41:07Z</time></trkpt><trkpt lat="45.86215675473204" lon="11.002385728416492"><ele>168.0</ele><time>2026-05-01T13:41:08Z</time></trkpt><trkpt lat="45.86207900688043" lon="11.002348067197772"><ele>168.0</ele><time>2026-05-01T13:41:09Z</time></trkpt><trkpt lat="45.86201173249736" lon="11.002308098131326"><ele>168.0</ele><time>2026-05-01T13:41:10Z</time></trkpt><trkpt lat="45.86191133494466" lon="11.002219366749168"><ele>168.0</ele><time>2026-05-01T13:41:12Z</time></trkpt><trkpt lat="45.86185457405199" lon="11.002070334821068"><ele>168.0</ele><time>2026-05-01T13:41:14Z</time></trkpt><trkpt lat="45.86183481300163" lon="11.001979951294194"><ele>168.0</ele><time>2026-05-01T13:41:15Z</time></trkpt><trkpt lat="45.861794848201875" lon="11.001903310125867"><ele>168.0</ele><time>2026-05-01T13:41:16Z</time></trkpt><trkpt lat="45.861702693282396" lon="11.001808060578892"><ele>168.0</ele><time>2026-05-01T13:41:18Z</time></trkpt><trkpt lat="45.861579349883456" lon="11.001830690073641"><ele>168.16666666666666</ele><time>2026-05-01T13:41:20Z</time></trkpt><trkpt lat="45.861520351172324" lon="11.001882536447145"><ele>168.33333333333334</ele><time>2026-05-01T13:41:21Z</time></trkpt><trkpt lat="45.861457313251755" lon="11.001936986010755"><ele>168.5</ele><time>2026-05-01T13:41:22Z</time></trkpt><trkpt lat="45.86138171005089" lon="11.001970364512934"><ele>168.66666666666669</ele><time>2026-05-01T13:41:23Z</time></trkpt><trkpt lat="45.86129487431752" lon="11.00197441810603"><ele>168.83333333333334</ele><time>2026-05-01T13:41:24Z</time></trkpt><trkpt lat="45.86120867161566" lon="11.001931477133452"><ele>169.0</ele><time>2026-05-01T13:41:25Z</time></trkpt><trkpt lat="45.861125354130245" lon="11.001870074665781"><ele>169.0</ele><time>2026-05-01T13:41:26Z</time></trkpt><trkpt lat="45.86102829666054" lon="11.001803301788128"><ele>169.0</ele><time>2026-05-01T13:41:27Z</time></trkpt><trkpt lat="45.8609152369098" lon="11.001721859592603"><ele>169.0</ele><time>2026-05-01T13:41:28.001Z</time></trkpt><trkpt lat="45.86078559457769" lon="11.001643806087996"><ele>169.0</ele><time>2026-05-01T13:41:29.001Z</time></trkpt><trkpt lat="45.86064121967134" lon="11.001519647836554"><ele>169.0</ele><time>2026-05-01T13:41:30.001Z</time></trkpt><trkpt lat="45.86045802762614" lon="11.00142132433103"><ele>169.0</ele><time>2026-05-01T13:41:31.001Z</time></trkpt><trkpt lat="45.86028626902808" lon="11.001267893577984"><ele>169.0</ele><time>2026-05-01T13:41:32.001Z</time></trkpt><trkpt lat="45.86010049318649" lon="11.001119100916423"><ele>169.0</ele><time>2026-05-01T13:41:33.001Z</time></trkpt><trkpt lat="45.85990021863141" lon="11.001005046140989"><ele>169.0</ele><time>2026-05-01T13:41:34.001Z</time></trkpt><trkpt lat="45.85968752888544" lon="11.000923064995822"><ele>169.0</ele><time>2026-05-01T13:41:35.001Z</time></trkpt><trkpt lat="45.859471047032564" lon="11.000858271115687"><ele>167.5</ele><time>2026-05-01T13:41:36.001Z</time></trkpt><trkpt lat="45.85924579171467" lon="11.000824513417246"><ele>166.0</ele><time>2026-05-01T13:41:37.001Z</time></trkpt><trkpt lat="45.859021899455286" lon="11.000814403610407"><ele>166.0</ele><time>2026-05-01T13:41:38.001Z</time></trkpt><trkpt lat="45.85879623510861" lon="11.000814195116972"><ele>166.0</ele><time>2026-05-01T13:41:39.001Z</time></trkpt><trkpt lat="45.85857253050579" lon="11.000816070253014"><ele>166.0</ele><time>2026-05-01T13:41:40.001Z</time></trkpt><trkpt lat="45.85835459415959" lon="11.000819994958958"><ele>165.33333333333334</ele><time>2026-05-01T13:41:41.001Z</time></trkpt><trkpt lat="45.85813460720935" lon="11.000828339535067"><ele>164.66666666666666</ele><time>2026-05-01T13:41:42.001Z</time></trkpt><trkpt lat="45.857921449543255" lon="11.000838406833017"><ele>164.0</ele><time>2026-05-01T13:41:43.001Z</time></trkpt><trkpt lat="45.857708629536866" lon="11.000884816099656"><ele>165.66666666666666</ele><time>2026-05-01T13:41:44.001Z</time></trkpt><trkpt lat="45.857499801020005" lon="11.000978142938392"><ele>167.33333333333334</ele><time>2026-05-01T13:41:45.001Z</time></trkpt><trkpt lat="45.85729838576048" lon="11.001099088285057"><ele>169.0</ele><time>2026-05-01T13:41:46.001Z</time></trkpt><trkpt lat="45.857097380190076" lon="11.001229172790833"><ele>169.0</ele><time>2026-05-01T13:41:47.001Z</time></trkpt><trkpt lat="45.85689247402725" lon="11.001364276968596"><ele>169.0</ele><time>2026-05-01T13:41:48.001Z</time></trkpt><trkpt lat="45.85669355942873" lon="11.001483722036946"><ele>169.0</ele><time>2026-05-01T13:41:49.001Z</time></trkpt><trkpt lat="45.856486608866526" lon="11.001602616540175"><ele>170.5</ele><time>2026-05-01T13:41:50.001Z</time></trkpt><trkpt lat="45.856276125695764" lon="11.001711567867103"><ele>172.0</ele><time>2026-05-01T13:41:51.001Z</time></trkpt><trkpt lat="45.85605974676998" lon="11.001804756767141"><ele>170.5</ele><time>2026-05-01T13:41:52.001Z</time></trkpt><trkpt lat="45.855837755821454" lon="11.00187187325712"><ele>169.0</ele><time>2026-05-01T13:41:53.001Z</time></trkpt><trkpt lat="45.85561249066836" lon="11.001922085599452"><ele>169.0</ele><time>2026-05-01T13:41:54.001Z</time></trkpt><trkpt lat="45.85538947074005" lon="11.001952273598178"><ele>169.0</ele><time>2026-05-01T13:41:55.001Z</time></trkpt><trkpt lat="45.855165466549145" lon="11.001959609031212"><ele>169.0</ele><time>2026-05-01T13:41:56.001Z</time></trkpt><trkpt lat="45.854937115901244" lon="11.001948536069907"><ele>168.33333333333334</ele><time>2026-05-01T13:41:57.001Z</time></trkpt><trkpt lat="45.85471434072275" lon="11.001887185706435"><ele>167.66666666666666</ele><time>2026-05-01T13:41:58.001Z</time></trkpt><trkpt lat="45.85449779235598" lon="11.001840534101365"><ele>167.0</ele><time>2026-05-01T13:41:59.001Z</time></trkpt><trkpt lat="45.854291538611356" lon="11.001807063111555"><ele>166.0</ele><time>2026-05-01T13:42:00.001Z</time></trkpt><trkpt lat="45.854091088310234" lon="11.00176100800876"><ele>165.0</ele><time>2026-05-01T13:42:01.001Z</time></trkpt><trkpt lat="45.85390304544384" lon="11.00172507031471"><ele>164.0</ele><time>2026-05-01T13:42:02.001Z</time></trkpt><trkpt lat="45.85371847080528" lon="11.00170324848196"><ele>164.0</ele><time>2026-05-01T13:42:03.001Z</time></trkpt><trkpt lat="45.85354485271698" lon="11.001690742047646"><ele>164.0</ele><time>2026-05-01T13:42:04.001Z</time></trkpt><trkpt lat="45.853371287926116" lon="11.001660610130589"><ele>164.0</ele><time>2026-05-01T13:42:05.001Z</time></trkpt><trkpt lat="45.85320540398812" lon="11.001671133255364"><ele>162.5</ele><time>2026-05-01T13:42:06.001Z</time></trkpt><trkpt lat="45.85305645127546" lon="11.00166345804969"><ele>161.0</ele><time>2026-05-01T13:42:07.001Z</time></trkpt><trkpt lat="45.85290556434203" lon="11.001645239086766"><ele>159.5</ele><time>2026-05-01T13:42:08.001Z</time></trkpt><trkpt lat="45.85276155866099" lon="11.001640601057302"><ele>158.0</ele><time>2026-05-01T13:42:09.001Z</time></trkpt><trkpt lat="45.85261899741477" lon="11.001625502122899"><ele>157.66666666666666</ele><time>2026-05-01T13:42:10.001Z</time></trkpt><trkpt lat="45.852468065197506" lon="11.00161381390352"><ele>157.33333333333334</ele><time>2026-05-01T13:42:11.001Z</time></trkpt><trkpt lat="45.852315982667854" lon="11.00160459359776"><ele>157.0</ele><time>2026-05-01T13:42:12.001Z</time></trkpt><trkpt lat="45.85216357161689" lon="11.001601577181207"><ele>157.0</ele><time>2026-05-01T13:42:13.001Z</time></trkpt><trkpt lat="45.852014514016375" lon="11.001598167523035"><ele>157.0</ele><time>2026-05-01T13:42:14.001Z</time></trkpt><trkpt lat="45.851863807553386" lon="11.001579835445435"><ele>157.0</ele><time>2026-05-01T13:42:15.001Z</time></trkpt><trkpt lat="45.85172144403652" lon="11.001532934434298"><ele>157.0</ele><time>2026-05-01T13:42:16.001Z</time></trkpt><trkpt lat="45.85158059813494" lon="11.001467468741646"><ele>157.25</ele><time>2026-05-01T13:42:17.001Z</time></trkpt><trkpt lat="45.85143936176274" lon="11.001396960417729"><ele>157.5</ele><time>2026-05-01T13:42:18.001Z</time></trkpt><trkpt lat="45.851303595918964" lon="11.001325128441632"><ele>157.75</ele><time>2026-05-01T13:42:19.001Z</time></trkpt><trkpt lat="45.85117438076389" lon="11.00126073210427"><ele>158.0</ele><time>2026-05-01T13:42:20.001Z</time></trkpt><trkpt lat="45.85104142062904" lon="11.001194735444248"><ele>158.25</ele><time>2026-05-01T13:42:21.001Z</time></trkpt><trkpt lat="45.85090735567647" lon="11.00112912778218"><ele>158.5</ele><time>2026-05-01T13:42:22.001Z</time></trkpt><trkpt lat="45.85076667938261" lon="11.001061994819423"><ele>158.75</ele><time>2026-05-01T13:42:23.001Z</time></trkpt><trkpt lat="45.850627350728566" lon="11.000995524022448"><ele>159.0</ele><time>2026-05-01T13:42:24.001Z</time></trkpt><trkpt lat="45.8504734456562" lon="11.000921639041625"><ele>159.0</ele><time>2026-05-01T13:42:25.002Z</time></trkpt><trkpt lat="45.85029887771379" lon="11.000849551157264"><ele>159.0</ele><time>2026-05-01T13:42:26.002Z</time></trkpt><trkpt lat="45.85010101683531" lon="11.000784716465446"><ele>159.0</ele><time>2026-05-01T13:42:27.002Z</time></trkpt><trkpt lat="45.84988617009094" lon="11.000718005467924"><ele>158.5</ele><time>2026-05-01T13:42:28.002Z</time></trkpt><trkpt lat="45.84966077289036" lon="11.00064996869987"><ele>158.0</ele><time>2026-05-01T13:42:29.002Z</time></trkpt><trkpt lat="45.849432433616975" lon="11.000590826923622"><ele>159.0</ele><time>2026-05-01T13:42:30.002Z</time></trkpt><trkpt lat="45.84919577790983" lon="11.000542084875612"><ele>160.0</ele><time>2026-05-01T13:42:31.002Z</time></trkpt><trkpt lat="45.84895872955908" lon="11.000496001470474"><ele>160.0</ele><time>2026-05-01T13:42:32.002Z</time></trkpt><trkpt lat="45.84872670195615" lon="11.000455271141323"><ele>160.0</ele><time>2026-05-01T13:42:33.002Z</time></trkpt><trkpt lat="45.848488134811184" lon="11.000411202729001"><ele>158.5</ele><time>2026-05-01T13:42:34.002Z</time></trkpt><trkpt lat="45.848255499074995" lon="11.000365508876444"><ele>157.0</ele><time>2026-05-01T13:42:35.002Z</time></trkpt><trkpt lat="45.848035019742966" lon="11.000323360070462"><ele>157.0</ele><time>2026-05-01T13:42:36.002Z</time></trkpt><trkpt lat="45.84783220450661" lon="11.00028416909994"><ele>157.0</ele><time>2026-05-01T13:42:37.002Z</time></trkpt><trkpt lat="45.84764243857999" lon="11.000245325598518"><ele>157.0</ele><time>2026-05-01T13:42:38.002Z</time></trkpt><trkpt lat="45.8474526681452" lon="11.000165502733372"><ele>157.0</ele><time>2026-05-01T13:42:39.002Z</time></trkpt><trkpt lat="45.8472735484993" lon="11.00000399685877"><ele>157.0</ele><time>2026-05-01T13:42:40.002Z</time></trkpt><trkpt lat="45.84709716984879" lon="10.999784026334202"><ele>157.0</ele><time>2026-05-01T13:42:41.002Z</time></trkpt><trkpt lat="45.846955822754175" lon="10.999526268559833"><ele>157.0</ele><time>2026-05-01T13:42:42.002Z</time></trkpt><trkpt lat="45.846855936661434" lon="10.99921745642793"><ele>157.0</ele><time>2026-05-01T13:42:43.002Z</time></trkpt><trkpt lat="45.84679102745561" lon="10.998864749351334"><ele>157.0</ele><time>2026-05-01T13:42:44.002Z</time></trkpt><trkpt lat="45.846768669330075" lon="10.998486768470515"><ele>157.0</ele><time>2026-05-01T13:42:45.002Z</time></trkpt><trkpt lat="45.84676195184256" lon="10.998093806748527"><ele>157.0</ele><time>2026-05-01T13:42:46.002Z</time></trkpt><trkpt lat="45.84675556098601" lon="10.997688897409411"><ele>157.0</ele><time>2026-05-01T13:42:47.002Z</time></trkpt><trkpt lat="45.84673560800975" lon="10.997289653504962"><ele>156.0</ele><time>2026-05-01T13:42:48.002Z</time></trkpt><trkpt lat="45.84671437925609" lon="10.996919108372444"><ele>155.0</ele><time>2026-05-01T13:42:49.002Z</time></trkpt><trkpt lat="45.84669786545821" lon="10.996577579954831"><ele>155.0</ele><time>2026-05-01T13:42:50.002Z</time></trkpt><trkpt lat="45.84668265898151" lon="10.99623873925041"><ele>155.0</ele><time>2026-05-01T13:42:51.002Z</time></trkpt><trkpt lat="45.84666934868136" lon="10.995903654689204"><ele>155.33333333333331</ele><time>2026-05-01T13:42:52.002Z</time></trkpt><trkpt lat="45.84665605017002" lon="10.995580583984127"><ele>155.66666666666666</ele><time>2026-05-01T13:42:53.002Z</time></trkpt><trkpt lat="45.84663878010942" lon="10.995263446134416"><ele>156.0</ele><time>2026-05-01T13:42:54.002Z</time></trkpt><trkpt lat="45.8466191362936" lon="10.994961262070163"><ele>158.0</ele><time>2026-05-01T13:42:55.002Z</time></trkpt><trkpt lat="45.84660622895666" lon="10.994678299009431"><ele>160.0</ele><time>2026-05-01T13:42:56.002Z</time></trkpt><trkpt lat="45.84659789846327" lon="10.994399196204522"><ele>162.0</ele><time>2026-05-01T13:42:57.002Z</time></trkpt><trkpt lat="45.846585895553936" lon="10.994121418750355"><ele>166.0</ele><time>2026-05-01T13:42:58.002Z</time></trkpt><trkpt lat="45.84656775066604" lon="10.993849610895586"><ele>170.0</ele><time>2026-05-01T13:42:59.002Z</time></trkpt><trkpt lat="45.84654134243916" lon="10.9935911676243"><ele>174.0</ele><time>2026-05-01T13:43:00.002Z</time></trkpt><trkpt lat="45.84650707583688" lon="10.993347160168087"><ele>176.0</ele><time>2026-05-01T13:43:01.002Z</time></trkpt><trkpt lat="45.84646266234788" lon="10.993107034797447"><ele>178.0</ele><time>2026-05-01T13:43:02.002Z</time></trkpt><trkpt lat="45.84640800350794" lon="10.99287321369044"><ele>180.0</ele><time>2026-05-01T13:43:03.002Z</time></trkpt><trkpt lat="45.84634948812362" lon="10.992636431149647"><ele>181.0</ele><time>2026-05-01T13:43:04.002Z</time></trkpt><trkpt lat="45.84627518526905" lon="10.992393492072319"><ele>182.0</ele><time>2026-05-01T13:43:05.002Z</time></trkpt><trkpt lat="45.84618636754239" lon="10.992150761269707"><ele>183.0</ele><time>2026-05-01T13:43:06.002Z</time></trkpt><trkpt lat="45.846088239477275" lon="10.99191748370768"><ele>183.0</ele><time>2026-05-01T13:43:07.002Z</time></trkpt><trkpt lat="45.845984319752745" lon="10.991692605771089"><ele>183.0</ele><time>2026-05-01T13:43:08.002Z</time></trkpt><trkpt lat="45.845866291050946" lon="10.991477548549534"><ele>183.0</ele><time>2026-05-01T13:43:09.002Z</time></trkpt><trkpt lat="45.84574484453579" lon="10.991271717121025"><ele>185.0</ele><time>2026-05-01T13:43:10.001Z</time></trkpt><trkpt lat="45.84561573597359" lon="10.991072271968791"><ele>187.0</ele><time>2026-05-01T13:43:11.001Z</time></trkpt><trkpt lat="45.845478809808256" lon="10.990877930924634"><ele>189.0</ele><time>2026-05-01T13:43:12.001Z</time></trkpt><trkpt lat="45.8453379793299" lon="10.990679679004101"><ele>190.66666666666669</ele><time>2026-05-01T13:43:13.001Z</time></trkpt><trkpt lat="45.84519664648888" lon="10.99048085641763"><ele>192.33333333333334</ele><time>2026-05-01T13:43:14.001Z</time></trkpt><trkpt lat="45.84505003230735" lon="10.99027524552333"><ele>194.0</ele><time>2026-05-01T13:43:15.001Z</time></trkpt><trkpt lat="45.8449104434778" lon="10.990064986211943"><ele>194.33333333333334</ele><time>2026-05-01T13:43:16.001Z</time></trkpt><trkpt lat="45.84477819950267" lon="10.989850246356268"><ele>194.66666666666669</ele><time>2026-05-01T13:43:17.001Z</time></trkpt><trkpt lat="45.84462662213408" lon="10.989661678675128"><ele>195.0</ele><time>2026-05-01T13:43:18.001Z</time></trkpt><trkpt lat="45.84448485205887" lon="10.989444782751422"><ele>195.0</ele><time>2026-05-01T13:43:19.001Z</time></trkpt><trkpt lat="45.84433268726418" lon="10.98923885745901"><ele>195.0</ele><time>2026-05-01T13:43:20.001Z</time></trkpt><trkpt lat="45.84419831555182" lon="10.989034742296708"><ele>195.0</ele><time>2026-05-01T13:43:21.001Z</time></trkpt><trkpt lat="45.84406082577603" lon="10.988818961561629"><ele>195.66666666666669</ele><time>2026-05-01T13:43:22.001Z</time></trkpt><trkpt lat="45.843936947666144" lon="10.988604112687867"><ele>196.33333333333334</ele><time>2026-05-01T13:43:23.001Z</time></trkpt><trkpt lat="45.843819670592325" lon="10.988371640325203"><ele>197.0</ele><time>2026-05-01T13:43:24.001Z</time></trkpt><trkpt lat="45.84372024706896" lon="10.988130256182536"><ele>198.0</ele><time>2026-05-01T13:43:25.001Z</time></trkpt><trkpt lat="45.84362946868491" lon="10.987879942068641"><ele>199.0</ele><time>2026-05-01T13:43:26.001Z</time></trkpt><trkpt lat="45.843544048751355" lon="10.987626597114987"><ele>200.0</ele><time>2026-05-01T13:43:27.001Z</time></trkpt><trkpt lat="45.84346516085793" lon="10.987374761753491"><ele>203.33333333333334</ele><time>2026-05-01T13:43:28.001Z</time></trkpt><trkpt lat="45.84338990617878" lon="10.98711928299984"><ele>206.66666666666669</ele><time>2026-05-01T13:43:29.001Z</time></trkpt><trkpt lat="45.84332303885165" lon="10.986858852653631"><ele>210.0</ele><time>2026-05-01T13:43:30.001Z</time></trkpt><trkpt lat="45.84325522747492" lon="10.986595445096988"><ele>212.33333333333331</ele><time>2026-05-01T13:43:31.001Z</time></trkpt><trkpt lat="45.84318345442223" lon="10.986324836888485"><ele>214.66666666666666</ele><time>2026-05-01T13:43:32.021Z</time></trkpt><trkpt lat="45.843130528096886" lon="10.98605284529202"><ele>217.0</ele><time>2026-05-01T13:43:33.02Z</time></trkpt><trkpt lat="45.8430663116597" lon="10.985783479848154"><ele>224.0</ele><time>2026-05-01T13:43:34.024Z</time></trkpt><trkpt lat="45.84300248594528" lon="10.98551575335527"><ele>231.0</ele><time>2026-05-01T13:43:35.023Z</time></trkpt><trkpt lat="45.842938133803884" lon="10.98524581867521"><ele>238.0</ele><time>2026-05-01T13:43:36.025Z</time></trkpt><trkpt lat="45.84244239997961" lon="10.98244308641312"><ele>259.0</ele><time>2026-05-01T13:43:39.749Z</time></trkpt><trkpt lat="45.84239270220782" lon="10.98129128198576"><ele>250.0</ele><time>2026-05-01T13:43:40.745Z</time></trkpt><trkpt lat="45.84243168065433" lon="10.980133432248296"><ele>257.0</ele><time>2026-05-01T13:43:41.746Z</time></trkpt><trkpt lat="45.84256642615012" lon="10.978990044012482"><ele>249.0</ele><time>2026-05-01T13:43:42.748Z</time></trkpt><trkpt lat="45.842786710963544" lon="10.97787339197163"><ele>247.0</ele><time>2026-05-01T13:43:43.75Z</time></trkpt><trkpt lat="45.84310073698256" lon="10.976809216810722"><ele>251.0</ele><time>2026-05-01T13:43:44.748Z</time></trkpt><trkpt lat="45.84349520869406" lon="10.975800633108708"><ele>267.0</ele><time>2026-05-01T13:43:45.746Z</time></trkpt><trkpt lat="45.843965334039794" lon="10.974858182612932"><ele>274.0</ele><time>2026-05-01T13:43:46.746Z</time></trkpt><trkpt lat="45.84447118485154" lon="10.973947762305047"><ele>297.0</ele><time>2026-05-01T13:43:47.75Z</time></trkpt><trkpt lat="45.844972319399936" lon="10.973039931376988"><ele>309.0</ele><time>2026-05-01T13:43:48.748Z</time></trkpt><trkpt lat="45.84547311771326" lon="10.972133030390413"><ele>296.0</ele><time>2026-05-01T13:43:49.746Z</time></trkpt><trkpt lat="45.84597627715293" lon="10.97122261418589"><ele>356.0</ele><time>2026-05-01T13:43:50.748Z</time></trkpt><trkpt lat="45.84647855974208" lon="10.970309945742947"><ele>322.0</ele><time>2026-05-01T13:43:51.75Z</time></trkpt><trkpt lat="45.846976366100165" lon="10.969398410301068"><ele>392.0</ele><time>2026-05-01T13:43:52.749Z</time></trkpt><trkpt lat="45.847477546008335" lon="10.96849228792629"><ele>381.0</ele><time>2026-05-01T13:43:53.746Z</time></trkpt><trkpt lat="45.847981726457796" lon="10.967586395135264"><ele>335.0</ele><time>2026-05-01T13:43:54.746Z</time></trkpt><trkpt lat="45.848481257913626" lon="10.966671052619516"><ele>316.0</ele><time>2026-05-01T13:43:55.748Z</time></trkpt><trkpt lat="45.848984765591666" lon="10.965763007406478"><ele>255.0</ele><time>2026-05-01T13:43:56.748Z</time></trkpt><trkpt lat="45.849472056382055" lon="10.964839998004773"><ele>247.0</ele><time>2026-05-01T13:43:57.747Z</time></trkpt><trkpt lat="45.84994033046502" lon="10.96389298901883"><ele>208.0</ele><time>2026-05-01T13:43:58.748Z</time></trkpt><trkpt lat="45.85042206987903" lon="10.962964025911711"><ele>247.0</ele><time>2026-05-01T13:43:59.747Z</time></trkpt><trkpt lat="45.84965104442436" lon="10.963896901346455"><ele>291.0</ele><time>2026-05-01T13:44:03.749Z</time></trkpt><trkpt lat="45.84912725587232" lon="10.964777218482118"><ele>316.0</ele><time>2026-05-01T13:44:04.747Z</time></trkpt><trkpt lat="45.84862146558511" lon="10.965687481985618"><ele>367.0</ele><time>2026-05-01T13:44:05.75Z</time></trkpt><trkpt lat="45.84812229236408" lon="10.966594328887725"><ele>408.0</ele><time>2026-05-01T13:44:06.747Z</time></trkpt><trkpt lat="45.84761903313372" lon="10.967503094229286"><ele>392.0</ele><time>2026-05-01T13:44:07.747Z</time></trkpt><trkpt lat="45.84711635329037" lon="10.968411674391799"><ele>418.0</ele><time>2026-05-01T13:44:08.747Z</time></trkpt><trkpt lat="45.84661617252809" lon="10.96932069828943"><ele>356.0</ele><time>2026-05-01T13:44:09.746Z</time></trkpt><trkpt lat="45.846114387296566" lon="10.97023263813465"><ele>331.0</ele><time>2026-05-01T13:44:10.748Z</time></trkpt><trkpt lat="45.84561285356237" lon="10.97114400733658"><ele>323.0</ele><time>2026-05-01T13:44:11.749Z</time></trkpt><trkpt lat="45.845111700018656" lon="10.97204978276423"><ele>297.0</ele><time>2026-05-01T13:44:12.746Z</time></trkpt><trkpt lat="45.844607209939774" lon="10.972962786162183"><ele>292.0</ele><time>2026-05-01T13:44:13.75Z</time></trkpt><trkpt lat="45.84410572380093" lon="10.973871679381555"><ele>267.0</ele><time>2026-05-01T13:44:14.75Z</time></trkpt><trkpt lat="45.84360651030142" lon="10.97478126024743"><ele>259.0</ele><time>2026-05-01T13:44:15.748Z</time></trkpt><trkpt lat="45.843145717452536" lon="10.975730161481017"><ele>247.0</ele><time>2026-05-01T13:44:16.746Z</time></trkpt><trkpt lat="45.84276210851496" lon="10.97675585876719"><ele>261.0</ele><time>2026-05-01T13:44:17.75Z</time></trkpt><trkpt lat="45.84246072867453" lon="10.977830616369932"><ele>257.0</ele><time>2026-05-01T13:44:18.75Z</time></trkpt><trkpt lat="45.84224197395238" lon="10.978940807452338"><ele>250.0</ele><time>2026-05-01T13:44:19.747Z</time></trkpt><trkpt lat="45.84211213072848" lon="10.98008835600515"><ele>259.0</ele><time>2026-05-01T13:44:20.75Z</time></trkpt><trkpt lat="45.8420718" lon="10.98124112908199"><ele>269.0</ele><time>2026-05-01T13:44:21.747Z</time></trkpt><trkpt lat="45.84212031314803" lon="10.982399913583002"><ele>271.0</ele><time>2026-05-01T13:44:22.75Z</time></trkpt><trkpt lat="45.84225595201135" lon="10.9835395785789"><ele>278.0</ele><time>2026-05-01T13:44:23.748Z</time></trkpt><trkpt lat="45.84247899294343" lon="10.984655375531894"><ele>238.0</ele><time>2026-05-01T13:44:24.751Z</time></trkpt><trkpt lat="45.842782054786824" lon="10.985726016213421"><ele>210.0</ele><time>2026-05-01T13:44:25.748Z</time></trkpt><trkpt lat="45.843121482502845" lon="10.986779421464767"><ele>207.0</ele><time>2026-05-01T13:44:26.749Z</time></trkpt><trkpt lat="45.850810906892505" lon="10.962229901934938"><ele>207.0</ele><time>2026-05-01T13:44:59.002Z</time></trkpt><trkpt lat="45.85089193924074" lon="10.962081314810492"><ele>207.0</ele><time>2026-05-01T13:45:00.002Z</time></trkpt><trkpt lat="45.850955158953376" lon="10.961923247393086"><ele>207.0</ele><time>2026-05-01T13:45:01.002Z</time></trkpt><trkpt lat="45.85104455568807" lon="10.961782817819868"><ele>207.0</ele><time>2026-05-01T13:45:02.002Z</time></trkpt><trkpt lat="45.85112317292557" lon="10.961643520881212"><ele>205.0</ele><time>2026-05-01T13:45:03.002Z</time></trkpt><trkpt lat="45.85120331435138" lon="10.96149963537253"><ele>203.0</ele><time>2026-05-01T13:45:04.002Z</time></trkpt><trkpt lat="45.85128678417103" lon="10.961352471276125"><ele>201.0</ele><time>2026-05-01T13:45:05.002Z</time></trkpt><trkpt lat="45.85137059341699" lon="10.961207096030629"><ele>199.0</ele><time>2026-05-01T13:45:06.002Z</time></trkpt><trkpt lat="45.85145891270536" lon="10.961061733702946"><ele>199.0</ele><time>2026-05-01T13:45:07.002Z</time></trkpt><trkpt lat="45.85154860331427" lon="10.960920116962143"><ele>199.0</ele><time>2026-05-01T13:45:08.002Z</time></trkpt><trkpt lat="45.85163845067492" lon="10.960776311664718"><ele>199.0</ele><time>2026-05-01T13:45:09.002Z</time></trkpt><trkpt lat="45.851729981210056" lon="10.960632560939008"><ele>199.0</ele><time>2026-05-01T13:45:10.002Z</time></trkpt><trkpt lat="45.851820052324065" lon="10.960498974072513"><ele>199.0</ele><time>2026-05-01T13:45:11.002Z</time></trkpt><trkpt lat="45.85190227789306" lon="10.960376272126489"><ele>199.0</ele><time>2026-05-01T13:45:12.002Z</time></trkpt><trkpt lat="45.85198088956454" lon="10.96026550439127"><ele>199.0</ele><time>2026-05-01T13:45:13.002Z</time></trkpt><trkpt lat="45.85205752733068" lon="10.960162240571423"><ele>199.0</ele><time>2026-05-01T13:45:14.002Z</time></trkpt><trkpt lat="45.85213035050793" lon="10.960066133421806"><ele>199.0</ele><time>2026-05-01T13:45:15.002Z</time></trkpt><trkpt lat="45.852196364095796" lon="10.959977466710498"><ele>199.16666666666666</ele><time>2026-05-01T13:45:16.002Z</time></trkpt><trkpt lat="45.85226191720055" lon="10.959897724746396"><ele>199.33333333333331</ele><time>2026-05-01T13:45:17.002Z</time></trkpt><trkpt lat="45.85232356250161" lon="10.959818904733554"><ele>199.5</ele><time>2026-05-01T13:45:18.002Z</time></trkpt><trkpt lat="45.852380840808394" lon="10.959745539036705"><ele>199.66666666666669</ele><time>2026-05-01T13:45:19.002Z</time></trkpt><trkpt lat="45.85243557490801" lon="10.959676670755139"><ele>199.83333333333334</ele><time>2026-05-01T13:45:20.002Z</time></trkpt><trkpt lat="45.852484620899986" lon="10.959617526051904"><ele>200.0</ele><time>2026-05-01T13:45:21.002Z</time></trkpt><trkpt lat="45.852574634940154" lon="10.959514554641983"><ele>200.2</ele><time>2026-05-01T13:45:23.002Z</time></trkpt><trkpt lat="45.85266210068989" lon="10.959416023607005"><ele>200.4</ele><time>2026-05-01T13:45:25.002Z</time></trkpt><trkpt lat="45.85275996752997" lon="10.959306943403536"><ele>200.60000000000002</ele><time>2026-05-01T13:45:27.002Z</time></trkpt><trkpt lat="45.852854253659174" lon="10.959206783394247"><ele>200.8</ele><time>2026-05-01T13:45:29.001Z</time></trkpt><trkpt lat="45.8529188122632" lon="10.959140553803039"><ele>201.0</ele><time>2026-05-01T13:45:31.001Z</time></trkpt><trkpt lat="45.852970954606334" lon="10.95908618042558"><ele>201.0</ele><time>2026-05-01T13:45:33.001Z</time></trkpt><trkpt lat="45.8530294621076" lon="10.9590253310559"><ele>201.0</ele><time>2026-05-01T13:45:42.001Z</time></trkpt><trkpt lat="45.853091870007" lon="10.958961352617916"><ele>201.0</ele><time>2026-05-01T13:45:44.001Z</time></trkpt><trkpt lat="45.8531519364909" lon="10.958890955063428"><ele>201.0</ele><time>2026-05-01T13:45:46.001Z</time></trkpt><trkpt lat="45.853224018903724" lon="10.958817541479746"><ele>201.0</ele><time>2026-05-01T13:45:48.001Z</time></trkpt><trkpt lat="45.853314857465335" lon="10.958728050076168"><ele>201.0</ele><time>2026-05-01T13:45:50.001Z</time></trkpt><trkpt lat="45.85338912526827" lon="10.95865415467136"><ele>201.0</ele><time>2026-05-01T13:45:52.001Z</time></trkpt><trkpt lat="45.853453731194904" lon="10.958588446992685"><ele>201.0</ele><time>2026-05-01T13:45:54.001Z</time></trkpt><trkpt lat="45.85352989395238" lon="10.95850739309895"><ele>201.0</ele><time>2026-05-01T13:45:56.001Z</time></trkpt><trkpt lat="45.8536219039282" lon="10.958401597917433"><ele>201.0</ele><time>2026-05-01T13:45:58.001Z</time></trkpt><trkpt lat="45.853672154891214" lon="10.958335651003356"><ele>201.0</ele><time>2026-05-01T13:45:59.001Z</time></trkpt><trkpt lat="45.853725321727545" lon="10.958265269389441"><ele>201.0</ele><time>2026-05-01T13:46:00.001Z</time></trkpt><trkpt lat="45.85378020987981" lon="10.95819693975532"><ele>201.0</ele><time>2026-05-01T13:46:01.001Z</time></trkpt><trkpt lat="45.853836367434205" lon="10.95811967464608"><ele>201.0</ele><time>2026-05-01T13:46:02.001Z</time></trkpt><trkpt lat="45.85388824742048" lon="10.958035343372321"><ele>201.0</ele><time>2026-05-01T13:46:03.001Z</time></trkpt><trkpt lat="45.85393554969514" lon="10.957946716071934"><ele>201.0</ele><time>2026-05-01T13:46:04.001Z</time></trkpt><trkpt lat="45.853979572641244" lon="10.95785696961175"><ele>201.0</ele><time>2026-05-01T13:46:05.001Z</time></trkpt><trkpt lat="45.85402574946678" lon="10.95776435537812"><ele>201.0</ele><time>2026-05-01T13:46:06.001Z</time></trkpt><trkpt lat="45.85407218233789" lon="10.957667464972483"><ele>201.0</ele><time>2026-05-01T13:46:07.001Z</time></trkpt><trkpt lat="45.854116412512035" lon="10.957568024678093"><ele>201.0</ele><time>2026-05-01T13:46:08.001Z</time></trkpt><trkpt lat="45.85416213875878" lon="10.957466347118997"><ele>201.0</ele><time>2026-05-01T13:46:09.001Z</time></trkpt><trkpt lat="45.85420766972134" lon="10.957364851436898"><ele>201.0</ele><time>2026-05-01T13:46:10.001Z</time></trkpt><trkpt lat="45.85425068414976" lon="10.957258043463186"><ele>201.0</ele><time>2026-05-01T13:46:11.001Z</time></trkpt><trkpt lat="45.85430433786699" lon="10.95715871079526"><ele>201.0</ele><time>2026-05-01T13:46:12.001Z</time></trkpt><trkpt lat="45.85433966657643" lon="10.957045536649577"><ele>202.5</ele><time>2026-05-01T13:46:13.001Z</time></trkpt><trkpt lat="45.85437235538775" lon="10.956935606650719"><ele>204.0</ele><time>2026-05-01T13:46:14.001Z</time></trkpt><trkpt lat="45.85440389229703" lon="10.956829550435833"><ele>205.5</ele><time>2026-05-01T13:46:15.001Z</time></trkpt><trkpt lat="45.85443444404221" lon="10.956721635729822"><ele>207.0</ele><time>2026-05-01T13:46:16.001Z</time></trkpt><trkpt lat="45.85446346529212" lon="10.956616495523006"><ele>208.5</ele><time>2026-05-01T13:46:17.001Z</time></trkpt><trkpt lat="45.854490070932435" lon="10.956513754544506"><ele>210.0</ele><time>2026-05-01T13:46:18.001Z</time></trkpt><trkpt lat="45.8545146278403" lon="10.956417094897942"><ele>210.0</ele><time>2026-05-01T13:46:19.001Z</time></trkpt><trkpt lat="45.85454685929251" lon="10.956282717001523"><ele>210.0</ele><time>2026-05-01T13:46:21.001Z</time></trkpt><trkpt lat="45.85455476815573" lon="10.956178228173266"><ele>210.0</ele><time>2026-05-01T13:46:24.001Z</time></trkpt><trkpt lat="45.854599214424205" lon="10.956031907125249"><ele>210.0</ele><time>2026-05-01T13:46:31.001Z</time></trkpt><trkpt lat="45.854615718174635" lon="10.95593501011624"><ele>210.0</ele><time>2026-05-01T13:46:32.001Z</time></trkpt><trkpt lat="45.85462770390995" lon="10.955838342355817"><ele>210.0</ele><time>2026-05-01T13:46:33.001Z</time></trkpt><trkpt lat="45.85464056369277" lon="10.955691894870892"><ele>210.0</ele><time>2026-05-01T13:46:35.002Z</time></trkpt><trkpt lat="45.85463136430755" lon="10.955572489398298"><ele>210.0</ele><time>2026-05-01T13:46:37.002Z</time></trkpt><trkpt lat="45.85463578895547" lon="10.955459492994374"><ele>210.0</ele><time>2026-05-01T13:46:40.002Z</time></trkpt><trkpt lat="45.85463448168574" lon="10.955346110801765"><ele>210.0</ele><time>2026-05-01T13:46:42.002Z</time></trkpt><trkpt lat="45.854625765574944" lon="10.95522349546354"><ele>210.0</ele><time>2026-05-01T13:46:44.002Z</time></trkpt><trkpt lat="45.8546135596892" lon="10.955098662421797"><ele>210.0</ele><time>2026-05-01T13:46:46.002Z</time></trkpt><trkpt lat="45.85459960558398" lon="10.954986701849096"><ele>210.5</ele><time>2026-05-01T13:46:48.002Z</time></trkpt><trkpt lat="45.854584685688955" lon="10.954885861460996"><ele>211.0</ele><time>2026-05-01T13:46:50.002Z</time></trkpt><trkpt lat="45.854566922801055" lon="10.954771962966705"><ele>211.5</ele><time>2026-05-01T13:46:52.002Z</time></trkpt><trkpt lat="45.85455257198902" lon="10.954658846969023"><ele>212.0</ele><time>2026-05-01T13:46:54.002Z</time></trkpt><trkpt lat="45.854532536684204" lon="10.954531633727402"><ele>212.5</ele><time>2026-05-01T13:46:56.002Z</time></trkpt><trkpt lat="45.854514902659936" lon="10.954403183431888"><ele>213.0</ele><time>2026-05-01T13:46:58.002Z</time></trkpt><trkpt lat="45.85449274514573" lon="10.954271945500585"><ele>213.33333333333334</ele><time>2026-05-01T13:47:00.002Z</time></trkpt><trkpt lat="45.85447106877381" lon="10.954136287669598"><ele>213.66666666666669</ele><time>2026-05-01T13:47:02.002Z</time></trkpt><trkpt lat="45.85446656697951" lon="10.95400766955628"><ele>214.0</ele><time>2026-05-01T13:47:05.002Z</time></trkpt><trkpt lat="45.85445220154588" lon="10.953916552232835"><ele>214.33333333333334</ele><time>2026-05-01T13:47:08.002Z</time></trkpt><trkpt lat="45.85441494112772" lon="10.953811407387603"><ele>214.66666666666669</ele><time>2026-05-01T13:47:20.002Z</time></trkpt><trkpt lat="45.85437938326954" lon="10.953672317964253"><ele>215.0</ele><time>2026-05-01T13:47:22.002Z</time></trkpt><trkpt lat="45.85436962757588" lon="10.953568919782438"><ele>215.00000000000003</ele><time>2026-05-01T13:47:23.002Z</time></trkpt><trkpt lat="45.854359911648274" lon="10.953476591269473"><ele>215.0</ele><time>2026-05-01T13:47:24.002Z</time></trkpt><trkpt lat="45.85434226212138" lon="10.953351046826867"><ele>215.0</ele><time>2026-05-01T13:47:26.002Z</time></trkpt><trkpt lat="45.854323140976874" lon="10.95323587387781"><ele>215.0</ele><time>2026-05-01T13:47:28.002Z</time></trkpt><trkpt lat="45.854306507002505" lon="10.95312467901393"><ele>215.00000000000003</ele><time>2026-05-01T13:47:31.002Z</time></trkpt><trkpt lat="45.85429492995557" lon="10.95299324176739"><ele>215.0</ele><time>2026-05-01T13:47:35.001Z</time></trkpt><trkpt lat="45.854305944940855" lon="10.952860325331857"><ele>216.2</ele><time>2026-05-01T13:47:37.001Z</time></trkpt><trkpt lat="45.85429860690084" lon="10.952703258826295"><ele>217.4</ele><time>2026-05-01T13:47:39.001Z</time></trkpt><trkpt lat="45.854299220433994" lon="10.952536205613702"><ele>218.60000000000002</ele><time>2026-05-01T13:47:41.001Z</time></trkpt><trkpt lat="45.854308147670096" lon="10.95236200365722"><ele>219.8</ele><time>2026-05-01T13:47:43.001Z</time></trkpt><trkpt lat="45.85432229679396" lon="10.952219722427271"><ele>221.0</ele><time>2026-05-01T13:47:45.001Z</time></trkpt><trkpt lat="45.85433606626856" lon="10.952102422083524"><ele>221.4</ele><time>2026-05-01T13:47:47.001Z</time></trkpt><trkpt lat="45.85435389265738" lon="10.95195302900064"><ele>221.8</ele><time>2026-05-01T13:47:49.001Z</time></trkpt><trkpt lat="45.85436802629918" lon="10.951838353061689"><ele>222.20000000000002</ele><time>2026-05-01T13:47:50.001Z</time></trkpt><trkpt lat="45.854382908135314" lon="10.951717606497454"><ele>222.60000000000002</ele><time>2026-05-01T13:47:51.001Z</time></trkpt><trkpt lat="45.85439937659389" lon="10.951583986593647"><ele>223.0</ele><time>2026-05-01T13:47:52.001Z</time></trkpt><trkpt lat="45.854417111697124" lon="10.951440089516602"><ele>223.0</ele><time>2026-05-01T13:47:53.001Z</time></trkpt><trkpt lat="45.854436629341436" lon="10.951281729473667"><ele>223.0</ele><time>2026-05-01T13:47:54.001Z</time></trkpt><trkpt lat="45.85444085160671" lon="10.95110941126914"><ele>223.0</ele><time>2026-05-01T13:47:55.001Z</time></trkpt><trkpt lat="45.85446690136505" lon="10.950940719533596"><ele>223.0</ele><time>2026-05-01T13:47:56.001Z</time></trkpt><trkpt lat="45.85448938219861" lon="10.950769024567709"><ele>223.25</ele><time>2026-05-01T13:47:57.001Z</time></trkpt><trkpt lat="45.854509619776785" lon="10.950596805210358"><ele>223.5</ele><time>2026-05-01T13:47:58.001Z</time></trkpt><trkpt lat="45.854529381547785" lon="10.950430124865607"><ele>223.75</ele><time>2026-05-01T13:47:59.001Z</time></trkpt><trkpt lat="45.85454665311226" lon="10.950281189597748"><ele>224.0</ele><time>2026-05-01T13:48:00.001Z</time></trkpt><trkpt lat="45.85457885664439" lon="10.950130703642298"><ele>226.0</ele><time>2026-05-01T13:48:01.001Z</time></trkpt><trkpt lat="45.85459860945623" lon="10.949972979198126"><ele>227.99999999999997</ele><time>2026-05-01T13:48:02.001Z</time></trkpt><trkpt lat="45.8546185007728" lon="10.949814148810342"><ele>229.99999999999997</ele><time>2026-05-01T13:48:03.001Z</time></trkpt><trkpt lat="45.854637701220675" lon="10.949660834936774"><ele>232.0</ele><time>2026-05-01T13:48:04.001Z</time></trkpt><trkpt lat="45.854656292767785" lon="10.94951238309215"><ele>234.0</ele><time>2026-05-01T13:48:05.001Z</time></trkpt><trkpt lat="45.854674912281695" lon="10.949363598265236"><ele>234.0</ele><time>2026-05-01T13:48:06.001Z</time></trkpt><trkpt lat="45.85467728219506" lon="10.949213004019041"><ele>233.99999999999997</ele><time>2026-05-01T13:48:07.001Z</time></trkpt><trkpt lat="45.8546984193385" lon="10.949069757587898"><ele>233.99999999999997</ele><time>2026-05-01T13:48:08.001Z</time></trkpt><trkpt lat="45.854720577552854" lon="10.948929665041678"><ele>234.0</ele><time>2026-05-01T13:48:09.001Z</time></trkpt><trkpt lat="45.85473622083093" lon="10.94878890880518"><ele>234.0</ele><time>2026-05-01T13:48:10.001Z</time></trkpt><trkpt lat="45.85475092248858" lon="10.948646970173858"><ele>235.16666666666666</ele><time>2026-05-01T13:48:11.001Z</time></trkpt><trkpt lat="45.85476761719957" lon="10.94850683691115"><ele>236.33333333333331</ele><time>2026-05-01T13:48:12.001Z</time></trkpt><trkpt lat="45.85478375112609" lon="10.948367714242371"><ele>237.5</ele><time>2026-05-01T13:48:13.001Z</time></trkpt><trkpt lat="45.85480273281763" lon="10.9482451853456"><ele>238.66666666666666</ele><time>2026-05-01T13:48:14.001Z</time></trkpt><trkpt lat="45.854814195654164" lon="10.948151399693002"><ele>239.83333333333331</ele><time>2026-05-01T13:48:15.001Z</time></trkpt><trkpt lat="45.8548348354046" lon="10.948024411052288"><ele>241.0</ele><time>2026-05-01T13:48:17.001Z</time></trkpt><trkpt lat="45.85485099609015" lon="10.947897029306832"><ele>241.20000000000002</ele><time>2026-05-01T13:48:19.001Z</time></trkpt><trkpt lat="45.85487411735585" lon="10.947708952394304"><ele>241.40000000000003</ele><time>2026-05-01T13:48:21.001Z</time></trkpt><trkpt lat="45.85488323501075" lon="10.94757582327464"><ele>241.6</ele><time>2026-05-01T13:48:22.001Z</time></trkpt><trkpt lat="45.854900778574546" lon="10.947436306962233"><ele>241.8</ele><time>2026-05-01T13:48:23.001Z</time></trkpt><trkpt lat="45.85492535565946" lon="10.94728829405388"><ele>242.0</ele><time>2026-05-01T13:48:24.001Z</time></trkpt><trkpt lat="45.854947695522625" lon="10.947132446497898"><ele>241.0</ele><time>2026-05-01T13:48:25.001Z</time></trkpt><trkpt lat="45.854967965726416" lon="10.946972437445506"><ele>240.0</ele><time>2026-05-01T13:48:26.001Z</time></trkpt><trkpt lat="45.85498834567438" lon="10.946799330535088"><ele>239.0</ele><time>2026-05-01T13:48:27.001Z</time></trkpt><trkpt lat="45.855011757294726" lon="10.946624253163328"><ele>238.0</ele><time>2026-05-01T13:48:28.001Z</time></trkpt><trkpt lat="45.85503444584554" lon="10.946453692033703"><ele>236.4</ele><time>2026-05-01T13:48:29.001Z</time></trkpt><trkpt lat="45.855056617563434" lon="10.94629624412277"><ele>234.8</ele><time>2026-05-01T13:48:30.001Z</time></trkpt><trkpt lat="45.85507575467276" lon="10.946147355975867"><ele>233.2</ele><time>2026-05-01T13:48:31.001Z</time></trkpt><trkpt lat="45.85509217831455" lon="10.946005252412153"><ele>231.6</ele><time>2026-05-01T13:48:32.001Z</time></trkpt><trkpt lat="45.855108946149294" lon="10.945876546220699"><ele>230.0</ele><time>2026-05-01T13:48:33.001Z</time></trkpt><trkpt lat="45.85512371265356" lon="10.945757764390532"><ele>235.57142857142856</ele><time>2026-05-01T13:48:34.001Z</time></trkpt><trkpt lat="45.85513744485566" lon="10.945648365030113"><ele>241.14285714285714</ele><time>2026-05-01T13:48:35.001Z</time></trkpt><trkpt lat="45.85514958919438" lon="10.945548515062438"><ele>246.71428571428572</ele><time>2026-05-01T13:48:36.001Z</time></trkpt><trkpt lat="45.855161755122595" lon="10.945455758526242"><ele>252.28571428571428</ele><time>2026-05-01T13:48:37.001Z</time></trkpt><trkpt lat="45.85517199644797" lon="10.945355658167266"><ele>257.8571428571429</ele><time>2026-05-01T13:48:38.001Z</time></trkpt><trkpt lat="45.85518438807839" lon="10.945253678126775"><ele>263.42857142857144</ele><time>2026-05-01T13:48:39.001Z</time></trkpt><trkpt lat="45.85519802197263" lon="10.94514743455197"><ele>269.0</ele><time>2026-05-01T13:48:40.001Z</time></trkpt><trkpt lat="45.85521132267106" lon="10.945036010992013"><ele>269.0</ele><time>2026-05-01T13:48:41.001Z</time></trkpt><trkpt lat="45.855225384212574" lon="10.944924754267577"><ele>269.0</ele><time>2026-05-01T13:48:42.001Z</time></trkpt><trkpt lat="45.85523893645696" lon="10.944817345598455"><ele>269.0</ele><time>2026-05-01T13:48:43.001Z</time></trkpt><trkpt lat="45.85525273243562" lon="10.944707168094522"><ele>269.0</ele><time>2026-05-01T13:48:44.001Z</time></trkpt><trkpt lat="45.85526693732091" lon="10.944599644870257"><ele>269.0</ele><time>2026-05-01T13:48:45.001Z</time></trkpt><trkpt lat="45.855279275326495" lon="10.944503519450524"><ele>269.0</ele><time>2026-05-01T13:48:46.001Z</time></trkpt><trkpt lat="45.85529220695969" lon="10.944399080339664"><ele>269.0</ele><time>2026-05-01T13:48:47.001Z</time></trkpt><trkpt lat="45.855303460108836" lon="10.944293534148528"><ele>269.0</ele><time>2026-05-01T13:48:48.001Z</time></trkpt><trkpt lat="45.85531742779186" lon="10.944158506428156"><ele>269.0</ele><time>2026-05-01T13:48:49.001Z</time></trkpt><trkpt lat="45.85533736855722" lon="10.943974817969533"><ele>269.0</ele><time>2026-05-01T13:48:50.001Z</time></trkpt><trkpt lat="45.85536601199599" lon="10.943786916025184"><ele>269.0</ele><time>2026-05-01T13:48:51.001Z</time></trkpt><trkpt lat="45.85539038794816" lon="10.94361960970942"><ele>267.1666666666667</ele><time>2026-05-01T13:48:52.001Z</time></trkpt><trkpt lat="45.855409679017946" lon="10.943465520810058"><ele>265.33333333333337</ele><time>2026-05-01T13:48:53.001Z</time></trkpt><trkpt lat="45.85542991285706" lon="10.94333252402543"><ele>263.5</ele><time>2026-05-01T13:48:54.001Z</time></trkpt><trkpt lat="45.855445597430084" lon="10.943207771681413"><ele>261.6666666666667</ele><time>2026-05-01T13:48:55.001Z</time></trkpt><trkpt lat="45.855459843994225" lon="10.943099302623715"><ele>259.8333333333333</ele><time>2026-05-01T13:48:56.001Z</time></trkpt><trkpt lat="45.85547081220832" lon="10.943003802574358"><ele>258.0</ele><time>2026-05-01T13:48:57.001Z</time></trkpt><trkpt lat="45.85548002777539" lon="10.942914225506863"><ele>256.8</ele><time>2026-05-01T13:48:58.001Z</time></trkpt><trkpt lat="45.855491143719014" lon="10.94280930559722"><ele>255.60000000000002</ele><time>2026-05-01T13:48:59.001Z</time></trkpt><trkpt lat="45.855502770581786" lon="10.94268810894967"><ele>254.39999999999998</ele><time>2026-05-01T13:49:00.001Z</time></trkpt><trkpt lat="45.85551894400738" lon="10.942556335531936"><ele>253.2</ele><time>2026-05-01T13:49:01.001Z</time></trkpt><trkpt lat="45.85553188903418" lon="10.942413627420663"><ele>252.0</ele><time>2026-05-01T13:49:02.001Z</time></trkpt><trkpt lat="45.8555340580522" lon="10.942269058642495"><ele>251.5</ele><time>2026-05-01T13:49:03.001Z</time></trkpt><trkpt lat="45.85554144816012" lon="10.9421562976105"><ele>251.0</ele><time>2026-05-01T13:49:04.001Z</time></trkpt><trkpt lat="45.85553068569381" lon="10.94201107659929"><ele>250.5</ele><time>2026-05-01T13:49:06.001Z</time></trkpt><trkpt lat="45.855512281010526" lon="10.941914065936546"><ele>250.0</ele><time>2026-05-01T13:49:07.001Z</time></trkpt><trkpt lat="45.85549627009658" lon="10.941788359542217"><ele>249.5</ele><time>2026-05-01T13:49:08.001Z</time></trkpt><trkpt lat="45.85547448273228" lon="10.941649637812484"><ele>249.0</ele><time>2026-05-01T13:49:09.001Z</time></trkpt><trkpt lat="45.8554465341864" lon="10.941527012876739"><ele>248.5</ele><time>2026-05-01T13:49:10.001Z</time></trkpt><trkpt lat="45.85541682866189" lon="10.941423409650746"><ele>248.0</ele><time>2026-05-01T13:49:11.001Z</time></trkpt><trkpt lat="45.85538882252029" lon="10.94133477558359"><ele>247.5</ele><time>2026-05-01T13:49:12.001Z</time></trkpt><trkpt lat="45.85536252616347" lon="10.941251364753992"><ele>247.0</ele><time>2026-05-01T13:49:13.001Z</time></trkpt><trkpt lat="45.8553161804962" lon="10.941096603304116"><ele>246.5</ele><time>2026-05-01T13:49:15.001Z</time></trkpt><trkpt lat="45.8552804548893" lon="10.940971019366186"><ele>246.0</ele><time>2026-05-01T13:49:17.001Z</time></trkpt><trkpt lat="45.85525221720052" lon="10.940872693310416"><ele>245.0</ele><time>2026-05-01T13:49:19.001Z</time></trkpt><trkpt lat="45.855217779728385" lon="10.940766185262355"><ele>244.00000000000003</ele><time>2026-05-01T13:49:21.001Z</time></trkpt><trkpt lat="45.85518534673422" lon="10.94066035161024"><ele>243.00000000000003</ele><time>2026-05-01T13:49:23.001Z</time></trkpt><trkpt lat="45.85514720444309" lon="10.940529594863285"><ele>242.0</ele><time>2026-05-01T13:49:25.001Z</time></trkpt><trkpt lat="45.85510386332254" lon="10.940385188894773"><ele>241.0</ele><time>2026-05-01T13:49:27.001Z</time></trkpt><trkpt lat="45.855083913169686" lon="10.940271779847517"><ele>237.33333333333331</ele><time>2026-05-01T13:49:28.001Z</time></trkpt><trkpt lat="45.85504756767888" lon="10.9401465237421"><ele>233.66666666666666</ele><time>2026-05-01T13:49:29.001Z</time></trkpt><trkpt lat="45.855014100386576" lon="10.940031186663427"><ele>230.0</ele><time>2026-05-01T13:49:30.001Z</time></trkpt><trkpt lat="45.854970207259214" lon="10.93993577711154"><ele>226.33333333333331</ele><time>2026-05-01T13:49:31.001Z</time></trkpt><trkpt lat="45.85494405896428" lon="10.939842533994472"><ele>222.66666666666666</ele><time>2026-05-01T13:49:32.001Z</time></trkpt><trkpt lat="45.8549300056936" lon="10.939742804817522"><ele>219.0</ele><time>2026-05-01T13:49:33.001Z</time></trkpt><trkpt lat="45.854900637263995" lon="10.93964334799979"><ele>219.0</ele><time>2026-05-01T13:49:34.001Z</time></trkpt><trkpt lat="45.8548721304395" lon="10.939546809041506"><ele>219.0</ele><time>2026-05-01T13:49:35.001Z</time></trkpt><trkpt lat="45.854843845960104" lon="10.93945102305007"><ele>219.0</ele><time>2026-05-01T13:49:36.001Z</time></trkpt><trkpt lat="45.85481432334226" lon="10.939351044081036"><ele>219.0</ele><time>2026-05-01T13:49:37.001Z</time></trkpt><trkpt lat="45.85478189753235" lon="10.939241233381642"><ele>219.0</ele><time>2026-05-01T13:49:38.001Z</time></trkpt><trkpt lat="45.85474933487149" lon="10.939130959235152"><ele>219.0</ele><time>2026-05-01T13:49:39.001Z</time></trkpt><trkpt lat="45.85471978184708" lon="10.939030877291714"><ele>218.83333333333334</ele><time>2026-05-01T13:49:40.001Z</time></trkpt><trkpt lat="45.85469058863522" lon="10.938932013870982"><ele>218.66666666666669</ele><time>2026-05-01T13:49:41.001Z</time></trkpt><trkpt lat="45.854662093913234" lon="10.93883551587056"><ele>218.5</ele><time>2026-05-01T13:49:42.001Z</time></trkpt><trkpt lat="45.854614278651326" lon="10.93867358847521"><ele>218.33333333333334</ele><time>2026-05-01T13:49:44.001Z</time></trkpt><trkpt lat="45.85458806202421" lon="10.938584805303893"><ele>218.16666666666669</ele><time>2026-05-01T13:49:45.001Z</time></trkpt><trkpt lat="45.85456076445717" lon="10.93849236151214"><ele>218.0</ele><time>2026-05-01T13:49:46.001Z</time></trkpt><trkpt lat="45.854520260112935" lon="10.938411469403704"><ele>218.16666666666669</ele><time>2026-05-01T13:49:47.001Z</time></trkpt><trkpt lat="45.85448447201649" lon="10.938232885387713"><ele>218.33333333333334</ele><time>2026-05-01T13:49:49.001Z</time></trkpt><trkpt lat="45.85443920914497" lon="10.938140502268995"><ele>218.5</ele><time>2026-05-01T13:49:50.001Z</time></trkpt><trkpt lat="45.85442243676209" lon="10.938024365428218"><ele>218.66666666666669</ele><time>2026-05-01T13:49:51.001Z</time></trkpt><trkpt lat="45.854393718500404" lon="10.937925902393605"><ele>218.83333333333334</ele><time>2026-05-01T13:49:52.001Z</time></trkpt><trkpt lat="45.854352408463406" lon="10.937835256362211"><ele>219.0</ele><time>2026-05-01T13:49:53.001Z</time></trkpt><trkpt lat="45.854324650559086" lon="10.937739532878053"><ele>219.0</ele><time>2026-05-01T13:49:54.001Z</time></trkpt><trkpt lat="45.85431467640901" lon="10.937637733900893"><ele>219.0</ele><time>2026-05-01T13:49:55.001Z</time></trkpt><trkpt lat="45.85429062912247" lon="10.937547260092227"><ele>219.0</ele><time>2026-05-01T13:49:56.001Z</time></trkpt><trkpt lat="45.85426810232731" lon="10.937456043459118"><ele>219.0</ele><time>2026-05-01T13:49:57.001Z</time></trkpt><trkpt lat="45.8542433238519" lon="10.937355709248568"><ele>219.0</ele><time>2026-05-01T13:49:58.001Z</time></trkpt><trkpt lat="45.85420715110413" lon="10.937260251914315"><ele>219.0</ele><time>2026-05-01T13:49:59.001Z</time></trkpt><trkpt lat="45.85418488634032" lon="10.937091616799297"><ele>218.79999999999998</ele><time>2026-05-01T13:50:01.001Z</time></trkpt><trkpt lat="45.85417138978811" lon="10.936908343185811"><ele>218.59999999999997</ele><time>2026-05-01T13:50:03.001Z</time></trkpt><trkpt lat="45.85416502499894" lon="10.936815015459727"><ele>218.4</ele><time>2026-05-01T13:50:04.001Z</time></trkpt><trkpt lat="45.85415751881068" lon="10.936654176052539"><ele>218.2</ele><time>2026-05-01T13:50:06.001Z</time></trkpt><trkpt lat="45.85416084111656" lon="10.936514425945495"><ele>218.0</ele><time>2026-05-01T13:50:08.001Z</time></trkpt><trkpt lat="45.85416829612002" lon="10.936351601675286"><ele>218.4</ele><time>2026-05-01T13:50:10.001Z</time></trkpt><trkpt lat="45.854192224249864" lon="10.93618185378025"><ele>218.8</ele><time>2026-05-01T13:50:12.001Z</time></trkpt><trkpt lat="45.8542078348626" lon="10.936084690188837"><ele>219.2</ele><time>2026-05-01T13:50:13.001Z</time></trkpt><trkpt lat="45.85422727489264" lon="10.935979530729968"><ele>219.6</ele><time>2026-05-01T13:50:14.001Z</time></trkpt><trkpt lat="45.8542649390249" lon="10.935863672377867"><ele>220.0</ele><time>2026-05-01T13:50:15.001Z</time></trkpt><trkpt lat="45.85429484304658" lon="10.935726153864417"><ele>220.6</ele><time>2026-05-01T13:50:16.001Z</time></trkpt><trkpt lat="45.854318336335105" lon="10.935574922194077"><ele>221.2</ele><time>2026-05-01T13:50:17.001Z</time></trkpt><trkpt lat="45.85435335476504" lon="10.935438193932871"><ele>221.8</ele><time>2026-05-01T13:50:18.001Z</time></trkpt><trkpt lat="45.854389063104605" lon="10.935291543169267"><ele>222.4</ele><time>2026-05-01T13:50:19.001Z</time></trkpt><trkpt lat="45.85442131857746" lon="10.935139449905481"><ele>223.0</ele><time>2026-05-01T13:50:20.001Z</time></trkpt><trkpt lat="45.854455159602374" lon="10.934976882011098"><ele>224.0</ele><time>2026-05-01T13:50:21.001Z</time></trkpt><trkpt lat="45.85448639223653" lon="10.934831850728585"><ele>225.0</ele><time>2026-05-01T13:50:22.001Z</time></trkpt><trkpt lat="45.854517528393394" lon="10.93469274267705"><ele>226.0</ele><time>2026-05-01T13:50:23.001Z</time></trkpt><trkpt lat="45.85454736544774" lon="10.93454802680907"><ele>227.0</ele><time>2026-05-01T13:50:24.001Z</time></trkpt><trkpt lat="45.85457810861231" lon="10.934408476267805"><ele>228.0</ele><time>2026-05-01T13:50:25.001Z</time></trkpt><trkpt lat="45.854605344633775" lon="10.934281160087194"><ele>228.2</ele><time>2026-05-01T13:50:26.001Z</time></trkpt><trkpt lat="45.85463576668254" lon="10.934142438156337"><ele>228.4</ele><time>2026-05-01T13:50:27.001Z</time></trkpt><trkpt lat="45.85466779134867" lon="10.933995418297043"><ele>228.59999999999997</ele><time>2026-05-01T13:50:28.001Z</time></trkpt><trkpt lat="45.854698334691676" lon="10.93385545718443"><ele>228.79999999999998</ele><time>2026-05-01T13:50:29.001Z</time></trkpt><trkpt lat="45.85472460201035" lon="10.933730511792373"><ele>229.0</ele><time>2026-05-01T13:50:30.001Z</time></trkpt><trkpt lat="45.854751385286" lon="10.933615264082157"><ele>229.0</ele><time>2026-05-01T13:50:31.001Z</time></trkpt><trkpt lat="45.854775543173446" lon="10.933505362383654"><ele>229.0</ele><time>2026-05-01T13:50:32.001Z</time></trkpt><trkpt lat="45.85480067602773" lon="10.933403624722148"><ele>229.0</ele><time>2026-05-01T13:50:33.001Z</time></trkpt><trkpt lat="45.85482428565136" lon="10.933297557339488"><ele>229.0</ele><time>2026-05-01T13:50:34.001Z</time></trkpt><trkpt lat="45.85484972538643" lon="10.933188690049102"><ele>229.0</ele><time>2026-05-01T13:50:35.001Z</time></trkpt><trkpt lat="45.85487129101244" lon="10.933095240596506"><ele>229.0</ele><time>2026-05-01T13:50:36.001Z</time></trkpt><trkpt lat="45.854891640482535" lon="10.933005288824164"><ele>229.0</ele><time>2026-05-01T13:50:37.001Z</time></trkpt><trkpt lat="45.8549089325463" lon="10.93291441066302"><ele>228.79999999999998</ele><time>2026-05-01T13:50:38.001Z</time></trkpt><trkpt lat="45.85494278562993" lon="10.932759096659842"><ele>228.59999999999997</ele><time>2026-05-01T13:50:40.001Z</time></trkpt><trkpt lat="45.85497904950335" lon="10.932602007785578"><ele>228.4</ele><time>2026-05-01T13:50:42.001Z</time></trkpt><trkpt lat="45.85501996581648" lon="10.932447891056775"><ele>228.2</ele><time>2026-05-01T13:50:44.001Z</time></trkpt><trkpt lat="45.855044556614914" lon="10.932363272873545"><ele>228.0</ele><time>2026-05-01T13:50:45.001Z</time></trkpt><trkpt lat="45.855082839760634" lon="10.93227530785774"><ele>228.33333333333334</ele><time>2026-05-01T13:50:46.001Z</time></trkpt><trkpt lat="45.85514174067812" lon="10.932193964051963"><ele>228.66666666666669</ele><time>2026-05-01T13:50:47.001Z</time></trkpt><trkpt lat="45.85521167148708" lon="10.932132073044954"><ele>229.0</ele><time>2026-05-01T13:50:48.001Z</time></trkpt><trkpt lat="45.85527633939909" lon="10.932048990007207"><ele>229.33333333333334</ele><time>2026-05-01T13:50:49.001Z</time></trkpt><trkpt lat="45.85530437305216" lon="10.931932352763194"><ele>229.66666666666669</ele><time>2026-05-01T13:50:50.001Z</time></trkpt><trkpt lat="45.85529461100426" lon="10.931802124455167"><ele>230.0</ele><time>2026-05-01T13:50:51.001Z</time></trkpt><trkpt lat="45.85526245497686" lon="10.931671598715534"><ele>230.0</ele><time>2026-05-01T13:50:52.001Z</time></trkpt><trkpt lat="45.855248392647376" lon="10.931536637663825"><ele>230.0</ele><time>2026-05-01T13:50:53.001Z</time></trkpt><trkpt lat="45.85526427193807" lon="10.931397773297743"><ele>230.0</ele><time>2026-05-01T13:50:54.001Z</time></trkpt><trkpt lat="45.85529407708323" lon="10.931245256292627"><ele>230.0</ele><time>2026-05-01T13:50:55.001Z</time></trkpt><trkpt lat="45.855325894996675" lon="10.931098016909552"><ele>230.0</ele><time>2026-05-01T13:50:56.001Z</time></trkpt><trkpt lat="45.85536181395291" lon="10.930943773774532"><ele>230.0</ele><time>2026-05-01T13:50:57.001Z</time></trkpt><trkpt lat="45.855398583177134" lon="10.930786396737133"><ele>230.0</ele><time>2026-05-01T13:50:58.001Z</time></trkpt><trkpt lat="45.85543346558821" lon="10.930626344656243"><ele>230.0</ele><time>2026-05-01T13:50:59.001Z</time></trkpt><trkpt lat="45.85546966264097" lon="10.930468031168378"><ele>230.0</ele><time>2026-05-01T13:51:00.001Z</time></trkpt><trkpt lat="45.855507946624265" lon="10.93031266164348"><ele>230.0</ele><time>2026-05-01T13:51:01.001Z</time></trkpt><trkpt lat="45.85554277695887" lon="10.930164575318141"><ele>230.0</ele><time>2026-05-01T13:51:02.001Z</time></trkpt><trkpt lat="45.85557401813147" lon="10.930010712483545"><ele>230.0</ele><time>2026-05-01T13:51:03.001Z</time></trkpt><trkpt lat="45.85560854429426" lon="10.929839190446618"><ele>230.0</ele><time>2026-05-01T13:51:04.001Z</time></trkpt><trkpt lat="45.85566222693214" lon="10.929670417372447"><ele>229.0</ele><time>2026-05-01T13:51:05.001Z</time></trkpt><trkpt lat="45.855688164559055" lon="10.929484000432767"><ele>228.0</ele><time>2026-05-01T13:51:06.001Z</time></trkpt><trkpt lat="45.85573172573798" lon="10.92929967305334"><ele>227.0</ele><time>2026-05-01T13:51:07.001Z</time></trkpt><trkpt lat="45.85578977223829" lon="10.929118550332053"><ele>226.0</ele><time>2026-05-01T13:51:08.001Z</time></trkpt><trkpt lat="45.855819726428706" lon="10.928919824376303"><ele>226.0</ele><time>2026-05-01T13:51:09.001Z</time></trkpt><trkpt lat="45.855861780255005" lon="10.928738334902452"><ele>226.0</ele><time>2026-05-01T13:51:10.001Z</time></trkpt><trkpt lat="45.85589823053079" lon="10.928568376091532"><ele>226.0</ele><time>2026-05-01T13:51:11.001Z</time></trkpt><trkpt lat="45.85594362936611" lon="10.928424688465993"><ele>226.0</ele><time>2026-05-01T13:51:12.001Z</time></trkpt><trkpt lat="45.85596086788056" lon="10.928284735050337"><ele>227.66666666666666</ele><time>2026-05-01T13:51:13.001Z</time></trkpt><trkpt lat="45.855985957556385" lon="10.92816644975859"><ele>229.33333333333331</ele><time>2026-05-01T13:51:14.001Z</time></trkpt><trkpt lat="45.8560095312847" lon="10.928056685065"><ele>231.0</ele><time>2026-05-01T13:51:15.001Z</time></trkpt><trkpt lat="45.856032800365746" lon="10.927948658546029"><ele>232.66666666666669</ele><time>2026-05-01T13:51:16.001Z</time></trkpt><trkpt lat="45.8560619595269" lon="10.927833431428603"><ele>234.33333333333334</ele><time>2026-05-01T13:51:17.001Z</time></trkpt><trkpt lat="45.85609049187836" lon="10.927711006564213"><ele>236.0</ele><time>2026-05-01T13:51:18.001Z</time></trkpt><trkpt lat="45.85611914397281" lon="10.927580436027235"><ele>235.20000000000002</ele><time>2026-05-01T13:51:19.001Z</time></trkpt><trkpt lat="45.85614714670082" lon="10.927451344600113"><ele>234.40000000000003</ele><time>2026-05-01T13:51:20.001Z</time></trkpt><trkpt lat="45.85617506426597" lon="10.92731332022816"><ele>233.6</ele><time>2026-05-01T13:51:21.001Z</time></trkpt><trkpt lat="45.85620520813454" lon="10.92717226470725"><ele>232.8</ele><time>2026-05-01T13:51:22.001Z</time></trkpt><trkpt lat="45.856238512329085" lon="10.927024840794498"><ele>232.0</ele><time>2026-05-01T13:51:23.001Z</time></trkpt><trkpt lat="45.85627183535411" lon="10.926875703886076"><ele>230.75</ele><time>2026-05-01T13:51:24.001Z</time></trkpt><trkpt lat="45.85630768489555" lon="10.926719892262238"><ele>229.5</ele><time>2026-05-01T13:51:25.001Z</time></trkpt><trkpt lat="45.85634614235599" lon="10.926561663717829"><ele>228.25</ele><time>2026-05-01T13:51:26.001Z</time></trkpt><trkpt lat="45.85638479417275" lon="10.926396631612668"><ele>227.0</ele><time>2026-05-01T13:51:27.001Z</time></trkpt><trkpt lat="45.85642599348478" lon="10.926225621205015"><ele>227.0</ele><time>2026-05-01T13:51:28.001Z</time></trkpt><trkpt lat="45.85646333309841" lon="10.926062517832476"><ele>227.0</ele><time>2026-05-01T13:51:29.001Z</time></trkpt><trkpt lat="45.85650058737489" lon="10.925904132225662"><ele>227.0</ele><time>2026-05-01T13:51:30.001Z</time></trkpt><trkpt lat="45.856536863966845" lon="10.925750201143842"><ele>227.0</ele><time>2026-05-01T13:51:31.001Z</time></trkpt><trkpt lat="45.85657329897943" lon="10.925591249417954"><ele>225.5</ele><time>2026-05-01T13:51:32.001Z</time></trkpt><trkpt lat="45.856610822719276" lon="10.925423547161486"><ele>224.0</ele><time>2026-05-01T13:51:33.001Z</time></trkpt><trkpt lat="45.8566491699526" lon="10.925251949278305"><ele>222.5</ele><time>2026-05-01T13:51:34Z</time></trkpt><trkpt lat="45.85668965733116" lon="10.92507817774748"><ele>221.0</ele><time>2026-05-01T13:51:35Z</time></trkpt><trkpt lat="45.85672945113822" lon="10.924904711954094"><ele>221.0</ele><time>2026-05-01T13:51:36Z</time></trkpt><trkpt lat="45.85676927356686" lon="10.924735455233435"><ele>221.0</ele><time>2026-05-01T13:51:37Z</time></trkpt><trkpt lat="45.856808771204804" lon="10.924566769105628"><ele>221.0</ele><time>2026-05-01T13:51:38Z</time></trkpt><trkpt lat="45.85684802266374" lon="10.924391614769585"><ele>221.0</ele><time>2026-05-01T13:51:39Z</time></trkpt><trkpt lat="45.85688656785633" lon="10.924218836208668"><ele>220.5</ele><time>2026-05-01T13:51:40Z</time></trkpt><trkpt lat="45.85692883848016" lon="10.9240392672204"><ele>220.0</ele><time>2026-05-01T13:51:41Z</time></trkpt><trkpt lat="45.85696883515058" lon="10.923856232286381"><ele>219.5</ele><time>2026-05-01T13:51:42Z</time></trkpt><trkpt lat="45.85700587864975" lon="10.92365666726272"><ele>219.0</ele><time>2026-05-01T13:51:43Z</time></trkpt><trkpt lat="45.85706601236235" lon="10.923444812623632"><ele>220.0</ele><time>2026-05-01T13:51:44Z</time></trkpt><trkpt lat="45.85711990409903" lon="10.923208233467717"><ele>221.0</ele><time>2026-05-01T13:51:45Z</time></trkpt><trkpt lat="45.857159960390405" lon="10.922971531334053"><ele>222.0</ele><time>2026-05-01T13:51:46Z</time></trkpt><trkpt lat="45.85721660758021" lon="10.922759544842275"><ele>222.33333333333331</ele><time>2026-05-01T13:51:47Z</time></trkpt><trkpt lat="45.85725958832482" lon="10.92254960814809"><ele>222.66666666666666</ele><time>2026-05-01T13:51:48Z</time></trkpt><trkpt lat="45.85730660585417" lon="10.922331031177679"><ele>223.0</ele><time>2026-05-01T13:51:49Z</time></trkpt><trkpt lat="45.85735573457773" lon="10.92210583311131"><ele>223.0</ele><time>2026-05-01T13:51:50Z</time></trkpt><trkpt lat="45.85740807247289" lon="10.921881562669503"><ele>223.0</ele><time>2026-05-01T13:51:51Z</time></trkpt><trkpt lat="45.85746169153854" lon="10.921660848934177"><ele>223.0</ele><time>2026-05-01T13:51:52Z</time></trkpt><trkpt lat="45.85751790003716" lon="10.921442257277997"><ele>223.33333333333331</ele><time>2026-05-01T13:51:53Z</time></trkpt><trkpt lat="45.857585767458566" lon="10.921223800190615"><ele>223.66666666666669</ele><time>2026-05-01T13:51:54Z</time></trkpt><trkpt lat="45.857673810369846" lon="10.921020746352056"><ele>224.0</ele><time>2026-05-01T13:51:55Z</time></trkpt><trkpt lat="45.85778166680017" lon="10.920837614444462"><ele>222.66666666666669</ele><time>2026-05-01T13:51:56Z</time></trkpt><trkpt lat="45.85789821254487" lon="10.920658341409194"><ele>221.33333333333331</ele><time>2026-05-01T13:51:57Z</time></trkpt><trkpt lat="45.85802784007476" lon="10.920495595765543"><ele>220.0</ele><time>2026-05-01T13:51:58Z</time></trkpt><trkpt lat="45.85817411427457" lon="10.920359599183849"><ele>220.0</ele><time>2026-05-01T13:51:59Z</time></trkpt><trkpt lat="45.858329471241674" lon="10.920235846267824"><ele>220.0</ele><time>2026-05-01T13:52:00Z</time></trkpt><trkpt lat="45.858486298535475" lon="10.920113201089872"><ele>220.0</ele><time>2026-05-01T13:52:01Z</time></trkpt><trkpt lat="45.85864550802166" lon="10.919982068503296"><ele>222.0</ele><time>2026-05-01T13:52:02Z</time></trkpt><trkpt lat="45.85879808243404" lon="10.91985018719842"><ele>224.0</ele><time>2026-05-01T13:52:03Z</time></trkpt><trkpt lat="45.858937667368494" lon="10.919724649042728"><ele>226.0</ele><time>2026-05-01T13:52:04Z</time></trkpt><trkpt lat="45.8590742246528" lon="10.919604309584791"><ele>226.0</ele><time>2026-05-01T13:52:05Z</time></trkpt><trkpt lat="45.859208064958146" lon="10.91949323163663"><ele>226.0</ele><time>2026-05-01T13:52:06Z</time></trkpt><trkpt lat="45.85934048723266" lon="10.919377304545668"><ele>226.0</ele><time>2026-05-01T13:52:07Z</time></trkpt><trkpt lat="45.85946580021724" lon="10.919274549749304"><ele>226.0</ele><time>2026-05-01T13:52:08Z</time></trkpt><trkpt lat="45.859584143651155" lon="10.919180853987694"><ele>226.0</ele><time>2026-05-01T13:52:09Z</time></trkpt><trkpt lat="45.859695408590284" lon="10.919089233781227"><ele>226.0</ele><time>2026-05-01T13:52:10Z</time></trkpt><trkpt lat="45.859802118730705" lon="10.918992801436062"><ele>226.0</ele><time>2026-05-01T13:52:11Z</time></trkpt><trkpt lat="45.85991882880767" lon="10.91889329881994"><ele>226.0</ele><time>2026-05-01T13:52:12Z</time></trkpt><trkpt lat="45.86003696032965" lon="10.918789075793363"><ele>226.0</ele><time>2026-05-01T13:52:13Z</time></trkpt><trkpt lat="45.86014541498946" lon="10.918695706368258"><ele>226.0</ele><time>2026-05-01T13:52:14Z</time></trkpt><trkpt lat="45.86027177105199" lon="10.918591476543108"><ele>226.0</ele><time>2026-05-01T13:52:15Z</time></trkpt><trkpt lat="45.86039554182706" lon="10.918489374482617"><ele>226.66666666666666</ele><time>2026-05-01T13:52:16Z</time></trkpt><trkpt lat="45.8605168956422" lon="10.918387618149367"><ele>227.33333333333331</ele><time>2026-05-01T13:52:17Z</time></trkpt><trkpt lat="45.860651178571615" lon="10.918272538290381"><ele>228.0</ele><time>2026-05-01T13:52:18Z</time></trkpt><trkpt lat="45.86080598714974" lon="10.918122833868981"><ele>223.33333333333331</ele><time>2026-05-01T13:52:19Z</time></trkpt><trkpt lat="45.86099172753381" lon="10.91797790512949"><ele>218.66666666666666</ele><time>2026-05-01T13:52:20Z</time></trkpt><trkpt lat="45.86116795920676" lon="10.917825577318887"><ele>214.0</ele><time>2026-05-01T13:52:21Z</time></trkpt><trkpt lat="45.861339991165174" lon="10.91767666821032"><ele>215.0</ele><time>2026-05-01T13:52:22Z</time></trkpt><trkpt lat="45.86150686412392" lon="10.917541626403322"><ele>216.0</ele><time>2026-05-01T13:52:23Z</time></trkpt><trkpt lat="45.861663972773144" lon="10.917424923360336"><ele>217.0</ele><time>2026-05-01T13:52:24Z</time></trkpt><trkpt lat="45.86183303567953" lon="10.917321304125167"><ele>217.0</ele><time>2026-05-01T13:52:25Z</time></trkpt><trkpt lat="45.86202046677782" lon="10.917246098020817"><ele>217.0</ele><time>2026-05-01T13:52:26Z</time></trkpt><trkpt lat="45.86224361317814" lon="10.917157146831356"><ele>217.0</ele><time>2026-05-01T13:52:27Z</time></trkpt><trkpt lat="45.86247982762529" lon="10.917059972931469"><ele>216.5</ele><time>2026-05-01T13:52:28Z</time></trkpt><trkpt lat="45.8627301914187" lon="10.916990240345287"><ele>216.0</ele><time>2026-05-01T13:52:29Z</time></trkpt><trkpt lat="45.86297884091051" lon="10.916917917220644"><ele>216.0</ele><time>2026-05-01T13:52:30Z</time></trkpt><trkpt lat="45.863231124267585" lon="10.916845481692691"><ele>216.0</ele><time>2026-05-01T13:52:31Z</time></trkpt><trkpt lat="45.86347930087283" lon="10.916768306139303"><ele>222.66666666666669</ele><time>2026-05-01T13:52:32Z</time></trkpt><trkpt lat="45.86370510139815" lon="10.91670848517185"><ele>229.33333333333334</ele><time>2026-05-01T13:52:33Z</time></trkpt><trkpt lat="45.86391438765417" lon="10.916653408855922"><ele>236.0</ele><time>2026-05-01T13:52:34Z</time></trkpt><trkpt lat="45.86411209864588" lon="10.916577809896383"><ele>235.66666666666669</ele><time>2026-05-01T13:52:35Z</time></trkpt><trkpt lat="45.86428986430543" lon="10.916486919943987"><ele>235.33333333333331</ele><time>2026-05-01T13:52:36Z</time></trkpt><trkpt lat="45.86445029750501" lon="10.916360577710714"><ele>235.0</ele><time>2026-05-01T13:52:37Z</time></trkpt><trkpt lat="45.86460797745982" lon="10.91620342069417"><ele>235.0</ele><time>2026-05-01T13:52:38Z</time></trkpt><trkpt lat="45.864790146595944" lon="10.916022217284285"><ele>235.0</ele><time>2026-05-01T13:52:39Z</time></trkpt><trkpt lat="45.864998602797776" lon="10.91581121358816"><ele>227.5</ele><time>2026-05-01T13:52:40Z</time></trkpt><trkpt lat="45.865200700448376" lon="10.915584271776016"><ele>220.0</ele><time>2026-05-01T13:52:41Z</time></trkpt><trkpt lat="45.865402748623474" lon="10.915392083051078"><ele>220.0</ele><time>2026-05-01T13:52:42Z</time></trkpt><trkpt lat="45.86558883131002" lon="10.915200791466793"><ele>220.0</ele><time>2026-05-01T13:52:43Z</time></trkpt><trkpt lat="45.86577102979804" lon="10.915044583731211"><ele>220.0</ele><time>2026-05-01T13:52:44Z</time></trkpt><trkpt lat="45.86594365807653" lon="10.914930622993092"><ele>222.66666666666666</ele><time>2026-05-01T13:52:45Z</time></trkpt><trkpt lat="45.86611315017193" lon="10.91486805289862"><ele>225.33333333333331</ele><time>2026-05-01T13:52:46Z</time></trkpt><trkpt lat="45.86627476994185" lon="10.914813451031387"><ele>228.0</ele><time>2026-05-01T13:52:47Z</time></trkpt><trkpt lat="45.86642646656674" lon="10.914791400917816"><ele>228.0</ele><time>2026-05-01T13:52:48Z</time></trkpt><trkpt lat="45.866572118152206" lon="10.914778458359194"><ele>228.0</ele><time>2026-05-01T13:52:49Z</time></trkpt><trkpt lat="45.86671026402321" lon="10.914744733374071"><ele>228.0</ele><time>2026-05-01T13:52:50Z</time></trkpt><trkpt lat="45.86684118822931" lon="10.914754606020548"><ele>228.0</ele><time>2026-05-01T13:52:51Z</time></trkpt><trkpt lat="45.866976457573834" lon="10.914727222346045"><ele>227.25</ele><time>2026-05-01T13:52:52Z</time></trkpt><trkpt lat="45.86710956641217" lon="10.914721373005024"><ele>226.5</ele><time>2026-05-01T13:52:53Z</time></trkpt><trkpt lat="45.86724414363806" lon="10.914714372624694"><ele>225.75</ele><time>2026-05-01T13:52:54Z</time></trkpt><trkpt lat="45.86736022821174" lon="10.914707373750371"><ele>225.0</ele><time>2026-05-01T13:52:55Z</time></trkpt><trkpt lat="45.86746492265581" lon="10.914703370895673"><ele>225.0</ele><time>2026-05-01T13:52:56Z</time></trkpt><trkpt lat="45.867568747126846" lon="10.914695640922721"><ele>225.0</ele><time>2026-05-01T13:52:57Z</time></trkpt><trkpt lat="45.86767449067386" lon="10.914679458701073"><ele>225.0</ele><time>2026-05-01T13:52:58Z</time></trkpt><trkpt lat="45.86777632063021" lon="10.914638800251323"><ele>225.0</ele><time>2026-05-01T13:52:59Z</time></trkpt><trkpt lat="45.86787079251762" lon="10.914556925394399"><ele>225.0</ele><time>2026-05-01T13:53:00Z</time></trkpt><trkpt lat="45.867958675902955" lon="10.914450796601216"><ele>224.25</ele><time>2026-05-01T13:53:01Z</time></trkpt><trkpt lat="45.868023832285836" lon="10.91430811297797"><ele>223.5</ele><time>2026-05-01T13:53:02Z</time></trkpt><trkpt lat="45.86805974272378" lon="10.914148211508268"><ele>222.75</ele><time>2026-05-01T13:53:03Z</time></trkpt><trkpt lat="45.868047982636455" lon="10.91398178996278"><ele>222.0</ele><time>2026-05-01T13:53:04Z</time></trkpt><trkpt lat="45.86806723271671" lon="10.913768418646331"><ele>222.0</ele><time>2026-05-01T13:53:05Z</time></trkpt><trkpt lat="45.868087155467315" lon="10.913581931810793"><ele>222.0</ele><time>2026-05-01T13:53:06Z</time></trkpt><trkpt lat="45.868112858372456" lon="10.913400727173455"><ele>222.0</ele><time>2026-05-01T13:53:07Z</time></trkpt><trkpt lat="45.86814309049173" lon="10.913226717560185"><ele>222.0</ele><time>2026-05-01T13:53:08Z</time></trkpt><trkpt lat="45.868178414791494" lon="10.913063251407689"><ele>223.8</ele><time>2026-05-01T13:53:09Z</time></trkpt><trkpt lat="45.86822501990322" lon="10.912933101078778"><ele>225.6</ele><time>2026-05-01T13:53:10Z</time></trkpt><trkpt lat="45.86827084380655" lon="10.912818329311467"><ele>227.40000000000003</ele><time>2026-05-01T13:53:11Z</time></trkpt><trkpt lat="45.8683052464309" lon="10.91271752439712"><ele>229.20000000000002</ele><time>2026-05-01T13:53:12Z</time></trkpt><trkpt lat="45.868348024139486" lon="10.912635203555094"><ele>231.0</ele><time>2026-05-01T13:53:13Z</time></trkpt><trkpt lat="45.86841398674758" lon="10.912484183875767"><ele>228.8</ele><time>2026-05-01T13:53:15Z</time></trkpt><trkpt lat="45.868488014601134" lon="10.912331642995268"><ele>226.60000000000002</ele><time>2026-05-01T13:53:17Z</time></trkpt><trkpt lat="45.868533277353805" lon="10.912233572713765"><ele>224.4</ele><time>2026-05-01T13:53:18Z</time></trkpt><trkpt lat="45.86858286345178" lon="10.912140575054513"><ele>222.2</ele><time>2026-05-01T13:53:19Z</time></trkpt><trkpt lat="45.86863470397221" lon="10.912039267835144"><ele>220.0</ele><time>2026-05-01T13:53:20Z</time></trkpt><trkpt lat="45.86868226800479" lon="10.911940170548931"><ele>219.99999999999997</ele><time>2026-05-01T13:53:21Z</time></trkpt><trkpt lat="45.86872702573268" lon="10.91184926311427"><ele>220.0</ele><time>2026-05-01T13:53:22Z</time></trkpt><trkpt lat="45.86877739068157" lon="10.911750697968582"><ele>220.0</ele><time>2026-05-01T13:53:23Z</time></trkpt><trkpt lat="45.868819137283225" lon="10.911645582620478"><ele>220.0</ele><time>2026-05-01T13:53:24Z</time></trkpt><trkpt lat="45.868867833609045" lon="10.911532709598768"><ele>219.99999999999997</ele><time>2026-05-01T13:53:25Z</time></trkpt><trkpt lat="45.868914011100856" lon="10.91142030616766"><ele>220.0</ele><time>2026-05-01T13:53:26Z</time></trkpt><trkpt lat="45.868934974527974" lon="10.911295608071951"><ele>220.83333333333331</ele><time>2026-05-01T13:53:27Z</time></trkpt><trkpt lat="45.86895345802999" lon="10.911167965384223"><ele>221.66666666666666</ele><time>2026-05-01T13:53:28Z</time></trkpt><trkpt lat="45.86896120368413" lon="10.911047365719824"><ele>222.5</ele><time>2026-05-01T13:53:29Z</time></trkpt><trkpt lat="45.86895899186698" lon="10.910938995707216"><ele>223.33333333333331</ele><time>2026-05-01T13:53:30Z</time></trkpt><trkpt lat="45.86894439918765" lon="10.910848752649498"><ele>224.16666666666666</ele><time>2026-05-01T13:53:31.001Z</time></trkpt><trkpt lat="45.8689051670098" lon="10.910692323566359"><ele>225.0</ele><time>2026-05-01T13:53:33.001Z</time></trkpt><trkpt lat="45.86885129088144" lon="10.910527047015412"><ele>225.5</ele><time>2026-05-01T13:53:35.001Z</time></trkpt><trkpt lat="45.868806628512644" lon="10.910393222558234"><ele>226.0</ele><time>2026-05-01T13:53:36.001Z</time></trkpt><trkpt lat="45.868741724365066" lon="10.910209134453378"><ele>226.5</ele><time>2026-05-01T13:53:37.001Z</time></trkpt><trkpt lat="45.86867285158969" lon="10.90997494981131"><ele>227.0</ele><time>2026-05-01T13:53:38.001Z</time></trkpt><trkpt lat="45.86859668521164" lon="10.909766787317"><ele>227.0</ele><time>2026-05-01T13:53:39.001Z</time></trkpt><trkpt lat="45.86854258977486" lon="10.9095933510946"><ele>227.0</ele><time>2026-05-01T13:53:40Z</time></trkpt><trkpt lat="45.868497934231875" lon="10.90944403125489"><ele>227.0</ele><time>2026-05-01T13:53:41Z</time></trkpt><trkpt lat="45.86844193042349" lon="10.909315807401304"><ele>227.0</ele><time>2026-05-01T13:53:42Z</time></trkpt><trkpt lat="45.86837932326051" lon="10.909148334383106"><ele>232.0</ele><time>2026-05-01T13:53:43Z</time></trkpt><trkpt lat="45.86832287124669" lon="10.90891757686609"><ele>237.0</ele><time>2026-05-01T13:53:44Z</time></trkpt><trkpt lat="45.86827596832078" lon="10.908634610035751"><ele>242.0</ele><time>2026-05-01T13:53:45Z</time></trkpt><trkpt lat="45.868241862559366" lon="10.908360267222857"><ele>242.0</ele><time>2026-05-01T13:53:46Z</time></trkpt><trkpt lat="45.86822217522282" lon="10.90814859333765"><ele>242.0</ele><time>2026-05-01T13:53:47Z</time></trkpt><trkpt lat="45.86820213906409" lon="10.907969565396792"><ele>242.0</ele><time>2026-05-01T13:53:48Z</time></trkpt><trkpt lat="45.86818597805513" lon="10.907804434521841"><ele>242.0</ele><time>2026-05-01T13:53:49Z</time></trkpt><trkpt lat="45.868180516016984" lon="10.90765191187105"><ele>242.8</ele><time>2026-05-01T13:53:50Z</time></trkpt><trkpt lat="45.86818760521576" lon="10.907507110563047"><ele>243.6</ele><time>2026-05-01T13:53:51Z</time></trkpt><trkpt lat="45.86822272071339" lon="10.90736742050546"><ele>244.40000000000003</ele><time>2026-05-01T13:53:52Z</time></trkpt><trkpt lat="45.86827222282989" lon="10.907231302537799"><ele>245.20000000000002</ele><time>2026-05-01T13:53:53Z</time></trkpt><trkpt lat="45.868339711138304" lon="10.907113998288176"><ele>246.0</ele><time>2026-05-01T13:53:54Z</time></trkpt><trkpt lat="45.86841574244831" lon="10.907022383920397"><ele>246.0</ele><time>2026-05-01T13:53:55Z</time></trkpt><trkpt lat="45.86850301589701" lon="10.906962847291373"><ele>246.00000000000003</ele><time>2026-05-01T13:53:56Z</time></trkpt><trkpt lat="45.86860628446972" lon="10.9069308055533"><ele>246.00000000000003</ele><time>2026-05-01T13:53:57Z</time></trkpt><trkpt lat="45.86870733520214" lon="10.906915706408212"><ele>246.0</ele><time>2026-05-01T13:53:58Z</time></trkpt><trkpt lat="45.868800971183056" lon="10.906916967906621"><ele>246.0</ele><time>2026-05-01T13:53:59Z</time></trkpt><trkpt lat="45.868890639442554" lon="10.906943748159232"><ele>246.0</ele><time>2026-05-01T13:54:00Z</time></trkpt><trkpt lat="45.86898034997342" lon="10.906995513149656"><ele>246.00000000000003</ele><time>2026-05-01T13:54:01Z</time></trkpt><trkpt lat="45.86906866963943" lon="10.907074498521387"><ele>246.00000000000003</ele><time>2026-05-01T13:54:02Z</time></trkpt><trkpt lat="45.86915813354939" lon="10.907160484955126"><ele>246.0</ele><time>2026-05-01T13:54:03Z</time></trkpt><trkpt lat="45.86925295798045" lon="10.907255848660569"><ele>246.0</ele><time>2026-05-01T13:54:04Z</time></trkpt><trkpt lat="45.86935258228444" lon="10.907348932333713"><ele>245.5</ele><time>2026-05-01T13:54:05Z</time></trkpt><trkpt lat="45.86945457212641" lon="10.907435383997008"><ele>245.0</ele><time>2026-05-01T13:54:06Z</time></trkpt><trkpt lat="45.86955063810139" lon="10.907518299734473"><ele>244.5</ele><time>2026-05-01T13:54:07Z</time></trkpt><trkpt lat="45.86964740549536" lon="10.907593285151222"><ele>244.0</ele><time>2026-05-01T13:54:08Z</time></trkpt><trkpt lat="45.86975029404341" lon="10.90765639869257"><ele>244.0</ele><time>2026-05-01T13:54:09Z</time></trkpt><trkpt lat="45.86986790551539" lon="10.907702343065917"><ele>244.0</ele><time>2026-05-01T13:54:10Z</time></trkpt><trkpt lat="45.87002173859001" lon="10.907721283874663"><ele>244.0</ele><time>2026-05-01T13:54:11Z</time></trkpt><trkpt lat="45.8701807229046" lon="10.907774559449944"><ele>244.0</ele><time>2026-05-01T13:54:12Z</time></trkpt><trkpt lat="45.87033071494839" lon="10.907793677868385"><ele>245.25</ele><time>2026-05-01T13:54:13Z</time></trkpt><trkpt lat="45.87045776993935" lon="10.90782496497006"><ele>246.5</ele><time>2026-05-01T13:54:14Z</time></trkpt><trkpt lat="45.87059999994599" lon="10.907850117905957"><ele>247.75</ele><time>2026-05-01T13:54:15Z</time></trkpt><trkpt lat="45.87076188018592" lon="10.907888331249902"><ele>249.0</ele><time>2026-05-01T13:54:16Z</time></trkpt><trkpt lat="45.87089752453465" lon="10.907926157517581"><ele>249.6</ele><time>2026-05-01T13:54:17Z</time></trkpt><trkpt lat="45.871011332180494" lon="10.907950812304495"><ele>250.2</ele><time>2026-05-01T13:54:18Z</time></trkpt><trkpt lat="45.871109756884714" lon="10.907956825622126"><ele>250.79999999999998</ele><time>2026-05-01T13:54:19Z</time></trkpt><trkpt lat="45.8711903802851" lon="10.907958156812482"><ele>251.39999999999998</ele><time>2026-05-01T13:54:20Z</time></trkpt><trkpt lat="45.871258435428715" lon="10.907943967294266"><ele>252.0</ele><time>2026-05-01T13:54:21Z</time></trkpt><trkpt lat="45.87136473906871" lon="10.907903592973408"><ele>252.0</ele><time>2026-05-01T13:54:22Z</time></trkpt><trkpt lat="45.8715038143421" lon="10.90785374890448"><ele>252.0</ele><time>2026-05-01T13:54:23Z</time></trkpt><trkpt lat="45.87166514244477" lon="10.907799741755321"><ele>252.0</ele><time>2026-05-01T13:54:24Z</time></trkpt><trkpt lat="45.87182787808261" lon="10.907744483265686"><ele>252.39999999999998</ele><time>2026-05-01T13:54:25Z</time></trkpt><trkpt lat="45.87196513263838" lon="10.907698139949725"><ele>252.79999999999998</ele><time>2026-05-01T13:54:26Z</time></trkpt><trkpt lat="45.87206281695968" lon="10.907666494333382"><ele>253.2</ele><time>2026-05-01T13:54:27Z</time></trkpt><trkpt lat="45.87214134867348" lon="10.907638693767767"><ele>253.6</ele><time>2026-05-01T13:54:29Z</time></trkpt><trkpt lat="45.87222645691593" lon="10.907601476434037"><ele>254.0</ele><time>2026-05-01T13:54:32Z</time></trkpt><trkpt lat="45.87228882515539" lon="10.907568699492117"><ele>256.59999999999997</ele><time>2026-05-01T13:54:33Z</time></trkpt><trkpt lat="45.87237461096925" lon="10.90753706635293"><ele>259.2</ele><time>2026-05-01T13:54:34Z</time></trkpt><trkpt lat="45.87247466292084" lon="10.907505974218829"><ele>261.79999999999995</ele><time>2026-05-01T13:54:35Z</time></trkpt><trkpt lat="45.87258072106057" lon="10.907462515049748"><ele>264.4</ele><time>2026-05-01T13:54:36Z</time></trkpt><trkpt lat="45.872687120584416" lon="10.907429279572437"><ele>267.0</ele><time>2026-05-01T13:54:37Z</time></trkpt><trkpt lat="45.8727932914206" lon="10.907392319588471"><ele>267.8</ele><time>2026-05-01T13:54:38Z</time></trkpt><trkpt lat="45.872881577652635" lon="10.907364301194937"><ele>268.6</ele><time>2026-05-01T13:54:39Z</time></trkpt><trkpt lat="45.87297458780031" lon="10.907336108563557"><ele>269.40000000000003</ele><time>2026-05-01T13:54:40Z</time></trkpt><trkpt lat="45.8730531867436" lon="10.907308197702937"><ele>270.2</ele><time>2026-05-01T13:54:41Z</time></trkpt><trkpt lat="45.87312019113132" lon="10.90727757018878"><ele>271.0</ele><time>2026-05-01T13:54:42Z</time></trkpt><trkpt lat="45.873241475357744" lon="10.907228075776596"><ele>271.0</ele><time>2026-05-01T13:54:44Z</time></trkpt><trkpt lat="45.87330845901041" lon="10.90719986907709"><ele>271.0</ele><time>2026-05-01T13:54:45Z</time></trkpt><trkpt lat="45.87340179561924" lon="10.907159702478245"><ele>271.0</ele><time>2026-05-01T13:54:47Z</time></trkpt><trkpt lat="45.873466988653284" lon="10.907109274963444"><ele>271.0</ele><time>2026-05-01T13:54:49Z</time></trkpt><trkpt lat="45.873554637552665" lon="10.907039638105001"><ele>271.0</ele><time>2026-05-01T13:54:51Z</time></trkpt><trkpt lat="45.87361376024845" lon="10.906978947034538"><ele>271.0</ele><time>2026-05-01T13:54:53Z</time></trkpt><trkpt lat="45.87366805350799" lon="10.906908126570318"><ele>272.0</ele><time>2026-05-01T13:54:55Z</time></trkpt><trkpt lat="45.87372408856593" lon="10.906834381178642"><ele>273.0</ele><time>2026-05-01T13:54:58Z</time></trkpt><trkpt lat="45.87380585029681" lon="10.906690766563033"><ele>274.0</ele><time>2026-05-01T13:55:00Z</time></trkpt><trkpt lat="45.873858305854746" lon="10.906613673538786"><ele>275.0</ele><time>2026-05-01T13:55:01Z</time></trkpt><trkpt lat="45.87390177207217" lon="10.906544906665852"><ele>276.0</ele><time>2026-05-01T13:55:02Z</time></trkpt><trkpt lat="45.873947834827256" lon="10.906471271483811"><ele>277.0</ele><time>2026-05-01T13:55:04Z</time></trkpt><trkpt lat="45.874001572909975" lon="10.906384453317624"><ele>277.0</ele><time>2026-05-01T13:55:08Z</time></trkpt><trkpt lat="45.874048054759356" lon="10.906298403886462"><ele>277.0</ele><time>2026-05-01T13:55:11Z</time></trkpt><trkpt lat="45.8741015391616" lon="10.906212125811203"><ele>277.0</ele><time>2026-05-01T13:55:14Z</time></trkpt><trkpt lat="45.874146983082106" lon="10.906135277160603"><ele>277.0</ele><time>2026-05-01T13:55:19Z</time></trkpt><trkpt lat="45.874201286073415" lon="10.906049251528332"><ele>277.0</ele><time>2026-05-01T13:55:27Z</time></trkpt><trkpt lat="45.874265617291464" lon="10.905939818394806"><ele>277.0</ele><time>2026-05-01T13:55:30Z</time></trkpt><trkpt lat="45.874325571898524" lon="10.90584039240245"><ele>276.2</ele><time>2026-05-01T13:55:32Z</time></trkpt><trkpt lat="45.87437778606852" lon="10.905756853036005"><ele>275.4</ele><time>2026-05-01T13:55:34Z</time></trkpt><trkpt lat="45.874456606444" lon="10.905669208229943"><ele>274.6</ele><time>2026-05-01T13:55:36Z</time></trkpt><trkpt lat="45.87454469724151" lon="10.90558410777217"><ele>273.8</ele><time>2026-05-01T13:55:38Z</time></trkpt><trkpt lat="45.8746659437935" lon="10.905520901357173"><ele>273.0</ele><time>2026-05-01T13:55:40Z</time></trkpt><trkpt lat="45.874738018784626" lon="10.905455259288132"><ele>273.0</ele><time>2026-05-01T13:55:41Z</time></trkpt><trkpt lat="45.87482388174088" lon="10.905452821119606"><ele>273.0</ele><time>2026-05-01T13:55:42Z</time></trkpt><trkpt lat="45.87489910588168" lon="10.905410067926878"><ele>273.0</ele><time>2026-05-01T13:55:43Z</time></trkpt><trkpt lat="45.87497885897504" lon="10.905393711357336"><ele>273.0</ele><time>2026-05-01T13:55:44Z</time></trkpt><trkpt lat="45.87505727178491" lon="10.905379644173362"><ele>273.0</ele><time>2026-05-01T13:55:45Z</time></trkpt><trkpt lat="45.875136602189045" lon="10.905359952026119"><ele>273.0</ele><time>2026-05-01T13:55:46Z</time></trkpt><trkpt lat="45.875212591256656" lon="10.905339595319827"><ele>273.14285714285717</ele><time>2026-05-01T13:55:47Z</time></trkpt><trkpt lat="45.87528510078873" lon="10.90532144568555"><ele>273.2857142857143</ele><time>2026-05-01T13:55:48Z</time></trkpt><trkpt lat="45.87535579218986" lon="10.90530207494144"><ele>273.42857142857144</ele><time>2026-05-01T13:55:49Z</time></trkpt><trkpt lat="45.87542433543104" lon="10.905281495604642"><ele>273.57142857142856</ele><time>2026-05-01T13:55:50Z</time></trkpt><trkpt lat="45.875489182865174" lon="10.905262751452987"><ele>273.7142857142857</ele><time>2026-05-01T13:55:51Z</time></trkpt><trkpt lat="45.87555826251782" lon="10.905245801111326"><ele>273.8571428571429</ele><time>2026-05-01T13:55:52Z</time></trkpt><trkpt lat="45.87564269930544" lon="10.905220115371497"><ele>274.0</ele><time>2026-05-01T13:55:53Z</time></trkpt><trkpt lat="45.87575613739891" lon="10.90517943621847"><ele>274.0</ele><time>2026-05-01T13:55:54Z</time></trkpt><trkpt lat="45.87587358029324" lon="10.90513965815448"><ele>274.0</ele><time>2026-05-01T13:55:55Z</time></trkpt><trkpt lat="45.87598837192021" lon="10.905083030621324"><ele>274.0</ele><time>2026-05-01T13:55:56Z</time></trkpt><trkpt lat="45.87608340488129" lon="10.90503180571407"><ele>274.0</ele><time>2026-05-01T13:55:57Z</time></trkpt><trkpt lat="45.876157577655306" lon="10.90497972464626"><ele>274.0</ele><time>2026-05-01T13:55:58Z</time></trkpt><trkpt lat="45.87624509212959" lon="10.90489114796942"><ele>274.0</ele><time>2026-05-01T13:56:00Z</time></trkpt><trkpt lat="45.87629536996368" lon="10.904833428957053"><ele>274.0</ele><time>2026-05-01T13:56:01Z</time></trkpt><trkpt lat="45.876366357754904" lon="10.904756571231813"><ele>274.0</ele><time>2026-05-01T13:56:02Z</time></trkpt><trkpt lat="45.876431109417" lon="10.904674926439514"><ele>274.0</ele><time>2026-05-01T13:56:03Z</time></trkpt><trkpt lat="45.87648248700969" lon="10.904589890014595"><ele>274.0</ele><time>2026-05-01T13:56:04Z</time></trkpt><trkpt lat="45.87654693300391" lon="10.904471905458331"><ele>274.0</ele><time>2026-05-01T13:56:06Z</time></trkpt><trkpt lat="45.876611391675354" lon="10.90430846498149"><ele>273.0</ele><time>2026-05-01T13:56:08Z</time></trkpt><trkpt lat="45.876657719998136" lon="10.904210850833756"><ele>272.0</ele><time>2026-05-01T13:56:09Z</time></trkpt><trkpt lat="45.87669526519686" lon="10.904134223646627"><ele>271.0</ele><time>2026-05-01T13:56:10Z</time></trkpt><trkpt lat="45.87673087210659" lon="10.904048946140849"><ele>270.0</ele><time>2026-05-01T13:56:12Z</time></trkpt><trkpt lat="45.876774560679735" lon="10.903959004899153"><ele>269.0</ele><time>2026-05-01T13:56:15Z</time></trkpt><trkpt lat="45.87681664553127" lon="10.903841747302055"><ele>268.0</ele><time>2026-05-01T13:56:22Z</time></trkpt><trkpt lat="45.87685469123711" lon="10.903755790194364"><ele>268.0</ele><time>2026-05-01T13:56:23Z</time></trkpt><trkpt lat="45.87689906448781" lon="10.903672501978422"><ele>268.0</ele><time>2026-05-01T13:56:24Z</time></trkpt><trkpt lat="45.876935412497" lon="10.903597073361299"><ele>268.0</ele><time>2026-05-01T13:56:25Z</time></trkpt><trkpt lat="45.87699617106873" lon="10.903455843960321"><ele>268.0</ele><time>2026-05-01T13:56:27Z</time></trkpt><trkpt lat="45.87705699978152" lon="10.903324677846042"><ele>268.0</ele><time>2026-05-01T13:56:29Z</time></trkpt><trkpt lat="45.8771210272337" lon="10.903181891797617"><ele>266.16666666666663</ele><time>2026-05-01T13:56:31Z</time></trkpt><trkpt lat="45.877183369485245" lon="10.903048852640113"><ele>264.3333333333333</ele><time>2026-05-01T13:56:33Z</time></trkpt><trkpt lat="45.877220292351616" lon="10.902967353286748"><ele>262.5</ele><time>2026-05-01T13:56:34Z</time></trkpt><trkpt lat="45.877260688150464" lon="10.902875559630571"><ele>260.6666666666667</ele><time>2026-05-01T13:56:35Z</time></trkpt><trkpt lat="45.877306801908006" lon="10.902778320740516"><ele>258.83333333333337</ele><time>2026-05-01T13:56:36Z</time></trkpt><trkpt lat="45.87735174428773" lon="10.902680963245082"><ele>257.0</ele><time>2026-05-01T13:56:37Z</time></trkpt><trkpt lat="45.877394663316586" lon="10.902586384161557"><ele>256.5</ele><time>2026-05-01T13:56:38Z</time></trkpt><trkpt lat="45.877433554331695" lon="10.902500145824627"><ele>256.0</ele><time>2026-05-01T13:56:39Z</time></trkpt><trkpt lat="45.87746974794649" lon="10.902417125355127"><ele>255.5</ele><time>2026-05-01T13:56:40Z</time></trkpt><trkpt lat="45.87750974439195" lon="10.902317090301363"><ele>255.0</ele><time>2026-05-01T13:56:41Z</time></trkpt><trkpt lat="45.87755794555958" lon="10.9022090304467"><ele>254.50000000000003</ele><time>2026-05-01T13:56:42Z</time></trkpt><trkpt lat="45.8776119593767" lon="10.902093352009464"><ele>254.0</ele><time>2026-05-01T13:56:43Z</time></trkpt><trkpt lat="45.8776653381296" lon="10.90197375271157"><ele>254.00000000000003</ele><time>2026-05-01T13:56:44Z</time></trkpt><trkpt lat="45.877714106244945" lon="10.901857766042305"><ele>254.0</ele><time>2026-05-01T13:56:45Z</time></trkpt><trkpt lat="45.877752685952835" lon="10.901761511134259"><ele>254.0</ele><time>2026-05-01T13:56:46Z</time></trkpt><trkpt lat="45.8777904470246" lon="10.90164784252803"><ele>254.0</ele><time>2026-05-01T13:56:48Z</time></trkpt><trkpt lat="45.877818291907644" lon="10.901545174819422"><ele>254.00000000000003</ele><time>2026-05-01T13:56:51Z</time></trkpt><trkpt lat="45.87784851000181" lon="10.901421280826273"><ele>254.0</ele><time>2026-05-01T13:56:54Z</time></trkpt><trkpt lat="45.87786732099001" lon="10.901332549216162"><ele>252.66666666666669</ele><time>2026-05-01T13:56:56Z</time></trkpt><trkpt lat="45.87788410416199" lon="10.901242427182307"><ele>251.33333333333334</ele><time>2026-05-01T13:56:58Z</time></trkpt><trkpt lat="45.87789732982987" lon="10.901137335566325"><ele>250.0</ele><time>2026-05-01T13:57:00Z</time></trkpt><trkpt lat="45.87791325075452" lon="10.901030187437302"><ele>248.66666666666669</ele><time>2026-05-01T13:57:02Z</time></trkpt><trkpt lat="45.877924359069354" lon="10.900919150839751"><ele>247.33333333333334</ele><time>2026-05-01T13:57:04Z</time></trkpt><trkpt lat="45.87794859991409" lon="10.900789921452262"><ele>246.0</ele><time>2026-05-01T13:57:06Z</time></trkpt><trkpt lat="45.877932273274155" lon="10.900681257413478"><ele>244.83333333333334</ele><time>2026-05-01T13:57:07Z</time></trkpt><trkpt lat="45.87793360282071" lon="10.90057037640341"><ele>243.66666666666669</ele><time>2026-05-01T13:57:08Z</time></trkpt><trkpt lat="45.877935832929374" lon="10.900464694702235"><ele>242.5</ele><time>2026-05-01T13:57:09Z</time></trkpt><trkpt lat="45.877945389349826" lon="10.900341133510278"><ele>241.33333333333334</ele><time>2026-05-01T13:57:10Z</time></trkpt><trkpt lat="45.877949920714684" lon="10.900211332273544"><ele>240.16666666666669</ele><time>2026-05-01T13:57:11Z</time></trkpt><trkpt lat="45.877952591391136" lon="10.90008801600702"><ele>239.0</ele><time>2026-05-01T13:57:12Z</time></trkpt><trkpt lat="45.877954905435836" lon="10.899967577709672"><ele>237.39999999999998</ele><time>2026-05-01T13:57:13Z</time></trkpt><trkpt lat="45.87795696753591" lon="10.899853201173277"><ele>235.79999999999998</ele><time>2026-05-01T13:57:14Z</time></trkpt><trkpt lat="45.87795834991089" lon="10.899725058098543"><ele>234.20000000000002</ele><time>2026-05-01T13:57:15Z</time></trkpt><trkpt lat="45.87796192805333" lon="10.899569632777785"><ele>232.60000000000002</ele><time>2026-05-01T13:57:16Z</time></trkpt><trkpt lat="45.87796513227787" lon="10.899402165038321"><ele>231.0</ele><time>2026-05-01T13:57:17Z</time></trkpt><trkpt lat="45.87796925983221" lon="10.899223979488957"><ele>230.25</ele><time>2026-05-01T13:57:18Z</time></trkpt><trkpt lat="45.877974831970974" lon="10.899047200286061"><ele>229.5</ele><time>2026-05-01T13:57:19Z</time></trkpt><trkpt lat="45.87797899124321" lon="10.89887382749952"><ele>228.75</ele><time>2026-05-01T13:57:20Z</time></trkpt><trkpt lat="45.87798187226044" lon="10.898707214035543"><ele>228.0</ele><time>2026-05-01T13:57:21Z</time></trkpt><trkpt lat="45.877986684121524" lon="10.898545588335407"><ele>227.8</ele><time>2026-05-01T13:57:22Z</time></trkpt><trkpt lat="45.878006928780884" lon="10.898387855175864"><ele>227.60000000000002</ele><time>2026-05-01T13:57:23Z</time></trkpt><trkpt lat="45.878010750641174" lon="10.8982389059315"><ele>227.39999999999998</ele><time>2026-05-01T13:57:24Z</time></trkpt><trkpt lat="45.87801430928845" lon="10.898100216739854"><ele>227.2</ele><time>2026-05-01T13:57:25Z</time></trkpt><trkpt lat="45.87801720331121" lon="10.897972681825845"><ele>227.0</ele><time>2026-05-01T13:57:26Z</time></trkpt><trkpt lat="45.87802011155105" lon="10.897849055764556"><ele>227.00000000000003</ele><time>2026-05-01T13:57:27Z</time></trkpt><trkpt lat="45.87800826022438" lon="10.89773760393159"><ele>227.0</ele><time>2026-05-01T13:57:28Z</time></trkpt><trkpt lat="45.878011744448344" lon="10.89759785902704"><ele>227.0</ele><time>2026-05-01T13:57:30Z</time></trkpt><trkpt lat="45.87802259643779" lon="10.897479757055295"><ele>227.0</ele><time>2026-05-01T13:57:32Z</time></trkpt><trkpt lat="45.878068061488065" lon="10.897325826084959"><ele>227.00000000000003</ele><time>2026-05-01T13:57:34Z</time></trkpt><trkpt lat="45.87810254384728" lon="10.897243031182649"><ele>227.0</ele><time>2026-05-01T13:57:35Z</time></trkpt><trkpt lat="45.87813344606042" lon="10.897082395981784"><ele>226.85714285714286</ele><time>2026-05-01T13:57:37Z</time></trkpt><trkpt lat="45.87811382744087" lon="10.896987141910074"><ele>226.71428571428572</ele><time>2026-05-01T13:57:38Z</time></trkpt><trkpt lat="45.87807083634256" lon="10.89689754270437"><ele>226.57142857142858</ele><time>2026-05-01T13:57:39Z</time></trkpt><trkpt lat="45.87804499372167" lon="10.896814122745496"><ele>226.42857142857144</ele><time>2026-05-01T13:57:40Z</time></trkpt><trkpt lat="45.87805141431736" lon="10.896675981929407"><ele>226.28571428571428</ele><time>2026-05-01T13:57:42Z</time></trkpt><trkpt lat="45.878037484881276" lon="10.896576918247742"><ele>226.14285714285717</ele><time>2026-05-01T13:57:45Z</time></trkpt><trkpt lat="45.8780556774675" lon="10.896489098351502"><ele>226.0</ele><time>2026-05-01T13:57:47Z</time></trkpt><trkpt lat="45.87806122434645" lon="10.896303723777807"><ele>225.71428571428572</ele><time>2026-05-01T13:57:49Z</time></trkpt><trkpt lat="45.87806460166554" lon="10.896184076673965"><ele>225.42857142857142</ele><time>2026-05-01T13:57:50Z</time></trkpt><trkpt lat="45.878067361845986" lon="10.89607436084623"><ele>225.14285714285714</ele><time>2026-05-01T13:57:51Z</time></trkpt><trkpt lat="45.878069971037654" lon="10.895981388876972"><ele>224.85714285714286</ele><time>2026-05-01T13:57:52Z</time></trkpt><trkpt lat="45.878050361184854" lon="10.895886001043847"><ele>224.57142857142856</ele><time>2026-05-01T13:57:53Z</time></trkpt><trkpt lat="45.878051342465305" lon="10.895778096336583"><ele>224.28571428571428</ele><time>2026-05-01T13:57:54Z</time></trkpt><trkpt lat="45.87805489324212" lon="10.895671553331123"><ele>224.0</ele><time>2026-05-01T13:57:55Z</time></trkpt><trkpt lat="45.87805801974401" lon="10.895577829989179"><ele>223.83333333333334</ele><time>2026-05-01T13:57:56Z</time></trkpt><trkpt lat="45.87805992083663" lon="10.895399476749677"><ele>223.66666666666669</ele><time>2026-05-01T13:57:58Z</time></trkpt><trkpt lat="45.87806284609777" lon="10.895297630546443"><ele>223.5</ele><time>2026-05-01T13:57:59Z</time></trkpt><trkpt lat="45.878089971386" lon="10.895195395762041"><ele>223.33333333333331</ele><time>2026-05-01T13:58:00Z</time></trkpt><trkpt lat="45.878092430347095" lon="10.895100822348727"><ele>223.16666666666666</ele><time>2026-05-01T13:58:01Z</time></trkpt><trkpt lat="45.878094620191014" lon="10.894990115545795"><ele>223.0</ele><time>2026-05-01T13:58:02Z</time></trkpt><trkpt lat="45.878096728172096" lon="10.894864982302758"><ele>223.0</ele><time>2026-05-01T13:58:03Z</time></trkpt><trkpt lat="45.878082923696844" lon="10.894735510546726"><ele>223.0</ele><time>2026-05-01T13:58:04Z</time></trkpt><trkpt lat="45.878102940410685" lon="10.894611055658947"><ele>223.0</ele><time>2026-05-01T13:58:05Z</time></trkpt><trkpt lat="45.878106135375084" lon="10.894504007073822"><ele>223.0</ele><time>2026-05-01T13:58:06Z</time></trkpt><trkpt lat="45.878112455915684" lon="10.89435735351995"><ele>223.0</ele><time>2026-05-01T13:58:08Z</time></trkpt><trkpt lat="45.87810718704156" lon="10.894222543817925"><ele>223.0</ele><time>2026-05-01T13:58:10Z</time></trkpt><trkpt lat="45.878125715379944" lon="10.894026795023333"><ele>223.0</ele><time>2026-05-01T13:58:12Z</time></trkpt><trkpt lat="45.87814023225798" lon="10.893915936359258"><ele>223.0</ele><time>2026-05-01T13:58:13Z</time></trkpt><trkpt lat="45.87815804404972" lon="10.893816262542908"><ele>223.0</ele><time>2026-05-01T13:58:14Z</time></trkpt><trkpt lat="45.878177987599" lon="10.893673429962066"><ele>223.0</ele><time>2026-05-01T13:58:16Z</time></trkpt><trkpt lat="45.87819572356995" lon="10.893555216910764"><ele>222.99999999999997</ele><time>2026-05-01T13:58:19Z</time></trkpt><trkpt lat="45.87821011848659" lon="10.893459633420065"><ele>223.0</ele><time>2026-05-01T13:58:22Z</time></trkpt><trkpt lat="45.87822706404852" lon="10.893369087451191"><ele>223.0</ele><time>2026-05-01T13:58:27Z</time></trkpt><trkpt lat="45.87823798268968" lon="10.893240587866652"><ele>223.0</ele><time>2026-05-01T13:58:29Z</time></trkpt><trkpt lat="45.87825829423563" lon="10.893124371318317"><ele>222.99999999999997</ele><time>2026-05-01T13:58:30Z</time></trkpt><trkpt lat="45.87830937729848" lon="10.893008151207779"><ele>223.0</ele><time>2026-05-01T13:58:31Z</time></trkpt><trkpt lat="45.87833553571239" lon="10.892872945876992"><ele>222.99999999999997</ele><time>2026-05-01T13:58:32Z</time></trkpt><trkpt lat="45.87834307532816" lon="10.892743529409655"><ele>223.0</ele><time>2026-05-01T13:58:33Z</time></trkpt><trkpt lat="45.8783645307532" lon="10.892629818411393"><ele>223.0</ele><time>2026-05-01T13:58:34Z</time></trkpt><trkpt lat="45.87840352173126" lon="10.892479856983782"><ele>223.0</ele><time>2026-05-01T13:58:36Z</time></trkpt><trkpt lat="45.878416348596396" lon="10.892381071982138"><ele>222.99999999999997</ele><time>2026-05-01T13:58:38Z</time></trkpt><trkpt lat="45.87843140994147" lon="10.892276398247322"><ele>223.0</ele><time>2026-05-01T13:58:40Z</time></trkpt><trkpt lat="45.87844393479646" lon="10.892151753185484"><ele>223.2</ele><time>2026-05-01T13:58:41Z</time></trkpt><trkpt lat="45.87846219891423" lon="10.892030113820544"><ele>223.4</ele><time>2026-05-01T13:58:42Z</time></trkpt><trkpt lat="45.87847147563434" lon="10.891895520596423"><ele>223.59999999999997</ele><time>2026-05-01T13:58:43Z</time></trkpt><trkpt lat="45.878480388184926" lon="10.891760962452045"><ele>223.79999999999998</ele><time>2026-05-01T13:58:44Z</time></trkpt><trkpt lat="45.87849006494877" lon="10.891604452658072"><ele>224.0</ele><time>2026-05-01T13:58:45Z</time></trkpt><trkpt lat="45.87849754413461" lon="10.891432153372488"><ele>224.0</ele><time>2026-05-01T13:58:46Z</time></trkpt><trkpt lat="45.87849845147456" lon="10.891245551526032"><ele>224.0</ele><time>2026-05-01T13:58:47Z</time></trkpt><trkpt lat="45.878491593928615" lon="10.891055667270464"><ele>224.0</ele><time>2026-05-01T13:58:48Z</time></trkpt><trkpt lat="45.87848268867898" lon="10.890881686878084"><ele>224.0</ele><time>2026-05-01T13:58:49Z</time></trkpt><trkpt lat="45.87848045438148" lon="10.890717892003261"><ele>224.0</ele><time>2026-05-01T13:58:50Z</time></trkpt><trkpt lat="45.87848022181629" lon="10.890539129713305"><ele>224.0</ele><time>2026-05-01T13:58:51Z</time></trkpt><trkpt lat="45.87847650192329" lon="10.890363967185795"><ele>224.0</ele><time>2026-05-01T13:58:52Z</time></trkpt><trkpt lat="45.87846849836276" lon="10.890186123993079"><ele>224.0</ele><time>2026-05-01T13:58:53Z</time></trkpt><trkpt lat="45.87846488834322" lon="10.89000795983284"><ele>223.6</ele><time>2026-05-01T13:58:54Z</time></trkpt><trkpt lat="45.87846303266354" lon="10.889835139668692"><ele>223.2</ele><time>2026-05-01T13:58:55Z</time></trkpt><trkpt lat="45.87846075956572" lon="10.889669378912519"><ele>222.79999999999998</ele><time>2026-05-01T13:58:56Z</time></trkpt><trkpt lat="45.8784569141307" lon="10.889519899669413"><ele>222.39999999999998</ele><time>2026-05-01T13:58:57Z</time></trkpt><trkpt lat="45.87845065048727" lon="10.889386194703459"><ele>222.0</ele><time>2026-05-01T13:58:58Z</time></trkpt><trkpt lat="45.87845609535419" lon="10.889270067276442"><ele>221.2</ele><time>2026-05-01T13:58:59Z</time></trkpt><trkpt lat="45.87847461434089" lon="10.889170952478432"><ele>220.39999999999998</ele><time>2026-05-01T13:59:00Z</time></trkpt><trkpt lat="45.878540808116036" lon="10.889027003953096"><ele>219.60000000000002</ele><time>2026-05-01T13:59:02Z</time></trkpt><trkpt lat="45.87860839406037" lon="10.888961701318784"><ele>218.8</ele><time>2026-05-01T13:59:03Z</time></trkpt><trkpt lat="45.878675629835264" lon="10.888882840280594"><ele>218.0</ele><time>2026-05-01T13:59:04Z</time></trkpt><trkpt lat="45.87871819328419" lon="10.888766951979905"><ele>218.0</ele><time>2026-05-01T13:59:05Z</time></trkpt><trkpt lat="45.87871639875136" lon="10.88860406713801"><ele>218.0</ele><time>2026-05-01T13:59:06Z</time></trkpt><trkpt lat="45.87868418360679" lon="10.888455978372486"><ele>218.0</ele><time>2026-05-01T13:59:07Z</time></trkpt><trkpt lat="45.87861978641949" lon="10.88835100351795"><ele>218.0</ele><time>2026-05-01T13:59:08Z</time></trkpt><trkpt lat="45.8785449151252" lon="10.888298695616873"><ele>218.0</ele><time>2026-05-01T13:59:09Z</time></trkpt><trkpt lat="45.87848987358364" lon="10.888249105652918"><ele>217.75</ele><time>2026-05-01T13:59:10Z</time></trkpt><trkpt lat="45.87844270081641" lon="10.88818630355961"><ele>217.5</ele><time>2026-05-01T13:59:12Z</time></trkpt><trkpt lat="45.87858509872674" lon="10.888028831884986"><ele>217.25</ele><time>2026-05-01T13:59:13Z</time></trkpt><trkpt lat="45.87862384432232" lon="10.887921611643623"><ele>217.0</ele><time>2026-05-01T13:59:15Z</time></trkpt><trkpt lat="45.878711183775856" lon="10.887784775228837"><ele>216.99999999999997</ele><time>2026-05-01T13:59:17Z</time></trkpt><trkpt lat="45.87876927783544" lon="10.887726888457664"><ele>217.0</ele><time>2026-05-01T13:59:18Z</time></trkpt><trkpt lat="45.87883050192406" lon="10.887692931288063"><ele>217.0</ele><time>2026-05-01T13:59:19Z</time></trkpt><trkpt lat="45.878908061956935" lon="10.887663562471001"><ele>217.0</ele><time>2026-05-01T13:59:20Z</time></trkpt><trkpt lat="45.87898713891874" lon="10.88766100063109"><ele>216.99999999999997</ele><time>2026-05-01T13:59:21Z</time></trkpt><trkpt lat="45.879061322651694" lon="10.887685178817357"><ele>217.0</ele><time>2026-05-01T13:59:22Z</time></trkpt><trkpt lat="45.87913829387669" lon="10.887722998318782"><ele>217.0</ele><time>2026-05-01T13:59:23Z</time></trkpt><trkpt lat="45.879221090825695" lon="10.887764030806425"><ele>217.0</ele><time>2026-05-01T13:59:24Z</time></trkpt><trkpt lat="45.879335698201196" lon="10.887815781195936"><ele>217.0</ele><time>2026-05-01T13:59:25Z</time></trkpt><trkpt lat="45.879445504742186" lon="10.887831728057764"><ele>217.0</ele><time>2026-05-01T13:59:26Z</time></trkpt><trkpt lat="45.879570107419795" lon="10.887807626957933"><ele>217.0</ele><time>2026-05-01T13:59:27Z</time></trkpt><trkpt lat="45.87970072827744" lon="10.887724484383106"><ele>217.0</ele><time>2026-05-01T13:59:28Z</time></trkpt><trkpt lat="45.87980531561059" lon="10.887585107825775"><ele>217.0</ele><time>2026-05-01T13:59:29Z</time></trkpt><trkpt lat="45.879877468203745" lon="10.887395993078766"><ele>217.0</ele><time>2026-05-01T13:59:30Z</time></trkpt><trkpt lat="45.8799138403498" lon="10.8872519073687"><ele>217.0</ele><time>2026-05-01T13:59:31Z</time></trkpt><trkpt lat="45.879944737201" lon="10.887128382043304"><ele>216.99999999999997</ele><time>2026-05-01T13:59:32Z</time></trkpt><trkpt lat="45.87997912952891" lon="10.88700049951339"><ele>217.0</ele><time>2026-05-01T13:59:33Z</time></trkpt><trkpt lat="45.880017313835324" lon="10.886872883973881"><ele>217.0</ele><time>2026-05-01T13:59:34Z</time></trkpt><trkpt lat="45.88005984152388" lon="10.886782403017268"><ele>217.0</ele><time>2026-05-01T13:59:35Z</time></trkpt><trkpt lat="45.88010461904923" lon="10.886693203137416"><ele>216.99999999999997</ele><time>2026-05-01T13:59:36Z</time></trkpt><trkpt lat="45.88015795464315" lon="10.886598215623025"><ele>217.0</ele><time>2026-05-01T13:59:37Z</time></trkpt><trkpt lat="45.88021427223172" lon="10.886515549216961"><ele>218.8</ele><time>2026-05-01T13:59:38Z</time></trkpt><trkpt lat="45.88027287352456" lon="10.886440449976067"><ele>220.6</ele><time>2026-05-01T13:59:39Z</time></trkpt><trkpt lat="45.88034679855914" lon="10.886352644640304"><ele>222.40000000000003</ele><time>2026-05-01T13:59:40Z</time></trkpt><trkpt lat="45.880403887165926" lon="10.886302830038858"><ele>224.20000000000002</ele><time>2026-05-01T13:59:41Z</time></trkpt><trkpt lat="45.88048301942407" lon="10.886237506777245"><ele>226.0</ele><time>2026-05-01T13:59:42Z</time></trkpt><trkpt lat="45.88060802581315" lon="10.886168237724759"><ele>226.0</ele><time>2026-05-01T13:59:44Z</time></trkpt><trkpt lat="45.88068030393301" lon="10.88613344659093"><ele>226.0</ele><time>2026-05-01T13:59:45Z</time></trkpt><trkpt lat="45.880763366631584" lon="10.886054002545544"><ele>226.0</ele><time>2026-05-01T13:59:47Z</time></trkpt><trkpt lat="45.88060964050714" lon="10.885123269464584"><ele>216.66666666666666</ele><time>2026-05-01T13:59:48Z</time></trkpt><trkpt lat="45.8805809142042" lon="10.884993795131546"><ele>207.33333333333331</ele><time>2026-05-01T13:59:49Z</time></trkpt><trkpt lat="45.88052576022816" lon="10.884895379505764"><ele>198.0</ele><time>2026-05-01T13:59:50Z</time></trkpt><trkpt lat="45.8804490919418" lon="10.88483072015266"><ele>188.66666666666666</ele><time>2026-05-01T13:59:51Z</time></trkpt><trkpt lat="45.88036793528669" lon="10.884793676780529"><ele>179.33333333333331</ele><time>2026-05-01T13:59:52Z</time></trkpt><trkpt lat="45.880285423922636" lon="10.884795406189106"><ele>170.0</ele><time>2026-05-01T13:59:53Z</time></trkpt><trkpt lat="45.88020258258579" lon="10.884837398414009"><ele>170.0</ele><time>2026-05-01T13:59:54Z</time></trkpt><trkpt lat="45.88012474348948" lon="10.884912163952277"><ele>170.0</ele><time>2026-05-01T13:59:55Z</time></trkpt><trkpt lat="45.880068697934085" lon="10.88499474518635"><ele>170.0</ele><time>2026-05-01T13:59:56Z</time></trkpt><trkpt lat="45.88002929026878" lon="10.885072708701022"><ele>170.0</ele><time>2026-05-01T13:59:57Z</time></trkpt><trkpt lat="45.87999075181114" lon="10.885158152223546"><ele>170.0</ele><time>2026-05-01T13:59:59Z</time></trkpt><trkpt lat="45.87995424186883" lon="10.88524957499037"><ele>170.0</ele><time>2026-05-01T14:03:32Z</time></trkpt><trkpt lat="45.87987703569914" lon="10.885402917791241"><ele>171.5</ele><time>2026-05-01T14:03:34Z</time></trkpt><trkpt lat="45.87983621073021" lon="10.885483859195434"><ele>173.0</ele><time>2026-05-01T14:03:35Z</time></trkpt><trkpt lat="45.87978877006344" lon="10.885577917192505"><ele>174.5</ele><time>2026-05-01T14:03:36Z</time></trkpt><trkpt lat="45.879737453328794" lon="10.885679821706638"><ele>176.0</ele><time>2026-05-01T14:03:37Z</time></trkpt><trkpt lat="45.87968196380997" lon="10.8857896933628"><ele>177.5</ele><time>2026-05-01T14:03:38Z</time></trkpt><trkpt lat="45.87962411964709" lon="10.885903564574699"><ele>179.0</ele><time>2026-05-01T14:03:39Z</time></trkpt><trkpt lat="45.879565062187915" lon="10.886019824412589"><ele>177.39999999999998</ele><time>2026-05-01T14:03:40Z</time></trkpt><trkpt lat="45.87950668713421" lon="10.88613418931509"><ele>175.8</ele><time>2026-05-01T14:03:41Z</time></trkpt><trkpt lat="45.87944895103786" lon="10.886247240854878"><ele>174.2</ele><time>2026-05-01T14:03:42Z</time></trkpt><trkpt lat="45.87939103615289" lon="10.88635211596277"><ele>172.60000000000002</ele><time>2026-05-01T14:03:43Z</time></trkpt><trkpt lat="45.87932505513558" lon="10.88643756770925"><ele>171.0</ele><time>2026-05-01T14:03:44Z</time></trkpt><trkpt lat="45.87924912802055" lon="10.886510607364754"><ele>171.0</ele><time>2026-05-01T14:03:45Z</time></trkpt><trkpt lat="45.879166163702926" lon="10.886562549527671"><ele>171.0</ele><time>2026-05-01T14:03:46Z</time></trkpt><trkpt lat="45.879069295561365" lon="10.88658952149984"><ele>171.0</ele><time>2026-05-01T14:03:47Z</time></trkpt><trkpt lat="45.87897348534172" lon="10.886584769566074"><ele>171.0</ele><time>2026-05-01T14:03:48Z</time></trkpt><trkpt lat="45.87887597886596" lon="10.886551268000268"><ele>171.0</ele><time>2026-05-01T14:03:49Z</time></trkpt><trkpt lat="45.878784578360566" lon="10.886490306164115"><ele>171.0</ele><time>2026-05-01T14:03:50Z</time></trkpt><trkpt lat="45.87869735715442" lon="10.886397530442842"><ele>171.0</ele><time>2026-05-01T14:03:51Z</time></trkpt><trkpt lat="45.87864328711371" lon="10.886286965659039"><ele>171.0</ele><time>2026-05-01T14:03:52Z</time></trkpt><trkpt lat="45.87858786311858" lon="10.886159482850424"><ele>171.0</ele><time>2026-05-01T14:03:53Z</time></trkpt><trkpt lat="45.878535572238995" lon="10.886033122476487"><ele>171.0</ele><time>2026-05-01T14:03:54Z</time></trkpt><trkpt lat="45.87847945542353" lon="10.88591245593156"><ele>170.0</ele><time>2026-05-01T14:03:55Z</time></trkpt><trkpt lat="45.87843191351603" lon="10.885788649641663"><ele>169.0</ele><time>2026-05-01T14:03:56Z</time></trkpt><trkpt lat="45.87837583140312" lon="10.885668804262261"><ele>168.0</ele><time>2026-05-01T14:03:57Z</time></trkpt><trkpt lat="45.87833910812636" lon="10.885567551561232"><ele>167.0</ele><time>2026-05-01T14:03:58Z</time></trkpt><trkpt lat="45.878305793557125" lon="10.885455966986092"><ele>166.0</ele><time>2026-05-01T14:03:59Z</time></trkpt><trkpt lat="45.8782518360745" lon="10.885332760348787"><ele>166.0</ele><time>2026-05-01T14:04:00Z</time></trkpt><trkpt lat="45.87820077939668" lon="10.885229853420661"><ele>166.0</ele><time>2026-05-01T14:04:01Z</time></trkpt><trkpt lat="45.878155255245304" lon="10.885151076685673"><ele>166.0</ele><time>2026-05-01T14:04:02Z</time></trkpt><trkpt lat="45.878070982240075" lon="10.885032297897842"><ele>166.0</ele><time>2026-05-01T14:04:04Z</time></trkpt><trkpt lat="45.87802208044389" lon="10.88497526324139"><ele>166.0</ele><time>2026-05-01T14:04:05Z</time></trkpt><trkpt lat="45.87794268566386" lon="10.884888822159894"><ele>166.0</ele><time>2026-05-01T14:04:07Z</time></trkpt><trkpt lat="45.877857789362544" lon="10.884802365041091"><ele>165.16666666666669</ele><time>2026-05-01T14:04:09Z</time></trkpt><trkpt lat="45.877780304420554" lon="10.884725700835782"><ele>164.33333333333334</ele><time>2026-05-01T14:04:11Z</time></trkpt><trkpt lat="45.877712279517354" lon="10.884660559348605"><ele>163.5</ele><time>2026-05-01T14:04:13Z</time></trkpt><trkpt lat="45.87762740800946" lon="10.884579547785872"><ele>162.66666666666666</ele><time>2026-05-01T14:04:15Z</time></trkpt><trkpt lat="45.877567552245495" lon="10.884523761293954"><ele>161.83333333333331</ele><time>2026-05-01T14:04:16Z</time></trkpt><trkpt lat="45.87749433811965" lon="10.884455524451187"><ele>161.0</ele><time>2026-05-01T14:04:17Z</time></trkpt><trkpt lat="45.87741430904085" lon="10.884380936011075"><ele>161.0</ele><time>2026-05-01T14:04:18Z</time></trkpt><trkpt lat="45.87733453492458" lon="10.884305616259528"><ele>161.0</ele><time>2026-05-01T14:04:19Z</time></trkpt><trkpt lat="45.8772624949766" lon="10.884236721237142"><ele>161.0</ele><time>2026-05-01T14:04:20Z</time></trkpt><trkpt lat="45.87719102121725" lon="10.884168367654453"><ele>161.0</ele><time>2026-05-01T14:04:21Z</time></trkpt><trkpt lat="45.87712005814908" lon="10.884100502568279"><ele>161.0</ele><time>2026-05-01T14:04:22Z</time></trkpt><trkpt lat="45.87705017650473" lon="10.884033671619548"><ele>161.0</ele><time>2026-05-01T14:04:23Z</time></trkpt><trkpt lat="45.876983597264704" lon="10.883970246556771"><ele>159.0</ele><time>2026-05-01T14:04:24Z</time></trkpt><trkpt lat="45.87691033084031" lon="10.883900562715072"><ele>157.0</ele><time>2026-05-01T14:04:25Z</time></trkpt><trkpt lat="45.876832951683404" lon="10.883826967546185"><ele>155.0</ele><time>2026-05-01T14:04:26Z</time></trkpt><trkpt lat="45.87674709503527" lon="10.883744628775045"><ele>153.0</ele><time>2026-05-01T14:04:27Z</time></trkpt><trkpt lat="45.876662888734906" lon="10.883663817065356"><ele>151.0</ele><time>2026-05-01T14:04:28Z</time></trkpt><trkpt lat="45.87657936142011" lon="10.8835836568786"><ele>151.0</ele><time>2026-05-01T14:04:29Z</time></trkpt><trkpt lat="45.876501919249215" lon="10.883509336476122"><ele>151.0</ele><time>2026-05-01T14:04:30Z</time></trkpt><trkpt lat="45.8764228694199" lon="10.883433556217224"><ele>151.0</ele><time>2026-05-01T14:04:31Z</time></trkpt><trkpt lat="45.876349847776275" lon="10.88336440052686"><ele>151.0</ele><time>2026-05-01T14:04:32Z</time></trkpt><trkpt lat="45.87629382620503" lon="10.883311344672704"><ele>151.0</ele><time>2026-05-01T14:04:33Z</time></trkpt><trkpt lat="45.87621961850638" lon="10.883241091818249"><ele>151.0</ele><time>2026-05-01T14:04:35Z</time></trkpt><trkpt lat="45.876132461958804" lon="10.883158529011975"><ele>149.2</ele><time>2026-05-01T14:04:37Z</time></trkpt><trkpt lat="45.876072646604655" lon="10.883101837025745"><ele>147.39999999999998</ele><time>2026-05-01T14:04:38Z</time></trkpt><trkpt lat="45.87599594764725" lon="10.883029087118718"><ele>145.6</ele><time>2026-05-01T14:04:39Z</time></trkpt><trkpt lat="45.87591327527323" lon="10.882949198252463"><ele>143.79999999999998</ele><time>2026-05-01T14:04:40Z</time></trkpt><trkpt lat="45.875825622590725" lon="10.88286427776805"><ele>142.0</ele><time>2026-05-01T14:04:41Z</time></trkpt><trkpt lat="45.875739417702086" lon="10.882780216584967"><ele>142.0</ele><time>2026-05-01T14:04:42Z</time></trkpt><trkpt lat="45.8756561143009" lon="10.882698984803717"><ele>142.0</ele><time>2026-05-01T14:04:43Z</time></trkpt><trkpt lat="45.87557157076098" lon="10.88261870599228"><ele>142.0</ele><time>2026-05-01T14:04:44Z</time></trkpt><trkpt lat="45.87549907199843" lon="10.8825502562365"><ele>142.0</ele><time>2026-05-01T14:04:45Z</time></trkpt><trkpt lat="45.8754431375053" lon="10.882497447428388"><ele>142.0</ele><time>2026-05-01T14:04:46Z</time></trkpt><trkpt lat="45.875367105901816" lon="10.882425662128796"><ele>142.0</ele><time>2026-05-01T14:04:48Z</time></trkpt><trkpt lat="45.87528820311456" lon="10.882348337473326"><ele>140.5</ele><time>2026-05-01T14:04:50Z</time></trkpt><trkpt lat="45.87521392583277" lon="10.88227259317111"><ele>139.0</ele><time>2026-05-01T14:04:52Z</time></trkpt><trkpt lat="45.87515475268852" lon="10.882209231686566"><ele>137.5</ele><time>2026-05-01T14:04:54Z</time></trkpt><trkpt lat="45.875094350040186" lon="10.882144070762696"><ele>136.0</ele><time>2026-05-01T14:04:55Z</time></trkpt><trkpt lat="45.8750281451589" lon="10.882072126833531"><ele>134.5</ele><time>2026-05-01T14:04:56Z</time></trkpt><trkpt lat="45.874960934428806" lon="10.881999089874483"><ele>133.0</ele><time>2026-05-01T14:04:57Z</time></trkpt><trkpt lat="45.8748901074235" lon="10.88191905072071"><ele>133.0</ele><time>2026-05-01T14:04:58Z</time></trkpt><trkpt lat="45.874822257886144" lon="10.881841744286408"><ele>133.0</ele><time>2026-05-01T14:04:59Z</time></trkpt><trkpt lat="45.874755406029955" lon="10.881765574491999"><ele>133.0</ele><time>2026-05-01T14:05:00Z</time></trkpt><trkpt lat="45.874690642287426" lon="10.88169070995147"><ele>133.0</ele><time>2026-05-01T14:05:01Z</time></trkpt><trkpt lat="45.87463515022514" lon="10.88162562143796"><ele>133.0</ele><time>2026-05-01T14:05:02Z</time></trkpt><trkpt lat="45.87458034116018" lon="10.88155917726031"><ele>133.0</ele><time>2026-05-01T14:05:03Z</time></trkpt><trkpt lat="45.874527267543954" lon="10.881493760093393"><ele>133.16666666666669</ele><time>2026-05-01T14:05:04Z</time></trkpt><trkpt lat="45.874473010335684" lon="10.881426884210052"><ele>133.33333333333334</ele><time>2026-05-01T14:05:05Z</time></trkpt><trkpt lat="45.87441893312823" lon="10.881358993070014"><ele>133.5</ele><time>2026-05-01T14:05:06Z</time></trkpt><trkpt lat="45.87436132746757" lon="10.881286208585868"><ele>133.66666666666666</ele><time>2026-05-01T14:05:07Z</time></trkpt><trkpt lat="45.874305056691206" lon="10.881212301731706"><ele>133.83333333333331</ele><time>2026-05-01T14:05:08Z</time></trkpt><trkpt lat="45.87425000913144" lon="10.881137609610034"><ele>134.0</ele><time>2026-05-01T14:05:09Z</time></trkpt><trkpt lat="45.87418935469887" lon="10.881054571462114"><ele>134.0</ele><time>2026-05-01T14:05:10Z</time></trkpt><trkpt lat="45.87413193996864" lon="10.88097543691098"><ele>134.0</ele><time>2026-05-01T14:05:11Z</time></trkpt><trkpt lat="45.87407773237149" lon="10.880900468256435"><ele>134.0</ele><time>2026-05-01T14:05:12Z</time></trkpt><trkpt lat="45.87402727829875" lon="10.880830690999003"><ele>134.0</ele><time>2026-05-01T14:05:13Z</time></trkpt><trkpt lat="45.87397362821192" lon="10.880756493314635"><ele>134.0</ele><time>2026-05-01T14:05:15Z</time></trkpt><trkpt lat="45.87391817208552" lon="10.880679798110874"><ele>134.0</ele><time>2026-05-01T14:05:18Z</time></trkpt><trkpt lat="45.87386496948507" lon="10.880606219467511"><ele>128.33333333333331</ele><time>2026-05-01T14:05:19Z</time></trkpt><trkpt lat="45.87380767758783" lon="10.880526985298914"><ele>122.66666666666666</ele><time>2026-05-01T14:05:20Z</time></trkpt><trkpt lat="45.87374535430153" lon="10.88044079268275"><ele>117.0</ele><time>2026-05-01T14:05:21Z</time></trkpt><trkpt lat="45.87368300486986" lon="10.88035456416761"><ele>111.33333333333334</ele><time>2026-05-01T14:05:22Z</time></trkpt><trkpt lat="45.87362496849107" lon="10.880274300360512"><ele>105.66666666666667</ele><time>2026-05-01T14:05:23Z</time></trkpt><trkpt lat="45.87357038442944" lon="10.880197972725663"><ele>100.0</ele><time>2026-05-01T14:05:24Z</time></trkpt><trkpt lat="45.873483157748126" lon="10.88007574661264"><ele>100.50000000000001</ele><time>2026-05-01T14:05:26Z</time></trkpt><trkpt lat="45.87339501045391" lon="10.879952560610956"><ele>101.0</ele><time>2026-05-01T14:05:28Z</time></trkpt><trkpt lat="45.87334827642661" lon="10.879887608467305"><ele>101.5</ele><time>2026-05-01T14:05:29Z</time></trkpt><trkpt lat="45.873296300466485" lon="10.879815370800554"><ele>102.0</ele><time>2026-05-01T14:05:30Z</time></trkpt><trkpt lat="45.8732362870581" lon="10.879731962759898"><ele>102.50000000000001</ele><time>2026-05-01T14:05:31Z</time></trkpt><trkpt lat="45.873179978087634" lon="10.879653703008177"><ele>103.0</ele><time>2026-05-01T14:05:32Z</time></trkpt><trkpt lat="45.873123520371756" lon="10.8795752366627"><ele>103.00000000000001</ele><time>2026-05-01T14:05:33Z</time></trkpt><trkpt lat="45.8730666513272" lon="10.879496198355842"><ele>103.0</ele><time>2026-05-01T14:05:34Z</time></trkpt><trkpt lat="45.87301417483378" lon="10.879423071483295"><ele>103.0</ele><time>2026-05-01T14:05:35Z</time></trkpt><trkpt lat="45.87295738918019" lon="10.879343845386893"><ele>103.0</ele><time>2026-05-01T14:05:36Z</time></trkpt><trkpt lat="45.87290494645438" lon="10.879270678539301"><ele>103.00000000000001</ele><time>2026-05-01T14:05:37Z</time></trkpt><trkpt lat="45.872848106811205" lon="10.879191377226894"><ele>103.0</ele><time>2026-05-01T14:05:38Z</time></trkpt><trkpt lat="45.8727895973385" lon="10.879109746176583"><ele>103.16666666666667</ele><time>2026-05-01T14:05:39Z</time></trkpt><trkpt lat="45.87273143332911" lon="10.879028597054223"><ele>103.33333333333334</ele><time>2026-05-01T14:05:40Z</time></trkpt><trkpt lat="45.87265381630766" lon="10.878920307645407"><ele>103.5</ele><time>2026-05-01T14:05:42Z</time></trkpt><trkpt lat="45.87259999276274" lon="10.878845214249871"><ele>103.66666666666666</ele><time>2026-05-01T14:05:44Z</time></trkpt><trkpt lat="45.87255184573042" lon="10.878778040583892"><ele>103.83333333333333</ele><time>2026-05-01T14:05:47Z</time></trkpt><trkpt lat="45.87250469107193" lon="10.878712251561504"><ele>104.0</ele><time>2026-05-01T14:05:49Z</time></trkpt><trkpt lat="45.872407727557714" lon="10.878576990507687"><ele>104.0</ele><time>2026-05-01T14:05:51Z</time></trkpt><trkpt lat="45.87233874612124" lon="10.87848081751074"><ele>104.0</ele><time>2026-05-01T14:05:52Z</time></trkpt><trkpt lat="45.87226870583286" lon="10.87838316813173"><ele>104.0</ele><time>2026-05-01T14:05:53Z</time></trkpt><trkpt lat="45.872189105778034" lon="10.87830306633463"><ele>104.0</ele><time>2026-05-01T14:05:54Z</time></trkpt><trkpt lat="45.872141792855565" lon="10.87820622745253"><ele>104.0</ele><time>2026-05-01T14:05:55Z</time></trkpt><trkpt lat="45.872084880863035" lon="10.878126880984302"><ele>103.49999999999999</ele><time>2026-05-01T14:05:56Z</time></trkpt><trkpt lat="45.87202793133551" lon="10.878047483736337"><ele>103.0</ele><time>2026-05-01T14:05:57Z</time></trkpt><trkpt lat="45.87197037665247" lon="10.877967241707253"><ele>102.5</ele><time>2026-05-01T14:05:58Z</time></trkpt><trkpt lat="45.87190946325086" lon="10.877882317854814"><ele>102.0</ele><time>2026-05-01T14:05:59Z</time></trkpt><trkpt lat="45.87185055930858" lon="10.877800195385607"><ele>101.49999999999999</ele><time>2026-05-01T14:06:00Z</time></trkpt><trkpt lat="45.87179445666001" lon="10.877721978176815"><ele>101.0</ele><time>2026-05-01T14:06:01Z</time></trkpt><trkpt lat="45.87174234491967" lon="10.87764937686456"><ele>96.49999999999999</ele><time>2026-05-01T14:06:02Z</time></trkpt><trkpt lat="45.871694179508026" lon="10.877582385962391"><ele>92.0</ele><time>2026-05-01T14:06:03Z</time></trkpt><trkpt lat="45.87164783091058" lon="10.877517921881502"><ele>87.5</ele><time>2026-05-01T14:06:04Z</time></trkpt><trkpt lat="45.87157208153534" lon="10.877412565486713"><ele>83.0</ele><time>2026-05-01T14:06:06Z</time></trkpt><trkpt lat="45.8715180796427" lon="10.87733745690699"><ele>78.5</ele><time>2026-05-01T14:06:07Z</time></trkpt><trkpt lat="45.87145116745398" lon="10.877244391640081"><ele>74.0</ele><time>2026-05-01T14:06:08Z</time></trkpt><trkpt lat="45.871373831781625" lon="10.877136829222826"><ele>74.0</ele><time>2026-05-01T14:06:09Z</time></trkpt><trkpt lat="45.8713010508006" lon="10.877035601379644"><ele>74.0</ele><time>2026-05-01T14:06:10Z</time></trkpt><trkpt lat="45.871236761683484" lon="10.876946184165615"><ele>74.0</ele><time>2026-05-01T14:06:11Z</time></trkpt><trkpt lat="45.871177668669205" lon="10.876863683789766"><ele>74.0</ele><time>2026-05-01T14:06:12Z</time></trkpt><trkpt lat="45.87112242435836" lon="10.876786854909932"><ele>74.0</ele><time>2026-05-01T14:06:13Z</time></trkpt><trkpt lat="45.87107273839558" lon="10.876717756597063"><ele>74.0</ele><time>2026-05-01T14:06:14Z</time></trkpt><trkpt lat="45.870996578995445" lon="10.876611395667245"><ele>73.66666666666667</ele><time>2026-05-01T14:06:16Z</time></trkpt><trkpt lat="45.87093741503991" lon="10.876525618366164"><ele>73.33333333333334</ele><time>2026-05-01T14:06:18Z</time></trkpt><trkpt lat="45.87089537325642" lon="10.876451623317488"><ele>73.0</ele><time>2026-05-01T14:06:20Z</time></trkpt><trkpt lat="45.870847039597614" lon="10.876384294166133"><ele>72.66666666666667</ele><time>2026-05-01T14:06:22Z</time></trkpt><trkpt lat="45.870823523072346" lon="10.876266502569097"><ele>72.33333333333333</ele><time>2026-05-01T14:06:25Z</time></trkpt><trkpt lat="45.870810158859925" lon="10.876160716994487"><ele>72.0</ele><time>2026-05-01T14:06:27Z</time></trkpt><trkpt lat="45.870842719654746" lon="10.876064275304534"><ele>72.0</ele><time>2026-05-01T14:06:29Z</time></trkpt><trkpt lat="45.8709039842307" lon="10.875973559192003"><ele>72.0</ele><time>2026-05-01T14:06:32Z</time></trkpt><trkpt lat="45.870947867097485" lon="10.875884586793534"><ele>72.0</ele><time>2026-05-01T14:06:35Z</time></trkpt><trkpt lat="45.87100056512241" lon="10.875780697216737"><ele>72.0</ele><time>2026-05-01T14:06:37Z</time></trkpt><trkpt lat="45.87107343141082" lon="10.875648072654986"><ele>72.0</ele><time>2026-05-01T14:06:39Z</time></trkpt><trkpt lat="45.87111823898612" lon="10.875578894928523"><ele>72.0</ele><time>2026-05-01T14:06:40Z</time></trkpt><trkpt lat="45.87116388956078" lon="10.875510579151133"><ele>71.28571428571429</ele><time>2026-05-01T14:06:41Z</time></trkpt><trkpt lat="45.87120986378809" lon="10.875439600727846"><ele>70.57142857142857</ele><time>2026-05-01T14:06:42Z</time></trkpt><trkpt lat="45.87125856097179" lon="10.875366809319864"><ele>69.85714285714286</ele><time>2026-05-01T14:06:43Z</time></trkpt><trkpt lat="45.87131258835489" lon="10.875300847259243"><ele>69.14285714285714</ele><time>2026-05-01T14:06:44Z</time></trkpt><trkpt lat="45.87137659697075" lon="10.875246030615086"><ele>68.42857142857143</ele><time>2026-05-01T14:06:45Z</time></trkpt><trkpt lat="45.871449999455415" lon="10.875213756075144"><ele>67.71428571428572</ele><time>2026-05-01T14:06:46Z</time></trkpt><trkpt lat="45.87153016611198" lon="10.875182889430627"><ele>67.0</ele><time>2026-05-01T14:06:47Z</time></trkpt><trkpt lat="45.8716201174264" lon="10.875153301516464"><ele>67.0</ele><time>2026-05-01T14:06:48Z</time></trkpt><trkpt lat="45.87171494269432" lon="10.875119827295883"><ele>67.0</ele><time>2026-05-01T14:06:49Z</time></trkpt><trkpt lat="45.871807398016344" lon="10.875084106904318"><ele>67.0</ele><time>2026-05-01T14:06:50Z</time></trkpt><trkpt lat="45.871895386248084" lon="10.87504958459235"><ele>67.0</ele><time>2026-05-01T14:06:51Z</time></trkpt><trkpt lat="45.871977543001954" lon="10.875017893471755"><ele>67.0</ele><time>2026-05-01T14:06:52Z</time></trkpt><trkpt lat="45.8720581374777" lon="10.874996485117467"><ele>66.83333333333333</ele><time>2026-05-01T14:06:53Z</time></trkpt><trkpt lat="45.872131755122055" lon="10.875003294184376"><ele>66.66666666666666</ele><time>2026-05-01T14:06:54Z</time></trkpt><trkpt lat="45.872210854513284" lon="10.874998767336848"><ele>66.5</ele><time>2026-05-01T14:06:55Z</time></trkpt><trkpt lat="45.872274597251895" lon="10.874942216715684"><ele>66.33333333333333</ele><time>2026-05-01T14:06:56Z</time></trkpt><trkpt lat="45.87232677220536" lon="10.874858399258079"><ele>66.16666666666667</ele><time>2026-05-01T14:06:57Z</time></trkpt><trkpt lat="45.872375970358554" lon="10.874765208198387"><ele>66.0</ele><time>2026-05-01T14:06:58Z</time></trkpt><trkpt lat="45.87244009356477" lon="10.874678841510729"><ele>66.0</ele><time>2026-05-01T14:06:59Z</time></trkpt><trkpt lat="45.87252046044491" lon="10.87460301081342"><ele>66.0</ele><time>2026-05-01T14:07:00Z</time></trkpt><trkpt lat="45.87260357636207" lon="10.874550740176579"><ele>66.0</ele><time>2026-05-01T14:07:01Z</time></trkpt><trkpt lat="45.87267990749731" lon="10.874489683869673"><ele>66.0</ele><time>2026-05-01T14:07:02Z</time></trkpt><trkpt lat="45.87275878508953" lon="10.874419137092683"><ele>66.0</ele><time>2026-05-01T14:07:03Z</time></trkpt><trkpt lat="45.872850759715305" lon="10.874355490780824"><ele>66.25</ele><time>2026-05-01T14:07:04Z</time></trkpt><trkpt lat="45.872947611063246" lon="10.874286802913117"><ele>66.5</ele><time>2026-05-01T14:07:05Z</time></trkpt><trkpt lat="45.87304925393112" lon="10.87422327822952"><ele>66.75</ele><time>2026-05-01T14:07:06Z</time></trkpt><trkpt lat="45.87315979176698" lon="10.874162788610608"><ele>67.0</ele><time>2026-05-01T14:07:07Z</time></trkpt><trkpt lat="45.87327607490814" lon="10.874105652190378"><ele>67.0</ele><time>2026-05-01T14:07:08Z</time></trkpt><trkpt lat="45.87339237381977" lon="10.874050867994525"><ele>67.0</ele><time>2026-05-01T14:07:09Z</time></trkpt><trkpt lat="45.87351026246344" lon="10.873991435063113"><ele>67.0</ele><time>2026-05-01T14:07:10Z</time></trkpt><trkpt lat="45.87361352623439" lon="10.873929792143336"><ele>67.0</ele><time>2026-05-01T14:07:11Z</time></trkpt><trkpt lat="45.87370951186485" lon="10.873876760613614"><ele>67.0</ele><time>2026-05-01T14:07:12Z</time></trkpt><trkpt lat="45.873797986352564" lon="10.873833112418035"><ele>67.0</ele><time>2026-05-01T14:07:13Z</time></trkpt><trkpt lat="45.87387724329867" lon="10.87378817176657"><ele>67.0</ele><time>2026-05-01T14:07:14Z</time></trkpt><trkpt lat="45.873954940603085" lon="10.873741078946596"><ele>67.0</ele><time>2026-05-01T14:07:15Z</time></trkpt><trkpt lat="45.87402194551083" lon="10.873692817251305"><ele>67.0</ele><time>2026-05-01T14:07:16Z</time></trkpt><trkpt lat="45.87407967512895" lon="10.87364643895994"><ele>67.0</ele><time>2026-05-01T14:07:17Z</time></trkpt><trkpt lat="45.87418113948132" lon="10.873560007893097"><ele>67.0</ele><time>2026-05-01T14:07:19Z</time></trkpt><trkpt lat="45.87423578850168" lon="10.873511969854684"><ele>67.0</ele><time>2026-05-01T14:07:20Z</time></trkpt><trkpt lat="45.87429279875786" lon="10.873467437626495"><ele>67.0</ele><time>2026-05-01T14:07:21Z</time></trkpt><trkpt lat="45.87434464155948" lon="10.873413197708791"><ele>67.0</ele><time>2026-05-01T14:07:22Z</time></trkpt><trkpt lat="45.87440547886095" lon="10.873362034483533"><ele>67.0</ele><time>2026-05-01T14:07:23Z</time></trkpt><trkpt lat="45.87446144880836" lon="10.873295618662597"><ele>67.0</ele><time>2026-05-01T14:07:24Z</time></trkpt><trkpt lat="45.87452417956751" lon="10.873220310117688"><ele>67.0</ele><time>2026-05-01T14:07:25Z</time></trkpt><trkpt lat="45.87459205754636" lon="10.873142562771802"><ele>67.0</ele><time>2026-05-01T14:07:26Z</time></trkpt><trkpt lat="45.87466358799467" lon="10.873064889195605"><ele>67.0</ele><time>2026-05-01T14:07:27Z</time></trkpt><trkpt lat="45.87473200968535" lon="10.872987396485184"><ele>67.0</ele><time>2026-05-01T14:07:28Z</time></trkpt><trkpt lat="45.87480257696152" lon="10.872912418892861"><ele>67.0</ele><time>2026-05-01T14:07:29Z</time></trkpt><trkpt lat="45.87487488512655" lon="10.872834468135734"><ele>67.0</ele><time>2026-05-01T14:07:30Z</time></trkpt><trkpt lat="45.87495295870259" lon="10.872750569622381"><ele>67.0</ele><time>2026-05-01T14:07:31Z</time></trkpt><trkpt lat="45.87501842128954" lon="10.87267307283326"><ele>67.0</ele><time>2026-05-01T14:07:32Z</time></trkpt><trkpt lat="45.875068791557084" lon="10.872588442322517"><ele>67.0</ele><time>2026-05-01T14:07:33Z</time></trkpt><trkpt lat="45.87511794505223" lon="10.872521737698294"><ele>67.0</ele><time>2026-05-01T14:07:34Z</time></trkpt><trkpt lat="45.8752064520412" lon="10.872394242116531"><ele>67.0</ele><time>2026-05-01T14:07:36Z</time></trkpt><trkpt lat="45.87529371343072" lon="10.872252337391823"><ele>66.8</ele><time>2026-05-01T14:07:38Z</time></trkpt><trkpt lat="45.875369567527585" lon="10.872117011425798"><ele>66.6</ele><time>2026-05-01T14:07:40Z</time></trkpt><trkpt lat="45.87542773079127" lon="10.872012395706298"><ele>66.39999999999999</ele><time>2026-05-01T14:07:42Z</time></trkpt><trkpt lat="45.8754693582508" lon="10.871939700795242"><ele>66.2</ele><time>2026-05-01T14:07:49Z</time></trkpt><trkpt lat="45.87551299184303" lon="10.871845447717897"><ele>66.0</ele><time>2026-05-01T14:08:03Z</time></trkpt><trkpt lat="45.87556893730236" lon="10.871732738915748"><ele>66.0</ele><time>2026-05-01T14:08:06Z</time></trkpt><trkpt lat="45.87564018619899" lon="10.871613392792412"><ele>66.0</ele><time>2026-05-01T14:08:08Z</time></trkpt><trkpt lat="45.87570904791163" lon="10.87149881335275"><ele>66.0</ele><time>2026-05-01T14:08:10Z</time></trkpt><trkpt lat="45.87575041052974" lon="10.871429343033384"><ele>66.0</ele><time>2026-05-01T14:08:11Z</time></trkpt><trkpt lat="45.87579897734592" lon="10.871350999529797"><ele>66.0</ele><time>2026-05-01T14:08:12Z</time></trkpt><trkpt lat="45.87585149161007" lon="10.871270172190302"><ele>66.0</ele><time>2026-05-01T14:08:13Z</time></trkpt><trkpt lat="45.875904265218104" lon="10.871192475581159"><ele>65.83333333333333</ele><time>2026-05-01T14:08:14Z</time></trkpt><trkpt lat="45.87595497018772" lon="10.871120812734384"><ele>65.66666666666667</ele><time>2026-05-01T14:08:15Z</time></trkpt><trkpt lat="45.87600314317432" lon="10.871056948756289"><ele>65.5</ele><time>2026-05-01T14:08:16Z</time></trkpt><trkpt lat="45.876057069317895" lon="10.870999290102187"><ele>65.33333333333334</ele><time>2026-05-01T14:08:17Z</time></trkpt><trkpt lat="45.876154060702454" lon="10.870909048745352"><ele>65.16666666666667</ele><time>2026-05-01T14:08:19Z</time></trkpt><trkpt lat="45.87624703400523" lon="10.870880912972035"><ele>65.0</ele><time>2026-05-01T14:08:21Z</time></trkpt><trkpt lat="45.87636313013941" lon="10.870903208131942"><ele>65.0</ele><time>2026-05-01T14:08:23Z</time></trkpt><trkpt lat="45.87642986786487" lon="10.87094116189803"><ele>65.0</ele><time>2026-05-01T14:08:24Z</time></trkpt><trkpt lat="45.87649641935959" lon="10.870958026334629"><ele>65.0</ele><time>2026-05-01T14:08:25Z</time></trkpt><trkpt lat="45.876581838597694" lon="10.870891957082488"><ele>65.0</ele><time>2026-05-01T14:08:27Z</time></trkpt><trkpt lat="45.87661702251865" lon="10.870771947523918"><ele>65.0</ele><time>2026-05-01T14:08:30Z</time></trkpt><trkpt lat="45.87663180185044" lon="10.870666299515209"><ele>65.0</ele><time>2026-05-01T14:08:32Z</time></trkpt><trkpt lat="45.87656327435343" lon="10.870586640225069"><ele>65.0</ele><time>2026-05-01T14:08:34Z</time></trkpt><trkpt lat="45.876613750809135" lon="10.870345518306857"><ele>65.0</ele><time>2026-05-01T14:08:36Z</time></trkpt><trkpt lat="45.87664860033311" lon="10.870234125549425"><ele>65.0</ele><time>2026-05-01T14:08:37Z</time></trkpt><trkpt lat="45.876698481340306" lon="10.870120412955933"><ele>65.0</ele><time>2026-05-01T14:08:38Z</time></trkpt><trkpt lat="45.87675498692918" lon="10.870008332320408"><ele>65.5</ele><time>2026-05-01T14:08:39Z</time></trkpt><trkpt lat="45.876809704512844" lon="10.869876752958765"><ele>66.0</ele><time>2026-05-01T14:08:40Z</time></trkpt><trkpt lat="45.87686432176106" lon="10.869721665185885"><ele>66.5</ele><time>2026-05-01T14:08:41Z</time></trkpt><trkpt lat="45.87691359521214" lon="10.869563480495433"><ele>67.0</ele><time>2026-05-01T14:08:42Z</time></trkpt><trkpt lat="45.876966039665206" lon="10.86939819361118"><ele>66.5</ele><time>2026-05-01T14:08:43Z</time></trkpt><trkpt lat="45.877020226929126" lon="10.869220133418878"><ele>66.0</ele><time>2026-05-01T14:08:44Z</time></trkpt><trkpt lat="45.87707464840501" lon="10.869039223876927"><ele>65.5</ele><time>2026-05-01T14:08:45Z</time></trkpt><trkpt lat="45.877136906466056" lon="10.868850507775164"><ele>65.0</ele><time>2026-05-01T14:08:46Z</time></trkpt><trkpt lat="45.877202909491885" lon="10.868657500515"><ele>65.0</ele><time>2026-05-01T14:08:47Z</time></trkpt><trkpt lat="45.87726801656295" lon="10.868461780775297"><ele>65.0</ele><time>2026-05-01T14:08:48Z</time></trkpt><trkpt lat="45.87733374267691" lon="10.86826689935132"><ele>65.0</ele><time>2026-05-01T14:08:49Z</time></trkpt><trkpt lat="45.877395425300676" lon="10.86808285000897"><ele>65.0</ele><time>2026-05-01T14:08:50Z</time></trkpt><trkpt lat="45.87745544918595" lon="10.867896941412658"><ele>65.5</ele><time>2026-05-01T14:08:51Z</time></trkpt><trkpt lat="45.87751077895833" lon="10.867715960549047"><ele>66.0</ele><time>2026-05-01T14:08:52Z</time></trkpt><trkpt lat="45.87755970232062" lon="10.86754040421426"><ele>66.5</ele><time>2026-05-01T14:08:53Z</time></trkpt><trkpt lat="45.87759355101862" lon="10.867352335845185"><ele>67.0</ele><time>2026-05-01T14:08:54Z</time></trkpt><trkpt lat="45.87760861782785" lon="10.867153771517025"><ele>70.5</ele><time>2026-05-01T14:08:55Z</time></trkpt><trkpt lat="45.87760801571929" lon="10.866952222421405"><ele>74.0</ele><time>2026-05-01T14:08:56Z</time></trkpt><trkpt lat="45.87760085996631" lon="10.866753025801518"><ele>77.5</ele><time>2026-05-01T14:08:57Z</time></trkpt><trkpt lat="45.877597319586435" lon="10.866554976207741"><ele>81.0</ele><time>2026-05-01T14:08:58Z</time></trkpt><trkpt lat="45.877566903794985" lon="10.866367782501614"><ele>81.0</ele><time>2026-05-01T14:08:59Z</time></trkpt><trkpt lat="45.877539038754044" lon="10.866178474798499"><ele>81.0</ele><time>2026-05-01T14:09:00Z</time></trkpt><trkpt lat="45.87750883187447" lon="10.865973433809861"><ele>81.0</ele><time>2026-05-01T14:09:01Z</time></trkpt><trkpt lat="45.87747677070471" lon="10.865747355814245"><ele>81.0</ele><time>2026-05-01T14:09:02Z</time></trkpt><trkpt lat="45.87744526544265" lon="10.86552519760849"><ele>84.0</ele><time>2026-05-01T14:09:03Z</time></trkpt><trkpt lat="45.877408208039526" lon="10.865272291472243"><ele>87.0</ele><time>2026-05-01T14:09:04Z</time></trkpt><trkpt lat="45.87737152345009" lon="10.865021913521069"><ele>90.0</ele><time>2026-05-01T14:09:05Z</time></trkpt><trkpt lat="45.877339727773474" lon="10.86479281774361"><ele>99.33333333333334</ele><time>2026-05-01T14:09:06Z</time></trkpt><trkpt lat="45.87730332556316" lon="10.864551758555233"><ele>108.66666666666667</ele><time>2026-05-01T14:09:07Z</time></trkpt><trkpt lat="45.877185732365255" lon="10.864213813035384"><ele>118.0</ele><time>2026-05-01T14:09:08Z</time></trkpt><trkpt lat="45.8771120809738" lon="10.863937279848448"><ele>118.0</ele><time>2026-05-01T14:09:09Z</time></trkpt><trkpt lat="45.87705117021899" lon="10.863715354578737"><ele>118.0</ele><time>2026-05-01T14:09:10Z</time></trkpt><trkpt lat="45.876976345794645" lon="10.86351159620993"><ele>118.0</ele><time>2026-05-01T14:09:11Z</time></trkpt><trkpt lat="45.876935301191324" lon="10.863315168366004"><ele>123.5</ele><time>2026-05-01T14:09:12Z</time></trkpt><trkpt lat="45.87688295358258" lon="10.863156843399732"><ele>129.0</ele><time>2026-05-01T14:09:13Z</time></trkpt><trkpt lat="45.876849944557435" lon="10.863010112797253"><ele>134.5</ele><time>2026-05-01T14:09:14Z</time></trkpt><trkpt lat="45.87683252041981" lon="10.862799905537681"><ele>140.0</ele><time>2026-05-01T14:09:15Z</time></trkpt><trkpt lat="45.876814333016036" lon="10.862610884445278"><ele>140.75</ele><time>2026-05-01T14:09:16Z</time></trkpt><trkpt lat="45.87678099569481" lon="10.862413704129645"><ele>141.5</ele><time>2026-05-01T14:09:17Z</time></trkpt><trkpt lat="45.87677824747064" lon="10.86219279304756"><ele>142.25</ele><time>2026-05-01T14:09:18Z</time></trkpt><trkpt lat="45.87676214878123" lon="10.86197899263496"><ele>143.0</ele><time>2026-05-01T14:09:19Z</time></trkpt><trkpt lat="45.876742198470716" lon="10.861787007315218"><ele>133.8</ele><time>2026-05-01T14:09:20Z</time></trkpt><trkpt lat="45.87672147432348" lon="10.861597724510636"><ele>124.60000000000001</ele><time>2026-05-01T14:09:21Z</time></trkpt><trkpt lat="45.87670713063194" lon="10.861411292525498"><ele>115.4</ele><time>2026-05-01T14:09:22Z</time></trkpt><trkpt lat="45.87669409312261" lon="10.861257372415606"><ele>106.19999999999999</ele><time>2026-05-01T14:09:23Z</time></trkpt><trkpt lat="45.876685946351046" lon="10.861158864325859"><ele>97.0</ele><time>2026-05-01T14:09:27Z</time></trkpt><trkpt lat="45.87667649431171" lon="10.861039084577689"><ele>94.0</ele><time>2026-05-01T14:09:30Z</time></trkpt><trkpt lat="45.87666340077178" lon="10.860947024956992"><ele>91.0</ele><time>2026-05-01T14:09:32Z</time></trkpt><trkpt lat="45.87665429461834" lon="10.860790621878214"><ele>88.0</ele><time>2026-05-01T14:09:34Z</time></trkpt><trkpt lat="45.87664222527266" lon="10.860664117899875"><ele>85.0</ele><time>2026-05-01T14:09:35Z</time></trkpt><trkpt lat="45.876626044355135" lon="10.860519349703058"><ele>82.0</ele><time>2026-05-01T14:09:36Z</time></trkpt><trkpt lat="45.87660194454744" lon="10.860377686793893"><ele>82.0</ele><time>2026-05-01T14:09:37Z</time></trkpt><trkpt lat="45.87656838877936" lon="10.8602186523977"><ele>82.0</ele><time>2026-05-01T14:09:38Z</time></trkpt><trkpt lat="45.87652658287502" lon="10.860042480828078"><ele>82.0</ele><time>2026-05-01T14:09:39Z</time></trkpt><trkpt lat="45.876487623961346" lon="10.859844740649667"><ele>82.0</ele><time>2026-05-01T14:09:40Z</time></trkpt><trkpt lat="45.876446086262284" lon="10.85965483217908"><ele>81.75</ele><time>2026-05-01T14:09:41Z</time></trkpt><trkpt lat="45.87640925013526" lon="10.859464796073587"><ele>81.5</ele><time>2026-05-01T14:09:42Z</time></trkpt><trkpt lat="45.87638711741082" lon="10.859267734632278"><ele>81.25</ele><time>2026-05-01T14:09:43Z</time></trkpt><trkpt lat="45.8763828621388" lon="10.859074825742905"><ele>81.0</ele><time>2026-05-01T14:09:44Z</time></trkpt><trkpt lat="45.8764015285473" lon="10.858894023287327"><ele>81.0</ele><time>2026-05-01T14:09:45Z</time></trkpt><trkpt lat="45.87643080559084" lon="10.858733391679838"><ele>81.0</ele><time>2026-05-01T14:09:46Z</time></trkpt><trkpt lat="45.87649195223433" lon="10.858576782279934"><ele>81.0</ele><time>2026-05-01T14:09:47Z</time></trkpt><trkpt lat="45.876574158311804" lon="10.858436057318457"><ele>81.0</ele><time>2026-05-01T14:09:48Z</time></trkpt><trkpt lat="45.876675134204376" lon="10.858312295191224"><ele>81.25</ele><time>2026-05-01T14:09:49Z</time></trkpt><trkpt lat="45.876783656156704" lon="10.858220477431415"><ele>81.5</ele><time>2026-05-01T14:09:50Z</time></trkpt><trkpt lat="45.87690597657403" lon="10.858151774384867"><ele>81.75</ele><time>2026-05-01T14:09:51Z</time></trkpt><trkpt lat="45.87703781343371" lon="10.858097290854971"><ele>82.0</ele><time>2026-05-01T14:09:52Z</time></trkpt><trkpt lat="45.87718169051319" lon="10.858042971278074"><ele>82.0</ele><time>2026-05-01T14:09:53.014Z</time></trkpt><trkpt lat="45.87733864931326" lon="10.857989473304375"><ele>82.0</ele><time>2026-05-01T14:09:54.017Z</time></trkpt><trkpt lat="45.877497218443274" lon="10.857932256480892"><ele>82.0</ele><time>2026-05-01T14:09:55.022Z</time></trkpt><trkpt lat="45.877647584242744" lon="10.857879158070892"><ele>79.25</ele><time>2026-05-01T14:09:56.025Z</time></trkpt><trkpt lat="45.87779281857152" lon="10.857831953125366"><ele>76.5</ele><time>2026-05-01T14:09:57Z</time></trkpt><trkpt lat="45.87785252384601" lon="10.857757130357589"><ele>73.75</ele><time>2026-05-01T14:09:58Z</time></trkpt><trkpt lat="45.87802746822124" lon="10.857683672468015"><ele>71.0</ele><time>2026-05-01T14:09:59Z</time></trkpt><trkpt lat="45.878130837042065" lon="10.857634070183453"><ele>70.6</ele><time>2026-05-01T14:10:00Z</time></trkpt><trkpt lat="45.878223144401986" lon="10.857610676475957"><ele>70.19999999999999</ele><time>2026-05-01T14:10:01Z</time></trkpt><trkpt lat="45.878315387052616" lon="10.857575648302937"><ele>69.80000000000001</ele><time>2026-05-01T14:10:02Z</time></trkpt><trkpt lat="45.878405306219804" lon="10.85752849365397"><ele>69.4</ele><time>2026-05-01T14:10:03Z</time></trkpt><trkpt lat="45.87850200167435" lon="10.857485102116257"><ele>69.0</ele><time>2026-05-01T14:10:04Z</time></trkpt><trkpt lat="45.878589388030704" lon="10.8574481616014"><ele>69.0</ele><time>2026-05-01T14:10:05Z</time></trkpt><trkpt lat="45.87866420019311" lon="10.857402543847387"><ele>69.0</ele><time>2026-05-01T14:10:07Z</time></trkpt><trkpt lat="45.87878015874347" lon="10.85735538935409"><ele>69.0</ele><time>2026-05-01T14:10:11Z</time></trkpt><trkpt lat="45.87886437854665" lon="10.857322001913989"><ele>69.0</ele><time>2026-05-01T14:10:12Z</time></trkpt><trkpt lat="45.87896616417692" lon="10.857259294375627"><ele>69.0</ele><time>2026-05-01T14:10:13Z</time></trkpt><trkpt lat="45.87908232041489" lon="10.857187356735245"><ele>69.0</ele><time>2026-05-01T14:10:14Z</time></trkpt><trkpt lat="45.87920572617554" lon="10.857089896682787"><ele>69.0</ele><time>2026-05-01T14:10:15Z</time></trkpt><trkpt lat="45.87932342773023" lon="10.85699028353009"><ele>69.0</ele><time>2026-05-01T14:10:16Z</time></trkpt><trkpt lat="45.87942278224" lon="10.856884001463671"><ele>69.0</ele><time>2026-05-01T14:10:17Z</time></trkpt><trkpt lat="45.87951383731088" lon="10.856798154419012"><ele>68.66666666666667</ele><time>2026-05-01T14:10:18Z</time></trkpt><trkpt lat="45.87959914034519" lon="10.85669494969131"><ele>68.33333333333333</ele><time>2026-05-01T14:10:19Z</time></trkpt><trkpt lat="45.87967879657567" lon="10.856612141856573"><ele>68.0</ele><time>2026-05-01T14:10:20Z</time></trkpt><trkpt lat="45.87974229206437" lon="10.856532143790428"><ele>67.66666666666666</ele><time>2026-05-01T14:10:21Z</time></trkpt><trkpt lat="45.879792215462935" lon="10.856474375893304"><ele>67.33333333333333</ele><time>2026-05-01T14:10:22Z</time></trkpt><trkpt lat="45.87984655222214" lon="10.856426763498986"><ele>67.0</ele><time>2026-05-01T14:10:23Z</time></trkpt><trkpt lat="45.87993505432249" lon="10.856349384412033"><ele>67.0</ele><time>2026-05-01T14:10:25Z</time></trkpt><trkpt lat="45.879986954555086" lon="10.856284338869422"><ele>67.0</ele><time>2026-05-01T14:10:26Z</time></trkpt><trkpt lat="45.88003670210906" lon="10.856216663232335"><ele>67.0</ele><time>2026-05-01T14:10:28Z</time></trkpt><trkpt lat="45.88012110921567" lon="10.856134883629052"><ele>67.0</ele><time>2026-05-01T14:10:32Z</time></trkpt><trkpt lat="45.88017948350291" lon="10.856079124009323"><ele>67.0</ele><time>2026-05-01T14:10:33Z</time></trkpt><trkpt lat="45.88024342099533" lon="10.856009433466204"><ele>67.0</ele><time>2026-05-01T14:10:34Z</time></trkpt><trkpt lat="45.88030496282073" lon="10.855937250115012"><ele>67.33333333333333</ele><time>2026-05-01T14:10:35Z</time></trkpt><trkpt lat="45.880374784325" lon="10.85586450562586"><ele>67.66666666666666</ele><time>2026-05-01T14:10:36Z</time></trkpt><trkpt lat="45.88044794869507" lon="10.85579033010212"><ele>68.0</ele><time>2026-05-01T14:10:37Z</time></trkpt><trkpt lat="45.88052114827856" lon="10.85571489725916"><ele>68.33333333333333</ele><time>2026-05-01T14:10:38Z</time></trkpt><trkpt lat="45.880587561830765" lon="10.85564491269942"><ele>68.66666666666667</ele><time>2026-05-01T14:10:39Z</time></trkpt><trkpt lat="45.880651206121826" lon="10.855577842030238"><ele>69.0</ele><time>2026-05-01T14:10:40Z</time></trkpt><trkpt lat="45.880719391080206" lon="10.855505202984295"><ele>69.0</ele><time>2026-05-01T14:10:41Z</time></trkpt><trkpt lat="45.88078537250845" lon="10.855433239738744"><ele>69.0</ele><time>2026-05-01T14:10:42Z</time></trkpt><trkpt lat="45.88085632766566" lon="10.855359603023622"><ele>69.0</ele><time>2026-05-01T14:10:43Z</time></trkpt><trkpt lat="45.88092952401169" lon="10.855285943336337"><ele>69.0</ele><time>2026-05-01T14:10:44Z</time></trkpt><trkpt lat="45.88100031777831" lon="10.855209161546282"><ele>69.0</ele><time>2026-05-01T14:10:45Z</time></trkpt><trkpt lat="45.88107429700424" lon="10.855132091929892"><ele>69.0</ele><time>2026-05-01T14:10:46Z</time></trkpt><trkpt lat="45.88114020642675" lon="10.85505379655144"><ele>68.66666666666667</ele><time>2026-05-01T14:10:47Z</time></trkpt><trkpt lat="45.88120429473654" lon="10.85498074061055"><ele>68.33333333333333</ele><time>2026-05-01T14:10:48Z</time></trkpt><trkpt lat="45.88127362236681" lon="10.85491299456299"><ele>68.0</ele><time>2026-05-01T14:10:49Z</time></trkpt><trkpt lat="45.881348606562376" lon="10.854841915172821"><ele>67.66666666666666</ele><time>2026-05-01T14:10:50Z</time></trkpt><trkpt lat="45.881418500345795" lon="10.854765888631196"><ele>67.33333333333333</ele><time>2026-05-01T14:10:51Z</time></trkpt><trkpt lat="45.8814815921345" lon="10.854696455550345"><ele>67.0</ele><time>2026-05-01T14:10:52Z</time></trkpt><trkpt lat="45.88153788683802" lon="10.854632577805457"><ele>67.0</ele><time>2026-05-01T14:10:53Z</time></trkpt><trkpt lat="45.88159314781629" lon="10.854574407537966"><ele>67.0</ele><time>2026-05-01T14:10:54Z</time></trkpt><trkpt lat="45.88165335698613" lon="10.854513980346471"><ele>67.0</ele><time>2026-05-01T14:10:55Z</time></trkpt><trkpt lat="45.88171443842488" lon="10.854453235773722"><ele>67.0</ele><time>2026-05-01T14:10:56Z</time></trkpt><trkpt lat="45.8817772697772" lon="10.854386815927764"><ele>67.0</ele><time>2026-05-01T14:10:57Z</time></trkpt><trkpt lat="45.88184770101497" lon="10.854313530529602"><ele>67.0</ele><time>2026-05-01T14:10:58Z</time></trkpt><trkpt lat="45.88190786970758" lon="10.854242238204954"><ele>66.83333333333333</ele><time>2026-05-01T14:10:59Z</time></trkpt><trkpt lat="45.881957222699604" lon="10.854185710386774"><ele>66.66666666666666</ele><time>2026-05-01T14:11:00Z</time></trkpt><trkpt lat="45.88201867571749" lon="10.854135618383243"><ele>66.5</ele><time>2026-05-01T14:11:02Z</time></trkpt><trkpt lat="45.88208420283604" lon="10.854108257662162"><ele>66.33333333333333</ele><time>2026-05-01T14:11:06Z</time></trkpt><trkpt lat="45.88216829640301" lon="10.854106985340364"><ele>66.16666666666667</ele><time>2026-05-01T14:11:09Z</time></trkpt><trkpt lat="45.88224006929927" lon="10.854136965062269"><ele>66.0</ele><time>2026-05-01T14:11:11Z</time></trkpt><trkpt lat="45.88233751200387" lon="10.854153991413929"><ele>66.0</ele><time>2026-05-01T14:11:15Z</time></trkpt><trkpt lat="45.88237072122614" lon="10.854015969830638"><ele>66.0</ele><time>2026-05-01T14:11:25Z</time></trkpt><trkpt lat="45.882367686896" lon="10.853884086395079"><ele>66.0</ele><time>2026-05-01T14:11:27Z</time></trkpt><trkpt lat="45.88238579074785" lon="10.853791678225125"><ele>66.0</ele><time>2026-05-01T14:11:28Z</time></trkpt><trkpt lat="45.88243454441886" lon="10.853692426455277"><ele>66.0</ele><time>2026-05-01T14:11:29Z</time></trkpt><trkpt lat="45.882494649528184" lon="10.853608024819927"><ele>66.0</ele><time>2026-05-01T14:11:30Z</time></trkpt><trkpt lat="45.88255100931232" lon="10.85353859238989"><ele>66.16666666666667</ele><time>2026-05-01T14:11:31Z</time></trkpt><trkpt lat="45.882610056022976" lon="10.853505182933032"><ele>66.33333333333333</ele><time>2026-05-01T14:11:32Z</time></trkpt><trkpt lat="45.88267406514246" lon="10.853427986300538"><ele>66.5</ele><time>2026-05-01T14:11:34Z</time></trkpt><trkpt lat="45.88272376895591" lon="10.853358329347676"><ele>66.66666666666666</ele><time>2026-05-01T14:11:36Z</time></trkpt><trkpt lat="45.88277317768347" lon="10.853258517179153"><ele>66.83333333333333</ele><time>2026-05-01T14:11:39Z</time></trkpt><trkpt lat="45.882866360789585" lon="10.85313841735077"><ele>67.0</ele><time>2026-05-01T14:11:41Z</time></trkpt><trkpt lat="45.88292467592314" lon="10.853060596554457"><ele>67.0</ele><time>2026-05-01T14:11:42Z</time></trkpt><trkpt lat="45.882984326998645" lon="10.852973291077397"><ele>67.0</ele><time>2026-05-01T14:11:43Z</time></trkpt><trkpt lat="45.88303117846735" lon="10.852874608070737"><ele>67.0</ele><time>2026-05-01T14:11:44Z</time></trkpt><trkpt lat="45.883079431726394" lon="10.85278791668912"><ele>67.0</ele><time>2026-05-01T14:11:45Z</time></trkpt><trkpt lat="45.88312337035728" lon="10.852711184722962"><ele>67.0</ele><time>2026-05-01T14:11:46Z</time></trkpt><trkpt lat="45.88318821216389" lon="10.852586619698995"><ele>67.0</ele><time>2026-05-01T14:11:48Z</time></trkpt><trkpt lat="45.883243462145636" lon="10.852505789929372"><ele>66.83333333333333</ele><time>2026-05-01T14:11:50Z</time></trkpt><trkpt lat="45.88328074995928" lon="10.852426649953065"><ele>66.66666666666666</ele><time>2026-05-01T14:11:52Z</time></trkpt><trkpt lat="45.88334284105346" lon="10.85230697439958"><ele>66.5</ele><time>2026-05-01T14:11:54Z</time></trkpt><trkpt lat="45.88338406304866" lon="10.852233212140398"><ele>66.33333333333333</ele><time>2026-05-01T14:11:55Z</time></trkpt><trkpt lat="45.88342828437851" lon="10.852151375063544"><ele>66.16666666666667</ele><time>2026-05-01T14:11:56Z</time></trkpt><trkpt lat="45.883475409290774" lon="10.852060323694806"><ele>66.0</ele><time>2026-05-01T14:11:57Z</time></trkpt><trkpt lat="45.883529361756615" lon="10.851964282651243"><ele>66.66666666666667</ele><time>2026-05-01T14:11:58Z</time></trkpt><trkpt lat="45.883579796144346" lon="10.851873018432858"><ele>67.33333333333333</ele><time>2026-05-01T14:11:59Z</time></trkpt><trkpt lat="45.88362708427357" lon="10.851786191238771"><ele>68.0</ele><time>2026-05-01T14:12:00Z</time></trkpt><trkpt lat="45.88366748669454" lon="10.85170948719888"><ele>68.66666666666666</ele><time>2026-05-01T14:12:01Z</time></trkpt><trkpt lat="45.88371039000744" lon="10.851635131165455"><ele>69.33333333333333</ele><time>2026-05-01T14:12:02Z</time></trkpt><trkpt lat="45.88374700830682" lon="10.85155840399276"><ele>70.0</ele><time>2026-05-01T14:12:03Z</time></trkpt><trkpt lat="45.88380948826052" lon="10.851439803888413"><ele>70.0</ele><time>2026-05-01T14:12:05Z</time></trkpt><trkpt lat="45.88385802344184" lon="10.85135961234623"><ele>70.0</ele><time>2026-05-01T14:12:07Z</time></trkpt><trkpt lat="45.883907470212456" lon="10.851277916100614"><ele>70.0</ele><time>2026-05-01T14:12:09.001Z</time></trkpt><trkpt lat="45.88397100183744" lon="10.85116755137367"><ele>70.0</ele><time>2026-05-01T14:12:11.001Z</time></trkpt><trkpt lat="45.88402872487853" lon="10.851057683833213"><ele>70.0</ele><time>2026-05-01T14:12:14.001Z</time></trkpt><trkpt lat="45.88407238643601" lon="10.8509497587542"><ele>70.0</ele><time>2026-05-01T14:12:22.001Z</time></trkpt><trkpt lat="45.884116516883786" lon="10.850860361467534"><ele>70.0</ele><time>2026-05-01T14:12:24.001Z</time></trkpt><trkpt lat="45.884166710534146" lon="10.850805469332073"><ele>70.0</ele><time>2026-05-01T14:12:30.001Z</time></trkpt><trkpt lat="45.88421978229493" lon="10.850707306520357"><ele>70.0</ele><time>2026-05-01T14:12:32.001Z</time></trkpt><trkpt lat="45.88427208692463" lon="10.850610158375295"><ele>70.0</ele><time>2026-05-01T14:12:34Z</time></trkpt><trkpt lat="45.88431760770116" lon="10.850525991094031"><ele>70.0</ele><time>2026-05-01T14:12:36Z</time></trkpt><trkpt lat="45.884346677475676" lon="10.850439253733791"><ele>70.0</ele><time>2026-05-01T14:12:38Z</time></trkpt><trkpt lat="45.88440005921751" lon="10.850334938582515"><ele>70.0</ele><time>2026-05-01T14:12:41Z</time></trkpt><trkpt lat="45.88444094760179" lon="10.85026252158049"><ele>70.0</ele><time>2026-05-01T14:12:43Z</time></trkpt><trkpt lat="45.884494857310145" lon="10.850158339481508"><ele>70.0</ele><time>2026-05-01T14:12:46Z</time></trkpt><trkpt lat="45.88454735885271" lon="10.850055024522657"><ele>70.0</ele><time>2026-05-01T14:12:49Z</time></trkpt><trkpt lat="45.88458844061998" lon="10.849973633100964"><ele>70.0</ele><time>2026-05-01T14:12:53Z</time></trkpt><trkpt lat="45.8846380862441" lon="10.8498857087166"><ele>70.0</ele><time>2026-05-01T14:13:02Z</time></trkpt><trkpt lat="45.88467768044905" lon="10.849806952556447"><ele>70.14285714285714</ele><time>2026-05-01T14:13:13Z</time></trkpt><trkpt lat="45.88472214795092" lon="10.849715869863541"><ele>70.28571428571428</ele><time>2026-05-01T14:13:18Z</time></trkpt><trkpt lat="45.884758913537645" lon="10.849627422665082"><ele>70.42857142857143</ele><time>2026-05-01T14:13:22Z</time></trkpt><trkpt lat="45.88479316217019" lon="10.849535672186143"><ele>70.57142857142857</ele><time>2026-05-01T14:13:26Z</time></trkpt><trkpt lat="45.88483550339949" lon="10.849465052795317"><ele>70.71428571428571</ele><time>2026-05-01T14:13:31Z</time></trkpt><trkpt lat="45.88486866243283" lon="10.84938665726669"><ele>70.85714285714286</ele><time>2026-05-01T14:13:35Z</time></trkpt><trkpt lat="45.884903248649785" lon="10.849298692387059"><ele>71.0</ele><time>2026-05-01T14:13:44Z</time></trkpt><trkpt lat="45.884928088594116" lon="10.849209256764041"><ele>71.0</ele><time>2026-05-01T14:14:18.001Z</time></trkpt><trkpt lat="45.88496974221938" lon="10.849108492226836"><ele>71.0</ele><time>2026-05-01T14:14:21.001Z</time></trkpt><trkpt lat="45.88499797619" lon="10.84902574080166"><ele>71.0</ele><time>2026-05-01T14:14:23.001Z</time></trkpt><trkpt lat="45.88503449866691" lon="10.848940654986496"><ele>71.0</ele><time>2026-05-01T14:14:25.001Z</time></trkpt><trkpt lat="45.88506487495269" lon="10.848852947503723"><ele>71.0</ele><time>2026-05-01T14:14:28.001Z</time></trkpt><trkpt lat="45.88509556303156" lon="10.848760477138716"><ele>71.0</ele><time>2026-05-01T14:14:31.001Z</time></trkpt><trkpt lat="45.8851364930025" lon="10.8486254013072"><ele>71.0</ele><time>2026-05-01T14:14:33.001Z</time></trkpt><trkpt lat="45.88517976879573" lon="10.848555229950037"><ele>71.0</ele><time>2026-05-01T14:14:34.001Z</time></trkpt><trkpt lat="45.88522559539587" lon="10.848430934113297"><ele>71.0</ele><time>2026-05-01T14:14:36.001Z</time></trkpt><trkpt lat="45.88526176800642" lon="10.848325046630427"><ele>71.0</ele><time>2026-05-01T14:14:38.001Z</time></trkpt><trkpt lat="45.88527916149697" lon="10.848195195132652"><ele>71.0</ele><time>2026-05-01T14:14:40Z</time></trkpt><trkpt lat="45.88530917473988" lon="10.848069040225258"><ele>71.0</ele><time>2026-05-01T14:14:42Z</time></trkpt><trkpt lat="45.885345015907816" lon="10.84793265282446"><ele>71.0</ele><time>2026-05-01T14:14:44Z</time></trkpt><trkpt lat="45.88538111629085" lon="10.84779635689238"><ele>71.0</ele><time>2026-05-01T14:14:46Z</time></trkpt><trkpt lat="45.8854195934293" lon="10.847646529648022"><ele>71.0</ele><time>2026-05-01T14:14:48Z</time></trkpt><trkpt lat="45.88547293206764" lon="10.847523581481749"><ele>71.0</ele><time>2026-05-01T14:14:50Z</time></trkpt><trkpt lat="45.88548327391288" lon="10.8473970534267"><ele>71.0</ele><time>2026-05-01T14:14:52Z</time></trkpt><trkpt lat="45.88550733667722" lon="10.847290671428569"><ele>71.0</ele><time>2026-05-01T14:14:54Z</time></trkpt><trkpt lat="45.88553772829689" lon="10.847183214872883"><ele>71.0</ele><time>2026-05-01T14:14:57Z</time></trkpt><trkpt lat="45.88558296305821" lon="10.847106003175753"><ele>71.0</ele><time>2026-05-01T14:15:02Z</time></trkpt><trkpt lat="45.88561536326242" lon="10.846983134686289"><ele>71.0</ele><time>2026-05-01T14:15:04Z</time></trkpt><trkpt lat="45.885638654102735" lon="10.846894543659575"><ele>71.0</ele><time>2026-05-01T14:15:05Z</time></trkpt><trkpt lat="45.88566283154672" lon="10.846802580517277"><ele>71.0</ele><time>2026-05-01T14:15:06Z</time></trkpt><trkpt lat="45.88570537549209" lon="10.84664075762164"><ele>71.0</ele><time>2026-05-01T14:15:08Z</time></trkpt><trkpt lat="45.885728106387205" lon="10.846554296880331"><ele>71.0</ele><time>2026-05-01T14:15:09Z</time></trkpt><trkpt lat="45.88575052623948" lon="10.846469019131552"><ele>71.0</ele><time>2026-05-01T14:15:10Z</time></trkpt><trkpt lat="45.88579587492082" lon="10.846297764360441"><ele>71.0</ele><time>2026-05-01T14:15:12Z</time></trkpt><trkpt lat="45.885818766288594" lon="10.846212529099915"><ele>71.0</ele><time>2026-05-01T14:15:13Z</time></trkpt><trkpt lat="45.885841911067274" lon="10.846126350193343"><ele>71.0</ele><time>2026-05-01T14:15:14Z</time></trkpt><trkpt lat="45.88588501635976" lon="10.84596447755361"><ele>71.0</ele><time>2026-05-01T14:15:16Z</time></trkpt><trkpt lat="45.8859173271435" lon="10.845837380446063"><ele>71.0</ele><time>2026-05-01T14:15:18Z</time></trkpt><trkpt lat="45.885941296470165" lon="10.845743093209906"><ele>71.0</ele><time>2026-05-01T14:15:20Z</time></trkpt><trkpt lat="45.88595557374324" lon="10.845645137572069"><ele>71.0</ele><time>2026-05-01T14:15:23Z</time></trkpt><trkpt lat="45.885997617377704" lon="10.845559950091218"><ele>71.0</ele><time>2026-05-01T14:15:37Z</time></trkpt><trkpt lat="45.88601109325713" lon="10.845467741146923"><ele>71.0</ele><time>2026-05-01T14:15:47Z</time></trkpt><trkpt lat="45.88615760525953" lon="10.845510201668835"><ele>71.0</ele><time>2026-05-01T14:15:49Z</time></trkpt><trkpt lat="45.88625886195085" lon="10.845547318713688"><ele>71.0</ele><time>2026-05-01T14:15:51Z</time></trkpt><trkpt lat="45.8863287062095" lon="10.845567411194084"><ele>71.0</ele><time>2026-05-01T14:15:52Z</time></trkpt><trkpt lat="45.88640711412424" lon="10.845590855973406"><ele>71.0</ele><time>2026-05-01T14:15:53Z</time></trkpt><trkpt lat="45.88649021451119" lon="10.845623180586916"><ele>71.0</ele><time>2026-05-01T14:15:54Z</time></trkpt><trkpt lat="45.88657991598023" lon="10.845652698168784"><ele>71.0</ele><time>2026-05-01T14:15:55Z</time></trkpt><trkpt lat="45.88666120577767" lon="10.845704379196686"><ele>71.0</ele><time>2026-05-01T14:15:56Z</time></trkpt><trkpt lat="45.88674766639554" lon="10.84571402644594"><ele>71.0</ele><time>2026-05-01T14:15:57Z</time></trkpt><trkpt lat="45.88682444399599" lon="10.845749144162538"><ele>71.0</ele><time>2026-05-01T14:15:58Z</time></trkpt><trkpt lat="45.88690784477004" lon="10.845780578107254"><ele>71.0</ele><time>2026-05-01T14:15:59Z</time></trkpt><trkpt lat="45.886992152676" lon="10.845810030148407"><ele>71.0</ele><time>2026-05-01T14:16:00Z</time></trkpt><trkpt lat="45.8870668690956" lon="10.845844058733546"><ele>71.0</ele><time>2026-05-01T14:16:01Z</time></trkpt><trkpt lat="45.887132938505324" lon="10.845862328992428"><ele>71.2</ele><time>2026-05-01T14:16:02Z</time></trkpt><trkpt lat="45.887245546893986" lon="10.845902521262476"><ele>71.39999999999999</ele><time>2026-05-01T14:16:04Z</time></trkpt><trkpt lat="45.88733926681559" lon="10.845931775573172"><ele>71.6</ele><time>2026-05-01T14:16:06Z</time></trkpt><trkpt lat="45.88740551511566" lon="10.845973225845574"><ele>71.8</ele><time>2026-05-01T14:16:08Z</time></trkpt><trkpt lat="45.88747931168551" lon="10.846000238424674"><ele>72.0</ele><time>2026-05-01T14:16:11Z</time></trkpt><trkpt lat="45.8875753341988" lon="10.84603602636117"><ele>72.0</ele><time>2026-05-01T14:17:06Z</time></trkpt><trkpt lat="45.88764176447149" lon="10.846060785160626"><ele>72.0</ele><time>2026-05-01T14:17:07Z</time></trkpt><trkpt lat="45.88772792217993" lon="10.84609298848632"><ele>72.0</ele><time>2026-05-01T14:17:08Z</time></trkpt><trkpt lat="45.88781788423498" lon="10.846126615849354"><ele>72.0</ele><time>2026-05-01T14:17:09Z</time></trkpt><trkpt lat="45.88791267553483" lon="10.846162048368583"><ele>72.0</ele><time>2026-05-01T14:17:10Z</time></trkpt><trkpt lat="45.88801225866803" lon="10.846198184253266"><ele>72.0</ele><time>2026-05-01T14:17:11Z</time></trkpt><trkpt lat="45.888110302240456" lon="10.846229910595415"><ele>72.0</ele><time>2026-05-01T14:17:12Z</time></trkpt><trkpt lat="45.88822182616461" lon="10.846235636550595"><ele>72.0</ele><time>2026-05-01T14:17:13Z</time></trkpt><trkpt lat="45.88833645117687" lon="10.846184415625677"><ele>72.0</ele><time>2026-05-01T14:17:14Z</time></trkpt><trkpt lat="45.88846140691971" lon="10.846125517354116"><ele>72.5</ele><time>2026-05-01T14:17:15Z</time></trkpt><trkpt lat="45.8885898278307" lon="10.846060115359066"><ele>73.0</ele><time>2026-05-01T14:17:16Z</time></trkpt><trkpt lat="45.8887251707073" lon="10.845999054895733"><ele>73.5</ele><time>2026-05-01T14:17:17Z</time></trkpt><trkpt lat="45.88886367232267" lon="10.845944873169548"><ele>74.0</ele><time>2026-05-01T14:17:18Z</time></trkpt><trkpt lat="45.8890045088691" lon="10.84589446223447"><ele>74.0</ele><time>2026-05-01T14:17:19Z</time></trkpt><trkpt lat="45.889139973926035" lon="10.845850409607547"><ele>74.0</ele><time>2026-05-01T14:17:20Z</time></trkpt><trkpt lat="45.88927077796321" lon="10.845805873203368"><ele>74.0</ele><time>2026-05-01T14:17:21Z</time></trkpt><trkpt lat="45.88939384377398" lon="10.845762944497553"><ele>74.0</ele><time>2026-05-01T14:17:22Z</time></trkpt><trkpt lat="45.88950869470412" lon="10.84572107202582"><ele>74.4</ele><time>2026-05-01T14:17:23Z</time></trkpt><trkpt lat="45.88962300434319" lon="10.84568515424882"><ele>74.80000000000001</ele><time>2026-05-01T14:17:24Z</time></trkpt><trkpt lat="45.88973580373748" lon="10.845650483182784"><ele>75.19999999999999</ele><time>2026-05-01T14:17:25Z</time></trkpt><trkpt lat="45.88984339073056" lon="10.84560742300131"><ele>75.6</ele><time>2026-05-01T14:17:26Z</time></trkpt><trkpt lat="45.88993832670919" lon="10.845551155097416"><ele>76.0</ele><time>2026-05-01T14:17:27Z</time></trkpt><trkpt lat="45.89002873705782" lon="10.84547580112497"><ele>76.33333333333333</ele><time>2026-05-01T14:17:28Z</time></trkpt><trkpt lat="45.89009918906607" lon="10.84536862597453"><ele>76.66666666666666</ele><time>2026-05-01T14:17:29Z</time></trkpt><trkpt lat="45.89014057611819" lon="10.84523952836431"><ele>77.0</ele><time>2026-05-01T14:17:30Z</time></trkpt><trkpt lat="45.89017971187457" lon="10.84513684495229"><ele>77.33333333333333</ele><time>2026-05-01T14:17:31Z</time></trkpt><trkpt lat="45.890226401027" lon="10.845045254994945"><ele>77.66666666666667</ele><time>2026-05-01T14:17:32Z</time></trkpt><trkpt lat="45.89027304401314" lon="10.844982888709264"><ele>78.0</ele><time>2026-05-01T14:17:33Z</time></trkpt><trkpt lat="45.89032356851652" lon="10.844917757349455"><ele>78.0</ele><time>2026-05-01T14:17:34Z</time></trkpt><trkpt lat="45.89038326598857" lon="10.844869087966874"><ele>78.0</ele><time>2026-05-01T14:17:35Z</time></trkpt><trkpt lat="45.890453127445696" lon="10.844858165184837"><ele>78.0</ele><time>2026-05-01T14:17:36Z</time></trkpt><trkpt lat="45.890531906783025" lon="10.844901298564077"><ele>78.0</ele><time>2026-05-01T14:17:37Z</time></trkpt><trkpt lat="45.890615227142064" lon="10.844992065053816"><ele>78.0</ele><time>2026-05-01T14:17:38Z</time></trkpt><trkpt lat="45.89069619940459" lon="10.845105267544822"><ele>78.0</ele><time>2026-05-01T14:17:39Z</time></trkpt><trkpt lat="45.890777750433" lon="10.845205095637521"><ele>78.0</ele><time>2026-05-01T14:17:40Z</time></trkpt><trkpt lat="45.890866469983706" lon="10.845303741580437"><ele>78.0</ele><time>2026-05-01T14:17:41Z</time></trkpt><trkpt lat="45.8909610764592" lon="10.84540427902465"><ele>78.0</ele><time>2026-05-01T14:17:42Z</time></trkpt><trkpt lat="45.89105221051656" lon="10.845503059973518"><ele>78.0</ele><time>2026-05-01T14:17:43Z</time></trkpt><trkpt lat="45.891133632229014" lon="10.845594561431511"><ele>78.0</ele><time>2026-05-01T14:17:44Z</time></trkpt><trkpt lat="45.89121037876581" lon="10.845676987755391"><ele>78.28571428571429</ele><time>2026-05-01T14:17:45Z</time></trkpt><trkpt lat="45.891273563076545" lon="10.845745335598355"><ele>78.57142857142857</ele><time>2026-05-01T14:17:46Z</time></trkpt><trkpt lat="45.89133036906276" lon="10.845808247150341"><ele>78.85714285714286</ele><time>2026-05-01T14:17:47Z</time></trkpt><trkpt lat="45.89138401370574" lon="10.845864312745931"><ele>79.14285714285714</ele><time>2026-05-01T14:17:48Z</time></trkpt><trkpt lat="45.891435387644194" lon="10.845918046265709"><ele>79.42857142857143</ele><time>2026-05-01T14:17:49Z</time></trkpt><trkpt lat="45.89148866520951" lon="10.845971988716975"><ele>79.71428571428571</ele><time>2026-05-01T14:17:50Z</time></trkpt><trkpt lat="45.891547773549156" lon="10.846030875542015"><ele>80.0</ele><time>2026-05-01T14:17:51Z</time></trkpt><trkpt lat="45.89161082542259" lon="10.846092512641372"><ele>80.16666666666667</ele><time>2026-05-01T14:17:52Z</time></trkpt><trkpt lat="45.89167261631567" lon="10.84615827035016"><ele>80.33333333333334</ele><time>2026-05-01T14:17:53Z</time></trkpt><trkpt lat="45.89173287402305" lon="10.846214286346902"><ele>80.5</ele><time>2026-05-01T14:17:54Z</time></trkpt><trkpt lat="45.8917862820856" lon="10.846274564455893"><ele>80.66666666666667</ele><time>2026-05-01T14:17:55Z</time></trkpt><trkpt lat="45.891873268534525" lon="10.846369319163882"><ele>80.83333333333333</ele><time>2026-05-01T14:17:57Z</time></trkpt><trkpt lat="45.89194849191748" lon="10.846425730657309"><ele>81.0</ele><time>2026-05-01T14:17:59Z</time></trkpt><trkpt lat="45.89202840745339" lon="10.846505567745496"><ele>81.6</ele><time>2026-05-01T14:18:01Z</time></trkpt><trkpt lat="45.89211981684735" lon="10.846592683694846"><ele>82.19999999999999</ele><time>2026-05-01T14:18:03Z</time></trkpt><trkpt lat="45.89220310990066" lon="10.846595658382146"><ele>82.80000000000001</ele><time>2026-05-01T14:18:05Z</time></trkpt><trkpt lat="45.892302614821915" lon="10.846518533600214"><ele>83.4</ele><time>2026-05-01T14:18:07Z</time></trkpt><trkpt lat="45.892362841212034" lon="10.846464156203274"><ele>84.0</ele><time>2026-05-01T14:18:08Z</time></trkpt><trkpt lat="45.89243181898262" lon="10.846408484198387"><ele>84.0</ele><time>2026-05-01T14:18:09Z</time></trkpt><trkpt lat="45.89251341113593" lon="10.846347935696492"><ele>84.0</ele><time>2026-05-01T14:18:10Z</time></trkpt><trkpt lat="45.892606820230256" lon="10.846284871300202"><ele>84.0</ele><time>2026-05-01T14:18:11Z</time></trkpt><trkpt lat="45.89269888425764" lon="10.846224755721616"><ele>84.0</ele><time>2026-05-01T14:18:12Z</time></trkpt><trkpt lat="45.89277885835245" lon="10.846174823119162"><ele>84.0</ele><time>2026-05-01T14:18:13Z</time></trkpt><trkpt lat="45.892855559245604" lon="10.846121018264466"><ele>83.80000000000001</ele><time>2026-05-01T14:18:14Z</time></trkpt><trkpt lat="45.892939302711994" lon="10.84606243608866"><ele>83.60000000000001</ele><time>2026-05-01T14:18:15Z</time></trkpt><trkpt lat="45.89302528955809" lon="10.845997023431604"><ele>83.4</ele><time>2026-05-01T14:18:16Z</time></trkpt><trkpt lat="45.89311894741103" lon="10.845939902720827"><ele>83.2</ele><time>2026-05-01T14:18:17Z</time></trkpt><trkpt lat="45.89320086979279" lon="10.845860785617003"><ele>83.0</ele><time>2026-05-01T14:18:18Z</time></trkpt><trkpt lat="45.89328061170528" lon="10.845783544335221"><ele>83.0</ele><time>2026-05-01T14:18:19Z</time></trkpt><trkpt lat="45.89336399924289" lon="10.845693695802641"><ele>83.0</ele><time>2026-05-01T14:18:20Z</time></trkpt><trkpt lat="45.8934476263901" lon="10.845598394906661"><ele>83.0</ele><time>2026-05-01T14:18:21Z</time></trkpt><trkpt lat="45.89353759323557" lon="10.845496679573715"><ele>83.0</ele><time>2026-05-01T14:18:22.001Z</time></trkpt><trkpt lat="45.89362880007582" lon="10.845391365547478"><ele>83.0</ele><time>2026-05-01T14:18:23.001Z</time></trkpt><trkpt lat="45.89372105650227" lon="10.845284190553095"><ele>83.4</ele><time>2026-05-01T14:18:24.001Z</time></trkpt><trkpt lat="45.8938128884924" lon="10.845185376146455"><ele>83.80000000000001</ele><time>2026-05-01T14:18:25.001Z</time></trkpt><trkpt lat="45.893890651453844" lon="10.845089903513824"><ele>84.2</ele><time>2026-05-01T14:18:26.001Z</time></trkpt><trkpt lat="45.893959021620105" lon="10.844996388859807"><ele>84.6</ele><time>2026-05-01T14:18:27.001Z</time></trkpt><trkpt lat="45.89399795661941" lon="10.844892893720418"><ele>85.0</ele><time>2026-05-01T14:18:28.001Z</time></trkpt><trkpt lat="45.89402751300687" lon="10.84479374352389"><ele>85.16666666666666</ele><time>2026-05-01T14:18:29.001Z</time></trkpt><trkpt lat="45.89405091421898" lon="10.844689951285032"><ele>85.33333333333333</ele><time>2026-05-01T14:18:30.001Z</time></trkpt><trkpt lat="45.89407267293896" lon="10.84457902461626"><ele>85.5</ele><time>2026-05-01T14:18:31.001Z</time></trkpt><trkpt lat="45.894089614028196" lon="10.844476495725972"><ele>85.66666666666667</ele><time>2026-05-01T14:18:32.001Z</time></trkpt><trkpt lat="45.89411188478373" lon="10.844369699676108"><ele>85.83333333333334</ele><time>2026-05-01T14:18:33.001Z</time></trkpt><trkpt lat="45.894138051235906" lon="10.844247027492056"><ele>86.0</ele><time>2026-05-01T14:18:34.001Z</time></trkpt><trkpt lat="45.89416784683999" lon="10.844116500458142"><ele>86.33333333333334</ele><time>2026-05-01T14:18:35.001Z</time></trkpt><trkpt lat="45.89419832278323" lon="10.843989746107155"><ele>86.66666666666667</ele><time>2026-05-01T14:18:36.001Z</time></trkpt><trkpt lat="45.8942218696995" lon="10.843876863860574"><ele>87.0</ele><time>2026-05-01T14:18:37.001Z</time></trkpt><trkpt lat="45.894254547789444" lon="10.84375368181108"><ele>87.33333333333333</ele><time>2026-05-01T14:18:39.001Z</time></trkpt><trkpt lat="45.894293305814294" lon="10.843628999331187"><ele>87.66666666666666</ele><time>2026-05-01T14:18:42.001Z</time></trkpt><trkpt lat="45.89435579101076" lon="10.843560889772164"><ele>88.0</ele><time>2026-05-01T14:18:44.001Z</time></trkpt><trkpt lat="45.89442243836202" lon="10.843548219057743"><ele>88.14285714285714</ele><time>2026-05-01T14:18:45.001Z</time></trkpt><trkpt lat="45.89448905831167" lon="10.843535506697096"><ele>88.28571428571428</ele><time>2026-05-01T14:18:46.001Z</time></trkpt><trkpt lat="45.89455044153618" lon="10.843490569982745"><ele>88.42857142857142</ele><time>2026-05-01T14:18:47.001Z</time></trkpt><trkpt lat="45.89459391630529" lon="10.843419205178058"><ele>88.57142857142857</ele><time>2026-05-01T14:18:48.001Z</time></trkpt><trkpt lat="45.89461682607451" lon="10.84332890055763"><ele>88.71428571428571</ele><time>2026-05-01T14:18:49.001Z</time></trkpt><trkpt lat="45.89463470871831" lon="10.843234928383936"><ele>88.85714285714285</ele><time>2026-05-01T14:18:50.001Z</time></trkpt><trkpt lat="45.89465208963022" lon="10.84314128613439"><ele>89.0</ele><time>2026-05-01T14:18:51.001Z</time></trkpt><trkpt lat="45.8946758315944" lon="10.843042367997333"><ele>89.33333333333334</ele><time>2026-05-01T14:18:52Z</time></trkpt><trkpt lat="45.89470735771396" lon="10.842939358153863"><ele>89.66666666666667</ele><time>2026-05-01T14:18:53Z</time></trkpt><trkpt lat="45.894740147243034" lon="10.842835516847108"><ele>90.0</ele><time>2026-05-01T14:18:54Z</time></trkpt><trkpt lat="45.894778522770615" lon="10.842724880211229"><ele>90.33333333333333</ele><time>2026-05-01T14:18:55Z</time></trkpt><trkpt lat="45.89481732035343" lon="10.842603008552583"><ele>90.66666666666666</ele><time>2026-05-01T14:18:56Z</time></trkpt><trkpt lat="45.894855047222684" lon="10.842489234524772"><ele>91.0</ele><time>2026-05-01T14:18:57Z</time></trkpt><trkpt lat="45.89489236884246" lon="10.842372229251884"><ele>91.0</ele><time>2026-05-01T14:18:58Z</time></trkpt><trkpt lat="45.89493747056691" lon="10.842246018910057"><ele>91.0</ele><time>2026-05-01T14:18:59Z</time></trkpt><trkpt lat="45.89498361707885" lon="10.842119518457993"><ele>91.0</ele><time>2026-05-01T14:19:00Z</time></trkpt><trkpt lat="45.89504023520211" lon="10.841981261832833"><ele>91.0</ele><time>2026-05-01T14:19:01Z</time></trkpt><trkpt lat="45.89509953486234" lon="10.841850455430889"><ele>91.0</ele><time>2026-05-01T14:19:02Z</time></trkpt><trkpt lat="45.89516721618909" lon="10.841718269908306"><ele>91.25</ele><time>2026-05-01T14:19:03Z</time></trkpt><trkpt lat="45.8952397711619" lon="10.841593438342661"><ele>91.5</ele><time>2026-05-01T14:19:04Z</time></trkpt><trkpt lat="45.895318112099254" lon="10.841470791709199"><ele>91.75</ele><time>2026-05-01T14:19:05Z</time></trkpt><trkpt lat="45.89541249336576" lon="10.84137263408084"><ele>92.0</ele><time>2026-05-01T14:19:06Z</time></trkpt><trkpt lat="45.895505281243715" lon="10.841250740879287"><ele>92.0</ele><time>2026-05-01T14:19:07Z</time></trkpt><trkpt lat="45.8955863624237" lon="10.841127896714477"><ele>92.0</ele><time>2026-05-01T14:19:08Z</time></trkpt><trkpt lat="45.89568072835163" lon="10.841022371639529"><ele>92.0</ele><time>2026-05-01T14:19:09Z</time></trkpt><trkpt lat="45.895769317111245" lon="10.840901564214645"><ele>92.0</ele><time>2026-05-01T14:19:10Z</time></trkpt><trkpt lat="45.89585294284403" lon="10.840798194056736"><ele>92.6</ele><time>2026-05-01T14:19:11Z</time></trkpt><trkpt lat="45.895929915539035" lon="10.840697225137248"><ele>93.19999999999999</ele><time>2026-05-01T14:19:12Z</time></trkpt><trkpt lat="45.89601317996892" lon="10.840596414408502"><ele>93.8</ele><time>2026-05-01T14:19:13Z</time></trkpt><trkpt lat="45.89609243316392" lon="10.840499729100362"><ele>94.4</ele><time>2026-05-01T14:19:14Z</time></trkpt><trkpt lat="45.89616221385675" lon="10.84037990225261"><ele>95.0</ele><time>2026-05-01T14:19:15Z</time></trkpt><trkpt lat="45.89623033998014" lon="10.840246389106964"><ele>95.25</ele><time>2026-05-01T14:19:16Z</time></trkpt><trkpt lat="45.89628645115502" lon="10.840108109621713"><ele>95.5</ele><time>2026-05-01T14:19:17Z</time></trkpt><trkpt lat="45.896340563235306" lon="10.839961186586207"><ele>95.75</ele><time>2026-05-01T14:19:18Z</time></trkpt><trkpt lat="45.89638729099307" lon="10.839801507862271"><ele>96.0</ele><time>2026-05-01T14:19:19Z</time></trkpt><trkpt lat="45.89642780979198" lon="10.83963612189917"><ele>96.0</ele><time>2026-05-01T14:19:20Z</time></trkpt><trkpt lat="45.89645767868652" lon="10.839462092894864"><ele>96.0</ele><time>2026-05-01T14:19:21Z</time></trkpt><trkpt lat="45.89647114105221" lon="10.839288290446998"><ele>96.0</ele><time>2026-05-01T14:19:22Z</time></trkpt><trkpt lat="45.89647519811543" lon="10.839115430736747"><ele>96.0</ele><time>2026-05-01T14:19:23Z</time></trkpt><trkpt lat="45.896478558875266" lon="10.838958840981569"><ele>96.4</ele><time>2026-05-01T14:19:24Z</time></trkpt><trkpt lat="45.89647783978354" lon="10.838829989387886"><ele>96.8</ele><time>2026-05-01T14:19:25Z</time></trkpt><trkpt lat="45.896481192113036" lon="10.83872710362093"><ele>97.2</ele><time>2026-05-01T14:19:26Z</time></trkpt><trkpt lat="45.89649036596908" lon="10.838569793016875"><ele>97.60000000000001</ele><time>2026-05-01T14:19:28Z</time></trkpt><trkpt lat="45.89650276320646" lon="10.838470341509561"><ele>98.0</ele><time>2026-05-01T14:19:31Z</time></trkpt><trkpt lat="45.89656383855095" lon="10.838342355872374"><ele>98.80000000000001</ele><time>2026-05-01T14:19:33Z</time></trkpt><trkpt lat="45.89661424014326" lon="10.8382307019106"><ele>99.6</ele><time>2026-05-01T14:19:35Z</time></trkpt><trkpt lat="45.89660113685548" lon="10.838063809592999"><ele>100.4</ele><time>2026-05-01T14:19:37Z</time></trkpt><trkpt lat="45.896524467377546" lon="10.837956091896597"><ele>101.19999999999999</ele><time>2026-05-01T14:19:39Z</time></trkpt><trkpt lat="45.89642674280843" lon="10.83785235406879"><ele>102.0</ele><time>2026-05-01T14:19:41Z</time></trkpt><trkpt lat="45.896398665420946" lon="10.837761469977249"><ele>102.0</ele><time>2026-05-01T14:19:42Z</time></trkpt><trkpt lat="45.89639142790955" lon="10.83765390138983"><ele>102.0</ele><time>2026-05-01T14:19:43Z</time></trkpt><trkpt lat="45.8964136249083" lon="10.837539233937123"><ele>102.0</ele><time>2026-05-01T14:19:44Z</time></trkpt><trkpt lat="45.89646827660028" lon="10.837441729703997"><ele>102.0</ele><time>2026-05-01T14:19:45Z</time></trkpt><trkpt lat="45.89651506021678" lon="10.837328535556235"><ele>102.0</ele><time>2026-05-01T14:19:46Z</time></trkpt><trkpt lat="45.89656581308942" lon="10.837160424656544"><ele>102.33333333333334</ele><time>2026-05-01T14:19:47Z</time></trkpt><trkpt lat="45.89659200926508" lon="10.836933973547385"><ele>102.66666666666667</ele><time>2026-05-01T14:19:48Z</time></trkpt><trkpt lat="45.896606347727165" lon="10.836696240924159"><ele>103.0</ele><time>2026-05-01T14:19:49Z</time></trkpt><trkpt lat="45.89661993393845" lon="10.836455438526277"><ele>104.0</ele><time>2026-05-01T14:19:50Z</time></trkpt><trkpt lat="45.89662221171348" lon="10.836214392981985"><ele>105.0</ele><time>2026-05-01T14:19:51Z</time></trkpt><trkpt lat="45.89666742812786" lon="10.835987151006291"><ele>106.0</ele><time>2026-05-01T14:19:52Z</time></trkpt><trkpt lat="45.8967380301453" lon="10.835780987917495"><ele>107.66666666666667</ele><time>2026-05-01T14:19:53Z</time></trkpt><trkpt lat="45.896836003034885" lon="10.835598383416563"><ele>109.33333333333334</ele><time>2026-05-01T14:19:54Z</time></trkpt><trkpt lat="45.896954574441274" lon="10.835440720885424"><ele>111.0</ele><time>2026-05-01T14:19:55Z</time></trkpt><trkpt lat="45.89708882997361" lon="10.835313345008307"><ele>111.0</ele><time>2026-05-01T14:19:56Z</time></trkpt><trkpt lat="45.897236381308666" lon="10.835218535354203"><ele>111.0</ele><time>2026-05-01T14:19:57Z</time></trkpt><trkpt lat="45.89740230522886" lon="10.835175240279947"><ele>111.0</ele><time>2026-05-01T14:19:58Z</time></trkpt><trkpt lat="45.897557464864036" lon="10.835084968854732"><ele>116.0</ele><time>2026-05-01T14:19:59Z</time></trkpt><trkpt lat="45.89772310010604" lon="10.835023697406447"><ele>121.0</ele><time>2026-05-01T14:20:00Z</time></trkpt><trkpt lat="45.897884167460234" lon="10.834954896150558"><ele>126.0</ele><time>2026-05-01T14:20:01Z</time></trkpt><trkpt lat="45.89803785855395" lon="10.83487088625976"><ele>126.0</ele><time>2026-05-01T14:20:02Z</time></trkpt><trkpt lat="45.8981746397829" lon="10.834773032200944"><ele>126.0</ele><time>2026-05-01T14:20:03Z</time></trkpt><trkpt lat="45.89828573338566" lon="10.834655915501882"><ele>126.0</ele><time>2026-05-01T14:20:04Z</time></trkpt><trkpt lat="45.89838186696829" lon="10.834505281313364"><ele>126.0</ele><time>2026-05-01T14:20:05Z</time></trkpt><trkpt lat="45.898477891355824" lon="10.834342770516034"><ele>131.0</ele><time>2026-05-01T14:20:06Z</time></trkpt><trkpt lat="45.89858621032985" lon="10.834245508488946"><ele>136.0</ele><time>2026-05-01T14:20:07Z</time></trkpt><trkpt lat="45.898704287538635" lon="10.834178110540591"><ele>141.0</ele><time>2026-05-01T14:20:08Z</time></trkpt><trkpt lat="45.89882909605819" lon="10.834160388665326"><ele>146.0</ele><time>2026-05-01T14:20:09Z</time></trkpt><trkpt lat="45.89895936922304" lon="10.834196570399106"><ele>146.0</ele><time>2026-05-01T14:20:10Z</time></trkpt><trkpt lat="45.89909606726188" lon="10.834291902109536"><ele>146.0</ele><time>2026-05-01T14:20:11Z</time></trkpt><trkpt lat="45.89921685687523" lon="10.834360036905624"><ele>146.0</ele><time>2026-05-01T14:20:12Z</time></trkpt><trkpt lat="45.89931561803772" lon="10.83444019724792"><ele>146.0</ele><time>2026-05-01T14:20:13Z</time></trkpt><trkpt lat="45.89940699018533" lon="10.834483527196825"><ele>141.4</ele><time>2026-05-01T14:20:14Z</time></trkpt><trkpt lat="45.899502957162824" lon="10.834475750176408"><ele>136.8</ele><time>2026-05-01T14:20:15Z</time></trkpt><trkpt lat="45.899599135049506" lon="10.834472871469247"><ele>132.20000000000002</ele><time>2026-05-01T14:20:16.001Z</time></trkpt><trkpt lat="45.89967777050642" lon="10.834463798018078"><ele>127.60000000000001</ele><time>2026-05-01T14:20:17.001Z</time></trkpt><trkpt lat="45.899771104305295" lon="10.834448680938406"><ele>123.0</ele><time>2026-05-01T14:20:18.001Z</time></trkpt><trkpt lat="45.89986632431283" lon="10.834434049603622"><ele>123.0</ele><time>2026-05-01T14:20:19.001Z</time></trkpt><trkpt lat="45.8999637331423" lon="10.834440514370499"><ele>123.00000000000001</ele><time>2026-05-01T14:20:20.001Z</time></trkpt><trkpt lat="45.9000590844851" lon="10.834455832764437"><ele>123.00000000000001</ele><time>2026-05-01T14:20:21.001Z</time></trkpt><trkpt lat="45.90015481730247" lon="10.834480811814394"><ele>123.0</ele><time>2026-05-01T14:20:22.001Z</time></trkpt><trkpt lat="45.90025087241334" lon="10.834506760578021"><ele>123.0</ele><time>2026-05-01T14:20:23.001Z</time></trkpt><trkpt lat="45.90034635171791" lon="10.83452442752873"><ele>123.16666666666667</ele><time>2026-05-01T14:20:24.001Z</time></trkpt><trkpt lat="45.900434469106614" lon="10.834546487079116"><ele>123.33333333333334</ele><time>2026-05-01T14:20:25.001Z</time></trkpt><trkpt lat="45.900520643724626" lon="10.834547392416493"><ele>123.5</ele><time>2026-05-01T14:20:26.001Z</time></trkpt><trkpt lat="45.90060841037331" lon="10.834543034698665"><ele>123.66666666666667</ele><time>2026-05-01T14:20:27.001Z</time></trkpt><trkpt lat="45.900693645268454" lon="10.834520206621674"><ele>123.83333333333334</ele><time>2026-05-01T14:20:28.001Z</time></trkpt><trkpt lat="45.900782582452976" lon="10.834488825678369"><ele>124.0</ele><time>2026-05-01T14:20:29.001Z</time></trkpt><trkpt lat="45.900874729898916" lon="10.834459145058123"><ele>125.2</ele><time>2026-05-01T14:20:30.001Z</time></trkpt><trkpt lat="45.90096988677424" lon="10.834427772353603"><ele>126.4</ele><time>2026-05-01T14:20:31.001Z</time></trkpt><trkpt lat="45.90106735761243" lon="10.834380040487801"><ele>127.6</ele><time>2026-05-01T14:20:32.001Z</time></trkpt><trkpt lat="45.90116602317581" lon="10.834331153114716"><ele>128.8</ele><time>2026-05-01T14:20:33.001Z</time></trkpt><trkpt lat="45.90126251424457" lon="10.834287066955357"><ele>130.0</ele><time>2026-05-01T14:20:34.001Z</time></trkpt><trkpt lat="45.90134680686898" lon="10.834257225618398"><ele>135.0</ele><time>2026-05-01T14:20:35.001Z</time></trkpt><trkpt lat="45.90141844758733" lon="10.834220491010493"><ele>140.0</ele><time>2026-05-01T14:20:36.001Z</time></trkpt><trkpt lat="45.90148682056042" lon="10.834193399443228"><ele>145.0</ele><time>2026-05-01T14:20:37.001Z</time></trkpt><trkpt lat="45.901568702416974" lon="10.834173178866529"><ele>150.0</ele><time>2026-05-01T14:20:38.001Z</time></trkpt><trkpt lat="45.9016639540218" lon="10.834172535813606"><ele>155.0</ele><time>2026-05-01T14:20:39.001Z</time></trkpt><trkpt lat="45.9017650680595" lon="10.834188880774937"><ele>160.0</ele><time>2026-05-01T14:20:40.001Z</time></trkpt><trkpt lat="45.901873331859996" lon="10.834212082976888"><ele>160.5</ele><time>2026-05-01T14:20:41.001Z</time></trkpt><trkpt lat="45.90198729490011" lon="10.834236258883946"><ele>161.0</ele><time>2026-05-01T14:20:42.001Z</time></trkpt><trkpt lat="45.902098972848336" lon="10.83426136886076"><ele>161.5</ele><time>2026-05-01T14:20:43.001Z</time></trkpt><trkpt lat="45.90221136759925" lon="10.83428553235605"><ele>162.0</ele><time>2026-05-01T14:20:44.001Z</time></trkpt><trkpt lat="45.902317941403716" lon="10.834314938732488"><ele>160.83333333333334</ele><time>2026-05-01T14:20:45.001Z</time></trkpt><trkpt lat="45.902412899467684" lon="10.834340721824585"><ele>159.66666666666666</ele><time>2026-05-01T14:20:46.001Z</time></trkpt><trkpt lat="45.9025000287959" lon="10.834361777086047"><ele>158.5</ele><time>2026-05-01T14:20:47.001Z</time></trkpt><trkpt lat="45.9025791634654" lon="10.834378472126893"><ele>157.33333333333331</ele><time>2026-05-01T14:20:48.001Z</time></trkpt><trkpt lat="45.90264705547265" lon="10.834394022128633"><ele>156.16666666666666</ele><time>2026-05-01T14:20:49.001Z</time></trkpt><trkpt lat="45.90271090577894" lon="10.834401701625332"><ele>155.0</ele><time>2026-05-01T14:20:50.001Z</time></trkpt><trkpt lat="45.90281141639303" lon="10.83440167334149"><ele>155.0</ele><time>2026-05-01T14:20:52.001Z</time></trkpt><trkpt lat="45.90287792726909" lon="10.834392116060398"><ele>155.0</ele><time>2026-05-01T14:20:54.001Z</time></trkpt><trkpt lat="45.902948390493435" lon="10.834377443037852"><ele>155.0</ele><time>2026-05-01T14:21:24Z</time></trkpt><trkpt lat="45.90301573944717" lon="10.834345722029779"><ele>155.0</ele><time>2026-05-01T14:21:26Z</time></trkpt><trkpt lat="45.9030886004993" lon="10.834314122655456"><ele>155.0</ele><time>2026-05-01T14:21:27Z</time></trkpt><trkpt lat="45.903184544650536" lon="10.834256423461847"><ele>155.0</ele><time>2026-05-01T14:21:28Z</time></trkpt><trkpt lat="45.90328651736846" lon="10.834172110381257"><ele>161.33333333333331</ele><time>2026-05-01T14:21:29Z</time></trkpt><trkpt lat="45.90339859256879" lon="10.834067965880955"><ele>167.66666666666666</ele><time>2026-05-01T14:21:30Z</time></trkpt><trkpt lat="45.903518148165844" lon="10.833927580950126"><ele>174.0</ele><time>2026-05-01T14:21:31Z</time></trkpt><trkpt lat="45.903633062506984" lon="10.833748107486269"><ele>178.0</ele><time>2026-05-01T14:21:32Z</time></trkpt><trkpt lat="45.90373351625846" lon="10.833528600861577"><ele>182.0</ele><time>2026-05-01T14:21:33.015Z</time></trkpt><trkpt lat="45.90381482303511" lon="10.833300997629276"><ele>186.0</ele><time>2026-05-01T14:21:34.019Z</time></trkpt><trkpt lat="45.90386271804092" lon="10.833044723869282"><ele>195.33333333333331</ele><time>2026-05-01T14:21:35.017Z</time></trkpt><trkpt lat="45.903881773197185" lon="10.832773508524744"><ele>204.66666666666666</ele><time>2026-05-01T14:21:36.019Z</time></trkpt><trkpt lat="45.903876649511346" lon="10.832480981035557"><ele>214.0</ele><time>2026-05-01T14:21:37.014Z</time></trkpt><trkpt lat="45.90386825201802" lon="10.832180275277596"><ele>214.0</ele><time>2026-05-01T14:21:38.019Z</time></trkpt><trkpt lat="45.90260950329499" lon="10.829850714920557"><ele>214.0</ele><time>2026-05-01T14:21:42.761Z</time></trkpt><trkpt lat="45.902175233062415" lon="10.829687865737835"><ele>214.0</ele><time>2026-05-01T14:21:43.761Z</time></trkpt><trkpt lat="45.901733837771566" lon="10.829563160306344"><ele>214.0</ele><time>2026-05-01T14:21:44.762Z</time></trkpt><trkpt lat="45.901292305530376" lon="10.829439824755697"><ele>408.0</ele><time>2026-05-01T14:21:45.762Z</time></trkpt><trkpt lat="45.90085278678118" lon="10.82931793595011"><ele>602.0</ele><time>2026-05-01T14:21:46.757Z</time></trkpt><trkpt lat="45.900409013177274" lon="10.829194662002914"><ele>532.0</ele><time>2026-05-01T14:21:47.762Z</time></trkpt><trkpt lat="45.89979074885918" lon="10.829023938272082"><ele>488.0</ele><time>2026-05-01T14:21:48.761Z</time></trkpt><trkpt lat="45.89917331410798" lon="10.828853375278225"><ele>488.0</ele><time>2026-05-01T14:21:49.76Z</time></trkpt><trkpt lat="45.89854578885038" lon="10.828801969924731"><ele>448.0</ele><time>2026-05-01T14:21:50.761Z</time></trkpt><trkpt lat="45.8979343290676" lon="10.829002048148958"><ele>448.0</ele><time>2026-05-01T14:21:51.76Z</time></trkpt><trkpt lat="45.8976545" lon="10.8291932"><ele>448.0</ele><time>2026-05-01T14:21:52.761Z</time></trkpt><trkpt lat="45.86522400849113" lon="10.817873328934253"><ele>445.2</ele><time>2026-05-01T14:25:15.002Z</time></trkpt><trkpt lat="45.86517409371191" lon="10.81773138797976"><ele>442.4</ele><time>2026-05-01T14:25:16.002Z</time></trkpt><trkpt lat="45.86510740156197" lon="10.817605060719663"><ele>439.59999999999997</ele><time>2026-05-01T14:25:17.002Z</time></trkpt><trkpt lat="45.865074317288645" lon="10.817472010169158"><ele>436.79999999999995</ele><time>2026-05-01T14:25:18.002Z</time></trkpt><trkpt lat="45.865032406364044" lon="10.817350942328979"><ele>434.0</ele><time>2026-05-01T14:25:19.002Z</time></trkpt><trkpt lat="45.864991414873074" lon="10.817246159349239"><ele>433.99999999999994</ele><time>2026-05-01T14:25:20.002Z</time></trkpt><trkpt lat="45.86495698058705" lon="10.817158641609632"><ele>434.0</ele><time>2026-05-01T14:25:21.003Z</time></trkpt><trkpt lat="45.864925540189724" lon="10.817073099838657"><ele>434.0</ele><time>2026-05-01T14:25:22.003Z</time></trkpt><trkpt lat="45.864880344550286" lon="10.816951937415524"><ele>434.0</ele><time>2026-05-01T14:25:24.003Z</time></trkpt><trkpt lat="45.86483544335705" lon="10.816877665082034"><ele>433.99999999999994</ele><time>2026-05-01T14:26:10.001Z</time></trkpt><trkpt lat="45.864803731896494" lon="10.816795622211497"><ele>434.0</ele><time>2026-05-01T14:26:12.001Z</time></trkpt><trkpt lat="45.86475534981468" lon="10.816638373531026"><ele>433.99999999999994</ele><time>2026-05-01T14:26:14.001Z</time></trkpt><trkpt lat="45.86472195399605" lon="10.81654758660154"><ele>434.0</ele><time>2026-05-01T14:26:15.001Z</time></trkpt><trkpt lat="45.86468124120867" lon="10.81645082030018"><ele>434.0</ele><time>2026-05-01T14:26:16.001Z</time></trkpt><trkpt lat="45.864639705514136" lon="10.816342946176032"><ele>434.0</ele><time>2026-05-01T14:26:17.001Z</time></trkpt><trkpt lat="45.864600962050034" lon="10.816223914277852"><ele>433.99999999999994</ele><time>2026-05-01T14:26:18.001Z</time></trkpt><trkpt lat="45.86455966844977" lon="10.816100632486888"><ele>434.0</ele><time>2026-05-01T14:26:19.001Z</time></trkpt><trkpt lat="45.86452455930899" lon="10.815983504815309"><ele>434.0</ele><time>2026-05-01T14:26:20.001Z</time></trkpt><trkpt lat="45.86449666504528" lon="10.815862392231546"><ele>434.0</ele><time>2026-05-01T14:26:21.001Z</time></trkpt><trkpt lat="45.8644769244173" lon="10.815715549133593"><ele>434.0</ele><time>2026-05-01T14:26:22.001Z</time></trkpt><trkpt lat="45.86447977819433" lon="10.815559297091232"><ele>434.0</ele><time>2026-05-01T14:26:23.001Z</time></trkpt><trkpt lat="45.86451759655577" lon="10.815397695102945"><ele>434.0</ele><time>2026-05-01T14:26:24.001Z</time></trkpt><trkpt lat="45.864575894025926" lon="10.815245243664982"><ele>426.5</ele><time>2026-05-01T14:26:25.001Z</time></trkpt><trkpt lat="45.86462407337867" lon="10.815087121997463"><ele>419.0</ele><time>2026-05-01T14:26:26.001Z</time></trkpt><trkpt lat="45.864657905605" lon="10.814924582602675"><ele>411.5</ele><time>2026-05-01T14:26:27.001Z</time></trkpt><trkpt lat="45.86468094219263" lon="10.814740486274276"><ele>404.0</ele><time>2026-05-01T14:26:28.001Z</time></trkpt><trkpt lat="45.86468687003482" lon="10.81455776737054"><ele>404.0</ele><time>2026-05-01T14:26:29.001Z</time></trkpt><trkpt lat="45.864682576738694" lon="10.814365572467539"><ele>404.0</ele><time>2026-05-01T14:26:30.001Z</time></trkpt><trkpt lat="45.8646554409882" lon="10.814172196038024"><ele>404.0</ele><time>2026-05-01T14:26:31.001Z</time></trkpt><trkpt lat="45.86461024916786" lon="10.813984610940114"><ele>404.0</ele><time>2026-05-01T14:26:32.001Z</time></trkpt><trkpt lat="45.86458371293366" lon="10.813790980161595"><ele>404.0</ele><time>2026-05-01T14:26:33.001Z</time></trkpt><trkpt lat="45.864552222661644" lon="10.81360281222884"><ele>404.0</ele><time>2026-05-01T14:26:34.001Z</time></trkpt><trkpt lat="45.8645225820144" lon="10.813421400974045"><ele>404.0</ele><time>2026-05-01T14:26:35.001Z</time></trkpt><trkpt lat="45.864491416802935" lon="10.813248598524316"><ele>404.0</ele><time>2026-05-01T14:26:36.001Z</time></trkpt><trkpt lat="45.86446704796547" lon="10.813097093024442"><ele>406.5</ele><time>2026-05-01T14:26:37.001Z</time></trkpt><trkpt lat="45.86445116386971" lon="10.812959176794362"><ele>409.0</ele><time>2026-05-01T14:26:38.001Z</time></trkpt><trkpt lat="45.86445606211753" lon="10.81280599777199"><ele>411.5</ele><time>2026-05-01T14:26:39.001Z</time></trkpt><trkpt lat="45.86447689374003" lon="10.812633426176962"><ele>414.0</ele><time>2026-05-01T14:26:40.001Z</time></trkpt><trkpt lat="45.86450817566978" lon="10.812445146576453"><ele>416.33333333333337</ele><time>2026-05-01T14:26:41.001Z</time></trkpt><trkpt lat="45.86453916439202" lon="10.812242445083683"><ele>418.6666666666667</ele><time>2026-05-01T14:26:42.001Z</time></trkpt><trkpt lat="45.864571331414055" lon="10.81202901075135"><ele>421.0</ele><time>2026-05-01T14:26:43.001Z</time></trkpt><trkpt lat="45.864600224769774" lon="10.81181332709127"><ele>421.0</ele><time>2026-05-01T14:26:44.001Z</time></trkpt><trkpt lat="45.8646291427715" lon="10.81159358723058"><ele>421.0</ele><time>2026-05-01T14:26:45.001Z</time></trkpt><trkpt lat="45.864605132945" lon="10.811367778360628"><ele>421.0</ele><time>2026-05-01T14:26:46.001Z</time></trkpt><trkpt lat="45.8645678193135" lon="10.811146261401628"><ele>421.0</ele><time>2026-05-01T14:26:47.001Z</time></trkpt><trkpt lat="45.864533401230375" lon="10.810916752344886"><ele>421.0</ele><time>2026-05-01T14:26:48.001Z</time></trkpt><trkpt lat="45.864514598618136" lon="10.810714323995303"><ele>421.0</ele><time>2026-05-01T14:26:49.001Z</time></trkpt><trkpt lat="45.86450638795735" lon="10.810499683196115"><ele>421.0</ele><time>2026-05-01T14:26:50.001Z</time></trkpt><trkpt lat="45.864519245291824" lon="10.810282387983165"><ele>421.0</ele><time>2026-05-01T14:26:51.001Z</time></trkpt><trkpt lat="45.864554909503894" lon="10.810072771026599"><ele>421.0</ele><time>2026-05-01T14:26:52.001Z</time></trkpt><trkpt lat="45.86459250775904" lon="10.809884780206017"><ele>421.0</ele><time>2026-05-01T14:26:53.001Z</time></trkpt><trkpt lat="45.86465514093788" lon="10.809682373388213"><ele>421.0</ele><time>2026-05-01T14:26:54.001Z</time></trkpt><trkpt lat="45.86474838071351" lon="10.809440538678286"><ele>421.0</ele><time>2026-05-01T14:26:55.001Z</time></trkpt><trkpt lat="45.86482336314862" lon="10.809165728240886"><ele>421.0</ele><time>2026-05-01T14:26:56.001Z</time></trkpt><trkpt lat="45.86487336872394" lon="10.808886152764043"><ele>421.0</ele><time>2026-05-01T14:26:57.001Z</time></trkpt><trkpt lat="45.864913311646845" lon="10.80864762540849"><ele>421.0</ele><time>2026-05-01T14:26:58.001Z</time></trkpt><trkpt lat="45.86495415525474" lon="10.808444278864748"><ele>421.0</ele><time>2026-05-01T14:26:59.001Z</time></trkpt><trkpt lat="45.865031351465035" lon="10.808264583421918"><ele>421.0</ele><time>2026-05-01T14:27:00.001Z</time></trkpt><trkpt lat="45.86509498116902" lon="10.80805582529928"><ele>421.0</ele><time>2026-05-01T14:27:01.001Z</time></trkpt><trkpt lat="45.865159810763835" lon="10.807851868896165"><ele>421.0</ele><time>2026-05-01T14:27:02.001Z</time></trkpt><trkpt lat="45.86518603397455" lon="10.807629417509327"><ele>421.0</ele><time>2026-05-01T14:27:03.001Z</time></trkpt><trkpt lat="45.865181369365914" lon="10.807389204622693"><ele>421.0</ele><time>2026-05-01T14:27:04.001Z</time></trkpt><trkpt lat="45.865153209817265" lon="10.80712156696262"><ele>421.0</ele><time>2026-05-01T14:27:05.001Z</time></trkpt><trkpt lat="45.86515280542157" lon="10.80684973921705"><ele>421.0</ele><time>2026-05-01T14:27:06.001Z</time></trkpt><trkpt lat="45.86513819609307" lon="10.806566477292966"><ele>421.0</ele><time>2026-05-01T14:27:07.001Z</time></trkpt><trkpt lat="45.8651156545756" lon="10.806308773477294"><ele>421.0</ele><time>2026-05-01T14:27:08.001Z</time></trkpt><trkpt lat="45.86509966474488" lon="10.80608279287465"><ele>421.0</ele><time>2026-05-01T14:27:09.001Z</time></trkpt><trkpt lat="45.86510796442393" lon="10.805875350328702"><ele>421.0</ele><time>2026-05-01T14:27:10.001Z</time></trkpt><trkpt lat="45.865091672484745" lon="10.805674178095414"><ele>421.0</ele><time>2026-05-01T14:27:11.001Z</time></trkpt><trkpt lat="45.86508334631033" lon="10.805464833519618"><ele>421.0</ele><time>2026-05-01T14:27:12.001Z</time></trkpt><trkpt lat="45.86505574302964" lon="10.805257835318157"><ele>421.0</ele><time>2026-05-01T14:27:13.001Z</time></trkpt><trkpt lat="45.8650028374062" lon="10.80508256145358"><ele>421.0</ele><time>2026-05-01T14:27:14.001Z</time></trkpt><trkpt lat="45.86496546626489" lon="10.804927124048358"><ele>421.0</ele><time>2026-05-01T14:27:15.001Z</time></trkpt><trkpt lat="45.86494985461515" lon="10.804754615789852"><ele>421.0</ele><time>2026-05-01T14:27:16.001Z</time></trkpt><trkpt lat="45.86495494934929" lon="10.804572314551228"><ele>421.0</ele><time>2026-05-01T14:27:17.001Z</time></trkpt><trkpt lat="45.86495916425005" lon="10.804371663801348"><ele>421.0</ele><time>2026-05-01T14:27:18.001Z</time></trkpt><trkpt lat="45.864957924917285" lon="10.804186349457893"><ele>421.0</ele><time>2026-05-01T14:27:19.001Z</time></trkpt><trkpt lat="45.864952390520074" lon="10.804017972407776"><ele>421.0</ele><time>2026-05-01T14:27:20.001Z</time></trkpt><trkpt lat="45.86496126854601" lon="10.803879479135386"><ele>421.0</ele><time>2026-05-01T14:27:21.001Z</time></trkpt><trkpt lat="45.8649928656037" lon="10.80374193312553"><ele>421.0</ele><time>2026-05-01T14:27:22.001Z</time></trkpt><trkpt lat="45.865058178300096" lon="10.80358767338391"><ele>421.0</ele><time>2026-05-01T14:27:23.001Z</time></trkpt><trkpt lat="45.86512760418652" lon="10.80339971755409"><ele>421.0</ele><time>2026-05-01T14:27:24.001Z</time></trkpt><trkpt lat="45.865195309022695" lon="10.80319553302851"><ele>421.0</ele><time>2026-05-01T14:27:25.001Z</time></trkpt><trkpt lat="45.865271320605956" lon="10.802972493456444"><ele>421.0</ele><time>2026-05-01T14:27:26.001Z</time></trkpt><trkpt lat="45.86534955124503" lon="10.802776336792002"><ele>421.0</ele><time>2026-05-01T14:27:27.001Z</time></trkpt><trkpt lat="45.86542185070671" lon="10.802629683945215"><ele>421.00000000000006</ele><time>2026-05-01T14:27:28.001Z</time></trkpt><trkpt lat="45.865469299835446" lon="10.802508791614681"><ele>421.0</ele><time>2026-05-01T14:27:29.001Z</time></trkpt><trkpt lat="45.86551251124971" lon="10.802413839547741"><ele>421.0</ele><time>2026-05-01T14:27:30.001Z</time></trkpt><trkpt lat="45.86554276075778" lon="10.802320579737168"><ele>421.0</ele><time>2026-05-01T14:27:31.001Z</time></trkpt><trkpt lat="45.86557949200766" lon="10.802233612954696"><ele>421.00000000000006</ele><time>2026-05-01T14:27:32.001Z</time></trkpt><trkpt lat="45.865612423489324" lon="10.802138341105342"><ele>421.0</ele><time>2026-05-01T14:27:33.001Z</time></trkpt><trkpt lat="45.86563947360095" lon="10.802031430072324"><ele>421.0</ele><time>2026-05-01T14:27:34.001Z</time></trkpt><trkpt lat="45.865639630120214" lon="10.801907692841048"><ele>421.0</ele><time>2026-05-01T14:27:35.001Z</time></trkpt><trkpt lat="45.86562620618764" lon="10.801781865009795"><ele>421.0</ele><time>2026-05-01T14:27:36.001Z</time></trkpt><trkpt lat="45.86560814948332" lon="10.801648440695852"><ele>421.0</ele><time>2026-05-01T14:27:37.001Z</time></trkpt><trkpt lat="45.86559789574694" lon="10.80152011341181"><ele>421.0</ele><time>2026-05-01T14:27:38.001Z</time></trkpt><trkpt lat="45.865597047637834" lon="10.801380434497993"><ele>435.20000000000005</ele><time>2026-05-01T14:27:39.001Z</time></trkpt><trkpt lat="45.86559979873146" lon="10.80123666640644"><ele>449.40000000000003</ele><time>2026-05-01T14:27:40.001Z</time></trkpt><trkpt lat="45.865601532263845" lon="10.801090861501693"><ele>463.6</ele><time>2026-05-01T14:27:41.001Z</time></trkpt><trkpt lat="45.865607591327496" lon="10.80094189163301"><ele>477.8</ele><time>2026-05-01T14:27:42.001Z</time></trkpt><trkpt lat="45.865627092773714" lon="10.8007872549668"><ele>492.0</ele><time>2026-05-01T14:27:43.001Z</time></trkpt><trkpt lat="45.86564297375899" lon="10.800620514621263"><ele>492.0</ele><time>2026-05-01T14:27:44.001Z</time></trkpt><trkpt lat="45.865658061890834" lon="10.800452208572597"><ele>492.0</ele><time>2026-05-01T14:27:45.001Z</time></trkpt><trkpt lat="45.865667719819186" lon="10.800286389373563"><ele>492.0</ele><time>2026-05-01T14:27:46.001Z</time></trkpt><trkpt lat="45.86566668584097" lon="10.800105078346935"><ele>492.0</ele><time>2026-05-01T14:27:47.001Z</time></trkpt><trkpt lat="45.8656524170606" lon="10.799926437841629"><ele>494.0</ele><time>2026-05-01T14:27:48.001Z</time></trkpt><trkpt lat="45.86563270315062" lon="10.79973039391073"><ele>496.0</ele><time>2026-05-01T14:27:49.001Z</time></trkpt><trkpt lat="45.865624788774305" lon="10.799505383389295"><ele>498.0</ele><time>2026-05-01T14:27:50.001Z</time></trkpt><trkpt lat="45.86561981360135" lon="10.7992629362483"><ele>498.0</ele><time>2026-05-01T14:27:51.001Z</time></trkpt><trkpt lat="45.865619745099" lon="10.7990130795911"><ele>498.0</ele><time>2026-05-01T14:27:52.001Z</time></trkpt><trkpt lat="45.865638072865416" lon="10.798767514284483"><ele>498.0</ele><time>2026-05-01T14:27:53.001Z</time></trkpt><trkpt lat="45.865672651066966" lon="10.798524004142156"><ele>502.66666666666663</ele><time>2026-05-01T14:27:54.001Z</time></trkpt><trkpt lat="45.865717858851035" lon="10.79828349772907"><ele>507.3333333333333</ele><time>2026-05-01T14:27:55.001Z</time></trkpt><trkpt lat="45.86575930848279" lon="10.798048093988713"><ele>512.0</ele><time>2026-05-01T14:27:56.001Z</time></trkpt><trkpt lat="45.86580032009465" lon="10.797814030560302"><ele>512.3333333333333</ele><time>2026-05-01T14:27:57.001Z</time></trkpt><trkpt lat="45.865837918338364" lon="10.797584019752518"><ele>512.6666666666666</ele><time>2026-05-01T14:27:58.001Z</time></trkpt><trkpt lat="45.86586798672647" lon="10.797346082174645"><ele>513.0</ele><time>2026-05-01T14:27:59.001Z</time></trkpt><trkpt lat="45.86591664125225" lon="10.797121025148881"><ele>514.75</ele><time>2026-05-01T14:28:00.001Z</time></trkpt><trkpt lat="45.865977722752255" lon="10.79692744504187"><ele>516.5</ele><time>2026-05-01T14:28:01.001Z</time></trkpt><trkpt lat="45.866029924373315" lon="10.796745004788121"><ele>518.25</ele><time>2026-05-01T14:28:02.001Z</time></trkpt><trkpt lat="45.86603625942344" lon="10.796537689779706"><ele>520.0</ele><time>2026-05-01T14:28:03Z</time></trkpt><trkpt lat="45.86600351534143" lon="10.796330351050361"><ele>516.2</ele><time>2026-05-01T14:28:04Z</time></trkpt><trkpt lat="45.865946703422885" lon="10.796150373702838"><ele>512.4</ele><time>2026-05-01T14:28:05Z</time></trkpt><trkpt lat="45.86587944794212" lon="10.796021393853376"><ele>508.6</ele><time>2026-05-01T14:28:06Z</time></trkpt><trkpt lat="45.86583271734761" lon="10.795915260113858"><ele>504.8</ele><time>2026-05-01T14:28:07Z</time></trkpt><trkpt lat="45.86582383261863" lon="10.795801072395001"><ele>501.0</ele><time>2026-05-01T14:28:08Z</time></trkpt><trkpt lat="45.865865925953145" lon="10.795703880943394"><ele>501.0</ele><time>2026-05-01T14:28:09Z</time></trkpt><trkpt lat="45.86595964749278" lon="10.79568227276032"><ele>501.0</ele><time>2026-05-01T14:28:10Z</time></trkpt><trkpt lat="45.86604315113604" lon="10.795745868214683"><ele>501.0</ele><time>2026-05-01T14:28:11Z</time></trkpt><trkpt lat="45.8660770009867" lon="10.79592625610306"><ele>501.0</ele><time>2026-05-01T14:28:12Z</time></trkpt><trkpt lat="45.86615921725843" lon="10.79612737780513"><ele>501.0</ele><time>2026-05-01T14:28:13Z</time></trkpt><trkpt lat="45.866221929777744" lon="10.796352277192929"><ele>501.0</ele><time>2026-05-01T14:28:14Z</time></trkpt><trkpt lat="45.86627342511889" lon="10.796536433062114"><ele>501.0</ele><time>2026-05-01T14:28:15Z</time></trkpt><trkpt lat="45.86628754768311" lon="10.796667652281231"><ele>501.0</ele><time>2026-05-01T14:28:16Z</time></trkpt><trkpt lat="45.86633503627189" lon="10.796737753454371"><ele>501.0</ele><time>2026-05-01T14:28:17Z</time></trkpt><trkpt lat="45.86640685190971" lon="10.79675242030817"><ele>501.0</ele><time>2026-05-01T14:28:18Z</time></trkpt><trkpt lat="45.866477276035994" lon="10.796637422521673"><ele>501.0</ele><time>2026-05-01T14:28:19Z</time></trkpt><trkpt lat="45.8664857559237" lon="10.796489672461474"><ele>501.0</ele><time>2026-05-01T14:28:20Z</time></trkpt><trkpt lat="45.86645385234944" lon="10.796302404622235"><ele>501.0</ele><time>2026-05-01T14:28:21Z</time></trkpt><trkpt lat="45.86639532282252" lon="10.796061330398793"><ele>502.0</ele><time>2026-05-01T14:28:22Z</time></trkpt><trkpt lat="45.86634510530717" lon="10.795791975920514"><ele>503.0</ele><time>2026-05-01T14:28:23Z</time></trkpt><trkpt lat="45.86629569032637" lon="10.79550828223067"><ele>504.0</ele><time>2026-05-01T14:28:24Z</time></trkpt><trkpt lat="45.86625276995376" lon="10.79526715719475"><ele>501.25</ele><time>2026-05-01T14:28:25Z</time></trkpt><trkpt lat="45.86622769690421" lon="10.79504974444337"><ele>498.5</ele><time>2026-05-01T14:28:26Z</time></trkpt><trkpt lat="45.86621254894059" lon="10.794850546230736"><ele>495.75</ele><time>2026-05-01T14:28:27Z</time></trkpt><trkpt lat="45.86621225634529" lon="10.79467291523677"><ele>493.0</ele><time>2026-05-01T14:28:28Z</time></trkpt><trkpt lat="45.86625250588463" lon="10.79449268034571"><ele>492.6666666666667</ele><time>2026-05-01T14:28:29Z</time></trkpt><trkpt lat="45.86633411379633" lon="10.79429066352151"><ele>492.33333333333337</ele><time>2026-05-01T14:28:30Z</time></trkpt><trkpt lat="45.866429477252346" lon="10.794074826500532"><ele>492.0</ele><time>2026-05-01T14:28:31Z</time></trkpt><trkpt lat="45.86651494052255" lon="10.793893386567007"><ele>492.0</ele><time>2026-05-01T14:28:32Z</time></trkpt><trkpt lat="45.86658645624057" lon="10.793741753764426"><ele>492.00000000000006</ele><time>2026-05-01T14:28:33Z</time></trkpt><trkpt lat="45.86664327647166" lon="10.793598014943818"><ele>492.00000000000006</ele><time>2026-05-01T14:28:34Z</time></trkpt><trkpt lat="45.86669062903405" lon="10.793467680948982"><ele>492.0</ele><time>2026-05-01T14:28:35Z</time></trkpt><trkpt lat="45.866737059613776" lon="10.793343040949946"><ele>492.0</ele><time>2026-05-01T14:28:36Z</time></trkpt><trkpt lat="45.866777929727355" lon="10.793219374218895"><ele>497.0</ele><time>2026-05-01T14:28:37Z</time></trkpt><trkpt lat="45.86681116597096" lon="10.793093199512109"><ele>502.00000000000006</ele><time>2026-05-01T14:28:38Z</time></trkpt><trkpt lat="45.86684614805758" lon="10.792971584758238"><ele>507.00000000000006</ele><time>2026-05-01T14:28:39Z</time></trkpt><trkpt lat="45.86690125457617" lon="10.79286404658876"><ele>512.0</ele><time>2026-05-01T14:28:40Z</time></trkpt><trkpt lat="45.86698928525111" lon="10.7927548084236"><ele>517.0</ele><time>2026-05-01T14:28:41Z</time></trkpt><trkpt lat="45.86710182123523" lon="10.79263887343062"><ele>517.25</ele><time>2026-05-01T14:28:42Z</time></trkpt><trkpt lat="45.867200503122326" lon="10.792512217908968"><ele>517.5</ele><time>2026-05-01T14:28:43Z</time></trkpt><trkpt lat="45.867274861037316" lon="10.792371184743715"><ele>517.75</ele><time>2026-05-01T14:28:44Z</time></trkpt><trkpt lat="45.86731796536338" lon="10.792222359259432"><ele>518.0</ele><time>2026-05-01T14:28:45Z</time></trkpt><trkpt lat="45.86735071108852" lon="10.79206808243584"><ele>518.0</ele><time>2026-05-01T14:28:46Z</time></trkpt><trkpt lat="45.867372677386854" lon="10.7918942177506"><ele>518.0</ele><time>2026-05-01T14:28:47Z</time></trkpt><trkpt lat="45.867386810980314" lon="10.791720706323812"><ele>518.0</ele><time>2026-05-01T14:28:48Z</time></trkpt><trkpt lat="45.867388918093205" lon="10.79154984071148"><ele>518.0</ele><time>2026-05-01T14:28:49Z</time></trkpt><trkpt lat="45.86737493706206" lon="10.791383828109549"><ele>516.1999999999999</ele><time>2026-05-01T14:28:50Z</time></trkpt><trkpt lat="45.86733908635525" lon="10.79125221419348"><ele>514.4</ele><time>2026-05-01T14:28:51Z</time></trkpt><trkpt lat="45.86728516458756" lon="10.791132170933636"><ele>512.5999999999999</ele><time>2026-05-01T14:28:52Z</time></trkpt><trkpt lat="45.86723004414598" lon="10.791018221790686"><ele>510.79999999999995</ele><time>2026-05-01T14:28:53Z</time></trkpt><trkpt lat="45.86717231019182" lon="10.790901827872563"><ele>509.0</ele><time>2026-05-01T14:28:54Z</time></trkpt><trkpt lat="45.867119438942765" lon="10.790785011077809"><ele>508.99999999999994</ele><time>2026-05-01T14:28:55Z</time></trkpt><trkpt lat="45.867065297388876" lon="10.790683089117886"><ele>509.0</ele><time>2026-05-01T14:28:56Z</time></trkpt><trkpt lat="45.86702891777097" lon="10.790606375413988"><ele>509.0</ele><time>2026-05-01T14:28:57Z</time></trkpt><trkpt lat="45.86703781400355" lon="10.790513093883778"><ele>509.0</ele><time>2026-05-01T14:28:58Z</time></trkpt><trkpt lat="45.86710179590007" lon="10.790427442173366"><ele>508.99999999999994</ele><time>2026-05-01T14:28:59Z</time></trkpt><trkpt lat="45.86719506243392" lon="10.790394325859959"><ele>509.0</ele><time>2026-05-01T14:29:00Z</time></trkpt><trkpt lat="45.867318300438896" lon="10.79042316222888"><ele>523.3333333333333</ele><time>2026-05-01T14:29:01Z</time></trkpt><trkpt lat="45.86746176596362" lon="10.79051647416007"><ele>537.6666666666666</ele><time>2026-05-01T14:29:02Z</time></trkpt><trkpt lat="45.867628783610876" lon="10.790576709663577"><ele>552.0</ele><time>2026-05-01T14:29:03Z</time></trkpt><trkpt lat="45.86777505497604" lon="10.790667668960717"><ele>552.0</ele><time>2026-05-01T14:29:04Z</time></trkpt><trkpt lat="45.86790333216482" lon="10.79077115165709"><ele>552.0</ele><time>2026-05-01T14:29:05Z</time></trkpt><trkpt lat="45.867982679372375" lon="10.79088324218224"><ele>552.0</ele><time>2026-05-01T14:29:06Z</time></trkpt><trkpt lat="45.86802969991712" lon="10.791033525865457"><ele>552.0</ele><time>2026-05-01T14:29:07Z</time></trkpt><trkpt lat="45.86798784036032" lon="10.79121292809805"><ele>551.8000000000001</ele><time>2026-05-01T14:29:08Z</time></trkpt><trkpt lat="45.867957589527144" lon="10.791416537641593"><ele>551.6</ele><time>2026-05-01T14:29:09Z</time></trkpt><trkpt lat="45.867935311889156" lon="10.791585152951555"><ele>551.4000000000001</ele><time>2026-05-01T14:29:10Z</time></trkpt><trkpt lat="45.8679380027037" lon="10.791701662453498"><ele>551.2</ele><time>2026-05-01T14:29:11Z</time></trkpt><trkpt lat="45.86792225414733" lon="10.791793831487517"><ele>551.0</ele><time>2026-05-01T14:29:12Z</time></trkpt><trkpt lat="45.86800707407047" lon="10.791918041984776"><ele>551.0</ele><time>2026-05-01T14:29:14Z</time></trkpt><trkpt lat="45.86808485248138" lon="10.791884730906611"><ele>551.0</ele><time>2026-05-01T14:29:15Z</time></trkpt><trkpt lat="45.86813680510302" lon="10.791783106896835"><ele>551.0</ele><time>2026-05-01T14:29:16Z</time></trkpt><trkpt lat="45.86815446629156" lon="10.79162875159018"><ele>551.0</ele><time>2026-05-01T14:29:17Z</time></trkpt><trkpt lat="45.868150550277804" lon="10.791481817046101"><ele>551.0</ele><time>2026-05-01T14:29:18Z</time></trkpt><trkpt lat="45.868155787320774" lon="10.791344831252953"><ele>551.0</ele><time>2026-05-01T14:29:19Z</time></trkpt><trkpt lat="45.86817846221626" lon="10.791234052671538"><ele>551.0</ele><time>2026-05-01T14:29:20Z</time></trkpt><trkpt lat="45.86821526945194" lon="10.791106401474575"><ele>551.0</ele><time>2026-05-01T14:29:21Z</time></trkpt><trkpt lat="45.86824756923563" lon="10.79097765864864"><ele>551.0</ele><time>2026-05-01T14:29:22Z</time></trkpt><trkpt lat="45.8682785594899" lon="10.79083891643929"><ele>551.0</ele><time>2026-05-01T14:29:23Z</time></trkpt><trkpt lat="45.86831622995296" lon="10.790691473922323"><ele>551.2</ele><time>2026-05-01T14:29:24Z</time></trkpt><trkpt lat="45.86835373384763" lon="10.79055446520153"><ele>551.4000000000001</ele><time>2026-05-01T14:29:25Z</time></trkpt><trkpt lat="45.86839162746207" lon="10.790423379753742"><ele>551.6</ele><time>2026-05-01T14:29:26Z</time></trkpt><trkpt lat="45.868420985360174" lon="10.790288408408546"><ele>551.8000000000001</ele><time>2026-05-01T14:29:27Z</time></trkpt><trkpt lat="45.868439639448574" lon="10.790147021906582"><ele>552.0</ele><time>2026-05-01T14:29:28Z</time></trkpt><trkpt lat="45.86846118893998" lon="10.790000638840448"><ele>559.4</ele><time>2026-05-01T14:29:29Z</time></trkpt><trkpt lat="45.86847176830024" lon="10.789847795597318"><ele>566.8000000000001</ele><time>2026-05-01T14:29:30Z</time></trkpt><trkpt lat="45.868486819585264" lon="10.789693985494306"><ele>574.2</ele><time>2026-05-01T14:29:31Z</time></trkpt><trkpt lat="45.86849720882236" lon="10.789536714224885"><ele>581.6</ele><time>2026-05-01T14:29:32Z</time></trkpt><trkpt lat="45.868509724451386" lon="10.789363223450486"><ele>589.0</ele><time>2026-05-01T14:29:33Z</time></trkpt><trkpt lat="45.868531545165446" lon="10.78917843777982"><ele>589.0</ele><time>2026-05-01T14:29:34Z</time></trkpt><trkpt lat="45.8685711282402" lon="10.7889819405306"><ele>589.0</ele><time>2026-05-01T14:29:35Z</time></trkpt><trkpt lat="45.86862133651304" lon="10.788786060302964"><ele>589.0</ele><time>2026-05-01T14:29:36Z</time></trkpt><trkpt lat="45.86866774454749" lon="10.788584768009228"><ele>589.0</ele><time>2026-05-01T14:29:37Z</time></trkpt><trkpt lat="45.86870842986478" lon="10.788379962743743"><ele>591.0</ele><time>2026-05-01T14:29:38Z</time></trkpt><trkpt lat="45.86874377801158" lon="10.788171144591013"><ele>593.0</ele><time>2026-05-01T14:29:39Z</time></trkpt><trkpt lat="45.86878531926025" lon="10.78797069698544"><ele>595.0</ele><time>2026-05-01T14:29:40Z</time></trkpt><trkpt lat="45.86884106999895" lon="10.787770389550218"><ele>597.0</ele><time>2026-05-01T14:29:41Z</time></trkpt><trkpt lat="45.86890800282579" lon="10.787574752802604"><ele>597.5</ele><time>2026-05-01T14:29:42Z</time></trkpt><trkpt lat="45.868978357740694" lon="10.787393033900473"><ele>598.0</ele><time>2026-05-01T14:29:43Z</time></trkpt><trkpt lat="45.86904015831698" lon="10.787207125160192"><ele>598.5</ele><time>2026-05-01T14:29:44Z</time></trkpt><trkpt lat="45.869100353577394" lon="10.787024563842062"><ele>599.0</ele><time>2026-05-01T14:29:45Z</time></trkpt><trkpt lat="45.86915890539889" lon="10.786847644329356"><ele>593.5</ele><time>2026-05-01T14:29:46Z</time></trkpt><trkpt lat="45.86920668111006" lon="10.786688868896215"><ele>588.0</ele><time>2026-05-01T14:29:47Z</time></trkpt><trkpt lat="45.869244415148664" lon="10.786492996862341"><ele>582.5</ele><time>2026-05-01T14:29:48Z</time></trkpt><trkpt lat="45.869264713875495" lon="10.78628926636843"><ele>577.0</ele><time>2026-05-01T14:29:49Z</time></trkpt><trkpt lat="45.86927547899319" lon="10.786086206689735"><ele>584.0</ele><time>2026-05-01T14:29:50Z</time></trkpt><trkpt lat="45.8693043554143" lon="10.785882569776032"><ele>591.0</ele><time>2026-05-01T14:29:51Z</time></trkpt><trkpt lat="45.86938411619244" lon="10.785692243976067"><ele>598.0</ele><time>2026-05-01T14:29:52Z</time></trkpt><trkpt lat="45.86943974135325" lon="10.785494199767767"><ele>605.0</ele><time>2026-05-01T14:29:53Z</time></trkpt><trkpt lat="45.86950851922615" lon="10.785313582016121"><ele>602.0</ele><time>2026-05-01T14:29:54Z</time></trkpt><trkpt lat="45.869577644027146" lon="10.785129906238748"><ele>599.0</ele><time>2026-05-01T14:29:55Z</time></trkpt><trkpt lat="45.86964353773906" lon="10.78494374713116"><ele>596.0</ele><time>2026-05-01T14:29:56Z</time></trkpt><trkpt lat="45.869705141399116" lon="10.784762476531558"><ele>593.0</ele><time>2026-05-01T14:29:57Z</time></trkpt><trkpt lat="45.86976584115704" lon="10.784571837339367"><ele>593.0</ele><time>2026-05-01T14:29:58Z</time></trkpt><trkpt lat="45.8698231852348" lon="10.78437576908224"><ele>593.0</ele><time>2026-05-01T14:29:59Z</time></trkpt><trkpt lat="45.869875354605355" lon="10.784180068478289"><ele>593.0</ele><time>2026-05-01T14:30:00Z</time></trkpt><trkpt lat="45.869929314497554" lon="10.783990866302101"><ele>593.0</ele><time>2026-05-01T14:30:01Z</time></trkpt><trkpt lat="45.869983354039654" lon="10.783799263913137"><ele>592.75</ele><time>2026-05-01T14:30:02Z</time></trkpt><trkpt lat="45.87005040799608" lon="10.783612462903589"><ele>592.5</ele><time>2026-05-01T14:30:03Z</time></trkpt><trkpt lat="45.87010982895243" lon="10.78341718992235"><ele>592.25</ele><time>2026-05-01T14:30:04Z</time></trkpt><trkpt lat="45.87016938989354" lon="10.783225712787818"><ele>592.0</ele><time>2026-05-01T14:30:05Z</time></trkpt><trkpt lat="45.87021761695075" lon="10.783028673540224"><ele>592.0</ele><time>2026-05-01T14:30:06Z</time></trkpt><trkpt lat="45.87028130865846" lon="10.782846983942694"><ele>592.0</ele><time>2026-05-01T14:30:07Z</time></trkpt><trkpt lat="45.87034776981473" lon="10.78266852028524"><ele>592.0</ele><time>2026-05-01T14:30:08Z</time></trkpt><trkpt lat="45.87043230083354" lon="10.78250282661251"><ele>592.0</ele><time>2026-05-01T14:30:09Z</time></trkpt><trkpt lat="45.87052810066042" lon="10.78234461898088"><ele>592.0</ele><time>2026-05-01T14:30:10Z</time></trkpt><trkpt lat="45.87061168969149" lon="10.782168727568035"><ele>592.0</ele><time>2026-05-01T14:30:11Z</time></trkpt><trkpt lat="45.870714136435765" lon="10.78200636101531"><ele>592.0</ele><time>2026-05-01T14:30:12Z</time></trkpt><trkpt lat="45.870806172406155" lon="10.781845430000462"><ele>592.0</ele><time>2026-05-01T14:30:13Z</time></trkpt><trkpt lat="45.87088476689813" lon="10.781674652449782"><ele>592.0</ele><time>2026-05-01T14:30:14Z</time></trkpt><trkpt lat="45.87092846116585" lon="10.7814811510498"><ele>592.0</ele><time>2026-05-01T14:30:15Z</time></trkpt><trkpt lat="45.87093602871545" lon="10.781278629462129"><ele>592.0</ele><time>2026-05-01T14:30:16Z</time></trkpt><trkpt lat="45.87093137271165" lon="10.781075408944123"><ele>592.0</ele><time>2026-05-01T14:30:17Z</time></trkpt><trkpt lat="45.870930580204785" lon="10.78089934097135"><ele>598.75</ele><time>2026-05-01T14:30:18Z</time></trkpt><trkpt lat="45.87094331989866" lon="10.780721958432935"><ele>605.5</ele><time>2026-05-01T14:30:19Z</time></trkpt><trkpt lat="45.870964908891885" lon="10.780528258955702"><ele>612.25</ele><time>2026-05-01T14:30:20Z</time></trkpt><trkpt lat="45.871000181830404" lon="10.780326053072327"><ele>619.0</ele><time>2026-05-01T14:30:21Z</time></trkpt><trkpt lat="45.87104661195539" lon="10.780121024599078"><ele>619.0</ele><time>2026-05-01T14:30:22Z</time></trkpt><trkpt lat="45.871094752113684" lon="10.779918921979224"><ele>619.0</ele><time>2026-05-01T14:30:23Z</time></trkpt><trkpt lat="45.871139901002" lon="10.779721237597883"><ele>619.0</ele><time>2026-05-01T14:30:24Z</time></trkpt><trkpt lat="45.87118309876121" lon="10.779524848334027"><ele>619.0</ele><time>2026-05-01T14:30:25Z</time></trkpt><trkpt lat="45.87121594273902" lon="10.779350462295433"><ele>617.75</ele><time>2026-05-01T14:30:26Z</time></trkpt><trkpt lat="45.8712476316552" lon="10.779180830751292"><ele>616.5</ele><time>2026-05-01T14:30:27Z</time></trkpt><trkpt lat="45.87127688217433" lon="10.779006238713153"><ele>615.25</ele><time>2026-05-01T14:30:28Z</time></trkpt><trkpt lat="45.871308519343586" lon="10.778834850097795"><ele>614.0</ele><time>2026-05-01T14:30:29Z</time></trkpt><trkpt lat="45.87134344552584" lon="10.778659145442914"><ele>614.0</ele><time>2026-05-01T14:30:30Z</time></trkpt><trkpt lat="45.871379514168915" lon="10.778486079628545"><ele>614.0</ele><time>2026-05-01T14:30:31Z</time></trkpt><trkpt lat="45.87140744904907" lon="10.778329839168633"><ele>614.0</ele><time>2026-05-01T14:30:32Z</time></trkpt><trkpt lat="45.87143204074712" lon="10.778196767636548"><ele>614.0</ele><time>2026-05-01T14:30:33Z</time></trkpt><trkpt lat="45.87145365861212" lon="10.778078576635632"><ele>614.0</ele><time>2026-05-01T14:30:34Z</time></trkpt><trkpt lat="45.87147631724102" lon="10.777975672393003"><ele>614.0</ele><time>2026-05-01T14:30:35Z</time></trkpt><trkpt lat="45.87151182481852" lon="10.77788381106725"><ele>614.0</ele><time>2026-05-01T14:30:36Z</time></trkpt><trkpt lat="45.8715783078434" lon="10.777822420218913"><ele>614.0</ele><time>2026-05-01T14:30:37Z</time></trkpt><trkpt lat="45.871656831890775" lon="10.777831045446904"><ele>614.0</ele><time>2026-05-01T14:30:38Z</time></trkpt><trkpt lat="45.871712441264236" lon="10.777900655041403"><ele>614.0</ele><time>2026-05-01T14:30:39Z</time></trkpt><trkpt lat="45.87173186031289" lon="10.778015934368772"><ele>614.0</ele><time>2026-05-01T14:30:40Z</time></trkpt><trkpt lat="45.87174694481377" lon="10.778125722925907"><ele>614.0</ele><time>2026-05-01T14:30:41Z</time></trkpt><trkpt lat="45.871718214001696" lon="10.77825662463252"><ele>614.0</ele><time>2026-05-01T14:30:42Z</time></trkpt><trkpt lat="45.87167035954341" lon="10.778370593776291"><ele>614.0</ele><time>2026-05-01T14:30:43Z</time></trkpt><trkpt lat="45.871625428326695" lon="10.778487687560174"><ele>614.0</ele><time>2026-05-01T14:30:44Z</time></trkpt><trkpt lat="45.87159380515652" lon="10.77860759717556"><ele>614.0</ele><time>2026-05-01T14:30:45Z</time></trkpt><trkpt lat="45.87158033308052" lon="10.77873391127478"><ele>614.0</ele><time>2026-05-01T14:30:46Z</time></trkpt><trkpt lat="45.87157377305395" lon="10.778853858286432"><ele>614.0</ele><time>2026-05-01T14:30:47Z</time></trkpt><trkpt lat="45.87156999975267" lon="10.778957705449706"><ele>614.0</ele><time>2026-05-01T14:30:48Z</time></trkpt><trkpt lat="45.87163070510847" lon="10.77911046240333"><ele>614.0</ele><time>2026-05-01T14:30:50Z</time></trkpt><trkpt lat="45.87170462573143" lon="10.779121433529015"><ele>614.0</ele><time>2026-05-01T14:30:51Z</time></trkpt><trkpt lat="45.8717624001623" lon="10.779046196939081"><ele>614.0</ele><time>2026-05-01T14:30:52Z</time></trkpt><trkpt lat="45.87177895853726" lon="10.778929139789785"><ele>617.8571428571428</ele><time>2026-05-01T14:30:53Z</time></trkpt><trkpt lat="45.87179255742727" lon="10.778824224495132"><ele>621.7142857142857</ele><time>2026-05-01T14:30:54Z</time></trkpt><trkpt lat="45.871813892090216" lon="10.778725439243074"><ele>625.5714285714286</ele><time>2026-05-01T14:30:55Z</time></trkpt><trkpt lat="45.87183347725449" lon="10.778629541333448"><ele>629.4285714285713</ele><time>2026-05-01T14:30:56Z</time></trkpt><trkpt lat="45.87185279805733" lon="10.77853401976326"><ele>633.2857142857142</ele><time>2026-05-01T14:30:57Z</time></trkpt><trkpt lat="45.871874590643074" lon="10.77843662828145"><ele>637.1428571428571</ele><time>2026-05-01T14:30:58Z</time></trkpt><trkpt lat="45.87189971001628" lon="10.778348650467642"><ele>641.0</ele><time>2026-05-01T14:30:59Z</time></trkpt><trkpt lat="45.87192720763164" lon="10.77825142486621"><ele>642.1999999999999</ele><time>2026-05-01T14:31:00Z</time></trkpt><trkpt lat="45.87195102405171" lon="10.77814481462935"><ele>643.4</ele><time>2026-05-01T14:31:01Z</time></trkpt><trkpt lat="45.87197336591547" lon="10.778022298917318"><ele>644.6</ele><time>2026-05-01T14:31:02Z</time></trkpt><trkpt lat="45.87199215793647" lon="10.777888232662827"><ele>645.8</ele><time>2026-05-01T14:31:03Z</time></trkpt><trkpt lat="45.87200439636746" lon="10.77774823704626"><ele>647.0</ele><time>2026-05-01T14:31:04Z</time></trkpt><trkpt lat="45.87201062226636" lon="10.777610425919057"><ele>649.6</ele><time>2026-05-01T14:31:05Z</time></trkpt><trkpt lat="45.872020248952204" lon="10.777461278214412"><ele>652.2</ele><time>2026-05-01T14:31:06Z</time></trkpt><trkpt lat="45.87203709266731" lon="10.777312725676046"><ele>654.8</ele><time>2026-05-01T14:31:07Z</time></trkpt><trkpt lat="45.87204853124013" lon="10.77715848636191"><ele>657.4</ele><time>2026-05-01T14:31:08Z</time></trkpt><trkpt lat="45.87204784110854" lon="10.77699483499237"><ele>660.0</ele><time>2026-05-01T14:31:09Z</time></trkpt><trkpt lat="45.872038716861965" lon="10.776831353819446"><ele>661.0</ele><time>2026-05-01T14:31:10Z</time></trkpt><trkpt lat="45.872030616944805" lon="10.776662735800587"><ele>662.0</ele><time>2026-05-01T14:31:11Z</time></trkpt><trkpt lat="45.87202378554561" lon="10.776501312503337"><ele>663.0</ele><time>2026-05-01T14:31:12Z</time></trkpt><trkpt lat="45.87201315771433" lon="10.77634992174994"><ele>664.0</ele><time>2026-05-01T14:31:13Z</time></trkpt><trkpt lat="45.87201145623838" lon="10.77619350688705"><ele>665.0</ele><time>2026-05-01T14:31:14Z</time></trkpt><trkpt lat="45.872016183543" lon="10.776038506816313"><ele>664.5</ele><time>2026-05-01T14:31:15Z</time></trkpt><trkpt lat="45.87201512448279" lon="10.775895063411319"><ele>664.0</ele><time>2026-05-01T14:31:16Z</time></trkpt><trkpt lat="45.872011842210846" lon="10.775776904129474"><ele>663.5</ele><time>2026-05-01T14:31:17Z</time></trkpt><trkpt lat="45.87200456094684" lon="10.775676533425065"><ele>663.0</ele><time>2026-05-01T14:31:18Z</time></trkpt><trkpt lat="45.87199219625307" lon="10.775583094921528"><ele>662.5</ele><time>2026-05-01T14:31:19Z</time></trkpt><trkpt lat="45.871976442362474" lon="10.775477306181761"><ele>662.0</ele><time>2026-05-01T14:31:20Z</time></trkpt><trkpt lat="45.87195591794293" lon="10.775377351478477"><ele>662.0</ele><time>2026-05-01T14:31:21Z</time></trkpt><trkpt lat="45.871922616292885" lon="10.775276511958547"><ele>662.0</ele><time>2026-05-01T14:31:22Z</time></trkpt><trkpt lat="45.871898202399294" lon="10.775178492360347"><ele>662.0</ele><time>2026-05-01T14:31:23Z</time></trkpt><trkpt lat="45.87188410749064" lon="10.775059346124728"><ele>662.0</ele><time>2026-05-01T14:31:24Z</time></trkpt><trkpt lat="45.87184623373077" lon="10.77493631811549"><ele>662.0</ele><time>2026-05-01T14:31:25Z</time></trkpt><trkpt lat="45.871825317707085" lon="10.774805295358483"><ele>662.0</ele><time>2026-05-01T14:31:26Z</time></trkpt><trkpt lat="45.87180373213663" lon="10.774671702669615"><ele>662.0</ele><time>2026-05-01T14:31:27Z</time></trkpt><trkpt lat="45.87177666646138" lon="10.774539566803714"><ele>662.0</ele><time>2026-05-01T14:31:28Z</time></trkpt><trkpt lat="45.87176086982821" lon="10.774406467738148"><ele>662.0</ele><time>2026-05-01T14:31:29Z</time></trkpt><trkpt lat="45.87173382465975" lon="10.774271885903813"><ele>662.0</ele><time>2026-05-01T14:31:30Z</time></trkpt><trkpt lat="45.87170442861955" lon="10.774137730135806"><ele>662.0</ele><time>2026-05-01T14:31:31Z</time></trkpt><trkpt lat="45.87166853579004" lon="10.774012105202905"><ele>662.0</ele><time>2026-05-01T14:31:32Z</time></trkpt><trkpt lat="45.87163599368425" lon="10.773901991963436"><ele>662.0</ele><time>2026-05-01T14:31:33Z</time></trkpt><trkpt lat="45.871605855458014" lon="10.773799333560069"><ele>662.0</ele><time>2026-05-01T14:31:34Z</time></trkpt><trkpt lat="45.871575706148484" lon="10.773701741918577"><ele>662.0</ele><time>2026-05-01T14:31:35Z</time></trkpt><trkpt lat="45.87155197057017" lon="10.773596310861178"><ele>662.0</ele><time>2026-05-01T14:31:36Z</time></trkpt><trkpt lat="45.87153360623002" lon="10.773495232452701"><ele>662.0</ele><time>2026-05-01T14:31:37Z</time></trkpt><trkpt lat="45.87151608730833" lon="10.773394589139782"><ele>662.0</ele><time>2026-05-01T14:31:38Z</time></trkpt><trkpt lat="45.87150802786936" lon="10.773293174506552"><ele>662.0</ele><time>2026-05-01T14:31:39Z</time></trkpt><trkpt lat="45.87152450937251" lon="10.773181432221401"><ele>662.0</ele><time>2026-05-01T14:31:40Z</time></trkpt><trkpt lat="45.87152577823209" lon="10.773068244483145"><ele>662.0</ele><time>2026-05-01T14:31:41Z</time></trkpt><trkpt lat="45.87155200206076" lon="10.772951017988763"><ele>662.0</ele><time>2026-05-01T14:31:42Z</time></trkpt><trkpt lat="45.871589569243085" lon="10.772832151078749"><ele>662.0</ele><time>2026-05-01T14:31:43Z</time></trkpt><trkpt lat="45.87163023513917" lon="10.772704903949965"><ele>662.0</ele><time>2026-05-01T14:31:44Z</time></trkpt><trkpt lat="45.8716727562646" lon="10.77258309654732"><ele>662.0</ele><time>2026-05-01T14:31:45Z</time></trkpt><trkpt lat="45.871712299341574" lon="10.772449494093918"><ele>662.0</ele><time>2026-05-01T14:31:46Z</time></trkpt><trkpt lat="45.87175152360932" lon="10.772312486636423"><ele>662.0</ele><time>2026-05-01T14:31:47Z</time></trkpt><trkpt lat="45.87179550775002" lon="10.772173223372754"><ele>662.0</ele><time>2026-05-01T14:31:48Z</time></trkpt><trkpt lat="45.87184140171493" lon="10.772024970879201"><ele>662.0</ele><time>2026-05-01T14:31:49Z</time></trkpt><trkpt lat="45.87189174635681" lon="10.771858785572311"><ele>662.0</ele><time>2026-05-01T14:31:50Z</time></trkpt><trkpt lat="45.871947697583394" lon="10.771683477496236"><ele>662.0</ele><time>2026-05-01T14:31:51Z</time></trkpt><trkpt lat="45.87199405036478" lon="10.77152352745469"><ele>662.0</ele><time>2026-05-01T14:31:52Z</time></trkpt><trkpt lat="45.87203919318626" lon="10.771370830610074"><ele>662.0</ele><time>2026-05-01T14:31:53Z</time></trkpt><trkpt lat="45.872082831101324" lon="10.77123186870107"><ele>662.0</ele><time>2026-05-01T14:31:54Z</time></trkpt><trkpt lat="45.872127675552946" lon="10.771083746033707"><ele>662.0</ele><time>2026-05-01T14:31:55Z</time></trkpt><trkpt lat="45.87217101737222" lon="10.770926700542944"><ele>662.0</ele><time>2026-05-01T14:31:56Z</time></trkpt><trkpt lat="45.872218115916404" lon="10.770766081726526"><ele>662.0</ele><time>2026-05-01T14:31:57Z</time></trkpt><trkpt lat="45.87226401465216" lon="10.770604331393715"><ele>662.0</ele><time>2026-05-01T14:31:58Z</time></trkpt><trkpt lat="45.87231326672054" lon="10.770431215357377"><ele>662.0</ele><time>2026-05-01T14:31:59Z</time></trkpt><trkpt lat="45.87236512215935" lon="10.770256071888507"><ele>662.0</ele><time>2026-05-01T14:32:00Z</time></trkpt><trkpt lat="45.872409952216245" lon="10.770091630650418"><ele>662.0</ele><time>2026-05-01T14:32:01Z</time></trkpt><trkpt lat="45.87245216894661" lon="10.769941866314637"><ele>662.0</ele><time>2026-05-01T14:32:02Z</time></trkpt><trkpt lat="45.8724936584759" lon="10.76980174476865"><ele>662.0</ele><time>2026-05-01T14:32:03Z</time></trkpt><trkpt lat="45.87253120260537" lon="10.76966580281318"><ele>662.0</ele><time>2026-05-01T14:32:04Z</time></trkpt><trkpt lat="45.872561584438124" lon="10.769542129973331"><ele>662.0</ele><time>2026-05-01T14:32:05Z</time></trkpt><trkpt lat="45.87258924718324" lon="10.769405095851136"><ele>675.75</ele><time>2026-05-01T14:32:06Z</time></trkpt><trkpt lat="45.87261923617759" lon="10.76924921010016"><ele>689.5</ele><time>2026-05-01T14:32:07Z</time></trkpt><trkpt lat="45.87265533194387" lon="10.769086190224014"><ele>703.25</ele><time>2026-05-01T14:32:08Z</time></trkpt><trkpt lat="45.87268637098556" lon="10.768926096622556"><ele>717.0</ele><time>2026-05-01T14:32:09Z</time></trkpt><trkpt lat="45.872725530197656" lon="10.768772924160892"><ele>717.0</ele><time>2026-05-01T14:32:10Z</time></trkpt><trkpt lat="45.87276681835704" lon="10.768612630771734"><ele>717.0</ele><time>2026-05-01T14:32:11Z</time></trkpt><trkpt lat="45.872815754178156" lon="10.768450783154906"><ele>717.0</ele><time>2026-05-01T14:32:12Z</time></trkpt><trkpt lat="45.87288151303964" lon="10.768293239992154"><ele>717.0</ele><time>2026-05-01T14:32:13Z</time></trkpt><trkpt lat="45.87296275698969" lon="10.768138372159171"><ele>717.0</ele><time>2026-05-01T14:32:14Z</time></trkpt><trkpt lat="45.87304108788219" lon="10.76799401691284"><ele>717.0</ele><time>2026-05-01T14:32:15Z</time></trkpt><trkpt lat="45.87311116266283" lon="10.767847535130537"><ele>717.0</ele><time>2026-05-01T14:32:16Z</time></trkpt><trkpt lat="45.873171856356834" lon="10.767717458794253"><ele>717.0</ele><time>2026-05-01T14:32:17Z</time></trkpt><trkpt lat="45.873223978116656" lon="10.767604336368674"><ele>717.0</ele><time>2026-05-01T14:32:18Z</time></trkpt><trkpt lat="45.8732768135195" lon="10.767498797445333"><ele>717.0</ele><time>2026-05-01T14:32:19Z</time></trkpt><trkpt lat="45.873305877593864" lon="10.767392075149266"><ele>717.0</ele><time>2026-05-01T14:32:20Z</time></trkpt><trkpt lat="45.87333349530956" lon="10.767281915194953"><ele>717.0</ele><time>2026-05-01T14:32:21Z</time></trkpt><trkpt lat="45.873370512201575" lon="10.767183470641559"><ele>717.0</ele><time>2026-05-01T14:32:22Z</time></trkpt><trkpt lat="45.87342808543558" lon="10.76708053869033"><ele>717.0</ele><time>2026-05-01T14:32:23Z</time></trkpt><trkpt lat="45.87349016095975" lon="10.766977097324995"><ele>717.0</ele><time>2026-05-01T14:32:24Z</time></trkpt><trkpt lat="45.87355899798349" lon="10.766872172001591"><ele>717.0</ele><time>2026-05-01T14:32:25Z</time></trkpt><trkpt lat="45.87363159695298" lon="10.766770966939617"><ele>717.0</ele><time>2026-05-01T14:32:26Z</time></trkpt><trkpt lat="45.87370915104552" lon="10.766685249720998"><ele>717.0</ele><time>2026-05-01T14:32:27Z</time></trkpt><trkpt lat="45.873799716202136" lon="10.76660952342745"><ele>717.0</ele><time>2026-05-01T14:32:28Z</time></trkpt><trkpt lat="45.873901013704526" lon="10.76653646842567"><ele>717.0</ele><time>2026-05-01T14:32:29Z</time></trkpt><trkpt lat="45.87400454908648" lon="10.766461557752125"><ele>717.0</ele><time>2026-05-01T14:32:30Z</time></trkpt><trkpt lat="45.874104317996895" lon="10.76638623514839"><ele>717.0</ele><time>2026-05-01T14:32:31Z</time></trkpt><trkpt lat="45.87419005511862" lon="10.766317770406362"><ele>717.0</ele><time>2026-05-01T14:32:32Z</time></trkpt><trkpt lat="45.87426375405831" lon="10.766259113301464"><ele>717.0</ele><time>2026-05-01T14:32:33Z</time></trkpt><trkpt lat="45.87433345763405" lon="10.76619889592337"><ele>717.0</ele><time>2026-05-01T14:32:34Z</time></trkpt><trkpt lat="45.87439941022449" lon="10.766145623865976"><ele>717.0</ele><time>2026-05-01T14:32:35Z</time></trkpt><trkpt lat="45.87447667690748" lon="10.766095196704851"><ele>717.0</ele><time>2026-05-01T14:32:36Z</time></trkpt><trkpt lat="45.874567584533814" lon="10.766061169522038"><ele>717.0</ele><time>2026-05-01T14:32:37Z</time></trkpt><trkpt lat="45.87467216937176" lon="10.766049200968105"><ele>717.0</ele><time>2026-05-01T14:32:38Z</time></trkpt><trkpt lat="45.87477799929869" lon="10.766061338219302"><ele>705.5</ele><time>2026-05-01T14:32:39Z</time></trkpt><trkpt lat="45.87488986470736" lon="10.766099314216438"><ele>694.0</ele><time>2026-05-01T14:32:40Z</time></trkpt><trkpt lat="45.874972416036144" lon="10.76618848173956"><ele>682.5</ele><time>2026-05-01T14:32:41Z</time></trkpt><trkpt lat="45.87504473065756" lon="10.766264686000046"><ele>671.0</ele><time>2026-05-01T14:32:42Z</time></trkpt><trkpt lat="45.8750927437146" lon="10.766336755065806"><ele>659.5</ele><time>2026-05-01T14:32:43Z</time></trkpt><trkpt lat="45.87512930138117" lon="10.76641063797404"><ele>648.0</ele><time>2026-05-01T14:32:44Z</time></trkpt><trkpt lat="45.87516556018523" lon="10.766490251599503"><ele>648.0</ele><time>2026-05-01T14:32:45Z</time></trkpt><trkpt lat="45.87519263808848" lon="10.766583165320485"><ele>648.0</ele><time>2026-05-01T14:32:46Z</time></trkpt><trkpt lat="45.87523070651623" lon="10.766735699168555"><ele>648.0</ele><time>2026-05-01T14:32:48Z</time></trkpt><trkpt lat="45.87525823788483" lon="10.766850192704823"><ele>648.0</ele><time>2026-05-01T14:32:50Z</time></trkpt><trkpt lat="45.87529559309885" lon="10.767000776669763"><ele>648.0</ele><time>2026-05-01T14:32:52Z</time></trkpt><trkpt lat="45.87531839480861" lon="10.767093612224771"><ele>648.0</ele><time>2026-05-01T14:32:53Z</time></trkpt><trkpt lat="45.87536301270757" lon="10.767191122804295"><ele>648.0</ele><time>2026-05-01T14:32:54Z</time></trkpt><trkpt lat="45.87539596510081" lon="10.76730912781839"><ele>648.0</ele><time>2026-05-01T14:32:55Z</time></trkpt><trkpt lat="45.875432354331444" lon="10.767433618202645"><ele>648.0</ele><time>2026-05-01T14:32:56Z</time></trkpt><trkpt lat="45.875478935063846" lon="10.767559392411943"><ele>648.0</ele><time>2026-05-01T14:32:57Z</time></trkpt><trkpt lat="45.87553424999377" lon="10.76767178374941"><ele>648.0</ele><time>2026-05-01T14:32:58Z</time></trkpt><trkpt lat="45.875595338996604" lon="10.767761721056404"><ele>648.0</ele><time>2026-05-01T14:32:59Z</time></trkpt><trkpt lat="45.875643953053356" lon="10.767865844896667"><ele>648.0</ele><time>2026-05-01T14:33:00Z</time></trkpt><trkpt lat="45.875706058035306" lon="10.76796462492317"><ele>648.0</ele><time>2026-05-01T14:33:01Z</time></trkpt><trkpt lat="45.87577414762955" lon="10.768072935755102"><ele>648.0</ele><time>2026-05-01T14:33:02Z</time></trkpt><trkpt lat="45.87584484398866" lon="10.768185407230291"><ele>648.0</ele><time>2026-05-01T14:33:03Z</time></trkpt><trkpt lat="45.87592231494352" lon="10.768302644867154"><ele>648.0</ele><time>2026-05-01T14:33:04Z</time></trkpt><trkpt lat="45.876021176336096" lon="10.768392341870797"><ele>648.0</ele><time>2026-05-01T14:33:05Z</time></trkpt><trkpt lat="45.876111836743576" lon="10.768491325821568"><ele>648.0</ele><time>2026-05-01T14:33:06Z</time></trkpt><trkpt lat="45.87619902960018" lon="10.768581400242637"><ele>648.0</ele><time>2026-05-01T14:33:07Z</time></trkpt><trkpt lat="45.87628322939169" lon="10.76866767287474"><ele>648.0</ele><time>2026-05-01T14:33:08Z</time></trkpt><trkpt lat="45.876364770749014" lon="10.76875418368727"><ele>648.0</ele><time>2026-05-01T14:33:09Z</time></trkpt><trkpt lat="45.87645890802158" lon="10.768838482861623"><ele>648.0</ele><time>2026-05-01T14:33:10Z</time></trkpt><trkpt lat="45.876559430883574" lon="10.76889644850788"><ele>648.0</ele><time>2026-05-01T14:33:11Z</time></trkpt><trkpt lat="45.87665827213396" lon="10.768941790161808"><ele>648.0</ele><time>2026-05-01T14:33:12Z</time></trkpt><trkpt lat="45.87675388360177" lon="10.768968142661201"><ele>648.0</ele><time>2026-05-01T14:33:13Z</time></trkpt><trkpt lat="45.87685068893838" lon="10.768979290625872"><ele>648.0</ele><time>2026-05-01T14:33:14Z</time></trkpt><trkpt lat="45.8769607659959" lon="10.768979299610123"><ele>648.0</ele><time>2026-05-01T14:33:15Z</time></trkpt><trkpt lat="45.877065719171036" lon="10.768967818602965"><ele>648.0</ele><time>2026-05-01T14:33:16Z</time></trkpt><trkpt lat="45.87716884370306" lon="10.768941201191517"><ele>648.0</ele><time>2026-05-01T14:33:17Z</time></trkpt><trkpt lat="45.87727093100838" lon="10.768896261118929"><ele>648.0</ele><time>2026-05-01T14:33:18Z</time></trkpt><trkpt lat="45.877363421249214" lon="10.768826397571663"><ele>648.0</ele><time>2026-05-01T14:33:19Z</time></trkpt><trkpt lat="45.877449079556385" lon="10.7687574355373"><ele>648.0</ele><time>2026-05-01T14:33:20Z</time></trkpt><trkpt lat="45.877529750348806" lon="10.76869708079015"><ele>648.0</ele><time>2026-05-01T14:33:21Z</time></trkpt><trkpt lat="45.87760934447323" lon="10.768637909771947"><ele>648.0</ele><time>2026-05-01T14:33:22Z</time></trkpt><trkpt lat="45.877693356925256" lon="10.768576525830586"><ele>648.0</ele><time>2026-05-01T14:33:23Z</time></trkpt><trkpt lat="45.87778268732818" lon="10.76851376068609"><ele>648.0</ele><time>2026-05-01T14:33:24Z</time></trkpt><trkpt lat="45.87786820117154" lon="10.768452727535507"><ele>648.0</ele><time>2026-05-01T14:33:25Z</time></trkpt><trkpt lat="45.877954172494704" lon="10.768394908307988"><ele>648.0</ele><time>2026-05-01T14:33:26Z</time></trkpt><trkpt lat="45.878031477875666" lon="10.768325233442116"><ele>648.0</ele><time>2026-05-01T14:33:27Z</time></trkpt><trkpt lat="45.87810862489702" lon="10.768242211284505"><ele>648.0</ele><time>2026-05-01T14:33:28Z</time></trkpt><trkpt lat="45.878174403999495" lon="10.768119132564097"><ele>648.0</ele><time>2026-05-01T14:33:29Z</time></trkpt><trkpt lat="45.87822963755122" lon="10.767982739017798"><ele>648.0</ele><time>2026-05-01T14:33:30Z</time></trkpt><trkpt lat="45.8782758970475" lon="10.767855100723448"><ele>648.0</ele><time>2026-05-01T14:33:31Z</time></trkpt><trkpt lat="45.878302351528674" lon="10.767743412514548"><ele>648.0</ele><time>2026-05-01T14:33:32Z</time></trkpt><trkpt lat="45.878327744088956" lon="10.767621275724094"><ele>648.0</ele><time>2026-05-01T14:33:33Z</time></trkpt><trkpt lat="45.87835438638879" lon="10.767491966051168"><ele>648.0</ele><time>2026-05-01T14:33:34Z</time></trkpt><trkpt lat="45.87839470961589" lon="10.767363268509376"><ele>648.0</ele><time>2026-05-01T14:33:35Z</time></trkpt><trkpt lat="45.878448167360254" lon="10.767239847693782"><ele>648.0</ele><time>2026-05-01T14:33:36Z</time></trkpt><trkpt lat="45.8785062467338" lon="10.767122764438025"><ele>648.0</ele><time>2026-05-01T14:33:37Z</time></trkpt><trkpt lat="45.87857002364216" lon="10.76701882680662"><ele>648.0</ele><time>2026-05-01T14:33:38Z</time></trkpt><trkpt lat="45.87864122473" lon="10.766914711544501"><ele>648.0</ele><time>2026-05-01T14:33:39Z</time></trkpt><trkpt lat="45.878713108176086" lon="10.76680315863243"><ele>648.0</ele><time>2026-05-01T14:33:40Z</time></trkpt><trkpt lat="45.87877777860476" lon="10.766682145003603"><ele>648.0</ele><time>2026-05-01T14:33:41Z</time></trkpt><trkpt lat="45.87882528184761" lon="10.766565683909116"><ele>648.0</ele><time>2026-05-01T14:33:42Z</time></trkpt><trkpt lat="45.878843395929096" lon="10.766398385068733"><ele>648.0</ele><time>2026-05-01T14:33:43Z</time></trkpt><trkpt lat="45.878850386633914" lon="10.766269149835145"><ele>648.0</ele><time>2026-05-01T14:33:44Z</time></trkpt><trkpt lat="45.87886078424946" lon="10.76613550042077"><ele>648.0</ele><time>2026-05-01T14:33:44.999Z</time></trkpt><trkpt lat="45.87887944151311" lon="10.766005111949008"><ele>648.0</ele><time>2026-05-01T14:33:45.999Z</time></trkpt><trkpt lat="45.87889562883547" lon="10.76585538635857"><ele>648.0</ele><time>2026-05-01T14:33:46.999Z</time></trkpt><trkpt lat="45.878906904254976" lon="10.765701221555487"><ele>648.0</ele><time>2026-05-01T14:33:47.999Z</time></trkpt><trkpt lat="45.878928621846406" lon="10.765547339541016"><ele>648.0</ele><time>2026-05-01T14:33:48.999Z</time></trkpt><trkpt lat="45.878967843527086" lon="10.765402057407503"><ele>648.0</ele><time>2026-05-01T14:33:49.999Z</time></trkpt><trkpt lat="45.87903080037372" lon="10.765266638011974"><ele>648.0</ele><time>2026-05-01T14:33:50.999Z</time></trkpt><trkpt lat="45.87909680864772" lon="10.765129206863453"><ele>648.0</ele><time>2026-05-01T14:33:51.999Z</time></trkpt><trkpt lat="45.87914948952901" lon="10.764987485191265"><ele>659.5999999999999</ele><time>2026-05-01T14:33:53Z</time></trkpt><trkpt lat="45.879171298260395" lon="10.764839892145483"><ele>671.1999999999999</ele><time>2026-05-01T14:33:54Z</time></trkpt><trkpt lat="45.879164237544664" lon="10.764682994749796"><ele>682.8</ele><time>2026-05-01T14:33:55Z</time></trkpt><trkpt lat="45.87911271157133" lon="10.764540546953198"><ele>694.4</ele><time>2026-05-01T14:33:56Z</time></trkpt><trkpt lat="45.87904775746371" lon="10.764421322136304"><ele>706.0</ele><time>2026-05-01T14:33:57Z</time></trkpt><trkpt lat="45.87894704143573" lon="10.764299443241137"><ele>706.0</ele><time>2026-05-01T14:33:58Z</time></trkpt><trkpt lat="45.878801293826044" lon="10.764162843016601"><ele>706.0</ele><time>2026-05-01T14:33:59Z</time></trkpt><trkpt lat="45.87864169790054" lon="10.76403000755771"><ele>706.0</ele><time>2026-05-01T14:34:00Z</time></trkpt><trkpt lat="45.87851336356033" lon="10.763923191879698"><ele>694.4</ele><time>2026-05-01T14:34:01Z</time></trkpt><trkpt lat="45.878406008123484" lon="10.763833837414271"><ele>682.8</ele><time>2026-05-01T14:34:02Z</time></trkpt><trkpt lat="45.87830074557382" lon="10.763771202457038"><ele>671.1999999999999</ele><time>2026-05-01T14:34:03Z</time></trkpt><trkpt lat="45.878220525858666" lon="10.763691223746578"><ele>659.5999999999999</ele><time>2026-05-01T14:34:04Z</time></trkpt><trkpt lat="45.87813804315517" lon="10.76362887928573"><ele>648.0</ele><time>2026-05-01T14:34:05Z</time></trkpt><trkpt lat="45.87806703718611" lon="10.76356972638368"><ele>648.0</ele><time>2026-05-01T14:34:06Z</time></trkpt><trkpt lat="45.877998188895866" lon="10.763498764598328"><ele>648.0</ele><time>2026-05-01T14:34:07Z</time></trkpt><trkpt lat="45.877970476418085" lon="10.763400965505337"><ele>648.0</ele><time>2026-05-01T14:34:08Z</time></trkpt><trkpt lat="45.87797790242328" lon="10.763284854623864"><ele>648.0</ele><time>2026-05-01T14:34:09Z</time></trkpt><trkpt lat="45.87802603153994" lon="10.763168587684937"><ele>648.0</ele><time>2026-05-01T14:34:10Z</time></trkpt><trkpt lat="45.878110607203524" lon="10.763085936999698"><ele>648.0</ele><time>2026-05-01T14:34:11Z</time></trkpt><trkpt lat="45.87825365847216" lon="10.76307812071631"><ele>671.3333333333334</ele><time>2026-05-01T14:34:12Z</time></trkpt><trkpt lat="45.87843542075489" lon="10.763011311335557"><ele>694.6666666666667</ele><time>2026-05-01T14:34:13Z</time></trkpt><trkpt lat="45.87864303458326" lon="10.76293601897494"><ele>718.0</ele><time>2026-05-01T14:34:14Z</time></trkpt><trkpt lat="45.87885283669083" lon="10.762866995491276"><ele>718.0</ele><time>2026-05-01T14:34:15Z</time></trkpt><trkpt lat="45.87903153247361" lon="10.762786368282239"><ele>718.0</ele><time>2026-05-01T14:34:16Z</time></trkpt><trkpt lat="45.8791754288828" lon="10.762699724388625"><ele>718.0</ele><time>2026-05-01T14:34:17Z</time></trkpt><trkpt lat="45.87930676546122" lon="10.762575216966646"><ele>714.3333333333334</ele><time>2026-05-01T14:34:18Z</time></trkpt><trkpt lat="45.87939838134406" lon="10.762399487420165"><ele>710.6666666666666</ele><time>2026-05-01T14:34:19Z</time></trkpt><trkpt lat="45.879422374813075" lon="10.762181473460291"><ele>707.0</ele><time>2026-05-01T14:34:20Z</time></trkpt><trkpt lat="45.879420390418666" lon="10.761968920870956"><ele>706.2</ele><time>2026-05-01T14:34:21Z</time></trkpt><trkpt lat="45.8794041408066" lon="10.761789558146335"><ele>705.4000000000001</ele><time>2026-05-01T14:34:22Z</time></trkpt><trkpt lat="45.87939119155611" lon="10.761633337949002"><ele>704.5999999999999</ele><time>2026-05-01T14:34:23Z</time></trkpt><trkpt lat="45.87939860201051" lon="10.761488484991238"><ele>703.8</ele><time>2026-05-01T14:34:24Z</time></trkpt><trkpt lat="45.879452694451516" lon="10.761360445315423"><ele>703.0</ele><time>2026-05-01T14:34:25Z</time></trkpt><trkpt lat="45.87954677107314" lon="10.761264580654535"><ele>703.0</ele><time>2026-05-01T14:34:26Z</time></trkpt><trkpt lat="45.879637910609695" lon="10.761166258038937"><ele>703.0</ele><time>2026-05-01T14:34:27Z</time></trkpt><trkpt lat="45.879723623386795" lon="10.76105260784815"><ele>703.0</ele><time>2026-05-01T14:34:28Z</time></trkpt><trkpt lat="45.87982220275657" lon="10.760950406050863"><ele>703.0</ele><time>2026-05-01T14:34:29Z</time></trkpt><trkpt lat="45.87991806448099" lon="10.760837238504685"><ele>711.75</ele><time>2026-05-01T14:34:30Z</time></trkpt><trkpt lat="45.88001169546186" lon="10.76071923837527"><ele>720.5</ele><time>2026-05-01T14:34:31Z</time></trkpt><trkpt lat="45.88009534203951" lon="10.7605773714203"><ele>729.25</ele><time>2026-05-01T14:34:32Z</time></trkpt><trkpt lat="45.8801606092302" lon="10.760412974864797"><ele>738.0</ele><time>2026-05-01T14:34:33Z</time></trkpt><trkpt lat="45.88021094356027" lon="10.760236618598613"><ele>730.5</ele><time>2026-05-01T14:34:34Z</time></trkpt><trkpt lat="45.88025284142134" lon="10.76004628589355"><ele>723.0</ele><time>2026-05-01T14:34:35Z</time></trkpt><trkpt lat="45.880291375983006" lon="10.759874760975155"><ele>715.5</ele><time>2026-05-01T14:34:36Z</time></trkpt><trkpt lat="45.88033504655071" lon="10.75970546277176"><ele>708.0</ele><time>2026-05-01T14:34:37Z</time></trkpt><trkpt lat="45.88037743457631" lon="10.759529859568735"><ele>704.5</ele><time>2026-05-01T14:34:38Z</time></trkpt><trkpt lat="45.88040218523745" lon="10.759334736739259"><ele>701.0</ele><time>2026-05-01T14:34:39Z</time></trkpt><trkpt lat="45.8804221299048" lon="10.75916568623796"><ele>697.5</ele><time>2026-05-01T14:34:40Z</time></trkpt><trkpt lat="45.880437235935595" lon="10.758995678056959"><ele>694.0</ele><time>2026-05-01T14:34:41Z</time></trkpt><trkpt lat="45.880446915907655" lon="10.758827212310392"><ele>694.0</ele><time>2026-05-01T14:34:42Z</time></trkpt><trkpt lat="45.880472677118085" lon="10.75865372622599"><ele>694.0</ele><time>2026-05-01T14:34:43Z</time></trkpt><trkpt lat="45.880518392224914" lon="10.758466019649081"><ele>694.0</ele><time>2026-05-01T14:34:44Z</time></trkpt><trkpt lat="45.880594082465755" lon="10.75829486665518"><ele>694.0</ele><time>2026-05-01T14:34:45Z</time></trkpt><trkpt lat="45.88068417480187" lon="10.758124566830132"><ele>685.0</ele><time>2026-05-01T14:34:46Z</time></trkpt><trkpt lat="45.88077075328161" lon="10.757924746250012"><ele>676.0</ele><time>2026-05-01T14:34:47Z</time></trkpt><trkpt lat="45.88085828417696" lon="10.757758692393558"><ele>667.0</ele><time>2026-05-01T14:34:48Z</time></trkpt><trkpt lat="45.880906580065435" lon="10.757564498759718"><ele>666.0</ele><time>2026-05-01T14:34:49Z</time></trkpt><trkpt lat="45.880912941737705" lon="10.757312522278152"><ele>665.0</ele><time>2026-05-01T14:34:50Z</time></trkpt><trkpt lat="45.880892980488724" lon="10.75700991642533"><ele>664.0</ele><time>2026-05-01T14:34:51Z</time></trkpt><trkpt lat="45.88088506338311" lon="10.756686830830738"><ele>664.6666666666667</ele><time>2026-05-01T14:34:52Z</time></trkpt><trkpt lat="45.88087737976774" lon="10.756378617917687"><ele>665.3333333333334</ele><time>2026-05-01T14:34:53Z</time></trkpt><trkpt lat="45.88083079624021" lon="10.75608774738274"><ele>666.0</ele><time>2026-05-01T14:34:54Z</time></trkpt><trkpt lat="45.88074199184939" lon="10.755810507722337"><ele>666.0</ele><time>2026-05-01T14:34:55Z</time></trkpt><trkpt lat="45.88060696457682" lon="10.755554417126142"><ele>666.0</ele><time>2026-05-01T14:34:56Z</time></trkpt><trkpt lat="45.880439907807656" lon="10.755353210889654"><ele>666.0</ele><time>2026-05-01T14:34:57Z</time></trkpt><trkpt lat="45.88027588267315" lon="10.755198917135676"><ele>668.75</ele><time>2026-05-01T14:34:58Z</time></trkpt><trkpt lat="45.880148590904774" lon="10.75506626447471"><ele>671.5</ele><time>2026-05-01T14:34:59Z</time></trkpt><trkpt lat="45.88005025558618" lon="10.75493932842533"><ele>674.25</ele><time>2026-05-01T14:35:00Z</time></trkpt><trkpt lat="45.88002051273594" lon="10.754770535698697"><ele>677.0</ele><time>2026-05-01T14:35:01Z</time></trkpt><trkpt lat="45.88001810413864" lon="10.754586477924724"><ele>676.6666666666666</ele><time>2026-05-01T14:35:02Z</time></trkpt><trkpt lat="45.88006055451476" lon="10.754348573796161"><ele>676.3333333333334</ele><time>2026-05-01T14:35:03Z</time></trkpt><trkpt lat="45.88008894579753" lon="10.754074149244294"><ele>676.0</ele><time>2026-05-01T14:35:04Z</time></trkpt><trkpt lat="45.88013141955965" lon="10.753779928029209"><ele>673.0</ele><time>2026-05-01T14:35:05Z</time></trkpt><trkpt lat="45.880171053113216" lon="10.753468751583968"><ele>670.0</ele><time>2026-05-01T14:35:06Z</time></trkpt><trkpt lat="45.88020652581448" lon="10.753172782105727"><ele>667.0</ele><time>2026-05-01T14:35:07Z</time></trkpt><trkpt lat="45.88021657772999" lon="10.752886510051301"><ele>664.6666666666667</ele><time>2026-05-01T14:35:08Z</time></trkpt><trkpt lat="45.88019215638327" lon="10.752595381445776"><ele>662.3333333333334</ele><time>2026-05-01T14:35:09Z</time></trkpt><trkpt lat="45.880167878348466" lon="10.752332256843012"><ele>660.0</ele><time>2026-05-01T14:35:10Z</time></trkpt><trkpt lat="45.88014819312279" lon="10.752098247749718"><ele>660.0</ele><time>2026-05-01T14:35:11Z</time></trkpt><trkpt lat="45.880171408838116" lon="10.75190384691136"><ele>660.0</ele><time>2026-05-01T14:35:12Z</time></trkpt><trkpt lat="45.88022825559523" lon="10.751730506314418"><ele>660.0</ele><time>2026-05-01T14:35:13Z</time></trkpt><trkpt lat="45.88032848696284" lon="10.751559045391804"><ele>660.0</ele><time>2026-05-01T14:35:14Z</time></trkpt><trkpt lat="45.880454156879416" lon="10.751345203642167"><ele>659.3333333333334</ele><time>2026-05-01T14:35:15Z</time></trkpt><trkpt lat="45.88061731953836" lon="10.751123639087007"><ele>658.6666666666667</ele><time>2026-05-01T14:35:16Z</time></trkpt><trkpt lat="45.88077768347077" lon="10.750902392191268"><ele>658.0</ele><time>2026-05-01T14:35:17Z</time></trkpt><trkpt lat="45.88092213584288" lon="10.75070128532169"><ele>658.6666666666667</ele><time>2026-05-01T14:35:18Z</time></trkpt><trkpt lat="45.88106823138036" lon="10.750526052369988"><ele>659.3333333333334</ele><time>2026-05-01T14:35:19Z</time></trkpt><trkpt lat="45.881214983155004" lon="10.750361559598376"><ele>660.0</ele><time>2026-05-01T14:35:20Z</time></trkpt><trkpt lat="45.88136348568593" lon="10.750196919571884"><ele>660.0</ele><time>2026-05-01T14:35:21Z</time></trkpt><trkpt lat="45.881507320068614" lon="10.750032576298915"><ele>660.0</ele><time>2026-05-01T14:35:22Z</time></trkpt><trkpt lat="45.88164384004981" lon="10.74987633742179"><ele>660.0</ele><time>2026-05-01T14:35:23Z</time></trkpt><trkpt lat="45.8817732226632" lon="10.749737846422985"><ele>662.6666666666666</ele><time>2026-05-01T14:35:24Z</time></trkpt><trkpt lat="45.8819147678276" lon="10.749670717630593"><ele>665.3333333333333</ele><time>2026-05-01T14:35:25Z</time></trkpt><trkpt lat="45.88206466066352" lon="10.749665313200284"><ele>668.0</ele><time>2026-05-01T14:35:26Z</time></trkpt><trkpt lat="45.88223256886911" lon="10.749689500968612"><ele>668.0</ele><time>2026-05-01T14:35:27Z</time></trkpt><trkpt lat="45.88241309664783" lon="10.749701811404144"><ele>668.0</ele><time>2026-05-01T14:35:28Z</time></trkpt><trkpt lat="45.882577520808205" lon="10.74966453357746"><ele>668.0</ele><time>2026-05-01T14:35:29Z</time></trkpt><trkpt lat="45.88270656253313" lon="10.749552145518697"><ele>673.6666666666666</ele><time>2026-05-01T14:35:30Z</time></trkpt><trkpt lat="45.88280610577028" lon="10.749373586731402"><ele>679.3333333333334</ele><time>2026-05-01T14:35:31Z</time></trkpt><trkpt lat="45.88287428500944" lon="10.749146858794157"><ele>685.0</ele><time>2026-05-01T14:35:32Z</time></trkpt><trkpt lat="45.88292309948372" lon="10.748912226715891"><ele>685.0</ele><time>2026-05-01T14:35:33Z</time></trkpt><trkpt lat="45.88299882966191" lon="10.748754633588835"><ele>685.0</ele><time>2026-05-01T14:35:34Z</time></trkpt><trkpt lat="45.88311088044209" lon="10.74863154505698"><ele>685.0</ele><time>2026-05-01T14:35:35Z</time></trkpt><trkpt lat="45.883255595876875" lon="10.748528895514346"><ele>685.0</ele><time>2026-05-01T14:35:36Z</time></trkpt><trkpt lat="45.88340112724324" lon="10.74837954929051"><ele>680.0</ele><time>2026-05-01T14:35:37Z</time></trkpt><trkpt lat="45.88352616486702" lon="10.748159783374133"><ele>675.0</ele><time>2026-05-01T14:35:38Z</time></trkpt><trkpt lat="45.883625650733556" lon="10.747884906926112"><ele>670.0</ele><time>2026-05-01T14:35:39Z</time></trkpt><trkpt lat="45.88373947304865" lon="10.747608850953101"><ele>670.0</ele><time>2026-05-01T14:35:40Z</time></trkpt><trkpt lat="45.883911649664796" lon="10.747389453061093"><ele>670.0</ele><time>2026-05-01T14:35:41Z</time></trkpt><trkpt lat="45.88408998138236" lon="10.747131852088927"><ele>678.0</ele><time>2026-05-01T14:35:42Z</time></trkpt><trkpt lat="45.88429203986486" lon="10.74688582195907"><ele>686.0</ele><time>2026-05-01T14:35:43Z</time></trkpt><trkpt lat="45.88446752836667" lon="10.746634518122395"><ele>686.0</ele><time>2026-05-01T14:35:44Z</time></trkpt><trkpt lat="45.884608949685315" lon="10.746366100970866"><ele>686.0</ele><time>2026-05-01T14:35:45Z</time></trkpt><trkpt lat="45.88472674566294" lon="10.746076314671042"><ele>681.0</ele><time>2026-05-01T14:35:46Z</time></trkpt><trkpt lat="45.88484009667816" lon="10.745795568353648"><ele>676.0</ele><time>2026-05-01T14:35:47Z</time></trkpt><trkpt lat="45.88495094984426" lon="10.74555208997724"><ele>671.0</ele><time>2026-05-01T14:35:48Z</time></trkpt><trkpt lat="45.88505657825875" lon="10.7453279716305"><ele>688.6666666666666</ele><time>2026-05-01T14:35:49Z</time></trkpt><trkpt lat="45.88514037421504" lon="10.745115177361065"><ele>706.3333333333334</ele><time>2026-05-01T14:35:50Z</time></trkpt><trkpt lat="45.88519192152375" lon="10.744886637827193"><ele>724.0</ele><time>2026-05-01T14:35:51Z</time></trkpt><trkpt lat="45.88521830461097" lon="10.744669367209308"><ele>724.0</ele><time>2026-05-01T14:35:52Z</time></trkpt><trkpt lat="45.885216531346835" lon="10.744442748026072"><ele>724.0</ele><time>2026-05-01T14:35:53Z</time></trkpt><trkpt lat="45.88518762205576" lon="10.744241402603322"><ele>724.0</ele><time>2026-05-01T14:35:54Z</time></trkpt><trkpt lat="45.88515080194002" lon="10.744068761297621"><ele>724.0</ele><time>2026-05-01T14:35:55Z</time></trkpt><trkpt lat="45.88511407414578" lon="10.743915410604286"><ele>717.8000000000001</ele><time>2026-05-01T14:35:56Z</time></trkpt><trkpt lat="45.88508369724802" lon="10.743776271420769"><ele>711.6</ele><time>2026-05-01T14:35:57Z</time></trkpt><trkpt lat="45.88508113409202" lon="10.7436359450086"><ele>705.4</ele><time>2026-05-01T14:35:58Z</time></trkpt><trkpt lat="45.88511644541258" lon="10.743488921398798"><ele>699.2</ele><time>2026-05-01T14:35:59Z</time></trkpt><trkpt lat="45.88517907819827" lon="10.743348423937602"><ele>693.0</ele><time>2026-05-01T14:36:00Z</time></trkpt><trkpt lat="45.88526003973471" lon="10.74321591447009"><ele>693.0</ele><time>2026-05-01T14:36:01Z</time></trkpt><trkpt lat="45.88537389538634" lon="10.743117024218567"><ele>693.0</ele><time>2026-05-01T14:36:02Z</time></trkpt><trkpt lat="45.88548807410557" lon="10.743030221853141"><ele>693.0</ele><time>2026-05-01T14:36:03Z</time></trkpt><trkpt lat="45.88558534703241" lon="10.742924311038315"><ele>693.0</ele><time>2026-05-01T14:36:04Z</time></trkpt><trkpt lat="45.88567836845384" lon="10.74280031948937"><ele>686.6666666666666</ele><time>2026-05-01T14:36:05Z</time></trkpt><trkpt lat="45.88575276702756" lon="10.742651061944764"><ele>680.3333333333333</ele><time>2026-05-01T14:36:06Z</time></trkpt><trkpt lat="45.885802443533024" lon="10.742447775836315"><ele>674.0</ele><time>2026-05-01T14:36:07Z</time></trkpt><trkpt lat="45.88586987966732" lon="10.742197674516595"><ele>674.0</ele><time>2026-05-01T14:36:08Z</time></trkpt><trkpt lat="45.88592375173335" lon="10.741900294481471"><ele>674.0</ele><time>2026-05-01T14:36:09Z</time></trkpt><trkpt lat="45.885995283347356" lon="10.741585125550262"><ele>674.0</ele><time>2026-05-01T14:36:10Z</time></trkpt><trkpt lat="45.886058262087886" lon="10.741248504296097"><ele>685.6666666666666</ele><time>2026-05-01T14:36:11Z</time></trkpt><trkpt lat="45.88612050057496" lon="10.740939359393039"><ele>697.3333333333334</ele><time>2026-05-01T14:36:12Z</time></trkpt><trkpt lat="45.886164379683855" lon="10.7406373982773"><ele>709.0</ele><time>2026-05-01T14:36:13Z</time></trkpt><trkpt lat="45.88617246036338" lon="10.740338438555796"><ele>712.5</ele><time>2026-05-01T14:36:14Z</time></trkpt><trkpt lat="45.88613148858729" lon="10.740017099066181"><ele>716.0</ele><time>2026-05-01T14:36:15Z</time></trkpt><trkpt lat="45.88607237822367" lon="10.739676627647293"><ele>719.0</ele><time>2026-05-01T14:36:16Z</time></trkpt><trkpt lat="45.88601794053878" lon="10.739324695813828"><ele>722.0</ele><time>2026-05-01T14:36:17Z</time></trkpt><trkpt lat="45.885973234784586" lon="10.738998484773383"><ele>722.0</ele><time>2026-05-01T14:36:18Z</time></trkpt><trkpt lat="45.885935132565734" lon="10.73870162589597"><ele>722.0</ele><time>2026-05-01T14:36:19Z</time></trkpt><trkpt lat="45.88590786392949" lon="10.738426853349091"><ele>722.0</ele><time>2026-05-01T14:36:20Z</time></trkpt><trkpt lat="45.88592069369798" lon="10.738184686722716"><ele>720.6666666666666</ele><time>2026-05-01T14:36:21Z</time></trkpt><trkpt lat="45.88595494589428" lon="10.737954486280334"><ele>719.3333333333334</ele><time>2026-05-01T14:36:22Z</time></trkpt><trkpt lat="45.88602643101372" lon="10.737711903124799"><ele>718.0</ele><time>2026-05-01T14:36:23Z</time></trkpt><trkpt lat="45.886111855452846" lon="10.737434862133831"><ele>712.0</ele><time>2026-05-01T14:36:24Z</time></trkpt><trkpt lat="45.886227308201285" lon="10.737146153636747"><ele>706.0</ele><time>2026-05-01T14:36:25Z</time></trkpt><trkpt lat="45.88633826219803" lon="10.736843149668916"><ele>695.0</ele><time>2026-05-01T14:36:26Z</time></trkpt><trkpt lat="45.886445526171734" lon="10.736527183467496"><ele>684.0</ele><time>2026-05-01T14:36:27Z</time></trkpt><trkpt lat="45.886541294270415" lon="10.736228824890652"><ele>686.3333333333334</ele><time>2026-05-01T14:36:28Z</time></trkpt><trkpt lat="45.88663193379354" lon="10.735958726067775"><ele>688.6666666666667</ele><time>2026-05-01T14:36:29Z</time></trkpt><trkpt lat="45.88671637891731" lon="10.735710063790119"><ele>691.0</ele><time>2026-05-01T14:36:30Z</time></trkpt><trkpt lat="45.88680797030995" lon="10.735485186225057"><ele>691.0</ele><time>2026-05-01T14:36:31Z</time></trkpt><trkpt lat="45.88691068918312" lon="10.735280868347335"><ele>691.0</ele><time>2026-05-01T14:36:32Z</time></trkpt><trkpt lat="45.88702981390746" lon="10.735088420072794"><ele>691.0</ele><time>2026-05-01T14:36:33Z</time></trkpt><trkpt lat="45.887146292779875" lon="10.734889943490199"><ele>681.0</ele><time>2026-05-01T14:36:34Z</time></trkpt><trkpt lat="45.88725256035125" lon="10.734685055593236"><ele>671.0</ele><time>2026-05-01T14:36:35Z</time></trkpt><trkpt lat="45.88734491376836" lon="10.734473852743104"><ele>661.0</ele><time>2026-05-01T14:36:36Z</time></trkpt><trkpt lat="45.887431282966055" lon="10.734260574610774"><ele>661.0</ele><time>2026-05-01T14:36:37Z</time></trkpt><trkpt lat="45.887517681790165" lon="10.734044548175934"><ele>661.0</ele><time>2026-05-01T14:36:38Z</time></trkpt><trkpt lat="45.88760492907086" lon="10.733833874580029"><ele>661.0</ele><time>2026-05-01T14:36:39Z</time></trkpt><trkpt lat="45.88768941668978" lon="10.733626706779324"><ele>660.3333333333334</ele><time>2026-05-01T14:36:40Z</time></trkpt><trkpt lat="45.88777503829977" lon="10.733421915222028"><ele>659.6666666666666</ele><time>2026-05-01T14:36:41Z</time></trkpt><trkpt lat="45.88785839741888" lon="10.733222391942787"><ele>659.0</ele><time>2026-05-01T14:36:42Z</time></trkpt><trkpt lat="45.88794214274744" lon="10.733025875586547"><ele>659.0</ele><time>2026-05-01T14:36:43Z</time></trkpt><trkpt lat="45.88802054786982" lon="10.732834283411817"><ele>659.0</ele><time>2026-05-01T14:36:44Z</time></trkpt><trkpt lat="45.888097169651154" lon="10.732649715183296"><ele>659.0</ele><time>2026-05-01T14:36:45Z</time></trkpt><trkpt lat="45.88817268305795" lon="10.732473804397085"><ele>659.0</ele><time>2026-05-01T14:36:46Z</time></trkpt><trkpt lat="45.888246302871" lon="10.732301657706786"><ele>659.0</ele><time>2026-05-01T14:36:47Z</time></trkpt><trkpt lat="45.888315285408936" lon="10.732143552925399"><ele>659.0</ele><time>2026-05-01T14:36:48Z</time></trkpt><trkpt lat="45.88837981267218" lon="10.731992579274129"><ele>659.0</ele><time>2026-05-01T14:36:49Z</time></trkpt><trkpt lat="45.88843312512391" lon="10.731844088132798"><ele>659.0</ele><time>2026-05-01T14:36:50Z</time></trkpt><trkpt lat="45.888483975238074" lon="10.731704844071254"><ele>659.8000000000001</ele><time>2026-05-01T14:36:51Z</time></trkpt><trkpt lat="45.88853950500776" lon="10.73158184796789"><ele>660.6</ele><time>2026-05-01T14:36:52Z</time></trkpt><trkpt lat="45.88859904629181" lon="10.731473031741357"><ele>661.4</ele><time>2026-05-01T14:36:53Z</time></trkpt><trkpt lat="45.888660401156095" lon="10.731400537366484"><ele>662.2</ele><time>2026-05-01T14:36:54Z</time></trkpt><trkpt lat="45.88871904996977" lon="10.731348566655765"><ele>663.0</ele><time>2026-05-01T14:36:55Z</time></trkpt><trkpt lat="45.888803331190246" lon="10.731262734258904"><ele>663.0</ele><time>2026-05-01T14:36:57Z</time></trkpt><trkpt lat="45.88882652427188" lon="10.7310887084229"><ele>663.0</ele><time>2026-05-01T14:36:59Z</time></trkpt><trkpt lat="45.88882028287111" lon="10.730997306986538"><ele>663.0</ele><time>2026-05-01T14:37:00Z</time></trkpt><trkpt lat="45.888841188091426" lon="10.730830180907903"><ele>663.0</ele><time>2026-05-01T14:37:06Z</time></trkpt><trkpt lat="45.888905172125526" lon="10.730668673911982"><ele>663.0</ele><time>2026-05-01T14:37:08Z</time></trkpt><trkpt lat="45.88894996926425" lon="10.730549826696356"><ele>662.8</ele><time>2026-05-01T14:37:09Z</time></trkpt><trkpt lat="45.88898642630287" lon="10.730470980489132"><ele>662.5999999999999</ele><time>2026-05-01T14:37:10Z</time></trkpt><trkpt lat="45.88904881492568" lon="10.73031859518941"><ele>662.4000000000001</ele><time>2026-05-01T14:37:12Z</time></trkpt><trkpt lat="45.88910255108205" lon="10.730185398201508"><ele>662.2</ele><time>2026-05-01T14:37:14Z</time></trkpt><trkpt lat="45.88915177449613" lon="10.730073691034343"><ele>662.0</ele><time>2026-05-01T14:37:16Z</time></trkpt><trkpt lat="45.88920055964781" lon="10.729959480742842"><ele>662.0</ele><time>2026-05-01T14:37:18Z</time></trkpt><trkpt lat="45.889257712237736" lon="10.72983375428353"><ele>662.0</ele><time>2026-05-01T14:37:20Z</time></trkpt><trkpt lat="45.8893142919778" lon="10.729690016491427"><ele>662.0</ele><time>2026-05-01T14:37:22Z</time></trkpt><trkpt lat="45.88937755638143" lon="10.729540342520615"><ele>662.0</ele><time>2026-05-01T14:37:24Z</time></trkpt><trkpt lat="45.889415575214315" lon="10.72945496671177"><ele>662.0</ele><time>2026-05-01T14:37:25Z</time></trkpt><trkpt lat="45.8894659094111" lon="10.729353023363558"><ele>662.3333333333333</ele><time>2026-05-01T14:37:26Z</time></trkpt><trkpt lat="45.889520449845215" lon="10.729236272396472"><ele>662.6666666666666</ele><time>2026-05-01T14:37:27Z</time></trkpt><trkpt lat="45.88957101856704" lon="10.72912378382782"><ele>663.0</ele><time>2026-05-01T14:37:28Z</time></trkpt><trkpt lat="45.88961651105004" lon="10.729029679427924"><ele>663.3333333333334</ele><time>2026-05-01T14:37:29Z</time></trkpt><trkpt lat="45.88965781650818" lon="10.728935085401448"><ele>663.6666666666667</ele><time>2026-05-01T14:37:31Z</time></trkpt><trkpt lat="45.889610288777526" lon="10.729005095636717"><ele>664.0</ele><time>2026-05-01T14:37:34Z</time></trkpt><trkpt lat="45.88957558331261" lon="10.729089748524919"><ele>664.0</ele><time>2026-05-01T14:37:37Z</time></trkpt><trkpt lat="45.88945569992435" lon="10.729348426394369"><ele>664.0</ele><time>2026-05-01T14:39:18Z</time></trkpt><trkpt lat="45.88940202634623" lon="10.729458214075132"><ele>664.0</ele><time>2026-05-01T14:39:19Z</time></trkpt><trkpt lat="45.88934329637823" lon="10.729584003358053"><ele>664.0</ele><time>2026-05-01T14:39:20Z</time></trkpt><trkpt lat="45.88928422079158" lon="10.729723946379577"><ele>663.6</ele><time>2026-05-01T14:39:21Z</time></trkpt><trkpt lat="45.889228506491406" lon="10.7298601325937"><ele>663.2</ele><time>2026-05-01T14:39:22Z</time></trkpt><trkpt lat="45.889172521975006" lon="10.729993263900816"><ele>662.8000000000001</ele><time>2026-05-01T14:39:23Z</time></trkpt><trkpt lat="45.889112694514615" lon="10.730128934980646"><ele>662.4000000000001</ele><time>2026-05-01T14:39:24Z</time></trkpt><trkpt lat="45.88905446047937" lon="10.730264702171432"><ele>662.0</ele><time>2026-05-01T14:39:25Z</time></trkpt><trkpt lat="45.889002582692385" lon="10.730397358095043"><ele>662.0</ele><time>2026-05-01T14:39:26Z</time></trkpt><trkpt lat="45.888947551968805" lon="10.730517449550469"><ele>662.0</ele><time>2026-05-01T14:39:27Z</time></trkpt><trkpt lat="45.888899579458815" lon="10.730631695195065"><ele>662.0</ele><time>2026-05-01T14:39:28Z</time></trkpt><trkpt lat="45.888851183962075" lon="10.730737635656082"><ele>662.0</ele><time>2026-05-01T14:39:29Z</time></trkpt><trkpt lat="45.888805570879754" lon="10.730827429918387"><ele>662.0</ele><time>2026-05-01T14:39:30Z</time></trkpt><trkpt lat="45.888751944319566" lon="10.730897768664484"><ele>662.0</ele><time>2026-05-01T14:39:31Z</time></trkpt><trkpt lat="45.88869563179076" lon="10.730961124647855"><ele>662.0</ele><time>2026-05-01T14:39:32Z</time></trkpt><trkpt lat="45.888636823839164" lon="10.731027186884821"><ele>662.0</ele><time>2026-05-01T14:39:33Z</time></trkpt><trkpt lat="45.888595615116635" lon="10.731119904874369"><ele>662.0</ele><time>2026-05-01T14:39:34Z</time></trkpt><trkpt lat="45.88857000491196" lon="10.731228059864376"><ele>662.0</ele><time>2026-05-01T14:39:35Z</time></trkpt><trkpt lat="45.88855211376259" lon="10.731346009198369"><ele>662.0</ele><time>2026-05-01T14:39:36Z</time></trkpt><trkpt lat="45.888535056970255" lon="10.73147023129433"><ele>662.0</ele><time>2026-05-01T14:39:37Z</time></trkpt><trkpt lat="45.888508431131115" lon="10.73159654178394"><ele>662.2</ele><time>2026-05-01T14:39:38Z</time></trkpt><trkpt lat="45.88846252183695" lon="10.73172371953069"><ele>662.4000000000001</ele><time>2026-05-01T14:39:39Z</time></trkpt><trkpt lat="45.888407746015666" lon="10.731854091570574"><ele>662.5999999999999</ele><time>2026-05-01T14:39:40Z</time></trkpt><trkpt lat="45.888348739160406" lon="10.731984159209494"><ele>662.8</ele><time>2026-05-01T14:39:41Z</time></trkpt><trkpt lat="45.88829054352916" lon="10.732120672484754"><ele>663.0</ele><time>2026-05-01T14:39:42Z</time></trkpt><trkpt lat="45.88823134302094" lon="10.732264613090557"><ele>662.0</ele><time>2026-05-01T14:39:43Z</time></trkpt><trkpt lat="45.88817248448369" lon="10.732416358145713"><ele>661.0</ele><time>2026-05-01T14:39:44Z</time></trkpt><trkpt lat="45.888107768480985" lon="10.732568839574236"><ele>660.0</ele><time>2026-05-01T14:39:45Z</time></trkpt><trkpt lat="45.88803812064051" lon="10.732717883221223"><ele>659.0</ele><time>2026-05-01T14:39:46Z</time></trkpt><trkpt lat="45.887975058426065" lon="10.732878268251923"><ele>659.0</ele><time>2026-05-01T14:39:47Z</time></trkpt><trkpt lat="45.887909194189525" lon="10.733042751704707"><ele>659.0</ele><time>2026-05-01T14:39:48Z</time></trkpt><trkpt lat="45.88784522228021" lon="10.733199280324556"><ele>659.0</ele><time>2026-05-01T14:39:49Z</time></trkpt><trkpt lat="45.88777964911043" lon="10.733355787479866"><ele>659.0</ele><time>2026-05-01T14:39:50Z</time></trkpt><trkpt lat="45.88771303422674" lon="10.733510716967249"><ele>659.5</ele><time>2026-05-01T14:39:51Z</time></trkpt><trkpt lat="45.88764899911365" lon="10.733665060382874"><ele>660.0</ele><time>2026-05-01T14:39:52Z</time></trkpt><trkpt lat="45.88758686773572" lon="10.733818157979712"><ele>660.5</ele><time>2026-05-01T14:39:53Z</time></trkpt><trkpt lat="45.887521026402915" lon="10.733964891965211"><ele>661.0</ele><time>2026-05-01T14:39:54Z</time></trkpt><trkpt lat="45.88746590111998" lon="10.73410685066673"><ele>661.0</ele><time>2026-05-01T14:39:55Z</time></trkpt><trkpt lat="45.88740818528678" lon="10.734238690424643"><ele>661.0</ele><time>2026-05-01T14:39:56Z</time></trkpt><trkpt lat="45.88735727282313" lon="10.734364933711092"><ele>661.0</ele><time>2026-05-01T14:39:57Z</time></trkpt><trkpt lat="45.8873087100827" lon="10.734482796410717"><ele>661.0</ele><time>2026-05-01T14:39:58Z</time></trkpt><trkpt lat="45.88725979895399" lon="10.734590415467903"><ele>661.0</ele><time>2026-05-01T14:39:59Z</time></trkpt><trkpt lat="45.8872194787306" lon="10.734689457915971"><ele>661.0</ele><time>2026-05-01T14:40:00Z</time></trkpt><trkpt lat="45.887178066740724" lon="10.73477585578909"><ele>661.0</ele><time>2026-05-01T14:40:01Z</time></trkpt><trkpt lat="45.88713063894704" lon="10.734841789483427"><ele>661.0</ele><time>2026-05-01T14:40:02Z</time></trkpt><trkpt lat="45.88704198951605" lon="10.734883291137052"><ele>661.0</ele><time>2026-05-01T14:40:04Z</time></trkpt><trkpt lat="45.88692129846448" lon="10.734869901783313"><ele>661.0</ele><time>2026-05-01T14:40:06Z</time></trkpt><trkpt lat="45.886813699645124" lon="10.734922311854785"><ele>659.1999999999999</ele><time>2026-05-01T14:40:08Z</time></trkpt><trkpt lat="45.88669920123569" lon="10.734963204728864"><ele>657.4</ele><time>2026-05-01T14:40:10Z</time></trkpt><trkpt lat="45.886645967393065" lon="10.735014876145755"><ele>655.6</ele><time>2026-05-01T14:40:11Z</time></trkpt><trkpt lat="45.88653665262059" lon="10.735078257301726"><ele>653.8</ele><time>2026-05-01T14:40:13Z</time></trkpt><trkpt lat="45.88643021037536" lon="10.73512063970304"><ele>652.0</ele><time>2026-05-01T14:40:15Z</time></trkpt><trkpt lat="45.88634457743794" lon="10.735197359609433"><ele>652.0</ele><time>2026-05-01T14:40:17Z</time></trkpt><trkpt lat="45.88625864095141" lon="10.73522736384539"><ele>652.0</ele><time>2026-05-01T14:40:19Z</time></trkpt><trkpt lat="45.88619049879208" lon="10.73528066056206"><ele>652.0</ele><time>2026-05-01T14:40:21Z</time></trkpt><trkpt lat="45.88608949085772" lon="10.735075203134858"><ele>652.0</ele><time>2026-05-01T14:40:24Z</time></trkpt><trkpt lat="45.886014731241104" lon="10.735003238316658"><ele>652.0</ele><time>2026-05-01T14:40:26Z</time></trkpt><trkpt lat="45.88593632343107" lon="10.734922183064036"><ele>652.2</ele><time>2026-05-01T14:40:28Z</time></trkpt><trkpt lat="45.885867907628395" lon="10.734831936841266"><ele>652.4000000000001</ele><time>2026-05-01T14:40:30Z</time></trkpt><trkpt lat="45.88579751900874" lon="10.734751256755267"><ele>652.5999999999999</ele><time>2026-05-01T14:40:32Z</time></trkpt><trkpt lat="45.885735516584454" lon="10.734695163267379"><ele>652.8</ele><time>2026-05-01T14:40:34Z</time></trkpt><trkpt lat="45.88567252795973" lon="10.73470257012907"><ele>653.0</ele><time>2026-05-01T14:40:36Z</time></trkpt><trkpt lat="45.88561657464031" lon="10.734871862732938"><ele>653.0</ele><time>2026-05-01T14:40:39Z</time></trkpt><trkpt lat="45.8856156120207" lon="10.734974534019942"><ele>653.0</ele><time>2026-05-01T14:40:43Z</time></trkpt><trkpt lat="45.88568659355139" lon="10.73521663952616"><ele>653.0</ele><time>2026-05-01T14:40:44Z</time></trkpt><trkpt lat="45.885764405161225" lon="10.73526945861395"><ele>653.0</ele><time>2026-05-01T14:40:47Z</time></trkpt><trkpt lat="45.88582473564669" lon="10.735307263563875"><ele>653.0</ele><time>2026-05-01T14:40:50Z</time></trkpt><trkpt lat="45.88594522953774" lon="10.735378505705635"><ele>652.8333333333333</ele><time>2026-05-01T14:41:59Z</time></trkpt><trkpt lat="45.88604671459874" lon="10.7353805182655"><ele>652.6666666666666</ele><time>2026-05-01T14:42:02Z</time></trkpt><trkpt lat="45.88612452606396" lon="10.73536223406418"><ele>652.5</ele><time>2026-05-01T14:42:05Z</time></trkpt><trkpt lat="45.88619713358144" lon="10.735326006418818"><ele>652.3333333333334</ele><time>2026-05-01T14:42:08.001Z</time></trkpt><trkpt lat="45.88625503140428" lon="10.735277754342057"><ele>652.1666666666667</ele><time>2026-05-01T14:42:11.001Z</time></trkpt><trkpt lat="45.88633329146215" lon="10.73524307532445"><ele>652.0</ele><time>2026-05-01T14:42:15.001Z</time></trkpt><trkpt lat="45.88639336747663" lon="10.73514802638754"><ele>652.0</ele><time>2026-05-01T14:42:18.001Z</time></trkpt><trkpt lat="45.88647145329438" lon="10.735108603307143"><ele>652.0</ele><time>2026-05-01T14:42:21.001Z</time></trkpt><trkpt lat="45.886546899412316" lon="10.735057110858719"><ele>652.0</ele><time>2026-05-01T14:42:24.001Z</time></trkpt><trkpt lat="45.8866326016419" lon="10.73505093623132"><ele>652.0</ele><time>2026-05-01T14:42:27Z</time></trkpt><trkpt lat="45.886703258342465" lon="10.73498737012595"><ele>652.0</ele><time>2026-05-01T14:42:29Z</time></trkpt><trkpt lat="45.886799207748155" lon="10.734943930248155"><ele>652.0</ele><time>2026-05-01T14:42:31Z</time></trkpt><trkpt lat="45.88689990389506" lon="10.734916749287054"><ele>653.5</ele><time>2026-05-01T14:42:33Z</time></trkpt><trkpt lat="45.88697180566151" lon="10.734860049153609"><ele>655.0</ele><time>2026-05-01T14:42:35Z</time></trkpt><trkpt lat="45.88705849710195" lon="10.734855827225568"><ele>656.5</ele><time>2026-05-01T14:42:38Z</time></trkpt><trkpt lat="45.88713083763896" lon="10.734854092373583"><ele>658.0</ele><time>2026-05-01T14:43:39Z</time></trkpt><trkpt lat="45.887209760961106" lon="10.734773619294984"><ele>659.5</ele><time>2026-05-01T14:43:41Z</time></trkpt><trkpt lat="45.88727438898135" lon="10.734648824015872"><ele>661.0</ele><time>2026-05-01T14:43:43Z</time></trkpt><trkpt lat="45.88730744348675" lon="10.734560826787778"><ele>661.0</ele><time>2026-05-01T14:43:44Z</time></trkpt><trkpt lat="45.88734196538151" lon="10.734470820788516"><ele>661.0</ele><time>2026-05-01T14:43:45Z</time></trkpt><trkpt lat="45.88738229184722" lon="10.73437140729478"><ele>661.0</ele><time>2026-05-01T14:43:46.001Z</time></trkpt><trkpt lat="45.887426158124406" lon="10.73426259777213"><ele>661.0</ele><time>2026-05-01T14:43:47.001Z</time></trkpt><trkpt lat="45.88747390036333" lon="10.734143564837007"><ele>661.0</ele><time>2026-05-01T14:43:48.001Z</time></trkpt><trkpt lat="45.88752452226266" lon="10.734015563754234"><ele>661.0</ele><time>2026-05-01T14:43:49.001Z</time></trkpt><trkpt lat="45.88757974942222" lon="10.733889296034054"><ele>661.0</ele><time>2026-05-01T14:43:50.001Z</time></trkpt><trkpt lat="45.887637665513296" lon="10.733761601124115"><ele>661.0</ele><time>2026-05-01T14:43:51.001Z</time></trkpt><trkpt lat="45.88769441583402" lon="10.73362177220533"><ele>661.0</ele><time>2026-05-01T14:43:52.001Z</time></trkpt><trkpt lat="45.887748432069834" lon="10.733479567372266"><ele>661.0</ele><time>2026-05-01T14:43:53.001Z</time></trkpt><trkpt lat="45.887808434350745" lon="10.733325768267814"><ele>660.5</ele><time>2026-05-01T14:43:54.001Z</time></trkpt><trkpt lat="45.887870864211" lon="10.733179423438667"><ele>660.0</ele><time>2026-05-01T14:43:55.001Z</time></trkpt><trkpt lat="45.88793479234694" lon="10.73303294130939"><ele>659.5</ele><time>2026-05-01T14:43:56.001Z</time></trkpt><trkpt lat="45.887997740214296" lon="10.732879326845662"><ele>659.0</ele><time>2026-05-01T14:43:57.001Z</time></trkpt><trkpt lat="45.88806659281914" lon="10.732720727147818"><ele>659.0</ele><time>2026-05-01T14:43:58.001Z</time></trkpt><trkpt lat="45.88813330121329" lon="10.732563403400052"><ele>659.0</ele><time>2026-05-01T14:43:59.001Z</time></trkpt><trkpt lat="45.88819783077577" lon="10.732403670895255"><ele>659.0</ele><time>2026-05-01T14:44:00.001Z</time></trkpt><trkpt lat="45.88826262905962" lon="10.732244298013361"><ele>659.0</ele><time>2026-05-01T14:44:01.001Z</time></trkpt><trkpt lat="45.88832902819732" lon="10.732085253992604"><ele>659.0</ele><time>2026-05-01T14:44:02.001Z</time></trkpt><trkpt lat="45.888388982894995" lon="10.731927582753286"><ele>659.0</ele><time>2026-05-01T14:44:03.001Z</time></trkpt><trkpt lat="45.88844871229842" lon="10.731781725808325"><ele>659.0</ele><time>2026-05-01T14:44:04.001Z</time></trkpt><trkpt lat="45.88850170651088" lon="10.731662709733136"><ele>659.0</ele><time>2026-05-01T14:44:05.001Z</time></trkpt><trkpt lat="45.888551247891954" lon="10.731560498116648"><ele>659.0</ele><time>2026-05-01T14:44:06.001Z</time></trkpt><trkpt lat="45.88862098474523" lon="10.731439773247581"><ele>659.6</ele><time>2026-05-01T14:44:08.001Z</time></trkpt><trkpt lat="45.88869477364783" lon="10.731370895893138"><ele>660.2</ele><time>2026-05-01T14:44:10.001Z</time></trkpt><trkpt lat="45.88874916666048" lon="10.731320915327364"><ele>660.8000000000001</ele><time>2026-05-01T14:44:11.001Z</time></trkpt><trkpt lat="45.88881877936366" lon="10.731205049308775"><ele>661.4000000000001</ele><time>2026-05-01T14:44:13.001Z</time></trkpt><trkpt lat="45.88879513364476" lon="10.731071803862356"><ele>662.0</ele><time>2026-05-01T14:44:15.001Z</time></trkpt><trkpt lat="45.88869836217487" lon="10.730992729007719"><ele>662.0</ele><time>2026-05-01T14:44:17.001Z</time></trkpt><trkpt lat="45.888574842903196" lon="10.731055250647815"><ele>662.0</ele><time>2026-05-01T14:44:19.001Z</time></trkpt><trkpt lat="45.88846419919472" lon="10.731131784461104"><ele>662.0</ele><time>2026-05-01T14:44:21.001Z</time></trkpt><trkpt lat="45.888398520772554" lon="10.731111150585198"><ele>662.0</ele><time>2026-05-01T14:44:22.001Z</time></trkpt><trkpt lat="45.88833232882458" lon="10.731129665238932"><ele>662.0</ele><time>2026-05-01T14:44:23.001Z</time></trkpt><trkpt lat="45.88826720185071" lon="10.731110495696129"><ele>661.5</ele><time>2026-05-01T14:44:24.001Z</time></trkpt><trkpt lat="45.888203085186476" lon="10.731102507907195"><ele>661.0</ele><time>2026-05-01T14:44:25.001Z</time></trkpt><trkpt lat="45.88813944175924" lon="10.731107753636786"><ele>660.5</ele><time>2026-05-01T14:44:26.001Z</time></trkpt><trkpt lat="45.88807269927593" lon="10.73110783776854"><ele>660.0</ele><time>2026-05-01T14:44:27.001Z</time></trkpt><trkpt lat="45.88794264648919" lon="10.731122331917064"><ele>659.5</ele><time>2026-05-01T14:44:29.001Z</time></trkpt><trkpt lat="45.88787341212411" lon="10.73113765066564"><ele>659.0</ele><time>2026-05-01T14:44:30.001Z</time></trkpt><trkpt lat="45.88780034521455" lon="10.731155211154164"><ele>659.0</ele><time>2026-05-01T14:44:31.001Z</time></trkpt><trkpt lat="45.88772450121587" lon="10.73117085820543"><ele>659.0</ele><time>2026-05-01T14:44:32.001Z</time></trkpt><trkpt lat="45.88764105129873" lon="10.731191233072817"><ele>659.0</ele><time>2026-05-01T14:44:33.001Z</time></trkpt><trkpt lat="45.887553831448734" lon="10.731208948129765"><ele>659.0</ele><time>2026-05-01T14:44:34.001Z</time></trkpt><trkpt lat="45.88746982074718" lon="10.731220233284176"><ele>659.0</ele><time>2026-05-01T14:44:35.001Z</time></trkpt><trkpt lat="45.88738873621827" lon="10.731221607312134"><ele>659.0</ele><time>2026-05-01T14:44:36.001Z</time></trkpt><trkpt lat="45.887311393107886" lon="10.731214775439835"><ele>658.6666666666666</ele><time>2026-05-01T14:44:37.001Z</time></trkpt><trkpt lat="45.88723663526575" lon="10.73120447899316"><ele>658.3333333333333</ele><time>2026-05-01T14:44:38.001Z</time></trkpt><trkpt lat="45.8871602570039" lon="10.731192000930141"><ele>658.0</ele><time>2026-05-01T14:44:39.001Z</time></trkpt><trkpt lat="45.887083162896886" lon="10.731180618484805"><ele>657.6666666666666</ele><time>2026-05-01T14:44:40.001Z</time></trkpt><trkpt lat="45.88700597877152" lon="10.731171433854183"><ele>657.3333333333334</ele><time>2026-05-01T14:44:41.001Z</time></trkpt><trkpt lat="45.886930335346854" lon="10.731152150256808"><ele>657.0</ele><time>2026-05-01T14:44:42Z</time></trkpt><trkpt lat="45.8868634155886" lon="10.73113743500058"><ele>656.8</ele><time>2026-05-01T14:44:43Z</time></trkpt><trkpt lat="45.88675483107528" lon="10.731134562248752"><ele>656.6</ele><time>2026-05-01T14:44:45Z</time></trkpt><trkpt lat="45.88666482018082" lon="10.731118999605078"><ele>656.4</ele><time>2026-05-01T14:44:47Z</time></trkpt><trkpt lat="45.88659105074597" lon="10.731268015768078"><ele>656.1999999999999</ele><time>2026-05-01T14:44:49Z</time></trkpt><trkpt lat="45.886536128534246" lon="10.731410746950894"><ele>656.0</ele><time>2026-05-01T14:44:51Z</time></trkpt><trkpt lat="45.88646889227278" lon="10.731566512025594"><ele>656.0</ele><time>2026-05-01T14:44:53Z</time></trkpt><trkpt lat="45.88640383548429" lon="10.731687618264056"><ele>656.0</ele><time>2026-05-01T14:44:55Z</time></trkpt><trkpt lat="45.88634859131776" lon="10.73180123316445"><ele>656.0</ele><time>2026-05-01T14:44:57Z</time></trkpt><trkpt lat="45.886306368149214" lon="10.731905844737522"><ele>656.0</ele><time>2026-05-01T14:44:59Z</time></trkpt><trkpt lat="45.88626698298159" lon="10.731994579210722"><ele>656.0</ele><time>2026-05-01T14:45:01Z</time></trkpt><trkpt lat="45.88623053028227" lon="10.732076711211826"><ele>656.0</ele><time>2026-05-01T14:45:03Z</time></trkpt><trkpt lat="45.88616398181272" lon="10.732182572954104"><ele>656.0</ele><time>2026-05-01T14:45:05Z</time></trkpt><trkpt lat="45.8861075979224" lon="10.73232525063194"><ele>656.0</ele><time>2026-05-01T14:45:07Z</time></trkpt><trkpt lat="45.886047191279395" lon="10.732450815511474"><ele>656.0</ele><time>2026-05-01T14:45:09Z</time></trkpt><trkpt lat="45.88597854362169" lon="10.732597194717185"><ele>656.0</ele><time>2026-05-01T14:45:11Z</time></trkpt><trkpt lat="45.88594226899905" lon="10.732676343701103"><ele>656.0</ele><time>2026-05-01T14:45:12Z</time></trkpt><trkpt lat="45.8859018924286" lon="10.732761047176911"><ele>655.6666666666666</ele><time>2026-05-01T14:45:13Z</time></trkpt><trkpt lat="45.88586138326479" lon="10.73284976938165"><ele>655.3333333333333</ele><time>2026-05-01T14:45:14Z</time></trkpt><trkpt lat="45.88582376238625" lon="10.732933882698864"><ele>655.0</ele><time>2026-05-01T14:45:15Z</time></trkpt><trkpt lat="45.885788985805796" lon="10.73301418099323"><ele>654.6666666666666</ele><time>2026-05-01T14:45:16Z</time></trkpt><trkpt lat="45.88572660804939" lon="10.733148520346658"><ele>654.3333333333334</ele><time>2026-05-01T14:45:18Z</time></trkpt><trkpt lat="45.88567456041112" lon="10.733247255271475"><ele>654.0</ele><time>2026-05-01T14:45:20Z</time></trkpt><trkpt lat="45.885639600651494" lon="10.733328206724346"><ele>654.0</ele><time>2026-05-01T14:45:22Z</time></trkpt><trkpt lat="45.88559622187138" lon="10.733408351869704"><ele>654.0</ele><time>2026-05-01T14:45:25Z</time></trkpt><trkpt lat="45.88555058114823" lon="10.73348417577889"><ele>654.0</ele><time>2026-05-01T14:50:55Z</time></trkpt><trkpt lat="45.885513721963704" lon="10.733566443710597"><ele>654.0</ele><time>2026-05-01T14:51:04Z</time></trkpt><trkpt lat="45.88547285825025" lon="10.733643952260373"><ele>654.0</ele><time>2026-05-01T14:51:12Z</time></trkpt><trkpt lat="45.885434461949494" lon="10.733717740908144"><ele>654.0</ele><time>2026-05-01T14:51:18Z</time></trkpt><trkpt lat="45.88541352816651" lon="10.733810676067858"><ele>654.0</ele><time>2026-05-01T14:51:25Z</time></trkpt><trkpt lat="45.88538426626183" lon="10.73389840789284"><ele>654.0</ele><time>2026-05-01T14:51:33Z</time></trkpt><trkpt lat="45.88536006089574" lon="10.733981965610356"><ele>654.0</ele><time>2026-05-01T14:51:42Z</time></trkpt><trkpt lat="45.88531986564176" lon="10.734069989375685"><ele>654.0</ele><time>2026-05-01T14:51:54Z</time></trkpt><trkpt lat="45.88524878343083" lon="10.734087229189639"><ele>654.0</ele><time>2026-05-01T14:52:05Z</time></trkpt><trkpt lat="45.8851784592408" lon="10.734060425085852"><ele>654.0</ele><time>2026-05-01T14:52:09Z</time></trkpt><trkpt lat="45.885117526992005" lon="10.734084840138088"><ele>654.0</ele><time>2026-05-01T14:52:17Z</time></trkpt><trkpt lat="45.88505600628473" lon="10.734108174055425"><ele>654.0</ele><time>2026-05-01T14:52:25Z</time></trkpt><trkpt lat="45.884991297556745" lon="10.734136310736664"><ele>654.0</ele><time>2026-05-01T14:52:36Z</time></trkpt><trkpt lat="45.88505301286053" lon="10.734154726803155"><ele>654.0</ele><time>2026-05-01T14:58:37Z</time></trkpt><trkpt lat="45.885112270926086" lon="10.734106471142324"><ele>654.0</ele><time>2026-05-01T14:58:48.999Z</time></trkpt><trkpt lat="45.885179225921625" lon="10.734088047769875"><ele>654.0</ele><time>2026-05-01T14:59:00Z</time></trkpt><trkpt lat="45.8852470667549" lon="10.734076394044997"><ele>654.0</ele><time>2026-05-01T14:59:10Z</time></trkpt><trkpt lat="45.88531186733083" lon="10.734061053403744"><ele>654.0</ele><time>2026-05-01T14:59:17Z</time></trkpt><trkpt lat="45.885376044335764" lon="10.733999682102658"><ele>654.0</ele><time>2026-05-01T14:59:24Z</time></trkpt><trkpt lat="45.88543794977647" lon="10.73394831534066"><ele>654.0</ele><time>2026-05-01T14:59:30Z</time></trkpt><trkpt lat="45.88549362891029" lon="10.733902405408703"><ele>654.0</ele><time>2026-05-01T14:59:35Z</time></trkpt><trkpt lat="45.88550062955048" lon="10.734047470212511"><ele>654.0</ele><time>2026-05-01T15:00:17Z</time></trkpt><trkpt lat="45.885505264255315" lon="10.733952884590115"><ele>654.0</ele><time>2026-05-01T15:00:35Z</time></trkpt><trkpt lat="45.885523698357474" lon="10.73404200051226"><ele>654.0</ele><time>2026-05-01T15:02:22Z</time></trkpt><trkpt lat="45.88550410528721" lon="10.73392762058121"><ele>654.0</ele><time>2026-05-01T15:02:41Z</time></trkpt><trkpt lat="45.885510902852324" lon="10.733831876173682"><ele>654.0</ele><time>2026-05-01T15:49:58Z</time></trkpt><trkpt lat="45.88551247728274" lon="10.733927109222309"><ele>654.0</ele><time>2026-05-01T15:50:17Z</time></trkpt><trkpt lat="45.885511435815076" lon="10.73382259999085"><ele>654.0</ele><time>2026-05-01T15:50:37Z</time></trkpt><trkpt lat="45.88554705475226" lon="10.733746076282149"><ele>654.0</ele><time>2026-05-01T15:50:51Z</time></trkpt><trkpt lat="45.88554307615627" lon="10.733649789670341"><ele>654.0</ele><time>2026-05-01T15:50:55Z</time></trkpt><trkpt lat="45.88559249933299" lon="10.733580665733276"><ele>654.0</ele><time>2026-05-01T15:51:00Z</time></trkpt><trkpt lat="45.88560875433975" lon="10.733492665797614"><ele>654.0</ele><time>2026-05-01T15:51:10Z</time></trkpt><trkpt lat="45.88558475167209" lon="10.73339867966187"><ele>654.0</ele><time>2026-05-01T15:51:14Z</time></trkpt><trkpt lat="45.88551775655801" lon="10.733355524257165"><ele>654.0</ele><time>2026-05-01T15:53:12Z</time></trkpt><trkpt lat="45.88558829626377" lon="10.73331763756815"><ele>654.0</ele><time>2026-05-01T15:57:18Z</time></trkpt><trkpt lat="45.88567523347792" lon="10.733252035479534"><ele>654.0</ele><time>2026-05-01T15:57:22Z</time></trkpt><trkpt lat="45.88573375379046" lon="10.733172942669022"><ele>654.0</ele><time>2026-05-01T15:57:24Z</time></trkpt><trkpt lat="45.88577332002133" lon="10.733078591026933"><ele>654.0</ele><time>2026-05-01T15:57:26Z</time></trkpt><trkpt lat="45.88583152827297" lon="10.732946518320256"><ele>654.0</ele><time>2026-05-01T15:57:28Z</time></trkpt><trkpt lat="45.88587218267624" lon="10.732862962374302"><ele>654.0</ele><time>2026-05-01T15:57:29Z</time></trkpt><trkpt lat="45.885912318900466" lon="10.732783646025872"><ele>654.0</ele><time>2026-05-01T15:57:30Z</time></trkpt><trkpt lat="45.88597942123583" lon="10.732644691961791"><ele>654.0</ele><time>2026-05-01T15:57:32Z</time></trkpt><trkpt lat="45.886044520196116" lon="10.73250707159213"><ele>654.0</ele><time>2026-05-01T15:57:34Z</time></trkpt><trkpt lat="45.88610894383708" lon="10.732368758086533"><ele>654.0</ele><time>2026-05-01T15:57:36Z</time></trkpt><trkpt lat="45.886175079249405" lon="10.732236283604703"><ele>654.2857142857142</ele><time>2026-05-01T15:57:38Z</time></trkpt><trkpt lat="45.88621264251273" lon="10.732152873433241"><ele>654.5714285714286</ele><time>2026-05-01T15:57:39Z</time></trkpt><trkpt lat="45.88625215597241" lon="10.7320678025826"><ele>654.8571428571429</ele><time>2026-05-01T15:57:40Z</time></trkpt><trkpt lat="45.88629301019693" lon="10.731983710500009"><ele>655.1428571428571</ele><time>2026-05-01T15:57:41Z</time></trkpt><trkpt lat="45.88633370318871" lon="10.731895682086092"><ele>655.4285714285714</ele><time>2026-05-01T15:57:42Z</time></trkpt><trkpt lat="45.8863709440081" lon="10.731807945605956"><ele>655.7142857142857</ele><time>2026-05-01T15:57:43Z</time></trkpt><trkpt lat="45.886413220846336" lon="10.73171460847212"><ele>656.0</ele><time>2026-05-01T15:57:44Z</time></trkpt><trkpt lat="45.886455264286276" lon="10.731620665466597"><ele>656.0</ele><time>2026-05-01T15:57:45Z</time></trkpt><trkpt lat="45.886495489837316" lon="10.731525840533003"><ele>656.0</ele><time>2026-05-01T15:57:46Z</time></trkpt><trkpt lat="45.886543017914256" lon="10.731449934938171"><ele>656.0</ele><time>2026-05-01T15:57:47Z</time></trkpt><trkpt lat="45.88656513175728" lon="10.731359460489218"><ele>656.0</ele><time>2026-05-01T15:57:47.999Z</time></trkpt><trkpt lat="45.88662442883302" lon="10.731240632545363"><ele>656.0</ele><time>2026-05-01T15:57:49.999Z</time></trkpt><trkpt lat="45.88668262923611" lon="10.731172293261436"><ele>656.0</ele><time>2026-05-01T15:57:51.999Z</time></trkpt><trkpt lat="45.88679074683006" lon="10.731170201147554"><ele>656.1666666666666</ele><time>2026-05-01T15:57:53.999Z</time></trkpt><trkpt lat="45.886860424998986" lon="10.731175781761987"><ele>656.3333333333333</ele><time>2026-05-01T15:57:54.999Z</time></trkpt><trkpt lat="45.88693896225938" lon="10.731187431567527"><ele>656.5</ele><time>2026-05-01T15:57:55.999Z</time></trkpt><trkpt lat="45.88702877899031" lon="10.73120202466686"><ele>656.6666666666666</ele><time>2026-05-01T15:57:56.999Z</time></trkpt><trkpt lat="45.88711958143196" lon="10.731216014310402"><ele>656.8333333333334</ele><time>2026-05-01T15:57:57.999Z</time></trkpt><trkpt lat="45.887218751300196" lon="10.731229653344588"><ele>657.0</ele><time>2026-05-01T15:57:58.999Z</time></trkpt><trkpt lat="45.88731386120938" lon="10.731242734036154"><ele>657.0</ele><time>2026-05-01T15:57:59.999Z</time></trkpt><trkpt lat="45.887405527987795" lon="10.731229008556618"><ele>657.0</ele><time>2026-05-01T15:58:00.999Z</time></trkpt><trkpt lat="45.88749894619398" lon="10.731237260699363"><ele>657.0</ele><time>2026-05-01T15:58:01.999Z</time></trkpt><trkpt lat="45.887589372343314" lon="10.731233721730616"><ele>657.0</ele><time>2026-05-01T15:58:03Z</time></trkpt><trkpt lat="45.88768121218065" lon="10.731208367786179"><ele>657.0</ele><time>2026-05-01T15:58:04Z</time></trkpt><trkpt lat="45.887769901570465" lon="10.731187712068348"><ele>657.3333333333334</ele><time>2026-05-01T15:58:05Z</time></trkpt><trkpt lat="45.887859980320044" lon="10.731160979099442"><ele>657.6666666666666</ele><time>2026-05-01T15:58:06Z</time></trkpt><trkpt lat="45.88795090721638" lon="10.731142658273164"><ele>658.0</ele><time>2026-05-01T15:58:07Z</time></trkpt><trkpt lat="45.88803525988772" lon="10.731136459284192"><ele>658.3333333333333</ele><time>2026-05-01T15:58:08Z</time></trkpt><trkpt lat="45.88810999422203" lon="10.731129731060706"><ele>658.6666666666666</ele><time>2026-05-01T15:58:09Z</time></trkpt><trkpt lat="45.88818197464639" lon="10.731126797428907"><ele>659.0</ele><time>2026-05-01T15:58:10Z</time></trkpt><trkpt lat="45.88830399928041" lon="10.731139069115363"><ele>659.0</ele><time>2026-05-01T15:58:12Z</time></trkpt><trkpt lat="45.88840675805899" lon="10.731145180991662"><ele>659.0</ele><time>2026-05-01T15:58:14Z</time></trkpt><trkpt lat="45.88847084747763" lon="10.731149826613011"><ele>659.0</ele><time>2026-05-01T15:58:16Z</time></trkpt><trkpt lat="45.88853540231069" lon="10.731187172740489"><ele>659.0</ele><time>2026-05-01T15:58:19Z</time></trkpt><trkpt lat="45.88857722969262" lon="10.73125747720432"><ele>659.0</ele><time>2026-05-01T15:58:20Z</time></trkpt><trkpt lat="45.88862719677504" lon="10.73132133520787"><ele>659.0</ele><time>2026-05-01T15:58:21Z</time></trkpt><trkpt lat="45.88875663586571" lon="10.731321118692922"><ele>659.5</ele><time>2026-05-01T15:58:23Z</time></trkpt><trkpt lat="45.88880800764667" lon="10.731245738877517"><ele>660.0</ele><time>2026-05-01T15:58:24Z</time></trkpt><trkpt lat="45.88882985670331" lon="10.731146328547833"><ele>660.5</ele><time>2026-05-01T15:58:25Z</time></trkpt><trkpt lat="45.88883508690528" lon="10.731048222859448"><ele>661.0</ele><time>2026-05-01T15:58:26Z</time></trkpt><trkpt lat="45.88883775998184" lon="10.730953677322654"><ele>661.5</ele><time>2026-05-01T15:58:27Z</time></trkpt><trkpt lat="45.888860588792646" lon="10.730807970810764"><ele>662.0</ele><time>2026-05-01T15:58:29Z</time></trkpt><trkpt lat="45.88891973329494" lon="10.73065030252732"><ele>662.0</ele><time>2026-05-01T15:58:31Z</time></trkpt><trkpt lat="45.88895626623818" lon="10.730560890852791"><ele>662.0</ele><time>2026-05-01T15:58:32Z</time></trkpt><trkpt lat="45.88898988842359" lon="10.730468710115442"><ele>662.0</ele><time>2026-05-01T15:58:33Z</time></trkpt><trkpt lat="45.88902420690565" lon="10.73038108977434"><ele>662.0</ele><time>2026-05-01T15:58:34Z</time></trkpt><trkpt lat="45.889057140049886" lon="10.73029889327242"><ele>662.0</ele><time>2026-05-01T15:58:35Z</time></trkpt><trkpt lat="45.88909461889116" lon="10.7302093386883"><ele>662.0</ele><time>2026-05-01T15:58:36Z</time></trkpt><trkpt lat="45.889126909335666" lon="10.730127186826625"><ele>662.0</ele><time>2026-05-01T15:58:37Z</time></trkpt><trkpt lat="45.88918932256397" lon="10.7299815732347"><ele>662.0</ele><time>2026-05-01T15:58:39Z</time></trkpt><trkpt lat="45.88922172064668" lon="10.729900477721571"><ele>662.0</ele><time>2026-05-01T15:58:40Z</time></trkpt><trkpt lat="45.889258159828024" lon="10.729811193613099"><ele>662.0</ele><time>2026-05-01T15:58:41Z</time></trkpt><trkpt lat="45.88929773059787" lon="10.729713260411215"><ele>662.0</ele><time>2026-05-01T15:58:42Z</time></trkpt><trkpt lat="45.889339052180574" lon="10.72961472712871"><ele>662.0</ele><time>2026-05-01T15:58:43Z</time></trkpt><trkpt lat="45.88938304191277" lon="10.729511928225715"><ele>662.0</ele><time>2026-05-01T15:58:44Z</time></trkpt><trkpt lat="45.889423377762206" lon="10.729415113238721"><ele>662.3333333333333</ele><time>2026-05-01T15:58:45Z</time></trkpt><trkpt lat="45.88946078792666" lon="10.729330647559243"><ele>662.6666666666666</ele><time>2026-05-01T15:58:46Z</time></trkpt><trkpt lat="45.889497312930935" lon="10.729256769075265"><ele>663.0</ele><time>2026-05-01T15:58:47Z</time></trkpt><trkpt lat="45.88953912884892" lon="10.72917385480231"><ele>663.3333333333334</ele><time>2026-05-01T15:58:48Z</time></trkpt><trkpt lat="45.8895843513262" lon="10.729081871925594"><ele>663.6666666666667</ele><time>2026-05-01T15:58:49Z</time></trkpt><trkpt lat="45.88963639259178" lon="10.72897154168847"><ele>664.0</ele><time>2026-05-01T15:58:50Z</time></trkpt><trkpt lat="45.88969660486331" lon="10.728854922794154"><ele>664.0</ele><time>2026-05-01T15:58:51Z</time></trkpt><trkpt lat="45.889760153033556" lon="10.728748443984184"><ele>664.0</ele><time>2026-05-01T15:58:52Z</time></trkpt><trkpt lat="45.88982184744739" lon="10.728651982323917"><ele>664.0</ele><time>2026-05-01T15:58:53Z</time></trkpt><trkpt lat="45.88989074724942" lon="10.728550978238307"><ele>664.0</ele><time>2026-05-01T15:58:54Z</time></trkpt><trkpt lat="45.8899616520708" lon="10.728452075841764"><ele>664.0</ele><time>2026-05-01T15:58:55Z</time></trkpt><trkpt lat="45.89003233448766" lon="10.728350139307013"><ele>664.25</ele><time>2026-05-01T15:58:56Z</time></trkpt><trkpt lat="45.89012286952759" lon="10.728248778122119"><ele>664.5</ele><time>2026-05-01T15:58:57Z</time></trkpt><trkpt lat="45.89021195340231" lon="10.728120385861931"><ele>664.75</ele><time>2026-05-01T15:58:58Z</time></trkpt><trkpt lat="45.89027823329266" lon="10.72799373899367"><ele>665.0</ele><time>2026-05-01T15:58:59Z</time></trkpt><trkpt lat="45.890354949268094" lon="10.727896091308944"><ele>665.0</ele><time>2026-05-01T15:59:00Z</time></trkpt><trkpt lat="45.890429650771054" lon="10.727807642308136"><ele>665.0</ele><time>2026-05-01T15:59:01Z</time></trkpt><trkpt lat="45.89049538051765" lon="10.727713215918527"><ele>665.0</ele><time>2026-05-01T15:59:02Z</time></trkpt><trkpt lat="45.89055870841083" lon="10.727591019895815"><ele>665.0</ele><time>2026-05-01T15:59:03Z</time></trkpt><trkpt lat="45.89062586176421" lon="10.72749860393644"><ele>665.0</ele><time>2026-05-01T15:59:04Z</time></trkpt><trkpt lat="45.890694878659964" lon="10.72740085459075"><ele>665.0</ele><time>2026-05-01T15:59:05Z</time></trkpt><trkpt lat="45.89076957501024" lon="10.727288554152272"><ele>665.0</ele><time>2026-05-01T15:59:06Z</time></trkpt><trkpt lat="45.89087113229976" lon="10.727176119301069"><ele>665.0</ele><time>2026-05-01T15:59:07Z</time></trkpt><trkpt lat="45.89097649225216" lon="10.727025518127547"><ele>665.0</ele><time>2026-05-01T15:59:08Z</time></trkpt><trkpt lat="45.89109629856239" lon="10.726854126361419"><ele>665.3333333333333</ele><time>2026-05-01T15:59:09Z</time></trkpt><trkpt lat="45.891219850232645" lon="10.72665675412328"><ele>665.6666666666666</ele><time>2026-05-01T15:59:10Z</time></trkpt><trkpt lat="45.89136029730041" lon="10.726459384154968"><ele>666.0</ele><time>2026-05-01T15:59:11Z</time></trkpt><trkpt lat="45.89150864242708" lon="10.726260144354722"><ele>665.6666666666666</ele><time>2026-05-01T15:59:12Z</time></trkpt><trkpt lat="45.89165537729103" lon="10.72605501613522"><ele>665.3333333333333</ele><time>2026-05-01T15:59:13Z</time></trkpt><trkpt lat="45.89179486215119" lon="10.725854143514619"><ele>665.0</ele><time>2026-05-01T15:59:14Z</time></trkpt><trkpt lat="45.89192665745918" lon="10.725661475714356"><ele>665.6666666666666</ele><time>2026-05-01T15:59:15Z</time></trkpt><trkpt lat="45.892049836607775" lon="10.725474240464168"><ele>666.3333333333334</ele><time>2026-05-01T15:59:16Z</time></trkpt><trkpt lat="45.892160696287874" lon="10.725313650849854"><ele>667.0</ele><time>2026-05-01T15:59:17Z</time></trkpt><trkpt lat="45.89227120305638" lon="10.7251606959244"><ele>667.25</ele><time>2026-05-01T15:59:18Z</time></trkpt><trkpt lat="45.892378166697654" lon="10.725005809255565"><ele>667.5</ele><time>2026-05-01T15:59:19Z</time></trkpt><trkpt lat="45.89247564818235" lon="10.724863920929906"><ele>667.75</ele><time>2026-05-01T15:59:20Z</time></trkpt><trkpt lat="45.89257046099925" lon="10.724734285948468"><ele>668.0</ele><time>2026-05-01T15:59:21Z</time></trkpt><trkpt lat="45.892651810064955" lon="10.72461357289514"><ele>668.8</ele><time>2026-05-01T15:59:22Z</time></trkpt><trkpt lat="45.89273443872419" lon="10.724504563063846"><ele>669.5999999999999</ele><time>2026-05-01T15:59:23Z</time></trkpt><trkpt lat="45.892812410308" lon="10.72438947553536"><ele>670.4000000000001</ele><time>2026-05-01T15:59:24Z</time></trkpt><trkpt lat="45.8928875909752" lon="10.72427466287065"><ele>671.2</ele><time>2026-05-01T15:59:25Z</time></trkpt><trkpt lat="45.8929671837246" lon="10.724159999073398"><ele>672.0</ele><time>2026-05-01T15:59:26Z</time></trkpt><trkpt lat="45.893047090017596" lon="10.724047442145261"><ele>672.5</ele><time>2026-05-01T15:59:27Z</time></trkpt><trkpt lat="45.89312743090453" lon="10.7239368890904"><ele>673.0</ele><time>2026-05-01T15:59:28Z</time></trkpt><trkpt lat="45.89320572053969" lon="10.723823316886108"><ele>673.5</ele><time>2026-05-01T15:59:29Z</time></trkpt><trkpt lat="45.89328656897245" lon="10.723706407362235"><ele>674.0</ele><time>2026-05-01T15:59:30Z</time></trkpt><trkpt lat="45.893373815096275" lon="10.723582537651497"><ele>675.5</ele><time>2026-05-01T15:59:31Z</time></trkpt><trkpt lat="45.893462699751275" lon="10.723453839025192"><ele>677.0</ele><time>2026-05-01T15:59:32Z</time></trkpt><trkpt lat="45.89355686027594" lon="10.723325670388656"><ele>678.5</ele><time>2026-05-01T15:59:33Z</time></trkpt><trkpt lat="45.8936476474705" lon="10.723193936161763"><ele>680.0</ele><time>2026-05-01T15:59:34Z</time></trkpt><trkpt lat="45.89373785159519" lon="10.723062968459411"><ele>680.0</ele><time>2026-05-01T15:59:35Z</time></trkpt><trkpt lat="45.893826645235144" lon="10.72294139813726"><ele>680.0</ele><time>2026-05-01T15:59:36Z</time></trkpt><trkpt lat="45.89391018922645" lon="10.722816239846177"><ele>680.0</ele><time>2026-05-01T15:59:37Z</time></trkpt><trkpt lat="45.893992802996905" lon="10.722674563287052"><ele>680.0</ele><time>2026-05-01T15:59:38Z</time></trkpt><trkpt lat="45.89406687304784" lon="10.722526211233617"><ele>680.25</ele><time>2026-05-01T15:59:39Z</time></trkpt><trkpt lat="45.894134214196946" lon="10.722375674837826"><ele>680.5</ele><time>2026-05-01T15:59:40Z</time></trkpt><trkpt lat="45.89419225543039" lon="10.722215569535496"><ele>680.75</ele><time>2026-05-01T15:59:41Z</time></trkpt><trkpt lat="45.89424938784419" lon="10.722057455240709"><ele>681.0</ele><time>2026-05-01T15:59:42Z</time></trkpt><trkpt lat="45.89430314708195" lon="10.721903960293595"><ele>682.5</ele><time>2026-05-01T15:59:43Z</time></trkpt><trkpt lat="45.89435899650029" lon="10.721746144531883"><ele>684.0</ele><time>2026-05-01T15:59:44Z</time></trkpt><trkpt lat="45.894413949515716" lon="10.72158715950228"><ele>685.5</ele><time>2026-05-01T15:59:45Z</time></trkpt><trkpt lat="45.894472184188544" lon="10.721429737553137"><ele>687.0</ele><time>2026-05-01T15:59:46Z</time></trkpt><trkpt lat="45.894526526015305" lon="10.721278090791323"><ele>687.0</ele><time>2026-05-01T15:59:47Z</time></trkpt><trkpt lat="45.89458074688926" lon="10.721131020848878"><ele>687.0</ele><time>2026-05-01T15:59:48Z</time></trkpt><trkpt lat="45.89463715908866" lon="10.720975689854583"><ele>687.0</ele><time>2026-05-01T15:59:49Z</time></trkpt><trkpt lat="45.894695543445245" lon="10.720825529931657"><ele>687.0</ele><time>2026-05-01T15:59:50Z</time></trkpt><trkpt lat="45.89474965040803" lon="10.720693811975533"><ele>687.3333333333334</ele><time>2026-05-01T15:59:51Z</time></trkpt><trkpt lat="45.89479739749008" lon="10.7205754952641"><ele>687.6666666666666</ele><time>2026-05-01T15:59:52Z</time></trkpt><trkpt lat="45.89484126733378" lon="10.720468948278482"><ele>688.0</ele><time>2026-05-01T15:59:53Z</time></trkpt><trkpt lat="45.89488275870361" lon="10.720372190006795"><ele>688.3333333333333</ele><time>2026-05-01T15:59:53.999Z</time></trkpt><trkpt lat="45.89492490268401" lon="10.720267671973382"><ele>688.6666666666666</ele><time>2026-05-01T15:59:54.999Z</time></trkpt><trkpt lat="45.89496975272913" lon="10.720157538408456"><ele>689.0</ele><time>2026-05-01T15:59:55.999Z</time></trkpt><trkpt lat="45.895012761966065" lon="10.720044314714828"><ele>689.2</ele><time>2026-05-01T15:59:56.999Z</time></trkpt><trkpt lat="45.89505204181235" lon="10.719924566923819"><ele>689.4000000000001</ele><time>2026-05-01T15:59:57.999Z</time></trkpt><trkpt lat="45.89507671842596" lon="10.71979370758324"><ele>689.6</ele><time>2026-05-01T15:59:58.999Z</time></trkpt><trkpt lat="45.89508995907583" lon="10.719652162173096"><ele>689.8</ele><time>2026-05-01T15:59:59.999Z</time></trkpt><trkpt lat="45.89509933081033" lon="10.719496701991895"><ele>690.0</ele><time>2026-05-01T16:00:00.999Z</time></trkpt><trkpt lat="45.895104873336294" lon="10.719321098207336"><ele>691.75</ele><time>2026-05-01T16:00:01.999Z</time></trkpt><trkpt lat="45.89510898808561" lon="10.71914002335308"><ele>693.5</ele><time>2026-05-01T16:00:02.999Z</time></trkpt><trkpt lat="45.89511518376048" lon="10.718952068188267"><ele>695.25</ele><time>2026-05-01T16:00:03.999Z</time></trkpt><trkpt lat="45.895125443223066" lon="10.71876584924414"><ele>697.0</ele><time>2026-05-01T16:00:04.999Z</time></trkpt><trkpt lat="45.89513157317803" lon="10.718592345762605"><ele>696.25</ele><time>2026-05-01T16:00:05.999Z</time></trkpt><trkpt lat="45.89513623568082" lon="10.718420103232237"><ele>695.5</ele><time>2026-05-01T16:00:06.999Z</time></trkpt><trkpt lat="45.89514376927554" lon="10.718250750510295"><ele>694.75</ele><time>2026-05-01T16:00:07.999Z</time></trkpt><trkpt lat="45.89514959564936" lon="10.718073118935036"><ele>694.0</ele><time>2026-05-01T16:00:08.999Z</time></trkpt><trkpt lat="45.89516041122605" lon="10.717903025485244"><ele>694.0</ele><time>2026-05-01T16:00:09.999Z</time></trkpt><trkpt lat="45.895166794210944" lon="10.717734335790432"><ele>694.0</ele><time>2026-05-01T16:00:10.999Z</time></trkpt><trkpt lat="45.8951740067375" lon="10.71757613639812"><ele>694.0</ele><time>2026-05-01T16:00:11.999Z</time></trkpt><trkpt lat="45.89518562170196" lon="10.717417259492596"><ele>694.0</ele><time>2026-05-01T16:00:12.999Z</time></trkpt><trkpt lat="45.8951890122995" lon="10.717265181245931"><ele>694.0</ele><time>2026-05-01T16:00:13.999Z</time></trkpt><trkpt lat="45.89519663390736" lon="10.717124340355166"><ele>694.0</ele><time>2026-05-01T16:00:14.999Z</time></trkpt><trkpt lat="45.89520215690107" lon="10.716974038008235"><ele>694.0</ele><time>2026-05-01T16:00:15.999Z</time></trkpt><trkpt lat="45.895206406383075" lon="10.716820644581274"><ele>694.0</ele><time>2026-05-01T16:00:16.999Z</time></trkpt><trkpt lat="45.89521293472439" lon="10.716664198201144"><ele>694.0</ele><time>2026-05-01T16:00:17.999Z</time></trkpt><trkpt lat="45.89523056868651" lon="10.716488064515925"><ele>694.0</ele><time>2026-05-01T16:00:18.999Z</time></trkpt><trkpt lat="45.895239411438844" lon="10.716292328305606"><ele>693.6666666666667</ele><time>2026-05-01T16:00:19.999Z</time></trkpt><trkpt lat="45.89524922521687" lon="10.716075098484792"><ele>693.3333333333334</ele><time>2026-05-01T16:00:20.999Z</time></trkpt><trkpt lat="45.89525857474534" lon="10.715853632307429"><ele>693.0</ele><time>2026-05-01T16:00:21.999Z</time></trkpt><trkpt lat="45.89525272885542" lon="10.715638027122857"><ele>693.0</ele><time>2026-05-01T16:00:22.999Z</time></trkpt><trkpt lat="45.89527116410198" lon="10.715439017279229"><ele>693.0</ele><time>2026-05-01T16:00:23.999Z</time></trkpt><trkpt lat="45.895274032647656" lon="10.71525153288774"><ele>693.0</ele><time>2026-05-01T16:00:25Z</time></trkpt><trkpt lat="45.89528435219996" lon="10.715077357857858"><ele>693.0</ele><time>2026-05-01T16:00:26Z</time></trkpt><trkpt lat="45.89529345621305" lon="10.714904292354982"><ele>692.25</ele><time>2026-05-01T16:00:27Z</time></trkpt><trkpt lat="45.8953029969488" lon="10.714726123854298"><ele>691.5</ele><time>2026-05-01T16:00:28Z</time></trkpt><trkpt lat="45.89531249998865" lon="10.714555826415179"><ele>690.75</ele><time>2026-05-01T16:00:29Z</time></trkpt><trkpt lat="45.895319517499104" lon="10.71439429611625"><ele>690.0</ele><time>2026-05-01T16:00:30Z</time></trkpt><trkpt lat="45.895325931995906" lon="10.714228117547759"><ele>688.75</ele><time>2026-05-01T16:00:31Z</time></trkpt><trkpt lat="45.89533028836195" lon="10.714069015820282"><ele>687.5</ele><time>2026-05-01T16:00:32Z</time></trkpt><trkpt lat="45.895330330421544" lon="10.713896527292562"><ele>686.25</ele><time>2026-05-01T16:00:33Z</time></trkpt><trkpt lat="45.895316447559075" lon="10.713704065769571"><ele>685.0</ele><time>2026-05-01T16:00:34Z</time></trkpt><trkpt lat="45.895313878363424" lon="10.713467906683304"><ele>684.3333333333334</ele><time>2026-05-01T16:00:35Z</time></trkpt><trkpt lat="45.89528604340868" lon="10.713188202960863"><ele>683.6666666666666</ele><time>2026-05-01T16:00:36Z</time></trkpt><trkpt lat="45.89521879101101" lon="10.712891427632698"><ele>683.0</ele><time>2026-05-01T16:00:37Z</time></trkpt><trkpt lat="45.89515383127747" lon="10.71258315261422"><ele>685.0</ele><time>2026-05-01T16:00:38Z</time></trkpt><trkpt lat="45.895057952470914" lon="10.712268114513492"><ele>687.0</ele><time>2026-05-01T16:00:39Z</time></trkpt><trkpt lat="45.89493559557391" lon="10.711962818327924"><ele>686.5</ele><time>2026-05-01T16:00:40Z</time></trkpt><trkpt lat="45.894795749041144" lon="10.711657785840924"><ele>686.0</ele><time>2026-05-01T16:00:41Z</time></trkpt><trkpt lat="45.894650347604845" lon="10.711354184686579"><ele>687.5</ele><time>2026-05-01T16:00:42Z</time></trkpt><trkpt lat="45.894506781226816" lon="10.711058181179563"><ele>689.0</ele><time>2026-05-01T16:00:43Z</time></trkpt><trkpt lat="45.89436685575733" lon="10.710773025495884"><ele>688.5</ele><time>2026-05-01T16:00:44Z</time></trkpt><trkpt lat="45.89423047693957" lon="10.710489056151367"><ele>688.0</ele><time>2026-05-01T16:00:45Z</time></trkpt><trkpt lat="45.894099612277934" lon="10.710205694038148"><ele>690.5</ele><time>2026-05-01T16:00:46Z</time></trkpt><trkpt lat="45.893972143441836" lon="10.70992579218467"><ele>693.0</ele><time>2026-05-01T16:00:47Z</time></trkpt><trkpt lat="45.8938460809994" lon="10.709653645900042"><ele>695.0</ele><time>2026-05-01T16:00:48Z</time></trkpt><trkpt lat="45.893722654245884" lon="10.709381842264332"><ele>697.0</ele><time>2026-05-01T16:00:49Z</time></trkpt><trkpt lat="45.89360415446834" lon="10.709120887217084"><ele>699.0</ele><time>2026-05-01T16:00:50Z</time></trkpt><trkpt lat="45.89349574065071" lon="10.708839233762909"><ele>697.0</ele><time>2026-05-01T16:00:51Z</time></trkpt><trkpt lat="45.89339897130483" lon="10.70855940287162"><ele>695.0</ele><time>2026-05-01T16:00:52Z</time></trkpt><trkpt lat="45.89330769031305" lon="10.708265194440044"><ele>693.0</ele><time>2026-05-01T16:00:53Z</time></trkpt><trkpt lat="45.89326669920005" lon="10.707939758479169"><ele>693.5</ele><time>2026-05-01T16:00:54Z</time></trkpt><trkpt lat="45.8932138563125" lon="10.707621659096182"><ele>694.0</ele><time>2026-05-01T16:00:55Z</time></trkpt><trkpt lat="45.893186164507604" lon="10.707280495486597"><ele>694.0</ele><time>2026-05-01T16:00:56Z</time></trkpt><trkpt lat="45.893161970169466" lon="10.706939299725727"><ele>694.0</ele><time>2026-05-01T16:00:57Z</time></trkpt><trkpt lat="45.89313535738779" lon="10.706587972438342"><ele>695.5</ele><time>2026-05-01T16:00:58Z</time></trkpt><trkpt lat="45.89310935234483" lon="10.70623899704104"><ele>697.0</ele><time>2026-05-01T16:00:59Z</time></trkpt><trkpt lat="45.89308271839451" lon="10.705889239090595"><ele>697.0</ele><time>2026-05-01T16:01:00Z</time></trkpt><trkpt lat="45.89305666556486" lon="10.70553568434718"><ele>697.0</ele><time>2026-05-01T16:01:01Z</time></trkpt><trkpt lat="45.89302880546199" lon="10.705183027450346"><ele>697.0</ele><time>2026-05-01T16:01:02Z</time></trkpt><trkpt lat="45.89299870592667" lon="10.704834421169142"><ele>697.0</ele><time>2026-05-01T16:01:03Z</time></trkpt><trkpt lat="45.89296853290283" lon="10.704479077134842"><ele>697.0</ele><time>2026-05-01T16:01:04Z</time></trkpt><trkpt lat="45.89293678062162" lon="10.704129445282765"><ele>697.0</ele><time>2026-05-01T16:01:05Z</time></trkpt><trkpt lat="45.89290822227104" lon="10.703778881435937"><ele>696.5</ele><time>2026-05-01T16:01:06Z</time></trkpt><trkpt lat="45.89288166967473" lon="10.70343110372024"><ele>696.0</ele><time>2026-05-01T16:01:07Z</time></trkpt><trkpt lat="45.892853460361195" lon="10.703085794306334"><ele>699.0</ele><time>2026-05-01T16:01:08Z</time></trkpt><trkpt lat="45.89282424974806" lon="10.702739314937492"><ele>702.0</ele><time>2026-05-01T16:01:09Z</time></trkpt><trkpt lat="45.89279511428221" lon="10.702396655904568"><ele>702.0</ele><time>2026-05-01T16:01:10Z</time></trkpt><trkpt lat="45.89276858341482" lon="10.702057766354727"><ele>702.0</ele><time>2026-05-01T16:01:11Z</time></trkpt><trkpt lat="45.89274171610871" lon="10.70172257785671"><ele>714.0</ele><time>2026-05-01T16:01:12Z</time></trkpt><trkpt lat="45.89271435682695" lon="10.701391361901369"><ele>726.0</ele><time>2026-05-01T16:01:13Z</time></trkpt><trkpt lat="45.892687867755484" lon="10.701062614237578"><ele>738.0</ele><time>2026-05-01T16:01:14Z</time></trkpt><trkpt lat="45.892659967001194" lon="10.700734764663583"><ele>750.0</ele><time>2026-05-01T16:01:15Z</time></trkpt><trkpt lat="45.892633664113966" lon="10.700410945596161"><ele>755.0</ele><time>2026-05-01T16:01:16Z</time></trkpt><trkpt lat="45.892612501566724" lon="10.700093538822076"><ele>760.0</ele><time>2026-05-01T16:01:17Z</time></trkpt><trkpt lat="45.892589503415856" lon="10.69977371355222"><ele>765.0</ele><time>2026-05-01T16:01:18Z</time></trkpt><trkpt lat="45.89256899085678" lon="10.699463557141934"><ele>753.3333333333334</ele><time>2026-05-01T16:01:19Z</time></trkpt><trkpt lat="45.892537909030814" lon="10.69915601282105"><ele>741.6666666666667</ele><time>2026-05-01T16:01:20Z</time></trkpt><trkpt lat="45.89249003371402" lon="10.698845949714688"><ele>730.0</ele><time>2026-05-01T16:01:21Z</time></trkpt><trkpt lat="45.8924196795809" lon="10.698545853652599"><ele>730.0</ele><time>2026-05-01T16:01:22Z</time></trkpt><trkpt lat="45.89233756967875" lon="10.698252411762924"><ele>730.0</ele><time>2026-05-01T16:01:23Z</time></trkpt><trkpt lat="45.892245775973265" lon="10.697958429388777"><ele>730.0</ele><time>2026-05-01T16:01:24Z</time></trkpt><trkpt lat="45.89216308535086" lon="10.697671745789606"><ele>735.3333333333334</ele><time>2026-05-01T16:01:25Z</time></trkpt><trkpt lat="45.89209418500329" lon="10.697356860942156"><ele>740.6666666666666</ele><time>2026-05-01T16:01:26Z</time></trkpt><trkpt lat="45.892037504917965" lon="10.697055391721761"><ele>746.0</ele><time>2026-05-01T16:01:27Z</time></trkpt><trkpt lat="45.89198462642844" lon="10.696762413027772"><ele>748.0</ele><time>2026-05-01T16:01:28Z</time></trkpt><trkpt lat="45.891946884333784" lon="10.696473463068932"><ele>750.0</ele><time>2026-05-01T16:01:29Z</time></trkpt><trkpt lat="45.89194041858622" lon="10.69616619401288"><ele>752.0</ele><time>2026-05-01T16:01:30Z</time></trkpt><trkpt lat="45.891973120642454" lon="10.695841722862836"><ele>752.0</ele><time>2026-05-01T16:01:31Z</time></trkpt><trkpt lat="45.89200838172917" lon="10.695516275495015"><ele>752.0</ele><time>2026-05-01T16:01:32Z</time></trkpt><trkpt lat="45.892038344989416" lon="10.69518819630727"><ele>746.5</ele><time>2026-05-01T16:01:33Z</time></trkpt><trkpt lat="45.89208766985832" lon="10.694867601783157"><ele>741.0</ele><time>2026-05-01T16:01:34Z</time></trkpt><trkpt lat="45.89218867914969" lon="10.694569706085709"><ele>735.5</ele><time>2026-05-01T16:01:35Z</time></trkpt><trkpt lat="45.89231997166627" lon="10.694296922320676"><ele>730.0</ele><time>2026-05-01T16:01:36Z</time></trkpt><trkpt lat="45.892438670304905" lon="10.694028043585277"><ele>730.0</ele><time>2026-05-01T16:01:37Z</time></trkpt><trkpt lat="45.89252197077401" lon="10.693744592047823"><ele>730.0</ele><time>2026-05-01T16:01:38Z</time></trkpt><trkpt lat="45.89256550916473" lon="10.693465836682424"><ele>730.0</ele><time>2026-05-01T16:01:39Z</time></trkpt><trkpt lat="45.892575499884906" lon="10.69317703322168"><ele>727.6666666666667</ele><time>2026-05-01T16:01:40Z</time></trkpt><trkpt lat="45.89255453124425" lon="10.692892220621836"><ele>725.3333333333334</ele><time>2026-05-01T16:01:41Z</time></trkpt><trkpt lat="45.89251744785787" lon="10.692611680736553"><ele>723.0</ele><time>2026-05-01T16:01:42Z</time></trkpt><trkpt lat="45.89248057452778" lon="10.692352293216706"><ele>720.75</ele><time>2026-05-01T16:01:43Z</time></trkpt><trkpt lat="45.89245318014619" lon="10.692116777950375"><ele>718.5</ele><time>2026-05-01T16:01:44Z</time></trkpt><trkpt lat="45.892433721333894" lon="10.69190916183248"><ele>716.25</ele><time>2026-05-01T16:01:45Z</time></trkpt><trkpt lat="45.892413846678686" lon="10.691717276901189"><ele>714.0</ele><time>2026-05-01T16:01:46Z</time></trkpt><trkpt lat="45.89239247055807" lon="10.691533540767866"><ele>714.0</ele><time>2026-05-01T16:01:47Z</time></trkpt><trkpt lat="45.892372452681926" lon="10.691345216522596"><ele>714.0</ele><time>2026-05-01T16:01:48Z</time></trkpt><trkpt lat="45.89235496618527" lon="10.691148434911472"><ele>714.0</ele><time>2026-05-01T16:01:49Z</time></trkpt><trkpt lat="45.89233985061854" lon="10.690944816321117"><ele>714.0</ele><time>2026-05-01T16:01:50Z</time></trkpt><trkpt lat="45.892323237250544" lon="10.690729328231349"><ele>715.3333333333334</ele><time>2026-05-01T16:01:51Z</time></trkpt><trkpt lat="45.89230257884539" lon="10.690485401923382"><ele>716.6666666666667</ele><time>2026-05-01T16:01:52Z</time></trkpt><trkpt lat="45.89228428729854" lon="10.690210925226793"><ele>718.0</ele><time>2026-05-01T16:01:53Z</time></trkpt><trkpt lat="45.89227397983782" lon="10.689902311859012"><ele>718.0</ele><time>2026-05-01T16:01:54Z</time></trkpt><trkpt lat="45.892270788001625" lon="10.689570640936179"><ele>718.0</ele><time>2026-05-01T16:01:55Z</time></trkpt><trkpt lat="45.89226507605741" lon="10.689224417170509"><ele>718.5</ele><time>2026-05-01T16:01:56Z</time></trkpt><trkpt lat="45.89225394010338" lon="10.68888411366436"><ele>719.0</ele><time>2026-05-01T16:01:57Z</time></trkpt><trkpt lat="45.89224008388282" lon="10.688569312426266"><ele>719.0</ele><time>2026-05-01T16:01:58Z</time></trkpt><trkpt lat="45.89222759786462" lon="10.688268679910983"><ele>719.0</ele><time>2026-05-01T16:01:59Z</time></trkpt><trkpt lat="45.89221906006686" lon="10.68796855984932"><ele>719.0</ele><time>2026-05-01T16:02:00Z</time></trkpt><trkpt lat="45.892218321005274" lon="10.687676622330677"><ele>719.3333333333333</ele><time>2026-05-01T16:02:01Z</time></trkpt><trkpt lat="45.89222888421481" lon="10.687381904354488"><ele>719.6666666666666</ele><time>2026-05-01T16:02:02Z</time></trkpt><trkpt lat="45.89226414334738" lon="10.687097477808509"><ele>720.0</ele><time>2026-05-01T16:02:03Z</time></trkpt><trkpt lat="45.89231196557607" lon="10.686831483286916"><ele>721.0</ele><time>2026-05-01T16:02:04Z</time></trkpt><trkpt lat="45.89236926415738" lon="10.686581669660477"><ele>722.0</ele><time>2026-05-01T16:02:05Z</time></trkpt><trkpt lat="45.89243714427072" lon="10.686331130057543"><ele>723.0</ele><time>2026-05-01T16:02:06Z</time></trkpt><trkpt lat="45.892505014889295" lon="10.686097038462453"><ele>723.3333333333334</ele><time>2026-05-01T16:02:07Z</time></trkpt><trkpt lat="45.892566595171104" lon="10.685881750569587"><ele>723.6666666666667</ele><time>2026-05-01T16:02:08Z</time></trkpt><trkpt lat="45.892619283712605" lon="10.685695628528194"><ele>724.0</ele><time>2026-05-01T16:02:09Z</time></trkpt><trkpt lat="45.89266651454742" lon="10.68548477398923"><ele>725.6666666666667</ele><time>2026-05-01T16:02:10Z</time></trkpt><trkpt lat="45.892726200945134" lon="10.68524989553114"><ele>727.3333333333334</ele><time>2026-05-01T16:02:11Z</time></trkpt><trkpt lat="45.89280402652156" lon="10.685009983077377"><ele>729.0</ele><time>2026-05-01T16:02:12Z</time></trkpt><trkpt lat="45.892896161617514" lon="10.684754628714273"><ele>729.0</ele><time>2026-05-01T16:02:13Z</time></trkpt><trkpt lat="45.892981222474575" lon="10.68447373362952"><ele>729.0</ele><time>2026-05-01T16:02:14Z</time></trkpt><trkpt lat="45.89306283040611" lon="10.684195328904474"><ele>729.0</ele><time>2026-05-01T16:02:15Z</time></trkpt><trkpt lat="45.8931394473002" lon="10.683892369730495"><ele>731.5</ele><time>2026-05-01T16:02:16Z</time></trkpt><trkpt lat="45.893196787424415" lon="10.683588095171173"><ele>734.0</ele><time>2026-05-01T16:02:17Z</time></trkpt><trkpt lat="45.893228579678215" lon="10.683259160610413"><ele>734.0</ele><time>2026-05-01T16:02:18Z</time></trkpt><trkpt lat="45.893245910320765" lon="10.682932982598379"><ele>734.0</ele><time>2026-05-01T16:02:19Z</time></trkpt><trkpt lat="45.89325621199427" lon="10.68261892095094"><ele>734.0</ele><time>2026-05-01T16:02:20Z</time></trkpt><trkpt lat="45.89326521404892" lon="10.682305198217124"><ele>734.3333333333333</ele><time>2026-05-01T16:02:21Z</time></trkpt><trkpt lat="45.8932546187152" lon="10.681996512738156"><ele>734.6666666666666</ele><time>2026-05-01T16:02:22Z</time></trkpt><trkpt lat="45.89320583720104" lon="10.681687683424764"><ele>735.0</ele><time>2026-05-01T16:02:23Z</time></trkpt><trkpt lat="45.89313100970041" lon="10.681370569004176"><ele>735.5</ele><time>2026-05-01T16:02:24Z</time></trkpt><trkpt lat="45.89303775255844" lon="10.681055151528843"><ele>736.0</ele><time>2026-05-01T16:02:25Z</time></trkpt><trkpt lat="45.89294186538139" lon="10.680729858641168"><ele>736.0</ele><time>2026-05-01T16:02:26Z</time></trkpt><trkpt lat="45.892845565151354" lon="10.680407648957688"><ele>736.0</ele><time>2026-05-01T16:02:27Z</time></trkpt><trkpt lat="45.89275073682625" lon="10.680086167290103"><ele>736.0</ele><time>2026-05-01T16:02:28Z</time></trkpt><trkpt lat="45.89268066591683" lon="10.679771446697988"><ele>736.0</ele><time>2026-05-01T16:02:29Z</time></trkpt><trkpt lat="45.89261924085878" lon="10.679451842391057"><ele>735.5</ele><time>2026-05-01T16:02:30Z</time></trkpt><trkpt lat="45.89258867967974" lon="10.679118064547845"><ele>735.0</ele><time>2026-05-01T16:02:31Z</time></trkpt><trkpt lat="45.892549082598286" lon="10.678774000940534"><ele>734.5</ele><time>2026-05-01T16:02:32Z</time></trkpt><trkpt lat="45.892524955897414" lon="10.678425532454778"><ele>734.0</ele><time>2026-05-01T16:02:33Z</time></trkpt><trkpt lat="45.89248923074913" lon="10.678081479531725"><ele>736.5</ele><time>2026-05-01T16:02:34Z</time></trkpt><trkpt lat="45.892440089183346" lon="10.677739867712978"><ele>739.0</ele><time>2026-05-01T16:02:35Z</time></trkpt><trkpt lat="45.89237506355676" lon="10.677406183286275"><ele>739.0</ele><time>2026-05-01T16:02:36Z</time></trkpt><trkpt lat="45.89228997545787" lon="10.677083197940595"><ele>739.0</ele><time>2026-05-01T16:02:37Z</time></trkpt><trkpt lat="45.89217055587951" lon="10.676773432873683"><ele>743.0</ele><time>2026-05-01T16:02:38Z</time></trkpt><trkpt lat="45.89203750854623" lon="10.67648717667678"><ele>747.0</ele><time>2026-05-01T16:02:39Z</time></trkpt><trkpt lat="45.891903622615395" lon="10.676203333106816"><ele>744.0</ele><time>2026-05-01T16:02:40Z</time></trkpt><trkpt lat="45.891769671394734" lon="10.675932061581674"><ele>741.0</ele><time>2026-05-01T16:02:41Z</time></trkpt><trkpt lat="45.89166887696701" lon="10.675651700353194"><ele>741.0</ele><time>2026-05-01T16:02:42Z</time></trkpt><trkpt lat="45.89142973261165" lon="10.67549106172394"><ele>741.0</ele><time>2026-05-01T16:02:43Z</time></trkpt><trkpt lat="45.89121149156008" lon="10.675350047851138"><ele>741.5</ele><time>2026-05-01T16:02:44Z</time></trkpt><trkpt lat="45.89099584311209" lon="10.675204864468386"><ele>742.0</ele><time>2026-05-01T16:02:45Z</time></trkpt><trkpt lat="45.89078592001468" lon="10.675044930834419"><ele>741.0</ele><time>2026-05-01T16:02:46Z</time></trkpt><trkpt lat="45.89057824423781" lon="10.674882869472611"><ele>740.0</ele><time>2026-05-01T16:02:47Z</time></trkpt><trkpt lat="45.89036860702451" lon="10.674719376135382"><ele>740.0</ele><time>2026-05-01T16:02:48Z</time></trkpt><trkpt lat="45.89016893721206" lon="10.674531759783939"><ele>740.0</ele><time>2026-05-01T16:02:49Z</time></trkpt><trkpt lat="45.88997492327487" lon="10.67437702616414"><ele>741.0</ele><time>2026-05-01T16:02:50Z</time></trkpt><trkpt lat="45.88979953385876" lon="10.674248845850824"><ele>742.0</ele><time>2026-05-01T16:02:51Z</time></trkpt><trkpt lat="45.88967087206976" lon="10.674044889462401"><ele>743.0</ele><time>2026-05-01T16:02:52Z</time></trkpt><trkpt lat="45.8895469014845" lon="10.67382602744442"><ele>743.3333333333333</ele><time>2026-05-01T16:02:53Z</time></trkpt><trkpt lat="45.88945730995125" lon="10.673545063249692"><ele>743.6666666666666</ele><time>2026-05-01T16:02:54Z</time></trkpt><trkpt lat="45.88934861386254" lon="10.673273194338721"><ele>744.0</ele><time>2026-05-01T16:02:55Z</time></trkpt><trkpt lat="45.8892438285452" lon="10.67298226452565"><ele>744.3333333333334</ele><time>2026-05-01T16:02:56Z</time></trkpt><trkpt lat="45.8891350433165" lon="10.6727038177013"><ele>744.6666666666667</ele><time>2026-05-01T16:02:57Z</time></trkpt><trkpt lat="45.88903111955068" lon="10.672425285287282"><ele>745.0</ele><time>2026-05-01T16:02:58Z</time></trkpt><trkpt lat="45.888933396611485" lon="10.672157167779826"><ele>745.3333333333334</ele><time>2026-05-01T16:02:59Z</time></trkpt><trkpt lat="45.888837554047484" lon="10.671907719857971"><ele>745.6666666666666</ele><time>2026-05-01T16:03:00Z</time></trkpt><trkpt lat="45.88872896230564" lon="10.671688163275817"><ele>746.0</ele><time>2026-05-01T16:03:01Z</time></trkpt><trkpt lat="45.888598449733536" lon="10.671483632667078"><ele>746.0</ele><time>2026-05-01T16:03:02Z</time></trkpt><trkpt lat="45.88846205843282" lon="10.671299872716602"><ele>746.0</ele><time>2026-05-01T16:03:03Z</time></trkpt><trkpt lat="45.88831526175269" lon="10.671109028971312"><ele>746.0</ele><time>2026-05-01T16:03:04Z</time></trkpt><trkpt lat="45.88817604606593" lon="10.6708839266256"><ele>746.6666666666666</ele><time>2026-05-01T16:03:05Z</time></trkpt><trkpt lat="45.888021119568414" lon="10.67066239292318"><ele>747.3333333333334</ele><time>2026-05-01T16:03:06Z</time></trkpt><trkpt lat="45.88786053533598" lon="10.670436422281986"><ele>748.0</ele><time>2026-05-01T16:03:07Z</time></trkpt><trkpt lat="45.88766671444962" lon="10.67024660299816"><ele>746.5</ele><time>2026-05-01T16:03:08Z</time></trkpt><trkpt lat="45.887480724900435" lon="10.670040140211594"><ele>745.0</ele><time>2026-05-01T16:03:09Z</time></trkpt><trkpt lat="45.887282217597644" lon="10.66984937670314"><ele>745.0</ele><time>2026-05-01T16:03:10Z</time></trkpt><trkpt lat="45.88707144316524" lon="10.66967276603127"><ele>745.0</ele><time>2026-05-01T16:03:11Z</time></trkpt><trkpt lat="45.88686680912215" lon="10.66950340092306"><ele>744.0</ele><time>2026-05-01T16:03:12Z</time></trkpt><trkpt lat="45.886673514699474" lon="10.669332223799952"><ele>743.0</ele><time>2026-05-01T16:03:13Z</time></trkpt><trkpt lat="45.88647466261588" lon="10.669165512026835"><ele>743.0</ele><time>2026-05-01T16:03:14Z</time></trkpt><trkpt lat="45.88627402767571" lon="10.668998675925797"><ele>743.0</ele><time>2026-05-01T16:03:15Z</time></trkpt><trkpt lat="45.88607896562268" lon="10.668826743223413"><ele>743.0</ele><time>2026-05-01T16:03:16Z</time></trkpt><trkpt lat="45.88588244388479" lon="10.668656366891609"><ele>743.0</ele><time>2026-05-01T16:03:17Z</time></trkpt><trkpt lat="45.885687055700856" lon="10.668483070535004"><ele>743.0</ele><time>2026-05-01T16:03:18.001Z</time></trkpt><trkpt lat="45.88549136456695" lon="10.668306934935964"><ele>743.0</ele><time>2026-05-01T16:03:19.001Z</time></trkpt><trkpt lat="45.885295999744805" lon="10.668136967173172"><ele>743.0</ele><time>2026-05-01T16:03:20.001Z</time></trkpt><trkpt lat="45.88509829136356" lon="10.667967803311825"><ele>743.0</ele><time>2026-05-01T16:03:21.001Z</time></trkpt><trkpt lat="45.88490176445203" lon="10.667796461590056"><ele>742.5</ele><time>2026-05-01T16:03:22.001Z</time></trkpt><trkpt lat="45.8847046896596" lon="10.667627610721661"><ele>742.0</ele><time>2026-05-01T16:03:23.001Z</time></trkpt><trkpt lat="45.884504637517075" lon="10.667456128223117"><ele>742.0</ele><time>2026-05-01T16:03:24.001Z</time></trkpt><trkpt lat="45.88430491314996" lon="10.667289290924789"><ele>742.0</ele><time>2026-05-01T16:03:25.001Z</time></trkpt><trkpt lat="45.88410324664573" lon="10.667124968466629"><ele>745.0</ele><time>2026-05-01T16:03:26.001Z</time></trkpt><trkpt lat="45.88389904298328" lon="10.666967086149636"><ele>748.0</ele><time>2026-05-01T16:03:27.001Z</time></trkpt><trkpt lat="45.883684700470326" lon="10.666819084495767"><ele>748.0</ele><time>2026-05-01T16:03:28.001Z</time></trkpt><trkpt lat="45.883469501926065" lon="10.666676446671712"><ele>748.0</ele><time>2026-05-01T16:03:29.001Z</time></trkpt><trkpt lat="45.88324499471659" lon="10.66652855275642"><ele>748.0</ele><time>2026-05-01T16:03:30.001Z</time></trkpt><trkpt lat="45.88301892514238" lon="10.666379769180164"><ele>748.0</ele><time>2026-05-01T16:03:31.001Z</time></trkpt><trkpt lat="45.882793495369846" lon="10.666229919837953"><ele>750.5</ele><time>2026-05-01T16:03:32.001Z</time></trkpt><trkpt lat="45.88257321670007" lon="10.66607786197543"><ele>753.0</ele><time>2026-05-01T16:03:33.001Z</time></trkpt><trkpt lat="45.882354462701095" lon="10.665923294245003"><ele>753.0</ele><time>2026-05-01T16:03:34.001Z</time></trkpt><trkpt lat="45.882143610013465" lon="10.665754659506579"><ele>753.0</ele><time>2026-05-01T16:03:35.001Z</time></trkpt><trkpt lat="45.88194070399965" lon="10.665570056518266"><ele>750.5</ele><time>2026-05-01T16:03:36.001Z</time></trkpt><trkpt lat="45.88174366074197" lon="10.665373791312543"><ele>748.0</ele><time>2026-05-01T16:03:37.001Z</time></trkpt><trkpt lat="45.88154414784328" lon="10.665175980265936"><ele>748.0</ele><time>2026-05-01T16:03:38.001Z</time></trkpt><trkpt lat="45.881344069898034" lon="10.66497486182911"><ele>748.0</ele><time>2026-05-01T16:03:39.001Z</time></trkpt><trkpt lat="45.88114012382186" lon="10.664775768961682"><ele>748.0</ele><time>2026-05-01T16:03:40.001Z</time></trkpt><trkpt lat="45.88093436974838" lon="10.66458497647885"><ele>748.0</ele><time>2026-05-01T16:03:41.001Z</time></trkpt><trkpt lat="45.880724657643746" lon="10.664403457678292"><ele>749.0</ele><time>2026-05-01T16:03:42.001Z</time></trkpt><trkpt lat="45.88050503979561" lon="10.664257011510504"><ele>750.0</ele><time>2026-05-01T16:03:43.001Z</time></trkpt><trkpt lat="45.88027232403404" lon="10.664153792976425"><ele>748.0</ele><time>2026-05-01T16:03:44.001Z</time></trkpt><trkpt lat="45.88003645860174" lon="10.664093813483285"><ele>746.0</ele><time>2026-05-01T16:03:45.001Z</time></trkpt><trkpt lat="45.87980716717174" lon="10.664051657418481"><ele>746.0</ele><time>2026-05-01T16:03:46.001Z</time></trkpt><trkpt lat="45.87959113752561" lon="10.664009616284817"><ele>746.0</ele><time>2026-05-01T16:03:47.001Z</time></trkpt><trkpt lat="45.879387291083134" lon="10.663961616462423"><ele>746.0</ele><time>2026-05-01T16:03:48.001Z</time></trkpt><trkpt lat="45.87920318216609" lon="10.663910732002591"><ele>743.3333333333333</ele><time>2026-05-01T16:03:49.001Z</time></trkpt><trkpt lat="45.87904024591917" lon="10.663857434421585"><ele>740.6666666666666</ele><time>2026-05-01T16:03:50.001Z</time></trkpt><trkpt lat="45.87889275691759" lon="10.663777274000017"><ele>738.0</ele><time>2026-05-01T16:03:51.001Z</time></trkpt><trkpt lat="45.8787680680248" lon="10.663648859880084"><ele>739.6666666666666</ele><time>2026-05-01T16:03:52.001Z</time></trkpt><trkpt lat="45.87865070292059" lon="10.663487585736956"><ele>741.3333333333333</ele><time>2026-05-01T16:03:53.001Z</time></trkpt><trkpt lat="45.87852963057964" lon="10.663326695101937"><ele>743.0</ele><time>2026-05-01T16:03:54.001Z</time></trkpt><trkpt lat="45.8783969944584" lon="10.663168777784879"><ele>743.0</ele><time>2026-05-01T16:03:55.001Z</time></trkpt><trkpt lat="45.87826243405004" lon="10.663010157970051"><ele>743.0</ele><time>2026-05-01T16:03:56.001Z</time></trkpt><trkpt lat="45.87812627293216" lon="10.66284811884123"><ele>743.0</ele><time>2026-05-01T16:03:57.001Z</time></trkpt><trkpt lat="45.87799410438262" lon="10.662692717713618"><ele>743.3333333333333</ele><time>2026-05-01T16:03:58.001Z</time></trkpt><trkpt lat="45.87786104444677" lon="10.662542272035516"><ele>743.6666666666666</ele><time>2026-05-01T16:03:59.001Z</time></trkpt><trkpt lat="45.877732351489364" lon="10.662388303624075"><ele>744.0</ele><time>2026-05-01T16:04:00.001Z</time></trkpt><trkpt lat="45.87760113543546" lon="10.662228694950977"><ele>744.0</ele><time>2026-05-01T16:04:01.001Z</time></trkpt><trkpt lat="45.8774733836941" lon="10.66206039807518"><ele>744.0</ele><time>2026-05-01T16:04:02.001Z</time></trkpt><trkpt lat="45.8773461577623" lon="10.661876717728314"><ele>744.0</ele><time>2026-05-01T16:04:03.001Z</time></trkpt><trkpt lat="45.877227283768306" lon="10.661657260748594"><ele>745.6666666666666</ele><time>2026-05-01T16:04:04.001Z</time></trkpt><trkpt lat="45.87711945641859" lon="10.661418663627163"><ele>747.3333333333333</ele><time>2026-05-01T16:04:05.001Z</time></trkpt><trkpt lat="45.877012781170436" lon="10.661165890744241"><ele>749.0</ele><time>2026-05-01T16:04:06.001Z</time></trkpt><trkpt lat="45.876898827762496" lon="10.660903717245715"><ele>753.5</ele><time>2026-05-01T16:04:07.001Z</time></trkpt><trkpt lat="45.87677564003836" lon="10.660630053216419"><ele>758.0</ele><time>2026-05-01T16:04:08.001Z</time></trkpt><trkpt lat="45.87662546815796" lon="10.66033838332566"><ele>748.0</ele><time>2026-05-01T16:04:09.001Z</time></trkpt><trkpt lat="45.87647319421553" lon="10.660006172233848"><ele>738.0</ele><time>2026-05-01T16:04:10.001Z</time></trkpt><trkpt lat="45.87633091001978" lon="10.659641594822387"><ele>739.0</ele><time>2026-05-01T16:04:11.001Z</time></trkpt><trkpt lat="45.87617982187279" lon="10.659255247577121"><ele>740.0</ele><time>2026-05-01T16:04:12.001Z</time></trkpt><trkpt lat="45.876009938928384" lon="10.65887267467607"><ele>736.5</ele><time>2026-05-01T16:04:13.001Z</time></trkpt><trkpt lat="45.87584058986374" lon="10.65850302136556"><ele>733.0</ele><time>2026-05-01T16:04:14.001Z</time></trkpt><trkpt lat="45.87567823699314" lon="10.658170562597272"><ele>733.0</ele><time>2026-05-01T16:04:15.001Z</time></trkpt><trkpt lat="45.87549998903994" lon="10.65786324370712"><ele>733.0</ele><time>2026-05-01T16:04:16.001Z</time></trkpt><trkpt lat="45.875290154927505" lon="10.657583834258972"><ele>733.0</ele><time>2026-05-01T16:04:17.001Z</time></trkpt><trkpt lat="45.87507386434846" lon="10.657313235842848"><ele>733.0</ele><time>2026-05-01T16:04:18.001Z</time></trkpt><trkpt lat="45.874862408106004" lon="10.657046842269581"><ele>735.0</ele><time>2026-05-01T16:04:19.001Z</time></trkpt><trkpt lat="45.874657040370806" lon="10.656788178117413"><ele>737.0</ele><time>2026-05-01T16:04:20.001Z</time></trkpt><trkpt lat="45.87446719752495" lon="10.656543066198596"><ele>737.0</ele><time>2026-05-01T16:04:21.001Z</time></trkpt><trkpt lat="45.874288540440695" lon="10.656307512232491"><ele>737.0</ele><time>2026-05-01T16:04:22.001Z</time></trkpt><trkpt lat="45.874136128910514" lon="10.656052801670416"><ele>737.3333333333333</ele><time>2026-05-01T16:04:23.001Z</time></trkpt><trkpt lat="45.87400020084157" lon="10.655789915034633"><ele>737.6666666666666</ele><time>2026-05-01T16:04:24.001Z</time></trkpt><trkpt lat="45.87389807231544" lon="10.655508991510057"><ele>738.0</ele><time>2026-05-01T16:04:25.001Z</time></trkpt><trkpt lat="45.873793187307115" lon="10.655215702145243"><ele>738.0</ele><time>2026-05-01T16:04:26.001Z</time></trkpt><trkpt lat="45.873732978989516" lon="10.654878964813522"><ele>738.0</ele><time>2026-05-01T16:04:27.001Z</time></trkpt><trkpt lat="45.873679619713656" lon="10.654547135831235"><ele>740.3333333333334</ele><time>2026-05-01T16:04:28.001Z</time></trkpt><trkpt lat="45.87361202561938" lon="10.65424195408319"><ele>742.6666666666667</ele><time>2026-05-01T16:04:29.001Z</time></trkpt><trkpt lat="45.873518992460475" lon="10.65396424712648"><ele>745.0</ele><time>2026-05-01T16:04:30.001Z</time></trkpt><trkpt lat="45.873393403616795" lon="10.653730326127553"><ele>743.0</ele><time>2026-05-01T16:04:31.001Z</time></trkpt><trkpt lat="45.87322331154064" lon="10.653540715138442"><ele>741.0</ele><time>2026-05-01T16:04:32.001Z</time></trkpt><trkpt lat="45.87303435776044" lon="10.653381695451309"><ele>739.0</ele><time>2026-05-01T16:04:33.001Z</time></trkpt><trkpt lat="45.87289710675412" lon="10.653132341770643"><ele>739.0</ele><time>2026-05-01T16:04:34.001Z</time></trkpt><trkpt lat="45.87276491343415" lon="10.652842988784439"><ele>739.0</ele><time>2026-05-01T16:04:35.001Z</time></trkpt><trkpt lat="45.87261961338742" lon="10.652540546164488"><ele>738.0</ele><time>2026-05-01T16:04:36.001Z</time></trkpt><trkpt lat="45.872483133816935" lon="10.652224462767336"><ele>737.0</ele><time>2026-05-01T16:04:37.001Z</time></trkpt><trkpt lat="45.872350864499005" lon="10.651925438689801"><ele>737.0</ele><time>2026-05-01T16:04:38.001Z</time></trkpt><trkpt lat="45.87222767297405" lon="10.651657240975412"><ele>737.0</ele><time>2026-05-01T16:04:39.001Z</time></trkpt><trkpt lat="45.872119806488996" lon="10.651441866232148"><ele>737.0</ele><time>2026-05-01T16:04:40.001Z</time></trkpt><trkpt lat="45.87198216409043" lon="10.651286601718557"><ele>737.0</ele><time>2026-05-01T16:04:41.001Z</time></trkpt><trkpt lat="45.87179972073848" lon="10.651188775913559"><ele>737.0</ele><time>2026-05-01T16:04:42.001Z</time></trkpt><trkpt lat="45.871598669555624" lon="10.651125082495351"><ele>737.0</ele><time>2026-05-01T16:04:43.001Z</time></trkpt><trkpt lat="45.87142325341089" lon="10.650991589724313"><ele>737.0</ele><time>2026-05-01T16:04:44.001Z</time></trkpt><trkpt lat="45.8712602253317" lon="10.650804704239835"><ele>737.0</ele><time>2026-05-01T16:04:45.001Z</time></trkpt><trkpt lat="45.87112018536284" lon="10.650562314931404"><ele>737.0</ele><time>2026-05-01T16:04:46.001Z</time></trkpt><trkpt lat="45.87101654025366" lon="10.650282746621034"><ele>734.3333333333333</ele><time>2026-05-01T16:04:47.001Z</time></trkpt><trkpt lat="45.87094744995793" lon="10.649978691994102"><ele>731.6666666666666</ele><time>2026-05-01T16:04:48.001Z</time></trkpt><trkpt lat="45.870865536879194" lon="10.64971294230343"><ele>729.0</ele><time>2026-05-01T16:04:49.001Z</time></trkpt><trkpt lat="45.870774176168986" lon="10.649491162375742"><ele>736.6666666666666</ele><time>2026-05-01T16:04:50.001Z</time></trkpt><trkpt lat="45.870626936724435" lon="10.64932202983812"><ele>744.3333333333333</ele><time>2026-05-01T16:04:51.001Z</time></trkpt><trkpt lat="45.87045140041418" lon="10.649190880812938"><ele>752.0</ele><time>2026-05-01T16:04:52.001Z</time></trkpt><trkpt lat="45.87021941569649" lon="10.649133320456432"><ele>740.0</ele><time>2026-05-01T16:04:53.001Z</time></trkpt><trkpt lat="45.86997798204687" lon="10.649103642590669"><ele>728.0</ele><time>2026-05-01T16:04:54.001Z</time></trkpt><trkpt lat="45.86972669275027" lon="10.6490883911609"><ele>728.0</ele><time>2026-05-01T16:04:55.001Z</time></trkpt><trkpt lat="45.869480808206006" lon="10.649046921421872"><ele>728.0</ele><time>2026-05-01T16:04:56.001Z</time></trkpt><trkpt lat="45.86925447743754" lon="10.648929722921123"><ele>727.5</ele><time>2026-05-01T16:04:57.001Z</time></trkpt><trkpt lat="45.86902626035231" lon="10.648811115215388"><ele>727.0</ele><time>2026-05-01T16:04:58.001Z</time></trkpt><trkpt lat="45.86879727077378" lon="10.648711099850063"><ele>728.0</ele><time>2026-05-01T16:04:59.001Z</time></trkpt><trkpt lat="45.86858091155447" lon="10.648577422892396"><ele>729.0</ele><time>2026-05-01T16:05:00.001Z</time></trkpt><trkpt lat="45.868372692688084" lon="10.648469840401571"><ele>730.0</ele><time>2026-05-01T16:05:01.001Z</time></trkpt><trkpt lat="45.86818418000237" lon="10.648361654512021"><ele>731.0</ele><time>2026-05-01T16:05:02.001Z</time></trkpt><trkpt lat="45.868004938688685" lon="10.648250445702667"><ele>732.0</ele><time>2026-05-01T16:05:03.001Z</time></trkpt><trkpt lat="45.8678365232742" lon="10.648097208938534"><ele>732.0</ele><time>2026-05-01T16:05:04.001Z</time></trkpt><trkpt lat="45.86765412233369" lon="10.64795306468419"><ele>732.0</ele><time>2026-05-01T16:05:05.001Z</time></trkpt><trkpt lat="45.867499502825915" lon="10.64770606572178"><ele>732.0</ele><time>2026-05-01T16:05:06.001Z</time></trkpt><trkpt lat="45.86732312997532" lon="10.647500392838994"><ele>731.0</ele><time>2026-05-01T16:05:07.001Z</time></trkpt><trkpt lat="45.86714827420932" lon="10.647294904034613"><ele>730.0</ele><time>2026-05-01T16:05:08.001Z</time></trkpt><trkpt lat="45.86697314478493" lon="10.64709268206316"><ele>731.3333333333334</ele><time>2026-05-01T16:05:09.001Z</time></trkpt><trkpt lat="45.86680042952205" lon="10.646896536297069"><ele>732.6666666666666</ele><time>2026-05-01T16:05:10.001Z</time></trkpt><trkpt lat="45.866633440987655" lon="10.646700131424298"><ele>734.0</ele><time>2026-05-01T16:05:11.001Z</time></trkpt><trkpt lat="45.86645803392141" lon="10.646521860067253"><ele>734.0</ele><time>2026-05-01T16:05:12.001Z</time></trkpt><trkpt lat="45.86625981855889" lon="10.646386964273335"><ele>734.0</ele><time>2026-05-01T16:05:13.001Z</time></trkpt><trkpt lat="45.86604696188613" lon="10.646303476695875"><ele>734.0</ele><time>2026-05-01T16:05:14.001Z</time></trkpt><trkpt lat="45.865824267973174" lon="10.646256639479292"><ele>730.6666666666666</ele><time>2026-05-01T16:05:15.001Z</time></trkpt><trkpt lat="45.86561265944545" lon="10.64622081798373"><ele>727.3333333333334</ele><time>2026-05-01T16:05:16.001Z</time></trkpt><trkpt lat="45.865416512219454" lon="10.64617275201827"><ele>724.0</ele><time>2026-05-01T16:05:17.001Z</time></trkpt><trkpt lat="45.86522252960251" lon="10.646099217941487"><ele>728.3333333333334</ele><time>2026-05-01T16:05:18.001Z</time></trkpt><trkpt lat="45.86503860124593" lon="10.645990945413146"><ele>732.6666666666666</ele><time>2026-05-01T16:05:19.001Z</time></trkpt><trkpt lat="45.864861858981854" lon="10.645870173339896"><ele>737.0</ele><time>2026-05-01T16:05:20.001Z</time></trkpt><trkpt lat="45.86469163203733" lon="10.64572698701692"><ele>737.0</ele><time>2026-05-01T16:05:21.001Z</time></trkpt><trkpt lat="45.86452690990422" lon="10.645566902167852"><ele>737.0</ele><time>2026-05-01T16:05:22.001Z</time></trkpt><trkpt lat="45.864371584865424" lon="10.645389791109343"><ele>737.0</ele><time>2026-05-01T16:05:23.001Z</time></trkpt><trkpt lat="45.86422446475842" lon="10.64520192531445"><ele>739.3333333333333</ele><time>2026-05-01T16:05:24.001Z</time></trkpt><trkpt lat="45.864074304810146" lon="10.645009536893912"><ele>741.6666666666666</ele><time>2026-05-01T16:05:25.001Z</time></trkpt><trkpt lat="45.86392819306293" lon="10.644814474530234"><ele>744.0</ele><time>2026-05-01T16:05:26.001Z</time></trkpt><trkpt lat="45.86377986892792" lon="10.644630072609509"><ele>741.6666666666666</ele><time>2026-05-01T16:05:27.001Z</time></trkpt><trkpt lat="45.86362953917278" lon="10.644446089736606"><ele>739.3333333333333</ele><time>2026-05-01T16:05:28.001Z</time></trkpt><trkpt lat="45.863484040748325" lon="10.64423851188035"><ele>737.0</ele><time>2026-05-01T16:05:29.001Z</time></trkpt><trkpt lat="45.86335639748284" lon="10.644015366695825"><ele>737.0</ele><time>2026-05-01T16:05:30.001Z</time></trkpt><trkpt lat="45.863241645097986" lon="10.643761483196537"><ele>737.0</ele><time>2026-05-01T16:05:31.001Z</time></trkpt><trkpt lat="45.86313670868651" lon="10.643489952282001"><ele>737.0</ele><time>2026-05-01T16:05:32.001Z</time></trkpt><trkpt lat="45.86303778970664" lon="10.643219675325446"><ele>738.6666666666666</ele><time>2026-05-01T16:05:33.001Z</time></trkpt><trkpt lat="45.862918941501505" lon="10.642962020553824"><ele>740.3333333333334</ele><time>2026-05-01T16:05:34.001Z</time></trkpt><trkpt lat="45.862765711762066" lon="10.642725038948894"><ele>742.0</ele><time>2026-05-01T16:05:35.001Z</time></trkpt><trkpt lat="45.862592270509765" lon="10.642508187157146"><ele>742.0</ele><time>2026-05-01T16:05:36.001Z</time></trkpt><trkpt lat="45.862415493133526" lon="10.64229971597557"><ele>742.0</ele><time>2026-05-01T16:05:37.001Z</time></trkpt><trkpt lat="45.86223595929891" lon="10.642091964073382"><ele>759.5</ele><time>2026-05-01T16:05:38.001Z</time></trkpt><trkpt lat="45.86205882946564" lon="10.641872627763236"><ele>777.0</ele><time>2026-05-01T16:05:39.001Z</time></trkpt><trkpt lat="45.861889290569415" lon="10.641650050581275"><ele>750.5</ele><time>2026-05-01T16:05:40.001Z</time></trkpt><trkpt lat="45.8617180596342" lon="10.64142155660538"><ele>724.0</ele><time>2026-05-01T16:05:41.001Z</time></trkpt><trkpt lat="45.86154612541807" lon="10.641191458438291"><ele>738.0</ele><time>2026-05-01T16:05:42.001Z</time></trkpt><trkpt lat="45.861370827544455" lon="10.640964511585306"><ele>752.0</ele><time>2026-05-01T16:05:43.001Z</time></trkpt><trkpt lat="45.86119649066334" lon="10.640733549260014"><ele>752.0</ele><time>2026-05-01T16:05:44.001Z</time></trkpt><trkpt lat="45.861026992831924" lon="10.64050032589076"><ele>752.0</ele><time>2026-05-01T16:05:45.001Z</time></trkpt><trkpt lat="45.86085160297906" lon="10.640260817226247"><ele>743.5</ele><time>2026-05-01T16:05:46.001Z</time></trkpt><trkpt lat="45.86067777001412" lon="10.640025919270762"><ele>735.0</ele><time>2026-05-01T16:05:47.001Z</time></trkpt><trkpt lat="45.86050107424564" lon="10.63978562230531"><ele>735.0</ele><time>2026-05-01T16:05:48.001Z</time></trkpt><trkpt lat="45.86032638846182" lon="10.63955297703413"><ele>735.0</ele><time>2026-05-01T16:05:49.001Z</time></trkpt><trkpt lat="45.86015183492071" lon="10.639314657247438"><ele>731.0</ele><time>2026-05-01T16:05:50.001Z</time></trkpt><trkpt lat="45.85998172850673" lon="10.639071826063528"><ele>727.0</ele><time>2026-05-01T16:05:51.001Z</time></trkpt><trkpt lat="45.85982801817121" lon="10.638816603432133"><ele>737.3333333333334</ele><time>2026-05-01T16:05:52.001Z</time></trkpt><trkpt lat="45.85969089166093" lon="10.638563095170907"><ele>747.6666666666666</ele><time>2026-05-01T16:05:53.001Z</time></trkpt><trkpt lat="45.85955966971166" lon="10.638310408562747"><ele>758.0</ele><time>2026-05-01T16:05:54.001Z</time></trkpt><trkpt lat="45.85940509945929" lon="10.638080255279643"><ele>757.3333333333333</ele><time>2026-05-01T16:05:55.001Z</time></trkpt><trkpt lat="45.85922846869483" lon="10.637882770031363"><ele>756.6666666666666</ele><time>2026-05-01T16:05:56.001Z</time></trkpt><trkpt lat="45.85903345246868" lon="10.63773184004337"><ele>756.0</ele><time>2026-05-01T16:05:57.001Z</time></trkpt><trkpt lat="45.85882338867525" lon="10.637624349248373"><ele>756.0</ele><time>2026-05-01T16:05:58.001Z</time></trkpt><trkpt lat="45.85860294598732" lon="10.637546861279128"><ele>756.0</ele><time>2026-05-01T16:05:59.001Z</time></trkpt><trkpt lat="45.8583864760886" lon="10.637507093934127"><ele>756.0</ele><time>2026-05-01T16:06:00.001Z</time></trkpt><trkpt lat="45.85818852198336" lon="10.637502877895843"><ele>746.0</ele><time>2026-05-01T16:06:01.001Z</time></trkpt><trkpt lat="45.85800847955858" lon="10.637491661046404"><ele>736.0</ele><time>2026-05-01T16:06:02.001Z</time></trkpt><trkpt lat="45.857832587561525" lon="10.637418278376785"><ele>726.0</ele><time>2026-05-01T16:06:03.001Z</time></trkpt><trkpt lat="45.85765594265846" lon="10.63727421491786"><ele>730.3333333333334</ele><time>2026-05-01T16:06:04.001Z</time></trkpt><trkpt lat="45.857470357297004" lon="10.637103870592032"><ele>734.6666666666667</ele><time>2026-05-01T16:06:05.001Z</time></trkpt><trkpt lat="45.85726939885006" lon="10.636955065160452"><ele>739.0</ele><time>2026-05-01T16:06:06.001Z</time></trkpt><trkpt lat="45.857041305786915" lon="10.636878049039467"><ele>739.0</ele><time>2026-05-01T16:06:07.001Z</time></trkpt><trkpt lat="45.85680055363966" lon="10.636844060904757"><ele>739.0</ele><time>2026-05-01T16:06:08.001Z</time></trkpt><trkpt lat="45.85654438484627" lon="10.636827216799794"><ele>739.0</ele><time>2026-05-01T16:06:09.001Z</time></trkpt><trkpt lat="45.85629703319653" lon="10.636799249727085"><ele>739.0</ele><time>2026-05-01T16:06:10.001Z</time></trkpt><trkpt lat="45.85606014181243" lon="10.636775129194994"><ele>739.0</ele><time>2026-05-01T16:06:11.001Z</time></trkpt><trkpt lat="45.85583763014034" lon="10.636746557237473"><ele>739.0</ele><time>2026-05-01T16:06:12.001Z</time></trkpt><trkpt lat="45.85562357466896" lon="10.636716449416332"><ele>739.0</ele><time>2026-05-01T16:06:13.001Z</time></trkpt><trkpt lat="45.85541794350305" lon="10.636716840151609"><ele>739.0</ele><time>2026-05-01T16:06:14.001Z</time></trkpt><trkpt lat="45.855218972457244" lon="10.63678749298686"><ele>739.0</ele><time>2026-05-01T16:06:15.001Z</time></trkpt><trkpt lat="45.85501651768243" lon="10.636888336635593"><ele>739.0</ele><time>2026-05-01T16:06:16.001Z</time></trkpt><trkpt lat="45.854817846857195" lon="10.636949957875165"><ele>739.0</ele><time>2026-05-01T16:06:17.001Z</time></trkpt><trkpt lat="45.85462270939799" lon="10.636943863647366"><ele>739.0</ele><time>2026-05-01T16:06:18.001Z</time></trkpt><trkpt lat="45.85444687147828" lon="10.636878254317903"><ele>739.0</ele><time>2026-05-01T16:06:19.001Z</time></trkpt><trkpt lat="45.854304965590124" lon="10.636754336917148"><ele>733.5</ele><time>2026-05-01T16:06:20.001Z</time></trkpt><trkpt lat="45.854168002670306" lon="10.636662023711475"><ele>728.0</ele><time>2026-05-01T16:06:21.001Z</time></trkpt><trkpt lat="45.854053403039764" lon="10.636541150785446"><ele>722.5</ele><time>2026-05-01T16:06:22.001Z</time></trkpt><trkpt lat="45.85394274063031" lon="10.636439727596978"><ele>717.0</ele><time>2026-05-01T16:06:23.001Z</time></trkpt><trkpt lat="45.85380103292076" lon="10.63635079138148"><ele>717.0</ele><time>2026-05-01T16:06:24.001Z</time></trkpt><trkpt lat="45.85361364654583" lon="10.63628183015576"><ele>717.0</ele><time>2026-05-01T16:06:25.001Z</time></trkpt><trkpt lat="45.85340023337679" lon="10.636220308698634"><ele>717.0</ele><time>2026-05-01T16:06:26.001Z</time></trkpt><trkpt lat="45.853190431205746" lon="10.636135948770283"><ele>714.3333333333334</ele><time>2026-05-01T16:06:27.001Z</time></trkpt><trkpt lat="45.852996049497015" lon="10.63600004083341"><ele>711.6666666666667</ele><time>2026-05-01T16:06:28.001Z</time></trkpt><trkpt lat="45.85285218027796" lon="10.635833897346485"><ele>709.0</ele><time>2026-05-01T16:06:29.001Z</time></trkpt><trkpt lat="45.8527279582797" lon="10.635669445783236"><ele>709.0</ele><time>2026-05-01T16:06:30.001Z</time></trkpt><trkpt lat="45.85262798870056" lon="10.635525592147227"><ele>709.0</ele><time>2026-05-01T16:06:31.001Z</time></trkpt><trkpt lat="45.852542742358715" lon="10.635412466647805"><ele>709.0</ele><time>2026-05-01T16:06:32.001Z</time></trkpt><trkpt lat="45.85245920654268" lon="10.635317066025026"><ele>709.0</ele><time>2026-05-01T16:06:33.001Z</time></trkpt><trkpt lat="45.8523470564583" lon="10.635239876566681"><ele>709.75</ele><time>2026-05-01T16:06:34.001Z</time></trkpt><trkpt lat="45.852193869341114" lon="10.635190636337077"><ele>710.5</ele><time>2026-05-01T16:06:35.001Z</time></trkpt><trkpt lat="45.85205194973565" lon="10.635153838838546"><ele>711.25</ele><time>2026-05-01T16:06:36.001Z</time></trkpt><trkpt lat="45.85192836033049" lon="10.63510556398802"><ele>712.0</ele><time>2026-05-01T16:06:37.001Z</time></trkpt><trkpt lat="45.85183581137338" lon="10.635038942446505"><ele>714.4000000000001</ele><time>2026-05-01T16:06:38.001Z</time></trkpt><trkpt lat="45.85175187681827" lon="10.634955559105425"><ele>716.8000000000001</ele><time>2026-05-01T16:06:39.001Z</time></trkpt><trkpt lat="45.85167971304071" lon="10.634860647072747"><ele>719.2</ele><time>2026-05-01T16:06:40.001Z</time></trkpt><trkpt lat="45.85161969629283" lon="10.634773753080236"><ele>721.6</ele><time>2026-05-01T16:06:41.001Z</time></trkpt><trkpt lat="45.851571333717516" lon="10.634680990759122"><ele>724.0</ele><time>2026-05-01T16:06:42.001Z</time></trkpt><trkpt lat="45.851517640791855" lon="10.634566420380857"><ele>722.1666666666667</ele><time>2026-05-01T16:06:43.001Z</time></trkpt><trkpt lat="45.851476130192786" lon="10.634439530029551"><ele>720.3333333333334</ele><time>2026-05-01T16:06:44.001Z</time></trkpt><trkpt lat="45.85144546874978" lon="10.634327445951268"><ele>718.5</ele><time>2026-05-01T16:06:45.001Z</time></trkpt><trkpt lat="45.85141303486201" lon="10.634211043000997"><ele>716.6666666666666</ele><time>2026-05-01T16:06:46.001Z</time></trkpt><trkpt lat="45.85136975853078" lon="10.634108469777718"><ele>714.8333333333333</ele><time>2026-05-01T16:06:47.001Z</time></trkpt><trkpt lat="45.851303006610344" lon="10.63401098063266"><ele>713.0</ele><time>2026-05-01T16:06:48.001Z</time></trkpt><trkpt lat="45.85122108441691" lon="10.633935435220497"><ele>713.0</ele><time>2026-05-01T16:06:49.001Z</time></trkpt><trkpt lat="45.851095090972045" lon="10.633892962362877"><ele>713.0</ele><time>2026-05-01T16:06:50.001Z</time></trkpt><trkpt lat="45.85095124627189" lon="10.633846742243847"><ele>713.0</ele><time>2026-05-01T16:06:51.001Z</time></trkpt><trkpt lat="45.85082725037174" lon="10.63381011481536"><ele>713.0</ele><time>2026-05-01T16:06:52.001Z</time></trkpt><trkpt lat="45.850699541449515" lon="10.633742933721189"><ele>710.3333333333333</ele><time>2026-05-01T16:06:53.001Z</time></trkpt><trkpt lat="45.850548953505154" lon="10.633627448483413"><ele>707.6666666666666</ele><time>2026-05-01T16:06:54.001Z</time></trkpt><trkpt lat="45.85038269182531" lon="10.633458076524635"><ele>705.0</ele><time>2026-05-01T16:06:55.001Z</time></trkpt><trkpt lat="45.85020246044882" lon="10.6332486816794"><ele>705.0</ele><time>2026-05-01T16:06:56.001Z</time></trkpt><trkpt lat="45.85000868239395" lon="10.633019858619294"><ele>705.0</ele><time>2026-05-01T16:06:57.001Z</time></trkpt><trkpt lat="45.84981558746503" lon="10.632792027282978"><ele>705.0</ele><time>2026-05-01T16:06:58.001Z</time></trkpt><trkpt lat="45.84962963476566" lon="10.63253260153743"><ele>705.0</ele><time>2026-05-01T16:06:59.001Z</time></trkpt><trkpt lat="45.84942895723947" lon="10.632296828496433"><ele>701.0</ele><time>2026-05-01T16:07:00.001Z</time></trkpt><trkpt lat="45.849249137929334" lon="10.632069798076742"><ele>697.0</ele><time>2026-05-01T16:07:01.001Z</time></trkpt><trkpt lat="45.84907336894302" lon="10.631847895821124"><ele>697.0</ele><time>2026-05-01T16:07:02.001Z</time></trkpt><trkpt lat="45.84891910769697" lon="10.631618734922812"><ele>697.0</ele><time>2026-05-01T16:07:03.001Z</time></trkpt><trkpt lat="45.84878352126991" lon="10.631362115491308"><ele>697.0</ele><time>2026-05-01T16:07:04.001Z</time></trkpt><trkpt lat="45.84866966592817" lon="10.63107746101664"><ele>714.5</ele><time>2026-05-01T16:07:05.001Z</time></trkpt><trkpt lat="45.84856714988661" lon="10.63078419315827"><ele>732.0</ele><time>2026-05-01T16:07:06.001Z</time></trkpt><trkpt lat="45.848488334327264" lon="10.630472351212656"><ele>719.0</ele><time>2026-05-01T16:07:07.001Z</time></trkpt><trkpt lat="45.84842974216289" lon="10.630129967079306"><ele>706.0</ele><time>2026-05-01T16:07:08.001Z</time></trkpt><trkpt lat="45.848388558807116" lon="10.629750892785655"><ele>704.0</ele><time>2026-05-01T16:07:09.001Z</time></trkpt><trkpt lat="45.848346350943665" lon="10.62938793455172"><ele>702.0</ele><time>2026-05-01T16:07:10.001Z</time></trkpt><trkpt lat="45.84830596932881" lon="10.629052285570475"><ele>702.0</ele><time>2026-05-01T16:07:11.001Z</time></trkpt><trkpt lat="45.84827576771237" lon="10.628732615840324"><ele>702.0</ele><time>2026-05-01T16:07:12.001Z</time></trkpt><trkpt lat="45.848258759689735" lon="10.62841018540798"><ele>702.6666666666666</ele><time>2026-05-01T16:07:13.001Z</time></trkpt><trkpt lat="45.84825678547436" lon="10.628088861954712"><ele>703.3333333333333</ele><time>2026-05-01T16:07:14.001Z</time></trkpt><trkpt lat="45.84827543269318" lon="10.627816143809694"><ele>704.0</ele><time>2026-05-01T16:07:15.001Z</time></trkpt><trkpt lat="45.84828271640131" lon="10.627589824653935"><ele>704.0</ele><time>2026-05-01T16:07:16.001Z</time></trkpt><trkpt lat="45.84827365178432" lon="10.627391723437201"><ele>704.0</ele><time>2026-05-01T16:07:17.001Z</time></trkpt><trkpt lat="45.84822725963608" lon="10.627205017810054"><ele>704.0</ele><time>2026-05-01T16:07:18.001Z</time></trkpt><trkpt lat="45.848142946719676" lon="10.627011826214384"><ele>704.0</ele><time>2026-05-01T16:07:19.001Z</time></trkpt><trkpt lat="45.8480447571468" lon="10.626801625369993"><ele>704.25</ele><time>2026-05-01T16:07:20.001Z</time></trkpt><trkpt lat="45.8479693599358" lon="10.62662510686058"><ele>704.5</ele><time>2026-05-01T16:07:21.001Z</time></trkpt><trkpt lat="45.84788877301236" lon="10.626505980893835"><ele>704.75</ele><time>2026-05-01T16:07:22.001Z</time></trkpt><trkpt lat="45.847766936020875" lon="10.626436053207136"><ele>705.0</ele><time>2026-05-01T16:07:23.001Z</time></trkpt><trkpt lat="45.84761993984793" lon="10.626411460047832"><ele>697.0</ele><time>2026-05-01T16:07:24.001Z</time></trkpt><trkpt lat="45.847474043195014" lon="10.626307681882569"><ele>689.0</ele><time>2026-05-01T16:07:25.001Z</time></trkpt><trkpt lat="45.84734418119656" lon="10.62607767768337"><ele>681.0</ele><time>2026-05-01T16:07:26.001Z</time></trkpt><trkpt lat="45.84717978543387" lon="10.625854542855587"><ele>678.3333333333334</ele><time>2026-05-01T16:07:27.001Z</time></trkpt><trkpt lat="45.847019171520685" lon="10.625654907664"><ele>675.6666666666667</ele><time>2026-05-01T16:07:28.001Z</time></trkpt><trkpt lat="45.846868151867234" lon="10.625486715577853"><ele>673.0</ele><time>2026-05-01T16:07:29.001Z</time></trkpt><trkpt lat="45.846734766656816" lon="10.625285309936283"><ele>673.0</ele><time>2026-05-01T16:07:30.001Z</time></trkpt><trkpt lat="45.84663162603676" lon="10.625023623730081"><ele>673.0</ele><time>2026-05-01T16:07:31.001Z</time></trkpt><trkpt lat="45.846548886535786" lon="10.624756256658904"><ele>673.0</ele><time>2026-05-01T16:07:32.001Z</time></trkpt><trkpt lat="45.846465473442734" lon="10.62453794178746"><ele>674.5</ele><time>2026-05-01T16:07:33.001Z</time></trkpt><trkpt lat="45.84637755762032" lon="10.624345592049306"><ele>676.0</ele><time>2026-05-01T16:07:34.001Z</time></trkpt><trkpt lat="45.84628708586595" lon="10.624199366189428"><ele>677.5</ele><time>2026-05-01T16:07:35.001Z</time></trkpt><trkpt lat="45.84620616740945" lon="10.624085514489316"><ele>679.0</ele><time>2026-05-01T16:07:36.001Z</time></trkpt><trkpt lat="45.8461504625213" lon="10.62398278296709"><ele>679.0</ele><time>2026-05-01T16:07:37.001Z</time></trkpt><trkpt lat="45.84610666217966" lon="10.623905453651808"><ele>679.0</ele><time>2026-05-01T16:07:38.001Z</time></trkpt><trkpt lat="45.84609554455852" lon="10.623799461859095"><ele>679.0</ele><time>2026-05-01T16:07:40.001Z</time></trkpt><trkpt lat="45.84619466262215" lon="10.623908034521133"><ele>679.0</ele><time>2026-05-01T16:07:42.001Z</time></trkpt><trkpt lat="45.84632485585758" lon="10.623993376950551"><ele>679.0</ele><time>2026-05-01T16:07:43.001Z</time></trkpt><trkpt lat="45.84639039468352" lon="10.624172565465031"><ele>679.0</ele><time>2026-05-01T16:07:44.001Z</time></trkpt><trkpt lat="45.84644237114953" lon="10.624292774864555"><ele>679.0</ele><time>2026-05-01T16:07:45.001Z</time></trkpt><trkpt lat="45.84650167968091" lon="10.624340697310908"><ele>679.0</ele><time>2026-05-01T16:07:46.001Z</time></trkpt><trkpt lat="45.84656583051015" lon="10.624313816865106"><ele>679.0</ele><time>2026-05-01T16:07:47.001Z</time></trkpt><trkpt lat="45.846597253234194" lon="10.624210805195492"><ele>679.0</ele><time>2026-05-01T16:07:48.001Z</time></trkpt><trkpt lat="45.84656774130907" lon="10.624079390825266"><ele>679.0</ele><time>2026-05-01T16:07:49.001Z</time></trkpt><trkpt lat="45.84648822268253" lon="10.623915223216816"><ele>679.0</ele><time>2026-05-01T16:07:50.001Z</time></trkpt><trkpt lat="45.846372334477444" lon="10.623715388840587"><ele>679.0</ele><time>2026-05-01T16:07:51.001Z</time></trkpt><trkpt lat="45.84622299100433" lon="10.623513526344807"><ele>679.0</ele><time>2026-05-01T16:07:52.001Z</time></trkpt><trkpt lat="45.84601585412635" lon="10.623340924251087"><ele>665.5</ele><time>2026-05-01T16:07:53.001Z</time></trkpt><trkpt lat="45.8457705053763" lon="10.623190083152162"><ele>652.0</ele><time>2026-05-01T16:07:54.001Z</time></trkpt><trkpt lat="45.845518274722664" lon="10.623028643910668"><ele>652.0</ele><time>2026-05-01T16:07:55.001Z</time></trkpt><trkpt lat="45.84527713762933" lon="10.622863165362162"><ele>652.0</ele><time>2026-05-01T16:07:56.001Z</time></trkpt><trkpt lat="45.845061339636345" lon="10.622698785236553"><ele>649.0</ele><time>2026-05-01T16:07:57.001Z</time></trkpt><trkpt lat="45.84486376519915" lon="10.622535942760274"><ele>646.0</ele><time>2026-05-01T16:07:58.001Z</time></trkpt><trkpt lat="45.844691287593385" lon="10.622375932482642"><ele>643.0</ele><time>2026-05-01T16:07:59.001Z</time></trkpt><trkpt lat="45.844540004432254" lon="10.622226854967408"><ele>643.0</ele><time>2026-05-01T16:08:00.001Z</time></trkpt><trkpt lat="45.84440547538075" lon="10.62207884453434"><ele>643.0</ele><time>2026-05-01T16:08:01.001Z</time></trkpt><trkpt lat="45.844290773464984" lon="10.62187133988194"><ele>643.0</ele><time>2026-05-01T16:08:02.001Z</time></trkpt><trkpt lat="45.84421157257515" lon="10.621627097972413"><ele>642.25</ele><time>2026-05-01T16:08:03.001Z</time></trkpt><trkpt lat="45.84416920740632" lon="10.621398386164326"><ele>641.5</ele><time>2026-05-01T16:08:04.001Z</time></trkpt><trkpt lat="45.84412073079343" lon="10.621218204655156"><ele>640.75</ele><time>2026-05-01T16:08:05.001Z</time></trkpt><trkpt lat="45.844055804147466" lon="10.621083653438795"><ele>640.0</ele><time>2026-05-01T16:08:06.001Z</time></trkpt><trkpt lat="45.8439496798988" lon="10.62100610976268"><ele>640.0</ele><time>2026-05-01T16:08:07.001Z</time></trkpt><trkpt lat="45.843839409245106" lon="10.620993905098041"><ele>640.0</ele><time>2026-05-01T16:08:08.001Z</time></trkpt><trkpt lat="45.843730940775544" lon="10.621097469977085"><ele>640.0</ele><time>2026-05-01T16:08:09.001Z</time></trkpt><trkpt lat="45.843637541192194" lon="10.621236800843954"><ele>640.0</ele><time>2026-05-01T16:08:10.001Z</time></trkpt><trkpt lat="45.84351898338759" lon="10.621330555468655"><ele>639.25</ele><time>2026-05-01T16:08:11.001Z</time></trkpt><trkpt lat="45.84338606938449" lon="10.621319501736258"><ele>638.5</ele><time>2026-05-01T16:08:12.001Z</time></trkpt><trkpt lat="45.84327162523852" lon="10.621236843524978"><ele>637.75</ele><time>2026-05-01T16:08:13.001Z</time></trkpt><trkpt lat="45.84318681813309" lon="10.621080640026786"><ele>637.0</ele><time>2026-05-01T16:08:14.001Z</time></trkpt><trkpt lat="45.84311742826921" lon="10.620839854573237"><ele>631.0</ele><time>2026-05-01T16:08:15.001Z</time></trkpt><trkpt lat="45.84304932378898" lon="10.620552562791339"><ele>625.0</ele><time>2026-05-01T16:08:16.001Z</time></trkpt><trkpt lat="45.84298266118862" lon="10.620317498811792"><ele>619.0</ele><time>2026-05-01T16:08:17.001Z</time></trkpt><trkpt lat="45.84293023557089" lon="10.620136746491482"><ele>618.4</ele><time>2026-05-01T16:08:18.001Z</time></trkpt><trkpt lat="45.84289195435995" lon="10.62001330644011"><ele>617.8</ele><time>2026-05-01T16:08:19.001Z</time></trkpt><trkpt lat="45.84293530763051" lon="10.619881538138348"><ele>617.2</ele><time>2026-05-01T16:08:21.001Z</time></trkpt><trkpt lat="45.84300256202418" lon="10.61990158517271"><ele>616.6</ele><time>2026-05-01T16:08:22.001Z</time></trkpt><trkpt lat="45.843060061638184" lon="10.619989810647807"><ele>616.0</ele><time>2026-05-01T16:08:23.001Z</time></trkpt><trkpt lat="45.84311591301459" lon="10.62014712057792"><ele>616.0</ele><time>2026-05-01T16:08:24.001Z</time></trkpt><trkpt lat="45.84317564833032" lon="10.620301064753878"><ele>616.0</ele><time>2026-05-01T16:08:25.001Z</time></trkpt><trkpt lat="45.84326032903977" lon="10.620374424777996"><ele>616.0</ele><time>2026-05-01T16:08:26.001Z</time></trkpt><trkpt lat="45.84336355812199" lon="10.620350041854135"><ele>616.0</ele><time>2026-05-01T16:08:27.001Z</time></trkpt><trkpt lat="45.8434568610491" lon="10.620237645884547"><ele>616.0</ele><time>2026-05-01T16:08:28.001Z</time></trkpt><trkpt lat="45.84352916675554" lon="10.62012888238081"><ele>616.0</ele><time>2026-05-01T16:08:29.001Z</time></trkpt><trkpt lat="45.84357281272976" lon="10.620010985669957"><ele>616.0</ele><time>2026-05-01T16:08:30.001Z</time></trkpt><trkpt lat="45.843573185980155" lon="10.619838164503225"><ele>616.0</ele><time>2026-05-01T16:08:31.001Z</time></trkpt><trkpt lat="45.84354114736699" lon="10.619635211800214"><ele>616.0</ele><time>2026-05-01T16:08:32.001Z</time></trkpt><trkpt lat="45.84350209727509" lon="10.619382974628122"><ele>616.0</ele><time>2026-05-01T16:08:33.001Z</time></trkpt><trkpt lat="45.843502699381126" lon="10.619092308790233"><ele>616.0</ele><time>2026-05-01T16:08:34.001Z</time></trkpt><trkpt lat="45.84354201226262" lon="10.618771102547644"><ele>616.0</ele><time>2026-05-01T16:08:35.001Z</time></trkpt><trkpt lat="45.84360366150938" lon="10.618426479220174"><ele>616.0</ele><time>2026-05-01T16:08:36.001Z</time></trkpt><trkpt lat="45.84366987445534" lon="10.618060589946833"><ele>616.0</ele><time>2026-05-01T16:08:37.001Z</time></trkpt><trkpt lat="45.8437319267572" lon="10.61767478017949"><ele>616.0</ele><time>2026-05-01T16:08:38.001Z</time></trkpt><trkpt lat="45.8437868427216" lon="10.617285366469014"><ele>616.0</ele><time>2026-05-01T16:08:39.001Z</time></trkpt><trkpt lat="45.84383279144731" lon="10.616900621574565"><ele>616.0</ele><time>2026-05-01T16:08:40.001Z</time></trkpt><trkpt lat="45.84386881871322" lon="10.616524716409687"><ele>616.0</ele><time>2026-05-01T16:08:41.001Z</time></trkpt><trkpt lat="45.843896871540494" lon="10.616159185819251"><ele>616.0</ele><time>2026-05-01T16:08:42.001Z</time></trkpt><trkpt lat="45.84392737957425" lon="10.615794134096804"><ele>616.0</ele><time>2026-05-01T16:08:43.001Z</time></trkpt><trkpt lat="45.84396231980508" lon="10.6154441695869"><ele>616.0</ele><time>2026-05-01T16:08:44.001Z</time></trkpt><trkpt lat="45.84399536201877" lon="10.615113254830788"><ele>616.0</ele><time>2026-05-01T16:08:45.001Z</time></trkpt><trkpt lat="45.84401871338797" lon="10.614783974942124"><ele>616.0</ele><time>2026-05-01T16:08:46.001Z</time></trkpt><trkpt lat="45.84405034437065" lon="10.614474237904053"><ele>616.0</ele><time>2026-05-01T16:08:47.001Z</time></trkpt><trkpt lat="45.84407312425766" lon="10.614170254998333"><ele>616.0</ele><time>2026-05-01T16:08:48.001Z</time></trkpt><trkpt lat="45.844075413126866" lon="10.613870416587979"><ele>617.3333333333334</ele><time>2026-05-01T16:08:49.001Z</time></trkpt><trkpt lat="45.84405902440684" lon="10.613576038408185"><ele>618.6666666666666</ele><time>2026-05-01T16:08:50.001Z</time></trkpt><trkpt lat="45.84404791747902" lon="10.61330019944417"><ele>620.0</ele><time>2026-05-01T16:08:51.001Z</time></trkpt><trkpt lat="45.84405427266346" lon="10.613038053238846"><ele>620.0</ele><time>2026-05-01T16:08:52.001Z</time></trkpt><trkpt lat="45.84407966861029" lon="10.612795211168127"><ele>620.0</ele><time>2026-05-01T16:08:53.001Z</time></trkpt><trkpt lat="45.8441418626201" lon="10.61257081662108"><ele>620.0</ele><time>2026-05-01T16:08:54.001Z</time></trkpt><trkpt lat="45.84425612231598" lon="10.61236317668171"><ele>622.6666666666666</ele><time>2026-05-01T16:08:55.001Z</time></trkpt><trkpt lat="45.84439592361508" lon="10.612159721318799"><ele>625.3333333333334</ele><time>2026-05-01T16:08:56.001Z</time></trkpt><trkpt lat="45.84453534668994" lon="10.611926494635973"><ele>628.0</ele><time>2026-05-01T16:08:57.001Z</time></trkpt><trkpt lat="45.84464077069179" lon="10.611647577213875"><ele>628.0</ele><time>2026-05-01T16:08:58.001Z</time></trkpt><trkpt lat="45.84471044298031" lon="10.611347736433553"><ele>628.0</ele><time>2026-05-01T16:08:59.001Z</time></trkpt><trkpt lat="45.84474248178827" lon="10.611034469410717"><ele>628.0</ele><time>2026-05-01T16:09:00Z</time></trkpt><trkpt lat="45.84474067345195" lon="10.610730938685668"><ele>621.0</ele><time>2026-05-01T16:09:01Z</time></trkpt><trkpt lat="45.844723058494736" lon="10.610443023543699"><ele>614.0</ele><time>2026-05-01T16:09:02Z</time></trkpt><trkpt lat="45.844736471333725" lon="10.61018013349765"><ele>607.0</ele><time>2026-05-01T16:09:03Z</time></trkpt><trkpt lat="45.84476675952844" lon="10.60994072501619"><ele>604.75</ele><time>2026-05-01T16:09:04Z</time></trkpt><trkpt lat="45.844794859006676" lon="10.609718534399676"><ele>602.5</ele><time>2026-05-01T16:09:05Z</time></trkpt><trkpt lat="45.844793689247986" lon="10.609510894987961"><ele>600.25</ele><time>2026-05-01T16:09:06Z</time></trkpt><trkpt lat="45.8447653200772" lon="10.609325074907053"><ele>598.0</ele><time>2026-05-01T16:09:07Z</time></trkpt><trkpt lat="45.84475221695994" lon="10.609149094985696"><ele>593.5</ele><time>2026-05-01T16:09:08Z</time></trkpt><trkpt lat="45.8447815187132" lon="10.608982468940692"><ele>589.0</ele><time>2026-05-01T16:09:09Z</time></trkpt><trkpt lat="45.84485182378374" lon="10.608834211954768"><ele>584.5</ele><time>2026-05-01T16:09:10Z</time></trkpt><trkpt lat="45.8449542158957" lon="10.608715867997187"><ele>580.0</ele><time>2026-05-01T16:09:11Z</time></trkpt><trkpt lat="45.8450696941916" lon="10.608624032891205"><ele>580.0</ele><time>2026-05-01T16:09:12Z</time></trkpt><trkpt lat="45.84517451178305" lon="10.608497775408683"><ele>580.0</ele><time>2026-05-01T16:09:13Z</time></trkpt><trkpt lat="45.84525430305116" lon="10.608321673499354"><ele>580.0</ele><time>2026-05-01T16:09:14Z</time></trkpt><trkpt lat="45.845310953568635" lon="10.608122277962067"><ele>580.0</ele><time>2026-05-01T16:09:15Z</time></trkpt><trkpt lat="45.845358061039384" lon="10.607924421161243"><ele>580.0</ele><time>2026-05-01T16:09:16Z</time></trkpt><trkpt lat="45.84537857723925" lon="10.607699117281857"><ele>580.0</ele><time>2026-05-01T16:09:17Z</time></trkpt><trkpt lat="45.845354807304254" lon="10.607448151789376"><ele>580.0</ele><time>2026-05-01T16:09:18Z</time></trkpt><trkpt lat="45.845299367471426" lon="10.60714525169027"><ele>580.0</ele><time>2026-05-01T16:09:19Z</time></trkpt><trkpt lat="45.84525429196588" lon="10.606798896733972"><ele>580.0</ele><time>2026-05-01T16:09:20Z</time></trkpt><trkpt lat="45.84522983792843" lon="10.60642982810344"><ele>580.0</ele><time>2026-05-01T16:09:21Z</time></trkpt><trkpt lat="45.84520407684484" lon="10.606065885566247"><ele>580.0</ele><time>2026-05-01T16:09:22Z</time></trkpt><trkpt lat="45.84517397130189" lon="10.605726140138612"><ele>580.0</ele><time>2026-05-01T16:09:23Z</time></trkpt><trkpt lat="45.84514990861172" lon="10.60542506929982"><ele>580.0</ele><time>2026-05-01T16:09:24Z</time></trkpt><trkpt lat="45.84514346621784" lon="10.605157988116106"><ele>580.0</ele><time>2026-05-01T16:09:25Z</time></trkpt><trkpt lat="45.84516044015306" lon="10.60491152540068"><ele>588.5</ele><time>2026-05-01T16:09:26Z</time></trkpt><trkpt lat="45.845204005056985" lon="10.604697134317716"><ele>597.0</ele><time>2026-05-01T16:09:27Z</time></trkpt><trkpt lat="45.84524482451291" lon="10.60452408831131"><ele>605.5</ele><time>2026-05-01T16:09:28Z</time></trkpt><trkpt lat="45.84522878040765" lon="10.604364324868671"><ele>614.0</ele><time>2026-05-01T16:09:29Z</time></trkpt><trkpt lat="45.84515888198877" lon="10.604211041849105"><ele>613.0</ele><time>2026-05-01T16:09:30Z</time></trkpt><trkpt lat="45.84508362256095" lon="10.60401135484"><ele>612.0</ele><time>2026-05-01T16:09:31Z</time></trkpt><trkpt lat="45.845052108725305" lon="10.603734739514497"><ele>611.0</ele><time>2026-05-01T16:09:32Z</time></trkpt><trkpt lat="45.84502423424394" lon="10.60345187169105"><ele>605.0</ele><time>2026-05-01T16:09:33Z</time></trkpt><trkpt lat="45.8449858654422" lon="10.603198808848193"><ele>599.0</ele><time>2026-05-01T16:09:34Z</time></trkpt><trkpt lat="45.844961622326984" lon="10.6029897498902"><ele>593.0</ele><time>2026-05-01T16:09:35Z</time></trkpt><trkpt lat="45.844956630781596" lon="10.602781213289761"><ele>589.0</ele><time>2026-05-01T16:09:36Z</time></trkpt><trkpt lat="45.84499038459899" lon="10.602571675557712"><ele>585.0</ele><time>2026-05-01T16:09:37Z</time></trkpt><trkpt lat="45.84504457857492" lon="10.60234838129397"><ele>581.0</ele><time>2026-05-01T16:09:38Z</time></trkpt><trkpt lat="45.845124233792674" lon="10.602152898952673"><ele>581.5</ele><time>2026-05-01T16:09:39Z</time></trkpt><trkpt lat="45.84523283544864" lon="10.601993273763442"><ele>582.0</ele><time>2026-05-01T16:09:40Z</time></trkpt><trkpt lat="45.84533440991187" lon="10.601866973907415"><ele>582.5</ele><time>2026-05-01T16:09:41Z</time></trkpt><trkpt lat="45.845395767043385" lon="10.601733903866347"><ele>583.0</ele><time>2026-05-01T16:09:42Z</time></trkpt><trkpt lat="45.845404931991105" lon="10.601565956871559"><ele>583.0</ele><time>2026-05-01T16:09:43Z</time></trkpt><trkpt lat="45.84536172383935" lon="10.601376246921848"><ele>583.0</ele><time>2026-05-01T16:09:44Z</time></trkpt><trkpt lat="45.84528691381834" lon="10.601131541417317"><ele>583.0</ele><time>2026-05-01T16:09:45Z</time></trkpt><trkpt lat="45.84522828506749" lon="10.600835619870166"><ele>584.3333333333334</ele><time>2026-05-01T16:09:46Z</time></trkpt><trkpt lat="45.845208003959165" lon="10.600516124563642"><ele>585.6666666666666</ele><time>2026-05-01T16:09:47Z</time></trkpt><trkpt lat="45.845207748486935" lon="10.60021352739701"><ele>587.0</ele><time>2026-05-01T16:09:48Z</time></trkpt><trkpt lat="45.8452100867788" lon="10.599951914631513"><ele>587.5</ele><time>2026-05-01T16:09:49Z</time></trkpt><trkpt lat="45.84520675336864" lon="10.599725260028688"><ele>588.0</ele><time>2026-05-01T16:09:50Z</time></trkpt><trkpt lat="45.845185314680414" lon="10.599530102183438"><ele>588.5</ele><time>2026-05-01T16:09:51Z</time></trkpt><trkpt lat="45.84512704186249" lon="10.599353225408437"><ele>589.0</ele><time>2026-05-01T16:09:52Z</time></trkpt><trkpt lat="45.84502714023519" lon="10.599212100898523"><ele>578.6666666666667</ele><time>2026-05-01T16:09:53Z</time></trkpt><trkpt lat="45.84488644572347" lon="10.599072856078688"><ele>568.3333333333334</ele><time>2026-05-01T16:09:54Z</time></trkpt><trkpt lat="45.844750038677134" lon="10.59889327074112"><ele>558.0</ele><time>2026-05-01T16:09:55Z</time></trkpt><trkpt lat="45.84465482331918" lon="10.598712309370905"><ele>560.3333333333334</ele><time>2026-05-01T16:09:56Z</time></trkpt><trkpt lat="45.844599839474334" lon="10.598506087450637"><ele>562.6666666666667</ele><time>2026-05-01T16:09:57Z</time></trkpt><trkpt lat="45.84457291621007" lon="10.598289372126258"><ele>565.0</ele><time>2026-05-01T16:09:58Z</time></trkpt><trkpt lat="45.84448801576347" lon="10.598090672576618"><ele>565.0</ele><time>2026-05-01T16:09:59Z</time></trkpt><trkpt lat="45.844342876295585" lon="10.597912583218811"><ele>565.0</ele><time>2026-05-01T16:10:00Z</time></trkpt><trkpt lat="45.8441428442587" lon="10.597725413316674"><ele>565.0</ele><time>2026-05-01T16:10:01Z</time></trkpt><trkpt lat="45.843956051106765" lon="10.597548119837095"><ele>561.3333333333334</ele><time>2026-05-01T16:10:02Z</time></trkpt><trkpt lat="45.84379748465102" lon="10.597365383867107"><ele>557.6666666666666</ele><time>2026-05-01T16:10:03Z</time></trkpt><trkpt lat="45.843657257372236" lon="10.597201905541732"><ele>554.0</ele><time>2026-05-01T16:10:04Z</time></trkpt><trkpt lat="45.843506254430814" lon="10.597096195862003"><ele>552.0</ele><time>2026-05-01T16:10:05Z</time></trkpt><trkpt lat="45.84335814317299" lon="10.597019503905646"><ele>550.0</ele><time>2026-05-01T16:10:06Z</time></trkpt><trkpt lat="45.843229803544325" lon="10.596939213754393"><ele>548.0</ele><time>2026-05-01T16:10:07Z</time></trkpt><trkpt lat="45.84313009154651" lon="10.596816688370346"><ele>546.0</ele><time>2026-05-01T16:10:08Z</time></trkpt><trkpt lat="45.84305697774871" lon="10.596634145701758"><ele>546.0</ele><time>2026-05-01T16:10:09Z</time></trkpt><trkpt lat="45.842997359617144" lon="10.59639134858693"><ele>546.0</ele><time>2026-05-01T16:10:10Z</time></trkpt><trkpt lat="45.84296797464391" lon="10.596155270392892"><ele>546.0</ele><time>2026-05-01T16:10:11Z</time></trkpt><trkpt lat="45.84296884169643" lon="10.595943058541051"><ele>543.5</ele><time>2026-05-01T16:10:12Z</time></trkpt><trkpt lat="45.84295306250826" lon="10.595751083210276"><ele>541.0</ele><time>2026-05-01T16:10:13Z</time></trkpt><trkpt lat="45.84286203079674" lon="10.59556610807494"><ele>538.5</ele><time>2026-05-01T16:10:14Z</time></trkpt><trkpt lat="45.842760179578526" lon="10.595395374201432"><ele>536.0</ele><time>2026-05-01T16:10:15Z</time></trkpt><trkpt lat="45.84270567123407" lon="10.595202358166055"><ele>535.75</ele><time>2026-05-01T16:10:16Z</time></trkpt><trkpt lat="45.84267873614499" lon="10.594999119627976"><ele>535.5</ele><time>2026-05-01T16:10:17Z</time></trkpt><trkpt lat="45.84263888131294" lon="10.594811534228935"><ele>535.25</ele><time>2026-05-01T16:10:18Z</time></trkpt><trkpt lat="45.842565222464394" lon="10.594667034934183"><ele>535.0</ele><time>2026-05-01T16:10:19Z</time></trkpt><trkpt lat="45.842446660862834" lon="10.594557834677527"><ele>535.0</ele><time>2026-05-01T16:10:20Z</time></trkpt><trkpt lat="45.84232672517551" lon="10.59451288620008"><ele>535.0</ele><time>2026-05-01T16:10:21Z</time></trkpt><trkpt lat="45.84222573732947" lon="10.594501467071328"><ele>535.0</ele><time>2026-05-01T16:10:22Z</time></trkpt><trkpt lat="45.84215513547895" lon="10.594509617994513"><ele>535.0</ele><time>2026-05-01T16:10:23Z</time></trkpt><trkpt lat="45.84210899850258" lon="10.59441688192844"><ele>535.0</ele><time>2026-05-01T16:10:25.001Z</time></trkpt><trkpt lat="45.84221713194178" lon="10.594329354897129"><ele>535.0</ele><time>2026-05-01T16:10:27.001Z</time></trkpt><trkpt lat="45.842314545567596" lon="10.594340954661783"><ele>535.0</ele><time>2026-05-01T16:10:28.001Z</time></trkpt><trkpt lat="45.84243785670821" lon="10.59440699076619"><ele>535.0</ele><time>2026-05-01T16:10:29.001Z</time></trkpt><trkpt lat="45.84256565661549" lon="10.594505874119903"><ele>535.0</ele><time>2026-05-01T16:10:30.001Z</time></trkpt><trkpt lat="45.84266796867917" lon="10.594604815960263"><ele>532.0</ele><time>2026-05-01T16:10:31.001Z</time></trkpt><trkpt lat="45.84274041275693" lon="10.594703905585975"><ele>529.0</ele><time>2026-05-01T16:10:32.001Z</time></trkpt><trkpt lat="45.84278447909601" lon="10.594780885725173"><ele>526.0</ele><time>2026-05-01T16:10:33.001Z</time></trkpt><trkpt lat="45.84287453950491" lon="10.594855815140688"><ele>523.0</ele><time>2026-05-01T16:10:35.001Z</time></trkpt><trkpt lat="45.842917700114754" lon="10.594785116916931"><ele>520.0</ele><time>2026-05-01T16:10:36.001Z</time></trkpt><trkpt lat="45.84292020584975" lon="10.594672224101775"><ele>517.0</ele><time>2026-05-01T16:10:37.001Z</time></trkpt><trkpt lat="45.842871305357335" lon="10.594576829733048"><ele>517.0</ele><time>2026-05-01T16:10:38.001Z</time></trkpt><trkpt lat="45.8427576093891" lon="10.594508720166878"><ele>517.0</ele><time>2026-05-01T16:10:39Z</time></trkpt><trkpt lat="45.84264604063783" lon="10.59441514580457"><ele>517.0</ele><time>2026-05-01T16:10:40Z</time></trkpt><trkpt lat="45.842538469580255" lon="10.59430906493577"><ele>517.0</ele><time>2026-05-01T16:10:41Z</time></trkpt><trkpt lat="45.842434012112875" lon="10.594208235373824"><ele>509.5</ele><time>2026-05-01T16:10:42Z</time></trkpt><trkpt lat="45.842324044339826" lon="10.594123104356884"><ele>502.0</ele><time>2026-05-01T16:10:43Z</time></trkpt><trkpt lat="45.842207956636145" lon="10.59408854424677"><ele>494.5</ele><time>2026-05-01T16:10:44Z</time></trkpt><trkpt lat="45.842069498226856" lon="10.594099934446117"><ele>487.0</ele><time>2026-05-01T16:10:45Z</time></trkpt><trkpt lat="45.841941757806545" lon="10.594166419183878"><ele>487.0</ele><time>2026-05-01T16:10:46Z</time></trkpt><trkpt lat="45.84183040913581" lon="10.594291293766334"><ele>487.0</ele><time>2026-05-01T16:10:47Z</time></trkpt><trkpt lat="45.84172638354188" lon="10.594396924166341"><ele>487.0</ele><time>2026-05-01T16:10:48Z</time></trkpt><trkpt lat="45.84161590683299" lon="10.594450624753032"><ele>487.0</ele><time>2026-05-01T16:10:49Z</time></trkpt><trkpt lat="45.841532695304636" lon="10.594569076610647"><ele>497.5</ele><time>2026-05-01T16:10:50Z</time></trkpt><trkpt lat="45.84148555746726" lon="10.594726161516885"><ele>508.0</ele><time>2026-05-01T16:10:51Z</time></trkpt><trkpt lat="45.841452926652" lon="10.594916743205538"><ele>518.5</ele><time>2026-05-01T16:10:52Z</time></trkpt><trkpt lat="45.84139921186532" lon="10.595086960008372"><ele>529.0</ele><time>2026-05-01T16:10:53Z</time></trkpt><trkpt lat="45.84131384690451" lon="10.595234165402397"><ele>533.25</ele><time>2026-05-01T16:10:54Z</time></trkpt><trkpt lat="45.84121210569349" lon="10.595340720090892"><ele>537.5</ele><time>2026-05-01T16:10:55Z</time></trkpt><trkpt lat="45.841096038728736" lon="10.595412364709619"><ele>541.75</ele><time>2026-05-01T16:10:56Z</time></trkpt><trkpt lat="45.84097376453616" lon="10.59545529077489"><ele>546.0</ele><time>2026-05-01T16:10:57Z</time></trkpt><trkpt lat="45.840872759430745" lon="10.595460495857154"><ele>546.0</ele><time>2026-05-01T16:10:58Z</time></trkpt><trkpt lat="45.84077737708544" lon="10.595418796749263"><ele>546.0</ele><time>2026-05-01T16:10:59Z</time></trkpt><trkpt lat="45.84071664389594" lon="10.595307448905036"><ele>546.0</ele><time>2026-05-01T16:11:00Z</time></trkpt><trkpt lat="45.84068177916065" lon="10.595120280287665"><ele>546.0</ele><time>2026-05-01T16:11:01Z</time></trkpt><trkpt lat="45.8406458189767" lon="10.594882863747596"><ele>535.6666666666666</ele><time>2026-05-01T16:11:02Z</time></trkpt><trkpt lat="45.84060863603125" lon="10.594623628181623"><ele>525.3333333333333</ele><time>2026-05-01T16:11:03Z</time></trkpt><trkpt lat="45.84056706698603" lon="10.59435103141226"><ele>515.0</ele><time>2026-05-01T16:11:04Z</time></trkpt><trkpt lat="45.84052212787655" lon="10.59405012980989"><ele>506.3333333333333</ele><time>2026-05-01T16:11:05Z</time></trkpt><trkpt lat="45.840489375641184" lon="10.593783227429261"><ele>497.66666666666663</ele><time>2026-05-01T16:11:06Z</time></trkpt><trkpt lat="45.84045310425053" lon="10.593511943619244"><ele>489.0</ele><time>2026-05-01T16:11:07Z</time></trkpt><trkpt lat="45.8404387449476" lon="10.5932687475718"><ele>485.66666666666663</ele><time>2026-05-01T16:11:08Z</time></trkpt><trkpt lat="45.84043668035292" lon="10.593016595271548"><ele>482.3333333333333</ele><time>2026-05-01T16:11:09Z</time></trkpt><trkpt lat="45.84044757353276" lon="10.59276929099444"><ele>479.0</ele><time>2026-05-01T16:11:10Z</time></trkpt><trkpt lat="45.84046206980414" lon="10.59253749805366"><ele>476.66666666666663</ele><time>2026-05-01T16:11:11Z</time></trkpt><trkpt lat="45.840445635190974" lon="10.592300506336338"><ele>474.33333333333337</ele><time>2026-05-01T16:11:12Z</time></trkpt><trkpt lat="45.84040075257671" lon="10.592058865099167"><ele>472.0</ele><time>2026-05-01T16:11:13Z</time></trkpt><trkpt lat="45.84034009153979" lon="10.591819853272018"><ele>469.0</ele><time>2026-05-01T16:11:14Z</time></trkpt><trkpt lat="45.840293724874414" lon="10.591581621889755"><ele>466.0</ele><time>2026-05-01T16:11:15Z</time></trkpt><trkpt lat="45.840335182269214" lon="10.591362460495965"><ele>463.0</ele><time>2026-05-01T16:11:16Z</time></trkpt><trkpt lat="45.8403787856938" lon="10.591149155079552"><ele>461.75</ele><time>2026-05-01T16:11:17Z</time></trkpt><trkpt lat="45.840402374315566" lon="10.590959547293453"><ele>460.5</ele><time>2026-05-01T16:11:18Z</time></trkpt><trkpt lat="45.84040008346395" lon="10.590782000515494"><ele>459.25</ele><time>2026-05-01T16:11:19Z</time></trkpt><trkpt lat="45.84034069494268" lon="10.590607341248575"><ele>458.0</ele><time>2026-05-01T16:11:20Z</time></trkpt><trkpt lat="45.84024510737964" lon="10.590447965816008"><ele>458.75</ele><time>2026-05-01T16:11:21Z</time></trkpt><trkpt lat="45.84015885965995" lon="10.590279780635699"><ele>459.5</ele><time>2026-05-01T16:11:22Z</time></trkpt><trkpt lat="45.84010621904363" lon="10.590134455271976"><ele>460.25</ele><time>2026-05-01T16:11:23Z</time></trkpt><trkpt lat="45.840126389023204" lon="10.589980935110276"><ele>461.0</ele><time>2026-05-01T16:11:24Z</time></trkpt><trkpt lat="45.84015914935177" lon="10.589837807669392"><ele>461.0</ele><time>2026-05-01T16:11:25Z</time></trkpt><trkpt lat="45.84027797982527" lon="10.58974479162649"><ele>461.0</ele><time>2026-05-01T16:11:26Z</time></trkpt><trkpt lat="45.84037374141165" lon="10.589585958000006"><ele>461.0</ele><time>2026-05-01T16:11:27Z</time></trkpt><trkpt lat="45.840469016347335" lon="10.5894030451397"><ele>461.0</ele><time>2026-05-01T16:11:28Z</time></trkpt><trkpt lat="45.840544548006164" lon="10.589180547169315"><ele>460.66666666666663</ele><time>2026-05-01T16:11:29Z</time></trkpt><trkpt lat="45.840609294141395" lon="10.588961850842447"><ele>460.33333333333337</ele><time>2026-05-01T16:11:30Z</time></trkpt><trkpt lat="45.840652780299074" lon="10.588751608005666"><ele>460.0</ele><time>2026-05-01T16:11:31Z</time></trkpt><trkpt lat="45.840655521594165" lon="10.58851689772235"><ele>458.0</ele><time>2026-05-01T16:11:32Z</time></trkpt><trkpt lat="45.84063604397916" lon="10.588279907944049"><ele>456.0</ele><time>2026-05-01T16:11:33Z</time></trkpt><trkpt lat="45.840620475312804" lon="10.588043195691409"><ele>454.0</ele><time>2026-05-01T16:11:34Z</time></trkpt><trkpt lat="45.840608086268304" lon="10.587814143239525"><ele>452.75</ele><time>2026-05-01T16:11:35Z</time></trkpt><trkpt lat="45.84057118269114" lon="10.587603459319283"><ele>451.5</ele><time>2026-05-01T16:11:36Z</time></trkpt><trkpt lat="45.84051725266009" lon="10.587401881643792"><ele>450.25</ele><time>2026-05-01T16:11:37Z</time></trkpt><trkpt lat="45.84046241153135" lon="10.5872153923379"><ele>449.0</ele><time>2026-05-01T16:11:38Z</time></trkpt><trkpt lat="45.84041980103486" lon="10.587035895812066"><ele>447.79999999999995</ele><time>2026-05-01T16:11:39Z</time></trkpt><trkpt lat="45.8403931495711" lon="10.586877222245054"><ele>446.59999999999997</ele><time>2026-05-01T16:11:40Z</time></trkpt><trkpt lat="45.84038276694078" lon="10.586739306335105"><ele>445.4</ele><time>2026-05-01T16:11:41Z</time></trkpt><trkpt lat="45.84038753487304" lon="10.586613323449745"><ele>444.2</ele><time>2026-05-01T16:11:42Z</time></trkpt><trkpt lat="45.840392472136855" lon="10.586447898336207"><ele>443.0</ele><time>2026-05-01T16:11:44Z</time></trkpt><trkpt lat="45.840384435111794" lon="10.586335125971218"><ele>443.0</ele><time>2026-05-01T16:11:46Z</time></trkpt><trkpt lat="45.84043633273694" lon="10.586271620661513"><ele>442.99999999999994</ele><time>2026-05-01T16:11:48Z</time></trkpt><trkpt lat="45.84049648828564" lon="10.586398103341924"><ele>442.99999999999994</ele><time>2026-05-01T16:11:50Z</time></trkpt><trkpt lat="45.84051716618128" lon="10.586554382738148"><ele>443.0</ele><time>2026-05-01T16:11:51Z</time></trkpt><trkpt lat="45.84052416852347" lon="10.586697453174626"><ele>443.0</ele><time>2026-05-01T16:11:52Z</time></trkpt><trkpt lat="45.84053847056967" lon="10.586849420776577"><ele>442.99999999999994</ele><time>2026-05-01T16:11:53Z</time></trkpt><trkpt lat="45.840554961107856" lon="10.586991446011314"><ele>443.0</ele><time>2026-05-01T16:11:54Z</time></trkpt><trkpt lat="45.84056326658357" lon="10.58711403603881"><ele>443.0</ele><time>2026-05-01T16:11:55Z</time></trkpt><trkpt lat="45.84058420473575" lon="10.587207158918464"><ele>443.0</ele><time>2026-05-01T16:11:56Z</time></trkpt><trkpt lat="45.84063676388157" lon="10.587257481165274"><ele>442.99999999999994</ele><time>2026-05-01T16:11:57Z</time></trkpt><trkpt lat="45.84070769222403" lon="10.587246392275343"><ele>443.0</ele><time>2026-05-01T16:11:58Z</time></trkpt><trkpt lat="45.840784803641085" lon="10.587044719306308"><ele>443.0</ele><time>2026-05-01T16:12:00Z</time></trkpt><trkpt lat="45.840751824374365" lon="10.586883821172353"><ele>443.0</ele><time>2026-05-01T16:12:01Z</time></trkpt><trkpt lat="45.840714455149445" lon="10.586697666474487"><ele>443.0</ele><time>2026-05-01T16:12:02Z</time></trkpt><trkpt lat="45.84069731053093" lon="10.58648713512536"><ele>443.0</ele><time>2026-05-01T16:12:03Z</time></trkpt><trkpt lat="45.840686817210084" lon="10.58624365149703"><ele>442.0</ele><time>2026-05-01T16:12:04Z</time></trkpt><trkpt lat="45.84067159161281" lon="10.58598480885517"><ele>441.0</ele><time>2026-05-01T16:12:05Z</time></trkpt><trkpt lat="45.84065597747606" lon="10.585721270929579"><ele>440.0</ele><time>2026-05-01T16:12:06Z</time></trkpt><trkpt lat="45.8406439691146" lon="10.585449398262359"><ele>438.3333333333333</ele><time>2026-05-01T16:12:07Z</time></trkpt><trkpt lat="45.84064709932562" lon="10.585185917267511"><ele>436.66666666666663</ele><time>2026-05-01T16:12:08Z</time></trkpt><trkpt lat="45.840670724388865" lon="10.584931812628037"><ele>435.0</ele><time>2026-05-01T16:12:09Z</time></trkpt><trkpt lat="45.84069998637209" lon="10.58468466220962"><ele>433.0</ele><time>2026-05-01T16:12:10Z</time></trkpt><trkpt lat="45.84071911874292" lon="10.584444896008574"><ele>431.0</ele><time>2026-05-01T16:12:11Z</time></trkpt><trkpt lat="45.84072854277857" lon="10.584196113023745"><ele>429.0</ele><time>2026-05-01T16:12:12Z</time></trkpt><trkpt lat="45.840733548377884" lon="10.5839406742557"><ele>429.0</ele><time>2026-05-01T16:12:13Z</time></trkpt><trkpt lat="45.84073745526945" lon="10.583698039096374"><ele>429.0</ele><time>2026-05-01T16:12:14Z</time></trkpt><trkpt lat="45.840743030618356" lon="10.583456226420516"><ele>429.0</ele><time>2026-05-01T16:12:15Z</time></trkpt><trkpt lat="45.84079080318253" lon="10.583225560864248"><ele>428.66666666666663</ele><time>2026-05-01T16:12:16Z</time></trkpt><trkpt lat="45.84084153500455" lon="10.58299830273648"><ele>428.3333333333333</ele><time>2026-05-01T16:12:17Z</time></trkpt><trkpt lat="45.8408887751728" lon="10.58279121514533"><ele>428.0</ele><time>2026-05-01T16:12:18Z</time></trkpt><trkpt lat="45.84092054651035" lon="10.582604440052833"><ele>429.0</ele><time>2026-05-01T16:12:19Z</time></trkpt><trkpt lat="45.84095868915696" lon="10.58245550162466"><ele>429.99999999999994</ele><time>2026-05-01T16:12:20Z</time></trkpt><trkpt lat="45.84098747328365" lon="10.582324776629962"><ele>430.99999999999994</ele><time>2026-05-01T16:12:21Z</time></trkpt><trkpt lat="45.841013412121384" lon="10.582222161255547"><ele>432.0</ele><time>2026-05-01T16:12:22Z</time></trkpt><trkpt lat="45.841073584863985" lon="10.582111625852233"><ele>433.0</ele><time>2026-05-01T16:12:24Z</time></trkpt><trkpt lat="45.84115282456957" lon="10.582113728664629"><ele>425.75</ele><time>2026-05-01T16:12:26Z</time></trkpt><trkpt lat="45.84117156625939" lon="10.58224151434893"><ele>418.5</ele><time>2026-05-01T16:12:27Z</time></trkpt><trkpt lat="45.841140178127105" lon="10.582404966270206"><ele>411.25</ele><time>2026-05-01T16:12:28Z</time></trkpt><trkpt lat="45.841125540036415" lon="10.582626870820503"><ele>404.0</ele><time>2026-05-01T16:12:29Z</time></trkpt><trkpt lat="45.8410955354125" lon="10.5828669037698"><ele>404.0</ele><time>2026-05-01T16:12:30Z</time></trkpt><trkpt lat="45.84107781555409" lon="10.583111857472149"><ele>404.0</ele><time>2026-05-01T16:12:31Z</time></trkpt><trkpt lat="45.84107705294211" lon="10.583346105847514"><ele>404.0</ele><time>2026-05-01T16:12:32Z</time></trkpt><trkpt lat="45.841105801063925" lon="10.583562986580931"><ele>404.25</ele><time>2026-05-01T16:12:33Z</time></trkpt><trkpt lat="45.84115788662704" lon="10.583767255072651"><ele>404.5</ele><time>2026-05-01T16:12:34Z</time></trkpt><trkpt lat="45.84122363224641" lon="10.583943345401869"><ele>404.75</ele><time>2026-05-01T16:12:35Z</time></trkpt><trkpt lat="45.84131540196057" lon="10.584089554877762"><ele>405.0</ele><time>2026-05-01T16:12:36Z</time></trkpt><trkpt lat="45.841429406499" lon="10.584200447539725"><ele>405.0</ele><time>2026-05-01T16:12:37Z</time></trkpt><trkpt lat="45.841566211236376" lon="10.584274723531788"><ele>405.0</ele><time>2026-05-01T16:12:38Z</time></trkpt><trkpt lat="45.84171836465985" lon="10.584299754761153"><ele>405.0</ele><time>2026-05-01T16:12:39Z</time></trkpt><trkpt lat="45.84187547896734" lon="10.584302180839167"><ele>403.5</ele><time>2026-05-01T16:12:40Z</time></trkpt><trkpt lat="45.842026952378255" lon="10.584300726945177"><ele>402.0</ele><time>2026-05-01T16:12:41Z</time></trkpt><trkpt lat="45.84215928111501" lon="10.584310497315963"><ele>400.5</ele><time>2026-05-01T16:12:42Z</time></trkpt><trkpt lat="45.842283781681445" lon="10.58432065067645"><ele>399.0</ele><time>2026-05-01T16:12:43Z</time></trkpt><trkpt lat="45.84240938124657" lon="10.584296596094902"><ele>399.0</ele><time>2026-05-01T16:12:44Z</time></trkpt><trkpt lat="45.842544190706064" lon="10.584233383279619"><ele>399.0</ele><time>2026-05-01T16:12:45Z</time></trkpt><trkpt lat="45.84269215193358" lon="10.584148924205698"><ele>399.0</ele><time>2026-05-01T16:12:46Z</time></trkpt><trkpt lat="45.84285477764844" lon="10.584057411773918"><ele>399.66666666666663</ele><time>2026-05-01T16:12:47Z</time></trkpt><trkpt lat="45.84302287165266" lon="10.58397097239467"><ele>400.3333333333333</ele><time>2026-05-01T16:12:48Z</time></trkpt><trkpt lat="45.8431945301178" lon="10.58391823889193"><ele>401.0</ele><time>2026-05-01T16:12:49Z</time></trkpt><trkpt lat="45.84337635328342" lon="10.583837035011697"><ele>400.0</ele><time>2026-05-01T16:12:50Z</time></trkpt><trkpt lat="45.843570504960745" lon="10.583748783313917"><ele>399.0</ele><time>2026-05-01T16:12:51Z</time></trkpt><trkpt lat="45.84377607412737" lon="10.583654822461364"><ele>398.0</ele><time>2026-05-01T16:12:52Z</time></trkpt><trkpt lat="45.84398792793455" lon="10.5835579890566"><ele>397.5</ele><time>2026-05-01T16:12:53Z</time></trkpt><trkpt lat="45.84420807349784" lon="10.583459131320831"><ele>397.0</ele><time>2026-05-01T16:12:54Z</time></trkpt><trkpt lat="45.84442919826839" lon="10.583360436597937"><ele>396.0</ele><time>2026-05-01T16:12:55Z</time></trkpt><trkpt lat="45.84465132706802" lon="10.583260853908467"><ele>395.0</ele><time>2026-05-01T16:12:56Z</time></trkpt><trkpt lat="45.84487775234431" lon="10.583158540312155"><ele>395.0</ele><time>2026-05-01T16:12:57Z</time></trkpt><trkpt lat="45.845100828805016" lon="10.583057955525893"><ele>395.0</ele><time>2026-05-01T16:12:58Z</time></trkpt><trkpt lat="45.845324653624935" lon="10.582931203412041"><ele>394.5</ele><time>2026-05-01T16:12:59Z</time></trkpt><trkpt lat="45.84554471627499" lon="10.582830659375182"><ele>394.0</ele><time>2026-05-01T16:13:00Z</time></trkpt><trkpt lat="45.84577202828834" lon="10.582753197933206"><ele>394.6666666666667</ele><time>2026-05-01T16:13:01Z</time></trkpt><trkpt lat="45.84598417028678" lon="10.582658022444134"><ele>395.33333333333337</ele><time>2026-05-01T16:13:02Z</time></trkpt><trkpt lat="45.846180408304036" lon="10.582570219979583"><ele>396.0</ele><time>2026-05-01T16:13:03Z</time></trkpt><trkpt lat="45.8463568723402" lon="10.582473738810956"><ele>396.0</ele><time>2026-05-01T16:13:04Z</time></trkpt><trkpt lat="45.846527196843205" lon="10.582415111353242"><ele>396.0</ele><time>2026-05-01T16:13:05Z</time></trkpt><trkpt lat="45.846675065663554" lon="10.582326414479969"><ele>396.0</ele><time>2026-05-01T16:13:06Z</time></trkpt><trkpt lat="45.846808688433946" lon="10.582272002950704"><ele>396.5</ele><time>2026-05-01T16:13:07Z</time></trkpt><trkpt lat="45.84692710405841" lon="10.582182933690927"><ele>397.0</ele><time>2026-05-01T16:13:08Z</time></trkpt><trkpt lat="45.84703931997863" lon="10.58207364952074"><ele>397.5</ele><time>2026-05-01T16:13:09Z</time></trkpt><trkpt lat="45.847158216711286" lon="10.581939967987932"><ele>398.0</ele><time>2026-05-01T16:13:10Z</time></trkpt><trkpt lat="45.84727090160483" lon="10.58180946111836"><ele>398.0</ele><time>2026-05-01T16:13:11Z</time></trkpt><trkpt lat="45.847383138023055" lon="10.581707634329621"><ele>398.0</ele><time>2026-05-01T16:13:12Z</time></trkpt><trkpt lat="45.84749155482848" lon="10.581595261846529"><ele>398.0</ele><time>2026-05-01T16:13:13Z</time></trkpt><trkpt lat="45.84759260910392" lon="10.581496358337297"><ele>398.0</ele><time>2026-05-01T16:13:14Z</time></trkpt><trkpt lat="45.84766909814319" lon="10.581399204022562"><ele>398.16666666666663</ele><time>2026-05-01T16:13:15Z</time></trkpt><trkpt lat="45.847729185111646" lon="10.581313015002626"><ele>398.3333333333333</ele><time>2026-05-01T16:13:16Z</time></trkpt><trkpt lat="45.84777813310889" lon="10.581218272781253"><ele>398.5</ele><time>2026-05-01T16:13:17Z</time></trkpt><trkpt lat="45.84781813231743" lon="10.581118267533805"><ele>398.66666666666663</ele><time>2026-05-01T16:13:18Z</time></trkpt><trkpt lat="45.84784790006773" lon="10.581007789991398"><ele>398.8333333333333</ele><time>2026-05-01T16:13:19Z</time></trkpt><trkpt lat="45.84788309433442" lon="10.580881039900598"><ele>399.0</ele><time>2026-05-01T16:13:20Z</time></trkpt><trkpt lat="45.84791439464134" lon="10.58075044977706"><ele>399.0</ele><time>2026-05-01T16:13:21Z</time></trkpt><trkpt lat="45.847942223096204" lon="10.580648517069543"><ele>399.0</ele><time>2026-05-01T16:13:22Z</time></trkpt><trkpt lat="45.84795529937884" lon="10.580558427576825"><ele>399.0</ele><time>2026-05-01T16:13:23Z</time></trkpt><trkpt lat="45.847999397103635" lon="10.58039295023182"><ele>399.0</ele><time>2026-05-01T16:13:25Z</time></trkpt><trkpt lat="45.84803112123182" lon="10.580281005833507"><ele>399.0</ele><time>2026-05-01T16:13:26Z</time></trkpt><trkpt lat="45.8480602937633" lon="10.580149826437871"><ele>399.0</ele><time>2026-05-01T16:13:27Z</time></trkpt><trkpt lat="45.84809267756135" lon="10.57999826623395"><ele>398.2</ele><time>2026-05-01T16:13:28Z</time></trkpt><trkpt lat="45.84813124261166" lon="10.579862698155575"><ele>397.4</ele><time>2026-05-01T16:13:29Z</time></trkpt><trkpt lat="45.848174773474675" lon="10.579737437510161"><ele>396.6</ele><time>2026-05-01T16:13:30Z</time></trkpt><trkpt lat="45.8482002750425" lon="10.579615519243236"><ele>395.8</ele><time>2026-05-01T16:13:31Z</time></trkpt><trkpt lat="45.84824732289934" lon="10.579496231640936"><ele>395.0</ele><time>2026-05-01T16:13:32Z</time></trkpt><trkpt lat="45.84826275978405" lon="10.579371090675336"><ele>394.8333333333333</ele><time>2026-05-01T16:13:33Z</time></trkpt><trkpt lat="45.84830431631188" lon="10.579294107694764"><ele>394.66666666666663</ele><time>2026-05-01T16:13:34Z</time></trkpt><trkpt lat="45.848323783981485" lon="10.579196391898543"><ele>394.5</ele><time>2026-05-01T16:13:35Z</time></trkpt><trkpt lat="45.848341138478055" lon="10.579107890581925"><ele>394.33333333333337</ele><time>2026-05-01T16:13:36Z</time></trkpt><trkpt lat="45.84839387294734" lon="10.578989515526146"><ele>394.1666666666667</ele><time>2026-05-01T16:13:38Z</time></trkpt><trkpt lat="45.84828873542143" lon="10.578868094156405"><ele>394.0</ele><time>2026-05-01T16:13:40Z</time></trkpt><trkpt lat="45.84822892104059" lon="10.578813859379714"><ele>394.0</ele><time>2026-05-01T16:13:43Z</time></trkpt><trkpt lat="45.848273788169294" lon="10.578927442659946"><ele>394.0</ele><time>2026-05-01T16:14:17Z</time></trkpt><trkpt lat="45.848327643332006" lon="10.57899525373431"><ele>394.0</ele><time>2026-05-01T16:14:20Z</time></trkpt><trkpt lat="45.848473921085656" lon="10.578848271861299"><ele>394.0</ele><time>2026-05-01T16:14:26Z</time></trkpt><trkpt lat="45.848558275707724" lon="10.578707488243174"><ele>393.33333333333337</ele><time>2026-05-01T16:14:27Z</time></trkpt><trkpt lat="45.84866782940605" lon="10.578548310992776"><ele>392.66666666666663</ele><time>2026-05-01T16:14:28Z</time></trkpt><trkpt lat="45.848773723848076" lon="10.578381034297635"><ele>392.0</ele><time>2026-05-01T16:14:29Z</time></trkpt><trkpt lat="45.84886063902369" lon="10.578221561273507"><ele>392.0</ele><time>2026-05-01T16:14:30Z</time></trkpt><trkpt lat="45.84893785215335" lon="10.57805369817244"><ele>392.0</ele><time>2026-05-01T16:14:31Z</time></trkpt><trkpt lat="45.849008458970786" lon="10.577872858278742"><ele>392.0</ele><time>2026-05-01T16:14:32Z</time></trkpt><trkpt lat="45.84908151513273" lon="10.577692820530896"><ele>392.0</ele><time>2026-05-01T16:14:33Z</time></trkpt><trkpt lat="45.84915072519861" lon="10.577502774583303"><ele>392.0</ele><time>2026-05-01T16:14:34Z</time></trkpt><trkpt lat="45.849204101268825" lon="10.577271448650249"><ele>392.0</ele><time>2026-05-01T16:14:35Z</time></trkpt><trkpt lat="45.84924837937612" lon="10.57701545449901"><ele>392.0</ele><time>2026-05-01T16:14:36Z</time></trkpt><trkpt lat="45.84929955753223" lon="10.576771473182859"><ele>392.0</ele><time>2026-05-01T16:14:37Z</time></trkpt><trkpt lat="45.8493465877862" lon="10.576555842308602"><ele>392.0</ele><time>2026-05-01T16:14:38Z</time></trkpt><trkpt lat="45.8494028202925" lon="10.576358238919868"><ele>392.0</ele><time>2026-05-01T16:14:39Z</time></trkpt><trkpt lat="45.849477936991946" lon="10.5761610286142"><ele>391.0</ele><time>2026-05-01T16:14:40Z</time></trkpt><trkpt lat="45.84961150083355" lon="10.576004809961562"><ele>390.0</ele><time>2026-05-01T16:14:41Z</time></trkpt><trkpt lat="45.84975740161396" lon="10.57582659293711"><ele>389.0</ele><time>2026-05-01T16:14:42Z</time></trkpt><trkpt lat="45.84992229857492" lon="10.575646001705001"><ele>389.0</ele><time>2026-05-01T16:14:43Z</time></trkpt><trkpt lat="45.85007599362894" lon="10.575447261291835"><ele>389.0</ele><time>2026-05-01T16:14:44Z</time></trkpt><trkpt lat="45.850240814164856" lon="10.575270200491627"><ele>389.0</ele><time>2026-05-01T16:14:45Z</time></trkpt><trkpt lat="45.85039378500344" lon="10.575090872744957"><ele>389.3333333333333</ele><time>2026-05-01T16:14:46Z</time></trkpt><trkpt lat="45.8505373329764" lon="10.574930552976758"><ele>389.66666666666663</ele><time>2026-05-01T16:14:47Z</time></trkpt><trkpt lat="45.85067321917068" lon="10.574782071538605"><ele>390.0</ele><time>2026-05-01T16:14:48Z</time></trkpt><trkpt lat="45.850810074445754" lon="10.57466588262244"><ele>390.0</ele><time>2026-05-01T16:14:49Z</time></trkpt><trkpt lat="45.85093632795799" lon="10.574540546417339"><ele>390.0</ele><time>2026-05-01T16:14:50Z</time></trkpt><trkpt lat="45.85106506876717" lon="10.574447123794082"><ele>390.0</ele><time>2026-05-01T16:14:51Z</time></trkpt><trkpt lat="45.85121725025211" lon="10.574416480892335"><ele>390.0</ele><time>2026-05-01T16:14:52Z</time></trkpt><trkpt lat="45.85139299428726" lon="10.574423016813812"><ele>390.0</ele><time>2026-05-01T16:14:53Z</time></trkpt><trkpt lat="45.851566933690556" lon="10.574423016815018"><ele>390.0</ele><time>2026-05-01T16:14:54Z</time></trkpt><trkpt lat="45.851737941869814" lon="10.574426213350336"><ele>390.0</ele><time>2026-05-01T16:14:55Z</time></trkpt><trkpt lat="45.851890857859665" lon="10.574405659545011"><ele>390.0</ele><time>2026-05-01T16:14:56Z</time></trkpt><trkpt lat="45.852042008359824" lon="10.57435712675833"><ele>390.0</ele><time>2026-05-01T16:14:57Z</time></trkpt><trkpt lat="45.8521928717615" lon="10.574251951968135"><ele>390.0</ele><time>2026-05-01T16:14:58Z</time></trkpt><trkpt lat="45.85235583190383" lon="10.574132134001523"><ele>390.0</ele><time>2026-05-01T16:14:59Z</time></trkpt><trkpt lat="45.852518214735426" lon="10.574013189064319"><ele>390.0</ele><time>2026-05-01T16:15:00Z</time></trkpt><trkpt lat="45.85268082468474" lon="10.57385799191344"><ele>389.66666666666663</ele><time>2026-05-01T16:15:01Z</time></trkpt><trkpt lat="45.852846262426375" lon="10.573693900213312"><ele>389.3333333333333</ele><time>2026-05-01T16:15:02Z</time></trkpt><trkpt lat="45.85301389479295" lon="10.573517596613273"><ele>389.0</ele><time>2026-05-01T16:15:03Z</time></trkpt><trkpt lat="45.85318360496665" lon="10.573343316027383"><ele>389.0</ele><time>2026-05-01T16:15:04Z</time></trkpt><trkpt lat="45.85335853289968" lon="10.573166602094847"><ele>389.0</ele><time>2026-05-01T16:15:05Z</time></trkpt><trkpt lat="45.853535975581444" lon="10.57298936042392"><ele>389.0</ele><time>2026-05-01T16:15:06Z</time></trkpt><trkpt lat="45.85370503317174" lon="10.572815143300469"><ele>389.0</ele><time>2026-05-01T16:15:07Z</time></trkpt><trkpt lat="45.853865320425456" lon="10.572656590920676"><ele>389.0</ele><time>2026-05-01T16:15:08Z</time></trkpt><trkpt lat="45.854010333170926" lon="10.572510179112427"><ele>389.0</ele><time>2026-05-01T16:15:09Z</time></trkpt><trkpt lat="45.85414532532173" lon="10.572363255777365"><ele>389.0</ele><time>2026-05-01T16:15:10Z</time></trkpt><trkpt lat="45.85426702971085" lon="10.572193662699915"><ele>389.0</ele><time>2026-05-01T16:15:11Z</time></trkpt><trkpt lat="45.854356124292494" lon="10.571978428852294"><ele>389.0</ele><time>2026-05-01T16:15:12Z</time></trkpt><trkpt lat="45.85441820106487" lon="10.57174241110642"><ele>389.3333333333333</ele><time>2026-05-01T16:15:13Z</time></trkpt><trkpt lat="45.85444683469234" lon="10.571505108606024"><ele>389.66666666666663</ele><time>2026-05-01T16:15:14Z</time></trkpt><trkpt lat="45.85444737596873" lon="10.571285416561647"><ele>390.0</ele><time>2026-05-01T16:15:15Z</time></trkpt><trkpt lat="45.85443041464143" lon="10.571091249100727"><ele>390.0</ele><time>2026-05-01T16:15:16Z</time></trkpt><trkpt lat="45.8544155092366" lon="10.570920637160286"><ele>390.0</ele><time>2026-05-01T16:15:17Z</time></trkpt><trkpt lat="45.854404997269796" lon="10.570752695280143"><ele>390.0</ele><time>2026-05-01T16:15:18Z</time></trkpt><trkpt lat="45.85439993398853" lon="10.570592023786732"><ele>390.0</ele><time>2026-05-01T16:15:19Z</time></trkpt><trkpt lat="45.8543961228365" lon="10.570434804873537"><ele>390.0</ele><time>2026-05-01T16:15:20Z</time></trkpt><trkpt lat="45.85439065519275" lon="10.570277116605542"><ele>390.0</ele><time>2026-05-01T16:15:21Z</time></trkpt><trkpt lat="45.85438120129634" lon="10.570113179786555"><ele>390.0</ele><time>2026-05-01T16:15:22Z</time></trkpt><trkpt lat="45.85437063351957" lon="10.569944667543526"><ele>390.0</ele><time>2026-05-01T16:15:23Z</time></trkpt><trkpt lat="45.854361325224254" lon="10.56976823244443"><ele>390.0</ele><time>2026-05-01T16:15:24Z</time></trkpt><trkpt lat="45.85435175015207" lon="10.569596992721344"><ele>390.0</ele><time>2026-05-01T16:15:25Z</time></trkpt><trkpt lat="45.85433890944562" lon="10.569419949321466"><ele>390.0</ele><time>2026-05-01T16:15:26Z</time></trkpt><trkpt lat="45.85432675780037" lon="10.569245356903064"><ele>390.0</ele><time>2026-05-01T16:15:27Z</time></trkpt><trkpt lat="45.854323105824456" lon="10.569066407254306"><ele>389.75</ele><time>2026-05-01T16:15:28Z</time></trkpt><trkpt lat="45.85431621115471" lon="10.568888126386863"><ele>389.5</ele><time>2026-05-01T16:15:29Z</time></trkpt><trkpt lat="45.85430575311472" lon="10.568713851054646"><ele>389.25</ele><time>2026-05-01T16:15:30Z</time></trkpt><trkpt lat="45.854296335974546" lon="10.568528991033528"><ele>389.0</ele><time>2026-05-01T16:15:31Z</time></trkpt><trkpt lat="45.85428924624624" lon="10.568343992649732"><ele>389.25</ele><time>2026-05-01T16:15:32Z</time></trkpt><trkpt lat="45.85428474572106" lon="10.568158389328959"><ele>389.5</ele><time>2026-05-01T16:15:33Z</time></trkpt><trkpt lat="45.85431272614915" lon="10.567971527552581"><ele>389.75</ele><time>2026-05-01T16:15:34Z</time></trkpt><trkpt lat="45.85432946553686" lon="10.567812060551159"><ele>390.0</ele><time>2026-05-01T16:15:35Z</time></trkpt><trkpt lat="45.85432984949463" lon="10.567656914415592"><ele>390.1666666666667</ele><time>2026-05-01T16:15:36Z</time></trkpt><trkpt lat="45.85434352005377" lon="10.567546551178594"><ele>390.33333333333337</ele><time>2026-05-01T16:15:37Z</time></trkpt><trkpt lat="45.85435438540151" lon="10.567403588983511"><ele>390.5</ele><time>2026-05-01T16:15:39Z</time></trkpt><trkpt lat="45.85434387466626" lon="10.56731076556738"><ele>390.6666666666667</ele><time>2026-05-01T16:15:42Z</time></trkpt><trkpt lat="45.8542514697922" lon="10.567251823003602"><ele>390.83333333333337</ele><time>2026-05-01T16:15:45Z</time></trkpt><trkpt lat="45.85416981250275" lon="10.567258157224748"><ele>391.0</ele><time>2026-05-01T16:15:47Z</time></trkpt><trkpt lat="45.854039573137285" lon="10.567218014585636"><ele>391.0</ele><time>2026-05-01T16:15:49Z</time></trkpt><trkpt lat="45.85395479733265" lon="10.567171627520038"><ele>391.0</ele><time>2026-05-01T16:15:50Z</time></trkpt><trkpt lat="45.85385200060217" lon="10.56710119380719"><ele>391.0</ele><time>2026-05-01T16:15:51Z</time></trkpt><trkpt lat="45.853745055288385" lon="10.567027672475144"><ele>391.0</ele><time>2026-05-01T16:15:52Z</time></trkpt><trkpt lat="45.85362059231305" lon="10.566934209785522"><ele>391.33333333333337</ele><time>2026-05-01T16:15:53Z</time></trkpt><trkpt lat="45.853484102365236" lon="10.566833928568121"><ele>391.66666666666663</ele><time>2026-05-01T16:15:54Z</time></trkpt><trkpt lat="45.85333158623799" lon="10.566734187502007"><ele>392.0</ele><time>2026-05-01T16:15:55Z</time></trkpt><trkpt lat="45.85317341304039" lon="10.566626742578896"><ele>392.0</ele><time>2026-05-01T16:15:56Z</time></trkpt><trkpt lat="45.85301436718396" lon="10.566510982302082"><ele>392.0</ele><time>2026-05-01T16:15:57Z</time></trkpt><trkpt lat="45.852857415578214" lon="10.566383180440953"><ele>392.0</ele><time>2026-05-01T16:15:58Z</time></trkpt><trkpt lat="45.852711406594956" lon="10.566221706054307"><ele>391.66666666666663</ele><time>2026-05-01T16:15:59Z</time></trkpt><trkpt lat="45.85256947590343" lon="10.566043375060524"><ele>391.33333333333337</ele><time>2026-05-01T16:16:00Z</time></trkpt><trkpt lat="45.852425514888104" lon="10.565865993324055"><ele>391.0</ele><time>2026-05-01T16:16:01Z</time></trkpt><trkpt lat="45.852270699204816" lon="10.56568719601838"><ele>391.0</ele><time>2026-05-01T16:16:02Z</time></trkpt><trkpt lat="45.85211887685937" lon="10.565509531760481"><ele>391.0</ele><time>2026-05-01T16:16:03Z</time></trkpt><trkpt lat="45.85197316783709" lon="10.565335801392436"><ele>391.0</ele><time>2026-05-01T16:16:04Z</time></trkpt><trkpt lat="45.85183771092295" lon="10.565179461025922"><ele>391.4</ele><time>2026-05-01T16:16:05Z</time></trkpt><trkpt lat="45.8517174602252" lon="10.565055405626449"><ele>391.8</ele><time>2026-05-01T16:16:06Z</time></trkpt><trkpt lat="45.8516190459402" lon="10.564962953876117"><ele>392.2</ele><time>2026-05-01T16:16:07Z</time></trkpt><trkpt lat="45.85155100338686" lon="10.564885407774183"><ele>392.59999999999997</ele><time>2026-05-01T16:16:08Z</time></trkpt><trkpt lat="45.85151928479391" lon="10.564785425176945"><ele>393.0</ele><time>2026-05-01T16:16:09Z</time></trkpt><trkpt lat="45.85157079193072" lon="10.564683276636716"><ele>393.0</ele><time>2026-05-01T16:16:10Z</time></trkpt><trkpt lat="45.85162097686877" lon="10.564547525336636"><ele>393.0</ele><time>2026-05-01T16:16:11Z</time></trkpt><trkpt lat="45.851670751437496" lon="10.564403703631484"><ele>393.0</ele><time>2026-05-01T16:16:12Z</time></trkpt><trkpt lat="45.85166198567818" lon="10.564238864103743"><ele>393.0</ele><time>2026-05-01T16:16:13Z</time></trkpt><trkpt lat="45.85164602494497" lon="10.564120707068852"><ele>393.0</ele><time>2026-05-01T16:16:14Z</time></trkpt><trkpt lat="45.85162103841045" lon="10.563997787642542"><ele>393.75</ele><time>2026-05-01T16:16:15Z</time></trkpt><trkpt lat="45.85150019266643" lon="10.563947873219323"><ele>394.5</ele><time>2026-05-01T16:16:17Z</time></trkpt><trkpt lat="45.85139966115857" lon="10.563919951342564"><ele>395.25</ele><time>2026-05-01T16:16:18Z</time></trkpt><trkpt lat="45.85128942784356" lon="10.563873166876428"><ele>396.0</ele><time>2026-05-01T16:16:19Z</time></trkpt><trkpt lat="45.851182434269184" lon="10.563766077470515"><ele>395.25</ele><time>2026-05-01T16:16:20Z</time></trkpt><trkpt lat="45.85107455603967" lon="10.56363373787204"><ele>394.5</ele><time>2026-05-01T16:16:21Z</time></trkpt><trkpt lat="45.850963823482545" lon="10.56349006078315"><ele>393.75</ele><time>2026-05-01T16:16:22Z</time></trkpt><trkpt lat="45.850864828569726" lon="10.563340455448996"><ele>393.0</ele><time>2026-05-01T16:16:23Z</time></trkpt><trkpt lat="45.85077107855829" lon="10.563189649978954"><ele>393.0</ele><time>2026-05-01T16:16:24Z</time></trkpt><trkpt lat="45.850682667089" lon="10.563045490114554"><ele>393.0</ele><time>2026-05-01T16:16:25Z</time></trkpt><trkpt lat="45.8505996143342" lon="10.562899080700113"><ele>393.0</ele><time>2026-05-01T16:16:26Z</time></trkpt><trkpt lat="45.85052883928312" lon="10.562750179604892"><ele>393.0</ele><time>2026-05-01T16:16:27Z</time></trkpt><trkpt lat="45.85046501923418" lon="10.562589452010627"><ele>393.75</ele><time>2026-05-01T16:16:28Z</time></trkpt><trkpt lat="45.85039810323498" lon="10.562422877970068"><ele>394.5</ele><time>2026-05-01T16:16:29Z</time></trkpt><trkpt lat="45.85032519688925" lon="10.562241960761188"><ele>395.25</ele><time>2026-05-01T16:16:30Z</time></trkpt><trkpt lat="45.85025216487101" lon="10.562082972226346"><ele>396.0</ele><time>2026-05-01T16:16:31Z</time></trkpt><trkpt lat="45.850180376993855" lon="10.561932756633043"><ele>394.5</ele><time>2026-05-01T16:16:32Z</time></trkpt><trkpt lat="45.850084727617705" lon="10.561805139670374"><ele>393.0</ele><time>2026-05-01T16:16:33Z</time></trkpt><trkpt lat="45.85002266503964" lon="10.561610987669868"><ele>391.5</ele><time>2026-05-01T16:16:34Z</time></trkpt><trkpt lat="45.849939099181924" lon="10.561433305779605"><ele>390.0</ele><time>2026-05-01T16:16:35Z</time></trkpt><trkpt lat="45.84986089470243" lon="10.561247932152103"><ele>390.0</ele><time>2026-05-01T16:16:36Z</time></trkpt><trkpt lat="45.84978416374303" lon="10.561054332437282"><ele>390.0</ele><time>2026-05-01T16:16:37Z</time></trkpt><trkpt lat="45.849708408395095" lon="10.56086214386525"><ele>390.0</ele><time>2026-05-01T16:16:38Z</time></trkpt><trkpt lat="45.849637194708684" lon="10.560685721637158"><ele>390.0</ele><time>2026-05-01T16:16:39Z</time></trkpt><trkpt lat="45.849568998734256" lon="10.560525077245254"><ele>390.0</ele><time>2026-05-01T16:16:40Z</time></trkpt><trkpt lat="45.84950402676844" lon="10.560372336412701"><ele>390.0</ele><time>2026-05-01T16:16:41Z</time></trkpt><trkpt lat="45.84944416790164" lon="10.560228440454335"><ele>390.0</ele><time>2026-05-01T16:16:41.999Z</time></trkpt><trkpt lat="45.84939265274818" lon="10.560103685362376"><ele>390.25</ele><time>2026-05-01T16:16:42.999Z</time></trkpt><trkpt lat="45.849350273783706" lon="10.5599882399922"><ele>390.5</ele><time>2026-05-01T16:16:43.999Z</time></trkpt><trkpt lat="45.849302501160444" lon="10.559871772298616"><ele>390.75</ele><time>2026-05-01T16:16:44.999Z</time></trkpt><trkpt lat="45.849241251862516" lon="10.559728046096538"><ele>391.0</ele><time>2026-05-01T16:16:45.999Z</time></trkpt><trkpt lat="45.84915653216678" lon="10.559540730966651"><ele>391.0</ele><time>2026-05-01T16:16:46.999Z</time></trkpt><trkpt lat="45.84905237015659" lon="10.559306248821445"><ele>391.0</ele><time>2026-05-01T16:16:47.999Z</time></trkpt><trkpt lat="45.848938204106936" lon="10.55903091438782"><ele>391.0</ele><time>2026-05-01T16:16:48.999Z</time></trkpt><trkpt lat="45.84881557312977" lon="10.558724869699837"><ele>389.5</ele><time>2026-05-01T16:16:49.999Z</time></trkpt><trkpt lat="45.84868699177898" lon="10.55838868003792"><ele>388.0</ele><time>2026-05-01T16:16:51Z</time></trkpt><trkpt lat="45.848552485984705" lon="10.558040980472912"><ele>387.5</ele><time>2026-05-01T16:16:52Z</time></trkpt><trkpt lat="45.84841617875828" lon="10.557702981740666"><ele>387.0</ele><time>2026-05-01T16:16:53Z</time></trkpt><trkpt lat="45.84828548720599" lon="10.55739413246574"><ele>387.0</ele><time>2026-05-01T16:16:54Z</time></trkpt><trkpt lat="45.84816397570481" lon="10.557084119005749"><ele>387.0</ele><time>2026-05-01T16:16:55Z</time></trkpt><trkpt lat="45.8480407965182" lon="10.556762479978085"><ele>388.5</ele><time>2026-05-01T16:16:56Z</time></trkpt><trkpt lat="45.84791540034213" lon="10.556445121550599"><ele>390.0</ele><time>2026-05-01T16:16:57Z</time></trkpt><trkpt lat="45.847787878934405" lon="10.55612676727565"><ele>390.0</ele><time>2026-05-01T16:16:58Z</time></trkpt><trkpt lat="45.84766582873032" lon="10.55582371833858"><ele>390.0</ele><time>2026-05-01T16:16:59Z</time></trkpt><trkpt lat="45.8475489116282" lon="10.555536534481657"><ele>392.33333333333337</ele><time>2026-05-01T16:17:00Z</time></trkpt><trkpt lat="45.84743590980378" lon="10.555269664843053"><ele>394.6666666666667</ele><time>2026-05-01T16:17:01Z</time></trkpt><trkpt lat="45.84732105353649" lon="10.555014142465106"><ele>397.0</ele><time>2026-05-01T16:17:02Z</time></trkpt><trkpt lat="45.84719342212511" lon="10.554784893914404"><ele>397.0</ele><time>2026-05-01T16:17:03Z</time></trkpt><trkpt lat="45.847052597569636" lon="10.554577497973018"><ele>397.0</ele><time>2026-05-01T16:17:04Z</time></trkpt><trkpt lat="45.84689509449797" lon="10.554381919847158"><ele>397.0</ele><time>2026-05-01T16:17:05Z</time></trkpt><trkpt lat="45.84672539495891" lon="10.554193322931454"><ele>394.5</ele><time>2026-05-01T16:17:06Z</time></trkpt><trkpt lat="45.84653857734225" lon="10.553996286575176"><ele>392.0</ele><time>2026-05-01T16:17:07Z</time></trkpt><trkpt lat="45.84633846106753" lon="10.553792402053789"><ele>393.5</ele><time>2026-05-01T16:17:08Z</time></trkpt><trkpt lat="45.84612113311328" lon="10.55359846606615"><ele>395.0</ele><time>2026-05-01T16:17:09Z</time></trkpt><trkpt lat="45.84589998017534" lon="10.553408067811322"><ele>395.0</ele><time>2026-05-01T16:17:10Z</time></trkpt><trkpt lat="45.84567948906637" lon="10.553206126608853"><ele>395.0</ele><time>2026-05-01T16:17:11Z</time></trkpt><trkpt lat="45.84544844142163" lon="10.553010763334777"><ele>398.5</ele><time>2026-05-01T16:17:12Z</time></trkpt><trkpt lat="45.845218745298915" lon="10.552811912252064"><ele>402.0</ele><time>2026-05-01T16:17:13Z</time></trkpt><trkpt lat="45.84499855324146" lon="10.552621479517544"><ele>402.0</ele><time>2026-05-01T16:17:14Z</time></trkpt><trkpt lat="45.84478366931095" lon="10.552435558896894"><ele>402.0</ele><time>2026-05-01T16:17:15Z</time></trkpt><trkpt lat="45.84457622449612" lon="10.552252357932694"><ele>402.0</ele><time>2026-05-01T16:17:16Z</time></trkpt><trkpt lat="45.84437162892227" lon="10.552066559447821"><ele>402.0</ele><time>2026-05-01T16:17:17Z</time></trkpt><trkpt lat="45.84417061116452" lon="10.551889584796506"><ele>404.33333333333337</ele><time>2026-05-01T16:17:18Z</time></trkpt><trkpt lat="45.843980679080126" lon="10.55172205763377"><ele>406.6666666666667</ele><time>2026-05-01T16:17:19Z</time></trkpt><trkpt lat="45.84378993652323" lon="10.55155803891119"><ele>409.0</ele><time>2026-05-01T16:17:20Z</time></trkpt><trkpt lat="45.84360489852781" lon="10.551412321946332"><ele>409.6666666666667</ele><time>2026-05-01T16:17:21Z</time></trkpt><trkpt lat="45.8434234260764" lon="10.551274043132015"><ele>410.33333333333337</ele><time>2026-05-01T16:17:22Z</time></trkpt><trkpt lat="45.843244107936876" lon="10.55113905563498"><ele>411.0</ele><time>2026-05-01T16:17:23Z</time></trkpt><trkpt lat="45.84307804191442" lon="10.551008170848226"><ele>411.0</ele><time>2026-05-01T16:17:24Z</time></trkpt><trkpt lat="45.8429144108655" lon="10.550884216033692"><ele>411.0</ele><time>2026-05-01T16:17:25Z</time></trkpt><trkpt lat="45.842769257759095" lon="10.550782384893266"><ele>411.0</ele><time>2026-05-01T16:17:26Z</time></trkpt><trkpt lat="45.84264313977312" lon="10.5506812312478"><ele>409.0</ele><time>2026-05-01T16:17:27Z</time></trkpt><trkpt lat="45.84251650951987" lon="10.55058361307261"><ele>407.0</ele><time>2026-05-01T16:17:28Z</time></trkpt><trkpt lat="45.842381234740614" lon="10.550515815810757"><ele>405.0</ele><time>2026-05-01T16:17:29Z</time></trkpt><trkpt lat="45.84224296702841" lon="10.550445541524436"><ele>403.0</ele><time>2026-05-01T16:17:30Z</time></trkpt><trkpt lat="45.84210927600471" lon="10.550386643447101"><ele>404.5</ele><time>2026-05-01T16:17:31Z</time></trkpt><trkpt lat="45.841979889382976" lon="10.550321288884696"><ele>406.0</ele><time>2026-05-01T16:17:32Z</time></trkpt><trkpt lat="45.84185869688015" lon="10.550248135833499"><ele>407.5</ele><time>2026-05-01T16:17:33Z</time></trkpt><trkpt lat="45.84174340878045" lon="10.550156164526308"><ele>409.0</ele><time>2026-05-01T16:17:34Z</time></trkpt><trkpt lat="45.841631721613155" lon="10.550040474616093"><ele>409.0</ele><time>2026-05-01T16:17:35Z</time></trkpt><trkpt lat="45.84151963635925" lon="10.549930787418138"><ele>409.0</ele><time>2026-05-01T16:17:36Z</time></trkpt><trkpt lat="45.841400075202266" lon="10.549841656071957"><ele>409.0</ele><time>2026-05-01T16:17:37Z</time></trkpt><trkpt lat="45.841282056317944" lon="10.549770358630633"><ele>409.0</ele><time>2026-05-01T16:17:38Z</time></trkpt><trkpt lat="45.841145584919" lon="10.549728621973365"><ele>409.0</ele><time>2026-05-01T16:17:39Z</time></trkpt><trkpt lat="45.841006252267306" lon="10.549702505313178"><ele>409.0</ele><time>2026-05-01T16:17:40Z</time></trkpt><trkpt lat="45.84086064920628" lon="10.549682757158841"><ele>409.0</ele><time>2026-05-01T16:17:41Z</time></trkpt><trkpt lat="45.84072124153496" lon="10.549654007537862"><ele>409.0</ele><time>2026-05-01T16:17:42Z</time></trkpt><trkpt lat="45.84059043015661" lon="10.549629325061906"><ele>408.0</ele><time>2026-05-01T16:17:43Z</time></trkpt><trkpt lat="45.84046407709654" lon="10.549597508587961"><ele>407.0</ele><time>2026-05-01T16:17:44Z</time></trkpt><trkpt lat="45.84034502195369" lon="10.549545307070185"><ele>406.0</ele><time>2026-05-01T16:17:45Z</time></trkpt><trkpt lat="45.84023761156302" lon="10.54946573146958"><ele>405.0</ele><time>2026-05-01T16:17:46Z</time></trkpt><trkpt lat="45.840129349179435" lon="10.549358200987776"><ele>402.75</ele><time>2026-05-01T16:17:47Z</time></trkpt><trkpt lat="45.840021648012176" lon="10.549236311621682"><ele>400.5</ele><time>2026-05-01T16:17:48Z</time></trkpt><trkpt lat="45.83991013456669" lon="10.549106432425218"><ele>398.25</ele><time>2026-05-01T16:17:49Z</time></trkpt><trkpt lat="45.8397915670673" lon="10.548979409389528"><ele>396.0</ele><time>2026-05-01T16:17:50Z</time></trkpt><trkpt lat="45.83966546990097" lon="10.548861874362643"><ele>396.0</ele><time>2026-05-01T16:17:51Z</time></trkpt><trkpt lat="45.83952284270325" lon="10.548750980313807"><ele>396.0</ele><time>2026-05-01T16:17:52Z</time></trkpt><trkpt lat="45.839383594166826" lon="10.548643066950964"><ele>396.0</ele><time>2026-05-01T16:17:53Z</time></trkpt><trkpt lat="45.83923906260941" lon="10.548536550401609"><ele>394.66666666666663</ele><time>2026-05-01T16:17:54Z</time></trkpt><trkpt lat="45.83910024211137" lon="10.548428299644494"><ele>393.3333333333333</ele><time>2026-05-01T16:17:55Z</time></trkpt><trkpt lat="45.83896088262617" lon="10.548311915541749"><ele>392.0</ele><time>2026-05-01T16:17:56Z</time></trkpt><trkpt lat="45.83882328577312" lon="10.548202905561821"><ele>392.0</ele><time>2026-05-01T16:17:57Z</time></trkpt><trkpt lat="45.83868105923834" lon="10.548097813232252"><ele>392.0</ele><time>2026-05-01T16:17:58Z</time></trkpt><trkpt lat="45.838535269091665" lon="10.54801031264639"><ele>392.0</ele><time>2026-05-01T16:17:59Z</time></trkpt><trkpt lat="45.83837866848176" lon="10.547948942648283"><ele>390.66666666666663</ele><time>2026-05-01T16:18:00Z</time></trkpt><trkpt lat="45.83823607157947" lon="10.547850607450336"><ele>389.33333333333337</ele><time>2026-05-01T16:18:01Z</time></trkpt><trkpt lat="45.83810241438742" lon="10.547696943064205"><ele>388.0</ele><time>2026-05-01T16:18:02Z</time></trkpt><trkpt lat="45.83798588341333" lon="10.547505087002325"><ele>388.0</ele><time>2026-05-01T16:18:03Z</time></trkpt><trkpt lat="45.83787243408783" lon="10.547318568938502"><ele>388.0</ele><time>2026-05-01T16:18:04Z</time></trkpt><trkpt lat="45.83775786177546" lon="10.547138035633614"><ele>388.0</ele><time>2026-05-01T16:18:05Z</time></trkpt><trkpt lat="45.83764216878506" lon="10.546962988127309"><ele>386.33333333333337</ele><time>2026-05-01T16:18:06Z</time></trkpt><trkpt lat="45.837527843528946" lon="10.546790518364578"><ele>384.6666666666667</ele><time>2026-05-01T16:18:07Z</time></trkpt><trkpt lat="45.83741314372777" lon="10.546614521397787"><ele>383.0</ele><time>2026-05-01T16:18:08Z</time></trkpt><trkpt lat="45.83729880165249" lon="10.5464337603446"><ele>383.0</ele><time>2026-05-01T16:18:09Z</time></trkpt><trkpt lat="45.83718749807915" lon="10.546244661518736"><ele>383.0</ele><time>2026-05-01T16:18:10Z</time></trkpt><trkpt lat="45.83708246736078" lon="10.546047575315525"><ele>383.0</ele><time>2026-05-01T16:18:11Z</time></trkpt><trkpt lat="45.83698504356423" lon="10.545835512749628"><ele>382.33333333333337</ele><time>2026-05-01T16:18:12Z</time></trkpt><trkpt lat="45.836896329201515" lon="10.545608227490069"><ele>381.6666666666667</ele><time>2026-05-01T16:18:13Z</time></trkpt><trkpt lat="45.83680935743956" lon="10.545372714580637"><ele>381.0</ele><time>2026-05-01T16:18:14Z</time></trkpt><trkpt lat="45.83672717502211" lon="10.545136250750785"><ele>381.0</ele><time>2026-05-01T16:18:15Z</time></trkpt><trkpt lat="45.83664363380278" lon="10.544898569977462"><ele>381.0</ele><time>2026-05-01T16:18:16Z</time></trkpt><trkpt lat="45.836554461522645" lon="10.544661350400238"><ele>381.0</ele><time>2026-05-01T16:18:17Z</time></trkpt><trkpt lat="45.83646665979878" lon="10.544422287843451"><ele>383.0</ele><time>2026-05-01T16:18:18Z</time></trkpt><trkpt lat="45.83637407924752" lon="10.544182746701992"><ele>385.0</ele><time>2026-05-01T16:18:19Z</time></trkpt><trkpt lat="45.836287286597276" lon="10.543948502052368"><ele>387.0</ele><time>2026-05-01T16:18:20Z</time></trkpt><trkpt lat="45.83619834555243" lon="10.543728469385156"><ele>386.33333333333337</ele><time>2026-05-01T16:18:21Z</time></trkpt><trkpt lat="45.83609473318416" lon="10.543537903901191"><ele>385.6666666666667</ele><time>2026-05-01T16:18:22Z</time></trkpt><trkpt lat="45.83598097211324" lon="10.543387357404173"><ele>385.0</ele><time>2026-05-01T16:18:23Z</time></trkpt><trkpt lat="45.835843096570535" lon="10.54328106687894"><ele>385.0</ele><time>2026-05-01T16:18:24Z</time></trkpt><trkpt lat="45.835681493431935" lon="10.543222228030917"><ele>385.0</ele><time>2026-05-01T16:18:25Z</time></trkpt><trkpt lat="45.835520137524654" lon="10.543192382325534"><ele>385.0</ele><time>2026-05-01T16:18:26Z</time></trkpt><trkpt lat="45.83534826084793" lon="10.54316523151946"><ele>385.0</ele><time>2026-05-01T16:18:27Z</time></trkpt><trkpt lat="45.835177177178345" lon="10.543140518378102"><ele>385.0</ele><time>2026-05-01T16:18:28Z</time></trkpt><trkpt lat="45.834997350562524" lon="10.543103858870232"><ele>385.0</ele><time>2026-05-01T16:18:29Z</time></trkpt><trkpt lat="45.83481053485563" lon="10.543062791362997"><ele>382.6666666666667</ele><time>2026-05-01T16:18:30Z</time></trkpt><trkpt lat="45.83461365881756" lon="10.543009967458604"><ele>380.33333333333337</ele><time>2026-05-01T16:18:31Z</time></trkpt><trkpt lat="45.83441359483864" lon="10.542955000353976"><ele>378.0</ele><time>2026-05-01T16:18:32Z</time></trkpt><trkpt lat="45.83422553221963" lon="10.542900824145462"><ele>379.0</ele><time>2026-05-01T16:18:33Z</time></trkpt><trkpt lat="45.834044271638824" lon="10.542852043461481"><ele>380.0</ele><time>2026-05-01T16:18:34Z</time></trkpt><trkpt lat="45.83387043382371" lon="10.542785980582222"><ele>381.0</ele><time>2026-05-01T16:18:35Z</time></trkpt><trkpt lat="45.83369958247754" lon="10.542706805086379"><ele>381.0</ele><time>2026-05-01T16:18:36Z</time></trkpt><trkpt lat="45.8335372919305" lon="10.542612217096098"><ele>381.0</ele><time>2026-05-01T16:18:37Z</time></trkpt><trkpt lat="45.8333800979493" lon="10.54251546959314"><ele>381.0</ele><time>2026-05-01T16:18:38Z</time></trkpt><trkpt lat="45.83322622996457" lon="10.5424290462145"><ele>381.3333333333333</ele><time>2026-05-01T16:18:39Z</time></trkpt><trkpt lat="45.83307848231212" lon="10.542351140527126"><ele>381.66666666666663</ele><time>2026-05-01T16:18:40Z</time></trkpt><trkpt lat="45.832946468193796" lon="10.542243247159993"><ele>382.0</ele><time>2026-05-01T16:18:41Z</time></trkpt><trkpt lat="45.83281182477746" lon="10.542174263149601"><ele>382.0</ele><time>2026-05-01T16:18:42Z</time></trkpt><trkpt lat="45.83268347868275" lon="10.542081784117482"><ele>382.0</ele><time>2026-05-01T16:18:43Z</time></trkpt><trkpt lat="45.83255038448382" lon="10.541988691474739"><ele>382.0</ele><time>2026-05-01T16:18:44Z</time></trkpt><trkpt lat="45.83242296807984" lon="10.541897808571965"><ele>382.0</ele><time>2026-05-01T16:18:45Z</time></trkpt><trkpt lat="45.83230691923338" lon="10.541806151922728"><ele>382.20000000000005</ele><time>2026-05-01T16:18:46Z</time></trkpt><trkpt lat="45.8322033543744" lon="10.54171934469693"><ele>382.4</ele><time>2026-05-01T16:18:47Z</time></trkpt><trkpt lat="45.83211791760872" lon="10.541609577212048"><ele>382.6</ele><time>2026-05-01T16:18:48Z</time></trkpt><trkpt lat="45.832035048399895" lon="10.541519775287119"><ele>382.79999999999995</ele><time>2026-05-01T16:18:49Z</time></trkpt><trkpt lat="45.831960362599965" lon="10.541434077091507"><ele>383.0</ele><time>2026-05-01T16:18:50Z</time></trkpt><trkpt lat="45.83189534713733" lon="10.541353571245464"><ele>383.0</ele><time>2026-05-01T16:18:51Z</time></trkpt><trkpt lat="45.83183947766506" lon="10.54127777419261"><ele>383.0</ele><time>2026-05-01T16:18:52Z</time></trkpt><trkpt lat="45.83177446046449" lon="10.541213801933548"><ele>383.0</ele><time>2026-05-01T16:18:53Z</time></trkpt><trkpt lat="45.83172015723081" lon="10.541121520788288"><ele>383.0</ele><time>2026-05-01T16:18:54Z</time></trkpt><trkpt lat="45.831655825210824" lon="10.541033075249027"><ele>383.0</ele><time>2026-05-01T16:18:55Z</time></trkpt><trkpt lat="45.83160962279092" lon="10.540922373984618"><ele>383.0</ele><time>2026-05-01T16:18:56Z</time></trkpt><trkpt lat="45.83154227027765" lon="10.54083370895762"><ele>383.79999999999995</ele><time>2026-05-01T16:18:57Z</time></trkpt><trkpt lat="45.831484285458984" lon="10.54072305278307"><ele>384.6</ele><time>2026-05-01T16:18:58Z</time></trkpt><trkpt lat="45.83143837059869" lon="10.54059060794904"><ele>385.4</ele><time>2026-05-01T16:18:59Z</time></trkpt><trkpt lat="45.83138944218794" lon="10.540486340884415"><ele>386.20000000000005</ele><time>2026-05-01T16:19:00Z</time></trkpt><trkpt lat="45.83133737114423" lon="10.540397516285656"><ele>387.0</ele><time>2026-05-01T16:19:01Z</time></trkpt><trkpt lat="45.83129074796517" lon="10.540292919189937"><ele>387.6</ele><time>2026-05-01T16:19:02Z</time></trkpt><trkpt lat="45.83123922420383" lon="10.540191924918059"><ele>388.20000000000005</ele><time>2026-05-01T16:19:03Z</time></trkpt><trkpt lat="45.83118552752502" lon="10.54008882370141"><ele>388.8</ele><time>2026-05-01T16:19:04Z</time></trkpt><trkpt lat="45.83114500237955" lon="10.539962260012624"><ele>389.4</ele><time>2026-05-01T16:19:05Z</time></trkpt><trkpt lat="45.8310905817822" lon="10.539845218874177"><ele>390.0</ele><time>2026-05-01T16:19:06Z</time></trkpt><trkpt lat="45.831031432154745" lon="10.539718007111935"><ele>390.0</ele><time>2026-05-01T16:19:07Z</time></trkpt><trkpt lat="45.83096023857939" lon="10.53960081135328"><ele>390.0</ele><time>2026-05-01T16:19:08Z</time></trkpt><trkpt lat="45.830905661447574" lon="10.539477545024974"><ele>390.0</ele><time>2026-05-01T16:19:09Z</time></trkpt><trkpt lat="45.830853351149536" lon="10.539355779310487"><ele>390.0</ele><time>2026-05-01T16:19:10Z</time></trkpt><trkpt lat="45.830796509434556" lon="10.539239079432267"><ele>390.0</ele><time>2026-05-01T16:19:11Z</time></trkpt><trkpt lat="45.830742854774854" lon="10.539126025730607"><ele>390.0</ele><time>2026-05-01T16:19:12Z</time></trkpt><trkpt lat="45.830688208085014" lon="10.539009924066724"><ele>390.0</ele><time>2026-05-01T16:19:13Z</time></trkpt><trkpt lat="45.8306328938145" lon="10.538890182071295"><ele>390.0</ele><time>2026-05-01T16:19:14Z</time></trkpt><trkpt lat="45.83057761986937" lon="10.53877356413679"><ele>390.0</ele><time>2026-05-01T16:19:15Z</time></trkpt><trkpt lat="45.83051861662624" lon="10.538649148951508"><ele>390.0</ele><time>2026-05-01T16:19:16Z</time></trkpt><trkpt lat="45.830460264641154" lon="10.538523514628496"><ele>390.6</ele><time>2026-05-01T16:19:17Z</time></trkpt><trkpt lat="45.83040408740458" lon="10.538392453640668"><ele>391.2</ele><time>2026-05-01T16:19:18Z</time></trkpt><trkpt lat="45.83034526865021" lon="10.538267621797734"><ele>391.79999999999995</ele><time>2026-05-01T16:19:19Z</time></trkpt><trkpt lat="45.83029314899702" lon="10.538139097815758"><ele>392.4</ele><time>2026-05-01T16:19:20Z</time></trkpt><trkpt lat="45.83023864467673" lon="10.538019127663247"><ele>393.0</ele><time>2026-05-01T16:19:21Z</time></trkpt><trkpt lat="45.83019064682498" lon="10.537896646317488"><ele>393.0</ele><time>2026-05-01T16:19:22Z</time></trkpt><trkpt lat="45.830149604345436" lon="10.537774724929616"><ele>393.0</ele><time>2026-05-01T16:19:23Z</time></trkpt><trkpt lat="45.83011110691101" lon="10.537647524018272"><ele>393.0</ele><time>2026-05-01T16:19:24Z</time></trkpt><trkpt lat="45.83007198458963" lon="10.537512474444082"><ele>393.0</ele><time>2026-05-01T16:19:25Z</time></trkpt><trkpt lat="45.83003275806871" lon="10.537386571449945"><ele>393.0</ele><time>2026-05-01T16:19:26Z</time></trkpt><trkpt lat="45.82999437725816" lon="10.5372518555959"><ele>393.0</ele><time>2026-05-01T16:19:27Z</time></trkpt><trkpt lat="45.82995247953898" lon="10.537117745425803"><ele>393.0</ele><time>2026-05-01T16:19:28Z</time></trkpt><trkpt lat="45.82990963401717" lon="10.536981064870004"><ele>393.0</ele><time>2026-05-01T16:19:29Z</time></trkpt><trkpt lat="45.829866504244336" lon="10.53683571262174"><ele>393.0</ele><time>2026-05-01T16:19:30Z</time></trkpt><trkpt lat="45.829828749451444" lon="10.536701492164022"><ele>393.0</ele><time>2026-05-01T16:19:31Z</time></trkpt><trkpt lat="45.82977728683064" lon="10.536593140627033"><ele>393.8333333333333</ele><time>2026-05-01T16:19:32Z</time></trkpt><trkpt lat="45.82973680045587" lon="10.536478416252402"><ele>394.66666666666663</ele><time>2026-05-01T16:19:33Z</time></trkpt><trkpt lat="45.82969217720353" lon="10.53637160186117"><ele>395.5</ele><time>2026-05-01T16:19:34Z</time></trkpt><trkpt lat="45.82964827948231" lon="10.536267886547543"><ele>396.3333333333333</ele><time>2026-05-01T16:19:35Z</time></trkpt><trkpt lat="45.82960998668877" lon="10.536159172852022"><ele>397.16666666666663</ele><time>2026-05-01T16:19:36Z</time></trkpt><trkpt lat="45.82956474379472" lon="10.536067250553858"><ele>398.0</ele><time>2026-05-01T16:19:37Z</time></trkpt><trkpt lat="45.829514265164065" lon="10.535968734820912"><ele>398.59999999999997</ele><time>2026-05-01T16:19:38Z</time></trkpt><trkpt lat="45.82945967139523" lon="10.535872409012685"><ele>399.2</ele><time>2026-05-01T16:19:39Z</time></trkpt><trkpt lat="45.829404289760014" lon="10.535772188598278"><ele>399.8</ele><time>2026-05-01T16:19:40Z</time></trkpt><trkpt lat="45.829343033187506" lon="10.535667860169749"><ele>400.4</ele><time>2026-05-01T16:19:41Z</time></trkpt><trkpt lat="45.82928309095196" lon="10.535560004871874"><ele>401.0</ele><time>2026-05-01T16:19:42Z</time></trkpt><trkpt lat="45.82921876575309" lon="10.535447438105066"><ele>398.75</ele><time>2026-05-01T16:19:43Z</time></trkpt><trkpt lat="45.829147463323636" lon="10.535329909696273"><ele>396.5</ele><time>2026-05-01T16:19:44Z</time></trkpt><trkpt lat="45.82907511206596" lon="10.535208011159343"><ele>394.25</ele><time>2026-05-01T16:19:45Z</time></trkpt><trkpt lat="45.82899961659311" lon="10.535077928361657"><ele>392.0</ele><time>2026-05-01T16:19:46Z</time></trkpt><trkpt lat="45.82892066344502" lon="10.534943850081474"><ele>392.0</ele><time>2026-05-01T16:19:47Z</time></trkpt><trkpt lat="45.828839342385415" lon="10.53480479183838"><ele>392.0</ele><time>2026-05-01T16:19:48Z</time></trkpt><trkpt lat="45.828756325729024" lon="10.534666267443194"><ele>392.0</ele><time>2026-05-01T16:19:49Z</time></trkpt><trkpt lat="45.828668957149844" lon="10.534524246837782"><ele>392.0</ele><time>2026-05-01T16:19:50Z</time></trkpt><trkpt lat="45.82857766301916" lon="10.534375278823656"><ele>391.25</ele><time>2026-05-01T16:19:51Z</time></trkpt><trkpt lat="45.82848954150902" lon="10.534226127648658"><ele>390.5</ele><time>2026-05-01T16:19:52Z</time></trkpt><trkpt lat="45.828398049339356" lon="10.534082645267189"><ele>389.75</ele><time>2026-05-01T16:19:53Z</time></trkpt><trkpt lat="45.82830378348856" lon="10.533937093751893"><ele>389.0</ele><time>2026-05-01T16:19:54Z</time></trkpt><trkpt lat="45.82821154793256" lon="10.533794326691487"><ele>395.25</ele><time>2026-05-01T16:19:55Z</time></trkpt><trkpt lat="45.82812353222689" lon="10.533655605166603"><ele>401.5</ele><time>2026-05-01T16:19:56Z</time></trkpt><trkpt lat="45.828034936535445" lon="10.53352566922752"><ele>407.75</ele><time>2026-05-01T16:19:57Z</time></trkpt><trkpt lat="45.8279522295674" lon="10.533396466513869"><ele>414.0</ele><time>2026-05-01T16:19:58Z</time></trkpt><trkpt lat="45.82787056533331" lon="10.533268098994144"><ele>414.0</ele><time>2026-05-01T16:19:59Z</time></trkpt><trkpt lat="45.82778848864402" lon="10.533142016448178"><ele>414.0</ele><time>2026-05-01T16:20:00Z</time></trkpt><trkpt lat="45.82770663104906" lon="10.533017428301228"><ele>414.0</ele><time>2026-05-01T16:20:01Z</time></trkpt><trkpt lat="45.82763085364215" lon="10.53289605384587"><ele>414.0</ele><time>2026-05-01T16:20:02Z</time></trkpt><trkpt lat="45.82755877130829" lon="10.532785405185566"><ele>410.0</ele><time>2026-05-01T16:20:03Z</time></trkpt><trkpt lat="45.827488753334656" lon="10.532676217773536"><ele>406.0</ele><time>2026-05-01T16:20:04Z</time></trkpt><trkpt lat="45.82740562038552" lon="10.532571233247007"><ele>402.0</ele><time>2026-05-01T16:20:05Z</time></trkpt><trkpt lat="45.82731633368385" lon="10.532477040046526"><ele>398.0</ele><time>2026-05-01T16:20:06Z</time></trkpt><trkpt lat="45.82722143682043" lon="10.532400668238589"><ele>394.0</ele><time>2026-05-01T16:20:07Z</time></trkpt><trkpt lat="45.82712982974683" lon="10.532331694246036"><ele>394.0</ele><time>2026-05-01T16:20:08Z</time></trkpt><trkpt lat="45.827039159229685" lon="10.532260583718877"><ele>394.0</ele><time>2026-05-01T16:20:09Z</time></trkpt><trkpt lat="45.82694765111746" lon="10.532194063729449"><ele>394.0</ele><time>2026-05-01T16:20:10Z</time></trkpt><trkpt lat="45.82685812299255" lon="10.532126124452983"><ele>394.0</ele><time>2026-05-01T16:20:11Z</time></trkpt><trkpt lat="45.82677321609187" lon="10.532055861616646"><ele>394.0</ele><time>2026-05-01T16:20:12Z</time></trkpt><trkpt lat="45.8266821343041" lon="10.531984643149476"><ele>392.79999999999995</ele><time>2026-05-01T16:20:13Z</time></trkpt><trkpt lat="45.826593259967545" lon="10.531910739987497"><ele>391.59999999999997</ele><time>2026-05-01T16:20:14Z</time></trkpt><trkpt lat="45.82650137969277" lon="10.531837355848474"><ele>390.4</ele><time>2026-05-01T16:20:15Z</time></trkpt><trkpt lat="45.82641254047062" lon="10.531760843537972"><ele>389.2</ele><time>2026-05-01T16:20:16Z</time></trkpt><trkpt lat="45.82632501991855" lon="10.531683242826759"><ele>388.0</ele><time>2026-05-01T16:20:17Z</time></trkpt><trkpt lat="45.82623838981816" lon="10.531599171609896"><ele>388.0</ele><time>2026-05-01T16:20:18Z</time></trkpt><trkpt lat="45.826145029740815" lon="10.531507368499232"><ele>388.0</ele><time>2026-05-01T16:20:19Z</time></trkpt><trkpt lat="45.82605197017775" lon="10.531414114409282"><ele>388.0</ele><time>2026-05-01T16:20:20Z</time></trkpt><trkpt lat="45.825965829694454" lon="10.531322107489357"><ele>388.0</ele><time>2026-05-01T16:20:21Z</time></trkpt><trkpt lat="45.82588481799695" lon="10.531240159961563"><ele>388.0</ele><time>2026-05-01T16:20:22Z</time></trkpt><trkpt lat="45.82580528017277" lon="10.531152230285821"><ele>387.1666666666667</ele><time>2026-05-01T16:20:23Z</time></trkpt><trkpt lat="45.825734290658396" lon="10.531069715619669"><ele>386.33333333333337</ele><time>2026-05-01T16:20:24Z</time></trkpt><trkpt lat="45.82567142708208" lon="10.530992237161866"><ele>385.5</ele><time>2026-05-01T16:20:25Z</time></trkpt><trkpt lat="45.82561458342851" lon="10.53092502900035"><ele>384.6666666666667</ele><time>2026-05-01T16:20:26Z</time></trkpt><trkpt lat="45.825571247659035" lon="10.530855301152483"><ele>383.83333333333337</ele><time>2026-05-01T16:20:27Z</time></trkpt><trkpt lat="45.82549983832011" lon="10.530745303419431"><ele>383.0</ele><time>2026-05-01T16:20:29Z</time></trkpt><trkpt lat="45.82541261714631" lon="10.530606901704289"><ele>383.0</ele><time>2026-05-01T16:20:31Z</time></trkpt><trkpt lat="45.82536235809499" lon="10.530518357040215"><ele>383.0</ele><time>2026-05-01T16:20:32Z</time></trkpt><trkpt lat="45.82531693316119" lon="10.530441715594812"><ele>383.0</ele><time>2026-05-01T16:20:33Z</time></trkpt><trkpt lat="45.82524075526664" lon="10.530315889201058"><ele>383.0</ele><time>2026-05-01T16:20:35Z</time></trkpt><trkpt lat="45.82515622318365" lon="10.53019220191249"><ele>383.0</ele><time>2026-05-01T16:20:37Z</time></trkpt><trkpt lat="45.82509473572324" lon="10.53014363392227"><ele>383.59999999999997</ele><time>2026-05-01T16:20:38Z</time></trkpt><trkpt lat="45.82503307266998" lon="10.530059656587426"><ele>384.2</ele><time>2026-05-01T16:20:39Z</time></trkpt><trkpt lat="45.82495443705509" lon="10.52999948310608"><ele>384.8</ele><time>2026-05-01T16:20:40Z</time></trkpt><trkpt lat="45.82485868937571" lon="10.529938369401014"><ele>385.4</ele><time>2026-05-01T16:20:41Z</time></trkpt><trkpt lat="45.824753812987225" lon="10.529883754849063"><ele>386.0</ele><time>2026-05-01T16:20:42Z</time></trkpt><trkpt lat="45.82464898077638" lon="10.529835441860548"><ele>386.0</ele><time>2026-05-01T16:20:43Z</time></trkpt><trkpt lat="45.8245486978539" lon="10.529787885343271"><ele>386.0</ele><time>2026-05-01T16:20:44Z</time></trkpt><trkpt lat="45.82443976494347" lon="10.52974180081517"><ele>386.0</ele><time>2026-05-01T16:20:45Z</time></trkpt><trkpt lat="45.824335017924355" lon="10.529695951819356"><ele>386.0</ele><time>2026-05-01T16:20:46Z</time></trkpt><trkpt lat="45.82423192902654" lon="10.529648108184466"><ele>386.0</ele><time>2026-05-01T16:20:47Z</time></trkpt><trkpt lat="45.824135675886545" lon="10.529587847444898"><ele>386.4</ele><time>2026-05-01T16:20:48Z</time></trkpt><trkpt lat="45.824037264169526" lon="10.529524958705233"><ele>386.8</ele><time>2026-05-01T16:20:49Z</time></trkpt><trkpt lat="45.8239423110019" lon="10.52945099145051"><ele>387.2</ele><time>2026-05-01T16:20:50Z</time></trkpt><trkpt lat="45.823854099647725" lon="10.529385416422734"><ele>387.59999999999997</ele><time>2026-05-01T16:20:51Z</time></trkpt><trkpt lat="45.823765004023116" lon="10.529313137955732"><ele>388.0</ele><time>2026-05-01T16:20:52Z</time></trkpt><trkpt lat="45.82366384318815" lon="10.52923754047188"><ele>388.0</ele><time>2026-05-01T16:20:53Z</time></trkpt><trkpt lat="45.82356739807548" lon="10.529144105309996"><ele>388.0</ele><time>2026-05-01T16:20:54Z</time></trkpt><trkpt lat="45.82347031961358" lon="10.529069003906905"><ele>388.0</ele><time>2026-05-01T16:20:55Z</time></trkpt><trkpt lat="45.82337071725937" lon="10.529011051048805"><ele>388.0</ele><time>2026-05-01T16:20:56Z</time></trkpt><trkpt lat="45.82327485108313" lon="10.528917786437182"><ele>389.0</ele><time>2026-05-01T16:20:57Z</time></trkpt><trkpt lat="45.82317402318749" lon="10.528839784427673"><ele>390.0</ele><time>2026-05-01T16:20:58Z</time></trkpt><trkpt lat="45.82307547723694" lon="10.52876354776335"><ele>391.0</ele><time>2026-05-01T16:20:59Z</time></trkpt><trkpt lat="45.822975841419584" lon="10.528686467957176"><ele>392.0</ele><time>2026-05-01T16:21:00Z</time></trkpt><trkpt lat="45.8228760149351" lon="10.528609377765058"><ele>392.0</ele><time>2026-05-01T16:21:01Z</time></trkpt><trkpt lat="45.82277866293472" lon="10.528534390412611"><ele>392.0</ele><time>2026-05-01T16:21:02Z</time></trkpt><trkpt lat="45.82267394589423" lon="10.528479184292287"><ele>392.0</ele><time>2026-05-01T16:21:03Z</time></trkpt><trkpt lat="45.82259005674701" lon="10.528397738725715"><ele>392.0</ele><time>2026-05-01T16:21:04Z</time></trkpt><trkpt lat="45.82249982721376" lon="10.528328966014985"><ele>392.0</ele><time>2026-05-01T16:21:05Z</time></trkpt><trkpt lat="45.82241089937595" lon="10.52825833529352"><ele>389.40000000000003</ele><time>2026-05-01T16:21:06Z</time></trkpt><trkpt lat="45.82232286953854" lon="10.528193598711916"><ele>386.8</ele><time>2026-05-01T16:21:07Z</time></trkpt><trkpt lat="45.82223981771217" lon="10.528125948935195"><ele>384.2</ele><time>2026-05-01T16:21:08Z</time></trkpt><trkpt lat="45.822148409596146" lon="10.528059259824184"><ele>381.6</ele><time>2026-05-01T16:21:09Z</time></trkpt><trkpt lat="45.82205796831048" lon="10.527992730865833"><ele>379.0</ele><time>2026-05-01T16:21:10Z</time></trkpt><trkpt lat="45.82198036968888" lon="10.527919856952607"><ele>379.79999999999995</ele><time>2026-05-01T16:21:11Z</time></trkpt><trkpt lat="45.82189902853814" lon="10.527843023175311"><ele>380.59999999999997</ele><time>2026-05-01T16:21:12Z</time></trkpt><trkpt lat="45.82181635098594" lon="10.527766354860965"><ele>381.4</ele><time>2026-05-01T16:21:13Z</time></trkpt><trkpt lat="45.82172651522024" lon="10.527684715110462"><ele>382.2</ele><time>2026-05-01T16:21:14Z</time></trkpt><trkpt lat="45.82163779053939" lon="10.527592821721692"><ele>383.0</ele><time>2026-05-01T16:21:15Z</time></trkpt><trkpt lat="45.82156158740498" lon="10.527498509190375"><ele>383.0</ele><time>2026-05-01T16:21:16Z</time></trkpt><trkpt lat="45.82149045136617" lon="10.527407426356135"><ele>383.0</ele><time>2026-05-01T16:21:17Z</time></trkpt><trkpt lat="45.821434008215945" lon="10.527329727322744"><ele>383.0</ele><time>2026-05-01T16:21:18Z</time></trkpt><trkpt lat="45.82137753684698" lon="10.527257857704765"><ele>383.0</ele><time>2026-05-01T16:21:19Z</time></trkpt><trkpt lat="45.82132465979654" lon="10.527195144074145"><ele>383.0</ele><time>2026-05-01T16:21:20Z</time></trkpt><trkpt lat="45.82124888770952" lon="10.527099805139498"><ele>383.0</ele><time>2026-05-01T16:21:22Z</time></trkpt><trkpt lat="45.82118169430519" lon="10.526998800990814"><ele>381.75</ele><time>2026-05-01T16:21:24Z</time></trkpt><trkpt lat="45.82112181805694" lon="10.526923943093207"><ele>380.5</ele><time>2026-05-01T16:21:25Z</time></trkpt><trkpt lat="45.82104938538646" lon="10.526819773984728"><ele>379.25</ele><time>2026-05-01T16:21:26Z</time></trkpt><trkpt lat="45.82096487030326" lon="10.526684827326775"><ele>378.0</ele><time>2026-05-01T16:21:27Z</time></trkpt><trkpt lat="45.82087013107202" lon="10.526519651721891"><ele>378.0</ele><time>2026-05-01T16:21:28Z</time></trkpt><trkpt lat="45.820772176451044" lon="10.526342070224551"><ele>378.0</ele><time>2026-05-01T16:21:29Z</time></trkpt><trkpt lat="45.82066667984546" lon="10.526146209157123"><ele>378.0</ele><time>2026-05-01T16:21:30Z</time></trkpt><trkpt lat="45.820548112491" lon="10.525950415463415"><ele>380.66666666666663</ele><time>2026-05-01T16:21:31Z</time></trkpt><trkpt lat="45.82042798778929" lon="10.525743909212007"><ele>383.3333333333333</ele><time>2026-05-01T16:21:32Z</time></trkpt><trkpt lat="45.82030430338737" lon="10.525532587516205"><ele>386.0</ele><time>2026-05-01T16:21:33Z</time></trkpt><trkpt lat="45.820185970296556" lon="10.525317224039384"><ele>383.0</ele><time>2026-05-01T16:21:34Z</time></trkpt><trkpt lat="45.82006457050153" lon="10.525108003824888"><ele>380.0</ele><time>2026-05-01T16:21:35Z</time></trkpt><trkpt lat="45.81994656019689" lon="10.5249017680132"><ele>377.0</ele><time>2026-05-01T16:21:36Z</time></trkpt><trkpt lat="45.819829833118376" lon="10.524697622885135"><ele>381.33333333333337</ele><time>2026-05-01T16:21:37Z</time></trkpt><trkpt lat="45.81971332694381" lon="10.52449710284715"><ele>385.6666666666667</ele><time>2026-05-01T16:21:38Z</time></trkpt><trkpt lat="45.81959769949842" lon="10.524297832103072"><ele>390.0</ele><time>2026-05-01T16:21:39Z</time></trkpt><trkpt lat="45.819493565745695" lon="10.524101482751144"><ele>390.0</ele><time>2026-05-01T16:21:40Z</time></trkpt><trkpt lat="45.81938056289544" lon="10.523914572607358"><ele>390.0</ele><time>2026-05-01T16:21:41Z</time></trkpt><trkpt lat="45.81926813519533" lon="10.523725226497477"><ele>390.0</ele><time>2026-05-01T16:21:42Z</time></trkpt><trkpt lat="45.81915886187115" lon="10.523544019593388"><ele>388.33333333333337</ele><time>2026-05-01T16:21:43Z</time></trkpt><trkpt lat="45.81905252259476" lon="10.523368166984099"><ele>386.6666666666667</ele><time>2026-05-01T16:21:44Z</time></trkpt><trkpt lat="45.81894685673238" lon="10.523208368558405"><ele>385.0</ele><time>2026-05-01T16:21:45Z</time></trkpt><trkpt lat="45.818850587058215" lon="10.523059900385835"><ele>385.0</ele><time>2026-05-01T16:21:46Z</time></trkpt><trkpt lat="45.81875836876645" lon="10.52292373724249"><ele>385.0</ele><time>2026-05-01T16:21:47Z</time></trkpt><trkpt lat="45.81866287275833" lon="10.522792979332229"><ele>385.0</ele><time>2026-05-01T16:21:48Z</time></trkpt><trkpt lat="45.818554850103695" lon="10.522656341884336"><ele>385.0</ele><time>2026-05-01T16:21:49Z</time></trkpt><trkpt lat="45.81842808187731" lon="10.522526052620247"><ele>382.6666666666667</ele><time>2026-05-01T16:21:50Z</time></trkpt><trkpt lat="45.81828991306077" lon="10.522424286910793"><ele>380.33333333333337</ele><time>2026-05-01T16:21:51Z</time></trkpt><trkpt lat="45.81815560547663" lon="10.522323893913532"><ele>378.0</ele><time>2026-05-01T16:21:52Z</time></trkpt><trkpt lat="45.81804458302284" lon="10.522188681731148"><ele>385.0</ele><time>2026-05-01T16:21:53Z</time></trkpt><trkpt lat="45.81795555484833" lon="10.522007649033826"><ele>392.0</ele><time>2026-05-01T16:21:54Z</time></trkpt><trkpt lat="45.817848363384" lon="10.52185276095969"><ele>399.0</ele><time>2026-05-01T16:21:55Z</time></trkpt><trkpt lat="45.817753692913435" lon="10.521668571333882"><ele>401.0</ele><time>2026-05-01T16:21:56Z</time></trkpt><trkpt lat="45.81765043407996" lon="10.521489841245986"><ele>403.0</ele><time>2026-05-01T16:21:57Z</time></trkpt><trkpt lat="45.81754413672634" lon="10.521306181787777"><ele>405.0</ele><time>2026-05-01T16:21:58Z</time></trkpt><trkpt lat="45.81743172551273" lon="10.521126147604289"><ele>405.0</ele><time>2026-05-01T16:21:59Z</time></trkpt><trkpt lat="45.817322450041935" lon="10.520944680200598"><ele>405.0</ele><time>2026-05-01T16:22:00Z</time></trkpt><trkpt lat="45.817212623315115" lon="10.520767472852436"><ele>405.0</ele><time>2026-05-01T16:22:01Z</time></trkpt><trkpt lat="45.817103980156354" lon="10.520589663136793"><ele>405.0</ele><time>2026-05-01T16:22:02Z</time></trkpt><trkpt lat="45.81700442898977" lon="10.520420796981714"><ele>405.0</ele><time>2026-05-01T16:22:03Z</time></trkpt><trkpt lat="45.816910267014805" lon="10.520262898589545"><ele>405.0</ele><time>2026-05-01T16:22:04Z</time></trkpt><trkpt lat="45.816824842020644" lon="10.520113804916944"><ele>405.0</ele><time>2026-05-01T16:22:05Z</time></trkpt><trkpt lat="45.8167482785492" lon="10.519977613034772"><ele>403.5</ele><time>2026-05-01T16:22:06Z</time></trkpt><trkpt lat="45.81666665815809" lon="10.51984812441273"><ele>402.0</ele><time>2026-05-01T16:22:07Z</time></trkpt><trkpt lat="45.8165791640519" lon="10.519715905803418"><ele>400.5</ele><time>2026-05-01T16:22:08Z</time></trkpt><trkpt lat="45.81648275235256" lon="10.519590816565174"><ele>399.0</ele><time>2026-05-01T16:22:09Z</time></trkpt><trkpt lat="45.8163751878837" lon="10.519495871210644"><ele>401.0</ele><time>2026-05-01T16:22:10Z</time></trkpt><trkpt lat="45.81625033292639" lon="10.519422606436857"><ele>403.0</ele><time>2026-05-01T16:22:11Z</time></trkpt><trkpt lat="45.81612449949117" lon="10.51936039689922"><ele>405.0</ele><time>2026-05-01T16:22:12Z</time></trkpt><trkpt lat="45.8160054497071" lon="10.519302838078755"><ele>407.0</ele><time>2026-05-01T16:22:13Z</time></trkpt><trkpt lat="45.81589887845726" lon="10.519254583161706"><ele>407.0</ele><time>2026-05-01T16:22:14Z</time></trkpt><trkpt lat="45.81580467338452" lon="10.519206534036304"><ele>407.0</ele><time>2026-05-01T16:22:15Z</time></trkpt><trkpt lat="45.815716411957695" lon="10.519160100639944"><ele>407.0</ele><time>2026-05-01T16:22:16Z</time></trkpt><trkpt lat="45.8156195247129" lon="10.519112911801031"><ele>407.0</ele><time>2026-05-01T16:22:17Z</time></trkpt><trkpt lat="45.81552222816369" lon="10.519069742922591"><ele>407.0</ele><time>2026-05-01T16:22:18Z</time></trkpt><trkpt lat="45.8154286774664" lon="10.519021569618372"><ele>407.0</ele><time>2026-05-01T16:22:19Z</time></trkpt><trkpt lat="45.8153359288475" lon="10.518974769476353"><ele>407.0</ele><time>2026-05-01T16:22:20Z</time></trkpt><trkpt lat="45.81524079123121" lon="10.51892398427163"><ele>407.0</ele><time>2026-05-01T16:22:21Z</time></trkpt><trkpt lat="45.8151496641134" lon="10.518855392003433"><ele>407.0</ele><time>2026-05-01T16:22:22Z</time></trkpt><trkpt lat="45.81506488620693" lon="10.518762616320533"><ele>407.0</ele><time>2026-05-01T16:22:23Z</time></trkpt><trkpt lat="45.81499044533067" lon="10.51864387453433"><ele>410.0</ele><time>2026-05-01T16:22:24Z</time></trkpt><trkpt lat="45.81493419845248" lon="10.518488091470763"><ele>413.0</ele><time>2026-05-01T16:22:25Z</time></trkpt><trkpt lat="45.81485236121631" lon="10.518336395396497"><ele>416.0</ele><time>2026-05-01T16:22:26Z</time></trkpt><trkpt lat="45.81477729131159" lon="10.518163692096552"><ele>419.0</ele><time>2026-05-01T16:22:27Z</time></trkpt><trkpt lat="45.81468367661342" lon="10.518009417322181"><ele>419.75</ele><time>2026-05-01T16:22:28Z</time></trkpt><trkpt lat="45.814571561037354" lon="10.517878511692004"><ele>420.5</ele><time>2026-05-01T16:22:29Z</time></trkpt><trkpt lat="45.81445812638469" lon="10.51777066209441"><ele>421.25</ele><time>2026-05-01T16:22:30Z</time></trkpt><trkpt lat="45.81435067666409" lon="10.517670421456765"><ele>422.0</ele><time>2026-05-01T16:22:31Z</time></trkpt><trkpt lat="45.81424313041177" lon="10.517553430001707"><ele>422.0</ele><time>2026-05-01T16:22:32Z</time></trkpt><trkpt lat="45.81413101178615" lon="10.517434070877918"><ele>422.0</ele><time>2026-05-01T16:22:33Z</time></trkpt><trkpt lat="45.81401985845413" lon="10.517312220776269"><ele>422.0</ele><time>2026-05-01T16:22:34Z</time></trkpt><trkpt lat="45.81390752234853" lon="10.517187770703897"><ele>422.0</ele><time>2026-05-01T16:22:35Z</time></trkpt><trkpt lat="45.813796348683816" lon="10.517061188172347"><ele>420.5</ele><time>2026-05-01T16:22:36Z</time></trkpt><trkpt lat="45.81369515048477" lon="10.516927921277615"><ele>419.0</ele><time>2026-05-01T16:22:37Z</time></trkpt><trkpt lat="45.813602334674336" lon="10.516782815069579"><ele>417.5</ele><time>2026-05-01T16:22:38Z</time></trkpt><trkpt lat="45.81350708377313" lon="10.51663913343988"><ele>416.0</ele><time>2026-05-01T16:22:39Z</time></trkpt><trkpt lat="45.81342104678667" lon="10.516502543802467"><ele>416.0</ele><time>2026-05-01T16:22:40Z</time></trkpt><trkpt lat="45.81334346300838" lon="10.516381706286957"><ele>416.0</ele><time>2026-05-01T16:22:41Z</time></trkpt><trkpt lat="45.813260842635145" lon="10.516256980384705"><ele>416.0</ele><time>2026-05-01T16:22:42Z</time></trkpt><trkpt lat="45.81318166081253" lon="10.516121319790855"><ele>416.0</ele><time>2026-05-01T16:22:43Z</time></trkpt><trkpt lat="45.813108482119524" lon="10.515979339176825"><ele>421.25</ele><time>2026-05-01T16:22:44Z</time></trkpt><trkpt lat="45.813037569456014" lon="10.51582931253751"><ele>426.5</ele><time>2026-05-01T16:22:45Z</time></trkpt><trkpt lat="45.81297129126254" lon="10.515673993958476"><ele>431.75</ele><time>2026-05-01T16:22:46Z</time></trkpt><trkpt lat="45.81290297203123" lon="10.515522038123418"><ele>437.0</ele><time>2026-05-01T16:22:47Z</time></trkpt><trkpt lat="45.81283939477288" lon="10.515378922800062"><ele>435.25</ele><time>2026-05-01T16:22:48Z</time></trkpt><trkpt lat="45.812773254381256" lon="10.515242139510065"><ele>433.5</ele><time>2026-05-01T16:22:49Z</time></trkpt><trkpt lat="45.81269584756791" lon="10.515115528349758"><ele>431.75</ele><time>2026-05-01T16:22:50Z</time></trkpt><trkpt lat="45.812607442901026" lon="10.514997769464356"><ele>430.0</ele><time>2026-05-01T16:22:51Z</time></trkpt><trkpt lat="45.81250612475579" lon="10.514903135742465"><ele>430.0</ele><time>2026-05-01T16:22:52Z</time></trkpt><trkpt lat="45.81239537028631" lon="10.514825365849848"><ele>430.0</ele><time>2026-05-01T16:22:53Z</time></trkpt><trkpt lat="45.81228318122048" lon="10.514750469462046"><ele>430.0</ele><time>2026-05-01T16:22:54Z</time></trkpt><trkpt lat="45.812172782124506" lon="10.51467087689303"><ele>430.0</ele><time>2026-05-01T16:22:55Z</time></trkpt><trkpt lat="45.81206282204581" lon="10.514587921706438"><ele>429.25</ele><time>2026-05-01T16:22:56Z</time></trkpt><trkpt lat="45.81195755060379" lon="10.514508945412526"><ele>428.5</ele><time>2026-05-01T16:22:57Z</time></trkpt><trkpt lat="45.81185511886625" lon="10.514430545451189"><ele>427.75</ele><time>2026-05-01T16:22:58Z</time></trkpt><trkpt lat="45.811756571589534" lon="10.514326367224955"><ele>427.0</ele><time>2026-05-01T16:22:59Z</time></trkpt><trkpt lat="45.811683499078846" lon="10.514177412006038"><ele>427.0</ele><time>2026-05-01T16:23:00Z</time></trkpt><trkpt lat="45.81160514505582" lon="10.514034596752294"><ele>427.0</ele><time>2026-05-01T16:23:01Z</time></trkpt><trkpt lat="45.811515292500886" lon="10.513907531624056"><ele>427.0</ele><time>2026-05-01T16:23:02Z</time></trkpt><trkpt lat="45.811442756912335" lon="10.513752728553305"><ele>427.0</ele><time>2026-05-01T16:23:03Z</time></trkpt><trkpt lat="45.8113666006478" lon="10.513608428259356"><ele>430.5</ele><time>2026-05-01T16:23:04Z</time></trkpt><trkpt lat="45.811285177289925" lon="10.51346762343478"><ele>434.0</ele><time>2026-05-01T16:23:05Z</time></trkpt><trkpt lat="45.811209525163406" lon="10.513332723171104"><ele>437.5</ele><time>2026-05-01T16:23:06Z</time></trkpt><trkpt lat="45.811125018841985" lon="10.51322267453973"><ele>441.0</ele><time>2026-05-01T16:23:07Z</time></trkpt><trkpt lat="45.81104129611957" lon="10.513128554162464"><ele>440.4</ele><time>2026-05-01T16:23:08Z</time></trkpt><trkpt lat="45.81095100378443" lon="10.513037403057675"><ele>439.8</ele><time>2026-05-01T16:23:09Z</time></trkpt><trkpt lat="45.81086406030509" lon="10.512955540964414"><ele>439.19999999999993</ele><time>2026-05-01T16:23:10Z</time></trkpt><trkpt lat="45.810776866150384" lon="10.512877830986596"><ele>438.59999999999997</ele><time>2026-05-01T16:23:11Z</time></trkpt><trkpt lat="45.81068968882458" lon="10.512798872537932"><ele>438.0</ele><time>2026-05-01T16:23:12Z</time></trkpt><trkpt lat="45.81059970942002" lon="10.512715245037526"><ele>438.0</ele><time>2026-05-01T16:23:13Z</time></trkpt><trkpt lat="45.81050946947976" lon="10.512622103858261"><ele>438.0</ele><time>2026-05-01T16:23:14Z</time></trkpt><trkpt lat="45.810421661499234" lon="10.512513899367681"><ele>438.0</ele><time>2026-05-01T16:23:15Z</time></trkpt><trkpt lat="45.81035423276621" lon="10.512372688306241"><ele>438.0</ele><time>2026-05-01T16:23:16Z</time></trkpt><trkpt lat="45.81026536167186" lon="10.512245507392759"><ele>438.0</ele><time>2026-05-01T16:23:17Z</time></trkpt><trkpt lat="45.810193594490606" lon="10.512089822623855"><ele>438.0</ele><time>2026-05-01T16:23:18Z</time></trkpt><trkpt lat="45.81010453778906" lon="10.511935932378831"><ele>438.0</ele><time>2026-05-01T16:23:19Z</time></trkpt><trkpt lat="45.81000201180522" lon="10.511733248115997"><ele>438.0</ele><time>2026-05-01T16:23:20Z</time></trkpt><trkpt lat="45.80988443097978" lon="10.511502593592114"><ele>438.0</ele><time>2026-05-01T16:23:21Z</time></trkpt><trkpt lat="45.80978323284676" lon="10.511281800041816"><ele>438.0</ele><time>2026-05-01T16:23:22Z</time></trkpt><trkpt lat="45.80968885615878" lon="10.511104047850814"><ele>438.0</ele><time>2026-05-01T16:23:23Z</time></trkpt><trkpt lat="45.80960320311151" lon="10.5109578878597"><ele>436.0</ele><time>2026-05-01T16:23:24Z</time></trkpt><trkpt lat="45.80951395619072" lon="10.510823025623859"><ele>434.0</ele><time>2026-05-01T16:23:25Z</time></trkpt><trkpt lat="45.80943267922587" lon="10.510687315508715"><ele>432.0</ele><time>2026-05-01T16:23:26Z</time></trkpt><trkpt lat="45.80935120842488" lon="10.510561042960163"><ele>430.0</ele><time>2026-05-01T16:23:27Z</time></trkpt><trkpt lat="45.80926482913298" lon="10.510420774064416"><ele>434.0</ele><time>2026-05-01T16:23:28Z</time></trkpt><trkpt lat="45.80917003075563" lon="10.510272518082258"><ele>438.0</ele><time>2026-05-01T16:23:29Z</time></trkpt><trkpt lat="45.80908106152921" lon="10.510135231520726"><ele>442.0</ele><time>2026-05-01T16:23:30Z</time></trkpt><trkpt lat="45.80900108398336" lon="10.5099960163455"><ele>446.0</ele><time>2026-05-01T16:23:31Z</time></trkpt><trkpt lat="45.808919065149595" lon="10.509855192138442"><ele>446.0</ele><time>2026-05-01T16:23:32Z</time></trkpt><trkpt lat="45.80882830339261" lon="10.509720052560489"><ele>446.0</ele><time>2026-05-01T16:23:33Z</time></trkpt><trkpt lat="45.808737242798216" lon="10.509583641125452"><ele>446.0</ele><time>2026-05-01T16:23:34Z</time></trkpt><trkpt lat="45.80865170216876" lon="10.50945922215695"><ele>446.0</ele><time>2026-05-01T16:23:35Z</time></trkpt><trkpt lat="45.80855499703854" lon="10.509357516335815"><ele>445.5</ele><time>2026-05-01T16:23:36Z</time></trkpt><trkpt lat="45.80846252997731" lon="10.509262589020548"><ele>445.0</ele><time>2026-05-01T16:23:37Z</time></trkpt><trkpt lat="45.80836925136677" lon="10.509160011848673"><ele>444.5</ele><time>2026-05-01T16:23:38Z</time></trkpt><trkpt lat="45.80825971379083" lon="10.50905557138554"><ele>444.0</ele><time>2026-05-01T16:23:39Z</time></trkpt><trkpt lat="45.808151264818456" lon="10.508939609775874"><ele>444.0</ele><time>2026-05-01T16:23:40Z</time></trkpt><trkpt lat="45.80804785811552" lon="10.508830304408162"><ele>444.0</ele><time>2026-05-01T16:23:41Z</time></trkpt><trkpt lat="45.80795558876828" lon="10.50873959641288"><ele>444.0</ele><time>2026-05-01T16:23:42Z</time></trkpt><trkpt lat="45.80787125709925" lon="10.50866038701265"><ele>444.0</ele><time>2026-05-01T16:23:43Z</time></trkpt><trkpt lat="45.807789307397506" lon="10.508579622093212"><ele>444.0</ele><time>2026-05-01T16:23:44Z</time></trkpt><trkpt lat="45.80771066978271" lon="10.508494843992702"><ele>442.2</ele><time>2026-05-01T16:23:45Z</time></trkpt><trkpt lat="45.80763316893749" lon="10.508391375085035"><ele>440.4</ele><time>2026-05-01T16:23:46Z</time></trkpt><trkpt lat="45.807576296153805" lon="10.508275927307336"><ele>438.6</ele><time>2026-05-01T16:23:47Z</time></trkpt><trkpt lat="45.807562313358666" lon="10.508138069659001"><ele>436.8</ele><time>2026-05-01T16:23:48Z</time></trkpt><trkpt lat="45.80752801784156" lon="10.508022532700682"><ele>435.0</ele><time>2026-05-01T16:23:49Z</time></trkpt><trkpt lat="45.80751725561366" lon="10.507909598400362"><ele>438.1666666666667</ele><time>2026-05-01T16:23:50Z</time></trkpt><trkpt lat="45.8074922014942" lon="10.507806834350092"><ele>441.33333333333337</ele><time>2026-05-01T16:23:51Z</time></trkpt><trkpt lat="45.80745879779283" lon="10.507715034502903"><ele>444.5</ele><time>2026-05-01T16:23:52Z</time></trkpt><trkpt lat="45.80739724540403" lon="10.507628328236878"><ele>447.6666666666667</ele><time>2026-05-01T16:23:53Z</time></trkpt><trkpt lat="45.80731562980524" lon="10.507584831127716"><ele>450.83333333333337</ele><time>2026-05-01T16:23:54Z</time></trkpt><trkpt lat="45.807224165650595" lon="10.507548763806378"><ele>454.0</ele><time>2026-05-01T16:23:55Z</time></trkpt><trkpt lat="45.80713306325892" lon="10.507509948490696"><ele>454.0</ele><time>2026-05-01T16:23:56Z</time></trkpt><trkpt lat="45.80703286598205" lon="10.50746089633982"><ele>454.0</ele><time>2026-05-01T16:23:57Z</time></trkpt><trkpt lat="45.80691677033429" lon="10.50741599027197"><ele>454.0</ele><time>2026-05-01T16:23:58Z</time></trkpt><trkpt lat="45.80681010724912" lon="10.507357058980622"><ele>454.0</ele><time>2026-05-01T16:23:59Z</time></trkpt><trkpt lat="45.80670195334317" lon="10.50728361863181"><ele>453.5</ele><time>2026-05-01T16:24:00Z</time></trkpt><trkpt lat="45.80659001847549" lon="10.50718568258047"><ele>453.0</ele><time>2026-05-01T16:24:01Z</time></trkpt><trkpt lat="45.806481844847035" lon="10.507071837019188"><ele>452.5</ele><time>2026-05-01T16:24:02Z</time></trkpt><trkpt lat="45.806368310655564" lon="10.506952909835675"><ele>452.0</ele><time>2026-05-01T16:24:03Z</time></trkpt><trkpt lat="45.80625615896147" lon="10.506848710118666"><ele>452.0</ele><time>2026-05-01T16:24:04Z</time></trkpt><trkpt lat="45.80613650262529" lon="10.506759626565122"><ele>452.0</ele><time>2026-05-01T16:24:05Z</time></trkpt><trkpt lat="45.80601621735201" lon="10.506687844438252"><ele>452.0</ele><time>2026-05-01T16:24:06Z</time></trkpt><trkpt lat="45.80590035143242" lon="10.506615870206604"><ele>452.0</ele><time>2026-05-01T16:24:07Z</time></trkpt><trkpt lat="45.805784242032175" lon="10.50656489243716"><ele>447.5</ele><time>2026-05-01T16:24:08Z</time></trkpt><trkpt lat="45.80565379967691" lon="10.506551570605202"><ele>443.0</ele><time>2026-05-01T16:24:09Z</time></trkpt><trkpt lat="45.80553064980925" lon="10.506570538166754"><ele>438.5</ele><time>2026-05-01T16:24:10Z</time></trkpt><trkpt lat="45.805418782461864" lon="10.506612266498275"><ele>434.0</ele><time>2026-05-01T16:24:11Z</time></trkpt><trkpt lat="45.80530888631814" lon="10.506654380920788"><ele>434.0</ele><time>2026-05-01T16:24:12Z</time></trkpt><trkpt lat="45.8051991756411" lon="10.506680562881513"><ele>434.0</ele><time>2026-05-01T16:24:13Z</time></trkpt><trkpt lat="45.80508594646029" lon="10.5066813619292"><ele>434.0</ele><time>2026-05-01T16:24:14Z</time></trkpt><trkpt lat="45.804976437446044" lon="10.506675019640513"><ele>434.0</ele><time>2026-05-01T16:24:15Z</time></trkpt><trkpt lat="45.80487105045874" lon="10.506669565165252"><ele>434.0</ele><time>2026-05-01T16:24:16Z</time></trkpt><trkpt lat="45.80476275246147" lon="10.506658098853537"><ele>432.75</ele><time>2026-05-01T16:24:17Z</time></trkpt><trkpt lat="45.8046496247051" lon="10.506638809574286"><ele>431.5</ele><time>2026-05-01T16:24:18Z</time></trkpt><trkpt lat="45.80453754050315" lon="10.50660363779354"><ele>430.25</ele><time>2026-05-01T16:24:19Z</time></trkpt><trkpt lat="45.80443061618446" lon="10.506557004980971"><ele>429.0</ele><time>2026-05-01T16:24:20Z</time></trkpt><trkpt lat="45.80431803548704" lon="10.506508229194408"><ele>426.25</ele><time>2026-05-01T16:24:21Z</time></trkpt><trkpt lat="45.80420369966535" lon="10.50645495579639"><ele>423.5</ele><time>2026-05-01T16:24:22Z</time></trkpt><trkpt lat="45.80409414976796" lon="10.50640884901793"><ele>420.75</ele><time>2026-05-01T16:24:23Z</time></trkpt><trkpt lat="45.80399494432736" lon="10.506353983428758"><ele>418.0</ele><time>2026-05-01T16:24:24Z</time></trkpt><trkpt lat="45.8039033694127" lon="10.50626847394049"><ele>418.4</ele><time>2026-05-01T16:24:25Z</time></trkpt><trkpt lat="45.80382204629158" lon="10.506167580232157"><ele>418.79999999999995</ele><time>2026-05-01T16:24:26Z</time></trkpt><trkpt lat="45.80374348632377" lon="10.506057525357408"><ele>419.2</ele><time>2026-05-01T16:24:27Z</time></trkpt><trkpt lat="45.80366733030047" lon="10.50594349318709"><ele>419.6</ele><time>2026-05-01T16:24:28Z</time></trkpt><trkpt lat="45.80358540842547" lon="10.505851606902784"><ele>420.0</ele><time>2026-05-01T16:24:29Z</time></trkpt><trkpt lat="45.80348915230986" lon="10.505780616027371"><ele>420.0</ele><time>2026-05-01T16:24:30Z</time></trkpt><trkpt lat="45.8033540969925" lon="10.505703773364349"><ele>420.0</ele><time>2026-05-01T16:24:31Z</time></trkpt><trkpt lat="45.8031881601994" lon="10.505643535254034"><ele>420.0</ele><time>2026-05-01T16:24:32Z</time></trkpt><trkpt lat="45.803004849239485" lon="10.5055983976146"><ele>420.0</ele><time>2026-05-01T16:24:33Z</time></trkpt><trkpt lat="45.80280493175142" lon="10.505553560863602"><ele>420.0</ele><time>2026-05-01T16:24:34Z</time></trkpt><trkpt lat="45.802635142564675" lon="10.50546826444077"><ele>420.0</ele><time>2026-05-01T16:24:35Z</time></trkpt><trkpt lat="45.80248669983749" lon="10.50543852079844"><ele>422.0</ele><time>2026-05-01T16:24:36Z</time></trkpt><trkpt lat="45.80238099290388" lon="10.505394882220187"><ele>424.0</ele><time>2026-05-01T16:24:37Z</time></trkpt><trkpt lat="45.80230387597587" lon="10.505360601391526"><ele>426.0</ele><time>2026-05-01T16:24:38Z</time></trkpt><trkpt lat="45.802233780103016" lon="10.505323586977433"><ele>428.0</ele><time>2026-05-01T16:24:39Z</time></trkpt><trkpt lat="45.802164963097205" lon="10.505263972188569"><ele>430.0</ele><time>2026-05-01T16:24:40Z</time></trkpt><trkpt lat="45.80208997801424" lon="10.505174109615746"><ele>432.0</ele><time>2026-05-01T16:24:41Z</time></trkpt><trkpt lat="45.80201730554921" lon="10.505063195975588"><ele>432.0</ele><time>2026-05-01T16:24:42Z</time></trkpt><trkpt lat="45.80194760277056" lon="10.504947628715321"><ele>432.0</ele><time>2026-05-01T16:24:43Z</time></trkpt><trkpt lat="45.801890855561204" lon="10.504854717177961"><ele>432.0</ele><time>2026-05-01T16:24:44Z</time></trkpt><trkpt lat="45.80182745418758" lon="10.504788122669128"><ele>432.0</ele><time>2026-05-01T16:24:45Z</time></trkpt><trkpt lat="45.80175306430506" lon="10.504745524584957"><ele>432.0</ele><time>2026-05-01T16:24:46Z</time></trkpt><trkpt lat="45.80166727404091" lon="10.504733587856252"><ele>432.0</ele><time>2026-05-01T16:24:47Z</time></trkpt><trkpt lat="45.80158271020375" lon="10.504738879766276"><ele>429.8</ele><time>2026-05-01T16:24:48Z</time></trkpt><trkpt lat="45.80149654837702" lon="10.504765419996946"><ele>427.6</ele><time>2026-05-01T16:24:49Z</time></trkpt><trkpt lat="45.801404295876814" lon="10.504765039751524"><ele>425.40000000000003</ele><time>2026-05-01T16:24:50Z</time></trkpt><trkpt lat="45.80130578403459" lon="10.504740859701036"><ele>423.20000000000005</ele><time>2026-05-01T16:24:51Z</time></trkpt><trkpt lat="45.80121991119575" lon="10.504689215085051"><ele>421.0</ele><time>2026-05-01T16:24:52Z</time></trkpt><trkpt lat="45.80113862030172" lon="10.504622467039303"><ele>424.20000000000005</ele><time>2026-05-01T16:24:53Z</time></trkpt><trkpt lat="45.80105656792853" lon="10.504546900029572"><ele>427.40000000000003</ele><time>2026-05-01T16:24:54Z</time></trkpt><trkpt lat="45.80096388735712" lon="10.504462125331083"><ele>430.6</ele><time>2026-05-01T16:24:55Z</time></trkpt><trkpt lat="45.80085998144855" lon="10.5043915758485"><ele>433.8</ele><time>2026-05-01T16:24:56Z</time></trkpt><trkpt lat="45.80075675763876" lon="10.504343623748309"><ele>437.0</ele><time>2026-05-01T16:24:57Z</time></trkpt><trkpt lat="45.800657997242475" lon="10.50431286475292"><ele>437.0</ele><time>2026-05-01T16:24:58Z</time></trkpt><trkpt lat="45.80056675397053" lon="10.504281784341954"><ele>437.00000000000006</ele><time>2026-05-01T16:24:59Z</time></trkpt><trkpt lat="45.80048004995848" lon="10.50423205907277"><ele>437.00000000000006</ele><time>2026-05-01T16:25:00Z</time></trkpt><trkpt lat="45.800404011553056" lon="10.504176200266034"><ele>437.0</ele><time>2026-05-01T16:25:01Z</time></trkpt><trkpt lat="45.800348950808775" lon="10.504077355204265"><ele>437.0</ele><time>2026-05-01T16:25:02Z</time></trkpt><trkpt lat="45.800286840490116" lon="10.50398387075878"><ele>436.99999999999994</ele><time>2026-05-01T16:25:03Z</time></trkpt><trkpt lat="45.80021364040961" lon="10.503900274231555"><ele>437.0</ele><time>2026-05-01T16:25:04Z</time></trkpt><trkpt lat="45.800160062521506" lon="10.503815580821417"><ele>437.0</ele><time>2026-05-01T16:25:05Z</time></trkpt><trkpt lat="45.80011886298006" lon="10.503743351552814"><ele>437.0</ele><time>2026-05-01T16:25:06Z</time></trkpt><trkpt lat="45.80003270607636" lon="10.5036176642299"><ele>436.99999999999994</ele><time>2026-05-01T16:25:08Z</time></trkpt><trkpt lat="45.79998988814157" lon="10.503544868456352"><ele>437.0</ele><time>2026-05-01T16:25:09Z</time></trkpt><trkpt lat="45.79994853337391" lon="10.5034659426599"><ele>439.99999999999994</ele><time>2026-05-01T16:25:10Z</time></trkpt><trkpt lat="45.79990678087808" lon="10.503380275192532"><ele>443.0</ele><time>2026-05-01T16:25:11Z</time></trkpt><trkpt lat="45.79981913877808" lon="10.503289985088003"><ele>446.0</ele><time>2026-05-01T16:25:13Z</time></trkpt><trkpt lat="45.79975484040178" lon="10.50329324948262"><ele>449.0</ele><time>2026-05-01T16:25:14Z</time></trkpt><trkpt lat="45.79969173403073" lon="10.503336658874998"><ele>451.99999999999994</ele><time>2026-05-01T16:25:15Z</time></trkpt><trkpt lat="45.799651502606515" lon="10.503419005300348"><ele>455.0</ele><time>2026-05-01T16:25:16Z</time></trkpt><trkpt lat="45.799632280810314" lon="10.503526721539089"><ele>455.0</ele><time>2026-05-01T16:25:17Z</time></trkpt><trkpt lat="45.79960403102582" lon="10.503643001813197"><ele>455.0</ele><time>2026-05-01T16:25:18Z</time></trkpt><trkpt lat="45.79960226832118" lon="10.503763264297854"><ele>455.0</ele><time>2026-05-01T16:25:19Z</time></trkpt><trkpt lat="45.799475233475114" lon="10.503840775253618"><ele>455.0</ele><time>2026-05-01T16:25:20Z</time></trkpt><trkpt lat="45.79939504134274" lon="10.503912704465279"><ele>455.0</ele><time>2026-05-01T16:25:21Z</time></trkpt><trkpt lat="45.79933166528375" lon="10.50397974387559"><ele>453.42857142857144</ele><time>2026-05-01T16:25:22Z</time></trkpt><trkpt lat="45.79928122782818" lon="10.504054702572391"><ele>451.8571428571429</ele><time>2026-05-01T16:25:23Z</time></trkpt><trkpt lat="45.79923780245398" lon="10.50414838539171"><ele>450.2857142857143</ele><time>2026-05-01T16:25:24Z</time></trkpt><trkpt lat="45.79919593765063" lon="10.504222037782148"><ele>448.7142857142857</ele><time>2026-05-01T16:25:25Z</time></trkpt><trkpt lat="45.79914156826721" lon="10.504284557584963"><ele>447.14285714285717</ele><time>2026-05-01T16:25:26Z</time></trkpt><trkpt lat="45.79907600484093" lon="10.504333511133952"><ele>445.57142857142856</ele><time>2026-05-01T16:25:27Z</time></trkpt><trkpt lat="45.798996686636144" lon="10.504317721914031"><ele>444.0</ele><time>2026-05-01T16:25:28Z</time></trkpt><trkpt lat="45.798936006672804" lon="10.504263338880422"><ele>444.0</ele><time>2026-05-01T16:25:29Z</time></trkpt><trkpt lat="45.79886773293575" lon="10.504209309966022"><ele>444.0</ele><time>2026-05-01T16:25:30Z</time></trkpt><trkpt lat="45.79877720371731" lon="10.504146374765588"><ele>444.0</ele><time>2026-05-01T16:25:31Z</time></trkpt><trkpt lat="45.79866949076761" lon="10.504081700356368"><ele>444.0</ele><time>2026-05-01T16:25:32Z</time></trkpt><trkpt lat="45.79853747030957" lon="10.504011880515133"><ele>444.0</ele><time>2026-05-01T16:25:33Z</time></trkpt><trkpt lat="45.79837027988877" lon="10.503943494927276"><ele>443.0</ele><time>2026-05-01T16:25:34Z</time></trkpt><trkpt lat="45.79817022833254" lon="10.503883482330854"><ele>442.0</ele><time>2026-05-01T16:25:35Z</time></trkpt><trkpt lat="45.798026786742696" lon="10.503815312102454"><ele>441.0</ele><time>2026-05-01T16:25:36Z</time></trkpt><trkpt lat="45.79791285842371" lon="10.503739247097847"><ele>445.25</ele><time>2026-05-01T16:25:37Z</time></trkpt><trkpt lat="45.79780197549996" lon="10.503656836556473"><ele>449.5</ele><time>2026-05-01T16:25:38Z</time></trkpt><trkpt lat="45.797681145927264" lon="10.503568969149867"><ele>453.75</ele><time>2026-05-01T16:25:39Z</time></trkpt><trkpt lat="45.797565245461534" lon="10.503507548841732"><ele>458.0</ele><time>2026-05-01T16:25:40Z</time></trkpt><trkpt lat="45.7974763672805" lon="10.503467102848418"><ele>458.0</ele><time>2026-05-01T16:25:41Z</time></trkpt><trkpt lat="45.797391638136894" lon="10.503413383696207"><ele>457.99999999999994</ele><time>2026-05-01T16:25:42Z</time></trkpt><trkpt lat="45.79730619639893" lon="10.503349549720408"><ele>457.99999999999994</ele><time>2026-05-01T16:25:43Z</time></trkpt><trkpt lat="45.797234322263265" lon="10.503253439670411"><ele>458.0</ele><time>2026-05-01T16:25:44Z</time></trkpt><trkpt lat="45.797156853271396" lon="10.50314139904273"><ele>458.0</ele><time>2026-05-01T16:25:45Z</time></trkpt><trkpt lat="45.797082026680194" lon="10.50302911399945"><ele>458.0</ele><time>2026-05-01T16:25:46Z</time></trkpt><trkpt lat="45.797016982467895" lon="10.50292493123107"><ele>457.99999999999994</ele><time>2026-05-01T16:25:47Z</time></trkpt><trkpt lat="45.796951799327616" lon="10.502807144273188"><ele>457.99999999999994</ele><time>2026-05-01T16:25:48Z</time></trkpt><trkpt lat="45.79689528055034" lon="10.502691382329305"><ele>458.0</ele><time>2026-05-01T16:25:49Z</time></trkpt><trkpt lat="45.79683541711065" lon="10.502564526166891"><ele>458.0</ele><time>2026-05-01T16:25:50Z</time></trkpt><trkpt lat="45.79679389331262" lon="10.502438786581234"><ele>455.79999999999995</ele><time>2026-05-01T16:25:51Z</time></trkpt><trkpt lat="45.796761639946325" lon="10.502306748824136"><ele>453.59999999999997</ele><time>2026-05-01T16:25:52Z</time></trkpt><trkpt lat="45.79672465433534" lon="10.502175827723226"><ele>451.40000000000003</ele><time>2026-05-01T16:25:53Z</time></trkpt><trkpt lat="45.79667253063432" lon="10.502063819990903"><ele>449.20000000000005</ele><time>2026-05-01T16:25:54Z</time></trkpt><trkpt lat="45.79660953095002" lon="10.501975400462474"><ele>447.0</ele><time>2026-05-01T16:25:55Z</time></trkpt><trkpt lat="45.79651969356889" lon="10.50188660622408"><ele>446.75</ele><time>2026-05-01T16:25:56Z</time></trkpt><trkpt lat="45.796385446339116" lon="10.501822646518745"><ele>446.5</ele><time>2026-05-01T16:25:57Z</time></trkpt><trkpt lat="45.796237477126546" lon="10.5017756134682"><ele>446.25</ele><time>2026-05-01T16:25:58Z</time></trkpt><trkpt lat="45.79610300463973" lon="10.501710748986083"><ele>446.0</ele><time>2026-05-01T16:25:59Z</time></trkpt><trkpt lat="45.79596372182494" lon="10.501581849995702"><ele>446.0</ele><time>2026-05-01T16:26:00Z</time></trkpt><trkpt lat="45.795812163841916" lon="10.501508206476409"><ele>446.0</ele><time>2026-05-01T16:26:01Z</time></trkpt><trkpt lat="45.795648176140965" lon="10.50148539733526"><ele>446.0</ele><time>2026-05-01T16:26:02Z</time></trkpt><trkpt lat="45.79546259097812" lon="10.501435644783609"><ele>446.0</ele><time>2026-05-01T16:26:03Z</time></trkpt><trkpt lat="45.79525451730584" lon="10.501373737048105"><ele>446.0</ele><time>2026-05-01T16:26:04Z</time></trkpt><trkpt lat="45.79505596097011" lon="10.501299592572616"><ele>446.0</ele><time>2026-05-01T16:26:05Z</time></trkpt><trkpt lat="45.79489657332983" lon="10.501224582221994"><ele>449.75</ele><time>2026-05-01T16:26:06Z</time></trkpt><trkpt lat="45.79477234269159" lon="10.501118438029984"><ele>453.5</ele><time>2026-05-01T16:26:07Z</time></trkpt><trkpt lat="45.79465722062397" lon="10.500985637043113"><ele>457.25</ele><time>2026-05-01T16:26:08Z</time></trkpt><trkpt lat="45.79453058894712" lon="10.50092036044993"><ele>461.0</ele><time>2026-05-01T16:26:09Z</time></trkpt><trkpt lat="45.794402306660615" lon="10.500861971159281"><ele>454.0</ele><time>2026-05-01T16:26:10Z</time></trkpt><trkpt lat="45.79423900297582" lon="10.500878726492013"><ele>447.0</ele><time>2026-05-01T16:26:11Z</time></trkpt><trkpt lat="45.79403655295273" lon="10.500865928962387"><ele>440.0</ele><time>2026-05-01T16:26:12Z</time></trkpt><trkpt lat="45.79381718008516" lon="10.500822089237671"><ele>440.0</ele><time>2026-05-01T16:26:13Z</time></trkpt><trkpt lat="45.79358334719241" lon="10.500766556095499"><ele>440.0</ele><time>2026-05-01T16:26:14Z</time></trkpt><trkpt lat="45.793357658420234" lon="10.500708111285848"><ele>436.66666666666663</ele><time>2026-05-01T16:26:15Z</time></trkpt><trkpt lat="45.79314928521225" lon="10.500649324824249"><ele>433.33333333333337</ele><time>2026-05-01T16:26:16Z</time></trkpt><trkpt lat="45.79295599518748" lon="10.500585590330525"><ele>430.0</ele><time>2026-05-01T16:26:17Z</time></trkpt><trkpt lat="45.79278073277531" lon="10.500517206718678"><ele>427.33333333333337</ele><time>2026-05-01T16:26:18Z</time></trkpt><trkpt lat="45.79263036355183" lon="10.500438038835139"><ele>424.66666666666663</ele><time>2026-05-01T16:26:19Z</time></trkpt><trkpt lat="45.79248395137171" lon="10.500333609371669"><ele>422.0</ele><time>2026-05-01T16:26:20Z</time></trkpt><trkpt lat="45.79235660025754" lon="10.500191287760362"><ele>429.0</ele><time>2026-05-01T16:26:21Z</time></trkpt><trkpt lat="45.7922330121914" lon="10.500004537387632"><ele>436.0</ele><time>2026-05-01T16:26:22Z</time></trkpt><trkpt lat="45.79210972942609" lon="10.499828217459768"><ele>443.0</ele><time>2026-05-01T16:26:23Z</time></trkpt><trkpt lat="45.79199986554274" lon="10.499687798840615"><ele>443.0</ele><time>2026-05-01T16:26:24Z</time></trkpt><trkpt lat="45.79190022480504" lon="10.499610651099658"><ele>443.0</ele><time>2026-05-01T16:26:25Z</time></trkpt><trkpt lat="45.791782701920134" lon="10.499628635499056"><ele>443.0</ele><time>2026-05-01T16:26:26Z</time></trkpt><trkpt lat="45.791663685611766" lon="10.49968727370836"><ele>443.0</ele><time>2026-05-01T16:26:27Z</time></trkpt><trkpt lat="45.79154905458709" lon="10.499817105466459"><ele>438.3333333333333</ele><time>2026-05-01T16:26:28Z</time></trkpt><trkpt lat="45.791423196230845" lon="10.499970005786327"><ele>433.66666666666663</ele><time>2026-05-01T16:26:29Z</time></trkpt><trkpt lat="45.791262479868905" lon="10.50006858836311"><ele>429.0</ele><time>2026-05-01T16:26:30Z</time></trkpt><trkpt lat="45.791115823866384" lon="10.500121131798032"><ele>428.75</ele><time>2026-05-01T16:26:31Z</time></trkpt><trkpt lat="45.790987515975374" lon="10.500140554804924"><ele>428.5</ele><time>2026-05-01T16:26:32Z</time></trkpt><trkpt lat="45.790868753871315" lon="10.500117931351266"><ele>428.25</ele><time>2026-05-01T16:26:33Z</time></trkpt><trkpt lat="45.79070209495616" lon="10.500120786015275"><ele>428.0</ele><time>2026-05-01T16:26:34Z</time></trkpt><trkpt lat="45.79052999614114" lon="10.500036628062661"><ele>428.0</ele><time>2026-05-01T16:26:35Z</time></trkpt><trkpt lat="45.790327545721354" lon="10.500014432744152"><ele>428.0</ele><time>2026-05-01T16:26:36Z</time></trkpt><trkpt lat="45.790112091438765" lon="10.500025041514501"><ele>428.0</ele><time>2026-05-01T16:26:37Z</time></trkpt><trkpt lat="45.78988961361665" lon="10.5000427497227"><ele>426.0</ele><time>2026-05-01T16:26:38Z</time></trkpt><trkpt lat="45.78965452470797" lon="10.500062924106143"><ele>424.0</ele><time>2026-05-01T16:26:39Z</time></trkpt><trkpt lat="45.78942389396723" lon="10.500117630054167"><ele>423.5</ele><time>2026-05-01T16:26:40Z</time></trkpt><trkpt lat="45.78919141868157" lon="10.500199208778728"><ele>423.0</ele><time>2026-05-01T16:26:41Z</time></trkpt><trkpt lat="45.78895954779975" lon="10.500284005653553"><ele>423.0</ele><time>2026-05-01T16:26:42Z</time></trkpt><trkpt lat="45.78872005034939" lon="10.500366700605584"><ele>423.0</ele><time>2026-05-01T16:26:43Z</time></trkpt><trkpt lat="45.78848415344857" lon="10.500449924262123"><ele>413.0</ele><time>2026-05-01T16:26:44Z</time></trkpt><trkpt lat="45.788249219507136" lon="10.500537122120548"><ele>403.0</ele><time>2026-05-01T16:26:45Z</time></trkpt><trkpt lat="45.78803258363249" lon="10.500610818839728"><ele>403.0</ele><time>2026-05-01T16:26:46Z</time></trkpt><trkpt lat="45.78782040325411" lon="10.500684598499362"><ele>403.0</ele><time>2026-05-01T16:26:47Z</time></trkpt><trkpt lat="45.78761459330187" lon="10.500765466442488"><ele>403.0</ele><time>2026-05-01T16:26:48Z</time></trkpt><trkpt lat="45.78742977421283" lon="10.500853743891925"><ele>405.33333333333337</ele><time>2026-05-01T16:26:49Z</time></trkpt><trkpt lat="45.78724347367867" lon="10.50094333166307"><ele>407.66666666666663</ele><time>2026-05-01T16:26:50Z</time></trkpt><trkpt lat="45.787052495799784" lon="10.500972090489036"><ele>410.0</ele><time>2026-05-01T16:26:51Z</time></trkpt><trkpt lat="45.78686299607179" lon="10.500993943423547"><ele>408.66666666666663</ele><time>2026-05-01T16:26:52Z</time></trkpt><trkpt lat="45.78665793730262" lon="10.501006444279431"><ele>407.33333333333337</ele><time>2026-05-01T16:26:53Z</time></trkpt><trkpt lat="45.786447093780865" lon="10.501032246231965"><ele>406.0</ele><time>2026-05-01T16:26:54Z</time></trkpt><trkpt lat="45.786230387413546" lon="10.50103778247989"><ele>406.0</ele><time>2026-05-01T16:26:55Z</time></trkpt><trkpt lat="45.78601372100179" lon="10.501048735488375"><ele>406.0</ele><time>2026-05-01T16:26:56Z</time></trkpt><trkpt lat="45.78581321253732" lon="10.501068370030255"><ele>406.0</ele><time>2026-05-01T16:26:57Z</time></trkpt><trkpt lat="45.78563027532361" lon="10.50108789325618"><ele>404.33333333333337</ele><time>2026-05-01T16:26:58Z</time></trkpt><trkpt lat="45.78546197199803" lon="10.501039839895908"><ele>402.66666666666663</ele><time>2026-05-01T16:26:59Z</time></trkpt><trkpt lat="45.78530307562561" lon="10.500967835702514"><ele>401.0</ele><time>2026-05-01T16:27:00Z</time></trkpt><trkpt lat="45.78512540113626" lon="10.500883790099895"><ele>399.0</ele><time>2026-05-01T16:27:01Z</time></trkpt><trkpt lat="45.784942299230096" lon="10.500789681785161"><ele>397.0</ele><time>2026-05-01T16:27:02Z</time></trkpt><trkpt lat="45.78476395987977" lon="10.500688480942442"><ele>395.0</ele><time>2026-05-01T16:27:03Z</time></trkpt><trkpt lat="45.78459838354181" lon="10.50058338160838"><ele>395.0</ele><time>2026-05-01T16:27:04Z</time></trkpt><trkpt lat="45.78443552139473" lon="10.500519803161573"><ele>395.0</ele><time>2026-05-01T16:27:05Z</time></trkpt><trkpt lat="45.78426834590103" lon="10.500490884707341"><ele>395.0</ele><time>2026-05-01T16:27:06Z</time></trkpt><trkpt lat="45.78409353152827" lon="10.500545099956891"><ele>394.3333333333333</ele><time>2026-05-01T16:27:07Z</time></trkpt><trkpt lat="45.783922933722806" lon="10.500648231704986"><ele>393.66666666666663</ele><time>2026-05-01T16:27:08Z</time></trkpt><trkpt lat="45.78375917846259" lon="10.500792505940407"><ele>393.0</ele><time>2026-05-01T16:27:09Z</time></trkpt><trkpt lat="45.783606055452616" lon="10.500984555611515"><ele>393.0</ele><time>2026-05-01T16:27:10Z</time></trkpt><trkpt lat="45.78347364358385" lon="10.501187018229473"><ele>393.0</ele><time>2026-05-01T16:27:11Z</time></trkpt><trkpt lat="45.7833686611408" lon="10.501410549168591"><ele>393.0</ele><time>2026-05-01T16:27:12Z</time></trkpt><trkpt lat="45.78329378479288" lon="10.501617637086026"><ele>393.0</ele><time>2026-05-01T16:27:13Z</time></trkpt><trkpt lat="45.78321134994477" lon="10.501783809228924"><ele>393.0</ele><time>2026-05-01T16:27:14Z</time></trkpt><trkpt lat="45.78309976758514" lon="10.501913396829439"><ele>393.0</ele><time>2026-05-01T16:27:15Z</time></trkpt><trkpt lat="45.78295975323537" lon="10.502043719673143"><ele>393.66666666666663</ele><time>2026-05-01T16:27:16Z</time></trkpt><trkpt lat="45.782808274571344" lon="10.502186160128138"><ele>394.3333333333333</ele><time>2026-05-01T16:27:17Z</time></trkpt><trkpt lat="45.78264540802022" lon="10.50232933576336"><ele>395.0</ele><time>2026-05-01T16:27:18Z</time></trkpt><trkpt lat="45.78247025251302" lon="10.502459024562521"><ele>395.0</ele><time>2026-05-01T16:27:19Z</time></trkpt><trkpt lat="45.78227921390837" lon="10.502579348679525"><ele>395.0</ele><time>2026-05-01T16:27:20Z</time></trkpt><trkpt lat="45.78207896169552" lon="10.502697319435775"><ele>395.0</ele><time>2026-05-01T16:27:21Z</time></trkpt><trkpt lat="45.78187795785959" lon="10.502849919201749"><ele>391.66666666666663</ele><time>2026-05-01T16:27:22Z</time></trkpt><trkpt lat="45.78168330744053" lon="10.502954745317151"><ele>388.33333333333337</ele><time>2026-05-01T16:27:23Z</time></trkpt><trkpt lat="45.78148321916996" lon="10.503024327509983"><ele>385.0</ele><time>2026-05-01T16:27:24Z</time></trkpt><trkpt lat="45.781292851977966" lon="10.503081257292946"><ele>385.0</ele><time>2026-05-01T16:27:25Z</time></trkpt><trkpt lat="45.78111084430559" lon="10.503137229846006"><ele>385.0</ele><time>2026-05-01T16:27:26Z</time></trkpt><trkpt lat="45.78091582645977" lon="10.5031640921584"><ele>385.0</ele><time>2026-05-01T16:27:27Z</time></trkpt><trkpt lat="45.780707746602495" lon="10.503162468056328"><ele>385.33333333333337</ele><time>2026-05-01T16:27:28Z</time></trkpt><trkpt lat="45.78049133576929" lon="10.50316427561208"><ele>385.66666666666663</ele><time>2026-05-01T16:27:29Z</time></trkpt><trkpt lat="45.780280298212254" lon="10.503191293358778"><ele>386.0</ele><time>2026-05-01T16:27:30Z</time></trkpt><trkpt lat="45.78008272305246" lon="10.503259936746993"><ele>387.66666666666663</ele><time>2026-05-01T16:27:31Z</time></trkpt><trkpt lat="45.779900993067066" lon="10.503342194249242"><ele>389.33333333333337</ele><time>2026-05-01T16:27:32Z</time></trkpt><trkpt lat="45.779717408259664" lon="10.503401592502724"><ele>391.0</ele><time>2026-05-01T16:27:33Z</time></trkpt><trkpt lat="45.77952570471121" lon="10.503422195420002"><ele>391.0</ele><time>2026-05-01T16:27:34Z</time></trkpt><trkpt lat="45.77933334227637" lon="10.503432228565517"><ele>391.0</ele><time>2026-05-01T16:27:35Z</time></trkpt><trkpt lat="45.779145377242735" lon="10.503442685975134"><ele>391.0</ele><time>2026-05-01T16:27:36Z</time></trkpt><trkpt lat="45.77896837773013" lon="10.503434182652827"><ele>391.0</ele><time>2026-05-01T16:27:37Z</time></trkpt><trkpt lat="45.77878698572643" lon="10.50338009164014"><ele>391.0</ele><time>2026-05-01T16:27:38Z</time></trkpt><trkpt lat="45.778586969504026" lon="10.503289328008501"><ele>391.0</ele><time>2026-05-01T16:27:39Z</time></trkpt><trkpt lat="45.77840045638129" lon="10.503184917714663"><ele>389.6666666666667</ele><time>2026-05-01T16:27:40Z</time></trkpt><trkpt lat="45.77821484748055" lon="10.503121838343683"><ele>388.33333333333337</ele><time>2026-05-01T16:27:41Z</time></trkpt><trkpt lat="45.77801538010028" lon="10.503110209931227"><ele>387.0</ele><time>2026-05-01T16:27:42Z</time></trkpt><trkpt lat="45.77781454354698" lon="10.503157878806968"><ele>387.33333333333337</ele><time>2026-05-01T16:27:43Z</time></trkpt><trkpt lat="45.77761737001151" lon="10.503236564045665"><ele>387.6666666666667</ele><time>2026-05-01T16:27:44Z</time></trkpt><trkpt lat="45.7774361540749" lon="10.503305477350136"><ele>388.0</ele><time>2026-05-01T16:27:45Z</time></trkpt><trkpt lat="45.77725801831653" lon="10.503371947389153"><ele>388.0</ele><time>2026-05-01T16:27:46Z</time></trkpt><trkpt lat="45.777092052438356" lon="10.503460383751246"><ele>388.0</ele><time>2026-05-01T16:27:47Z</time></trkpt><trkpt lat="45.77692817950421" lon="10.503568061941078"><ele>388.0</ele><time>2026-05-01T16:27:48Z</time></trkpt><trkpt lat="45.77677927199385" lon="10.503670989369335"><ele>390.5</ele><time>2026-05-01T16:27:49Z</time></trkpt><trkpt lat="45.77664009667237" lon="10.50375324031314"><ele>393.0</ele><time>2026-05-01T16:27:50Z</time></trkpt><trkpt lat="45.77650202761258" lon="10.503797640401508"><ele>395.5</ele><time>2026-05-01T16:27:51Z</time></trkpt><trkpt lat="45.77635769325052" lon="10.503787599790735"><ele>398.0</ele><time>2026-05-01T16:27:52Z</time></trkpt><trkpt lat="45.77619997784563" lon="10.503710049571284"><ele>398.0</ele><time>2026-05-01T16:27:53Z</time></trkpt><trkpt lat="45.77604063237995" lon="10.503580418588202"><ele>398.0</ele><time>2026-05-01T16:27:54Z</time></trkpt><trkpt lat="45.77587285280182" lon="10.503412877524653"><ele>398.0</ele><time>2026-05-01T16:27:55Z</time></trkpt><trkpt lat="45.775694596756466" lon="10.503239330217916"><ele>398.0</ele><time>2026-05-01T16:27:56Z</time></trkpt><trkpt lat="45.77551130847083" lon="10.503055784210037"><ele>398.0</ele><time>2026-05-01T16:27:57Z</time></trkpt><trkpt lat="45.77532699041428" lon="10.502876176115826"><ele>398.0</ele><time>2026-05-01T16:27:58Z</time></trkpt><trkpt lat="45.775145676197425" lon="10.502707134986306"><ele>398.0</ele><time>2026-05-01T16:27:59Z</time></trkpt><trkpt lat="45.77494012196312" lon="10.502586977448223"><ele>398.0</ele><time>2026-05-01T16:28:00Z</time></trkpt><trkpt lat="45.77474224947997" lon="10.502485626097721"><ele>398.0</ele><time>2026-05-01T16:28:01Z</time></trkpt><trkpt lat="45.77454318176647" lon="10.502422795855528"><ele>394.3333333333333</ele><time>2026-05-01T16:28:02Z</time></trkpt><trkpt lat="45.7743447287351" lon="10.502381550440818"><ele>390.66666666666663</ele><time>2026-05-01T16:28:03Z</time></trkpt><trkpt lat="45.77416228907525" lon="10.502356933560613"><ele>387.0</ele><time>2026-05-01T16:28:04Z</time></trkpt><trkpt lat="45.773986204127105" lon="10.502306551871849"><ele>387.0</ele><time>2026-05-01T16:28:05Z</time></trkpt><trkpt lat="45.77381288871777" lon="10.502221255165432"><ele>387.0</ele><time>2026-05-01T16:28:06Z</time></trkpt><trkpt lat="45.77365014119648" lon="10.502108474750326"><ele>387.0</ele><time>2026-05-01T16:28:07Z</time></trkpt><trkpt lat="45.773477685072145" lon="10.501996233107734"><ele>391.66666666666663</ele><time>2026-05-01T16:28:08Z</time></trkpt><trkpt lat="45.77331310662867" lon="10.501876320098084"><ele>396.3333333333333</ele><time>2026-05-01T16:28:09Z</time></trkpt><trkpt lat="45.77315036417701" lon="10.501740682948695"><ele>401.0</ele><time>2026-05-01T16:28:10Z</time></trkpt><trkpt lat="45.77299562421434" lon="10.501574765501482"><ele>401.0</ele><time>2026-05-01T16:28:11Z</time></trkpt><trkpt lat="45.77285504728156" lon="10.501385454940285"><ele>401.0</ele><time>2026-05-01T16:28:12Z</time></trkpt><trkpt lat="45.772715598538696" lon="10.501192951410266"><ele>401.0</ele><time>2026-05-01T16:28:13Z</time></trkpt><trkpt lat="45.77258134895583" lon="10.50100427822338"><ele>400.66666666666663</ele><time>2026-05-01T16:28:14Z</time></trkpt><trkpt lat="45.77244214922413" lon="10.500808309616"><ele>400.33333333333337</ele><time>2026-05-01T16:28:15Z</time></trkpt><trkpt lat="45.77230560053725" lon="10.50061101930987"><ele>400.0</ele><time>2026-05-01T16:28:16Z</time></trkpt><trkpt lat="45.77216723051686" lon="10.500415271293464"><ele>397.0</ele><time>2026-05-01T16:28:17Z</time></trkpt><trkpt lat="45.7720377068175" lon="10.50020065164976"><ele>394.0</ele><time>2026-05-01T16:28:18Z</time></trkpt><trkpt lat="45.77189278597332" lon="10.49999958668608"><ele>391.0</ele><time>2026-05-01T16:28:19Z</time></trkpt><trkpt lat="45.771749848164745" lon="10.499801413769944"><ele>391.0</ele><time>2026-05-01T16:28:20Z</time></trkpt><trkpt lat="45.77158865424011" lon="10.499617242252745"><ele>391.0</ele><time>2026-05-01T16:28:21Z</time></trkpt><trkpt lat="45.77145098189385" lon="10.499401286798255"><ele>391.0</ele><time>2026-05-01T16:28:22Z</time></trkpt><trkpt lat="45.771295363706166" lon="10.499204132053727"><ele>391.33333333333337</ele><time>2026-05-01T16:28:23Z</time></trkpt><trkpt lat="45.771133256033636" lon="10.499018888817295"><ele>391.66666666666663</ele><time>2026-05-01T16:28:24Z</time></trkpt><trkpt lat="45.770970320624144" lon="10.498843174245922"><ele>392.0</ele><time>2026-05-01T16:28:25Z</time></trkpt><trkpt lat="45.77080818440839" lon="10.498671564918372"><ele>403.3333333333333</ele><time>2026-05-01T16:28:26Z</time></trkpt><trkpt lat="45.77064676633868" lon="10.498500715675195"><ele>414.66666666666663</ele><time>2026-05-01T16:28:27Z</time></trkpt><trkpt lat="45.77049222367352" lon="10.498338161091477"><ele>426.0</ele><time>2026-05-01T16:28:28Z</time></trkpt><trkpt lat="45.77032805915728" lon="10.498195395670404"><ele>426.0</ele><time>2026-05-01T16:28:29Z</time></trkpt><trkpt lat="45.770196810462785" lon="10.498021403316399"><ele>426.0</ele><time>2026-05-01T16:28:30Z</time></trkpt><trkpt lat="45.77008103425902" lon="10.497848643727616"><ele>426.0</ele><time>2026-05-01T16:28:31Z</time></trkpt><trkpt lat="45.769987457850235" lon="10.497670487469348"><ele>428.75</ele><time>2026-05-01T16:28:32Z</time></trkpt><trkpt lat="45.76989736805128" lon="10.497495367157692"><ele>431.5</ele><time>2026-05-01T16:28:33Z</time></trkpt><trkpt lat="45.76981683858918" lon="10.497326984145614"><ele>434.25</ele><time>2026-05-01T16:28:34Z</time></trkpt><trkpt lat="45.76974040653209" lon="10.49716796061268"><ele>437.0</ele><time>2026-05-01T16:28:35Z</time></trkpt><trkpt lat="45.769646422686" lon="10.497046150561065"><ele>437.0</ele><time>2026-05-01T16:28:36Z</time></trkpt><trkpt lat="45.769555809749434" lon="10.496928305534961"><ele>437.0</ele><time>2026-05-01T16:28:37Z</time></trkpt><trkpt lat="45.76946028388637" lon="10.496837535894864"><ele>437.0</ele><time>2026-05-01T16:28:38Z</time></trkpt><trkpt lat="45.76935501571588" lon="10.496751685519966"><ele>437.0</ele><time>2026-05-01T16:28:39Z</time></trkpt><trkpt lat="45.769247942655504" lon="10.496658700666442"><ele>431.75</ele><time>2026-05-01T16:28:40Z</time></trkpt><trkpt lat="45.769141199613784" lon="10.49654604053376"><ele>426.5</ele><time>2026-05-01T16:28:41Z</time></trkpt><trkpt lat="45.769062741024506" lon="10.496392422043348"><ele>421.25</ele><time>2026-05-01T16:28:42Z</time></trkpt><trkpt lat="45.76898609192117" lon="10.496229679325435"><ele>416.0</ele><time>2026-05-01T16:28:43Z</time></trkpt><trkpt lat="45.768909995567824" lon="10.49606685074773"><ele>416.0</ele><time>2026-05-01T16:28:44Z</time></trkpt><trkpt lat="45.76885791270729" lon="10.495902138733234"><ele>416.0</ele><time>2026-05-01T16:28:45Z</time></trkpt><trkpt lat="45.76884298850442" lon="10.495727433148252"><ele>416.0</ele><time>2026-05-01T16:28:46Z</time></trkpt><trkpt lat="45.76882779036222" lon="10.495548733881469"><ele>416.0</ele><time>2026-05-01T16:28:47Z</time></trkpt><trkpt lat="45.7688142513356" lon="10.495369480030085"><ele>418.6</ele><time>2026-05-01T16:28:48Z</time></trkpt><trkpt lat="45.768808665889125" lon="10.495213321608055"><ele>421.20000000000005</ele><time>2026-05-01T16:28:49Z</time></trkpt><trkpt lat="45.7687976562805" lon="10.495059077385264"><ele>423.79999999999995</ele><time>2026-05-01T16:28:50Z</time></trkpt><trkpt lat="45.76877166023061" lon="10.4949213486331"><ele>426.4</ele><time>2026-05-01T16:28:51Z</time></trkpt><trkpt lat="45.768736241969194" lon="10.494753748057052"><ele>429.0</ele><time>2026-05-01T16:28:52Z</time></trkpt><trkpt lat="45.76869077011883" lon="10.494584117203715"><ele>433.5</ele><time>2026-05-01T16:28:53Z</time></trkpt><trkpt lat="45.76862825360555" lon="10.49439763217066"><ele>438.0</ele><time>2026-05-01T16:28:54Z</time></trkpt><trkpt lat="45.7685525668769" lon="10.49421453228294"><ele>442.5</ele><time>2026-05-01T16:28:55Z</time></trkpt><trkpt lat="45.76846234245878" lon="10.494034966337159"><ele>447.0</ele><time>2026-05-01T16:28:56Z</time></trkpt><trkpt lat="45.768361256131556" lon="10.4938732085232"><ele>441.0</ele><time>2026-05-01T16:28:57Z</time></trkpt><trkpt lat="45.768256754333784" lon="10.493728244203592"><ele>435.0</ele><time>2026-05-01T16:28:58Z</time></trkpt><trkpt lat="45.76815094190573" lon="10.493598954721632"><ele>429.0</ele><time>2026-05-01T16:28:59Z</time></trkpt><trkpt lat="45.768061474843854" lon="10.493476281736827"><ele>423.0</ele><time>2026-05-01T16:29:00Z</time></trkpt><trkpt lat="45.767986284734214" lon="10.493360820135713"><ele>423.0</ele><time>2026-05-01T16:29:01Z</time></trkpt><trkpt lat="45.76791517891797" lon="10.493245521990989"><ele>423.0</ele><time>2026-05-01T16:29:02Z</time></trkpt><trkpt lat="45.76784217323271" lon="10.493124989622586"><ele>423.0</ele><time>2026-05-01T16:29:03Z</time></trkpt><trkpt lat="45.76777241696374" lon="10.493011067074722"><ele>423.0</ele><time>2026-05-01T16:29:04Z</time></trkpt><trkpt lat="45.76770217822105" lon="10.4929096750816"><ele>423.0</ele><time>2026-05-01T16:29:05Z</time></trkpt><trkpt lat="45.76763294852624" lon="10.492819032251962"><ele>420.0</ele><time>2026-05-01T16:29:06Z</time></trkpt><trkpt lat="45.76756978560424" lon="10.492741027487613"><ele>417.0</ele><time>2026-05-01T16:29:07Z</time></trkpt><trkpt lat="45.76750939269073" lon="10.492665107211092"><ele>414.0</ele><time>2026-05-01T16:29:08Z</time></trkpt><trkpt lat="45.76745091899448" lon="10.492608513974073"><ele>411.0</ele><time>2026-05-01T16:29:09Z</time></trkpt><trkpt lat="45.76739121926997" lon="10.492576301796658"><ele>408.0</ele><time>2026-05-01T16:29:10Z</time></trkpt><trkpt lat="45.76726851556994" lon="10.492556960018714"><ele>405.0</ele><time>2026-05-01T16:29:12Z</time></trkpt><trkpt lat="45.767187193394854" lon="10.49255345289668"><ele>405.0</ele><time>2026-05-01T16:29:13Z</time></trkpt><trkpt lat="45.767103023534204" lon="10.492509717533837"><ele>405.0</ele><time>2026-05-01T16:29:14Z</time></trkpt><trkpt lat="45.76700947389541" lon="10.492487289734878"><ele>405.0</ele><time>2026-05-01T16:29:15Z</time></trkpt><trkpt lat="45.766916713690904" lon="10.492436045516335"><ele>405.0</ele><time>2026-05-01T16:29:16Z</time></trkpt><trkpt lat="45.76682059814365" lon="10.492362413607632"><ele>405.0</ele><time>2026-05-01T16:29:17Z</time></trkpt><trkpt lat="45.76673049951526" lon="10.492287130954034"><ele>404.8</ele><time>2026-05-01T16:29:18Z</time></trkpt><trkpt lat="45.76664003155788" lon="10.492219147055712"><ele>404.6</ele><time>2026-05-01T16:29:19Z</time></trkpt><trkpt lat="45.76654805939913" lon="10.492152021469872"><ele>404.4</ele><time>2026-05-01T16:29:20Z</time></trkpt><trkpt lat="45.76644473137144" lon="10.492098580631206"><ele>404.2</ele><time>2026-05-01T16:29:21Z</time></trkpt><trkpt lat="45.76634193746509" lon="10.49203919966284"><ele>404.0</ele><time>2026-05-01T16:29:22Z</time></trkpt><trkpt lat="45.766243351114575" lon="10.491956640481304"><ele>404.0</ele><time>2026-05-01T16:29:23Z</time></trkpt><trkpt lat="45.766139897259826" lon="10.491917572690726"><ele>404.0</ele><time>2026-05-01T16:29:24Z</time></trkpt><trkpt lat="45.76603222587533" lon="10.491874892332495"><ele>404.0</ele><time>2026-05-01T16:29:25Z</time></trkpt><trkpt lat="45.76592384202912" lon="10.491831851694439"><ele>404.0</ele><time>2026-05-01T16:29:26Z</time></trkpt><trkpt lat="45.765811802356396" lon="10.491790298120444"><ele>404.0</ele><time>2026-05-01T16:29:27Z</time></trkpt><trkpt lat="45.76569517789195" lon="10.491771201250113"><ele>403.6</ele><time>2026-05-01T16:29:28Z</time></trkpt><trkpt lat="45.765577900068024" lon="10.491786208501829"><ele>403.2</ele><time>2026-05-01T16:29:29Z</time></trkpt><trkpt lat="45.765464331848996" lon="10.491793827352554"><ele>402.8</ele><time>2026-05-01T16:29:30Z</time></trkpt><trkpt lat="45.7653620373075" lon="10.491777915047379"><ele>402.40000000000003</ele><time>2026-05-01T16:29:31Z</time></trkpt><trkpt lat="45.765266705001125" lon="10.491744997486439"><ele>402.0</ele><time>2026-05-01T16:29:32Z</time></trkpt><trkpt lat="45.76517910489977" lon="10.491704130803711"><ele>400.40000000000003</ele><time>2026-05-01T16:29:33Z</time></trkpt><trkpt lat="45.76509166367852" lon="10.491662924659185"><ele>398.8</ele><time>2026-05-01T16:29:34Z</time></trkpt><trkpt lat="45.765013809954546" lon="10.491613983030101"><ele>397.2</ele><time>2026-05-01T16:29:35Z</time></trkpt><trkpt lat="45.76492129077005" lon="10.491567630643901"><ele>395.6</ele><time>2026-05-01T16:29:36Z</time></trkpt><trkpt lat="45.764836650941824" lon="10.491502965827209"><ele>394.0</ele><time>2026-05-01T16:29:37Z</time></trkpt><trkpt lat="45.764750854599995" lon="10.491427836606885"><ele>394.0</ele><time>2026-05-01T16:29:38Z</time></trkpt><trkpt lat="45.764663497902504" lon="10.491356791100015"><ele>394.0</ele><time>2026-05-01T16:29:39Z</time></trkpt><trkpt lat="45.7645629948122" lon="10.491330395957469"><ele>394.0</ele><time>2026-05-01T16:29:40Z</time></trkpt><trkpt lat="45.764451602022575" lon="10.491362242629949"><ele>394.0</ele><time>2026-05-01T16:29:41Z</time></trkpt><trkpt lat="45.7643230115358" lon="10.491405369977052"><ele>394.0</ele><time>2026-05-01T16:29:42Z</time></trkpt><trkpt lat="45.764201536884975" lon="10.491361711797701"><ele>390.6666666666667</ele><time>2026-05-01T16:29:43Z</time></trkpt><trkpt lat="45.764066341693336" lon="10.491319152680056"><ele>387.33333333333337</ele><time>2026-05-01T16:29:44Z</time></trkpt><trkpt lat="45.763917831501864" lon="10.491270045999093"><ele>384.0</ele><time>2026-05-01T16:29:45Z</time></trkpt><trkpt lat="45.76376037116459" lon="10.49121612358033"><ele>389.33333333333337</ele><time>2026-05-01T16:29:46Z</time></trkpt><trkpt lat="45.76359817240072" lon="10.491160642381685"><ele>394.6666666666667</ele><time>2026-05-01T16:29:47Z</time></trkpt><trkpt lat="45.763427436156114" lon="10.491099829936124"><ele>400.0</ele><time>2026-05-01T16:29:48Z</time></trkpt><trkpt lat="45.76325186611776" lon="10.491030045915561"><ele>400.0</ele><time>2026-05-01T16:29:49Z</time></trkpt><trkpt lat="45.76307634668205" lon="10.49096884960142"><ele>400.0</ele><time>2026-05-01T16:29:50Z</time></trkpt><trkpt lat="45.76291965638088" lon="10.490859813262281"><ele>400.0</ele><time>2026-05-01T16:29:51Z</time></trkpt><trkpt lat="45.76277659447837" lon="10.490775249934021"><ele>394.33333333333337</ele><time>2026-05-01T16:29:52Z</time></trkpt><trkpt lat="45.76263683445627" lon="10.49068559806251"><ele>388.6666666666667</ele><time>2026-05-01T16:29:53Z</time></trkpt><trkpt lat="45.762501036334804" lon="10.490591252608631"><ele>383.0</ele><time>2026-05-01T16:29:54Z</time></trkpt><trkpt lat="45.76237081320644" lon="10.490490641647641"><ele>390.25</ele><time>2026-05-01T16:29:55Z</time></trkpt><trkpt lat="45.76224818413562" lon="10.490381652386997"><ele>397.5</ele><time>2026-05-01T16:29:56Z</time></trkpt><trkpt lat="45.76213679755226" lon="10.490269248958601"><ele>404.75</ele><time>2026-05-01T16:29:57Z</time></trkpt><trkpt lat="45.762030072876186" lon="10.490143115980967"><ele>412.0</ele><time>2026-05-01T16:29:58Z</time></trkpt><trkpt lat="45.761925815532834" lon="10.489998707111742"><ele>409.75</ele><time>2026-05-01T16:29:59Z</time></trkpt><trkpt lat="45.761835187488614" lon="10.489848584924928"><ele>407.5</ele><time>2026-05-01T16:30:00Z</time></trkpt><trkpt lat="45.76175911768424" lon="10.489688846080899"><ele>405.25</ele><time>2026-05-01T16:30:01Z</time></trkpt><trkpt lat="45.76168984908064" lon="10.4895259889357"><ele>403.0</ele><time>2026-05-01T16:30:02Z</time></trkpt><trkpt lat="45.76164525642896" lon="10.489350883803782"><ele>403.0</ele><time>2026-05-01T16:30:03Z</time></trkpt><trkpt lat="45.761591933076936" lon="10.489173413366025"><ele>403.0</ele><time>2026-05-01T16:30:04Z</time></trkpt><trkpt lat="45.761531446077505" lon="10.489014007194285"><ele>403.0</ele><time>2026-05-01T16:30:05Z</time></trkpt><trkpt lat="45.76148282098736" lon="10.488843174647064"><ele>403.0</ele><time>2026-05-01T16:30:06Z</time></trkpt><trkpt lat="45.76140529225356" lon="10.488685653487012"><ele>408.0</ele><time>2026-05-01T16:30:07Z</time></trkpt><trkpt lat="45.76135348012609" lon="10.488521222447375"><ele>413.0</ele><time>2026-05-01T16:30:08Z</time></trkpt><trkpt lat="45.761274900173056" lon="10.488376956878593"><ele>418.0</ele><time>2026-05-01T16:30:09Z</time></trkpt><trkpt lat="45.76118156312769" lon="10.488241243536512"><ele>423.0</ele><time>2026-05-01T16:30:10.021Z</time></trkpt><trkpt lat="45.761071591499004" lon="10.48814822411273"><ele>424.0</ele><time>2026-05-01T16:30:11.016Z</time></trkpt><trkpt lat="45.76099146872455" lon="10.488014763412755"><ele>425.0</ele><time>2026-05-01T16:30:12.023Z</time></trkpt><trkpt lat="45.760862619354924" lon="10.487949983936426"><ele>426.0</ele><time>2026-05-01T16:30:13.02Z</time></trkpt><trkpt lat="45.760752187749176" lon="10.487904370237265"><ele>427.0</ele><time>2026-05-01T16:30:14.014Z</time></trkpt><trkpt lat="45.760651009353545" lon="10.487846188368145"><ele>427.0</ele><time>2026-05-01T16:30:15.02Z</time></trkpt><trkpt lat="45.76055250946102" lon="10.48777354769956"><ele>427.0</ele><time>2026-05-01T16:30:16.019Z</time></trkpt><trkpt lat="45.760141681197204" lon="10.487632916569384"><ele>421.75</ele><time>2026-05-01T16:30:19.769Z</time></trkpt><trkpt lat="45.76003436813318" lon="10.487582791127606"><ele>416.5</ele><time>2026-05-01T16:30:20.769Z</time></trkpt><trkpt lat="45.75994736163821" lon="10.487479670178825"><ele>411.25</ele><time>2026-05-01T16:30:21.769Z</time></trkpt><trkpt lat="45.759844615275895" lon="10.487410934250333"><ele>406.0</ele><time>2026-05-01T16:30:22.77Z</time></trkpt><trkpt lat="45.75976039519506" lon="10.487305175714653"><ele>406.0</ele><time>2026-05-01T16:30:23.77Z</time></trkpt><trkpt lat="45.759685941295565" lon="10.487184907164982"><ele>406.0</ele><time>2026-05-01T16:30:24.77Z</time></trkpt><trkpt lat="45.75962525521162" lon="10.487048354321464"><ele>406.0</ele><time>2026-05-01T16:30:25.767Z</time></trkpt><trkpt lat="45.759547633988575" lon="10.486930239725165"><ele>406.0</ele><time>2026-05-01T16:30:26.77Z</time></trkpt><trkpt lat="45.75945887804081" lon="10.486829959073425"><ele>404.5</ele><time>2026-05-01T16:30:27.766Z</time></trkpt><trkpt lat="45.75938285450848" lon="10.486710936341805"><ele>403.0</ele><time>2026-05-01T16:30:28.77Z</time></trkpt><trkpt lat="45.75932216447907" lon="10.486574704430323"><ele>401.5</ele><time>2026-05-01T16:30:29.766Z</time></trkpt><trkpt lat="45.75923634457848" lon="10.486468570750382"><ele>400.0</ele><time>2026-05-01T16:30:30.765Z</time></trkpt><trkpt lat="45.75917876386469" lon="10.48632796517117"><ele>405.5</ele><time>2026-05-01T16:30:31.77Z</time></trkpt><trkpt lat="45.75910753963508" lon="10.486203191558994"><ele>411.0</ele><time>2026-05-01T16:30:32.77Z</time></trkpt><trkpt lat="45.75903196481745" lon="10.486082489769993"><ele>416.5</ele><time>2026-05-01T16:30:33.77Z</time></trkpt><trkpt lat="45.758954989404444" lon="10.485965206248807"><ele>422.0</ele><time>2026-05-01T16:30:34.77Z</time></trkpt><trkpt lat="45.758877268173336" lon="10.48584926006676"><ele>422.0</ele><time>2026-05-01T16:30:35.77Z</time></trkpt><trkpt lat="45.75879530871929" lon="10.485737740174914"><ele>422.0</ele><time>2026-05-01T16:30:36.77Z</time></trkpt><trkpt lat="45.75870815980296" lon="10.485632664685863"><ele>422.0</ele><time>2026-05-01T16:30:37.77Z</time></trkpt><trkpt lat="45.75861491818214" lon="10.485539867440563"><ele>422.0</ele><time>2026-05-01T16:30:38.77Z</time></trkpt><trkpt lat="45.75850782646749" lon="10.485481816010767"><ele>421.6</ele><time>2026-05-01T16:30:39.77Z</time></trkpt><trkpt lat="45.758405563218716" lon="10.485415456852467"><ele>421.20000000000005</ele><time>2026-05-01T16:30:40.77Z</time></trkpt><trkpt lat="45.758302328024946" lon="10.4853538765264"><ele>420.8</ele><time>2026-05-01T16:30:41.766Z</time></trkpt><trkpt lat="45.758198197627216" lon="10.485291762206545"><ele>420.4</ele><time>2026-05-01T16:30:42.77Z</time></trkpt><trkpt lat="45.75809537247893" lon="10.485227061751356"><ele>420.0</ele><time>2026-05-01T16:30:43.77Z</time></trkpt><trkpt lat="45.75800024191524" lon="10.485139624249117"><ele>420.0</ele><time>2026-05-01T16:30:44.766Z</time></trkpt><trkpt lat="45.75789057046683" lon="10.485094985080131"><ele>420.0</ele><time>2026-05-01T16:30:45.77Z</time></trkpt><trkpt lat="45.75779530572899" lon="10.485007150942009"><ele>420.0</ele><time>2026-05-01T16:30:46.768Z</time></trkpt><trkpt lat="45.75769353251322" lon="10.484939463725388"><ele>420.0</ele><time>2026-05-01T16:30:47.77Z</time></trkpt><trkpt lat="45.75758520254514" lon="10.484892051849595"><ele>416.0</ele><time>2026-05-01T16:30:48.768Z</time></trkpt><trkpt lat="45.75748360595457" lon="10.48482288475505"><ele>412.0</ele><time>2026-05-01T16:30:49.769Z</time></trkpt><trkpt lat="45.75738982671599" lon="10.484732460713031"><ele>408.0</ele><time>2026-05-01T16:30:50.765Z</time></trkpt><trkpt lat="45.75728807305636" lon="10.484662744359106"><ele>404.0</ele><time>2026-05-01T16:30:51.77Z</time></trkpt><trkpt lat="45.75474257772268" lon="10.481274270250214"><ele>404.0</ele><time>2026-05-01T16:30:53Z</time></trkpt><trkpt lat="45.754536664910155" lon="10.481204055652404"><ele>404.0</ele><time>2026-05-01T16:30:54Z</time></trkpt><trkpt lat="45.75435592468879" lon="10.481114620090947"><ele>404.0</ele><time>2026-05-01T16:30:55Z</time></trkpt><trkpt lat="45.75414797552116" lon="10.481031675249454"><ele>404.0</ele><time>2026-05-01T16:30:56Z</time></trkpt><trkpt lat="45.75395939870078" lon="10.480908420873504"><ele>404.0</ele><time>2026-05-01T16:30:57Z</time></trkpt><trkpt lat="45.75375212978021" lon="10.480799102199482"><ele>404.0</ele><time>2026-05-01T16:30:58Z</time></trkpt><trkpt lat="45.753554436900565" lon="10.480683531255414"><ele>405.0</ele><time>2026-05-01T16:30:59Z</time></trkpt><trkpt lat="45.753363700295495" lon="10.480572766828544"><ele>406.0</ele><time>2026-05-01T16:31:00Z</time></trkpt><trkpt lat="45.75317551807548" lon="10.48045488545953"><ele>407.0</ele><time>2026-05-01T16:31:01Z</time></trkpt><trkpt lat="45.752981223430304" lon="10.480349982008658"><ele>407.0</ele><time>2026-05-01T16:31:02Z</time></trkpt><trkpt lat="45.75278153440712" lon="10.480236293967112"><ele>407.0</ele><time>2026-05-01T16:31:03Z</time></trkpt><trkpt lat="45.75257945255373" lon="10.48011304313306"><ele>407.0</ele><time>2026-05-01T16:31:04Z</time></trkpt><trkpt lat="45.75237887351399" lon="10.479996702686728"><ele>399.5</ele><time>2026-05-01T16:31:05Z</time></trkpt><trkpt lat="45.7521701371746" lon="10.479879430606946"><ele>392.0</ele><time>2026-05-01T16:31:06Z</time></trkpt><trkpt lat="45.75195905176179" lon="10.479761749944352"><ele>388.0</ele><time>2026-05-01T16:31:07Z</time></trkpt><trkpt lat="45.7517502179989" lon="10.47964691069155"><ele>384.0</ele><time>2026-05-01T16:31:08Z</time></trkpt><trkpt lat="45.75153080526619" lon="10.479545750295015"><ele>392.0</ele><time>2026-05-01T16:31:09Z</time></trkpt><trkpt lat="45.7513156129624" lon="10.479431978301346"><ele>400.0</ele><time>2026-05-01T16:31:10Z</time></trkpt><trkpt lat="45.751096380428116" lon="10.479309418572607"><ele>397.0</ele><time>2026-05-01T16:31:11Z</time></trkpt><trkpt lat="45.75087929003334" lon="10.479188026855539"><ele>394.0</ele><time>2026-05-01T16:31:12Z</time></trkpt><trkpt lat="45.75066521788121" lon="10.479069651787597"><ele>394.0</ele><time>2026-05-01T16:31:13Z</time></trkpt><trkpt lat="45.750449028324134" lon="10.478932714169451"><ele>394.0</ele><time>2026-05-01T16:31:14Z</time></trkpt><trkpt lat="45.75025753208296" lon="10.478828497275755"><ele>394.0</ele><time>2026-05-01T16:31:15Z</time></trkpt><trkpt lat="45.75007534953397" lon="10.478726374740727"><ele>394.6666666666667</ele><time>2026-05-01T16:31:16Z</time></trkpt><trkpt lat="45.74990069370453" lon="10.478610384612319"><ele>395.33333333333337</ele><time>2026-05-01T16:31:17Z</time></trkpt><trkpt lat="45.74971270607219" lon="10.478470355753434"><ele>396.0</ele><time>2026-05-01T16:31:18Z</time></trkpt><trkpt lat="45.74953138073696" lon="10.4783007103999"><ele>395.33333333333337</ele><time>2026-05-01T16:31:19Z</time></trkpt><trkpt lat="45.749360547409005" lon="10.47811215149638"><ele>394.6666666666667</ele><time>2026-05-01T16:31:20Z</time></trkpt><trkpt lat="45.74920847184995" lon="10.477928120795022"><ele>394.0</ele><time>2026-05-01T16:31:21Z</time></trkpt><trkpt lat="45.749072070865225" lon="10.477772301127596"><ele>394.0</ele><time>2026-05-01T16:31:22Z</time></trkpt><trkpt lat="45.74896010092811" lon="10.477646499339578"><ele>394.0</ele><time>2026-05-01T16:31:23Z</time></trkpt><trkpt lat="45.74884390689596" lon="10.477526092841435"><ele>394.0</ele><time>2026-05-01T16:31:24Z</time></trkpt><trkpt lat="45.74870254191553" lon="10.477373013083934"><ele>394.0</ele><time>2026-05-01T16:31:25Z</time></trkpt><trkpt lat="45.748544182149246" lon="10.477184328672854"><ele>394.0</ele><time>2026-05-01T16:31:26Z</time></trkpt><trkpt lat="45.74837292186022" lon="10.47699289385367"><ele>394.0</ele><time>2026-05-01T16:31:27Z</time></trkpt><trkpt lat="45.74819153123914" lon="10.476804884028695"><ele>394.0</ele><time>2026-05-01T16:31:28Z</time></trkpt><trkpt lat="45.7480004938174" lon="10.476624428278242"><ele>394.0</ele><time>2026-05-01T16:31:29Z</time></trkpt><trkpt lat="45.747812301305416" lon="10.476428167519371"><ele>394.5</ele><time>2026-05-01T16:31:30Z</time></trkpt><trkpt lat="45.7476260474302" lon="10.476227367087908"><ele>395.0</ele><time>2026-05-01T16:31:31Z</time></trkpt><trkpt lat="45.74744200354028" lon="10.476022513378458"><ele>395.0</ele><time>2026-05-01T16:31:32Z</time></trkpt><trkpt lat="45.74725627408698" lon="10.475815182646492"><ele>395.0</ele><time>2026-05-01T16:31:33Z</time></trkpt><trkpt lat="45.74707169804159" lon="10.475610270470836"><ele>392.5</ele><time>2026-05-01T16:31:34Z</time></trkpt><trkpt lat="45.74688503172507" lon="10.475404951979254"><ele>390.0</ele><time>2026-05-01T16:31:35Z</time></trkpt><trkpt lat="45.746766107873704" lon="10.475122180928906"><ele>390.0</ele><time>2026-05-01T16:31:36Z</time></trkpt><trkpt lat="45.74664519812741" lon="10.474899919765427"><ele>390.0</ele><time>2026-05-01T16:31:37Z</time></trkpt><trkpt lat="45.74656769424898" lon="10.474695173842276"><ele>390.0</ele><time>2026-05-01T16:31:38Z</time></trkpt><trkpt lat="45.74648265127571" lon="10.474487109602709"><ele>386.0</ele><time>2026-05-01T16:31:39Z</time></trkpt><trkpt lat="45.746527788602094" lon="10.474302994098371"><ele>382.0</ele><time>2026-05-01T16:31:40Z</time></trkpt><trkpt lat="45.746615603964244" lon="10.474179602790382"><ele>378.0</ele><time>2026-05-01T16:31:41Z</time></trkpt><trkpt lat="45.74595780767226" lon="10.473921523528803"><ele>383.33333333333337</ele><time>2026-05-01T16:31:42Z</time></trkpt><trkpt lat="45.745847599784746" lon="10.473687960316909"><ele>388.6666666666667</ele><time>2026-05-01T16:31:43Z</time></trkpt><trkpt lat="45.745734832649404" lon="10.47348057023652"><ele>394.0</ele><time>2026-05-01T16:31:44Z</time></trkpt><trkpt lat="45.745596835643084" lon="10.473314437962378"><ele>394.0</ele><time>2026-05-01T16:31:45Z</time></trkpt><trkpt lat="45.74541935697651" lon="10.473192622842792"><ele>394.0</ele><time>2026-05-01T16:31:46Z</time></trkpt><trkpt lat="45.74521855240756" lon="10.473070404751587"><ele>394.0</ele><time>2026-05-01T16:31:47Z</time></trkpt><trkpt lat="45.74501500493988" lon="10.472926599845588"><ele>396.33333333333337</ele><time>2026-05-01T16:31:48Z</time></trkpt><trkpt lat="45.74481394242452" lon="10.472787126045443"><ele>398.66666666666663</ele><time>2026-05-01T16:31:49Z</time></trkpt><trkpt lat="45.744628479138576" lon="10.472662430774582"><ele>401.0</ele><time>2026-05-01T16:31:50Z</time></trkpt><trkpt lat="45.74445492381403" lon="10.47256030878931"><ele>394.0</ele><time>2026-05-01T16:31:51Z</time></trkpt><trkpt lat="45.7442991561293" lon="10.472455831538758"><ele>387.0</ele><time>2026-05-01T16:31:52Z</time></trkpt><trkpt lat="45.74414802808164" lon="10.472310506598687"><ele>380.0</ele><time>2026-05-01T16:31:53Z</time></trkpt><trkpt lat="45.74398526228898" lon="10.472120548657593"><ele>393.0</ele><time>2026-05-01T16:31:54Z</time></trkpt><trkpt lat="45.74380291626867" lon="10.471928772516307"><ele>406.0</ele><time>2026-05-01T16:31:55Z</time></trkpt><trkpt lat="45.74362086599612" lon="10.471740718093518"><ele>405.33333333333337</ele><time>2026-05-01T16:31:56Z</time></trkpt><trkpt lat="45.74344927501951" lon="10.471565558700817"><ele>404.66666666666663</ele><time>2026-05-01T16:31:57Z</time></trkpt><trkpt lat="45.74328720967409" lon="10.471405516542426"><ele>404.0</ele><time>2026-05-01T16:31:58Z</time></trkpt><trkpt lat="45.74313596695493" lon="10.47125048715332"><ele>404.0</ele><time>2026-05-01T16:31:59Z</time></trkpt><trkpt lat="45.74299176721956" lon="10.471099790673211"><ele>404.0</ele><time>2026-05-01T16:32:00Z</time></trkpt><trkpt lat="45.74286584716781" lon="10.470937904997992"><ele>404.0</ele><time>2026-05-01T16:32:01Z</time></trkpt><trkpt lat="45.74274810410804" lon="10.47072241582884"><ele>399.66666666666663</ele><time>2026-05-01T16:32:02Z</time></trkpt><trkpt lat="45.742622055269905" lon="10.4704739576361"><ele>395.33333333333337</ele><time>2026-05-01T16:32:03Z</time></trkpt><trkpt lat="45.742483964286734" lon="10.470210317842682"><ele>391.0</ele><time>2026-05-01T16:32:04Z</time></trkpt><trkpt lat="45.742322825855865" lon="10.469970669681324"><ele>391.0</ele><time>2026-05-01T16:32:05Z</time></trkpt><trkpt lat="45.74214576042957" lon="10.469773124575"><ele>391.0</ele><time>2026-05-01T16:32:06Z</time></trkpt><trkpt lat="45.74195291360594" lon="10.469607408851894"><ele>391.0</ele><time>2026-05-01T16:32:07Z</time></trkpt><trkpt lat="45.74174492252997" lon="10.469473953753198"><ele>389.33333333333337</ele><time>2026-05-01T16:32:08Z</time></trkpt><trkpt lat="45.74154677983435" lon="10.469364292968997"><ele>387.66666666666663</ele><time>2026-05-01T16:32:09Z</time></trkpt><trkpt lat="45.74137698847638" lon="10.469257052995514"><ele>386.0</ele><time>2026-05-01T16:32:10Z</time></trkpt><trkpt lat="45.74121829468589" lon="10.469147529570233"><ele>386.0</ele><time>2026-05-01T16:32:11Z</time></trkpt><trkpt lat="45.74107816905901" lon="10.46902377120956"><ele>386.0</ele><time>2026-05-01T16:32:12Z</time></trkpt><trkpt lat="45.74095662157553" lon="10.46887935768828"><ele>386.0</ele><time>2026-05-01T16:32:13Z</time></trkpt><trkpt lat="45.74085363752501" lon="10.468722611743052"><ele>384.75</ele><time>2026-05-01T16:32:14Z</time></trkpt><trkpt lat="45.740763918523264" lon="10.468551099020448"><ele>383.5</ele><time>2026-05-01T16:32:15Z</time></trkpt><trkpt lat="45.74068793622704" lon="10.468374234368603"><ele>382.25</ele><time>2026-05-01T16:32:16Z</time></trkpt><trkpt lat="45.740628775089945" lon="10.468185221882951"><ele>381.0</ele><time>2026-05-01T16:32:17Z</time></trkpt><trkpt lat="45.7405864452837" lon="10.467983706980496"><ele>382.33333333333337</ele><time>2026-05-01T16:32:18Z</time></trkpt><trkpt lat="45.74056057091451" lon="10.46776099568336"><ele>383.6666666666667</ele><time>2026-05-01T16:32:19Z</time></trkpt><trkpt lat="45.74054022351309" lon="10.46750740404214"><ele>385.0</ele><time>2026-05-01T16:32:20Z</time></trkpt><trkpt lat="45.74050853791662" lon="10.467251889672575"><ele>386.6666666666667</ele><time>2026-05-01T16:32:21Z</time></trkpt><trkpt lat="45.74047532285761" lon="10.466976075360051"><ele>388.33333333333337</ele><time>2026-05-01T16:32:22Z</time></trkpt><trkpt lat="45.740434738291135" lon="10.466695350129491"><ele>390.0</ele><time>2026-05-01T16:32:23Z</time></trkpt><trkpt lat="45.740376177953266" lon="10.466421118535191"><ele>393.0</ele><time>2026-05-01T16:32:24Z</time></trkpt><trkpt lat="45.740289927681026" lon="10.466147623541662"><ele>396.0</ele><time>2026-05-01T16:32:25Z</time></trkpt><trkpt lat="45.74018832992086" lon="10.465892221148911"><ele>399.0</ele><time>2026-05-01T16:32:26Z</time></trkpt><trkpt lat="45.74007982491445" lon="10.465640688410751"><ele>395.33333333333337</ele><time>2026-05-01T16:32:27Z</time></trkpt><trkpt lat="45.73996622861875" lon="10.465389913242552"><ele>391.6666666666667</ele><time>2026-05-01T16:32:28Z</time></trkpt><trkpt lat="45.739841830028745" lon="10.465154150509372"><ele>388.0</ele><time>2026-05-01T16:32:29Z</time></trkpt><trkpt lat="45.739701475821036" lon="10.464949390285563"><ele>388.0</ele><time>2026-05-01T16:32:30Z</time></trkpt><trkpt lat="45.739567213095995" lon="10.464775346068636"><ele>388.0</ele><time>2026-05-01T16:32:31Z</time></trkpt><trkpt lat="45.7394616359746" lon="10.464582145085192"><ele>388.0</ele><time>2026-05-01T16:32:32Z</time></trkpt><trkpt lat="45.73938906225849" lon="10.464364076796619"><ele>386.6666666666667</ele><time>2026-05-01T16:32:33Z</time></trkpt><trkpt lat="45.73933977796503" lon="10.464126350155368"><ele>385.33333333333337</ele><time>2026-05-01T16:32:34Z</time></trkpt><trkpt lat="45.73929056632388" lon="10.463871673770331"><ele>384.0</ele><time>2026-05-01T16:32:35Z</time></trkpt><trkpt lat="45.73921846048659" lon="10.463623489988551"><ele>384.0</ele><time>2026-05-01T16:32:36Z</time></trkpt><trkpt lat="45.739123823729706" lon="10.46338297785609"><ele>384.0</ele><time>2026-05-01T16:32:37Z</time></trkpt><trkpt lat="45.73901248514516" lon="10.463156550425317"><ele>384.0</ele><time>2026-05-01T16:32:38Z</time></trkpt><trkpt lat="45.738893217921536" lon="10.46294859669053"><ele>382.3333333333333</ele><time>2026-05-01T16:32:39Z</time></trkpt><trkpt lat="45.73877046040753" lon="10.46276680260738"><ele>380.66666666666663</ele><time>2026-05-01T16:32:40Z</time></trkpt><trkpt lat="45.73865126150643" lon="10.462594528829959"><ele>379.0</ele><time>2026-05-01T16:32:41Z</time></trkpt><trkpt lat="45.73853782075003" lon="10.462436293991317"><ele>379.0</ele><time>2026-05-01T16:32:42Z</time></trkpt><trkpt lat="45.738414505268246" lon="10.46231339389066"><ele>379.0</ele><time>2026-05-01T16:32:43Z</time></trkpt><trkpt lat="45.738271409652576" lon="10.46220941319742"><ele>379.0</ele><time>2026-05-01T16:32:44Z</time></trkpt><trkpt lat="45.73811442785482" lon="10.46213432339543"><ele>379.66666666666663</ele><time>2026-05-01T16:32:45Z</time></trkpt><trkpt lat="45.73795454854397" lon="10.462066821260425"><ele>380.3333333333333</ele><time>2026-05-01T16:32:46Z</time></trkpt><trkpt lat="45.73780676664398" lon="10.462000891648477"><ele>381.0</ele><time>2026-05-01T16:32:47Z</time></trkpt><trkpt lat="45.737670614367346" lon="10.461927229211316"><ele>381.0</ele><time>2026-05-01T16:32:48Z</time></trkpt><trkpt lat="45.73752391259456" lon="10.461865205977277"><ele>381.0</ele><time>2026-05-01T16:32:49Z</time></trkpt><trkpt lat="45.73738065158583" lon="10.461808498470557"><ele>381.0</ele><time>2026-05-01T16:32:50Z</time></trkpt><trkpt lat="45.73722610543699" lon="10.461797157232844"><ele>381.0</ele><time>2026-05-01T16:32:51Z</time></trkpt><trkpt lat="45.73707273987947" lon="10.46182006503971"><ele>381.0</ele><time>2026-05-01T16:32:52Z</time></trkpt><trkpt lat="45.73693226909799" lon="10.46184064637205"><ele>381.0</ele><time>2026-05-01T16:32:53Z</time></trkpt><trkpt lat="45.736800002385614" lon="10.461852466604531"><ele>381.0</ele><time>2026-05-01T16:32:54Z</time></trkpt><trkpt lat="45.7366704007516" lon="10.461845528476855"><ele>379.75</ele><time>2026-05-01T16:32:55Z</time></trkpt><trkpt lat="45.73654939353564" lon="10.46179491714978"><ele>378.5</ele><time>2026-05-01T16:32:56Z</time></trkpt><trkpt lat="45.73643263823101" lon="10.461705539867918"><ele>377.25</ele><time>2026-05-01T16:32:57Z</time></trkpt><trkpt lat="45.73633133151112" lon="10.461585878562694"><ele>376.0</ele><time>2026-05-01T16:32:58Z</time></trkpt><trkpt lat="45.7362348653131" lon="10.46145249270372"><ele>376.0</ele><time>2026-05-01T16:32:59Z</time></trkpt><trkpt lat="45.736152523730595" lon="10.4613055667628"><ele>376.0</ele><time>2026-05-01T16:33:00Z</time></trkpt><trkpt lat="45.736069883018224" lon="10.46116361252825"><ele>376.0</ele><time>2026-05-01T16:33:01Z</time></trkpt><trkpt lat="45.73597977800775" lon="10.46101787546897"><ele>376.0</ele><time>2026-05-01T16:33:02Z</time></trkpt><trkpt lat="45.73588663299058" lon="10.46085957671368"><ele>376.0</ele><time>2026-05-01T16:33:03Z</time></trkpt><trkpt lat="45.735807346398644" lon="10.460699920830542"><ele>376.0</ele><time>2026-05-01T16:33:04Z</time></trkpt><trkpt lat="45.7357466680117" lon="10.460539994927307"><ele>376.0</ele><time>2026-05-01T16:33:05Z</time></trkpt><trkpt lat="45.735697706709175" lon="10.460376557642032"><ele>376.0</ele><time>2026-05-01T16:33:06Z</time></trkpt><trkpt lat="45.735664861048626" lon="10.460198326192788"><ele>376.0</ele><time>2026-05-01T16:33:07Z</time></trkpt><trkpt lat="45.735626906551005" lon="10.460026061297569"><ele>376.0</ele><time>2026-05-01T16:33:08Z</time></trkpt><trkpt lat="45.73556615411766" lon="10.459858090355402"><ele>376.0</ele><time>2026-05-01T16:33:09Z</time></trkpt><trkpt lat="45.735483659010335" lon="10.459715516472144"><ele>376.0</ele><time>2026-05-01T16:33:10Z</time></trkpt><trkpt lat="45.73539220083678" lon="10.459579752339106"><ele>375.5</ele><time>2026-05-01T16:33:11Z</time></trkpt><trkpt lat="45.73530435978419" lon="10.459442711279545"><ele>375.0</ele><time>2026-05-01T16:33:12Z</time></trkpt><trkpt lat="45.7352192888187" lon="10.45930405086882"><ele>374.5</ele><time>2026-05-01T16:33:13Z</time></trkpt><trkpt lat="45.73513834280597" lon="10.459170508800662"><ele>374.0</ele><time>2026-05-01T16:33:14Z</time></trkpt><trkpt lat="45.73505790676639" lon="10.459035615173446"><ele>374.0</ele><time>2026-05-01T16:33:15Z</time></trkpt><trkpt lat="45.73498406147206" lon="10.458909125383647"><ele>374.0</ele><time>2026-05-01T16:33:16Z</time></trkpt><trkpt lat="45.734915206671985" lon="10.45879189526149"><ele>374.0</ele><time>2026-05-01T16:33:17Z</time></trkpt><trkpt lat="45.73484548139102" lon="10.458674767345226"><ele>374.0</ele><time>2026-05-01T16:33:18Z</time></trkpt><trkpt lat="45.73478484216213" lon="10.458567110894307"><ele>374.0</ele><time>2026-05-01T16:33:19Z</time></trkpt><trkpt lat="45.73473826218938" lon="10.45848166977208"><ele>374.6</ele><time>2026-05-01T16:33:20Z</time></trkpt><trkpt lat="45.73467493106152" lon="10.458363939387993"><ele>375.2</ele><time>2026-05-01T16:33:22Z</time></trkpt><trkpt lat="45.73463332555682" lon="10.458275107099816"><ele>375.8</ele><time>2026-05-01T16:33:24Z</time></trkpt><trkpt lat="45.73457049293281" lon="10.458133840428498"><ele>376.40000000000003</ele><time>2026-05-01T16:33:26Z</time></trkpt><trkpt lat="45.73453238623212" lon="10.458031734707006"><ele>377.0</ele><time>2026-05-01T16:33:27Z</time></trkpt><trkpt lat="45.73450236194312" lon="10.457904276978347"><ele>378.0</ele><time>2026-05-01T16:33:28Z</time></trkpt><trkpt lat="45.73446505526782" lon="10.457796342730266"><ele>379.0</ele><time>2026-05-01T16:33:29Z</time></trkpt><trkpt lat="45.734402575389744" lon="10.457688658202551"><ele>380.0</ele><time>2026-05-01T16:33:30Z</time></trkpt><trkpt lat="45.734353244734336" lon="10.457560134123563"><ele>381.0</ele><time>2026-05-01T16:33:31Z</time></trkpt><trkpt lat="45.73430624018382" lon="10.457415245214136"><ele>382.0</ele><time>2026-05-01T16:33:32Z</time></trkpt><trkpt lat="45.73425714841323" lon="10.45725541468372"><ele>382.0</ele><time>2026-05-01T16:33:33Z</time></trkpt><trkpt lat="45.734205104107524" lon="10.457083122360638"><ele>382.0</ele><time>2026-05-01T16:33:34Z</time></trkpt><trkpt lat="45.734144668285424" lon="10.456906327363903"><ele>382.0</ele><time>2026-05-01T16:33:35Z</time></trkpt><trkpt lat="45.73407941635805" lon="10.456717835079154"><ele>382.0</ele><time>2026-05-01T16:33:36Z</time></trkpt><trkpt lat="45.73400954836152" lon="10.456523812446624"><ele>382.0</ele><time>2026-05-01T16:33:37Z</time></trkpt><trkpt lat="45.73394136928009" lon="10.456331504859673"><ele>382.0</ele><time>2026-05-01T16:33:38Z</time></trkpt><trkpt lat="45.733876025445014" lon="10.456147615419319"><ele>382.0</ele><time>2026-05-01T16:33:39Z</time></trkpt><trkpt lat="45.73381765140282" lon="10.455969851986303"><ele>382.0</ele><time>2026-05-01T16:33:40Z</time></trkpt><trkpt lat="45.73375999842748" lon="10.455796368264668"><ele>381.5</ele><time>2026-05-01T16:33:41Z</time></trkpt><trkpt lat="45.73370190100152" lon="10.455629283907708"><ele>381.0</ele><time>2026-05-01T16:33:42Z</time></trkpt><trkpt lat="45.733638218675765" lon="10.45546640191385"><ele>380.5</ele><time>2026-05-01T16:33:43Z</time></trkpt><trkpt lat="45.7335771491447" lon="10.4552907548947"><ele>380.0</ele><time>2026-05-01T16:33:44Z</time></trkpt><trkpt lat="45.733523352879416" lon="10.455113110396342"><ele>377.75</ele><time>2026-05-01T16:33:45Z</time></trkpt><trkpt lat="45.73350556742846" lon="10.454935847768914"><ele>375.5</ele><time>2026-05-01T16:33:46Z</time></trkpt><trkpt lat="45.73352949788009" lon="10.4547683404851"><ele>373.25</ele><time>2026-05-01T16:33:47Z</time></trkpt><trkpt lat="45.73359095139894" lon="10.454615556795051"><ele>371.0</ele><time>2026-05-01T16:33:48Z</time></trkpt><trkpt lat="45.7336825903616" lon="10.454497516664016"><ele>376.5</ele><time>2026-05-01T16:33:49Z</time></trkpt><trkpt lat="45.73380067284258" lon="10.454420970091578"><ele>382.0</ele><time>2026-05-01T16:33:50Z</time></trkpt><trkpt lat="45.73387565713946" lon="10.454276046453842"><ele>387.5</ele><time>2026-05-01T16:33:51Z</time></trkpt><trkpt lat="45.73394222227697" lon="10.454104321441106"><ele>393.0</ele><time>2026-05-01T16:33:52Z</time></trkpt><trkpt lat="45.733999942533416" lon="10.453934032418113"><ele>390.75</ele><time>2026-05-01T16:33:53Z</time></trkpt><trkpt lat="45.73405765650229" lon="10.453776692717367"><ele>388.5</ele><time>2026-05-01T16:33:54Z</time></trkpt><trkpt lat="45.73411358743723" lon="10.453611568277255"><ele>386.25</ele><time>2026-05-01T16:33:55Z</time></trkpt><trkpt lat="45.73415204108266" lon="10.453440335755085"><ele>384.0</ele><time>2026-05-01T16:33:56Z</time></trkpt><trkpt lat="45.73422929868754" lon="10.453317953503449"><ele>384.0</ele><time>2026-05-01T16:33:57Z</time></trkpt><trkpt lat="45.7343223795388" lon="10.453221028298914"><ele>384.0</ele><time>2026-05-01T16:33:58Z</time></trkpt><trkpt lat="45.73443913209341" lon="10.453152726148561"><ele>384.0</ele><time>2026-05-01T16:33:59Z</time></trkpt><trkpt lat="45.73456258179611" lon="10.453064732817635"><ele>384.0</ele><time>2026-05-01T16:34:00Z</time></trkpt><trkpt lat="45.73467053213701" lon="10.452961408843011"><ele>384.5</ele><time>2026-05-01T16:34:01Z</time></trkpt><trkpt lat="45.7347577118249" lon="10.452814982200756"><ele>385.0</ele><time>2026-05-01T16:34:02Z</time></trkpt><trkpt lat="45.73484207510202" lon="10.452673881467144"><ele>385.5</ele><time>2026-05-01T16:34:03Z</time></trkpt><trkpt lat="45.7349323579458" lon="10.452530388764886"><ele>386.0</ele><time>2026-05-01T16:34:04Z</time></trkpt><trkpt lat="45.735009205439766" lon="10.45235669016645"><ele>386.0</ele><time>2026-05-01T16:34:05Z</time></trkpt><trkpt lat="45.73508793772699" lon="10.452162669575085"><ele>386.0</ele><time>2026-05-01T16:34:06Z</time></trkpt><trkpt lat="45.73516189199608" lon="10.451966477790453"><ele>386.0</ele><time>2026-05-01T16:34:07Z</time></trkpt><trkpt lat="45.735223636356785" lon="10.451770773653195"><ele>390.75</ele><time>2026-05-01T16:34:08Z</time></trkpt><trkpt lat="45.73525518073892" lon="10.45157595037135"><ele>395.5</ele><time>2026-05-01T16:34:09Z</time></trkpt><trkpt lat="45.735294970797554" lon="10.451389282919623"><ele>400.25</ele><time>2026-05-01T16:34:10Z</time></trkpt><trkpt lat="45.73531841650185" lon="10.451189057865871"><ele>405.0</ele><time>2026-05-01T16:34:11Z</time></trkpt><trkpt lat="45.73531533880328" lon="10.450991350582491"><ele>405.0</ele><time>2026-05-01T16:34:12Z</time></trkpt><trkpt lat="45.73528688849764" lon="10.45080454911052"><ele>405.0</ele><time>2026-05-01T16:34:13Z</time></trkpt><trkpt lat="45.735236950375146" lon="10.450620957124721"><ele>405.0</ele><time>2026-05-01T16:34:14Z</time></trkpt><trkpt lat="45.73516199783129" lon="10.450456951150802"><ele>405.0</ele><time>2026-05-01T16:34:15Z</time></trkpt><trkpt lat="45.7350854346967" lon="10.450297448122598"><ele>393.3333333333333</ele><time>2026-05-01T16:34:16Z</time></trkpt><trkpt lat="45.73505957811657" lon="10.450094846499798"><ele>381.66666666666663</ele><time>2026-05-01T16:34:17Z</time></trkpt><trkpt lat="45.73506237889123" lon="10.449872869538849"><ele>370.0</ele><time>2026-05-01T16:34:18Z</time></trkpt><trkpt lat="45.73507458694139" lon="10.449644749278301"><ele>368.0</ele><time>2026-05-01T16:34:19Z</time></trkpt><trkpt lat="45.735078618580324" lon="10.449435264738227"><ele>366.0</ele><time>2026-05-01T16:34:20Z</time></trkpt><trkpt lat="45.73511969933339" lon="10.449233887447509"><ele>364.0</ele><time>2026-05-01T16:34:21Z</time></trkpt><trkpt lat="45.73520800148072" lon="10.449054176580804"><ele>362.0</ele><time>2026-05-01T16:34:22Z</time></trkpt><trkpt lat="45.73529600700221" lon="10.448887020703527"><ele>364.25</ele><time>2026-05-01T16:34:23Z</time></trkpt><trkpt lat="45.73535986230101" lon="10.448710350555096"><ele>366.5</ele><time>2026-05-01T16:34:24Z</time></trkpt><trkpt lat="45.73543325284774" lon="10.44854594149195"><ele>368.75</ele><time>2026-05-01T16:34:25Z</time></trkpt><trkpt lat="45.73551591459075" lon="10.448400374131829"><ele>371.0</ele><time>2026-05-01T16:34:26Z</time></trkpt><trkpt lat="45.73561426610522" lon="10.448266929580413"><ele>371.0</ele><time>2026-05-01T16:34:27Z</time></trkpt><trkpt lat="45.73572121902266" lon="10.4481124097074"><ele>371.0</ele><time>2026-05-01T16:34:28Z</time></trkpt><trkpt lat="45.73583207679967" lon="10.447982889949964"><ele>371.0</ele><time>2026-05-01T16:34:29Z</time></trkpt><trkpt lat="45.7359376645845" lon="10.44784554415703"><ele>371.0</ele><time>2026-05-01T16:34:30Z</time></trkpt><trkpt lat="45.73605365118553" lon="10.447716923261954"><ele>368.0</ele><time>2026-05-01T16:34:31Z</time></trkpt><trkpt lat="45.736184777723835" lon="10.447604551422017"><ele>365.0</ele><time>2026-05-01T16:34:32Z</time></trkpt><trkpt lat="45.73632510520072" lon="10.447508763307674"><ele>362.0</ele><time>2026-05-01T16:34:33Z</time></trkpt><trkpt lat="45.736471054261095" lon="10.44742323661772"><ele>362.0</ele><time>2026-05-01T16:34:34Z</time></trkpt><trkpt lat="45.73662274134606" lon="10.447326647363507"><ele>362.0</ele><time>2026-05-01T16:34:35Z</time></trkpt><trkpt lat="45.73678966620767" lon="10.447220432967018"><ele>362.0</ele><time>2026-05-01T16:34:36Z</time></trkpt><trkpt lat="45.73696637806027" lon="10.447110734162928"><ele>359.0</ele><time>2026-05-01T16:34:37Z</time></trkpt><trkpt lat="45.73713233445638" lon="10.447013773418043"><ele>356.0</ele><time>2026-05-01T16:34:38Z</time></trkpt><trkpt lat="45.737279087569085" lon="10.446918693928994"><ele>353.0</ele><time>2026-05-01T16:34:39Z</time></trkpt><trkpt lat="45.73741859249833" lon="10.446804484739518"><ele>353.0</ele><time>2026-05-01T16:34:40Z</time></trkpt><trkpt lat="45.7375602198861" lon="10.44667255929246"><ele>353.0</ele><time>2026-05-01T16:34:41Z</time></trkpt><trkpt lat="45.737690934947786" lon="10.446531801482136"><ele>353.0</ele><time>2026-05-01T16:34:42Z</time></trkpt><trkpt lat="45.737820105951926" lon="10.446403188719184"><ele>352.33333333333337</ele><time>2026-05-01T16:34:43Z</time></trkpt><trkpt lat="45.737954499198395" lon="10.446258146983043"><ele>351.6666666666667</ele><time>2026-05-01T16:34:44Z</time></trkpt><trkpt lat="45.738107630181375" lon="10.446133450847903"><ele>351.0</ele><time>2026-05-01T16:34:45Z</time></trkpt><trkpt lat="45.73828224673654" lon="10.445977345984316"><ele>351.0</ele><time>2026-05-01T16:34:46Z</time></trkpt><trkpt lat="45.738475696029106" lon="10.4457923019452"><ele>351.0</ele><time>2026-05-01T16:34:47Z</time></trkpt><trkpt lat="45.73868081656854" lon="10.445581524693097"><ele>353.0</ele><time>2026-05-01T16:34:48Z</time></trkpt><trkpt lat="45.738878178146194" lon="10.445361029163827"><ele>355.0</ele><time>2026-05-01T16:34:49Z</time></trkpt><trkpt lat="45.7390382869556" lon="10.44514809256856"><ele>355.0</ele><time>2026-05-01T16:34:50Z</time></trkpt><trkpt lat="45.73917895955326" lon="10.444981972470776"><ele>355.0</ele><time>2026-05-01T16:34:51Z</time></trkpt><trkpt lat="45.73929646706425" lon="10.444853391219485"><ele>355.0</ele><time>2026-05-01T16:34:52Z</time></trkpt><trkpt lat="45.73942645264498" lon="10.444801749024608"><ele>364.66666666666663</ele><time>2026-05-01T16:34:53Z</time></trkpt><trkpt lat="45.73957045276534" lon="10.444755732885994"><ele>374.3333333333333</ele><time>2026-05-01T16:34:54Z</time></trkpt><trkpt lat="45.739734999305995" lon="10.44470448724364"><ele>384.0</ele><time>2026-05-01T16:34:55Z</time></trkpt><trkpt lat="45.739873211661475" lon="10.444678459604233"><ele>384.0</ele><time>2026-05-01T16:34:56Z</time></trkpt><trkpt lat="45.73996832331984" lon="10.444640429162785"><ele>384.0</ele><time>2026-05-01T16:34:57Z</time></trkpt><trkpt lat="45.74003648732187" lon="10.444544245353855"><ele>384.0</ele><time>2026-05-01T16:34:58Z</time></trkpt><trkpt lat="45.74005916117523" lon="10.444387397946254"><ele>384.0</ele><time>2026-05-01T16:34:59Z</time></trkpt><trkpt lat="45.740037380787946" lon="10.44418400859044"><ele>377.3333333333333</ele><time>2026-05-01T16:35:00Z</time></trkpt><trkpt lat="45.73998558274892" lon="10.443940112220165"><ele>370.66666666666663</ele><time>2026-05-01T16:35:01Z</time></trkpt><trkpt lat="45.73993323727326" lon="10.443645429011742"><ele>364.0</ele><time>2026-05-01T16:35:02Z</time></trkpt><trkpt lat="45.739882829438514" lon="10.443306616054045"><ele>371.5</ele><time>2026-05-01T16:35:03Z</time></trkpt><trkpt lat="45.73983273752774" lon="10.442943238482442"><ele>379.0</ele><time>2026-05-01T16:35:04Z</time></trkpt><trkpt lat="45.73978472540008" lon="10.442575065064721"><ele>379.0</ele><time>2026-05-01T16:35:05Z</time></trkpt><trkpt lat="45.739739530510874" lon="10.442242136195667"><ele>379.0</ele><time>2026-05-01T16:35:06Z</time></trkpt><trkpt lat="45.739698475683504" lon="10.441946506301605"><ele>379.0</ele><time>2026-05-01T16:35:07Z</time></trkpt><trkpt lat="45.73966063562669" lon="10.441665208008692"><ele>382.0</ele><time>2026-05-01T16:35:08Z</time></trkpt><trkpt lat="45.73962364499192" lon="10.44140360990486"><ele>385.0</ele><time>2026-05-01T16:35:09Z</time></trkpt><trkpt lat="45.73959184633707" lon="10.441153146877218"><ele>388.0</ele><time>2026-05-01T16:35:10Z</time></trkpt><trkpt lat="45.73956366539931" lon="10.440922531113511"><ele>390.5</ele><time>2026-05-01T16:35:11Z</time></trkpt><trkpt lat="45.739532654688425" lon="10.440706427624722"><ele>393.0</ele><time>2026-05-01T16:35:12Z</time></trkpt><trkpt lat="45.73950586405024" lon="10.440502803632105"><ele>395.5</ele><time>2026-05-01T16:35:13Z</time></trkpt><trkpt lat="45.73948319069501" lon="10.440305299312007"><ele>398.0</ele><time>2026-05-01T16:35:14Z</time></trkpt><trkpt lat="45.73945680242317" lon="10.440127105408878"><ele>398.75</ele><time>2026-05-01T16:35:15Z</time></trkpt><trkpt lat="45.73942959770844" lon="10.439938477504276"><ele>399.5</ele><time>2026-05-01T16:35:16Z</time></trkpt><trkpt lat="45.73939962939793" lon="10.439773489152286"><ele>400.25</ele><time>2026-05-01T16:35:17Z</time></trkpt><trkpt lat="45.739374817496056" lon="10.439616583891445"><ele>401.0</ele><time>2026-05-01T16:35:18Z</time></trkpt><trkpt lat="45.73934907330556" lon="10.439476884443403"><ele>397.20000000000005</ele><time>2026-05-01T16:35:19Z</time></trkpt><trkpt lat="45.7393185311089" lon="10.439344021913115"><ele>393.40000000000003</ele><time>2026-05-01T16:35:20Z</time></trkpt><trkpt lat="45.73927918591701" lon="10.439231823366267"><ele>389.6</ele><time>2026-05-01T16:35:21Z</time></trkpt><trkpt lat="45.739214473063754" lon="10.439134171400783"><ele>385.8</ele><time>2026-05-01T16:35:22Z</time></trkpt><trkpt lat="45.739140357053955" lon="10.439054727604569"><ele>382.0</ele><time>2026-05-01T16:35:23Z</time></trkpt><trkpt lat="45.73906202669799" lon="10.438967036060692"><ele>382.0</ele><time>2026-05-01T16:35:24Z</time></trkpt><trkpt lat="45.73899984112759" lon="10.438869292374385"><ele>382.0</ele><time>2026-05-01T16:35:25Z</time></trkpt><trkpt lat="45.738952533763445" lon="10.438764236522182"><ele>382.0</ele><time>2026-05-01T16:35:26Z</time></trkpt><trkpt lat="45.73891452861768" lon="10.438670699055592"><ele>382.0</ele><time>2026-05-01T16:35:27Z</time></trkpt><trkpt lat="45.7388684321919" lon="10.438569906929342"><ele>382.0</ele><time>2026-05-01T16:35:28Z</time></trkpt><trkpt lat="45.738844150946804" lon="10.438445989295449"><ele>382.0</ele><time>2026-05-01T16:35:29Z</time></trkpt><trkpt lat="45.738842398407876" lon="10.438325160082604"><ele>383.0</ele><time>2026-05-01T16:35:30Z</time></trkpt><trkpt lat="45.73883559956739" lon="10.438219271005417"><ele>384.0</ele><time>2026-05-01T16:35:31Z</time></trkpt><trkpt lat="45.738821741438876" lon="10.438103321989002"><ele>385.0</ele><time>2026-05-01T16:35:32Z</time></trkpt><trkpt lat="45.738811238281464" lon="10.43798027076099"><ele>386.0</ele><time>2026-05-01T16:35:33Z</time></trkpt><trkpt lat="45.73880032044468" lon="10.437849495349678"><ele>387.00000000000006</ele><time>2026-05-01T16:35:34Z</time></trkpt><trkpt lat="45.73879335874718" lon="10.437719468725293"><ele>388.0</ele><time>2026-05-01T16:35:35Z</time></trkpt><trkpt lat="45.73877390035495" lon="10.4375996572808"><ele>387.83333333333337</ele><time>2026-05-01T16:35:36Z</time></trkpt><trkpt lat="45.738749592466995" lon="10.437490466799899"><ele>387.6666666666667</ele><time>2026-05-01T16:35:37Z</time></trkpt><trkpt lat="45.73872887956421" lon="10.437393095764442"><ele>387.5</ele><time>2026-05-01T16:35:38Z</time></trkpt><trkpt lat="45.73870165665772" lon="10.43729684085251"><ele>387.33333333333337</ele><time>2026-05-01T16:35:39Z</time></trkpt><trkpt lat="45.73866177751835" lon="10.437200507496847"><ele>387.1666666666667</ele><time>2026-05-01T16:35:40Z</time></trkpt><trkpt lat="45.738599012091925" lon="10.437116262433248"><ele>387.0</ele><time>2026-05-01T16:35:41Z</time></trkpt><trkpt lat="45.73851839685659" lon="10.437030833296015"><ele>387.0</ele><time>2026-05-01T16:35:42Z</time></trkpt><trkpt lat="45.73844702303394" lon="10.436934648061705"><ele>387.0</ele><time>2026-05-01T16:35:43Z</time></trkpt><trkpt lat="45.738371076878614" lon="10.436823694506911"><ele>387.0</ele><time>2026-05-01T16:35:44Z</time></trkpt><trkpt lat="45.738300851448436" lon="10.436711945491549"><ele>387.0</ele><time>2026-05-01T16:35:45Z</time></trkpt><trkpt lat="45.73822836262016" lon="10.4366021349153"><ele>387.0</ele><time>2026-05-01T16:35:46Z</time></trkpt><trkpt lat="45.738156120070144" lon="10.436492806360999"><ele>387.0</ele><time>2026-05-01T16:35:47Z</time></trkpt><trkpt lat="45.73808558126422" lon="10.436394886204532"><ele>387.0</ele><time>2026-05-01T16:35:48Z</time></trkpt><trkpt lat="45.73799852310602" lon="10.436320774600123"><ele>387.0</ele><time>2026-05-01T16:35:49Z</time></trkpt><trkpt lat="45.73790114117524" lon="10.436293931433012"><ele>387.0</ele><time>2026-05-01T16:35:50Z</time></trkpt><trkpt lat="45.73779997287342" lon="10.43630435212397"><ele>387.0</ele><time>2026-05-01T16:35:51Z</time></trkpt><trkpt lat="45.73769949294361" lon="10.436321829557494"><ele>385.6</ele><time>2026-05-01T16:35:52Z</time></trkpt><trkpt lat="45.737597188990264" lon="10.436314946769059"><ele>384.20000000000005</ele><time>2026-05-01T16:35:53Z</time></trkpt><trkpt lat="45.73750156666729" lon="10.436268442333658"><ele>382.8</ele><time>2026-05-01T16:35:54Z</time></trkpt><trkpt lat="45.737415570696236" lon="10.436193903340612"><ele>381.4</ele><time>2026-05-01T16:35:55Z</time></trkpt><trkpt lat="45.73734128867036" lon="10.43609621182733"><ele>380.0</ele><time>2026-05-01T16:35:56Z</time></trkpt><trkpt lat="45.73726778709147" lon="10.435993111691676"><ele>380.0</ele><time>2026-05-01T16:35:57Z</time></trkpt><trkpt lat="45.73719371784706" lon="10.435882802884674"><ele>380.0</ele><time>2026-05-01T16:35:58Z</time></trkpt><trkpt lat="45.737108476091784" lon="10.43576951140069"><ele>380.0</ele><time>2026-05-01T16:35:59Z</time></trkpt><trkpt lat="45.73701608529523" lon="10.435642299566329"><ele>380.0</ele><time>2026-05-01T16:36:00Z</time></trkpt><trkpt lat="45.73692250449594" lon="10.435511315398273"><ele>379.5</ele><time>2026-05-01T16:36:01Z</time></trkpt><trkpt lat="45.73682555201518" lon="10.435412782907013"><ele>379.0</ele><time>2026-05-01T16:36:02Z</time></trkpt><trkpt lat="45.73670697048621" lon="10.435344925935276"><ele>378.5</ele><time>2026-05-01T16:36:03Z</time></trkpt><trkpt lat="45.73658990771386" lon="10.43529611710948"><ele>378.0</ele><time>2026-05-01T16:36:04Z</time></trkpt><trkpt lat="45.736472931692084" lon="10.435245048368989"><ele>378.0</ele><time>2026-05-01T16:36:05Z</time></trkpt><trkpt lat="45.736362918428235" lon="10.435186313628924"><ele>378.0</ele><time>2026-05-01T16:36:06Z</time></trkpt><trkpt lat="45.73625206873093" lon="10.435112145865823"><ele>378.0</ele><time>2026-05-01T16:36:07Z</time></trkpt><trkpt lat="45.73613634252504" lon="10.435028284567387"><ele>378.0</ele><time>2026-05-01T16:36:08Z</time></trkpt><trkpt lat="45.736016908656474" lon="10.434938949342014"><ele>371.0</ele><time>2026-05-01T16:36:09Z</time></trkpt><trkpt lat="45.735864905922014" lon="10.434851441728101"><ele>364.0</ele><time>2026-05-01T16:36:10Z</time></trkpt><trkpt lat="45.73571710568434" lon="10.434724000060791"><ele>357.0</ele><time>2026-05-01T16:36:11Z</time></trkpt><trkpt lat="45.73556908667843" lon="10.434643400985442"><ele>359.5</ele><time>2026-05-01T16:36:12Z</time></trkpt><trkpt lat="45.7354423316356" lon="10.434547082811749"><ele>362.0</ele><time>2026-05-01T16:36:13Z</time></trkpt><trkpt lat="45.73532064941766" lon="10.4344560463642"><ele>364.5</ele><time>2026-05-01T16:36:14Z</time></trkpt><trkpt lat="45.735200115946505" lon="10.434382827530563"><ele>367.0</ele><time>2026-05-01T16:36:15Z</time></trkpt><trkpt lat="45.73507251237467" lon="10.434342378059348"><ele>367.0</ele><time>2026-05-01T16:36:16Z</time></trkpt><trkpt lat="45.734898524323626" lon="10.43437895898485"><ele>367.0</ele><time>2026-05-01T16:36:17Z</time></trkpt><trkpt lat="45.734704812051156" lon="10.434445397615645"><ele>367.0</ele><time>2026-05-01T16:36:18Z</time></trkpt><trkpt lat="45.73451639396583" lon="10.434503135382439"><ele>366.0</ele><time>2026-05-01T16:36:19Z</time></trkpt><trkpt lat="45.734306747869326" lon="10.43454132615831"><ele>365.0</ele><time>2026-05-01T16:36:20Z</time></trkpt><trkpt lat="45.73406561574547" lon="10.434560847297403"><ele>365.0</ele><time>2026-05-01T16:36:21Z</time></trkpt><trkpt lat="45.73383668760951" lon="10.43455541624013"><ele>365.0</ele><time>2026-05-01T16:36:22Z</time></trkpt><trkpt lat="45.733641105128186" lon="10.434567252897976"><ele>365.0</ele><time>2026-05-01T16:36:23Z</time></trkpt><trkpt lat="45.73347055238597" lon="10.434574389454651"><ele>362.6666666666667</ele><time>2026-05-01T16:36:24Z</time></trkpt><trkpt lat="45.73330703357207" lon="10.434555296129435"><ele>360.3333333333333</ele><time>2026-05-01T16:36:25Z</time></trkpt><trkpt lat="45.73314822144387" lon="10.434474351454648"><ele>358.0</ele><time>2026-05-01T16:36:26Z</time></trkpt><trkpt lat="45.732964590657886" lon="10.434366833474451"><ele>358.0</ele><time>2026-05-01T16:36:27Z</time></trkpt><trkpt lat="45.73276209420006" lon="10.434254557858821"><ele>358.0</ele><time>2026-05-01T16:36:28Z</time></trkpt><trkpt lat="45.732542763169135" lon="10.434143427999334"><ele>354.3333333333333</ele><time>2026-05-01T16:36:29Z</time></trkpt><trkpt lat="45.73234129169406" lon="10.434046307159056"><ele>350.6666666666667</ele><time>2026-05-01T16:36:30Z</time></trkpt><trkpt lat="45.73216428630584" lon="10.433959842364514"><ele>347.0</ele><time>2026-05-01T16:36:31Z</time></trkpt><trkpt lat="45.732019395774394" lon="10.433893069054253"><ele>346.6666666666667</ele><time>2026-05-01T16:36:32Z</time></trkpt><trkpt lat="45.731884216420546" lon="10.433872420679602"><ele>346.3333333333333</ele><time>2026-05-01T16:36:33Z</time></trkpt><trkpt lat="45.73173004869766" lon="10.433921400731437"><ele>346.0</ele><time>2026-05-01T16:36:34Z</time></trkpt><trkpt lat="45.7315441991914" lon="10.43403894919241"><ele>346.0</ele><time>2026-05-01T16:36:35Z</time></trkpt><trkpt lat="45.731334551334704" lon="10.434178057516549"><ele>346.0</ele><time>2026-05-01T16:36:36Z</time></trkpt><trkpt lat="45.73112318064392" lon="10.434296471882309"><ele>344.66666666666663</ele><time>2026-05-01T16:36:37Z</time></trkpt><trkpt lat="45.73092686282489" lon="10.434396419198402"><ele>343.3333333333333</ele><time>2026-05-01T16:36:38Z</time></trkpt><trkpt lat="45.73075892228666" lon="10.434474256920693"><ele>342.0</ele><time>2026-05-01T16:36:39Z</time></trkpt><trkpt lat="45.730607285203206" lon="10.434541360034956"><ele>342.0</ele><time>2026-05-01T16:36:40Z</time></trkpt><trkpt lat="45.73045293305689" lon="10.434545770466297"><ele>342.0</ele><time>2026-05-01T16:36:41Z</time></trkpt><trkpt lat="45.7302939921878" lon="10.43453672474125"><ele>342.0</ele><time>2026-05-01T16:36:42Z</time></trkpt><trkpt lat="45.73013070301823" lon="10.434432289243471"><ele>341.0</ele><time>2026-05-01T16:36:43Z</time></trkpt><trkpt lat="45.729966510597414" lon="10.434338897967868"><ele>340.0</ele><time>2026-05-01T16:36:44Z</time></trkpt><trkpt lat="45.72981247725604" lon="10.43426140242856"><ele>339.0</ele><time>2026-05-01T16:36:45Z</time></trkpt><trkpt lat="45.729672347574905" lon="10.434187306449338"><ele>339.0</ele><time>2026-05-01T16:36:46Z</time></trkpt><trkpt lat="45.72954382713154" lon="10.434087978534226"><ele>339.0</ele><time>2026-05-01T16:36:47Z</time></trkpt><trkpt lat="45.72943668448622" lon="10.433964461655385"><ele>339.0</ele><time>2026-05-01T16:36:48Z</time></trkpt><trkpt lat="45.72934514721285" lon="10.433828098269771"><ele>339.0</ele><time>2026-05-01T16:36:49Z</time></trkpt><trkpt lat="45.72925708785418" lon="10.433673134911173"><ele>339.3333333333333</ele><time>2026-05-01T16:36:50Z</time></trkpt><trkpt lat="45.72916455549261" lon="10.433452281798113"><ele>339.66666666666663</ele><time>2026-05-01T16:36:51Z</time></trkpt><trkpt lat="45.72903649941553" lon="10.433205660151074"><ele>340.0</ele><time>2026-05-01T16:36:52Z</time></trkpt><trkpt lat="45.72887800655149" lon="10.432961717205648"><ele>339.3333333333333</ele><time>2026-05-01T16:36:53Z</time></trkpt><trkpt lat="45.728732693541744" lon="10.432740591908459"><ele>338.6666666666667</ele><time>2026-05-01T16:36:54Z</time></trkpt><trkpt lat="45.728591380717795" lon="10.432584339793879"><ele>338.0</ele><time>2026-05-01T16:36:55Z</time></trkpt><trkpt lat="45.728442549231175" lon="10.432473956811865"><ele>338.0</ele><time>2026-05-01T16:36:56Z</time></trkpt><trkpt lat="45.72828917572254" lon="10.432416662848729"><ele>338.0</ele><time>2026-05-01T16:36:57Z</time></trkpt><trkpt lat="45.72811343522722" lon="10.432426701366163"><ele>338.0</ele><time>2026-05-01T16:36:58Z</time></trkpt><trkpt lat="45.72795322112505" lon="10.432512049994596"><ele>338.0</ele><time>2026-05-01T16:36:59Z</time></trkpt><trkpt lat="45.727797494176585" lon="10.432556991921647"><ele>338.0</ele><time>2026-05-01T16:37:00Z</time></trkpt><trkpt lat="45.72765869336515" lon="10.432531760357712"><ele>338.0</ele><time>2026-05-01T16:37:01Z</time></trkpt><trkpt lat="45.72753563415663" lon="10.432390326180514"><ele>335.6666666666667</ele><time>2026-05-01T16:37:02Z</time></trkpt><trkpt lat="45.727384840277544" lon="10.432233982602593"><ele>333.3333333333333</ele><time>2026-05-01T16:37:03Z</time></trkpt><trkpt lat="45.72720747230047" lon="10.432041391436162"><ele>331.0</ele><time>2026-05-01T16:37:04Z</time></trkpt><trkpt lat="45.727016066840186" lon="10.431820609678171"><ele>329.5</ele><time>2026-05-01T16:37:05Z</time></trkpt><trkpt lat="45.72681927002269" lon="10.431592491060279"><ele>328.0</ele><time>2026-05-01T16:37:06Z</time></trkpt><trkpt lat="45.726620399859314" lon="10.431351926079774"><ele>331.5</ele><time>2026-05-01T16:37:07Z</time></trkpt><trkpt lat="45.726418294539776" lon="10.431096211395722"><ele>335.0</ele><time>2026-05-01T16:37:08Z</time></trkpt><trkpt lat="45.72622356131575" lon="10.430827240051174"><ele>334.5</ele><time>2026-05-01T16:37:09Z</time></trkpt><trkpt lat="45.72602975944277" lon="10.430569285082603"><ele>334.0</ele><time>2026-05-01T16:37:10Z</time></trkpt><trkpt lat="45.7258388317995" lon="10.430311872573032"><ele>334.0</ele><time>2026-05-01T16:37:11Z</time></trkpt><trkpt lat="45.72565620022941" lon="10.430057466282658"><ele>334.0</ele><time>2026-05-01T16:37:12Z</time></trkpt><trkpt lat="45.725476820744184" lon="10.42981775310806"><ele>334.0</ele><time>2026-05-01T16:37:13Z</time></trkpt><trkpt lat="45.72530645180969" lon="10.429586116124952"><ele>334.0</ele><time>2026-05-01T16:37:14Z</time></trkpt><trkpt lat="45.72515047224953" lon="10.429361445359593"><ele>334.0</ele><time>2026-05-01T16:37:15Z</time></trkpt><trkpt lat="45.72500087374229" lon="10.429118883593821"><ele>334.0</ele><time>2026-05-01T16:37:16Z</time></trkpt><trkpt lat="45.72487680401245" lon="10.42885609109658"><ele>334.0</ele><time>2026-05-01T16:37:17Z</time></trkpt><trkpt lat="45.72476216932999" lon="10.428586018053839"><ele>334.0</ele><time>2026-05-01T16:37:18Z</time></trkpt><trkpt lat="45.724630458508905" lon="10.428329121558043"><ele>334.0</ele><time>2026-05-01T16:37:19Z</time></trkpt><trkpt lat="45.7244776510005" lon="10.4280929709906"><ele>334.0</ele><time>2026-05-01T16:37:20Z</time></trkpt><trkpt lat="45.72430681223442" lon="10.427872764781391"><ele>334.0</ele><time>2026-05-01T16:37:21Z</time></trkpt><trkpt lat="45.72414149972777" lon="10.427650936761264"><ele>334.0</ele><time>2026-05-01T16:37:22Z</time></trkpt><trkpt lat="45.72398432483827" lon="10.427429916144375"><ele>334.0</ele><time>2026-05-01T16:37:23Z</time></trkpt><trkpt lat="45.72383404627999" lon="10.427221826591207"><ele>333.3333333333333</ele><time>2026-05-01T16:37:24Z</time></trkpt><trkpt lat="45.72367480834825" lon="10.42702954550778"><ele>332.6666666666667</ele><time>2026-05-01T16:37:25Z</time></trkpt><trkpt lat="45.723512417473884" lon="10.426841194627064"><ele>332.0</ele><time>2026-05-01T16:37:26Z</time></trkpt><trkpt lat="45.7233665170828" lon="10.426648956503259"><ele>332.0</ele><time>2026-05-01T16:37:27Z</time></trkpt><trkpt lat="45.72322567345216" lon="10.426456465522774"><ele>332.0</ele><time>2026-05-01T16:37:28Z</time></trkpt><trkpt lat="45.72309788648728" lon="10.42624434928786"><ele>332.0</ele><time>2026-05-01T16:37:29Z</time></trkpt><trkpt lat="45.72297777119263" lon="10.426021784882877"><ele>331.0</ele><time>2026-05-01T16:37:30Z</time></trkpt><trkpt lat="45.72287280461897" lon="10.425806363710286"><ele>330.0</ele><time>2026-05-01T16:37:31Z</time></trkpt><trkpt lat="45.72277217709063" lon="10.425607034447594"><ele>329.0</ele><time>2026-05-01T16:37:32Z</time></trkpt><trkpt lat="45.72267566177238" lon="10.4254323217827"><ele>329.0</ele><time>2026-05-01T16:37:33Z</time></trkpt><trkpt lat="45.72259762105203" lon="10.425280007026693"><ele>329.0</ele><time>2026-05-01T16:37:34Z</time></trkpt><trkpt lat="45.72253211089866" lon="10.425150918714348"><ele>329.0</ele><time>2026-05-01T16:37:35Z</time></trkpt><trkpt lat="45.722469771254474" lon="10.425026903786556"><ele>329.0</ele><time>2026-05-01T16:37:36Z</time></trkpt><trkpt lat="45.72239698014944" lon="10.424894430194195"><ele>329.0</ele><time>2026-05-01T16:37:37Z</time></trkpt><trkpt lat="45.72231325602275" lon="10.424770620928834"><ele>329.0</ele><time>2026-05-01T16:37:38Z</time></trkpt><trkpt lat="45.72221441230101" lon="10.424662835097404"><ele>329.0</ele><time>2026-05-01T16:37:39Z</time></trkpt><trkpt lat="45.722115548499815" lon="10.424561689281255"><ele>329.0</ele><time>2026-05-01T16:37:40Z</time></trkpt><trkpt lat="45.7220254160142" lon="10.424465347047871"><ele>329.2</ele><time>2026-05-01T16:37:41Z</time></trkpt><trkpt lat="45.721942586275134" lon="10.424368282472454"><ele>329.4</ele><time>2026-05-01T16:37:42Z</time></trkpt><trkpt lat="45.72186885666967" lon="10.42427642500952"><ele>329.6</ele><time>2026-05-01T16:37:43Z</time></trkpt><trkpt lat="45.72179367228036" lon="10.42416568309015"><ele>329.8</ele><time>2026-05-01T16:37:44Z</time></trkpt><trkpt lat="45.72171890639241" lon="10.424038397787251"><ele>330.0</ele><time>2026-05-01T16:37:45Z</time></trkpt><trkpt lat="45.721654020658676" lon="10.423910334661024"><ele>329.5</ele><time>2026-05-01T16:37:46Z</time></trkpt><trkpt lat="45.72159874983534" lon="10.423779933389598"><ele>329.0</ele><time>2026-05-01T16:37:47Z</time></trkpt><trkpt lat="45.72154833825061" lon="10.42364064569593"><ele>328.5</ele><time>2026-05-01T16:37:48Z</time></trkpt><trkpt lat="45.72150950137865" lon="10.423482020103952"><ele>328.0</ele><time>2026-05-01T16:37:49Z</time></trkpt><trkpt lat="45.721440768705214" lon="10.42333892553029"><ele>328.0</ele><time>2026-05-01T16:37:50Z</time></trkpt><trkpt lat="45.721373865601485" lon="10.423159352386671"><ele>328.0</ele><time>2026-05-01T16:37:51Z</time></trkpt><trkpt lat="45.72130239582904" lon="10.422920902368206"><ele>328.0</ele><time>2026-05-01T16:37:52Z</time></trkpt><trkpt lat="45.721214699972116" lon="10.422664085020639"><ele>328.3333333333333</ele><time>2026-05-01T16:37:53Z</time></trkpt><trkpt lat="45.72111398862247" lon="10.422420661206647"><ele>328.6666666666667</ele><time>2026-05-01T16:37:54Z</time></trkpt><trkpt lat="45.72103280782806" lon="10.422198986724736"><ele>329.0</ele><time>2026-05-01T16:37:55Z</time></trkpt><trkpt lat="45.720951813391025" lon="10.422004026097255"><ele>329.0</ele><time>2026-05-01T16:37:56Z</time></trkpt><trkpt lat="45.720861632781045" lon="10.421838571251193"><ele>329.0</ele><time>2026-05-01T16:37:57Z</time></trkpt><trkpt lat="45.72076162280008" lon="10.421688948197325"><ele>329.0</ele><time>2026-05-01T16:37:58Z</time></trkpt><trkpt lat="45.72066152055623" lon="10.421559534016263"><ele>329.0</ele><time>2026-05-01T16:37:59Z</time></trkpt><trkpt lat="45.720570628464166" lon="10.421428961646692"><ele>329.6666666666667</ele><time>2026-05-01T16:38:00Z</time></trkpt><trkpt lat="45.7204749785137" lon="10.421290982267704"><ele>330.3333333333333</ele><time>2026-05-01T16:38:01Z</time></trkpt><trkpt lat="45.72036705077833" lon="10.421134130824127"><ele>331.0</ele><time>2026-05-01T16:38:02Z</time></trkpt><trkpt lat="45.72022835976369" lon="10.4209736625872"><ele>331.0</ele><time>2026-05-01T16:38:03Z</time></trkpt><trkpt lat="45.72011518937139" lon="10.420793709336607"><ele>331.0</ele><time>2026-05-01T16:38:04Z</time></trkpt><trkpt lat="45.719991867447845" lon="10.420601256550547"><ele>331.0</ele><time>2026-05-01T16:38:05Z</time></trkpt><trkpt lat="45.71985444463353" lon="10.420402341033059"><ele>332.3333333333333</ele><time>2026-05-01T16:38:06Z</time></trkpt><trkpt lat="45.719715947264916" lon="10.420196297226456"><ele>333.6666666666667</ele><time>2026-05-01T16:38:07Z</time></trkpt><trkpt lat="45.719572714631845" lon="10.419988900687356"><ele>335.0</ele><time>2026-05-01T16:38:08Z</time></trkpt><trkpt lat="45.71942971962923" lon="10.419781939373829"><ele>334.0</ele><time>2026-05-01T16:38:09Z</time></trkpt><trkpt lat="45.71928458404863" lon="10.419565064744388"><ele>333.0</ele><time>2026-05-01T16:38:10Z</time></trkpt><trkpt lat="45.719136434104406" lon="10.419343274963015"><ele>332.0</ele><time>2026-05-01T16:38:11Z</time></trkpt><trkpt lat="45.718980845920356" lon="10.419118064555393"><ele>332.0</ele><time>2026-05-01T16:38:12Z</time></trkpt><trkpt lat="45.71882549371318" lon="10.418891760049"><ele>332.0</ele><time>2026-05-01T16:38:13Z</time></trkpt><trkpt lat="45.718678722736655" lon="10.418678473156275"><ele>332.0</ele><time>2026-05-01T16:38:14Z</time></trkpt><trkpt lat="45.71854521301316" lon="10.418441793582467"><ele>331.33333333333337</ele><time>2026-05-01T16:38:15Z</time></trkpt><trkpt lat="45.71838058021811" lon="10.418237582672692"><ele>330.6666666666667</ele><time>2026-05-01T16:38:16Z</time></trkpt><trkpt lat="45.71822592231833" lon="10.41801394735856"><ele>330.0</ele><time>2026-05-01T16:38:17Z</time></trkpt><trkpt lat="45.71807085943341" lon="10.417786716914936"><ele>335.6666666666667</ele><time>2026-05-01T16:38:18Z</time></trkpt><trkpt lat="45.717921336572324" lon="10.417558990195044"><ele>341.33333333333337</ele><time>2026-05-01T16:38:19Z</time></trkpt><trkpt lat="45.7177798257166" lon="10.417337715204594"><ele>347.0</ele><time>2026-05-01T16:38:20Z</time></trkpt><trkpt lat="45.71764695514198" lon="10.4171389779875"><ele>347.0</ele><time>2026-05-01T16:38:21Z</time></trkpt><trkpt lat="45.717526902565965" lon="10.416961440159502"><ele>347.0</ele><time>2026-05-01T16:38:22Z</time></trkpt><trkpt lat="45.717424441745564" lon="10.416808330573803"><ele>347.0</ele><time>2026-05-01T16:38:23Z</time></trkpt><trkpt lat="45.7173324056727" lon="10.416667461978658"><ele>347.0</ele><time>2026-05-01T16:38:24Z</time></trkpt><trkpt lat="45.71725381936106" lon="10.416544925696806"><ele>347.0</ele><time>2026-05-01T16:38:25Z</time></trkpt><trkpt lat="45.71717549862213" lon="10.416433314718141"><ele>347.0</ele><time>2026-05-01T16:38:26Z</time></trkpt><trkpt lat="45.71710582482295" lon="10.416319565667573"><ele>347.0</ele><time>2026-05-01T16:38:27Z</time></trkpt><trkpt lat="45.71703841455853" lon="10.416199539565035"><ele>347.0</ele><time>2026-05-01T16:38:28Z</time></trkpt><trkpt lat="45.716963684091624" lon="10.41607783973605"><ele>347.83333333333337</ele><time>2026-05-01T16:38:29Z</time></trkpt><trkpt lat="45.716892394113984" lon="10.415973351212497"><ele>348.6666666666667</ele><time>2026-05-01T16:38:30Z</time></trkpt><trkpt lat="45.71683162998414" lon="10.415874724340895"><ele>349.5</ele><time>2026-05-01T16:38:31Z</time></trkpt><trkpt lat="45.716782512594826" lon="10.415783155278955"><ele>350.3333333333333</ele><time>2026-05-01T16:38:32Z</time></trkpt><trkpt lat="45.71675595447632" lon="10.41570111766824"><ele>351.16666666666663</ele><time>2026-05-01T16:38:33Z</time></trkpt><trkpt lat="45.716747674743374" lon="10.415541517710299"><ele>352.0</ele><time>2026-05-01T16:38:35Z</time></trkpt><trkpt lat="45.71673815718924" lon="10.415424339103652"><ele>352.0</ele><time>2026-05-01T16:38:37Z</time></trkpt><trkpt lat="45.71664318974708" lon="10.415332745101342"><ele>352.0</ele><time>2026-05-01T16:38:39Z</time></trkpt><trkpt lat="45.716558800960236" lon="10.415310737887358"><ele>352.0</ele><time>2026-05-01T16:38:40Z</time></trkpt><trkpt lat="45.71647467244558" lon="10.415271396982636"><ele>352.0</ele><time>2026-05-01T16:38:41Z</time></trkpt><trkpt lat="45.71638829956898" lon="10.415183360334016"><ele>352.0</ele><time>2026-05-01T16:38:42Z</time></trkpt><trkpt lat="45.71630221745755" lon="10.415061351641066"><ele>352.0</ele><time>2026-05-01T16:38:43Z</time></trkpt><trkpt lat="45.71619974896445" lon="10.414915171238274"><ele>352.0</ele><time>2026-05-01T16:38:44Z</time></trkpt><trkpt lat="45.71608611059625" lon="10.414754753709708"><ele>352.0</ele><time>2026-05-01T16:38:45Z</time></trkpt><trkpt lat="45.715972605108114" lon="10.414583516934407"><ele>347.3333333333333</ele><time>2026-05-01T16:38:46Z</time></trkpt><trkpt lat="45.71585267130969" lon="10.414409255438482"><ele>342.6666666666667</ele><time>2026-05-01T16:38:47Z</time></trkpt><trkpt lat="45.71572831100497" lon="10.414222840045493"><ele>338.0</ele><time>2026-05-01T16:38:48Z</time></trkpt><trkpt lat="45.715603676660336" lon="10.414033571042575"><ele>338.0</ele><time>2026-05-01T16:38:49Z</time></trkpt><trkpt lat="45.71548831571508" lon="10.413856078755872"><ele>338.0</ele><time>2026-05-01T16:38:50Z</time></trkpt><trkpt lat="45.71537928460393" lon="10.41367835800037"><ele>338.0</ele><time>2026-05-01T16:38:51Z</time></trkpt><trkpt lat="45.71527469166431" lon="10.413522061459988"><ele>337.6666666666667</ele><time>2026-05-01T16:38:52Z</time></trkpt><trkpt lat="45.715167007960524" lon="10.413370666049955"><ele>337.3333333333333</ele><time>2026-05-01T16:38:53Z</time></trkpt><trkpt lat="45.71504546169379" lon="10.41321504847692"><ele>337.0</ele><time>2026-05-01T16:38:54Z</time></trkpt><trkpt lat="45.71490626477957" lon="10.41306487597616"><ele>338.66666666666663</ele><time>2026-05-01T16:38:55Z</time></trkpt><trkpt lat="45.714750936861755" lon="10.412905691854402"><ele>340.3333333333333</ele><time>2026-05-01T16:38:56Z</time></trkpt><trkpt lat="45.714576387025204" lon="10.412770299718154"><ele>342.0</ele><time>2026-05-01T16:38:57Z</time></trkpt><trkpt lat="45.71439067226916" lon="10.412641404695382"><ele>342.0</ele><time>2026-05-01T16:38:58Z</time></trkpt><trkpt lat="45.714200573165684" lon="10.412523030872192"><ele>342.0</ele><time>2026-05-01T16:38:59Z</time></trkpt><trkpt lat="45.71400775696551" lon="10.412409618982561"><ele>342.0</ele><time>2026-05-01T16:39:00Z</time></trkpt><trkpt lat="45.71382830399798" lon="10.412293783040916"><ele>342.0</ele><time>2026-05-01T16:39:01Z</time></trkpt><trkpt lat="45.71365230146441" lon="10.41216118880914"><ele>342.0</ele><time>2026-05-01T16:39:02Z</time></trkpt><trkpt lat="45.71349013942031" lon="10.41198327667449"><ele>342.0</ele><time>2026-05-01T16:39:03Z</time></trkpt><trkpt lat="45.71334504601127" lon="10.411772240367748"><ele>341.3333333333333</ele><time>2026-05-01T16:39:04Z</time></trkpt><trkpt lat="45.71324621386655" lon="10.411500921744542"><ele>340.66666666666663</ele><time>2026-05-01T16:39:05Z</time></trkpt><trkpt lat="45.71314606966963" lon="10.41122602747465"><ele>340.0</ele><time>2026-05-01T16:39:06Z</time></trkpt><trkpt lat="45.713040751730944" lon="10.410949419900618"><ele>340.0</ele><time>2026-05-01T16:39:07Z</time></trkpt><trkpt lat="45.712944957992555" lon="10.410656495403538"><ele>340.0</ele><time>2026-05-01T16:39:08Z</time></trkpt><trkpt lat="45.712844106284294" lon="10.410368347489348"><ele>332.5</ele><time>2026-05-01T16:39:09Z</time></trkpt><trkpt lat="45.712737250137295" lon="10.41007067394513"><ele>325.0</ele><time>2026-05-01T16:39:10Z</time></trkpt><trkpt lat="45.712631159766346" lon="10.409771758043687"><ele>328.5</ele><time>2026-05-01T16:39:11Z</time></trkpt><trkpt lat="45.71252624273644" lon="10.409465968121888"><ele>332.0</ele><time>2026-05-01T16:39:12Z</time></trkpt><trkpt lat="45.71241784359884" lon="10.409163918864715"><ele>332.0</ele><time>2026-05-01T16:39:13Z</time></trkpt><trkpt lat="45.71231513672192" lon="10.40886488598449"><ele>332.0</ele><time>2026-05-01T16:39:14Z</time></trkpt><trkpt lat="45.71221896257425" lon="10.408582220877399"><ele>332.0</ele><time>2026-05-01T16:39:15Z</time></trkpt><trkpt lat="45.712122649276054" lon="10.40829282632274"><ele>332.0</ele><time>2026-05-01T16:39:16Z</time></trkpt><trkpt lat="45.71202775436041" lon="10.408007587922858"><ele>332.0</ele><time>2026-05-01T16:39:17Z</time></trkpt><trkpt lat="45.71193059485422" lon="10.40772188672626"><ele>330.6666666666667</ele><time>2026-05-01T16:39:18Z</time></trkpt><trkpt lat="45.71182301557158" lon="10.407445328504668"><ele>329.3333333333333</ele><time>2026-05-01T16:39:19Z</time></trkpt><trkpt lat="45.711709718045995" lon="10.407187735766904"><ele>328.0</ele><time>2026-05-01T16:39:20Z</time></trkpt><trkpt lat="45.71158444807163" lon="10.406952262249144"><ele>328.0</ele><time>2026-05-01T16:39:21Z</time></trkpt><trkpt lat="45.71145359224354" lon="10.406737180512682"><ele>328.0</ele><time>2026-05-01T16:39:22Z</time></trkpt><trkpt lat="45.71132492762071" lon="10.406532704282506"><ele>328.0</ele><time>2026-05-01T16:39:23Z</time></trkpt><trkpt lat="45.71119467332266" lon="10.40634355070081"><ele>325.66666666666663</ele><time>2026-05-01T16:39:24Z</time></trkpt><trkpt lat="45.71107096188898" lon="10.406167725236372"><ele>323.3333333333333</ele><time>2026-05-01T16:39:25Z</time></trkpt><trkpt lat="45.71096200685568" lon="10.406007463019673"><ele>321.0</ele><time>2026-05-01T16:39:26Z</time></trkpt><trkpt lat="45.71085050146868" lon="10.405866212388917"><ele>321.0</ele><time>2026-05-01T16:39:27Z</time></trkpt><trkpt lat="45.7107457893634" lon="10.405732782882149"><ele>321.0</ele><time>2026-05-01T16:39:28Z</time></trkpt><trkpt lat="45.71063573629607" lon="10.405621778753874"><ele>321.0</ele><time>2026-05-01T16:39:29Z</time></trkpt><trkpt lat="45.71052623497387" lon="10.405537557830074"><ele>321.0</ele><time>2026-05-01T16:39:30Z</time></trkpt><trkpt lat="45.71039612657936" lon="10.405463295848671"><ele>320.25</ele><time>2026-05-01T16:39:31Z</time></trkpt><trkpt lat="45.71026493915586" lon="10.405401502777327"><ele>319.5</ele><time>2026-05-01T16:39:32Z</time></trkpt><trkpt lat="45.710131182695754" lon="10.405356634515014"><ele>318.75</ele><time>2026-05-01T16:39:33Z</time></trkpt><trkpt lat="45.7099994885109" lon="10.405322607694695"><ele>318.0</ele><time>2026-05-01T16:39:34Z</time></trkpt><trkpt lat="45.70987774177721" lon="10.40528729720388"><ele>318.0</ele><time>2026-05-01T16:39:35Z</time></trkpt><trkpt lat="45.70975173051053" lon="10.405250719037701"><ele>318.0</ele><time>2026-05-01T16:39:36Z</time></trkpt><trkpt lat="45.70961731750283" lon="10.405216372767686"><ele>318.0</ele><time>2026-05-01T16:39:37Z</time></trkpt><trkpt lat="45.70947689641462" lon="10.405178401274016"><ele>318.0</ele><time>2026-05-01T16:39:38Z</time></trkpt><trkpt lat="45.70934183638418" lon="10.405132917703536"><ele>318.0</ele><time>2026-05-01T16:39:39Z</time></trkpt><trkpt lat="45.709212168930954" lon="10.405057896446756"><ele>318.0</ele><time>2026-05-01T16:39:40Z</time></trkpt><trkpt lat="45.7090894714893" lon="10.4049503676528"><ele>318.0</ele><time>2026-05-01T16:39:41Z</time></trkpt><trkpt lat="45.70897281133124" lon="10.404808275637638"><ele>318.0</ele><time>2026-05-01T16:39:42Z</time></trkpt><trkpt lat="45.708865586797" lon="10.404645913760069"><ele>318.3333333333333</ele><time>2026-05-01T16:39:43Z</time></trkpt><trkpt lat="45.708765965761295" lon="10.404458723108316"><ele>318.66666666666663</ele><time>2026-05-01T16:39:44Z</time></trkpt><trkpt lat="45.70867785893372" lon="10.40425779944511"><ele>319.0</ele><time>2026-05-01T16:39:45Z</time></trkpt><trkpt lat="45.70859317305938" lon="10.404050943744961"><ele>318.3333333333333</ele><time>2026-05-01T16:39:46Z</time></trkpt><trkpt lat="45.70850570545682" lon="10.403844658185704"><ele>317.6666666666667</ele><time>2026-05-01T16:39:47Z</time></trkpt><trkpt lat="45.7084221363997" lon="10.403645867436524"><ele>317.0</ele><time>2026-05-01T16:39:48Z</time></trkpt><trkpt lat="45.708339394004376" lon="10.40345210304519"><ele>316.6666666666667</ele><time>2026-05-01T16:39:49Z</time></trkpt><trkpt lat="45.70825300015966" lon="10.40325671983911"><ele>316.3333333333333</ele><time>2026-05-01T16:39:50Z</time></trkpt><trkpt lat="45.708172680762836" lon="10.40307198907516"><ele>316.0</ele><time>2026-05-01T16:39:51Z</time></trkpt><trkpt lat="45.70809570563625" lon="10.402893535585253"><ele>315.75</ele><time>2026-05-01T16:39:52Z</time></trkpt><trkpt lat="45.70802141964354" lon="10.402717438119206"><ele>315.5</ele><time>2026-05-01T16:39:53Z</time></trkpt><trkpt lat="45.707953819854126" lon="10.402556351689368"><ele>315.25</ele><time>2026-05-01T16:39:54Z</time></trkpt><trkpt lat="45.70788726553925" lon="10.402388603632717"><ele>315.0</ele><time>2026-05-01T16:39:55Z</time></trkpt><trkpt lat="45.70780877241627" lon="10.40221685228474"><ele>314.6666666666667</ele><time>2026-05-01T16:39:56Z</time></trkpt><trkpt lat="45.70772494738769" lon="10.402039542840438"><ele>314.33333333333337</ele><time>2026-05-01T16:39:57Z</time></trkpt><trkpt lat="45.70763233151033" lon="10.401856058340563"><ele>314.0</ele><time>2026-05-01T16:39:58Z</time></trkpt><trkpt lat="45.707524755322865" lon="10.401662314166778"><ele>314.0</ele><time>2026-05-01T16:39:59Z</time></trkpt><trkpt lat="45.70740699473891" lon="10.401460692158333"><ele>314.0</ele><time>2026-05-01T16:40:00Z</time></trkpt><trkpt lat="45.707291864953326" lon="10.40124794214724"><ele>314.0</ele><time>2026-05-01T16:40:01Z</time></trkpt><trkpt lat="45.70719803079548" lon="10.401022181896444"><ele>315.0</ele><time>2026-05-01T16:40:02Z</time></trkpt><trkpt lat="45.7070893210302" lon="10.400842390854798"><ele>316.0</ele><time>2026-05-01T16:40:03Z</time></trkpt><trkpt lat="45.70700275719217" lon="10.40066086743744"><ele>317.0</ele><time>2026-05-01T16:40:04Z</time></trkpt><trkpt lat="45.70692230813461" lon="10.400494121114207"><ele>317.0</ele><time>2026-05-01T16:40:05Z</time></trkpt><trkpt lat="45.70685740260094" lon="10.40033908225918"><ele>317.0</ele><time>2026-05-01T16:40:06Z</time></trkpt><trkpt lat="45.70679617498794" lon="10.400200612002605"><ele>317.0</ele><time>2026-05-01T16:40:07Z</time></trkpt><trkpt lat="45.70673171521619" lon="10.400056312964058"><ele>317.0</ele><time>2026-05-01T16:40:08Z</time></trkpt><trkpt lat="45.70666133378643" lon="10.399871664642239"><ele>318.33333333333337</ele><time>2026-05-01T16:40:09Z</time></trkpt><trkpt lat="45.706565409907455" lon="10.399661095401118"><ele>319.6666666666667</ele><time>2026-05-01T16:40:10Z</time></trkpt><trkpt lat="45.70644170286162" lon="10.39942211046054"><ele>321.0</ele><time>2026-05-01T16:40:11Z</time></trkpt><trkpt lat="45.7063370083833" lon="10.399142011190289"><ele>321.0</ele><time>2026-05-01T16:40:12Z</time></trkpt><trkpt lat="45.706239779936034" lon="10.398844928324555"><ele>321.0</ele><time>2026-05-01T16:40:13Z</time></trkpt><trkpt lat="45.70616087413289" lon="10.39854728021265"><ele>317.5</ele><time>2026-05-01T16:40:14Z</time></trkpt><trkpt lat="45.70609908004551" lon="10.39823768119738"><ele>314.0</ele><time>2026-05-01T16:40:15Z</time></trkpt><trkpt lat="45.70604775088947" lon="10.39792327518564"><ele>314.0</ele><time>2026-05-01T16:40:16Z</time></trkpt><trkpt lat="45.70599860754453" lon="10.397605951883184"><ele>314.0</ele><time>2026-05-01T16:40:17Z</time></trkpt><trkpt lat="45.70594437155171" lon="10.397285502460115"><ele>313.5</ele><time>2026-05-01T16:40:18Z</time></trkpt><trkpt lat="45.7058876653" lon="10.39697438957922"><ele>313.0</ele><time>2026-05-01T16:40:19Z</time></trkpt><trkpt lat="45.705827246562336" lon="10.396653435016919"><ele>313.0</ele><time>2026-05-01T16:40:20Z</time></trkpt><trkpt lat="45.70576643490997" lon="10.39634344115146"><ele>313.0</ele><time>2026-05-01T16:40:21Z</time></trkpt><trkpt lat="45.7056989664636" lon="10.396035019542753"><ele>315.0</ele><time>2026-05-01T16:40:22Z</time></trkpt><trkpt lat="45.705628638238224" lon="10.39573495454306"><ele>317.0</ele><time>2026-05-01T16:40:23Z</time></trkpt><trkpt lat="45.70554664709071" lon="10.395441505324502"><ele>319.0</ele><time>2026-05-01T16:40:24Z</time></trkpt><trkpt lat="45.70545500979992" lon="10.395166036461314"><ele>321.0</ele><time>2026-05-01T16:40:25Z</time></trkpt><trkpt lat="45.70536148557977" lon="10.39491016880322"><ele>323.0</ele><time>2026-05-01T16:40:26Z</time></trkpt><trkpt lat="45.70527696192818" lon="10.394659068359974"><ele>325.0</ele><time>2026-05-01T16:40:27Z</time></trkpt><trkpt lat="45.70522415103773" lon="10.394401678305291"><ele>322.66666666666663</ele><time>2026-05-01T16:40:28Z</time></trkpt><trkpt lat="45.70517635208889" lon="10.394155803848212"><ele>320.3333333333333</ele><time>2026-05-01T16:40:29Z</time></trkpt><trkpt lat="45.70512702240391" lon="10.393902439478806"><ele>318.0</ele><time>2026-05-01T16:40:30Z</time></trkpt><trkpt lat="45.70507910451984" lon="10.393649140061015"><ele>318.0</ele><time>2026-05-01T16:40:31Z</time></trkpt><trkpt lat="45.705015810459535" lon="10.393401784481654"><ele>318.0</ele><time>2026-05-01T16:40:32Z</time></trkpt><trkpt lat="45.70496780327243" lon="10.393151099411151"><ele>318.0</ele><time>2026-05-01T16:40:33Z</time></trkpt><trkpt lat="45.704933223184646" lon="10.392890217376513"><ele>319.6666666666667</ele><time>2026-05-01T16:40:34Z</time></trkpt><trkpt lat="45.704883589368876" lon="10.392636434348315"><ele>321.33333333333337</ele><time>2026-05-01T16:40:35Z</time></trkpt><trkpt lat="45.704833861978074" lon="10.39237601203832"><ele>323.0</ele><time>2026-05-01T16:40:36Z</time></trkpt><trkpt lat="45.70476576152107" lon="10.392126270526033"><ele>324.33333333333337</ele><time>2026-05-01T16:40:37Z</time></trkpt><trkpt lat="45.70471783202429" lon="10.391864400032913"><ele>325.6666666666667</ele><time>2026-05-01T16:40:38Z</time></trkpt><trkpt lat="45.70466922402236" lon="10.391610106192658"><ele>327.0</ele><time>2026-05-01T16:40:39Z</time></trkpt><trkpt lat="45.704618797717856" lon="10.391372639042842"><ele>328.3333333333333</ele><time>2026-05-01T16:40:40Z</time></trkpt><trkpt lat="45.70456965222932" lon="10.391136392954639"><ele>329.66666666666663</ele><time>2026-05-01T16:40:41Z</time></trkpt><trkpt lat="45.70451967291531" lon="10.390884806923259"><ele>331.0</ele><time>2026-05-01T16:40:42Z</time></trkpt><trkpt lat="45.704474023812885" lon="10.390629399858694"><ele>329.0</ele><time>2026-05-01T16:40:43Z</time></trkpt><trkpt lat="45.704425970994336" lon="10.390389958160364"><ele>327.0</ele><time>2026-05-01T16:40:44Z</time></trkpt><trkpt lat="45.70438099426063" lon="10.390154834934572"><ele>325.0</ele><time>2026-05-01T16:40:45Z</time></trkpt><trkpt lat="45.70436084065056" lon="10.389923325384059"><ele>319.66666666666663</ele><time>2026-05-01T16:40:46Z</time></trkpt><trkpt lat="45.70429298790539" lon="10.389722614220252"><ele>314.3333333333333</ele><time>2026-05-01T16:40:47Z</time></trkpt><trkpt lat="45.7042397587541" lon="10.389509185751242"><ele>309.0</ele><time>2026-05-01T16:40:48Z</time></trkpt><trkpt lat="45.70418456450249" lon="10.38932875423109"><ele>308.75</ele><time>2026-05-01T16:40:49Z</time></trkpt><trkpt lat="45.704120924118456" lon="10.389162330237237"><ele>308.5</ele><time>2026-05-01T16:40:50Z</time></trkpt><trkpt lat="45.70405494834767" lon="10.38900563546593"><ele>308.25</ele><time>2026-05-01T16:40:51Z</time></trkpt><trkpt lat="45.70399304017028" lon="10.388861929687913"><ele>308.0</ele><time>2026-05-01T16:40:52Z</time></trkpt><trkpt lat="45.70393208085203" lon="10.388722824106397"><ele>308.75</ele><time>2026-05-01T16:40:53Z</time></trkpt><trkpt lat="45.70386814863075" lon="10.388584434270372"><ele>309.5</ele><time>2026-05-01T16:40:54Z</time></trkpt><trkpt lat="45.70380316575155" lon="10.388445793435041"><ele>310.25</ele><time>2026-05-01T16:40:55Z</time></trkpt><trkpt lat="45.7037571568739" lon="10.388297197402098"><ele>311.0</ele><time>2026-05-01T16:40:56Z</time></trkpt><trkpt lat="45.70368780522261" lon="10.388181844456563"><ele>311.0</ele><time>2026-05-01T16:40:57Z</time></trkpt><trkpt lat="45.70363264127492" lon="10.388057294980365"><ele>311.0</ele><time>2026-05-01T16:40:58Z</time></trkpt><trkpt lat="45.703589445361324" lon="10.387919701190082"><ele>311.0</ele><time>2026-05-01T16:40:59Z</time></trkpt><trkpt lat="45.70351600332348" lon="10.38777466794063"><ele>311.0</ele><time>2026-05-01T16:41:00Z</time></trkpt><trkpt lat="45.703412394481724" lon="10.387658853268693"><ele>310.2</ele><time>2026-05-01T16:41:01Z</time></trkpt><trkpt lat="45.703325220574804" lon="10.3875413038126"><ele>309.40000000000003</ele><time>2026-05-01T16:41:02Z</time></trkpt><trkpt lat="45.70323766232038" lon="10.38745321675508"><ele>308.6</ele><time>2026-05-01T16:41:03Z</time></trkpt><trkpt lat="45.70316090692777" lon="10.387381554221342"><ele>307.8</ele><time>2026-05-01T16:41:04Z</time></trkpt><trkpt lat="45.70309740000487" lon="10.387323889098447"><ele>307.0</ele><time>2026-05-01T16:41:05Z</time></trkpt><trkpt lat="45.70303989988308" lon="10.387264406306159"><ele>307.0</ele><time>2026-05-01T16:41:06Z</time></trkpt><trkpt lat="45.702980481324005" lon="10.38720882511122"><ele>307.0</ele><time>2026-05-01T16:41:07Z</time></trkpt><trkpt lat="45.702897399036324" lon="10.387127384734962"><ele>307.0</ele><time>2026-05-01T16:41:09Z</time></trkpt><trkpt lat="45.702822649732674" lon="10.387074896588777"><ele>307.0</ele><time>2026-05-01T16:41:12Z</time></trkpt><trkpt lat="45.70273721960618" lon="10.386999073468822"><ele>307.0</ele><time>2026-05-01T16:41:14Z</time></trkpt><trkpt lat="45.702641328831476" lon="10.386983883552537"><ele>307.5</ele><time>2026-05-01T16:41:16Z</time></trkpt><trkpt lat="45.70254283191909" lon="10.386980807158519"><ele>308.0</ele><time>2026-05-01T16:41:18Z</time></trkpt><trkpt lat="45.70241989072891" lon="10.3869842644261"><ele>308.5</ele><time>2026-05-01T16:41:20Z</time></trkpt><trkpt lat="45.702313440871286" lon="10.386948700950056"><ele>309.0</ele><time>2026-05-01T16:41:22Z</time></trkpt><trkpt lat="45.702212484099725" lon="10.38684890870605"><ele>309.0</ele><time>2026-05-01T16:41:24Z</time></trkpt><trkpt lat="45.702114669587914" lon="10.386775314415873"><ele>309.0</ele><time>2026-05-01T16:41:26Z</time></trkpt><trkpt lat="45.70205180974195" lon="10.386785040473848"><ele>309.0</ele><time>2026-05-01T16:41:27Z</time></trkpt><trkpt lat="45.70197069403324" lon="10.386906751098508"><ele>309.0</ele><time>2026-05-01T16:41:29Z</time></trkpt><trkpt lat="45.70195952716322" lon="10.387008863744937"><ele>309.0</ele><time>2026-05-01T16:41:30Z</time></trkpt><trkpt lat="45.701939231449714" lon="10.387109674451374"><ele>309.0</ele><time>2026-05-01T16:41:31Z</time></trkpt><trkpt lat="45.701902612525195" lon="10.387201117984256"><ele>308.8333333333333</ele><time>2026-05-01T16:41:32Z</time></trkpt><trkpt lat="45.7018613503578" lon="10.38727623368091"><ele>308.6666666666667</ele><time>2026-05-01T16:41:33Z</time></trkpt><trkpt lat="45.70181248783128" lon="10.387344081074144"><ele>308.5</ele><time>2026-05-01T16:41:34Z</time></trkpt><trkpt lat="45.701744847063374" lon="10.387417316540178"><ele>308.33333333333337</ele><time>2026-05-01T16:41:35Z</time></trkpt><trkpt lat="45.70166757813104" lon="10.387483448185016"><ele>308.1666666666667</ele><time>2026-05-01T16:41:36Z</time></trkpt><trkpt lat="45.701582344438705" lon="10.387540936468408"><ele>308.0</ele><time>2026-05-01T16:41:37Z</time></trkpt><trkpt lat="45.701492811680744" lon="10.387593823327983"><ele>308.0</ele><time>2026-05-01T16:41:38Z</time></trkpt><trkpt lat="45.70139756183514" lon="10.387623509449101"><ele>308.0</ele><time>2026-05-01T16:41:39Z</time></trkpt><trkpt lat="45.701306900746545" lon="10.387687286188406"><ele>308.0</ele><time>2026-05-01T16:41:40Z</time></trkpt><trkpt lat="45.70120801287311" lon="10.387729217182898"><ele>308.0</ele><time>2026-05-01T16:41:41Z</time></trkpt><trkpt lat="45.70110784670864" lon="10.387752608854647"><ele>308.0</ele><time>2026-05-01T16:41:42Z</time></trkpt><trkpt lat="45.70100494430314" lon="10.387764522409332"><ele>307.83333333333337</ele><time>2026-05-01T16:41:43Z</time></trkpt><trkpt lat="45.700916024012535" lon="10.387783379426176"><ele>307.6666666666667</ele><time>2026-05-01T16:41:44Z</time></trkpt><trkpt lat="45.700826089856236" lon="10.387813645165993"><ele>307.5</ele><time>2026-05-01T16:41:45Z</time></trkpt><trkpt lat="45.70074478945967" lon="10.387834671319695"><ele>307.3333333333333</ele><time>2026-05-01T16:41:46Z</time></trkpt><trkpt lat="45.70066497870639" lon="10.387852040380636"><ele>307.16666666666663</ele><time>2026-05-01T16:41:47Z</time></trkpt><trkpt lat="45.700589483476996" lon="10.387872301282902"><ele>307.0</ele><time>2026-05-01T16:41:48Z</time></trkpt><trkpt lat="45.70050640902832" lon="10.38789271574198"><ele>307.0</ele><time>2026-05-01T16:41:49Z</time></trkpt><trkpt lat="45.70041175999094" lon="10.387914317271031"><ele>307.0</ele><time>2026-05-01T16:41:50Z</time></trkpt><trkpt lat="45.70032242756615" lon="10.387940351759699"><ele>307.0</ele><time>2026-05-01T16:41:51Z</time></trkpt><trkpt lat="45.70023213154201" lon="10.387964681977083"><ele>307.0</ele><time>2026-05-01T16:41:52Z</time></trkpt><trkpt lat="45.70013695819968" lon="10.387987980807281"><ele>307.0</ele><time>2026-05-01T16:41:53Z</time></trkpt><trkpt lat="45.700031567025114" lon="10.388016254819677"><ele>306.0</ele><time>2026-05-01T16:41:54Z</time></trkpt><trkpt lat="45.69991732296929" lon="10.388046851318084"><ele>305.0</ele><time>2026-05-01T16:41:55Z</time></trkpt><trkpt lat="45.6998077316041" lon="10.38807293255006"><ele>304.0</ele><time>2026-05-01T16:41:56Z</time></trkpt><trkpt lat="45.69968398896391" lon="10.388101728002365"><ele>303.0</ele><time>2026-05-01T16:41:57Z</time></trkpt><trkpt lat="45.699577739638414" lon="10.388127276079219"><ele>303.0</ele><time>2026-05-01T16:41:58Z</time></trkpt><trkpt lat="45.699477573775866" lon="10.38815337737424"><ele>303.0</ele><time>2026-05-01T16:41:59Z</time></trkpt><trkpt lat="45.6993854839245" lon="10.388178893417535"><ele>303.0</ele><time>2026-05-01T16:42:00Z</time></trkpt><trkpt lat="45.6992945032703" lon="10.388192802895297"><ele>303.0</ele><time>2026-05-01T16:42:01Z</time></trkpt><trkpt lat="45.699208958478735" lon="10.388209136472065"><ele>303.0</ele><time>2026-05-01T16:42:02Z</time></trkpt><trkpt lat="45.69912531188019" lon="10.3882227593777"><ele>303.0</ele><time>2026-05-01T16:42:03Z</time></trkpt><trkpt lat="45.699047916234505" lon="10.38823235318749"><ele>303.0</ele><time>2026-05-01T16:42:04Z</time></trkpt><trkpt lat="45.698973965782386" lon="10.38821573548334"><ele>303.0</ele><time>2026-05-01T16:42:05Z</time></trkpt><trkpt lat="45.69890501605238" lon="10.38816519775288"><ele>303.0</ele><time>2026-05-01T16:42:06Z</time></trkpt><trkpt lat="45.698844510873926" lon="10.388101814771428"><ele>303.0</ele><time>2026-05-01T16:42:07Z</time></trkpt><trkpt lat="45.698779009026275" lon="10.388072899882474"><ele>303.0</ele><time>2026-05-01T16:42:08Z</time></trkpt><trkpt lat="45.69870799944711" lon="10.388096170328552"><ele>303.0</ele><time>2026-05-01T16:42:09Z</time></trkpt><trkpt lat="45.698651528539216" lon="10.388184781652672"><ele>303.0</ele><time>2026-05-01T16:42:10Z</time></trkpt><trkpt lat="45.698596405435325" lon="10.388284756688572"><ele>303.0</ele><time>2026-05-01T16:42:11Z</time></trkpt><trkpt lat="45.698524688293745" lon="10.388358144071843"><ele>303.0</ele><time>2026-05-01T16:42:12Z</time></trkpt><trkpt lat="45.69844563598212" lon="10.388387457444775"><ele>303.0</ele><time>2026-05-01T16:42:13Z</time></trkpt><trkpt lat="45.698348412099946" lon="10.388403538642097"><ele>303.0</ele><time>2026-05-01T16:42:14Z</time></trkpt><trkpt lat="45.69824067345508" lon="10.38841678299724"><ele>303.5</ele><time>2026-05-01T16:42:15Z</time></trkpt><trkpt lat="45.69812570340154" lon="10.38843962909326"><ele>304.0</ele><time>2026-05-01T16:42:16Z</time></trkpt><trkpt lat="45.69799864818314" lon="10.388475596805865"><ele>304.5</ele><time>2026-05-01T16:42:17Z</time></trkpt><trkpt lat="45.69784058030475" lon="10.388516916030978"><ele>305.0</ele><time>2026-05-01T16:42:18Z</time></trkpt><trkpt lat="45.69766331762488" lon="10.388559930293587"><ele>305.0</ele><time>2026-05-01T16:42:19Z</time></trkpt><trkpt lat="45.6975040142048" lon="10.388589191173887"><ele>305.0</ele><time>2026-05-01T16:42:20Z</time></trkpt><trkpt lat="45.69736256040222" lon="10.388616405487353"><ele>305.0</ele><time>2026-05-01T16:42:21Z</time></trkpt><trkpt lat="45.6972236310037" lon="10.388646598480728"><ele>305.0</ele><time>2026-05-01T16:42:22Z</time></trkpt><trkpt lat="45.69709344760667" lon="10.388674043071115"><ele>305.0</ele><time>2026-05-01T16:42:23Z</time></trkpt><trkpt lat="45.696964360126195" lon="10.388714394149341"><ele>305.0</ele><time>2026-05-01T16:42:24Z</time></trkpt><trkpt lat="45.696838561795104" lon="10.388778116985506"><ele>305.0</ele><time>2026-05-01T16:42:25Z</time></trkpt><trkpt lat="45.69671834405191" lon="10.388856857601548"><ele>305.0</ele><time>2026-05-01T16:42:26Z</time></trkpt><trkpt lat="45.69659993903005" lon="10.388961213322123"><ele>304.75</ele><time>2026-05-01T16:42:27Z</time></trkpt><trkpt lat="45.696485575310064" lon="10.389080118141969"><ele>304.5</ele><time>2026-05-01T16:42:28Z</time></trkpt><trkpt lat="45.69637094254325" lon="10.389195592436728"><ele>304.25</ele><time>2026-05-01T16:42:29Z</time></trkpt><trkpt lat="45.696256778929225" lon="10.389307713783856"><ele>304.0</ele><time>2026-05-01T16:42:30Z</time></trkpt><trkpt lat="45.69614366547907" lon="10.38941654513787"><ele>303.25</ele><time>2026-05-01T16:42:31Z</time></trkpt><trkpt lat="45.69603215715193" lon="10.389526474365384"><ele>302.5</ele><time>2026-05-01T16:42:32Z</time></trkpt><trkpt lat="45.695919639276184" lon="10.38963173194716"><ele>301.75</ele><time>2026-05-01T16:42:33Z</time></trkpt><trkpt lat="45.69580507754428" lon="10.38973522942648"><ele>301.0</ele><time>2026-05-01T16:42:34Z</time></trkpt><trkpt lat="45.695684122766366" lon="10.389838894323493"><ele>301.0</ele><time>2026-05-01T16:42:35Z</time></trkpt><trkpt lat="45.69556045878235" lon="10.389936551377115"><ele>301.0</ele><time>2026-05-01T16:42:36Z</time></trkpt><trkpt lat="45.695430800372044" lon="10.39001664376156"><ele>301.0</ele><time>2026-05-01T16:42:37Z</time></trkpt><trkpt lat="45.69529585549449" lon="10.390083401128697"><ele>301.0</ele><time>2026-05-01T16:42:38Z</time></trkpt><trkpt lat="45.69515611111986" lon="10.390155227004435"><ele>303.3333333333333</ele><time>2026-05-01T16:42:39Z</time></trkpt><trkpt lat="45.695020311741025" lon="10.390243288089199"><ele>305.6666666666667</ele><time>2026-05-01T16:42:40Z</time></trkpt><trkpt lat="45.69488637826243" lon="10.390343601448471"><ele>308.0</ele><time>2026-05-01T16:42:41Z</time></trkpt><trkpt lat="45.69475082392633" lon="10.390446699457264"><ele>306.33333333333337</ele><time>2026-05-01T16:42:42Z</time></trkpt><trkpt lat="45.694613496006646" lon="10.390547126902874"><ele>304.6666666666667</ele><time>2026-05-01T16:42:43Z</time></trkpt><trkpt lat="45.69447197251423" lon="10.39065201015016"><ele>303.0</ele><time>2026-05-01T16:42:44Z</time></trkpt><trkpt lat="45.69433101408768" lon="10.390752591726441"><ele>303.0</ele><time>2026-05-01T16:42:45Z</time></trkpt><trkpt lat="45.69418801387901" lon="10.390850067561358"><ele>303.0</ele><time>2026-05-01T16:42:46Z</time></trkpt><trkpt lat="45.69403995156418" lon="10.390917097263703"><ele>303.0</ele><time>2026-05-01T16:42:47Z</time></trkpt><trkpt lat="45.69389439465536" lon="10.39099254385337"><ele>303.0</ele><time>2026-05-01T16:42:48Z</time></trkpt><trkpt lat="45.69374510721125" lon="10.391079095094664"><ele>303.0</ele><time>2026-05-01T16:42:49Z</time></trkpt><trkpt lat="45.693596150099836" lon="10.391140360147183"><ele>303.0</ele><time>2026-05-01T16:42:50Z</time></trkpt><trkpt lat="45.6934497910235" lon="10.391201634272237"><ele>301.6666666666667</ele><time>2026-05-01T16:42:51Z</time></trkpt><trkpt lat="45.6933000873401" lon="10.391273824964042"><ele>300.33333333333337</ele><time>2026-05-01T16:42:52Z</time></trkpt><trkpt lat="45.69315516238897" lon="10.391358121022767"><ele>299.0</ele><time>2026-05-01T16:42:53Z</time></trkpt><trkpt lat="45.69301510417488" lon="10.39146032014413"><ele>299.0</ele><time>2026-05-01T16:42:54Z</time></trkpt><trkpt lat="45.69289350815357" lon="10.391585211408247"><ele>299.0</ele><time>2026-05-01T16:42:55Z</time></trkpt><trkpt lat="45.692779092597014" lon="10.391732997573822"><ele>299.0</ele><time>2026-05-01T16:42:56Z</time></trkpt><trkpt lat="45.69268186287995" lon="10.39189799118065"><ele>300.0</ele><time>2026-05-01T16:42:57Z</time></trkpt><trkpt lat="45.69259993465209" lon="10.392081389584462"><ele>301.0</ele><time>2026-05-01T16:42:58Z</time></trkpt><trkpt lat="45.69252836412759" lon="10.392271878831112"><ele>302.0</ele><time>2026-05-01T16:42:59Z</time></trkpt><trkpt lat="45.692473614729934" lon="10.392477986567314"><ele>302.0</ele><time>2026-05-01T16:43:00Z</time></trkpt><trkpt lat="45.692425353061786" lon="10.392686145001392"><ele>302.0</ele><time>2026-05-01T16:43:01Z</time></trkpt><trkpt lat="45.69237777640287" lon="10.392895902299372"><ele>302.0</ele><time>2026-05-01T16:43:02Z</time></trkpt><trkpt lat="45.692327729823255" lon="10.393106191893978"><ele>299.0</ele><time>2026-05-01T16:43:03Z</time></trkpt><trkpt lat="45.69227267258662" lon="10.393320983772618"><ele>296.0</ele><time>2026-05-01T16:43:04Z</time></trkpt><trkpt lat="45.692218514173135" lon="10.39353444262754"><ele>293.0</ele><time>2026-05-01T16:43:05Z</time></trkpt><trkpt lat="45.69216480774356" lon="10.393755683200924"><ele>293.33333333333337</ele><time>2026-05-01T16:43:06Z</time></trkpt><trkpt lat="45.69209616663453" lon="10.393970979199912"><ele>293.6666666666667</ele><time>2026-05-01T16:43:07Z</time></trkpt><trkpt lat="45.69204017980771" lon="10.394191191592618"><ele>294.0</ele><time>2026-05-01T16:43:08Z</time></trkpt><trkpt lat="45.69200000406624" lon="10.394410325077653"><ele>294.0</ele><time>2026-05-01T16:43:09Z</time></trkpt><trkpt lat="45.691944859563016" lon="10.394628819959733"><ele>294.0</ele><time>2026-05-01T16:43:10Z</time></trkpt><trkpt lat="45.691887746040564" lon="10.394840127318304"><ele>294.0</ele><time>2026-05-01T16:43:11Z</time></trkpt><trkpt lat="45.69181160131291" lon="10.395040134992263"><ele>294.0</ele><time>2026-05-01T16:43:12Z</time></trkpt><trkpt lat="45.69174111542851" lon="10.395234565414878"><ele>294.0</ele><time>2026-05-01T16:43:13Z</time></trkpt><trkpt lat="45.69165842075659" lon="10.395416084991268"><ele>294.0</ele><time>2026-05-01T16:43:14Z</time></trkpt><trkpt lat="45.69157456041672" lon="10.395598051317789"><ele>294.0</ele><time>2026-05-01T16:43:15Z</time></trkpt><trkpt lat="45.69146780397852" lon="10.395757463098805"><ele>294.0</ele><time>2026-05-01T16:43:16Z</time></trkpt><trkpt lat="45.69135948806484" lon="10.395904042042558"><ele>294.0</ele><time>2026-05-01T16:43:17Z</time></trkpt><trkpt lat="45.69124690627846" lon="10.396044479457826"><ele>294.0</ele><time>2026-05-01T16:43:18Z</time></trkpt><trkpt lat="45.691140636070294" lon="10.396170196431061"><ele>294.0</ele><time>2026-05-01T16:43:19Z</time></trkpt><trkpt lat="45.69104129196983" lon="10.396293861074689"><ele>294.0</ele><time>2026-05-01T16:43:20Z</time></trkpt><trkpt lat="45.690946319629376" lon="10.396409365403468"><ele>294.0</ele><time>2026-05-01T16:43:21Z</time></trkpt><trkpt lat="45.69086211059555" lon="10.396512872978194"><ele>295.0</ele><time>2026-05-01T16:43:22Z</time></trkpt><trkpt lat="45.69079069856835" lon="10.396596654858724"><ele>296.0</ele><time>2026-05-01T16:43:23Z</time></trkpt><trkpt lat="45.69073160001287" lon="10.396659900211258"><ele>297.0</ele><time>2026-05-01T16:43:24Z</time></trkpt><trkpt lat="45.69065550730844" lon="10.3967536336697"><ele>298.0</ele><time>2026-05-01T16:43:26Z</time></trkpt><trkpt lat="45.69062109779039" lon="10.396862025328172"><ele>299.0</ele><time>2026-05-01T16:44:21Z</time></trkpt><trkpt lat="45.69053676080079" lon="10.397053862690004"><ele>298.5</ele><time>2026-05-01T16:44:23Z</time></trkpt><trkpt lat="45.6904798813706" lon="10.397182133119395"><ele>298.0</ele><time>2026-05-01T16:44:24Z</time></trkpt><trkpt lat="45.69041611609975" lon="10.397327808377609"><ele>297.5</ele><time>2026-05-01T16:44:25Z</time></trkpt><trkpt lat="45.69034311499372" lon="10.397486566193805"><ele>297.0</ele><time>2026-05-01T16:44:26Z</time></trkpt><trkpt lat="45.69026941750489" lon="10.397652468592067"><ele>297.75</ele><time>2026-05-01T16:44:27Z</time></trkpt><trkpt lat="45.69019146249393" lon="10.397811356361439"><ele>298.5</ele><time>2026-05-01T16:44:28Z</time></trkpt><trkpt lat="45.690112974787425" lon="10.397954073779612"><ele>299.25</ele><time>2026-05-01T16:44:29Z</time></trkpt><trkpt lat="45.690030099804005" lon="10.398080884540612"><ele>300.0</ele><time>2026-05-01T16:44:30Z</time></trkpt><trkpt lat="45.68994538540499" lon="10.398188122055164"><ele>300.0</ele><time>2026-05-01T16:44:31Z</time></trkpt><trkpt lat="45.68986710037832" lon="10.398291611772876"><ele>300.0</ele><time>2026-05-01T16:44:32Z</time></trkpt><trkpt lat="45.68978184115955" lon="10.39837982804507"><ele>300.0</ele><time>2026-05-01T16:44:33Z</time></trkpt><trkpt lat="45.68967763979904" lon="10.398451082533198"><ele>300.0</ele><time>2026-05-01T16:44:34Z</time></trkpt><trkpt lat="45.68956728541605" lon="10.39850693708059"><ele>300.0</ele><time>2026-05-01T16:44:35Z</time></trkpt><trkpt lat="45.68945151495909" lon="10.398550241504468"><ele>302.5</ele><time>2026-05-01T16:44:36Z</time></trkpt><trkpt lat="45.68933197276664" lon="10.398579895598083"><ele>305.0</ele><time>2026-05-01T16:44:37Z</time></trkpt><trkpt lat="45.68920144436089" lon="10.398591180741036"><ele>307.5</ele><time>2026-05-01T16:44:38Z</time></trkpt><trkpt lat="45.689063438778426" lon="10.398596773532418"><ele>310.0</ele><time>2026-05-01T16:44:39Z</time></trkpt><trkpt lat="45.68893098660083" lon="10.398599761892278"><ele>310.0</ele><time>2026-05-01T16:44:40Z</time></trkpt><trkpt lat="45.68879637545681" lon="10.398604898659935"><ele>310.0</ele><time>2026-05-01T16:44:41Z</time></trkpt><trkpt lat="45.688670509682176" lon="10.398610071461682"><ele>310.0</ele><time>2026-05-01T16:44:42Z</time></trkpt><trkpt lat="45.68855907250194" lon="10.398617428931336"><ele>310.0</ele><time>2026-05-01T16:44:43Z</time></trkpt><trkpt lat="45.68845570057384" lon="10.39864439977922"><ele>310.75</ele><time>2026-05-01T16:44:44Z</time></trkpt><trkpt lat="45.688365511644996" lon="10.398725586270745"><ele>311.5</ele><time>2026-05-01T16:44:45Z</time></trkpt><trkpt lat="45.688306148819144" lon="10.398853551547255"><ele>312.25</ele><time>2026-05-01T16:44:46Z</time></trkpt><trkpt lat="45.68827779441724" lon="10.39902975074026"><ele>313.0</ele><time>2026-05-01T16:44:47Z</time></trkpt><trkpt lat="45.688281233279945" lon="10.399215744938664"><ele>308.5</ele><time>2026-05-01T16:44:48Z</time></trkpt><trkpt lat="45.68831374523007" lon="10.399390456585987"><ele>304.0</ele><time>2026-05-01T16:44:49Z</time></trkpt><trkpt lat="45.688353778947445" lon="10.399573041267736"><ele>299.5</ele><time>2026-05-01T16:44:50Z</time></trkpt><trkpt lat="45.688386019983945" lon="10.399715456813107"><ele>295.0</ele><time>2026-05-01T16:44:51Z</time></trkpt><trkpt lat="45.6884115510118" lon="10.399865511747832"><ele>293.8</ele><time>2026-05-01T16:44:52Z</time></trkpt><trkpt lat="45.68844076215542" lon="10.400043688540045"><ele>292.6</ele><time>2026-05-01T16:44:53Z</time></trkpt><trkpt lat="45.688451990335835" lon="10.400224927908948"><ele>291.4</ele><time>2026-05-01T16:44:54Z</time></trkpt><trkpt lat="45.68847204699519" lon="10.400368628203452"><ele>290.2</ele><time>2026-05-01T16:44:55Z</time></trkpt><trkpt lat="45.688472955893126" lon="10.400480578835923"><ele>289.0</ele><time>2026-05-01T16:44:56Z</time></trkpt><trkpt lat="45.6884476232793" lon="10.400586148951286"><ele>294.66666666666663</ele><time>2026-05-01T16:44:57Z</time></trkpt><trkpt lat="45.68835659260211" lon="10.40067302132156"><ele>300.3333333333333</ele><time>2026-05-01T16:44:58Z</time></trkpt><trkpt lat="45.68820015754687" lon="10.400712896405452"><ele>306.0</ele><time>2026-05-01T16:44:59Z</time></trkpt><trkpt lat="45.68801753391822" lon="10.400784570099042"><ele>306.0</ele><time>2026-05-01T16:45:00Z</time></trkpt><trkpt lat="45.687801284001154" lon="10.400852046539537"><ele>306.0</ele><time>2026-05-01T16:45:01Z</time></trkpt><trkpt lat="45.687586049662784" lon="10.401012867479754"><ele>308.0</ele><time>2026-05-01T16:45:02Z</time></trkpt><trkpt lat="45.68735394972236" lon="10.401227587299958"><ele>310.0</ele><time>2026-05-01T16:45:03Z</time></trkpt><trkpt lat="45.68711298078986" lon="10.401440196490412"><ele>302.0</ele><time>2026-05-01T16:45:04Z</time></trkpt><trkpt lat="45.68689764156825" lon="10.401622199219261"><ele>294.0</ele><time>2026-05-01T16:45:05Z</time></trkpt><trkpt lat="45.68669155176376" lon="10.401790247359001"><ele>294.0</ele><time>2026-05-01T16:45:06Z</time></trkpt><trkpt lat="45.6865043915326" lon="10.401954882532163"><ele>294.0</ele><time>2026-05-01T16:45:07Z</time></trkpt><trkpt lat="45.68633001144211" lon="10.402100568825627"><ele>294.0</ele><time>2026-05-01T16:45:08Z</time></trkpt><trkpt lat="45.68613969148846" lon="10.402245597315332"><ele>295.0</ele><time>2026-05-01T16:45:09Z</time></trkpt><trkpt lat="45.6859624294758" lon="10.402399353717596"><ele>296.0</ele><time>2026-05-01T16:45:10Z</time></trkpt><trkpt lat="45.685790116186304" lon="10.40254246568319"><ele>297.0</ele><time>2026-05-01T16:45:11Z</time></trkpt><trkpt lat="45.68562569405525" lon="10.402666543254115"><ele>297.0</ele><time>2026-05-01T16:45:12Z</time></trkpt><trkpt lat="45.685463069339974" lon="10.402780709530997"><ele>297.0</ele><time>2026-05-01T16:45:13Z</time></trkpt><trkpt lat="45.68529993140247" lon="10.402874166187006"><ele>297.0</ele><time>2026-05-01T16:45:14Z</time></trkpt><trkpt lat="45.68514142301199" lon="10.402945949959348"><ele>306.0</ele><time>2026-05-01T16:45:15Z</time></trkpt><trkpt lat="45.68498129988061" lon="10.40300282412219"><ele>315.0</ele><time>2026-05-01T16:45:16Z</time></trkpt><trkpt lat="45.68481396051394" lon="10.403060343799908"><ele>324.0</ele><time>2026-05-01T16:45:17Z</time></trkpt><trkpt lat="45.68464880825165" lon="10.403110015067021"><ele>324.0</ele><time>2026-05-01T16:45:18Z</time></trkpt><trkpt lat="45.684495450140055" lon="10.40315475035421"><ele>324.0</ele><time>2026-05-01T16:45:19Z</time></trkpt><trkpt lat="45.68435097619529" lon="10.403195879258304"><ele>324.0</ele><time>2026-05-01T16:45:20Z</time></trkpt><trkpt lat="45.6842174823639" lon="10.403242958345253"><ele>324.0</ele><time>2026-05-01T16:45:21Z</time></trkpt><trkpt lat="45.68407928633313" lon="10.403283896636912"><ele>317.75</ele><time>2026-05-01T16:45:22Z</time></trkpt><trkpt lat="45.683942652528515" lon="10.403327666539415"><ele>311.5</ele><time>2026-05-01T16:45:23Z</time></trkpt><trkpt lat="45.683811730397295" lon="10.403379112802837"><ele>305.25</ele><time>2026-05-01T16:45:24Z</time></trkpt><trkpt lat="45.68369214575434" lon="10.403427432588412"><ele>299.0</ele><time>2026-05-01T16:45:25Z</time></trkpt><trkpt lat="45.683580438507484" lon="10.403477000196364"><ele>297.4</ele><time>2026-05-01T16:45:26Z</time></trkpt><trkpt lat="45.68348348383701" lon="10.403525490708805"><ele>295.79999999999995</ele><time>2026-05-01T16:45:27Z</time></trkpt><trkpt lat="45.68340319154303" lon="10.403570551943487"><ele>294.20000000000005</ele><time>2026-05-01T16:45:28Z</time></trkpt><trkpt lat="45.68331698460947" lon="10.403632650003148"><ele>292.6</ele><time>2026-05-01T16:45:29Z</time></trkpt><trkpt lat="45.683267616763686" lon="10.403758386909509"><ele>291.0</ele><time>2026-05-01T16:45:30Z</time></trkpt><trkpt lat="45.68318242910884" lon="10.403920572088829"><ele>296.25</ele><time>2026-05-01T16:45:31Z</time></trkpt><trkpt lat="45.6831120460174" lon="10.404071210517737"><ele>301.5</ele><time>2026-05-01T16:45:32Z</time></trkpt><trkpt lat="45.68302865940815" lon="10.404184987973293"><ele>306.75</ele><time>2026-05-01T16:45:33Z</time></trkpt><trkpt lat="45.68294936223935" lon="10.404315369049357"><ele>312.0</ele><time>2026-05-01T16:45:34Z</time></trkpt><trkpt lat="45.68288241364573" lon="10.404455746021645"><ele>312.0</ele><time>2026-05-01T16:45:35Z</time></trkpt><trkpt lat="45.682798488985526" lon="10.404585762906779"><ele>312.0</ele><time>2026-05-01T16:45:36Z</time></trkpt><trkpt lat="45.68271902473353" lon="10.404736097806964"><ele>312.0</ele><time>2026-05-01T16:45:37Z</time></trkpt><trkpt lat="45.68264824014693" lon="10.404914717631568"><ele>312.0</ele><time>2026-05-01T16:45:38Z</time></trkpt><trkpt lat="45.682564190108664" lon="10.405138953608926"><ele>308.3333333333333</ele><time>2026-05-01T16:45:39Z</time></trkpt><trkpt lat="45.682490482188626" lon="10.405429756908383"><ele>304.66666666666663</ele><time>2026-05-01T16:45:40Z</time></trkpt><trkpt lat="45.68242311994528" lon="10.405740384251066"><ele>301.0</ele><time>2026-05-01T16:45:41Z</time></trkpt><trkpt lat="45.68235989694325" lon="10.406056710714292"><ele>301.0</ele><time>2026-05-01T16:45:42Z</time></trkpt><trkpt lat="45.68229262154067" lon="10.406336991510518"><ele>301.0</ele><time>2026-05-01T16:45:43Z</time></trkpt><trkpt lat="45.68221126127888" lon="10.406589038844748"><ele>301.0</ele><time>2026-05-01T16:45:44Z</time></trkpt><trkpt lat="45.68210940157854" lon="10.406814222760637"><ele>298.3333333333333</ele><time>2026-05-01T16:45:45Z</time></trkpt><trkpt lat="45.681984134655636" lon="10.407027555408423"><ele>295.6666666666667</ele><time>2026-05-01T16:45:46Z</time></trkpt><trkpt lat="45.681849135218506" lon="10.407227644905085"><ele>293.0</ele><time>2026-05-01T16:45:47Z</time></trkpt><trkpt lat="45.681706387071266" lon="10.407425346199204"><ele>293.0</ele><time>2026-05-01T16:45:48Z</time></trkpt><trkpt lat="45.68157542968601" lon="10.407636135017603"><ele>293.0</ele><time>2026-05-01T16:45:49Z</time></trkpt><trkpt lat="45.68142606992077" lon="10.407826413738311"><ele>293.0</ele><time>2026-05-01T16:45:50Z</time></trkpt><trkpt lat="45.68128047834708" lon="10.408017339102052"><ele>291.33333333333337</ele><time>2026-05-01T16:45:51Z</time></trkpt><trkpt lat="45.681141014643195" lon="10.408203884742822"><ele>289.6666666666667</ele><time>2026-05-01T16:45:52Z</time></trkpt><trkpt lat="45.68100516907683" lon="10.408387182658133"><ele>288.0</ele><time>2026-05-01T16:45:53Z</time></trkpt><trkpt lat="45.680876944406585" lon="10.408559742090151"><ele>288.0</ele><time>2026-05-01T16:45:54Z</time></trkpt><trkpt lat="45.68075303265457" lon="10.40872268705091"><ele>288.0</ele><time>2026-05-01T16:45:55Z</time></trkpt><trkpt lat="45.680627732727594" lon="10.408875785893922"><ele>288.0</ele><time>2026-05-01T16:45:56Z</time></trkpt><trkpt lat="45.68051018782935" lon="10.409026009213918"><ele>288.5</ele><time>2026-05-01T16:45:57Z</time></trkpt><trkpt lat="45.68038494685396" lon="10.409121310622151"><ele>289.0</ele><time>2026-05-01T16:45:58Z</time></trkpt><trkpt lat="45.68026547427571" lon="10.40921141326711"><ele>289.5</ele><time>2026-05-01T16:45:59Z</time></trkpt><trkpt lat="45.680147468658184" lon="10.409270202337982"><ele>290.0</ele><time>2026-05-01T16:46:00Z</time></trkpt><trkpt lat="45.68001433444466" lon="10.40932433133595"><ele>290.0</ele><time>2026-05-01T16:46:01Z</time></trkpt><trkpt lat="45.679886742596224" lon="10.409356671362993"><ele>290.0</ele><time>2026-05-01T16:46:02Z</time></trkpt><trkpt lat="45.67974014767683" lon="10.409374695039178"><ele>290.0</ele><time>2026-05-01T16:46:03Z</time></trkpt><trkpt lat="45.679592758852515" lon="10.409377470491847"><ele>290.0</ele><time>2026-05-01T16:46:04Z</time></trkpt><trkpt lat="45.679445507538894" lon="10.409412899532176"><ele>288.6666666666667</ele><time>2026-05-01T16:46:05Z</time></trkpt><trkpt lat="45.67929506073763" lon="10.409434433518935"><ele>287.3333333333333</ele><time>2026-05-01T16:46:06Z</time></trkpt><trkpt lat="45.679137980932985" lon="10.409451497958448"><ele>286.0</ele><time>2026-05-01T16:46:07Z</time></trkpt><trkpt lat="45.67898346306405" lon="10.409468810412772"><ele>286.0</ele><time>2026-05-01T16:46:08Z</time></trkpt><trkpt lat="45.67882659120572" lon="10.409481346560804"><ele>286.0</ele><time>2026-05-01T16:46:09Z</time></trkpt><trkpt lat="45.678675884131586" lon="10.409501301105154"><ele>286.0</ele><time>2026-05-01T16:46:10Z</time></trkpt><trkpt lat="45.67852193533711" lon="10.409537716502347"><ele>286.25</ele><time>2026-05-01T16:46:11Z</time></trkpt><trkpt lat="45.67838926119015" lon="10.409561723713146"><ele>286.5</ele><time>2026-05-01T16:46:12Z</time></trkpt><trkpt lat="45.67826953366816" lon="10.40958929618451"><ele>286.75</ele><time>2026-05-01T16:46:13Z</time></trkpt><trkpt lat="45.67816444158347" lon="10.409602266297247"><ele>287.0</ele><time>2026-05-01T16:46:14Z</time></trkpt><trkpt lat="45.67806253012045" lon="10.409579802474909"><ele>287.0</ele><time>2026-05-01T16:46:15Z</time></trkpt><trkpt lat="45.67797155586138" lon="10.409493718926962"><ele>287.0</ele><time>2026-05-01T16:46:16Z</time></trkpt><trkpt lat="45.677879725193044" lon="10.40937671939679"><ele>287.0</ele><time>2026-05-01T16:46:17Z</time></trkpt><trkpt lat="45.67779359892588" lon="10.409220729369434"><ele>287.0</ele><time>2026-05-01T16:46:18Z</time></trkpt><trkpt lat="45.677729774670375" lon="10.409015965583842"><ele>287.0</ele><time>2026-05-01T16:46:19Z</time></trkpt><trkpt lat="45.67771627374245" lon="10.408766350728044"><ele>287.0</ele><time>2026-05-01T16:46:20Z</time></trkpt><trkpt lat="45.67767488075391" lon="10.408515073365267"><ele>287.0</ele><time>2026-05-01T16:46:21Z</time></trkpt><trkpt lat="45.67764912557163" lon="10.40825135449272"><ele>288.6666666666667</ele><time>2026-05-01T16:46:22Z</time></trkpt><trkpt lat="45.677620531355394" lon="10.4079912375357"><ele>290.3333333333333</ele><time>2026-05-01T16:46:23Z</time></trkpt><trkpt lat="45.67758860656363" lon="10.40774189191703"><ele>292.0</ele><time>2026-05-01T16:46:24Z</time></trkpt><trkpt lat="45.677555673476846" lon="10.407490435984336"><ele>292.0</ele><time>2026-05-01T16:46:25Z</time></trkpt><trkpt lat="45.677513861572706" lon="10.40725297321674"><ele>292.0</ele><time>2026-05-01T16:46:26Z</time></trkpt><trkpt lat="45.6774518583308" lon="10.407024057494452"><ele>292.0</ele><time>2026-05-01T16:46:27Z</time></trkpt><trkpt lat="45.67737106124699" lon="10.406811427873631"><ele>292.66666666666663</ele><time>2026-05-01T16:46:28Z</time></trkpt><trkpt lat="45.6772658919806" lon="10.406607973359753"><ele>293.3333333333333</ele><time>2026-05-01T16:46:29Z</time></trkpt><trkpt lat="45.677151098200255" lon="10.406411536957899"><ele>294.0</ele><time>2026-05-01T16:46:30Z</time></trkpt><trkpt lat="45.67703075887424" lon="10.406217177413255"><ele>294.6666666666667</ele><time>2026-05-01T16:46:31Z</time></trkpt><trkpt lat="45.67690883507593" lon="10.406034546533993"><ele>295.33333333333337</ele><time>2026-05-01T16:46:32Z</time></trkpt><trkpt lat="45.676796533724215" lon="10.405864335638558"><ele>296.0</ele><time>2026-05-01T16:46:33Z</time></trkpt><trkpt lat="45.67669747645" lon="10.405703046241374"><ele>296.0</ele><time>2026-05-01T16:46:34Z</time></trkpt><trkpt lat="45.676596177766385" lon="10.405541505435577"><ele>296.0</ele><time>2026-05-01T16:46:35Z</time></trkpt><trkpt lat="45.676506409257904" lon="10.405390271555218"><ele>296.0</ele><time>2026-05-01T16:46:36Z</time></trkpt><trkpt lat="45.67642351155194" lon="10.40525765734255"><ele>296.0</ele><time>2026-05-01T16:46:37Z</time></trkpt><trkpt lat="45.67635201994188" lon="10.405135919210604"><ele>297.25</ele><time>2026-05-01T16:46:38Z</time></trkpt><trkpt lat="45.67627366122536" lon="10.405000178484956"><ele>298.5</ele><time>2026-05-01T16:46:39Z</time></trkpt><trkpt lat="45.67617789652404" lon="10.404849474199423"><ele>299.75</ele><time>2026-05-01T16:46:40Z</time></trkpt><trkpt lat="45.67607242121955" lon="10.404686406203865"><ele>301.0</ele><time>2026-05-01T16:46:41Z</time></trkpt><trkpt lat="45.67593995617469" lon="10.404502901482184"><ele>303.3333333333333</ele><time>2026-05-01T16:46:42Z</time></trkpt><trkpt lat="45.67581438068088" lon="10.40427951713317"><ele>305.6666666666667</ele><time>2026-05-01T16:46:43Z</time></trkpt><trkpt lat="45.675661776827376" lon="10.404033878309507"><ele>308.0</ele><time>2026-05-01T16:46:44Z</time></trkpt><trkpt lat="45.67549183854355" lon="10.40376151104747"><ele>309.0</ele><time>2026-05-01T16:46:45Z</time></trkpt><trkpt lat="45.675304732485884" lon="10.40349123295475"><ele>310.0</ele><time>2026-05-01T16:46:46Z</time></trkpt><trkpt lat="45.67512822190421" lon="10.40318105421849"><ele>314.0</ele><time>2026-05-01T16:46:47Z</time></trkpt><trkpt lat="45.67495513214387" lon="10.40288924501174"><ele>318.0</ele><time>2026-05-01T16:46:48Z</time></trkpt><trkpt lat="45.67480128823968" lon="10.402641695487869"><ele>318.0</ele><time>2026-05-01T16:46:49Z</time></trkpt><trkpt lat="45.67466313490417" lon="10.402417606952323"><ele>318.0</ele><time>2026-05-01T16:46:50Z</time></trkpt><trkpt lat="45.67453732889454" lon="10.402248116838674"><ele>318.0</ele><time>2026-05-01T16:46:51Z</time></trkpt><trkpt lat="45.674402009385425" lon="10.402111178198798"><ele>320.6</ele><time>2026-05-01T16:46:52Z</time></trkpt><trkpt lat="45.67425626975173" lon="10.402060504645846"><ele>323.20000000000005</ele><time>2026-05-01T16:46:53Z</time></trkpt><trkpt lat="45.67412086917531" lon="10.402049745500872"><ele>325.8</ele><time>2026-05-01T16:46:54Z</time></trkpt><trkpt lat="45.67403191755097" lon="10.402059885637968"><ele>328.40000000000003</ele><time>2026-05-01T16:46:55Z</time></trkpt><trkpt lat="45.67397123477121" lon="10.402023219464889"><ele>331.0</ele><time>2026-05-01T16:46:56Z</time></trkpt><trkpt lat="45.673958947508645" lon="10.401924022919756"><ele>331.0</ele><time>2026-05-01T16:46:57Z</time></trkpt><trkpt lat="45.674003631909486" lon="10.40182601709904"><ele>331.0</ele><time>2026-05-01T16:46:58Z</time></trkpt><trkpt lat="45.67409934798796" lon="10.401782948018067"><ele>331.0</ele><time>2026-05-01T16:46:59Z</time></trkpt><trkpt lat="45.674235160650504" lon="10.401837141631159"><ele>331.0</ele><time>2026-05-01T16:47:00Z</time></trkpt><trkpt lat="45.67440948583939" lon="10.401839815244802"><ele>332.0</ele><time>2026-05-01T16:47:01Z</time></trkpt><trkpt lat="45.67461307681298" lon="10.401842100097454"><ele>333.0</ele><time>2026-05-01T16:47:02Z</time></trkpt><trkpt lat="45.674848478333125" lon="10.401821461018708"><ele>334.0</ele><time>2026-05-01T16:47:03Z</time></trkpt><trkpt lat="45.6750954630691" lon="10.401824299138532"><ele>336.0</ele><time>2026-05-01T16:47:04Z</time></trkpt><trkpt lat="45.67536959862269" lon="10.401829322655152"><ele>338.0</ele><time>2026-05-01T16:47:05Z</time></trkpt><trkpt lat="45.67563950112699" lon="10.401854524044282"><ele>338.0</ele><time>2026-05-01T16:47:06Z</time></trkpt><trkpt lat="45.675877942224005" lon="10.40183801966936"><ele>338.0</ele><time>2026-05-01T16:47:07Z</time></trkpt><trkpt lat="45.67607141736165" lon="10.40184585149574"><ele>338.0</ele><time>2026-05-01T16:47:08Z</time></trkpt><trkpt lat="45.67622127556019" lon="10.401851181767139"><ele>337.79999999999995</ele><time>2026-05-01T16:47:09Z</time></trkpt><trkpt lat="45.67633946144162" lon="10.401850565686527"><ele>337.6</ele><time>2026-05-01T16:47:10Z</time></trkpt><trkpt lat="45.67644400400037" lon="10.401813402076646"><ele>337.4</ele><time>2026-05-01T16:47:11Z</time></trkpt><trkpt lat="45.67650620331093" lon="10.401732544035337"><ele>337.20000000000005</ele><time>2026-05-01T16:47:12Z</time></trkpt><trkpt lat="45.6765243947289" lon="10.401585576411179"><ele>337.0</ele><time>2026-05-01T16:47:13Z</time></trkpt><trkpt lat="45.67648835388834" lon="10.401440857419566"><ele>337.0</ele><time>2026-05-01T16:47:14Z</time></trkpt><trkpt lat="45.67640042798173" lon="10.401334208951413"><ele>337.0</ele><time>2026-05-01T16:47:15Z</time></trkpt><trkpt lat="45.67626536040903" lon="10.40129042726782"><ele>337.0</ele><time>2026-05-01T16:47:16Z</time></trkpt><trkpt lat="45.676096886220556" lon="10.40129792971325"><ele>337.0</ele><time>2026-05-01T16:47:17Z</time></trkpt><trkpt lat="45.675900328916626" lon="10.401310581519652"><ele>347.5</ele><time>2026-05-01T16:47:18Z</time></trkpt><trkpt lat="45.675672305245584" lon="10.401293730022084"><ele>358.0</ele><time>2026-05-01T16:47:19Z</time></trkpt><trkpt lat="45.67544932428103" lon="10.401235941894155"><ele>358.0</ele><time>2026-05-01T16:47:20Z</time></trkpt><trkpt lat="45.675251361918484" lon="10.401136621191213"><ele>358.0</ele><time>2026-05-01T16:47:21Z</time></trkpt><trkpt lat="45.67508052557488" lon="10.401015551762608"><ele>358.0</ele><time>2026-05-01T16:47:22Z</time></trkpt><trkpt lat="45.67492885170126" lon="10.400874901652514"><ele>358.0</ele><time>2026-05-01T16:47:23Z</time></trkpt><trkpt lat="45.67480014284699" lon="10.400744823226509"><ele>358.0</ele><time>2026-05-01T16:47:24Z</time></trkpt><trkpt lat="45.67469341134547" lon="10.400638325606142"><ele>358.0</ele><time>2026-05-01T16:47:25Z</time></trkpt><trkpt lat="45.67460413001725" lon="10.400579659280456"><ele>358.0</ele><time>2026-05-01T16:47:26Z</time></trkpt><trkpt lat="45.674514037498675" lon="10.400598423461975"><ele>356.79999999999995</ele><time>2026-05-01T16:47:27Z</time></trkpt><trkpt lat="45.67442682334008" lon="10.400696321369143"><ele>355.6</ele><time>2026-05-01T16:47:28Z</time></trkpt><trkpt lat="45.67437617025973" lon="10.400852707089697"><ele>354.4</ele><time>2026-05-01T16:47:29Z</time></trkpt><trkpt lat="45.67434099355438" lon="10.400990968545631"><ele>353.20000000000005</ele><time>2026-05-01T16:47:30Z</time></trkpt><trkpt lat="45.67428276676275" lon="10.401113870345938"><ele>352.0</ele><time>2026-05-01T16:47:31Z</time></trkpt><trkpt lat="45.67418815708396" lon="10.401177296206031"><ele>352.0</ele><time>2026-05-01T16:47:32Z</time></trkpt><trkpt lat="45.674070713242706" lon="10.401179613808777"><ele>352.0</ele><time>2026-05-01T16:47:33Z</time></trkpt><trkpt lat="45.67394638515399" lon="10.401132215636855"><ele>352.0</ele><time>2026-05-01T16:47:34Z</time></trkpt><trkpt lat="45.67382867154005" lon="10.401009184407553"><ele>352.0</ele><time>2026-05-01T16:47:35Z</time></trkpt><trkpt lat="45.673695311713914" lon="10.400897907740266"><ele>350.25</ele><time>2026-05-01T16:47:36Z</time></trkpt><trkpt lat="45.67355983854492" lon="10.400810521035572"><ele>348.5</ele><time>2026-05-01T16:47:37Z</time></trkpt><trkpt lat="45.673445572025" lon="10.400704649902442"><ele>346.75</ele><time>2026-05-01T16:47:38Z</time></trkpt><trkpt lat="45.67332368498278" lon="10.400602693913424"><ele>345.0</ele><time>2026-05-01T16:47:39Z</time></trkpt><trkpt lat="45.67320112736779" lon="10.400497487811235"><ele>351.0</ele><time>2026-05-01T16:47:40Z</time></trkpt><trkpt lat="45.67307628112853" lon="10.400390615865096"><ele>357.0</ele><time>2026-05-01T16:47:41Z</time></trkpt><trkpt lat="45.67295850949003" lon="10.400277532045896"><ele>363.0</ele><time>2026-05-01T16:47:42Z</time></trkpt><trkpt lat="45.67286948535235" lon="10.40011907010489"><ele>369.0</ele><time>2026-05-01T16:47:43Z</time></trkpt><trkpt lat="45.67282667541915" lon="10.399921010171772"><ele>369.0</ele><time>2026-05-01T16:47:44Z</time></trkpt><trkpt lat="45.67279047802923" lon="10.399702155696167"><ele>369.0</ele><time>2026-05-01T16:47:45Z</time></trkpt><trkpt lat="45.672748695334576" lon="10.399497403965487"><ele>369.0</ele><time>2026-05-01T16:47:46Z</time></trkpt><trkpt lat="45.672728475114575" lon="10.399325576328032"><ele>369.0</ele><time>2026-05-01T16:47:47Z</time></trkpt><trkpt lat="45.67269784494017" lon="10.399173289367019"><ele>369.0</ele><time>2026-05-01T16:47:48Z</time></trkpt><trkpt lat="45.67264538952503" lon="10.399043304962314"><ele>369.0</ele><time>2026-05-01T16:47:49Z</time></trkpt><trkpt lat="45.67255830331514" lon="10.398951959693465"><ele>369.0</ele><time>2026-05-01T16:47:50Z</time></trkpt><trkpt lat="45.672446169139704" lon="10.39891057285954"><ele>369.0</ele><time>2026-05-01T16:47:51Z</time></trkpt><trkpt lat="45.672333129900494" lon="10.398903930800088"><ele>369.0</ele><time>2026-05-01T16:47:52Z</time></trkpt><trkpt lat="45.67222162456463" lon="10.398912057806928"><ele>369.0</ele><time>2026-05-01T16:47:53Z</time></trkpt><trkpt lat="45.67211058566695" lon="10.398905612127711"><ele>369.0</ele><time>2026-05-01T16:47:54Z</time></trkpt><trkpt lat="45.67200315635331" lon="10.398866723470489"><ele>369.0</ele><time>2026-05-01T16:47:55Z</time></trkpt><trkpt lat="45.67190456009782" lon="10.398774766471183"><ele>369.0</ele><time>2026-05-01T16:47:56Z</time></trkpt><trkpt lat="45.671852944519614" lon="10.398614503791094"><ele>370.4</ele><time>2026-05-01T16:47:57Z</time></trkpt><trkpt lat="45.67177932945495" lon="10.398492087233757"><ele>371.79999999999995</ele><time>2026-05-01T16:47:58Z</time></trkpt><trkpt lat="45.67173467052397" lon="10.398372731545665"><ele>373.20000000000005</ele><time>2026-05-01T16:47:59Z</time></trkpt><trkpt lat="45.67168475588917" lon="10.398273649959677"><ele>374.6</ele><time>2026-05-01T16:48:00Z</time></trkpt><trkpt lat="45.671615133994614" lon="10.398220930097347"><ele>376.0</ele><time>2026-05-01T16:48:01Z</time></trkpt><trkpt lat="45.671536163718145" lon="10.398218151146294"><ele>376.0</ele><time>2026-05-01T16:48:02Z</time></trkpt><trkpt lat="45.67145258400951" lon="10.398277639961844"><ele>376.0</ele><time>2026-05-01T16:48:03Z</time></trkpt><trkpt lat="45.671380219366455" lon="10.398384087470667"><ele>376.0</ele><time>2026-05-01T16:48:04Z</time></trkpt><trkpt lat="45.6713080027763" lon="10.398499758142082"><ele>376.0</ele><time>2026-05-01T16:48:05Z</time></trkpt><trkpt lat="45.671213196290466" lon="10.398552357913886"><ele>376.0</ele><time>2026-05-01T16:48:06Z</time></trkpt><trkpt lat="45.67110586310429" lon="10.398531128482654"><ele>375.3333333333333</ele><time>2026-05-01T16:48:07Z</time></trkpt><trkpt lat="45.67101235308484" lon="10.39841826363671"><ele>374.6666666666667</ele><time>2026-05-01T16:48:08Z</time></trkpt><trkpt lat="45.67088314957166" lon="10.398295094798815"><ele>374.0</ele><time>2026-05-01T16:48:09Z</time></trkpt><trkpt lat="45.67073636841696" lon="10.398155973826983"><ele>374.0</ele><time>2026-05-01T16:48:10Z</time></trkpt><trkpt lat="45.67056729487228" lon="10.398002740240646"><ele>374.0</ele><time>2026-05-01T16:48:11Z</time></trkpt><trkpt lat="45.67036190995014" lon="10.397890899197716"><ele>374.0</ele><time>2026-05-01T16:48:12Z</time></trkpt><trkpt lat="45.670125649408014" lon="10.397809117611544"><ele>385.0</ele><time>2026-05-01T16:48:13Z</time></trkpt><trkpt lat="45.66987071469011" lon="10.397807537643951"><ele>396.0</ele><time>2026-05-01T16:48:14Z</time></trkpt><trkpt lat="45.66961180138548" lon="10.397848651282956"><ele>395.33333333333337</ele><time>2026-05-01T16:48:15Z</time></trkpt><trkpt lat="45.669388584677044" lon="10.39787748808061"><ele>394.6666666666667</ele><time>2026-05-01T16:48:16Z</time></trkpt><trkpt lat="45.669202730181446" lon="10.397885480464032"><ele>394.0</ele><time>2026-05-01T16:48:17Z</time></trkpt><trkpt lat="45.66904954277688" lon="10.397881487411013"><ele>394.0</ele><time>2026-05-01T16:48:18Z</time></trkpt><trkpt lat="45.66890665845854" lon="10.397862219735"><ele>394.0</ele><time>2026-05-01T16:48:19Z</time></trkpt><trkpt lat="45.66876929131272" lon="10.397826074123419"><ele>394.0</ele><time>2026-05-01T16:48:20Z</time></trkpt><trkpt lat="45.66864395877174" lon="10.397780932825974"><ele>394.0</ele><time>2026-05-01T16:48:21Z</time></trkpt><trkpt lat="45.66851403508997" lon="10.397748965495582"><ele>393.5</ele><time>2026-05-01T16:48:22Z</time></trkpt><trkpt lat="45.668394516190055" lon="10.39770212576547"><ele>393.0</ele><time>2026-05-01T16:48:23Z</time></trkpt><trkpt lat="45.66828491624805" lon="10.397648135160765"><ele>392.5</ele><time>2026-05-01T16:48:24Z</time></trkpt><trkpt lat="45.66818388093275" lon="10.397560058970942"><ele>392.0</ele><time>2026-05-01T16:48:25Z</time></trkpt><trkpt lat="45.668091426398256" lon="10.397438865216294"><ele>392.0</ele><time>2026-05-01T16:48:26Z</time></trkpt><trkpt lat="45.668029472500834" lon="10.397276892309192"><ele>392.0</ele><time>2026-05-01T16:48:27Z</time></trkpt><trkpt lat="45.66796812192073" lon="10.39709981260348"><ele>392.0</ele><time>2026-05-01T16:48:28Z</time></trkpt><trkpt lat="45.66792539813048" lon="10.396915139880281"><ele>392.0</ele><time>2026-05-01T16:48:29Z</time></trkpt><trkpt lat="45.66789639899588" lon="10.39671794249756"><ele>392.0</ele><time>2026-05-01T16:48:30Z</time></trkpt><trkpt lat="45.667873310662465" lon="10.396502746285929"><ele>392.0</ele><time>2026-05-01T16:48:31Z</time></trkpt><trkpt lat="45.66787188733154" lon="10.396289685970412"><ele>392.0</ele><time>2026-05-01T16:48:32Z</time></trkpt><trkpt lat="45.6678497338983" lon="10.396063033395667"><ele>392.0</ele><time>2026-05-01T16:48:33Z</time></trkpt><trkpt lat="45.66784508259884" lon="10.395843350288613"><ele>392.0</ele><time>2026-05-01T16:48:34Z</time></trkpt><trkpt lat="45.66782214736263" lon="10.395630109274869"><ele>392.0</ele><time>2026-05-01T16:48:35Z</time></trkpt><trkpt lat="45.66775769799235" lon="10.395449852392359"><ele>392.0</ele><time>2026-05-01T16:48:36Z</time></trkpt><trkpt lat="45.66765991803278" lon="10.395300865639415"><ele>392.0</ele><time>2026-05-01T16:48:37Z</time></trkpt><trkpt lat="45.6675473313992" lon="10.395162308592633"><ele>392.0</ele><time>2026-05-01T16:48:38Z</time></trkpt><trkpt lat="45.66743112847711" lon="10.395041002750732"><ele>392.0</ele><time>2026-05-01T16:48:39Z</time></trkpt><trkpt lat="45.66731861693217" lon="10.394922188798555"><ele>392.0</ele><time>2026-05-01T16:48:40Z</time></trkpt><trkpt lat="45.66720292781672" lon="10.39479147689332"><ele>392.25</ele><time>2026-05-01T16:48:41Z</time></trkpt><trkpt lat="45.667099279364464" lon="10.394651669460822"><ele>392.5</ele><time>2026-05-01T16:48:42Z</time></trkpt><trkpt lat="45.66703096535679" lon="10.39450126603824"><ele>392.75</ele><time>2026-05-01T16:48:43Z</time></trkpt><trkpt lat="45.666944160194625" lon="10.394373199029276"><ele>393.0</ele><time>2026-05-01T16:48:44Z</time></trkpt><trkpt lat="45.66687936920613" lon="10.39424638912521"><ele>393.0</ele><time>2026-05-01T16:48:45Z</time></trkpt><trkpt lat="45.6668214796787" lon="10.39415142710365"><ele>393.0</ele><time>2026-05-01T16:48:46Z</time></trkpt><trkpt lat="45.66677718576769" lon="10.394066150392883"><ele>393.0</ele><time>2026-05-01T16:48:48Z</time></trkpt><trkpt lat="45.66670808305792" lon="10.393954578395135"><ele>393.0</ele><time>2026-05-01T16:48:52Z</time></trkpt><trkpt lat="45.66666439253291" lon="10.393872097451851"><ele>393.0</ele><time>2026-05-01T16:48:53Z</time></trkpt><trkpt lat="45.666616089996964" lon="10.393777643895069"><ele>393.0</ele><time>2026-05-01T16:48:54Z</time></trkpt><trkpt lat="45.66655992171087" lon="10.39367244812102"><ele>393.6666666666667</ele><time>2026-05-01T16:48:55Z</time></trkpt><trkpt lat="45.666513863320645" lon="10.393581100647252"><ele>394.33333333333337</ele><time>2026-05-01T16:48:56Z</time></trkpt><trkpt lat="45.6664742691669" lon="10.393494213762901"><ele>395.0</ele><time>2026-05-01T16:48:57Z</time></trkpt><trkpt lat="45.66642634137777" lon="10.393422655037316"><ele>395.6666666666667</ele><time>2026-05-01T16:48:58Z</time></trkpt><trkpt lat="45.66637470755173" lon="10.393321389871284"><ele>396.33333333333337</ele><time>2026-05-01T16:48:59Z</time></trkpt><trkpt lat="45.66624778463" lon="10.393237951498879"><ele>397.0</ele><time>2026-05-01T16:49:01Z</time></trkpt><trkpt lat="45.66614084283563" lon="10.393197130233082"><ele>395.8</ele><time>2026-05-01T16:49:02Z</time></trkpt><trkpt lat="45.666038063845896" lon="10.393167514970317"><ele>394.6</ele><time>2026-05-01T16:49:03Z</time></trkpt><trkpt lat="45.6659528775352" lon="10.393106803196476"><ele>393.40000000000003</ele><time>2026-05-01T16:49:04Z</time></trkpt><trkpt lat="45.665857523215806" lon="10.393069613095458"><ele>392.20000000000005</ele><time>2026-05-01T16:49:05Z</time></trkpt><trkpt lat="45.6657637692822" lon="10.393050467965276"><ele>391.0</ele><time>2026-05-01T16:49:06Z</time></trkpt><trkpt lat="45.66565860399222" lon="10.393053715409659"><ele>391.0</ele><time>2026-05-01T16:49:07Z</time></trkpt><trkpt lat="45.665561333660804" lon="10.393035965670988"><ele>391.0</ele><time>2026-05-01T16:49:08Z</time></trkpt><trkpt lat="45.66546667434839" lon="10.392982841715643"><ele>391.0</ele><time>2026-05-01T16:49:09Z</time></trkpt><trkpt lat="45.66540169902131" lon="10.392876192770839"><ele>391.0</ele><time>2026-05-01T16:49:10Z</time></trkpt><trkpt lat="45.665330917460714" lon="10.392780853668109"><ele>391.0</ele><time>2026-05-01T16:49:11Z</time></trkpt><trkpt lat="45.665265626490616" lon="10.392690830734072"><ele>390.4285714285714</ele><time>2026-05-01T16:49:12Z</time></trkpt><trkpt lat="45.66521086930271" lon="10.392620483992316"><ele>389.85714285714283</ele><time>2026-05-01T16:49:14Z</time></trkpt><trkpt lat="45.66515939875447" lon="10.39255435960552"><ele>389.2857142857143</ele><time>2026-05-01T16:49:18Z</time></trkpt><trkpt lat="45.66511167636025" lon="10.392493050487165"><ele>388.71428571428567</ele><time>2026-05-01T16:49:19Z</time></trkpt><trkpt lat="45.66506053866572" lon="10.392420373519931"><ele>388.14285714285717</ele><time>2026-05-01T16:49:20Z</time></trkpt><trkpt lat="45.66500204027792" lon="10.392346806909474"><ele>387.57142857142856</ele><time>2026-05-01T16:49:21Z</time></trkpt><trkpt lat="45.66494009722787" lon="10.392253945181167"><ele>387.0</ele><time>2026-05-01T16:49:22Z</time></trkpt><trkpt lat="45.66486849191474" lon="10.39217262576155"><ele>385.8</ele><time>2026-05-01T16:49:23Z</time></trkpt><trkpt lat="45.66478073095684" lon="10.392104487578171"><ele>384.6</ele><time>2026-05-01T16:49:24Z</time></trkpt><trkpt lat="45.66468085103833" lon="10.392047447277829"><ele>383.40000000000003</ele><time>2026-05-01T16:49:25Z</time></trkpt><trkpt lat="45.66457953782169" lon="10.392016596885064"><ele>382.20000000000005</ele><time>2026-05-01T16:49:26Z</time></trkpt><trkpt lat="45.66447658930548" lon="10.39199744519948"><ele>381.0</ele><time>2026-05-01T16:49:27Z</time></trkpt><trkpt lat="45.6643790288832" lon="10.392018991038995"><ele>380.8</ele><time>2026-05-01T16:49:28Z</time></trkpt><trkpt lat="45.664273900627194" lon="10.392064481185885"><ele>380.6</ele><time>2026-05-01T16:49:29Z</time></trkpt><trkpt lat="45.66418322666823" lon="10.392116460870962"><ele>380.4</ele><time>2026-05-01T16:49:30Z</time></trkpt><trkpt lat="45.66407771433336" lon="10.39217141384804"><ele>380.2</ele><time>2026-05-01T16:49:31Z</time></trkpt><trkpt lat="45.663961766209546" lon="10.392212124492936"><ele>380.0</ele><time>2026-05-01T16:49:32Z</time></trkpt><trkpt lat="45.66384064248202" lon="10.392214484144212"><ele>380.5</ele><time>2026-05-01T16:49:33Z</time></trkpt><trkpt lat="45.663707691912784" lon="10.392185173339575"><ele>381.0</ele><time>2026-05-01T16:49:34Z</time></trkpt><trkpt lat="45.66358071552629" lon="10.39215791053088"><ele>381.5</ele><time>2026-05-01T16:49:35Z</time></trkpt><trkpt lat="45.66346746318508" lon="10.392141802399118"><ele>382.0</ele><time>2026-05-01T16:49:36Z</time></trkpt><trkpt lat="45.66334652850891" lon="10.392132500957704"><ele>380.5</ele><time>2026-05-01T16:49:37Z</time></trkpt><trkpt lat="45.66322229665134" lon="10.392115693666895"><ele>379.0</ele><time>2026-05-01T16:49:38Z</time></trkpt><trkpt lat="45.66309105946098" lon="10.392094846055933"><ele>377.5</ele><time>2026-05-01T16:49:39Z</time></trkpt><trkpt lat="45.66295204437489" lon="10.392075747801016"><ele>376.0</ele><time>2026-05-01T16:49:40Z</time></trkpt><trkpt lat="45.66281111822581" lon="10.39205271652081"><ele>375.25</ele><time>2026-05-01T16:49:41Z</time></trkpt><trkpt lat="45.66267700668078" lon="10.392018266601672"><ele>374.5</ele><time>2026-05-01T16:49:42Z</time></trkpt><trkpt lat="45.66254868900971" lon="10.391957137638693"><ele>373.75</ele><time>2026-05-01T16:49:43Z</time></trkpt><trkpt lat="45.66242429947816" lon="10.39186752485353"><ele>373.0</ele><time>2026-05-01T16:49:44Z</time></trkpt><trkpt lat="45.662306972830315" lon="10.391765389438278"><ele>373.0</ele><time>2026-05-01T16:49:45Z</time></trkpt><trkpt lat="45.66218990822963" lon="10.391664194261354"><ele>373.0</ele><time>2026-05-01T16:49:46Z</time></trkpt><trkpt lat="45.66206761701617" lon="10.39156312216306"><ele>373.0</ele><time>2026-05-01T16:49:47Z</time></trkpt><trkpt lat="45.661950814640626" lon="10.391470801558922"><ele>373.0</ele><time>2026-05-01T16:49:48Z</time></trkpt><trkpt lat="45.66183611331853" lon="10.391379648217422"><ele>371.5</ele><time>2026-05-01T16:49:49Z</time></trkpt><trkpt lat="45.66173191607066" lon="10.391290359119038"><ele>370.0</ele><time>2026-05-01T16:49:50Z</time></trkpt><trkpt lat="45.66163998258902" lon="10.391194953566593"><ele>368.5</ele><time>2026-05-01T16:49:51Z</time></trkpt><trkpt lat="45.66155362953593" lon="10.391092677444702"><ele>367.0</ele><time>2026-05-01T16:49:52Z</time></trkpt><trkpt lat="45.661464856374174" lon="10.39099364896632"><ele>367.0</ele><time>2026-05-01T16:49:53Z</time></trkpt><trkpt lat="45.6613743288088" lon="10.390897766205814"><ele>367.0</ele><time>2026-05-01T16:49:54Z</time></trkpt><trkpt lat="45.66127905640843" lon="10.390793538323278"><ele>367.0</ele><time>2026-05-01T16:49:55Z</time></trkpt><trkpt lat="45.66118487785942" lon="10.390687491075951"><ele>367.0</ele><time>2026-05-01T16:49:56Z</time></trkpt><trkpt lat="45.66108653746275" lon="10.39058268999736"><ele>365.0</ele><time>2026-05-01T16:49:57Z</time></trkpt><trkpt lat="45.66100016336907" lon="10.390482030228165"><ele>363.0</ele><time>2026-05-01T16:49:58Z</time></trkpt><trkpt lat="45.6609104479294" lon="10.390384411490247"><ele>361.0</ele><time>2026-05-01T16:49:59Z</time></trkpt><trkpt lat="45.66081252369915" lon="10.390291548793845"><ele>359.0</ele><time>2026-05-01T16:50:00Z</time></trkpt><trkpt lat="45.660695284838134" lon="10.39021189141083"><ele>359.0</ele><time>2026-05-01T16:50:01Z</time></trkpt><trkpt lat="45.66053494370486" lon="10.390152668016286"><ele>359.0</ele><time>2026-05-01T16:50:02Z</time></trkpt><trkpt lat="45.66033500473181" lon="10.390064126020535"><ele>359.0</ele><time>2026-05-01T16:50:03Z</time></trkpt><trkpt lat="45.660131699247934" lon="10.390018222209925"><ele>361.33333333333337</ele><time>2026-05-01T16:50:04Z</time></trkpt><trkpt lat="45.659952253994994" lon="10.389954362450922"><ele>363.6666666666667</ele><time>2026-05-01T16:50:05Z</time></trkpt><trkpt lat="45.65979911853245" lon="10.38990238632062"><ele>366.0</ele><time>2026-05-01T16:50:06Z</time></trkpt><trkpt lat="45.65966667287912" lon="10.389856819860704"><ele>366.0</ele><time>2026-05-01T16:50:07Z</time></trkpt><trkpt lat="45.6595512178402" lon="10.389811962543128"><ele>366.0</ele><time>2026-05-01T16:50:08Z</time></trkpt><trkpt lat="45.65943925698818" lon="10.389780646379492"><ele>366.0</ele><time>2026-05-01T16:50:09Z</time></trkpt><trkpt lat="45.65932076448898" lon="10.38974368079859"><ele>366.0</ele><time>2026-05-01T16:50:10Z</time></trkpt><trkpt lat="45.65919444816438" lon="10.389706453434812"><ele>365.0</ele><time>2026-05-01T16:50:11Z</time></trkpt><trkpt lat="45.65903587214" lon="10.38967697054041"><ele>364.0</ele><time>2026-05-01T16:50:12Z</time></trkpt><trkpt lat="45.65882196974266" lon="10.38964033004421"><ele>363.0</ele><time>2026-05-01T16:50:13Z</time></trkpt><trkpt lat="45.6585809011264" lon="10.389653547876025"><ele>362.0</ele><time>2026-05-01T16:50:14Z</time></trkpt><trkpt lat="45.65834608437348" lon="10.389646799441286"><ele>361.0</ele><time>2026-05-01T16:50:15Z</time></trkpt><trkpt lat="45.65814125461137" lon="10.389646609999538"><ele>360.0</ele><time>2026-05-01T16:50:16Z</time></trkpt><trkpt lat="45.65796415757814" lon="10.389644524783712"><ele>360.0</ele><time>2026-05-01T16:50:17Z</time></trkpt><trkpt lat="45.65779972488677" lon="10.389639983784017"><ele>360.0</ele><time>2026-05-01T16:50:18Z</time></trkpt><trkpt lat="45.65765854080951" lon="10.389636368306888"><ele>360.0</ele><time>2026-05-01T16:50:19Z</time></trkpt><trkpt lat="45.657537698435675" lon="10.389625777277699"><ele>360.0</ele><time>2026-05-01T16:50:20Z</time></trkpt><trkpt lat="45.657443081921095" lon="10.389549175345564"><ele>358.5</ele><time>2026-05-01T16:50:21Z</time></trkpt><trkpt lat="45.657352726108755" lon="10.389474724497925"><ele>357.0</ele><time>2026-05-01T16:50:22Z</time></trkpt><trkpt lat="45.65727114833098" lon="10.389372820438421"><ele>355.5</ele><time>2026-05-01T16:50:23Z</time></trkpt><trkpt lat="45.65720316793625" lon="10.389241991138018"><ele>354.0</ele><time>2026-05-01T16:50:24Z</time></trkpt><trkpt lat="45.65713068744162" lon="10.389045868131449"><ele>356.3333333333333</ele><time>2026-05-01T16:50:25Z</time></trkpt><trkpt lat="45.65702448892516" lon="10.38880540897273"><ele>358.66666666666663</ele><time>2026-05-01T16:50:26Z</time></trkpt><trkpt lat="45.65686187576508" lon="10.388591589909545"><ele>361.0</ele><time>2026-05-01T16:50:27Z</time></trkpt><trkpt lat="45.65672167150466" lon="10.38841715476619"><ele>356.25</ele><time>2026-05-01T16:50:28Z</time></trkpt><trkpt lat="45.65661033503367" lon="10.388271121147254"><ele>351.5</ele><time>2026-05-01T16:50:29Z</time></trkpt><trkpt lat="45.65655918419268" lon="10.38809491536438"><ele>346.75</ele><time>2026-05-01T16:50:30Z</time></trkpt><trkpt lat="45.65653506678026" lon="10.387899335954014"><ele>342.0</ele><time>2026-05-01T16:50:31Z</time></trkpt><trkpt lat="45.65654213890116" lon="10.387701961953205"><ele>340.6666666666667</ele><time>2026-05-01T16:50:32Z</time></trkpt><trkpt lat="45.65658722415965" lon="10.387476429600767"><ele>339.33333333333337</ele><time>2026-05-01T16:50:33Z</time></trkpt><trkpt lat="45.65665640216844" lon="10.387226618510695"><ele>338.0</ele><time>2026-05-01T16:50:34Z</time></trkpt><trkpt lat="45.65674558746496" lon="10.387015672015783"><ele>338.6666666666667</ele><time>2026-05-01T16:50:35Z</time></trkpt><trkpt lat="45.656855751366344" lon="10.386851181664504"><ele>339.3333333333333</ele><time>2026-05-01T16:50:36Z</time></trkpt><trkpt lat="45.65699970800552" lon="10.386666871074402"><ele>340.0</ele><time>2026-05-01T16:50:37Z</time></trkpt><trkpt lat="45.65715316627755" lon="10.386481793023199"><ele>334.3333333333333</ele><time>2026-05-01T16:50:38Z</time></trkpt><trkpt lat="45.65730371870957" lon="10.386302748194076"><ele>328.6666666666667</ele><time>2026-05-01T16:50:39Z</time></trkpt><trkpt lat="45.6574424467425" lon="10.38618413287072"><ele>323.0</ele><time>2026-05-01T16:50:40Z</time></trkpt><trkpt lat="45.65758864838153" lon="10.38613240405177"><ele>323.0</ele><time>2026-05-01T16:50:41Z</time></trkpt><trkpt lat="45.657743361114896" lon="10.386119864785318"><ele>323.0</ele><time>2026-05-01T16:50:42Z</time></trkpt><trkpt lat="45.65788375396187" lon="10.386076023366742"><ele>323.0</ele><time>2026-05-01T16:50:43Z</time></trkpt><trkpt lat="45.65800104209924" lon="10.386044612706975"><ele>323.0</ele><time>2026-05-01T16:50:44Z</time></trkpt><trkpt lat="45.658075106931314" lon="10.38593740692462"><ele>322.5</ele><time>2026-05-01T16:50:45Z</time></trkpt><trkpt lat="45.658105335026285" lon="10.385779929034193"><ele>322.0</ele><time>2026-05-01T16:50:46Z</time></trkpt><trkpt lat="45.6580723038379" lon="10.385625131652963"><ele>321.5</ele><time>2026-05-01T16:50:47Z</time></trkpt><trkpt lat="45.65796996260432" lon="10.385499312519775"><ele>321.0</ele><time>2026-05-01T16:50:48Z</time></trkpt><trkpt lat="45.657864640254104" lon="10.385432786639798"><ele>321.6666666666667</ele><time>2026-05-01T16:50:49Z</time></trkpt><trkpt lat="45.657711724091044" lon="10.385445608910699"><ele>322.33333333333337</ele><time>2026-05-01T16:50:50Z</time></trkpt><trkpt lat="45.65751591367052" lon="10.385517724993404"><ele>323.0</ele><time>2026-05-01T16:50:51Z</time></trkpt><trkpt lat="45.657284399866164" lon="10.385598027142551"><ele>323.0</ele><time>2026-05-01T16:50:52Z</time></trkpt><trkpt lat="45.65702939560318" lon="10.385660111599528"><ele>323.0</ele><time>2026-05-01T16:50:53Z</time></trkpt><trkpt lat="45.65679842472056" lon="10.385704440185119"><ele>320.6666666666667</ele><time>2026-05-01T16:50:54Z</time></trkpt><trkpt lat="45.65660016141484" lon="10.385738906400656"><ele>318.3333333333333</ele><time>2026-05-01T16:50:55Z</time></trkpt><trkpt lat="45.65642299650107" lon="10.385768286937669"><ele>316.0</ele><time>2026-05-01T16:50:56Z</time></trkpt><trkpt lat="45.6562538538042" lon="10.385775161048638"><ele>313.66666666666663</ele><time>2026-05-01T16:50:57Z</time></trkpt><trkpt lat="45.65609190698554" lon="10.385742109087039"><ele>311.3333333333333</ele><time>2026-05-01T16:50:58Z</time></trkpt><trkpt lat="45.655951750177145" lon="10.385631976107716"><ele>309.0</ele><time>2026-05-01T16:50:59Z</time></trkpt><trkpt lat="45.655812856274565" lon="10.38553440118267"><ele>309.25</ele><time>2026-05-01T16:51:00Z</time></trkpt><trkpt lat="45.65568119089368" lon="10.38545387162279"><ele>309.5</ele><time>2026-05-01T16:51:01Z</time></trkpt><trkpt lat="45.65556250946612" lon="10.385364773176855"><ele>309.75</ele><time>2026-05-01T16:51:02Z</time></trkpt><trkpt lat="45.65545294966794" lon="10.385286562056617"><ele>310.0</ele><time>2026-05-01T16:51:03Z</time></trkpt><trkpt lat="45.65535725339043" lon="10.385211554776369"><ele>309.6</ele><time>2026-05-01T16:51:04Z</time></trkpt><trkpt lat="45.655277529020516" lon="10.385147289436102"><ele>309.2</ele><time>2026-05-01T16:51:05Z</time></trkpt><trkpt lat="45.655207962206646" lon="10.385082566207116"><ele>308.8</ele><time>2026-05-01T16:51:06Z</time></trkpt><trkpt lat="45.65515253191703" lon="10.38502169968473"><ele>308.4</ele><time>2026-05-01T16:51:07Z</time></trkpt><trkpt lat="45.655076918572526" lon="10.384887551075796"><ele>308.0</ele><time>2026-05-01T16:51:09Z</time></trkpt><trkpt lat="45.655049174388324" lon="10.384727826738626"><ele>307.83333333333337</ele><time>2026-05-01T16:51:11Z</time></trkpt><trkpt lat="45.65500158346858" lon="10.384619466150676"><ele>307.6666666666667</ele><time>2026-05-01T16:51:13Z</time></trkpt><trkpt lat="45.655005397122224" lon="10.384474205112035"><ele>307.5</ele><time>2026-05-01T16:51:15Z</time></trkpt><trkpt lat="45.65498945335477" lon="10.384370301184571"><ele>307.3333333333333</ele><time>2026-05-01T16:51:17Z</time></trkpt><trkpt lat="45.6549715981482" lon="10.38426749511147"><ele>307.16666666666663</ele><time>2026-05-01T16:51:19Z</time></trkpt><trkpt lat="45.65495327412397" lon="10.384166691740347"><ele>307.0</ele><time>2026-05-01T16:51:23Z</time></trkpt><trkpt lat="45.65493486221219" lon="10.384065301813779"><ele>307.0</ele><time>2026-05-01T16:51:34Z</time></trkpt><trkpt lat="45.6549068138644" lon="10.383934812667642"><ele>307.0</ele><time>2026-05-01T16:51:36Z</time></trkpt><trkpt lat="45.65488750760569" lon="10.383821835388297"><ele>307.0</ele><time>2026-05-01T16:51:37Z</time></trkpt><trkpt lat="45.6548688167603" lon="10.383673536304743"><ele>307.0</ele><time>2026-05-01T16:51:38Z</time></trkpt><trkpt lat="45.65485841324801" lon="10.383485877782626"><ele>307.0</ele><time>2026-05-01T16:51:39Z</time></trkpt><trkpt lat="45.6548512961062" lon="10.383278083032325"><ele>307.66666666666663</ele><time>2026-05-01T16:51:40Z</time></trkpt><trkpt lat="45.654846827890886" lon="10.38304675262937"><ele>308.3333333333333</ele><time>2026-05-01T16:51:41Z</time></trkpt><trkpt lat="45.65484692177351" lon="10.382790656853649"><ele>309.0</ele><time>2026-05-01T16:51:42Z</time></trkpt><trkpt lat="45.654845553251114" lon="10.382524826549082"><ele>309.6666666666667</ele><time>2026-05-01T16:51:43Z</time></trkpt><trkpt lat="45.654844082038636" lon="10.382241073863913"><ele>310.33333333333337</ele><time>2026-05-01T16:51:44Z</time></trkpt><trkpt lat="45.654843583303105" lon="10.3819513366682"><ele>311.0</ele><time>2026-05-01T16:51:45Z</time></trkpt><trkpt lat="45.654848253444584" lon="10.381660688263615"><ele>311.0</ele><time>2026-05-01T16:51:46Z</time></trkpt><trkpt lat="45.654865270099855" lon="10.381366850809881"><ele>311.0</ele><time>2026-05-01T16:51:47Z</time></trkpt><trkpt lat="45.65492060843349" lon="10.38108063089749"><ele>311.0</ele><time>2026-05-01T16:51:48Z</time></trkpt><trkpt lat="45.654960103769845" lon="10.38079389250089"><ele>311.6666666666667</ele><time>2026-05-01T16:51:49Z</time></trkpt><trkpt lat="45.65498654611441" lon="10.38050039022286"><ele>312.3333333333333</ele><time>2026-05-01T16:51:50Z</time></trkpt><trkpt lat="45.655045840715744" lon="10.380209107360912"><ele>313.0</ele><time>2026-05-01T16:51:51Z</time></trkpt><trkpt lat="45.655111280597026" lon="10.379937489088393"><ele>313.0</ele><time>2026-05-01T16:51:52Z</time></trkpt><trkpt lat="45.65518327416689" lon="10.3796902598198"><ele>313.0</ele><time>2026-05-01T16:51:53Z</time></trkpt><trkpt lat="45.65525801911268" lon="10.379443545681342"><ele>313.0</ele><time>2026-05-01T16:51:54Z</time></trkpt><trkpt lat="45.65532914749734" lon="10.379192457215526"><ele>314.0</ele><time>2026-05-01T16:51:55Z</time></trkpt><trkpt lat="45.655404480933115" lon="10.378936930380517"><ele>315.0</ele><time>2026-05-01T16:51:56Z</time></trkpt><trkpt lat="45.65548371465251" lon="10.37868475466212"><ele>316.0</ele><time>2026-05-01T16:51:57Z</time></trkpt><trkpt lat="45.65556360275426" lon="10.378431566379692"><ele>316.0</ele><time>2026-05-01T16:51:58Z</time></trkpt><trkpt lat="45.65564227159128" lon="10.378173423014779"><ele>316.0</ele><time>2026-05-01T16:51:59Z</time></trkpt><trkpt lat="45.655724263423345" lon="10.377930971209736"><ele>316.0</ele><time>2026-05-01T16:52:00Z</time></trkpt><trkpt lat="45.65580487228063" lon="10.377682278255115"><ele>315.66666666666663</ele><time>2026-05-01T16:52:01Z</time></trkpt><trkpt lat="45.65586777179373" lon="10.377428195968168"><ele>315.3333333333333</ele><time>2026-05-01T16:52:02Z</time></trkpt><trkpt lat="45.65591757948807" lon="10.37717305553582"><ele>315.0</ele><time>2026-05-01T16:52:03Z</time></trkpt><trkpt lat="45.655950258845266" lon="10.37691109814593"><ele>315.0</ele><time>2026-05-01T16:52:04Z</time></trkpt><trkpt lat="45.65596544804501" lon="10.376640410648864"><ele>315.0</ele><time>2026-05-01T16:52:05Z</time></trkpt><trkpt lat="45.65597316154593" lon="10.376378629236616"><ele>315.0</ele><time>2026-05-01T16:52:06Z</time></trkpt><trkpt lat="45.6559738032464" lon="10.376123080565307"><ele>314.6666666666667</ele><time>2026-05-01T16:52:07Z</time></trkpt><trkpt lat="45.65595575920541" lon="10.375876404284584"><ele>314.33333333333337</ele><time>2026-05-01T16:52:08Z</time></trkpt><trkpt lat="45.65591834236074" lon="10.37563680808846"><ele>314.0</ele><time>2026-05-01T16:52:09Z</time></trkpt><trkpt lat="45.65586876055584" lon="10.375402991706805"><ele>314.0</ele><time>2026-05-01T16:52:10Z</time></trkpt><trkpt lat="45.65581208509006" lon="10.375183284674677"><ele>314.0</ele><time>2026-05-01T16:52:11Z</time></trkpt><trkpt lat="45.65574372672515" lon="10.374969169861714"><ele>314.0</ele><time>2026-05-01T16:52:12Z</time></trkpt><trkpt lat="45.65566725493988" lon="10.374758309574293"><ele>314.6666666666667</ele><time>2026-05-01T16:52:13Z</time></trkpt><trkpt lat="45.655583682119264" lon="10.37455054096118"><ele>315.3333333333333</ele><time>2026-05-01T16:52:14Z</time></trkpt><trkpt lat="45.65549997988889" lon="10.374342204291944"><ele>316.0</ele><time>2026-05-01T16:52:15Z</time></trkpt><trkpt lat="45.65542169248197" lon="10.374141357322769"><ele>316.0</ele><time>2026-05-01T16:52:16Z</time></trkpt><trkpt lat="45.65533154110257" lon="10.373920093418048"><ele>316.0</ele><time>2026-05-01T16:52:17Z</time></trkpt><trkpt lat="45.655246637122715" lon="10.37370624772368"><ele>316.0</ele><time>2026-05-01T16:52:18Z</time></trkpt><trkpt lat="45.6551621971949" lon="10.37349454919978"><ele>316.3333333333333</ele><time>2026-05-01T16:52:19Z</time></trkpt><trkpt lat="45.65507369364178" lon="10.373273313190388"><ele>316.6666666666667</ele><time>2026-05-01T16:52:20Z</time></trkpt><trkpt lat="45.654985852029675" lon="10.373053979389352"><ele>317.0</ele><time>2026-05-01T16:52:21Z</time></trkpt><trkpt lat="45.65489899500833" lon="10.372835266818965"><ele>317.33333333333337</ele><time>2026-05-01T16:52:22Z</time></trkpt><trkpt lat="45.65482537775397" lon="10.372604655797067"><ele>317.6666666666667</ele><time>2026-05-01T16:52:23Z</time></trkpt><trkpt lat="45.654735012447354" lon="10.372374764695849"><ele>318.0</ele><time>2026-05-01T16:52:24Z</time></trkpt><trkpt lat="45.654627339477955" lon="10.372147605762454"><ele>318.3333333333333</ele><time>2026-05-01T16:52:25Z</time></trkpt><trkpt lat="45.65453602475998" lon="10.371899174992867"><ele>318.66666666666663</ele><time>2026-05-01T16:52:26Z</time></trkpt><trkpt lat="45.65444318183318" lon="10.371651666995552"><ele>319.0</ele><time>2026-05-01T16:52:27Z</time></trkpt><trkpt lat="45.6543446092533" lon="10.371392092353801"><ele>322.0</ele><time>2026-05-01T16:52:28Z</time></trkpt><trkpt lat="45.65424022741315" lon="10.37112148822802"><ele>325.0</ele><time>2026-05-01T16:52:29Z</time></trkpt><trkpt lat="45.6541314594192" lon="10.370842892279684"><ele>328.0</ele><time>2026-05-01T16:52:30Z</time></trkpt><trkpt lat="45.65401860137575" lon="10.370559677025566"><ele>327.0</ele><time>2026-05-01T16:52:31Z</time></trkpt><trkpt lat="45.65390481918574" lon="10.370283391878305"><ele>326.0</ele><time>2026-05-01T16:52:32Z</time></trkpt><trkpt lat="45.653791459829996" lon="10.36999065592698"><ele>326.0</ele><time>2026-05-01T16:52:33Z</time></trkpt><trkpt lat="45.65368197439146" lon="10.369712471594319"><ele>326.0</ele><time>2026-05-01T16:52:34Z</time></trkpt><trkpt lat="45.653573205297896" lon="10.369430826931133"><ele>326.0</ele><time>2026-05-01T16:52:35Z</time></trkpt><trkpt lat="45.65346196729561" lon="10.369151032870654"><ele>327.6666666666667</ele><time>2026-05-01T16:52:36Z</time></trkpt><trkpt lat="45.65335145849519" lon="10.368878939263348"><ele>329.3333333333333</ele><time>2026-05-01T16:52:37Z</time></trkpt><trkpt lat="45.653244611191326" lon="10.368606558683497"><ele>331.0</ele><time>2026-05-01T16:52:38Z</time></trkpt><trkpt lat="45.65313792817769" lon="10.368350429752555"><ele>331.0</ele><time>2026-05-01T16:52:39Z</time></trkpt><trkpt lat="45.653023698323175" lon="10.368107655693123"><ele>331.0</ele><time>2026-05-01T16:52:40Z</time></trkpt><trkpt lat="45.65287815057638" lon="10.36787614660456"><ele>331.0</ele><time>2026-05-01T16:52:41Z</time></trkpt><trkpt lat="45.65271614262967" lon="10.367672870804215"><ele>334.66666666666663</ele><time>2026-05-01T16:52:42Z</time></trkpt><trkpt lat="45.65254034137663" lon="10.367502582941833"><ele>338.3333333333333</ele><time>2026-05-01T16:52:43Z</time></trkpt><trkpt lat="45.65234835577465" lon="10.367364880534009"><ele>342.0</ele><time>2026-05-01T16:52:44Z</time></trkpt><trkpt lat="45.65214330190787" lon="10.367254797669005"><ele>340.6666666666667</ele><time>2026-05-01T16:52:45Z</time></trkpt><trkpt lat="45.65193737390844" lon="10.367173537708142"><ele>339.33333333333337</ele><time>2026-05-01T16:52:46Z</time></trkpt><trkpt lat="45.651717014782264" lon="10.367130978595286"><ele>338.0</ele><time>2026-05-01T16:52:47Z</time></trkpt><trkpt lat="45.65149702479258" lon="10.367123194568315"><ele>338.0</ele><time>2026-05-01T16:52:48Z</time></trkpt><trkpt lat="45.65127716171313" lon="10.36713742078173"><ele>338.0</ele><time>2026-05-01T16:52:49Z</time></trkpt><trkpt lat="45.651054172691964" lon="10.367156704738699"><ele>338.0</ele><time>2026-05-01T16:52:50Z</time></trkpt><trkpt lat="45.65083023561236" lon="10.367175884643355"><ele>341.6666666666667</ele><time>2026-05-01T16:52:51Z</time></trkpt><trkpt lat="45.65060542224021" lon="10.367199518653651"><ele>345.3333333333333</ele><time>2026-05-01T16:52:52Z</time></trkpt><trkpt lat="45.65038224739358" lon="10.367224717517864"><ele>349.0</ele><time>2026-05-01T16:52:53Z</time></trkpt><trkpt lat="45.65016480131612" lon="10.367269906549224"><ele>349.0</ele><time>2026-05-01T16:52:54Z</time></trkpt><trkpt lat="45.64994875524" lon="10.367350476034893"><ele>349.0</ele><time>2026-05-01T16:52:55Z</time></trkpt><trkpt lat="45.64974158742167" lon="10.367465112628853"><ele>349.0</ele><time>2026-05-01T16:52:56Z</time></trkpt><trkpt lat="45.64954158059468" lon="10.367617877700994"><ele>347.0</ele><time>2026-05-01T16:52:57Z</time></trkpt><trkpt lat="45.64935042367059" lon="10.367790151797468"><ele>345.0</ele><time>2026-05-01T16:52:58Z</time></trkpt><trkpt lat="45.64916091544343" lon="10.367971058703668"><ele>347.5</ele><time>2026-05-01T16:52:59Z</time></trkpt><trkpt lat="45.64897072451805" lon="10.368149052843837"><ele>350.0</ele><time>2026-05-01T16:53:00Z</time></trkpt><trkpt lat="45.64878015614683" lon="10.368327722817432"><ele>351.0</ele><time>2026-05-01T16:53:01Z</time></trkpt><trkpt lat="45.648591641156564" lon="10.368506139606623"><ele>352.0</ele><time>2026-05-01T16:53:02Z</time></trkpt><trkpt lat="45.648404802733864" lon="10.368688325756054"><ele>353.5</ele><time>2026-05-01T16:53:03Z</time></trkpt><trkpt lat="45.64821168159756" lon="10.368869581177712"><ele>355.0</ele><time>2026-05-01T16:53:04Z</time></trkpt><trkpt lat="45.64801976269275" lon="10.369045200597913"><ele>355.0</ele><time>2026-05-01T16:53:05Z</time></trkpt><trkpt lat="45.64783094506343" lon="10.369217525893283"><ele>355.0</ele><time>2026-05-01T16:53:06Z</time></trkpt><trkpt lat="45.64763384776256" lon="10.36940116379155"><ele>356.5</ele><time>2026-05-01T16:53:07Z</time></trkpt><trkpt lat="45.64743799194324" lon="10.369581985524361"><ele>358.0</ele><time>2026-05-01T16:53:08Z</time></trkpt><trkpt lat="45.647248725871" lon="10.369756493926388"><ele>358.0</ele><time>2026-05-01T16:53:09Z</time></trkpt><trkpt lat="45.64705290778515" lon="10.369932682629026"><ele>358.0</ele><time>2026-05-01T16:53:10Z</time></trkpt><trkpt lat="45.64685740082818" lon="10.370110764593099"><ele>363.0</ele><time>2026-05-01T16:53:11Z</time></trkpt><trkpt lat="45.64665966015768" lon="10.370289296561747"><ele>368.0</ele><time>2026-05-01T16:53:12Z</time></trkpt><trkpt lat="45.64646614069517" lon="10.370470887043327"><ele>368.5</ele><time>2026-05-01T16:53:13Z</time></trkpt><trkpt lat="45.64627534589159" lon="10.370651722918566"><ele>369.0</ele><time>2026-05-01T16:53:14Z</time></trkpt><trkpt lat="45.64607116754877" lon="10.37080961647663"><ele>369.0</ele><time>2026-05-01T16:53:15Z</time></trkpt><trkpt lat="45.64587511259226" lon="10.37100871409221"><ele>369.0</ele><time>2026-05-01T16:53:16Z</time></trkpt><trkpt lat="45.645668949035716" lon="10.371180266608382"><ele>369.0</ele><time>2026-05-01T16:53:17Z</time></trkpt><trkpt lat="45.645456282603725" lon="10.37134411926679"><ele>369.0</ele><time>2026-05-01T16:53:18Z</time></trkpt><trkpt lat="45.64525041478353" lon="10.371503798252155"><ele>371.5</ele><time>2026-05-01T16:53:19Z</time></trkpt><trkpt lat="45.64504592603643" lon="10.37167104317012"><ele>374.0</ele><time>2026-05-01T16:53:20Z</time></trkpt><trkpt lat="45.64485337125945" lon="10.3718460073442"><ele>374.0</ele><time>2026-05-01T16:53:21Z</time></trkpt><trkpt lat="45.644656626665004" lon="10.372025186284057"><ele>374.0</ele><time>2026-05-01T16:53:22Z</time></trkpt><trkpt lat="45.64445550971812" lon="10.3721955022221"><ele>378.0</ele><time>2026-05-01T16:53:23Z</time></trkpt><trkpt lat="45.64424986053808" lon="10.372366079301846"><ele>382.0</ele><time>2026-05-01T16:53:24Z</time></trkpt><trkpt lat="45.644050827574915" lon="10.372528364959742"><ele>382.0</ele><time>2026-05-01T16:53:25Z</time></trkpt><trkpt lat="45.643851322766245" lon="10.372691450853265"><ele>382.0</ele><time>2026-05-01T16:53:26Z</time></trkpt><trkpt lat="45.64365172628896" lon="10.372860236500642"><ele>382.0</ele><time>2026-05-01T16:53:27Z</time></trkpt><trkpt lat="45.643452120995356" lon="10.373026064313109"><ele>382.0</ele><time>2026-05-01T16:53:28Z</time></trkpt><trkpt lat="45.64325399940543" lon="10.373186396375038"><ele>382.0</ele><time>2026-05-01T16:53:29Z</time></trkpt><trkpt lat="45.643055159051244" lon="10.373350216387196"><ele>382.0</ele><time>2026-05-01T16:53:30Z</time></trkpt><trkpt lat="45.64285742997451" lon="10.373515959456528"><ele>382.0</ele><time>2026-05-01T16:53:31Z</time></trkpt><trkpt lat="45.64266556368303" lon="10.373669969434767"><ele>382.0</ele><time>2026-05-01T16:53:32Z</time></trkpt><trkpt lat="45.64249808113689" lon="10.373809178666408"><ele>382.0</ele><time>2026-05-01T16:53:33Z</time></trkpt><trkpt lat="45.64235309797706" lon="10.373917039790111"><ele>382.0</ele><time>2026-05-01T16:53:34Z</time></trkpt><trkpt lat="45.64222195355356" lon="10.374007971743584"><ele>382.0</ele><time>2026-05-01T16:53:35Z</time></trkpt><trkpt lat="45.64209757143529" lon="10.37409081689263"><ele>382.0</ele><time>2026-05-01T16:53:36Z</time></trkpt><trkpt lat="45.64196878270918" lon="10.374166338656115"><ele>382.0</ele><time>2026-05-01T16:53:37Z</time></trkpt><trkpt lat="45.64184422168538" lon="10.374266958650903"><ele>382.25</ele><time>2026-05-01T16:53:38Z</time></trkpt><trkpt lat="45.64172273901439" lon="10.374390452023835"><ele>382.5</ele><time>2026-05-01T16:53:39Z</time></trkpt><trkpt lat="45.6415972025505" lon="10.374488403333507"><ele>382.75</ele><time>2026-05-01T16:53:40Z</time></trkpt><trkpt lat="45.641454905440405" lon="10.374533608728699"><ele>383.0</ele><time>2026-05-01T16:53:41Z</time></trkpt><trkpt lat="45.641304273534736" lon="10.374522028234772"><ele>383.0</ele><time>2026-05-01T16:53:42Z</time></trkpt><trkpt lat="45.64115572397446" lon="10.37446935702475"><ele>383.0</ele><time>2026-05-01T16:53:43Z</time></trkpt><trkpt lat="45.64099858648846" lon="10.374405747655251"><ele>383.0</ele><time>2026-05-01T16:53:44Z</time></trkpt><trkpt lat="45.640843416117846" lon="10.37433783738574"><ele>383.0</ele><time>2026-05-01T16:53:45Z</time></trkpt><trkpt lat="45.6406858495511" lon="10.37427915166105"><ele>383.0</ele><time>2026-05-01T16:53:46Z</time></trkpt><trkpt lat="45.64052227986809" lon="10.374235457712357"><ele>383.0</ele><time>2026-05-01T16:53:47Z</time></trkpt><trkpt lat="45.64035157001187" lon="10.374218358610833"><ele>384.6666666666667</ele><time>2026-05-01T16:53:48Z</time></trkpt><trkpt lat="45.64017619496902" lon="10.37422685184782"><ele>386.33333333333337</ele><time>2026-05-01T16:53:49Z</time></trkpt><trkpt lat="45.63999640760018" lon="10.374251391527476"><ele>388.0</ele><time>2026-05-01T16:53:50Z</time></trkpt><trkpt lat="45.63981554658177" lon="10.374271579890989"><ele>388.0</ele><time>2026-05-01T16:53:51Z</time></trkpt><trkpt lat="45.63963579420429" lon="10.374282098525773"><ele>388.0</ele><time>2026-05-01T16:53:52Z</time></trkpt><trkpt lat="45.639459295998094" lon="10.374287846185558"><ele>388.0</ele><time>2026-05-01T16:53:53Z</time></trkpt><trkpt lat="45.639276216154116" lon="10.37427877840776"><ele>387.6666666666667</ele><time>2026-05-01T16:53:54Z</time></trkpt><trkpt lat="45.639100824107814" lon="10.374238991654662"><ele>387.33333333333337</ele><time>2026-05-01T16:53:55Z</time></trkpt><trkpt lat="45.63893470101041" lon="10.374148577125661"><ele>387.0</ele><time>2026-05-01T16:53:56Z</time></trkpt><trkpt lat="45.63876732617162" lon="10.374056585373808"><ele>388.33333333333337</ele><time>2026-05-01T16:53:57Z</time></trkpt><trkpt lat="45.63859996431905" lon="10.37397485176363"><ele>389.6666666666667</ele><time>2026-05-01T16:53:58Z</time></trkpt><trkpt lat="45.638432019353964" lon="10.373911802194199"><ele>391.0</ele><time>2026-05-01T16:53:59Z</time></trkpt><trkpt lat="45.638262564266526" lon="10.373890871399627"><ele>391.0</ele><time>2026-05-01T16:54:00Z</time></trkpt><trkpt lat="45.638108215140306" lon="10.373922961085276"><ele>391.0</ele><time>2026-05-01T16:54:01Z</time></trkpt><trkpt lat="45.63791301531645" lon="10.373921079878"><ele>391.0</ele><time>2026-05-01T16:54:02Z</time></trkpt><trkpt lat="45.63773637861351" lon="10.373932460713812"><ele>391.33333333333337</ele><time>2026-05-01T16:54:03Z</time></trkpt><trkpt lat="45.63755983297827" lon="10.373944698006623"><ele>391.66666666666663</ele><time>2026-05-01T16:54:04Z</time></trkpt><trkpt lat="45.63737951833233" lon="10.37395512572299"><ele>392.0</ele><time>2026-05-01T16:54:05Z</time></trkpt><trkpt lat="45.637201865519216" lon="10.373961693149225"><ele>392.0</ele><time>2026-05-01T16:54:06Z</time></trkpt><trkpt lat="45.63701408329637" lon="10.373977487851471"><ele>392.0</ele><time>2026-05-01T16:54:07Z</time></trkpt><trkpt lat="45.63680439444334" lon="10.374003095573302"><ele>392.0</ele><time>2026-05-01T16:54:08Z</time></trkpt><trkpt lat="45.636584568453046" lon="10.374034779368774"><ele>392.0</ele><time>2026-05-01T16:54:09Z</time></trkpt><trkpt lat="45.636358946695914" lon="10.37407323233638"><ele>392.0</ele><time>2026-05-01T16:54:10Z</time></trkpt><trkpt lat="45.636122293210775" lon="10.374117760817281"><ele>392.0</ele><time>2026-05-01T16:54:11Z</time></trkpt><trkpt lat="45.63586762768911" lon="10.374171950557155"><ele>392.0</ele><time>2026-05-01T16:54:12Z</time></trkpt><trkpt lat="45.635592430915054" lon="10.3742449527416"><ele>392.5</ele><time>2026-05-01T16:54:13Z</time></trkpt><trkpt lat="45.63529807987831" lon="10.374300493159424"><ele>393.0</ele><time>2026-05-01T16:54:14Z</time></trkpt><trkpt lat="45.63499715409137" lon="10.37432713560827"><ele>393.0</ele><time>2026-05-01T16:54:15Z</time></trkpt><trkpt lat="45.63469489529873" lon="10.374368362363393"><ele>393.0</ele><time>2026-05-01T16:54:16Z</time></trkpt><trkpt lat="45.63439924750833" lon="10.374429527650646"><ele>395.0</ele><time>2026-05-01T16:54:17Z</time></trkpt><trkpt lat="45.634128603758015" lon="10.374485523647294"><ele>397.0</ele><time>2026-05-01T16:54:18Z</time></trkpt><trkpt lat="45.633868592706285" lon="10.374533865763059"><ele>397.0</ele><time>2026-05-01T16:54:19Z</time></trkpt><trkpt lat="45.633625770357575" lon="10.374581504395184"><ele>397.0</ele><time>2026-05-01T16:54:20Z</time></trkpt><trkpt lat="45.633394832779615" lon="10.374626715686375"><ele>397.0</ele><time>2026-05-01T16:54:21Z</time></trkpt><trkpt lat="45.63317510591511" lon="10.374661531888433"><ele>397.0</ele><time>2026-05-01T16:54:22Z</time></trkpt><trkpt lat="45.632958867444515" lon="10.374662234928763"><ele>397.0</ele><time>2026-05-01T16:54:23Z</time></trkpt><trkpt lat="45.632745313855715" lon="10.37461092873887"><ele>400.0</ele><time>2026-05-01T16:54:24Z</time></trkpt><trkpt lat="45.63254573960141" lon="10.374472121210085"><ele>403.0</ele><time>2026-05-01T16:54:25Z</time></trkpt><trkpt lat="45.63234069611451" lon="10.374315942409282"><ele>403.0</ele><time>2026-05-01T16:54:26Z</time></trkpt><trkpt lat="45.63212224442349" lon="10.374169441514347"><ele>403.0</ele><time>2026-05-01T16:54:27Z</time></trkpt><trkpt lat="45.63191659848922" lon="10.37400972370919"><ele>404.0</ele><time>2026-05-01T16:54:28Z</time></trkpt><trkpt lat="45.631731527330786" lon="10.373865879161384"><ele>405.0</ele><time>2026-05-01T16:54:29Z</time></trkpt><trkpt lat="45.631560612561366" lon="10.373755502266448"><ele>406.0</ele><time>2026-05-01T16:54:30Z</time></trkpt><trkpt lat="45.63139723588732" lon="10.373711826218956"><ele>409.0</ele><time>2026-05-01T16:54:31Z</time></trkpt><trkpt lat="45.63123161084495" lon="10.373743279724915"><ele>412.0</ele><time>2026-05-01T16:54:32Z</time></trkpt><trkpt lat="45.63105678970244" lon="10.373849866747134"><ele>415.0</ele><time>2026-05-01T16:54:33Z</time></trkpt><trkpt lat="45.63086923544109" lon="10.37399259637441"><ele>415.0</ele><time>2026-05-01T16:54:34Z</time></trkpt><trkpt lat="45.63067588378963" lon="10.374125690190622"><ele>415.0</ele><time>2026-05-01T16:54:35Z</time></trkpt><trkpt lat="45.63048352050203" lon="10.37426213976408"><ele>415.0</ele><time>2026-05-01T16:54:36Z</time></trkpt><trkpt lat="45.63032023012774" lon="10.37439407678534"><ele>418.75</ele><time>2026-05-01T16:54:37Z</time></trkpt><trkpt lat="45.63018157111138" lon="10.374513239260184"><ele>422.5</ele><time>2026-05-01T16:54:38Z</time></trkpt><trkpt lat="45.63006715791357" lon="10.37460524680136"><ele>426.25</ele><time>2026-05-01T16:54:39Z</time></trkpt><trkpt lat="45.629954014156944" lon="10.374648645838882"><ele>430.0</ele><time>2026-05-01T16:54:40Z</time></trkpt><trkpt lat="45.62982989941543" lon="10.374611148334399"><ele>430.0</ele><time>2026-05-01T16:54:41Z</time></trkpt><trkpt lat="45.6297188012201" lon="10.374453854174499"><ele>430.0</ele><time>2026-05-01T16:54:42Z</time></trkpt><trkpt lat="45.62959136111357" lon="10.37427066601594"><ele>430.0</ele><time>2026-05-01T16:54:43Z</time></trkpt><trkpt lat="45.62944978359892" lon="10.374084219130966"><ele>430.0</ele><time>2026-05-01T16:54:44Z</time></trkpt><trkpt lat="45.62926886250253" lon="10.373891303962417"><ele>430.0</ele><time>2026-05-01T16:54:45Z</time></trkpt><trkpt lat="45.62906277114335" lon="10.37372998709078"><ele>436.5</ele><time>2026-05-01T16:54:46Z</time></trkpt><trkpt lat="45.62883178536354" lon="10.373598861150963"><ele>443.0</ele><time>2026-05-01T16:54:47Z</time></trkpt><trkpt lat="45.62859169466449" lon="10.37347594768038"><ele>443.0</ele><time>2026-05-01T16:54:48Z</time></trkpt><trkpt lat="45.62837030944292" lon="10.373361278843403"><ele>443.0</ele><time>2026-05-01T16:54:49Z</time></trkpt><trkpt lat="45.62817919762929" lon="10.373241048959725"><ele>443.0</ele><time>2026-05-01T16:54:50Z</time></trkpt><trkpt lat="45.62801064913196" lon="10.373108707144063"><ele>444.3333333333333</ele><time>2026-05-01T16:54:51Z</time></trkpt><trkpt lat="45.62783972863622" lon="10.372959458934568"><ele>445.66666666666663</ele><time>2026-05-01T16:54:52Z</time></trkpt><trkpt lat="45.62766383207393" lon="10.372800495115127"><ele>447.0</ele><time>2026-05-01T16:54:53Z</time></trkpt><trkpt lat="45.6274922617558" lon="10.37263702713951"><ele>447.0</ele><time>2026-05-01T16:54:54Z</time></trkpt><trkpt lat="45.62734012124579" lon="10.372442500390202"><ele>447.0</ele><time>2026-05-01T16:54:55Z</time></trkpt><trkpt lat="45.62719985790503" lon="10.372209272452537"><ele>447.0</ele><time>2026-05-01T16:54:56Z</time></trkpt><trkpt lat="45.627079416841646" lon="10.371939461721366"><ele>447.33333333333337</ele><time>2026-05-01T16:54:57Z</time></trkpt><trkpt lat="45.62696799728172" lon="10.371667658448528"><ele>447.6666666666667</ele><time>2026-05-01T16:54:58Z</time></trkpt><trkpt lat="45.62686537735095" lon="10.371436251348037"><ele>448.0</ele><time>2026-05-01T16:54:59Z</time></trkpt><trkpt lat="45.62678946897748" lon="10.371228058908128"><ele>448.0</ele><time>2026-05-01T16:55:00Z</time></trkpt><trkpt lat="45.62672556181298" lon="10.371032486156983"><ele>448.0</ele><time>2026-05-01T16:55:01Z</time></trkpt><trkpt lat="45.626681280685446" lon="10.37081283318125"><ele>448.0</ele><time>2026-05-01T16:55:02Z</time></trkpt><trkpt lat="45.62665219373494" lon="10.370585749585983"><ele>448.5</ele><time>2026-05-01T16:55:03Z</time></trkpt><trkpt lat="45.626623412957066" lon="10.370394141739935"><ele>449.0</ele><time>2026-05-01T16:55:04Z</time></trkpt><trkpt lat="45.62655763238" lon="10.370259811751563"><ele>449.5</ele><time>2026-05-01T16:55:05Z</time></trkpt><trkpt lat="45.6264489521087" lon="10.370189655858496"><ele>450.0</ele><time>2026-05-01T16:55:06Z</time></trkpt><trkpt lat="45.626315980643206" lon="10.370201742107891"><ele>450.0</ele><time>2026-05-01T16:55:07Z</time></trkpt><trkpt lat="45.62619081562242" lon="10.370293132225722"><ele>450.0</ele><time>2026-05-01T16:55:08Z</time></trkpt><trkpt lat="45.626110468610065" lon="10.370448618748267"><ele>450.0</ele><time>2026-05-01T16:55:09Z</time></trkpt><trkpt lat="45.62608488947023" lon="10.37065023369872"><ele>450.0</ele><time>2026-05-01T16:55:10Z</time></trkpt><trkpt lat="45.62612211132424" lon="10.370872542866536"><ele>449.33333333333337</ele><time>2026-05-01T16:55:11Z</time></trkpt><trkpt lat="45.626194343443444" lon="10.371114388828616"><ele>448.6666666666667</ele><time>2026-05-01T16:55:12Z</time></trkpt><trkpt lat="45.62628772836943" lon="10.371385749931893"><ele>448.0</ele><time>2026-05-01T16:55:13Z</time></trkpt><trkpt lat="45.626388296985255" lon="10.371684948047273"><ele>449.33333333333337</ele><time>2026-05-01T16:55:14Z</time></trkpt><trkpt lat="45.626467336802065" lon="10.371974368510346"><ele>450.66666666666663</ele><time>2026-05-01T16:55:15Z</time></trkpt><trkpt lat="45.62653528363017" lon="10.372221876130581"><ele>452.0</ele><time>2026-05-01T16:55:16Z</time></trkpt><trkpt lat="45.626564486538484" lon="10.372446964012017"><ele>454.0</ele><time>2026-05-01T16:55:17Z</time></trkpt><trkpt lat="45.626567810139925" lon="10.372662934949767"><ele>456.0</ele><time>2026-05-01T16:55:18Z</time></trkpt><trkpt lat="45.62653008245746" lon="10.372876518412756"><ele>458.0</ele><time>2026-05-01T16:55:19Z</time></trkpt><trkpt lat="45.62641524621786" lon="10.373064233759438"><ele>459.5</ele><time>2026-05-01T16:55:20Z</time></trkpt><trkpt lat="45.626305081308374" lon="10.373236440077662"><ele>461.0</ele><time>2026-05-01T16:55:21Z</time></trkpt><trkpt lat="45.62620657988157" lon="10.37336473527614"><ele>462.5</ele><time>2026-05-01T16:55:22Z</time></trkpt><trkpt lat="45.62617437161971" lon="10.373534024117943"><ele>464.0</ele><time>2026-05-01T16:55:23Z</time></trkpt><trkpt lat="45.62619556617962" lon="10.373713255230285"><ele>467.25</ele><time>2026-05-01T16:55:24Z</time></trkpt><trkpt lat="45.62628064212923" lon="10.373864489734524"><ele>470.5</ele><time>2026-05-01T16:55:25Z</time></trkpt><trkpt lat="45.62641566321706" lon="10.373945292159597"><ele>473.75</ele><time>2026-05-01T16:55:26Z</time></trkpt><trkpt lat="45.626561044727524" lon="10.37394353987073"><ele>477.0</ele><time>2026-05-01T16:55:27Z</time></trkpt><trkpt lat="45.62671140560038" lon="10.373856874405858"><ele>472.66666666666663</ele><time>2026-05-01T16:55:28Z</time></trkpt><trkpt lat="45.62685530715013" lon="10.373743730204676"><ele>468.3333333333333</ele><time>2026-05-01T16:55:29Z</time></trkpt><trkpt lat="45.62700710874227" lon="10.373741987984827"><ele>464.0</ele><time>2026-05-01T16:55:30Z</time></trkpt><trkpt lat="45.6271373465459" lon="10.373802489423399"><ele>466.0</ele><time>2026-05-01T16:55:31Z</time></trkpt><trkpt lat="45.627243292862296" lon="10.373958523657103"><ele>468.0</ele><time>2026-05-01T16:55:32Z</time></trkpt><trkpt lat="45.62732956648523" lon="10.374157880868417"><ele>470.0</ele><time>2026-05-01T16:55:33Z</time></trkpt><trkpt lat="45.62741446078207" lon="10.374363814431245"><ele>470.0</ele><time>2026-05-01T16:55:34Z</time></trkpt><trkpt lat="45.62746924020979" lon="10.374535453661656"><ele>470.0</ele><time>2026-05-01T16:55:35Z</time></trkpt><trkpt lat="45.62751358462449" lon="10.3746869599536"><ele>470.0</ele><time>2026-05-01T16:55:36Z</time></trkpt><trkpt lat="45.62747007784845" lon="10.374834914160616"><ele>470.0</ele><time>2026-05-01T16:55:37Z</time></trkpt><trkpt lat="45.62737012987211" lon="10.374951538763781"><ele>471.75</ele><time>2026-05-01T16:55:38Z</time></trkpt><trkpt lat="45.62723928217559" lon="10.375001167516851"><ele>473.5</ele><time>2026-05-01T16:55:39Z</time></trkpt><trkpt lat="45.62709838957716" lon="10.374955676725529"><ele>475.25</ele><time>2026-05-01T16:55:40Z</time></trkpt><trkpt lat="45.62699289833811" lon="10.374778319754958"><ele>477.0</ele><time>2026-05-01T16:55:41Z</time></trkpt><trkpt lat="45.62688352577512" lon="10.374573228645652"><ele>477.0</ele><time>2026-05-01T16:55:42Z</time></trkpt><trkpt lat="45.62675772794041" lon="10.374386425600425"><ele>477.0</ele><time>2026-05-01T16:55:43Z</time></trkpt><trkpt lat="45.62659462620006" lon="10.374248209320198"><ele>477.0</ele><time>2026-05-01T16:55:44Z</time></trkpt><trkpt lat="45.62640824288943" lon="10.374224393857693"><ele>477.0</ele><time>2026-05-01T16:55:45Z</time></trkpt><trkpt lat="45.62622547618454" lon="10.374286243803994"><ele>477.0</ele><time>2026-05-01T16:55:46Z</time></trkpt><trkpt lat="45.62605751191812" lon="10.374429375656932"><ele>477.0</ele><time>2026-05-01T16:55:47Z</time></trkpt><trkpt lat="45.6258927132941" lon="10.374647080611169"><ele>485.0</ele><time>2026-05-01T16:55:48Z</time></trkpt><trkpt lat="45.62573187367944" lon="10.374922665867413"><ele>493.0</ele><time>2026-05-01T16:55:49Z</time></trkpt><trkpt lat="45.625558132717906" lon="10.375211479634343"><ele>493.0</ele><time>2026-05-01T16:55:50Z</time></trkpt><trkpt lat="45.625378664126956" lon="10.375486936115493"><ele>493.0</ele><time>2026-05-01T16:55:51Z</time></trkpt><trkpt lat="45.62521739090565" lon="10.375707891632143"><ele>494.0</ele><time>2026-05-01T16:55:52Z</time></trkpt><trkpt lat="45.625095369078394" lon="10.375876876166409"><ele>495.0</ele><time>2026-05-01T16:55:53Z</time></trkpt><trkpt lat="45.624994551427136" lon="10.376003664546257"><ele>496.0</ele><time>2026-05-01T16:55:54Z</time></trkpt><trkpt lat="45.62488253072172" lon="10.37608815334006"><ele>497.0</ele><time>2026-05-01T16:55:55Z</time></trkpt><trkpt lat="45.62474532520824" lon="10.376095781303162"><ele>497.0</ele><time>2026-05-01T16:55:56Z</time></trkpt><trkpt lat="45.624612510806834" lon="10.376009721406858"><ele>497.0</ele><time>2026-05-01T16:55:57Z</time></trkpt><trkpt lat="45.62451953067402" lon="10.375841458782187"><ele>497.0</ele><time>2026-05-01T16:55:58Z</time></trkpt><trkpt lat="45.624502923734475" lon="10.375619624900304"><ele>495.3333333333333</ele><time>2026-05-01T16:55:59Z</time></trkpt><trkpt lat="45.62453603595113" lon="10.375386436954361"><ele>493.66666666666663</ele><time>2026-05-01T16:56:00Z</time></trkpt><trkpt lat="45.62459072934519" lon="10.375116256517542"><ele>492.0</ele><time>2026-05-01T16:56:01Z</time></trkpt><trkpt lat="45.62465651080025" lon="10.374827704166602"><ele>497.5</ele><time>2026-05-01T16:56:02Z</time></trkpt><trkpt lat="45.62477196524709" lon="10.374523749929052"><ele>503.0</ele><time>2026-05-01T16:56:03Z</time></trkpt><trkpt lat="45.62493264338805" lon="10.374245591739822"><ele>503.0</ele><time>2026-05-01T16:56:04Z</time></trkpt><trkpt lat="45.62511420625331" lon="10.37399411567473"><ele>503.0</ele><time>2026-05-01T16:56:05Z</time></trkpt><trkpt lat="45.625276629317064" lon="10.373745995238519"><ele>498.0</ele><time>2026-05-01T16:56:06Z</time></trkpt><trkpt lat="45.6254090947415" lon="10.373522650527747"><ele>493.0</ele><time>2026-05-01T16:56:07Z</time></trkpt><trkpt lat="45.62551201731115" lon="10.373294217645952"><ele>488.0</ele><time>2026-05-01T16:56:08Z</time></trkpt><trkpt lat="45.625574775016155" lon="10.373032956681563"><ele>488.66666666666663</ele><time>2026-05-01T16:56:09Z</time></trkpt><trkpt lat="45.625600278641734" lon="10.372759123058342"><ele>489.33333333333337</ele><time>2026-05-01T16:56:10Z</time></trkpt><trkpt lat="45.625575536372544" lon="10.372486055182007"><ele>490.0</ele><time>2026-05-01T16:56:11Z</time></trkpt><trkpt lat="45.6255256508405" lon="10.372224796163335"><ele>488.0</ele><time>2026-05-01T16:56:12Z</time></trkpt><trkpt lat="45.625421838410375" lon="10.37198706693866"><ele>486.0</ele><time>2026-05-01T16:56:13Z</time></trkpt><trkpt lat="45.62531195130331" lon="10.371783599344692"><ele>484.0</ele><time>2026-05-01T16:56:14Z</time></trkpt><trkpt lat="45.62521758583729" lon="10.371591075607943"><ele>491.0</ele><time>2026-05-01T16:56:15Z</time></trkpt><trkpt lat="45.62512852184217" lon="10.371408874178773"><ele>498.0</ele><time>2026-05-01T16:56:16Z</time></trkpt><trkpt lat="45.62505018525788" lon="10.371229553652208"><ele>505.0</ele><time>2026-05-01T16:56:17Z</time></trkpt><trkpt lat="45.62498051508498" lon="10.371062707351475"><ele>512.0</ele><time>2026-05-01T16:56:18Z</time></trkpt><trkpt lat="45.62490226283981" lon="10.370905120326741"><ele>512.0</ele><time>2026-05-01T16:56:19Z</time></trkpt><trkpt lat="45.624803204104644" lon="10.370779862914715"><ele>512.0</ele><time>2026-05-01T16:56:20Z</time></trkpt><trkpt lat="45.624677836596476" lon="10.37069179860431"><ele>512.0</ele><time>2026-05-01T16:56:21Z</time></trkpt><trkpt lat="45.624544785634946" lon="10.370654791100826"><ele>512.0</ele><time>2026-05-01T16:56:22Z</time></trkpt><trkpt lat="45.62441632707359" lon="10.370650266779174"><ele>512.5</ele><time>2026-05-01T16:56:23Z</time></trkpt><trkpt lat="45.62428633009062" lon="10.370702978872114"><ele>513.0</ele><time>2026-05-01T16:56:24Z</time></trkpt><trkpt lat="45.62416900841603" lon="10.370794959148107"><ele>513.5</ele><time>2026-05-01T16:56:25Z</time></trkpt><trkpt lat="45.624060655862756" lon="10.37094987825771"><ele>514.0</ele><time>2026-05-01T16:56:26Z</time></trkpt><trkpt lat="45.623951108082714" lon="10.37115979520769"><ele>516.3333333333334</ele><time>2026-05-01T16:56:27Z</time></trkpt><trkpt lat="45.62381948847392" lon="10.37140056250991"><ele>518.6666666666666</ele><time>2026-05-01T16:56:28Z</time></trkpt><trkpt lat="45.623681328170576" lon="10.371627212844274"><ele>521.0</ele><time>2026-05-01T16:56:29Z</time></trkpt><trkpt lat="45.62355960102072" lon="10.371822372529465"><ele>521.0</ele><time>2026-05-01T16:56:30Z</time></trkpt><trkpt lat="45.62345144330167" lon="10.371969310336281"><ele>521.0</ele><time>2026-05-01T16:56:31Z</time></trkpt><trkpt lat="45.62332309488455" lon="10.372062832724703"><ele>521.0</ele><time>2026-05-01T16:56:32Z</time></trkpt><trkpt lat="45.623165472456606" lon="10.372053697837124"><ele>521.0</ele><time>2026-05-01T16:56:33Z</time></trkpt><trkpt lat="45.622988679677796" lon="10.372044395635946"><ele>521.0</ele><time>2026-05-01T16:56:34Z</time></trkpt><trkpt lat="45.62281860266251" lon="10.372054332481229"><ele>521.0</ele><time>2026-05-01T16:56:35Z</time></trkpt><trkpt lat="45.622649984420114" lon="10.372146350580381"><ele>526.6666666666666</ele><time>2026-05-01T16:56:36Z</time></trkpt><trkpt lat="45.622483505169576" lon="10.372311186905518"><ele>532.3333333333334</ele><time>2026-05-01T16:56:37Z</time></trkpt><trkpt lat="45.62233899885151" lon="10.372487235039157"><ele>538.0</ele><time>2026-05-01T16:56:38Z</time></trkpt><trkpt lat="45.622196097512685" lon="10.372582195915708"><ele>538.0</ele><time>2026-05-01T16:56:39Z</time></trkpt><trkpt lat="45.62203432244957" lon="10.372555916286922"><ele>538.0</ele><time>2026-05-01T16:56:40Z</time></trkpt><trkpt lat="45.62187032670655" lon="10.372501223077585"><ele>538.0</ele><time>2026-05-01T16:56:41Z</time></trkpt><trkpt lat="45.62171032746021" lon="10.372343007910626"><ele>534.5</ele><time>2026-05-01T16:56:42Z</time></trkpt><trkpt lat="45.621533962192714" lon="10.372148869862842"><ele>531.0</ele><time>2026-05-01T16:56:43Z</time></trkpt><trkpt lat="45.62134362774836" lon="10.371961090992771"><ele>531.0</ele><time>2026-05-01T16:56:44Z</time></trkpt><trkpt lat="45.621174682985895" lon="10.371801410606869"><ele>531.0</ele><time>2026-05-01T16:56:45Z</time></trkpt><trkpt lat="45.62103332504704" lon="10.371658774697156"><ele>531.0</ele><time>2026-05-01T16:56:46Z</time></trkpt><trkpt lat="45.620942515277534" lon="10.37148893964228"><ele>532.3333333333334</ele><time>2026-05-01T16:56:47Z</time></trkpt><trkpt lat="45.62087439058037" lon="10.371300134911522"><ele>533.6666666666667</ele><time>2026-05-01T16:56:48Z</time></trkpt><trkpt lat="45.62086400134789" lon="10.371064769577059"><ele>535.0</ele><time>2026-05-01T16:56:49Z</time></trkpt><trkpt lat="45.62085946281322" lon="10.370795244793923"><ele>536.3333333333334</ele><time>2026-05-01T16:56:50Z</time></trkpt><trkpt lat="45.62085969573015" lon="10.370503147175338"><ele>537.6666666666666</ele><time>2026-05-01T16:56:51Z</time></trkpt><trkpt lat="45.62084922338549" lon="10.370186911161149"><ele>539.0</ele><time>2026-05-01T16:56:52Z</time></trkpt><trkpt lat="45.62084913672789" lon="10.369889410785438"><ele>538.0</ele><time>2026-05-01T16:56:53Z</time></trkpt><trkpt lat="45.62084606652001" lon="10.369638844588172"><ele>537.0</ele><time>2026-05-01T16:56:54Z</time></trkpt><trkpt lat="45.62084564173486" lon="10.369443292497653"><ele>536.0</ele><time>2026-05-01T16:56:55Z</time></trkpt><trkpt lat="45.62085279023565" lon="10.369267734064536"><ele>535.0</ele><time>2026-05-01T16:56:56Z</time></trkpt><trkpt lat="45.62089875427185" lon="10.369103914993547"><ele>535.0</ele><time>2026-05-01T16:56:57Z</time></trkpt><trkpt lat="45.621025053073346" lon="10.368972168487954"><ele>535.0</ele><time>2026-05-01T16:56:58Z</time></trkpt><trkpt lat="45.62110972658011" lon="10.368784358131698"><ele>535.0</ele><time>2026-05-01T16:56:59Z</time></trkpt><trkpt lat="45.62116335722628" lon="10.368615771400439"><ele>535.0</ele><time>2026-05-01T16:57:00Z</time></trkpt><trkpt lat="45.621155220891836" lon="10.368425264962985"><ele>535.25</ele><time>2026-05-01T16:57:01Z</time></trkpt><trkpt lat="45.621107982656376" lon="10.36820242235684"><ele>535.5</ele><time>2026-05-01T16:57:02Z</time></trkpt><trkpt lat="45.62106455786088" lon="10.367988612763504"><ele>535.75</ele><time>2026-05-01T16:57:03Z</time></trkpt><trkpt lat="45.62101794798295" lon="10.367814035002898"><ele>536.0</ele><time>2026-05-01T16:57:04Z</time></trkpt><trkpt lat="45.62092490454686" lon="10.367681448587705"><ele>542.3333333333333</ele><time>2026-05-01T16:57:05Z</time></trkpt><trkpt lat="45.6207783940992" lon="10.36759779085623"><ele>548.6666666666666</ele><time>2026-05-01T16:57:06Z</time></trkpt><trkpt lat="45.62059611959595" lon="10.367555851583969"><ele>555.0</ele><time>2026-05-01T16:57:07Z</time></trkpt><trkpt lat="45.62041720098962" lon="10.367499471530017"><ele>556.0</ele><time>2026-05-01T16:57:08Z</time></trkpt><trkpt lat="45.6202778572013" lon="10.367367929924304"><ele>557.0</ele><time>2026-05-01T16:57:09Z</time></trkpt><trkpt lat="45.62016206895785" lon="10.36719211099093"><ele>558.0</ele><time>2026-05-01T16:57:10Z</time></trkpt><trkpt lat="45.62004939030412" lon="10.366992137593565"><ele>558.0</ele><time>2026-05-01T16:57:11Z</time></trkpt><trkpt lat="45.61993765545054" lon="10.366820509917018"><ele>558.0</ele><time>2026-05-01T16:57:12Z</time></trkpt><trkpt lat="45.61984626016229" lon="10.366651392045108"><ele>558.0</ele><time>2026-05-01T16:57:13Z</time></trkpt><trkpt lat="45.61976130619871" lon="10.366494762094101"><ele>558.75</ele><time>2026-05-01T16:57:14Z</time></trkpt><trkpt lat="45.61967861984817" lon="10.366343663975565"><ele>559.5</ele><time>2026-05-01T16:57:15Z</time></trkpt><trkpt lat="45.61960868229086" lon="10.366218355458102"><ele>560.25</ele><time>2026-05-01T16:57:16Z</time></trkpt><trkpt lat="45.61954081257992" lon="10.366099795077613"><ele>561.0</ele><time>2026-05-01T16:57:17Z</time></trkpt><trkpt lat="45.619471833385596" lon="10.365971158201633"><ele>561.0</ele><time>2026-05-01T16:57:18Z</time></trkpt><trkpt lat="45.6193993244653" lon="10.365839320780157"><ele>561.0</ele><time>2026-05-01T16:57:19Z</time></trkpt><trkpt lat="45.61932622641207" lon="10.365708475754522"><ele>561.0</ele><time>2026-05-01T16:57:20Z</time></trkpt><trkpt lat="45.61925530037075" lon="10.365588090156212"><ele>561.0</ele><time>2026-05-01T16:57:21Z</time></trkpt><trkpt lat="45.61916015756449" lon="10.365518996631796"><ele>561.0</ele><time>2026-05-01T16:57:22Z</time></trkpt><trkpt lat="45.61903821863773" lon="10.365544702041374"><ele>561.0</ele><time>2026-05-01T16:57:23Z</time></trkpt><trkpt lat="45.6189186941722" lon="10.365664031369334"><ele>561.0</ele><time>2026-05-01T16:57:24Z</time></trkpt><trkpt lat="45.61881281680724" lon="10.365863349241346"><ele>561.0</ele><time>2026-05-01T16:57:25Z</time></trkpt><trkpt lat="45.61869368235164" lon="10.366091315952639"><ele>555.0</ele><time>2026-05-01T16:57:26Z</time></trkpt><trkpt lat="45.61853213865864" lon="10.366305663700777"><ele>549.0</ele><time>2026-05-01T16:57:27Z</time></trkpt><trkpt lat="45.618330145749695" lon="10.36646161618503"><ele>549.0</ele><time>2026-05-01T16:57:28Z</time></trkpt><trkpt lat="45.6181648711176" lon="10.366661629995793"><ele>549.0</ele><time>2026-05-01T16:57:29Z</time></trkpt><trkpt lat="45.6180128529804" lon="10.366921823525162"><ele>549.0</ele><time>2026-05-01T16:57:30Z</time></trkpt><trkpt lat="45.61788743320601" lon="10.36718069115303"><ele>549.0</ele><time>2026-05-01T16:57:31Z</time></trkpt><trkpt lat="45.61779668017094" lon="10.367405832932306"><ele>549.0</ele><time>2026-05-01T16:57:32Z</time></trkpt><trkpt lat="45.6177166832744" lon="10.367592418074276"><ele>553.3333333333334</ele><time>2026-05-01T16:57:33Z</time></trkpt><trkpt lat="45.617606893744025" lon="10.367737060130741"><ele>557.6666666666667</ele><time>2026-05-01T16:57:34Z</time></trkpt><trkpt lat="45.617456213027104" lon="10.36778353586497"><ele>562.0</ele><time>2026-05-01T16:57:35Z</time></trkpt><trkpt lat="45.61729716146683" lon="10.367772898367708"><ele>562.0</ele><time>2026-05-01T16:57:36Z</time></trkpt><trkpt lat="45.61716460392533" lon="10.367643138303741"><ele>562.0</ele><time>2026-05-01T16:57:37Z</time></trkpt><trkpt lat="45.61705101658151" lon="10.367471621190496"><ele>562.0</ele><time>2026-05-01T16:57:38Z</time></trkpt><trkpt lat="45.616921030623544" lon="10.367248935441104"><ele>563.3333333333334</ele><time>2026-05-01T16:57:39Z</time></trkpt><trkpt lat="45.61680933356659" lon="10.366969771103738"><ele>564.6666666666666</ele><time>2026-05-01T16:57:40Z</time></trkpt><trkpt lat="45.61670432610351" lon="10.366686862431186"><ele>566.0</ele><time>2026-05-01T16:57:41Z</time></trkpt><trkpt lat="45.61662254354912" lon="10.366449027897447"><ele>569.6</ele><time>2026-05-01T16:57:42Z</time></trkpt><trkpt lat="45.61656201477975" lon="10.366270185562364"><ele>573.2</ele><time>2026-05-01T16:57:43Z</time></trkpt><trkpt lat="45.61651630368234" lon="10.366133477243762"><ele>576.8</ele><time>2026-05-01T16:57:44Z</time></trkpt><trkpt lat="45.616444078645" lon="10.366042524288078"><ele>580.4</ele><time>2026-05-01T16:57:45Z</time></trkpt><trkpt lat="45.61634876996027" lon="10.36601211915175"><ele>584.0</ele><time>2026-05-01T16:57:46Z</time></trkpt><trkpt lat="45.61624738668815" lon="10.366066058366739"><ele>584.0</ele><time>2026-05-01T16:57:47Z</time></trkpt><trkpt lat="45.61615945902653" lon="10.366198214590586"><ele>584.0</ele><time>2026-05-01T16:57:48Z</time></trkpt><trkpt lat="45.616100103586035" lon="10.366386053008341"><ele>584.0</ele><time>2026-05-01T16:57:49Z</time></trkpt><trkpt lat="45.61603748046403" lon="10.366578942523883"><ele>584.0</ele><time>2026-05-01T16:57:50Z</time></trkpt><trkpt lat="45.61592910800439" lon="10.366742078844759"><ele>579.3333333333333</ele><time>2026-05-01T16:57:51Z</time></trkpt><trkpt lat="45.615797390046964" lon="10.366846077373918"><ele>574.6666666666666</ele><time>2026-05-01T16:57:52Z</time></trkpt><trkpt lat="45.61563512726158" lon="10.366908287179507"><ele>570.0</ele><time>2026-05-01T16:57:53Z</time></trkpt><trkpt lat="45.615438921339816" lon="10.366942644233651"><ele>569.6666666666666</ele><time>2026-05-01T16:57:54Z</time></trkpt><trkpt lat="45.615255049442595" lon="10.366959017358138"><ele>569.3333333333333</ele><time>2026-05-01T16:57:55Z</time></trkpt><trkpt lat="45.61510027294262" lon="10.366956436365028"><ele>569.0</ele><time>2026-05-01T16:57:56Z</time></trkpt><trkpt lat="45.61497362728793" lon="10.366877727738919"><ele>569.0</ele><time>2026-05-01T16:57:57Z</time></trkpt><trkpt lat="45.61487365307459" lon="10.36674519981387"><ele>569.0</ele><time>2026-05-01T16:57:58Z</time></trkpt><trkpt lat="45.614799111518295" lon="10.366553673709284"><ele>569.0</ele><time>2026-05-01T16:57:59Z</time></trkpt><trkpt lat="45.614774702189884" lon="10.36633895491283"><ele>569.0</ele><time>2026-05-01T16:58:00Z</time></trkpt><trkpt lat="45.61478547905731" lon="10.366109738257082"><ele>571.0</ele><time>2026-05-01T16:58:01Z</time></trkpt><trkpt lat="45.61479110440978" lon="10.3658858709205"><ele>573.0</ele><time>2026-05-01T16:58:02Z</time></trkpt><trkpt lat="45.614779781900566" lon="10.365688213302569"><ele>575.0</ele><time>2026-05-01T16:58:03Z</time></trkpt><trkpt lat="45.61468433889144" lon="10.365511277108816"><ele>571.0</ele><time>2026-05-01T16:58:04Z</time></trkpt><trkpt lat="45.61453850154268" lon="10.36536790944501"><ele>567.0</ele><time>2026-05-01T16:58:05Z</time></trkpt><trkpt lat="45.614381667377216" lon="10.365208659501"><ele>563.0</ele><time>2026-05-01T16:58:06Z</time></trkpt><trkpt lat="45.61426885632692" lon="10.365035150636874"><ele>563.0</ele><time>2026-05-01T16:58:07Z</time></trkpt><trkpt lat="45.61419591842049" lon="10.364834092674663"><ele>563.0</ele><time>2026-05-01T16:58:08Z</time></trkpt><trkpt lat="45.61417304362778" lon="10.36461901485443"><ele>563.0</ele><time>2026-05-01T16:58:09Z</time></trkpt><trkpt lat="45.61422595931025" lon="10.364379124582552"><ele>563.6666666666666</ele><time>2026-05-01T16:58:10Z</time></trkpt><trkpt lat="45.614261845247846" lon="10.364134781523662"><ele>564.3333333333334</ele><time>2026-05-01T16:58:11Z</time></trkpt><trkpt lat="45.61431920113351" lon="10.363941325785127"><ele>565.0</ele><time>2026-05-01T16:58:12Z</time></trkpt><trkpt lat="45.61432052104485" lon="10.363757396203534"><ele>569.75</ele><time>2026-05-01T16:58:13Z</time></trkpt><trkpt lat="45.61426159170127" lon="10.363600742437118"><ele>574.5</ele><time>2026-05-01T16:58:14Z</time></trkpt><trkpt lat="45.61414624501917" lon="10.363512258311392"><ele>579.25</ele><time>2026-05-01T16:58:15Z</time></trkpt><trkpt lat="45.61398596961408" lon="10.363479371275908"><ele>584.0</ele><time>2026-05-01T16:58:16Z</time></trkpt><trkpt lat="45.613788705424035" lon="10.363521916106277"><ele>586.3333333333333</ele><time>2026-05-01T16:58:17Z</time></trkpt><trkpt lat="45.613583290510284" lon="10.363576524872189"><ele>588.6666666666666</ele><time>2026-05-01T16:58:18Z</time></trkpt><trkpt lat="45.61335774446106" lon="10.36365510082174"><ele>591.0</ele><time>2026-05-01T16:58:19Z</time></trkpt><trkpt lat="45.613129056338046" lon="10.363787509152694"><ele>587.0</ele><time>2026-05-01T16:58:20Z</time></trkpt><trkpt lat="45.61289781247143" lon="10.363972862196688"><ele>583.0</ele><time>2026-05-01T16:58:21Z</time></trkpt><trkpt lat="45.612680946798065" lon="10.364169766893559"><ele>583.0</ele><time>2026-05-01T16:58:22Z</time></trkpt><trkpt lat="45.61250161352166" lon="10.36432488102861"><ele>583.0</ele><time>2026-05-01T16:58:23Z</time></trkpt><trkpt lat="45.61235534615992" lon="10.364445584065583"><ele>583.0</ele><time>2026-05-01T16:58:24Z</time></trkpt><trkpt lat="45.61221977818042" lon="10.364535846752446"><ele>583.0</ele><time>2026-05-01T16:58:25Z</time></trkpt><trkpt lat="45.612066157552114" lon="10.364589581749527"><ele>583.0</ele><time>2026-05-01T16:58:26Z</time></trkpt><trkpt lat="45.61190422433682" lon="10.364545807899509"><ele>583.0</ele><time>2026-05-01T16:58:27Z</time></trkpt><trkpt lat="45.61175566553883" lon="10.364489643743347"><ele>580.0</ele><time>2026-05-01T16:58:28Z</time></trkpt><trkpt lat="45.61163265268294" lon="10.364346129616763"><ele>577.0</ele><time>2026-05-01T16:58:29Z</time></trkpt><trkpt lat="45.61158961461453" lon="10.364131216587074"><ele>574.0</ele><time>2026-05-01T16:58:30Z</time></trkpt><trkpt lat="45.61157155573435" lon="10.363901705876557"><ele>581.3333333333334</ele><time>2026-05-01T16:58:31Z</time></trkpt><trkpt lat="45.6115287711732" lon="10.363648426155825"><ele>588.6666666666666</ele><time>2026-05-01T16:58:32Z</time></trkpt><trkpt lat="45.61146605728529" lon="10.363439389196138"><ele>596.0</ele><time>2026-05-01T16:58:33Z</time></trkpt><trkpt lat="45.61133437172237" lon="10.363278339284362"><ele>596.6666666666666</ele><time>2026-05-01T16:58:34Z</time></trkpt><trkpt lat="45.611145039382336" lon="10.363156525737404"><ele>597.3333333333334</ele><time>2026-05-01T16:58:35Z</time></trkpt><trkpt lat="45.610924028099944" lon="10.363053485333262"><ele>598.0</ele><time>2026-05-01T16:58:36Z</time></trkpt><trkpt lat="45.61072167743584" lon="10.362936281996681"><ele>598.0</ele><time>2026-05-01T16:58:37Z</time></trkpt><trkpt lat="45.6105627919835" lon="10.362765923823709"><ele>598.0</ele><time>2026-05-01T16:58:38Z</time></trkpt><trkpt lat="45.610430873490756" lon="10.362543875899084"><ele>598.0</ele><time>2026-05-01T16:58:39Z</time></trkpt><trkpt lat="45.61031484733289" lon="10.362290779124562"><ele>589.6666666666667</ele><time>2026-05-01T16:58:40Z</time></trkpt><trkpt lat="45.61019916388475" lon="10.362071667616489"><ele>581.3333333333334</ele><time>2026-05-01T16:58:41Z</time></trkpt><trkpt lat="45.61007154899711" lon="10.361891401468196"><ele>573.0</ele><time>2026-05-01T16:58:42Z</time></trkpt><trkpt lat="45.609936206894915" lon="10.361768736160073"><ele>573.0</ele><time>2026-05-01T16:58:43Z</time></trkpt><trkpt lat="45.60979596905064" lon="10.361701044013842"><ele>573.0</ele><time>2026-05-01T16:58:44Z</time></trkpt><trkpt lat="45.609684249955805" lon="10.361660335819488"><ele>573.0</ele><time>2026-05-01T16:58:45Z</time></trkpt><trkpt lat="45.609605794556956" lon="10.361585653725221"><ele>573.0</ele><time>2026-05-01T16:58:46Z</time></trkpt><trkpt lat="45.60956969105163" lon="10.36147089067901"><ele>573.0</ele><time>2026-05-01T16:58:47Z</time></trkpt><trkpt lat="45.60958255230908" lon="10.361328433173973"><ele>569.0</ele><time>2026-05-01T16:58:48Z</time></trkpt><trkpt lat="45.60965404102254" lon="10.36120768063687"><ele>565.0</ele><time>2026-05-01T16:58:49Z</time></trkpt><trkpt lat="45.60977430713299" lon="10.361145061828474"><ele>561.0</ele><time>2026-05-01T16:58:50Z</time></trkpt><trkpt lat="45.609937113691345" lon="10.361192115582265"><ele>557.0</ele><time>2026-05-01T16:58:51Z</time></trkpt><trkpt lat="45.61013716223316" lon="10.361173495525518"><ele>558.0</ele><time>2026-05-01T16:58:52Z</time></trkpt><trkpt lat="45.61032744617248" lon="10.361180859388272"><ele>559.0</ele><time>2026-05-01T16:58:53Z</time></trkpt><trkpt lat="45.61047774286506" lon="10.361170258438165"><ele>560.0</ele><time>2026-05-01T16:58:54Z</time></trkpt><trkpt lat="45.61059238709219" lon="10.361160111669284"><ele>560.0</ele><time>2026-05-01T16:58:55Z</time></trkpt><trkpt lat="45.61068468673791" lon="10.361152641030912"><ele>560.0</ele><time>2026-05-01T16:58:56Z</time></trkpt><trkpt lat="45.610786309769615" lon="10.361149722602482"><ele>560.0</ele><time>2026-05-01T16:58:58Z</time></trkpt><trkpt lat="45.610860991979614" lon="10.36115325616342"><ele>560.0</ele><time>2026-05-01T16:59:01Z</time></trkpt><trkpt lat="45.61081230157444" lon="10.360970052476901"><ele>560.0</ele><time>2026-05-01T16:59:03Z</time></trkpt><trkpt lat="45.61073679691261" lon="10.360991460952976"><ele>560.0</ele><time>2026-05-01T16:59:05Z</time></trkpt><trkpt lat="45.6106805168522" lon="10.361075294438976"><ele>560.0</ele><time>2026-05-01T16:59:08Z</time></trkpt><trkpt lat="45.6106016342784" lon="10.361074912146758"><ele>560.0</ele><time>2026-05-01T17:27:05Z</time></trkpt><trkpt lat="45.61053255871829" lon="10.361050717053173"><ele>560.0</ele><time>2026-05-01T17:27:07Z</time></trkpt><trkpt lat="45.610463684692164" lon="10.361068653156352"><ele>560.0</ele><time>2026-05-01T17:27:09Z</time></trkpt><trkpt lat="45.610385081709154" lon="10.361055012202277"><ele>560.0</ele><time>2026-05-01T17:27:12Z</time></trkpt><trkpt lat="45.61034875451581" lon="10.361138639705368"><ele>560.0</ele><time>2026-05-01T17:27:16Z</time></trkpt><trkpt lat="45.61041988975502" lon="10.361202522563477"><ele>560.0</ele><time>2026-05-01T17:27:18Z</time></trkpt><trkpt lat="45.610496198464645" lon="10.361185811983628"><ele>560.0</ele><time>2026-05-01T17:27:18.999Z</time></trkpt><trkpt lat="45.61058377149911" lon="10.361175676466525"><ele>560.0</ele><time>2026-05-01T17:27:19.999Z</time></trkpt><trkpt lat="45.61067416250171" lon="10.36116739416847"><ele>560.0</ele><time>2026-05-01T17:27:20.999Z</time></trkpt><trkpt lat="45.61074478595148" lon="10.361167836959055"><ele>560.0</ele><time>2026-05-01T17:27:21.999Z</time></trkpt><trkpt lat="45.61080810152209" lon="10.361165701932164"><ele>560.0</ele><time>2026-05-01T17:27:23Z</time></trkpt><trkpt lat="45.61088202180048" lon="10.361154420030804"><ele>560.0</ele><time>2026-05-01T17:27:23.999Z</time></trkpt><trkpt lat="45.61097077810244" lon="10.361136020989383"><ele>560.0</ele><time>2026-05-01T17:27:24.999Z</time></trkpt><trkpt lat="45.6110623099567" lon="10.361102767712605"><ele>560.0</ele><time>2026-05-01T17:27:25.999Z</time></trkpt><trkpt lat="45.61115046179067" lon="10.361047212748245"><ele>560.0</ele><time>2026-05-01T17:27:26.999Z</time></trkpt><trkpt lat="45.61123753125974" lon="10.360975866147147"><ele>560.0</ele><time>2026-05-01T17:27:27.999Z</time></trkpt><trkpt lat="45.61131858665091" lon="10.360868696642385"><ele>560.5</ele><time>2026-05-01T17:27:28.999Z</time></trkpt><trkpt lat="45.61139188395158" lon="10.360722878114052"><ele>561.0</ele><time>2026-05-01T17:27:29.999Z</time></trkpt><trkpt lat="45.61144845460655" lon="10.36054617616885"><ele>561.5</ele><time>2026-05-01T17:27:30.999Z</time></trkpt><trkpt lat="45.61149839685453" lon="10.360376890379992"><ele>562.0</ele><time>2026-05-01T17:27:31.999Z</time></trkpt><trkpt lat="45.61155011979872" lon="10.360197350407375"><ele>562.0</ele><time>2026-05-01T17:27:32.999Z</time></trkpt><trkpt lat="45.61159760527408" lon="10.360008519561768"><ele>562.0</ele><time>2026-05-01T17:27:33.999Z</time></trkpt><trkpt lat="45.611656163447826" lon="10.359819614206392"><ele>562.0</ele><time>2026-05-01T17:27:34.999Z</time></trkpt><trkpt lat="45.61172404949428" lon="10.359632894097558"><ele>562.0</ele><time>2026-05-01T17:27:35.999Z</time></trkpt><trkpt lat="45.6117996836251" lon="10.359437420014943"><ele>562.3333333333334</ele><time>2026-05-01T17:27:36.999Z</time></trkpt><trkpt lat="45.61188510146177" lon="10.359242450093165"><ele>562.6666666666666</ele><time>2026-05-01T17:27:37.999Z</time></trkpt><trkpt lat="45.611979986919245" lon="10.359049147606703"><ele>563.0</ele><time>2026-05-01T17:27:38.999Z</time></trkpt><trkpt lat="45.612073193731334" lon="10.358858088326045"><ele>563.0</ele><time>2026-05-01T17:27:39.999Z</time></trkpt><trkpt lat="45.61216171099257" lon="10.35867986394661"><ele>563.0</ele><time>2026-05-01T17:27:40.999Z</time></trkpt><trkpt lat="45.61224804870577" lon="10.358495813761254"><ele>563.0</ele><time>2026-05-01T17:27:41.999Z</time></trkpt><trkpt lat="45.61233205586594" lon="10.358321733867124"><ele>563.0</ele><time>2026-05-01T17:27:42.999Z</time></trkpt><trkpt lat="45.61241328450291" lon="10.358146514999607"><ele>563.0</ele><time>2026-05-01T17:27:43.999Z</time></trkpt><trkpt lat="45.612488043652604" lon="10.357980186687987"><ele>563.0</ele><time>2026-05-01T17:27:44.999Z</time></trkpt><trkpt lat="45.612556476157515" lon="10.357831809121164"><ele>563.0</ele><time>2026-05-01T17:27:45.999Z</time></trkpt><trkpt lat="45.61261827860495" lon="10.357691845590585"><ele>560.5</ele><time>2026-05-01T17:27:46.999Z</time></trkpt><trkpt lat="45.61267597815435" lon="10.357566205237235"><ele>558.0</ele><time>2026-05-01T17:27:47.999Z</time></trkpt><trkpt lat="45.61272175812328" lon="10.357450154442013"><ele>555.5</ele><time>2026-05-01T17:27:48.999Z</time></trkpt><trkpt lat="45.61273840460901" lon="10.35733384949445"><ele>553.0</ele><time>2026-05-01T17:27:49.999Z</time></trkpt><trkpt lat="45.612710860918064" lon="10.357226145542938"><ele>550.5</ele><time>2026-05-01T17:27:50.999Z</time></trkpt><trkpt lat="45.61263964225809" lon="10.357156442064545"><ele>548.0</ele><time>2026-05-01T17:27:51.999Z</time></trkpt><trkpt lat="45.61255398010205" lon="10.357144648718867"><ele>548.0</ele><time>2026-05-01T17:27:52.999Z</time></trkpt><trkpt lat="45.612471127343426" lon="10.357202430182287"><ele>548.0</ele><time>2026-05-01T17:27:53.999Z</time></trkpt><trkpt lat="45.612410786612124" lon="10.357316138548674"><ele>548.0</ele><time>2026-05-01T17:27:54.999Z</time></trkpt><trkpt lat="45.61238549051809" lon="10.357467591678022"><ele>548.0</ele><time>2026-05-01T17:27:55.999Z</time></trkpt><trkpt lat="45.612374197813175" lon="10.357658690683307"><ele>548.0</ele><time>2026-05-01T17:27:56.999Z</time></trkpt><trkpt lat="45.61234536821612" lon="10.357859421007436"><ele>551.75</ele><time>2026-05-01T17:27:57.999Z</time></trkpt><trkpt lat="45.61228323419722" lon="10.358052347288845"><ele>555.5</ele><time>2026-05-01T17:27:58.999Z</time></trkpt><trkpt lat="45.61219331873697" lon="10.35821805568524"><ele>559.25</ele><time>2026-05-01T17:27:59.999Z</time></trkpt><trkpt lat="45.612087222863806" lon="10.358361316954067"><ele>563.0</ele><time>2026-05-01T17:28:00.999Z</time></trkpt><trkpt lat="45.61196794019924" lon="10.358484858055215"><ele>554.75</ele><time>2026-05-01T17:28:01.999Z</time></trkpt><trkpt lat="45.61183258171239" lon="10.358583516636497"><ele>546.5</ele><time>2026-05-01T17:28:02.999Z</time></trkpt><trkpt lat="45.61168977998996" lon="10.358666572430918"><ele>538.25</ele><time>2026-05-01T17:28:03.999Z</time></trkpt><trkpt lat="45.61155793495036" lon="10.358746174926951"><ele>530.0</ele><time>2026-05-01T17:28:04.999Z</time></trkpt><trkpt lat="45.611440624475456" lon="10.358850916523254"><ele>534.0</ele><time>2026-05-01T17:28:06Z</time></trkpt><trkpt lat="45.61135034774423" lon="10.358989522784505"><ele>538.0</ele><time>2026-05-01T17:28:07Z</time></trkpt><trkpt lat="45.611289886247484" lon="10.35916405943568"><ele>542.0</ele><time>2026-05-01T17:28:08Z</time></trkpt><trkpt lat="45.611256710007595" lon="10.359347619309524"><ele>546.0</ele><time>2026-05-01T17:28:09Z</time></trkpt><trkpt lat="45.611227001855525" lon="10.359521080012804"><ele>546.0</ele><time>2026-05-01T17:28:10Z</time></trkpt><trkpt lat="45.61116334388506" lon="10.359656455802687"><ele>546.0</ele><time>2026-05-01T17:28:11Z</time></trkpt><trkpt lat="45.61106896346223" lon="10.359757165098037"><ele>546.0</ele><time>2026-05-01T17:28:12Z</time></trkpt><trkpt lat="45.61094589964904" lon="10.359803592955444"><ele>546.0</ele><time>2026-05-01T17:28:13Z</time></trkpt><trkpt lat="45.61081563522886" lon="10.359859282293225"><ele>544.75</ele><time>2026-05-01T17:28:14Z</time></trkpt><trkpt lat="45.610668057307784" lon="10.359872068588079"><ele>543.5</ele><time>2026-05-01T17:28:15Z</time></trkpt><trkpt lat="45.610524711081204" lon="10.359889851408797"><ele>542.25</ele><time>2026-05-01T17:28:16Z</time></trkpt><trkpt lat="45.61038167306784" lon="10.359915728722488"><ele>541.0</ele><time>2026-05-01T17:28:17Z</time></trkpt><trkpt lat="45.61024507210109" lon="10.359941962719489"><ele>539.25</ele><time>2026-05-01T17:28:18Z</time></trkpt><trkpt lat="45.610113588435574" lon="10.35996285880413"><ele>537.5</ele><time>2026-05-01T17:28:19Z</time></trkpt><trkpt lat="45.60999182923204" lon="10.359986468324582"><ele>535.75</ele><time>2026-05-01T17:28:20Z</time></trkpt><trkpt lat="45.60988577080566" lon="10.360021802298409"><ele>534.0</ele><time>2026-05-01T17:28:21Z</time></trkpt><trkpt lat="45.60979596053541" lon="10.360054746130592"><ele>534.0</ele><time>2026-05-01T17:28:22Z</time></trkpt><trkpt lat="45.60971070661432" lon="10.360040785914048"><ele>534.0</ele><time>2026-05-01T17:28:23Z</time></trkpt><trkpt lat="45.60964303793816" lon="10.3600123724367"><ele>534.0</ele><time>2026-05-01T17:28:24Z</time></trkpt><trkpt lat="45.6096042327249" lon="10.359902799775364"><ele>534.0</ele><time>2026-05-01T17:28:25Z</time></trkpt><trkpt lat="45.60962323752677" lon="10.359776201312739"><ele>534.0</ele><time>2026-05-01T17:28:26Z</time></trkpt><trkpt lat="45.60968608522123" lon="10.359691368547368"><ele>534.0</ele><time>2026-05-01T17:28:27Z</time></trkpt><trkpt lat="45.60976501746909" lon="10.359659063108815"><ele>534.0</ele><time>2026-05-01T17:28:28Z</time></trkpt><trkpt lat="45.6098563364673" lon="10.359713437602363"><ele>534.0</ele><time>2026-05-01T17:28:29Z</time></trkpt><trkpt lat="45.60995638865014" lon="10.359711621596004"><ele>534.0</ele><time>2026-05-01T17:28:30Z</time></trkpt><trkpt lat="45.61006667985039" lon="10.359727061551645"><ele>534.0</ele><time>2026-05-01T17:28:31Z</time></trkpt><trkpt lat="45.61018576064028" lon="10.359701903251539"><ele>534.0</ele><time>2026-05-01T17:28:32Z</time></trkpt><trkpt lat="45.610310911532565" lon="10.35964633680917"><ele>531.25</ele><time>2026-05-01T17:28:33Z</time></trkpt><trkpt lat="45.610439919975036" lon="10.359575262579522"><ele>528.5</ele><time>2026-05-01T17:28:34Z</time></trkpt><trkpt lat="45.61056464644536" lon="10.359482138572924"><ele>525.75</ele><time>2026-05-01T17:28:35Z</time></trkpt><trkpt lat="45.610684832578684" lon="10.359368281112719"><ele>523.0</ele><time>2026-05-01T17:28:36Z</time></trkpt><trkpt lat="45.61079698923717" lon="10.359235525138777"><ele>523.0</ele><time>2026-05-01T17:28:37Z</time></trkpt><trkpt lat="45.61089711865645" lon="10.359066162557443"><ele>523.0</ele><time>2026-05-01T17:28:38Z</time></trkpt><trkpt lat="45.6109876254034" lon="10.358882477757577"><ele>523.0</ele><time>2026-05-01T17:28:39Z</time></trkpt><trkpt lat="45.611073044278776" lon="10.358686541263657"><ele>525.3333333333334</ele><time>2026-05-01T17:28:40Z</time></trkpt><trkpt lat="45.611161868277264" lon="10.358491771957812"><ele>527.6666666666666</ele><time>2026-05-01T17:28:41Z</time></trkpt><trkpt lat="45.611256698937815" lon="10.358300539762409"><ele>530.0</ele><time>2026-05-01T17:28:42Z</time></trkpt><trkpt lat="45.6113484222764" lon="10.358119961398316"><ele>526.75</ele><time>2026-05-01T17:28:43Z</time></trkpt><trkpt lat="45.611432238383614" lon="10.357940473192704"><ele>523.5</ele><time>2026-05-01T17:28:44Z</time></trkpt><trkpt lat="45.611507604569276" lon="10.357773575137802"><ele>520.25</ele><time>2026-05-01T17:28:45Z</time></trkpt><trkpt lat="45.611581853929344" lon="10.35761760567832"><ele>517.0</ele><time>2026-05-01T17:28:46Z</time></trkpt><trkpt lat="45.611642693605894" lon="10.357466964241349"><ele>517.0</ele><time>2026-05-01T17:28:47Z</time></trkpt><trkpt lat="45.61169641294138" lon="10.357317837758615"><ele>517.0</ele><time>2026-05-01T17:28:48Z</time></trkpt><trkpt lat="45.611743074103515" lon="10.357167224259832"><ele>517.0</ele><time>2026-05-01T17:28:49Z</time></trkpt><trkpt lat="45.611786473011676" lon="10.357017722901036"><ele>517.0</ele><time>2026-05-01T17:28:50Z</time></trkpt><trkpt lat="45.61183206403633" lon="10.356869514983872"><ele>515.75</ele><time>2026-05-01T17:28:51Z</time></trkpt><trkpt lat="45.61187545264757" lon="10.356725688345053"><ele>514.5</ele><time>2026-05-01T17:28:52Z</time></trkpt><trkpt lat="45.611918590371346" lon="10.356580008695783"><ele>513.25</ele><time>2026-05-01T17:28:53Z</time></trkpt><trkpt lat="45.611966974538646" lon="10.356432631726742"><ele>512.0</ele><time>2026-05-01T17:28:54Z</time></trkpt><trkpt lat="45.61201404914927" lon="10.356278600697733"><ele>512.0</ele><time>2026-05-01T17:28:55Z</time></trkpt><trkpt lat="45.61206155474381" lon="10.356123958238253"><ele>512.0</ele><time>2026-05-01T17:28:56Z</time></trkpt><trkpt lat="45.61211320988532" lon="10.355960680080946"><ele>512.0</ele><time>2026-05-01T17:28:57Z</time></trkpt><trkpt lat="45.61216411203309" lon="10.355776236366305"><ele>512.0</ele><time>2026-05-01T17:28:58Z</time></trkpt><trkpt lat="45.61221659161653" lon="10.355581502496687"><ele>510.66666666666663</ele><time>2026-05-01T17:28:59Z</time></trkpt><trkpt lat="45.61226276330478" lon="10.355367011176835"><ele>509.33333333333337</ele><time>2026-05-01T17:29:00Z</time></trkpt><trkpt lat="45.61230249608393" lon="10.355150919276989"><ele>508.0</ele><time>2026-05-01T17:29:01Z</time></trkpt><trkpt lat="45.612343489061594" lon="10.35492398661909"><ele>508.0</ele><time>2026-05-01T17:29:02Z</time></trkpt><trkpt lat="45.61240094794991" lon="10.354704822495574"><ele>508.0</ele><time>2026-05-01T17:29:03Z</time></trkpt><trkpt lat="45.61242964844858" lon="10.354468399258895"><ele>508.0</ele><time>2026-05-01T17:29:04Z</time></trkpt><trkpt lat="45.612461091342695" lon="10.35424144827802"><ele>506.33333333333337</ele><time>2026-05-01T17:29:05Z</time></trkpt><trkpt lat="45.61247972190398" lon="10.353998407009161"><ele>504.66666666666663</ele><time>2026-05-01T17:29:06Z</time></trkpt><trkpt lat="45.61248022246714" lon="10.353755343127103"><ele>503.0</ele><time>2026-05-01T17:29:07Z</time></trkpt><trkpt lat="45.61246492232679" lon="10.353508838578962"><ele>503.0</ele><time>2026-05-01T17:29:08Z</time></trkpt><trkpt lat="45.61246460415643" lon="10.353262361611808"><ele>503.0</ele><time>2026-05-01T17:29:09Z</time></trkpt><trkpt lat="45.61246266314266" lon="10.35302387562026"><ele>503.0</ele><time>2026-05-01T17:29:10Z</time></trkpt><trkpt lat="45.61246953673167" lon="10.352789717026164"><ele>500.66666666666663</ele><time>2026-05-01T17:29:11Z</time></trkpt><trkpt lat="45.61249160267815" lon="10.352554185807918"><ele>498.33333333333337</ele><time>2026-05-01T17:29:12Z</time></trkpt><trkpt lat="45.612527743094034" lon="10.352307425946963"><ele>496.0</ele><time>2026-05-01T17:29:13Z</time></trkpt><trkpt lat="45.612578134465664" lon="10.352032335940235"><ele>491.5</ele><time>2026-05-01T17:29:14Z</time></trkpt><trkpt lat="45.61261962262752" lon="10.351711631946031"><ele>487.0</ele><time>2026-05-01T17:29:15Z</time></trkpt><trkpt lat="45.61268651097305" lon="10.351348168048753"><ele>483.5</ele><time>2026-05-01T17:29:16Z</time></trkpt><trkpt lat="45.61275445309776" lon="10.350962264475456"><ele>480.0</ele><time>2026-05-01T17:29:17Z</time></trkpt><trkpt lat="45.61284061102054" lon="10.350570595737267"><ele>490.0</ele><time>2026-05-01T17:29:18Z</time></trkpt><trkpt lat="45.61290777886983" lon="10.350202951923366"><ele>500.0</ele><time>2026-05-01T17:29:19Z</time></trkpt><trkpt lat="45.6129683832499" lon="10.349849190616379"><ele>494.0</ele><time>2026-05-01T17:29:20Z</time></trkpt><trkpt lat="45.61300172586891" lon="10.349493887564815"><ele>488.0</ele><time>2026-05-01T17:29:21Z</time></trkpt><trkpt lat="45.61304862686807" lon="10.349150269571114"><ele>484.5</ele><time>2026-05-01T17:29:21.999Z</time></trkpt><trkpt lat="45.61310583474116" lon="10.348807790598316"><ele>481.0</ele><time>2026-05-01T17:29:22.999Z</time></trkpt><trkpt lat="45.61314903277451" lon="10.348453621027694"><ele>481.0</ele><time>2026-05-01T17:29:23.999Z</time></trkpt><trkpt lat="45.61319022800415" lon="10.348111123169"><ele>481.0</ele><time>2026-05-01T17:29:24.999Z</time></trkpt><trkpt lat="45.61323032300143" lon="10.347783337255782"><ele>479.33333333333337</ele><time>2026-05-01T17:29:25.999Z</time></trkpt><trkpt lat="45.6132762768461" lon="10.347472409190559"><ele>477.66666666666663</ele><time>2026-05-01T17:29:26.999Z</time></trkpt><trkpt lat="45.61334025991897" lon="10.347186682201304"><ele>476.0</ele><time>2026-05-01T17:29:27.999Z</time></trkpt><trkpt lat="45.61342485228793" lon="10.346917075500606"><ele>478.66666666666663</ele><time>2026-05-01T17:29:28.999Z</time></trkpt><trkpt lat="45.61351589385536" lon="10.346647838509908"><ele>481.33333333333337</ele><time>2026-05-01T17:29:29.999Z</time></trkpt><trkpt lat="45.61360202239787" lon="10.346397055065484"><ele>484.0</ele><time>2026-05-01T17:29:30.999Z</time></trkpt><trkpt lat="45.613684535716395" lon="10.346153376581356"><ele>484.0</ele><time>2026-05-01T17:29:31.999Z</time></trkpt><trkpt lat="45.61376185959025" lon="10.345923183313149"><ele>484.0</ele><time>2026-05-01T17:29:32.999Z</time></trkpt><trkpt lat="45.613832065811046" lon="10.34571028535321"><ele>484.0</ele><time>2026-05-01T17:29:33.999Z</time></trkpt><trkpt lat="45.613880038910494" lon="10.345494104550161"><ele>481.25</ele><time>2026-05-01T17:29:34.999Z</time></trkpt><trkpt lat="45.613925194083045" lon="10.345289527024509"><ele>478.5</ele><time>2026-05-01T17:29:35.999Z</time></trkpt><trkpt lat="45.61396787644968" lon="10.345080578834608"><ele>475.75</ele><time>2026-05-01T17:29:36.999Z</time></trkpt><trkpt lat="45.61397072126683" lon="10.344872136582858"><ele>473.0</ele><time>2026-05-01T17:29:37.999Z</time></trkpt><trkpt lat="45.61398288076105" lon="10.344680557179673"><ele>471.79999999999995</ele><time>2026-05-01T17:29:38.999Z</time></trkpt><trkpt lat="45.61399017586182" lon="10.34449223004471"><ele>470.59999999999997</ele><time>2026-05-01T17:29:39.999Z</time></trkpt><trkpt lat="45.613999367684706" lon="10.344322542168069"><ele>469.40000000000003</ele><time>2026-05-01T17:29:40.999Z</time></trkpt><trkpt lat="45.614013857313694" lon="10.344179103877869"><ele>468.20000000000005</ele><time>2026-05-01T17:29:41.999Z</time></trkpt><trkpt lat="45.614032451517495" lon="10.344048671116315"><ele>467.0</ele><time>2026-05-01T17:29:42.999Z</time></trkpt><trkpt lat="45.61407671472675" lon="10.343934062399077"><ele>464.20000000000005</ele><time>2026-05-01T17:29:43.999Z</time></trkpt><trkpt lat="45.61411545709589" lon="10.343807412701791"><ele>461.40000000000003</ele><time>2026-05-01T17:29:44.999Z</time></trkpt><trkpt lat="45.61415950349732" lon="10.343677470815344"><ele>458.59999999999997</ele><time>2026-05-01T17:29:45.999Z</time></trkpt><trkpt lat="45.61420913749447" lon="10.343563885808111"><ele>455.79999999999995</ele><time>2026-05-01T17:29:46.999Z</time></trkpt><trkpt lat="45.61426709428597" lon="10.343461168897269"><ele>453.0</ele><time>2026-05-01T17:29:47.999Z</time></trkpt><trkpt lat="45.61432803081081" lon="10.343367833368479"><ele>453.0</ele><time>2026-05-01T17:29:48.999Z</time></trkpt><trkpt lat="45.614391242371646" lon="10.343290668403855"><ele>453.0</ele><time>2026-05-01T17:29:49.999Z</time></trkpt><trkpt lat="45.61445292565616" lon="10.343223232107409"><ele>453.0</ele><time>2026-05-01T17:29:50.999Z</time></trkpt><trkpt lat="45.61451486052204" lon="10.343164558117953"><ele>453.0</ele><time>2026-05-01T17:29:51.999Z</time></trkpt><trkpt lat="45.614570552690154" lon="10.343112503475474"><ele>453.0</ele><time>2026-05-01T17:29:52.999Z</time></trkpt><trkpt lat="45.61466400074927" lon="10.343006723517195"><ele>453.0</ele><time>2026-05-01T17:29:54.999Z</time></trkpt><trkpt lat="45.6146960911489" lon="10.342841284381652"><ele>453.8333333333333</ele><time>2026-05-01T17:29:56.999Z</time></trkpt><trkpt lat="45.614676350128036" lon="10.342735571249383"><ele>454.66666666666663</ele><time>2026-05-01T17:29:57.999Z</time></trkpt><trkpt lat="45.61461724980317" lon="10.342660186129246"><ele>455.5</ele><time>2026-05-01T17:29:58.999Z</time></trkpt><trkpt lat="45.61452899697885" lon="10.34263665486066"><ele>456.3333333333333</ele><time>2026-05-01T17:29:59.999Z</time></trkpt><trkpt lat="45.61443893946757" lon="10.34267917226496"><ele>457.16666666666663</ele><time>2026-05-01T17:30:00.999Z</time></trkpt><trkpt lat="45.61436940266548" lon="10.342773256847964"><ele>458.0</ele><time>2026-05-01T17:30:01.999Z</time></trkpt><trkpt lat="45.61431264805392" lon="10.34289049701949"><ele>456.75</ele><time>2026-05-01T17:30:02.999Z</time></trkpt><trkpt lat="45.61425369831536" lon="10.343027225678217"><ele>455.5</ele><time>2026-05-01T17:30:03.999Z</time></trkpt><trkpt lat="45.61418232086311" lon="10.34318028985072"><ele>454.25</ele><time>2026-05-01T17:30:04.999Z</time></trkpt><trkpt lat="45.61409903381908" lon="10.343335031672007"><ele>453.0</ele><time>2026-05-01T17:30:05.999Z</time></trkpt><trkpt lat="45.61400675859962" lon="10.343497759014474"><ele>453.0</ele><time>2026-05-01T17:30:06.999Z</time></trkpt><trkpt lat="45.6139136819649" lon="10.343668602847456"><ele>453.0</ele><time>2026-05-01T17:30:07.999Z</time></trkpt><trkpt lat="45.61383754175458" lon="10.34383816337272"><ele>453.0</ele><time>2026-05-01T17:30:08.999Z</time></trkpt><trkpt lat="45.61377239027991" lon="10.344013885802832"><ele>453.0</ele><time>2026-05-01T17:30:09.999Z</time></trkpt><trkpt lat="45.61371600634286" lon="10.344204516087718"><ele>451.75</ele><time>2026-05-01T17:30:10.999Z</time></trkpt><trkpt lat="45.6136639483585" lon="10.344396977892218"><ele>450.5</ele><time>2026-05-01T17:30:12Z</time></trkpt><trkpt lat="45.61360973402895" lon="10.344580047976098"><ele>449.25</ele><time>2026-05-01T17:30:13Z</time></trkpt><trkpt lat="45.61354910433588" lon="10.344763384822578"><ele>448.0</ele><time>2026-05-01T17:30:14Z</time></trkpt><trkpt lat="45.6134861539841" lon="10.344931393076424"><ele>448.0</ele><time>2026-05-01T17:30:15Z</time></trkpt><trkpt lat="45.61341680902177" lon="10.345087837184213"><ele>448.0</ele><time>2026-05-01T17:30:16Z</time></trkpt><trkpt lat="45.61334812387629" lon="10.345239017980665"><ele>448.0</ele><time>2026-05-01T17:30:17Z</time></trkpt><trkpt lat="45.613285058574725" lon="10.34537632212731"><ele>448.0</ele><time>2026-05-01T17:30:18Z</time></trkpt><trkpt lat="45.61323075918441" lon="10.345507146822875"><ele>448.79999999999995</ele><time>2026-05-01T17:30:19Z</time></trkpt><trkpt lat="45.61317693084716" lon="10.345626198003503"><ele>449.59999999999997</ele><time>2026-05-01T17:30:20Z</time></trkpt><trkpt lat="45.61312940482918" lon="10.345736743543966"><ele>450.40000000000003</ele><time>2026-05-01T17:30:21Z</time></trkpt><trkpt lat="45.61308622841487" lon="10.345833482310193"><ele>451.20000000000005</ele><time>2026-05-01T17:30:22Z</time></trkpt><trkpt lat="45.6130468105715" lon="10.345915341541543"><ele>452.0</ele><time>2026-05-01T17:30:23Z</time></trkpt><trkpt lat="45.612968145769266" lon="10.34603058421212"><ele>451.99999999999994</ele><time>2026-05-01T17:30:25Z</time></trkpt><trkpt lat="45.612867168090766" lon="10.346045656308684"><ele>452.0</ele><time>2026-05-01T17:30:27Z</time></trkpt><trkpt lat="45.612813685445225" lon="10.34599286307214"><ele>452.0</ele><time>2026-05-01T17:30:28Z</time></trkpt><trkpt lat="45.61278774072808" lon="10.345894891247063"><ele>452.0</ele><time>2026-05-01T17:30:29Z</time></trkpt><trkpt lat="45.61280230223975" lon="10.345780717022814"><ele>451.99999999999994</ele><time>2026-05-01T17:30:30Z</time></trkpt><trkpt lat="45.6128863351014" lon="10.345686897528147"><ele>452.0</ele><time>2026-05-01T17:30:31Z</time></trkpt><trkpt lat="45.61296784457154" lon="10.345537045887502"><ele>451.0</ele><time>2026-05-01T17:30:32Z</time></trkpt><trkpt lat="45.6130569761759" lon="10.345369166683545"><ele>450.0</ele><time>2026-05-01T17:30:33Z</time></trkpt><trkpt lat="45.61313262643017" lon="10.345213630310283"><ele>449.0</ele><time>2026-05-01T17:30:34Z</time></trkpt><trkpt lat="45.61317881952387" lon="10.345058517934486"><ele>448.0</ele><time>2026-05-01T17:30:35Z</time></trkpt><trkpt lat="45.61323088214805" lon="10.344919386897121"><ele>448.0</ele><time>2026-05-01T17:30:36Z</time></trkpt><trkpt lat="45.613267306653185" lon="10.344776756522673"><ele>448.0</ele><time>2026-05-01T17:30:37Z</time></trkpt><trkpt lat="45.61329548589376" lon="10.34463018843773"><ele>448.0</ele><time>2026-05-01T17:30:38Z</time></trkpt><trkpt lat="45.613315206398916" lon="10.344468969046455"><ele>448.0</ele><time>2026-05-01T17:30:39Z</time></trkpt><trkpt lat="45.61334161917763" lon="10.344243434198715"><ele>446.33333333333337</ele><time>2026-05-01T17:30:40Z</time></trkpt><trkpt lat="45.613321742187274" lon="10.343971599094111"><ele>444.66666666666663</ele><time>2026-05-01T17:30:41Z</time></trkpt><trkpt lat="45.61331779448891" lon="10.343673154566075"><ele>443.0</ele><time>2026-05-01T17:30:42Z</time></trkpt><trkpt lat="45.613310512483785" lon="10.343389535673966"><ele>440.3333333333333</ele><time>2026-05-01T17:30:43Z</time></trkpt><trkpt lat="45.61334301682277" lon="10.34312843364388"><ele>437.66666666666663</ele><time>2026-05-01T17:30:44Z</time></trkpt><trkpt lat="45.61339110143801" lon="10.342866315679219"><ele>435.0</ele><time>2026-05-01T17:30:45Z</time></trkpt><trkpt lat="45.613460426806206" lon="10.342590704542035"><ele>432.66666666666663</ele><time>2026-05-01T17:30:46Z</time></trkpt><trkpt lat="45.61351645993248" lon="10.342301331678659"><ele>430.3333333333333</ele><time>2026-05-01T17:30:47Z</time></trkpt><trkpt lat="45.6135733807914" lon="10.342001052965802"><ele>428.0</ele><time>2026-05-01T17:30:48Z</time></trkpt><trkpt lat="45.613609476227126" lon="10.341690291511307"><ele>429.0</ele><time>2026-05-01T17:30:49Z</time></trkpt><trkpt lat="45.61364329167199" lon="10.341370212956607"><ele>430.0</ele><time>2026-05-01T17:30:50Z</time></trkpt><trkpt lat="45.613678010641635" lon="10.341044846228652"><ele>426.5</ele><time>2026-05-01T17:30:51Z</time></trkpt><trkpt lat="45.61371245146633" lon="10.340717188464772"><ele>423.0</ele><time>2026-05-01T17:30:52Z</time></trkpt><trkpt lat="45.61375187776148" lon="10.340386236210328"><ele>420.5</ele><time>2026-05-01T17:30:53Z</time></trkpt><trkpt lat="45.613793610973296" lon="10.340056476884836"><ele>418.0</ele><time>2026-05-01T17:30:54Z</time></trkpt><trkpt lat="45.61383687618178" lon="10.339726233122336"><ele>418.0</ele><time>2026-05-01T17:30:55Z</time></trkpt><trkpt lat="45.613878726729006" lon="10.339393197952205"><ele>418.0</ele><time>2026-05-01T17:30:56Z</time></trkpt><trkpt lat="45.61391988880877" lon="10.339062514109125"><ele>419.33333333333337</ele><time>2026-05-01T17:30:57Z</time></trkpt><trkpt lat="45.61395516005969" lon="10.338744056543248"><ele>420.66666666666663</ele><time>2026-05-01T17:30:58Z</time></trkpt><trkpt lat="45.61399561071054" lon="10.338438142034933"><ele>422.0</ele><time>2026-05-01T17:30:59Z</time></trkpt><trkpt lat="45.61402820969978" lon="10.338135910198023"><ele>423.0</ele><time>2026-05-01T17:31:00Z</time></trkpt><trkpt lat="45.61406318513607" lon="10.33782766575236"><ele>424.0</ele><time>2026-05-01T17:31:01Z</time></trkpt><trkpt lat="45.614032660087126" lon="10.337521485674321"><ele>425.0</ele><time>2026-05-01T17:31:02Z</time></trkpt><trkpt lat="45.613991480628044" lon="10.337221144707074"><ele>425.0</ele><time>2026-05-01T17:31:03Z</time></trkpt><trkpt lat="45.613977956169485" lon="10.336921533332232"><ele>425.0</ele><time>2026-05-01T17:31:04Z</time></trkpt><trkpt lat="45.61397667128925" lon="10.33662711545796"><ele>425.0</ele><time>2026-05-01T17:31:05Z</time></trkpt><trkpt lat="45.613998771666914" lon="10.336325292023405"><ele>426.3333333333333</ele><time>2026-05-01T17:31:06Z</time></trkpt><trkpt lat="45.6140232392375" lon="10.336017319308702"><ele>427.66666666666663</ele><time>2026-05-01T17:31:07Z</time></trkpt><trkpt lat="45.61404931835216" lon="10.335713838773726"><ele>429.0</ele><time>2026-05-01T17:31:08Z</time></trkpt><trkpt lat="45.614071854536974" lon="10.335398361031638"><ele>429.0</ele><time>2026-05-01T17:31:09Z</time></trkpt><trkpt lat="45.614083687250286" lon="10.335087797615147"><ele>429.0</ele><time>2026-05-01T17:31:10Z</time></trkpt><trkpt lat="45.614089525681585" lon="10.334767920792068"><ele>429.0</ele><time>2026-05-01T17:31:11Z</time></trkpt><trkpt lat="45.61409445789562" lon="10.334447694498767"><ele>424.66666666666663</ele><time>2026-05-01T17:31:12Z</time></trkpt><trkpt lat="45.614098945149145" lon="10.334140597042358"><ele>420.3333333333333</ele><time>2026-05-01T17:31:13Z</time></trkpt><trkpt lat="45.614103039432344" lon="10.333856872841478"><ele>416.0</ele><time>2026-05-01T17:31:14Z</time></trkpt><trkpt lat="45.61409342005886" lon="10.333600893575763"><ele>414.0</ele><time>2026-05-01T17:31:15Z</time></trkpt><trkpt lat="45.61409888052631" lon="10.333373511698875"><ele>412.0</ele><time>2026-05-01T17:31:16Z</time></trkpt><trkpt lat="45.61409220087775" lon="10.333167983467467"><ele>410.0</ele><time>2026-05-01T17:31:17Z</time></trkpt><trkpt lat="45.6140702701229" lon="10.332977399421317"><ele>408.0</ele><time>2026-05-01T17:31:18Z</time></trkpt><trkpt lat="45.613997870312915" lon="10.332786467614703"><ele>407.0</ele><time>2026-05-01T17:31:19Z</time></trkpt><trkpt lat="45.613886426647326" lon="10.332568765036884"><ele>406.0</ele><time>2026-05-01T17:31:20Z</time></trkpt><trkpt lat="45.61376521862131" lon="10.332323306570267"><ele>405.0</ele><time>2026-05-01T17:31:21Z</time></trkpt><trkpt lat="45.61363327283833" lon="10.332060929226671"><ele>400.66666666666663</ele><time>2026-05-01T17:31:22Z</time></trkpt><trkpt lat="45.613494006756795" lon="10.33180208491866"><ele>396.3333333333333</ele><time>2026-05-01T17:31:22.999Z</time></trkpt><trkpt lat="45.613366681094526" lon="10.33155866882112"><ele>392.0</ele><time>2026-05-01T17:31:23.999Z</time></trkpt><trkpt lat="45.613259109127085" lon="10.331347296653092"><ele>390.5</ele><time>2026-05-01T17:31:24.999Z</time></trkpt><trkpt lat="45.61316475624629" lon="10.33115607581053"><ele>389.0</ele><time>2026-05-01T17:31:25.999Z</time></trkpt><trkpt lat="45.61312060510163" lon="10.3309644458723"><ele>387.5</ele><time>2026-05-01T17:31:26.999Z</time></trkpt><trkpt lat="45.613101294722064" lon="10.330777324265242"><ele>386.0</ele><time>2026-05-01T17:31:27.999Z</time></trkpt><trkpt lat="45.61310991653757" lon="10.330588095209949"><ele>385.66666666666663</ele><time>2026-05-01T17:31:28.999Z</time></trkpt><trkpt lat="45.61312426634991" lon="10.330360397404426"><ele>385.33333333333337</ele><time>2026-05-01T17:31:29.999Z</time></trkpt><trkpt lat="45.61314002724969" lon="10.3300994894826"><ele>385.0</ele><time>2026-05-01T17:31:30.999Z</time></trkpt><trkpt lat="45.61314290240253" lon="10.329821908035965"><ele>384.6666666666667</ele><time>2026-05-01T17:31:31.999Z</time></trkpt><trkpt lat="45.61316681174392" lon="10.329529831089502"><ele>384.33333333333337</ele><time>2026-05-01T17:31:32.999Z</time></trkpt><trkpt lat="45.613183008919535" lon="10.3292178506954"><ele>384.0</ele><time>2026-05-01T17:31:33.999Z</time></trkpt><trkpt lat="45.61319779559577" lon="10.328895756813"><ele>383.5</ele><time>2026-05-01T17:31:34.999Z</time></trkpt><trkpt lat="45.61323297743833" lon="10.328564375852272"><ele>383.0</ele><time>2026-05-01T17:31:35.999Z</time></trkpt><trkpt lat="45.61325298531244" lon="10.32823444289634"><ele>382.0</ele><time>2026-05-01T17:31:36.999Z</time></trkpt><trkpt lat="45.613272326968165" lon="10.327915921825635"><ele>381.0</ele><time>2026-05-01T17:31:37.999Z</time></trkpt><trkpt lat="45.613290846952786" lon="10.327611376004938"><ele>380.0</ele><time>2026-05-01T17:31:38.999Z</time></trkpt><trkpt lat="45.613308797101155" lon="10.327319571479237"><ele>379.33333333333337</ele><time>2026-05-01T17:31:39.999Z</time></trkpt><trkpt lat="45.613325354619036" lon="10.327063620749403"><ele>378.6666666666667</ele><time>2026-05-01T17:31:40.999Z</time></trkpt><trkpt lat="45.61333763119407" lon="10.326822768554894"><ele>378.0</ele><time>2026-05-01T17:31:41.999Z</time></trkpt><trkpt lat="45.61332879549185" lon="10.326600631294959"><ele>376.75</ele><time>2026-05-01T17:31:42.999Z</time></trkpt><trkpt lat="45.6133234073335" lon="10.326389578148307"><ele>375.5</ele><time>2026-05-01T17:31:43.999Z</time></trkpt><trkpt lat="45.61328751814943" lon="10.326189012610703"><ele>374.25</ele><time>2026-05-01T17:31:44.999Z</time></trkpt><trkpt lat="45.61323032658874" lon="10.32600639169041"><ele>373.0</ele><time>2026-05-01T17:31:45.999Z</time></trkpt><trkpt lat="45.6131621073973" lon="10.325848204384853"><ele>373.0</ele><time>2026-05-01T17:31:46.999Z</time></trkpt><trkpt lat="45.61313977822408" lon="10.325682097673154"><ele>373.0</ele><time>2026-05-01T17:31:47.999Z</time></trkpt><trkpt lat="45.61313459937269" lon="10.32553227043922"><ele>373.0</ele><time>2026-05-01T17:31:48.999Z</time></trkpt><trkpt lat="45.61315588501518" lon="10.325379104791754"><ele>373.0</ele><time>2026-05-01T17:31:49.999Z</time></trkpt><trkpt lat="45.613214997924295" lon="10.325215478099667"><ele>372.3333333333333</ele><time>2026-05-01T17:31:50.999Z</time></trkpt><trkpt lat="45.613295281459266" lon="10.325017347651332"><ele>371.6666666666667</ele><time>2026-05-01T17:31:51.999Z</time></trkpt><trkpt lat="45.6133815426413" lon="10.324796544249688"><ele>371.0</ele><time>2026-05-01T17:31:52.999Z</time></trkpt><trkpt lat="45.613462070803635" lon="10.324574230484467"><ele>370.0</ele><time>2026-05-01T17:31:53.999Z</time></trkpt><trkpt lat="45.61352776707588" lon="10.324380809647893"><ele>369.0</ele><time>2026-05-01T17:31:54.999Z</time></trkpt><trkpt lat="45.61357556727061" lon="10.324207293230387"><ele>368.0</ele><time>2026-05-01T17:31:55.999Z</time></trkpt><trkpt lat="45.61359942676913" lon="10.324038026215751"><ele>367.0</ele><time>2026-05-01T17:31:56.999Z</time></trkpt><trkpt lat="45.61359683807103" lon="10.323867014518774"><ele>366.66666666666663</ele><time>2026-05-01T17:31:57.999Z</time></trkpt><trkpt lat="45.613573588568634" lon="10.3236846470088"><ele>366.3333333333333</ele><time>2026-05-01T17:31:58.999Z</time></trkpt><trkpt lat="45.61353078755735" lon="10.323467802119566"><ele>366.0</ele><time>2026-05-01T17:31:59.999Z</time></trkpt><trkpt lat="45.61347285466763" lon="10.323229680371997"><ele>365.3333333333333</ele><time>2026-05-01T17:32:00.999Z</time></trkpt><trkpt lat="45.613420580064926" lon="10.322984398520692"><ele>364.66666666666663</ele><time>2026-05-01T17:32:01.999Z</time></trkpt><trkpt lat="45.61338943273738" lon="10.322775012053125"><ele>364.0</ele><time>2026-05-01T17:32:02.999Z</time></trkpt><trkpt lat="45.61337646988554" lon="10.322557932691465"><ele>364.0</ele><time>2026-05-01T17:32:03.999Z</time></trkpt><trkpt lat="45.6133605814446" lon="10.32230735568328"><ele>364.0</ele><time>2026-05-01T17:32:04.999Z</time></trkpt><trkpt lat="45.61334151617796" lon="10.322047569344502"><ele>364.0</ele><time>2026-05-01T17:32:05.999Z</time></trkpt><trkpt lat="45.61332855722558" lon="10.321787471170504"><ele>363.66666666666663</ele><time>2026-05-01T17:32:06.999Z</time></trkpt><trkpt lat="45.6132777419523" lon="10.321510958844488"><ele>363.3333333333333</ele><time>2026-05-01T17:32:07.999Z</time></trkpt><trkpt lat="45.61326614691884" lon="10.321243815226024"><ele>363.0</ele><time>2026-05-01T17:32:08.999Z</time></trkpt><trkpt lat="45.61324887896289" lon="10.320981376956626"><ele>363.0</ele><time>2026-05-01T17:32:09.999Z</time></trkpt><trkpt lat="45.61322103017842" lon="10.320715858142416"><ele>363.0</ele><time>2026-05-01T17:32:10.999Z</time></trkpt><trkpt lat="45.613212932986784" lon="10.320461502600182"><ele>363.0</ele><time>2026-05-01T17:32:11.999Z</time></trkpt><trkpt lat="45.61318382883775" lon="10.320214273835022"><ele>362.6666666666667</ele><time>2026-05-01T17:32:12.999Z</time></trkpt><trkpt lat="45.613171652166336" lon="10.319976410660226"><ele>362.33333333333337</ele><time>2026-05-01T17:32:13.999Z</time></trkpt><trkpt lat="45.61317117654109" lon="10.319729321146227"><ele>362.0</ele><time>2026-05-01T17:32:14.999Z</time></trkpt><trkpt lat="45.61317386657398" lon="10.319462872516555"><ele>362.0</ele><time>2026-05-01T17:32:15.999Z</time></trkpt><trkpt lat="45.61318264298363" lon="10.319199599260914"><ele>362.0</ele><time>2026-05-01T17:32:16.999Z</time></trkpt><trkpt lat="45.613201670292256" lon="10.318939074431501"><ele>362.0</ele><time>2026-05-01T17:32:18Z</time></trkpt><trkpt lat="45.613221057528854" lon="10.318695128794554"><ele>361.75</ele><time>2026-05-01T17:32:19Z</time></trkpt><trkpt lat="45.613240070074916" lon="10.31848690601437"><ele>361.5</ele><time>2026-05-01T17:32:20Z</time></trkpt><trkpt lat="45.6132490441671" lon="10.318289617422728"><ele>361.25</ele><time>2026-05-01T17:32:21Z</time></trkpt><trkpt lat="45.61323312911009" lon="10.31810223184239"><ele>361.0</ele><time>2026-05-01T17:32:22Z</time></trkpt><trkpt lat="45.613151056282824" lon="10.317941599230004"><ele>362.75</ele><time>2026-05-01T17:32:23Z</time></trkpt><trkpt lat="45.613073462792606" lon="10.317781989700743"><ele>364.5</ele><time>2026-05-01T17:32:24Z</time></trkpt><trkpt lat="45.61303329036194" lon="10.317610437491032"><ele>366.25</ele><time>2026-05-01T17:32:25Z</time></trkpt><trkpt lat="45.6130100983357" lon="10.317455333709393"><ele>368.0</ele><time>2026-05-01T17:32:26Z</time></trkpt><trkpt lat="45.613005376732346" lon="10.317275037333863"><ele>369.2</ele><time>2026-05-01T17:32:27Z</time></trkpt><trkpt lat="45.61300539369907" lon="10.317102543733435"><ele>370.4</ele><time>2026-05-01T17:32:28Z</time></trkpt><trkpt lat="45.61300547568908" lon="10.3169614695886"><ele>371.59999999999997</ele><time>2026-05-01T17:32:29Z</time></trkpt><trkpt lat="45.61300232063305" lon="10.316859872887802"><ele>372.79999999999995</ele><time>2026-05-01T17:32:30Z</time></trkpt><trkpt lat="45.612896508178885" lon="10.316781080896728"><ele>374.0</ele><time>2026-05-01T17:32:31Z</time></trkpt><trkpt lat="45.612783157914244" lon="10.316710283480194"><ele>370.0</ele><time>2026-05-01T17:32:32Z</time></trkpt><trkpt lat="45.61263090596881" lon="10.316651961754612"><ele>366.0</ele><time>2026-05-01T17:32:33Z</time></trkpt><trkpt lat="45.61246717984854" lon="10.316591726595954"><ele>362.0</ele><time>2026-05-01T17:32:34Z</time></trkpt><trkpt lat="45.612324377264365" lon="10.316516531178065"><ele>362.5</ele><time>2026-05-01T17:32:35Z</time></trkpt><trkpt lat="45.61219867044745" lon="10.316402859681519"><ele>363.0</ele><time>2026-05-01T17:32:36Z</time></trkpt><trkpt lat="45.61207694367864" lon="10.316266116659325"><ele>363.5</ele><time>2026-05-01T17:32:37Z</time></trkpt><trkpt lat="45.61197231536612" lon="10.31612305393156"><ele>364.0</ele><time>2026-05-01T17:32:38Z</time></trkpt><trkpt lat="45.611875550916416" lon="10.315970359145151"><ele>364.0</ele><time>2026-05-01T17:32:39Z</time></trkpt><trkpt lat="45.61177679701355" lon="10.315803745585535"><ele>364.0</ele><time>2026-05-01T17:32:40Z</time></trkpt><trkpt lat="45.61169261791265" lon="10.31562879702561"><ele>364.0</ele><time>2026-05-01T17:32:41Z</time></trkpt><trkpt lat="45.611610543854276" lon="10.315471019088754"><ele>364.0</ele><time>2026-05-01T17:32:42Z</time></trkpt><trkpt lat="45.611518104880986" lon="10.315349258676118"><ele>365.5</ele><time>2026-05-01T17:32:43Z</time></trkpt><trkpt lat="45.611391529205065" lon="10.315254474388507"><ele>367.0</ele><time>2026-05-01T17:32:44Z</time></trkpt><trkpt lat="45.6112523782715" lon="10.315171687812104"><ele>368.5</ele><time>2026-05-01T17:32:45Z</time></trkpt><trkpt lat="45.61111820716235" lon="10.315099595858507"><ele>370.0</ele><time>2026-05-01T17:32:46Z</time></trkpt><trkpt lat="45.610982119380026" lon="10.315031790712167"><ele>369.25</ele><time>2026-05-01T17:32:47Z</time></trkpt><trkpt lat="45.61087981502232" lon="10.314908372369011"><ele>368.5</ele><time>2026-05-01T17:32:48Z</time></trkpt><trkpt lat="45.61078671044777" lon="10.314765325622515"><ele>367.75</ele><time>2026-05-01T17:32:49Z</time></trkpt><trkpt lat="45.61067469431717" lon="10.314617376204085"><ele>367.0</ele><time>2026-05-01T17:32:50Z</time></trkpt><trkpt lat="45.610565191210505" lon="10.314456499230673"><ele>367.0</ele><time>2026-05-01T17:32:51Z</time></trkpt><trkpt lat="45.61043859751896" lon="10.314317727241765"><ele>367.0</ele><time>2026-05-01T17:32:52Z</time></trkpt><trkpt lat="45.610293292401046" lon="10.314216155933257"><ele>367.0</ele><time>2026-05-01T17:32:53Z</time></trkpt><trkpt lat="45.61013364038768" lon="10.314141544625178"><ele>360.3333333333333</ele><time>2026-05-01T17:32:54Z</time></trkpt><trkpt lat="45.60996489100065" lon="10.31409285295528"><ele>353.6666666666667</ele><time>2026-05-01T17:32:55Z</time></trkpt><trkpt lat="45.609791102139866" lon="10.314053128486128"><ele>347.0</ele><time>2026-05-01T17:32:56Z</time></trkpt><trkpt lat="45.60961852444206" lon="10.313987046210167"><ele>345.0</ele><time>2026-05-01T17:32:57Z</time></trkpt><trkpt lat="45.60945850921942" lon="10.313863105664971"><ele>343.0</ele><time>2026-05-01T17:32:58Z</time></trkpt><trkpt lat="45.609326750916374" lon="10.313693267943021"><ele>341.0</ele><time>2026-05-01T17:32:59Z</time></trkpt><trkpt lat="45.60920931905327" lon="10.313520207305594"><ele>341.0</ele><time>2026-05-01T17:33:00Z</time></trkpt><trkpt lat="45.609109512035836" lon="10.313324648244379"><ele>341.0</ele><time>2026-05-01T17:33:01Z</time></trkpt><trkpt lat="45.60902943693818" lon="10.313118122755048"><ele>341.0</ele><time>2026-05-01T17:33:02Z</time></trkpt><trkpt lat="45.6089646385616" lon="10.312899367829319"><ele>341.33333333333337</ele><time>2026-05-01T17:33:03Z</time></trkpt><trkpt lat="45.60890573811157" lon="10.312669412048429"><ele>341.6666666666667</ele><time>2026-05-01T17:33:04Z</time></trkpt><trkpt lat="45.608836046099405" lon="10.312452438325872"><ele>342.0</ele><time>2026-05-01T17:33:05Z</time></trkpt><trkpt lat="45.608772137198095" lon="10.31223685952583"><ele>342.0</ele><time>2026-05-01T17:33:06Z</time></trkpt><trkpt lat="45.608698912438996" lon="10.312039705085173"><ele>342.0</ele><time>2026-05-01T17:33:07Z</time></trkpt><trkpt lat="45.60859910452119" lon="10.311870776786296"><ele>342.0</ele><time>2026-05-01T17:33:08Z</time></trkpt><trkpt lat="45.60847260711923" lon="10.311729382812612"><ele>340.6666666666667</ele><time>2026-05-01T17:33:09Z</time></trkpt><trkpt lat="45.608329387567814" lon="10.311595453850206"><ele>339.33333333333337</ele><time>2026-05-01T17:33:10Z</time></trkpt><trkpt lat="45.608184082122555" lon="10.311464108487957"><ele>338.0</ele><time>2026-05-01T17:33:11Z</time></trkpt><trkpt lat="45.60803643508981" lon="10.311334646940704"><ele>338.0</ele><time>2026-05-01T17:33:12Z</time></trkpt><trkpt lat="45.60789218314821" lon="10.311203017582201"><ele>338.0</ele><time>2026-05-01T17:33:13Z</time></trkpt><trkpt lat="45.6077432318603" lon="10.311074168517985"><ele>338.0</ele><time>2026-05-01T17:33:14Z</time></trkpt><trkpt lat="45.607592363455645" lon="10.310961819605524"><ele>336.0</ele><time>2026-05-01T17:33:15Z</time></trkpt><trkpt lat="45.6074343562479" lon="10.310865991304459"><ele>334.0</ele><time>2026-05-01T17:33:16Z</time></trkpt><trkpt lat="45.60726666218203" lon="10.310786259375988"><ele>332.0</ele><time>2026-05-01T17:33:17Z</time></trkpt><trkpt lat="45.60710102599132" lon="10.31071161726359"><ele>333.33333333333337</ele><time>2026-05-01T17:33:18Z</time></trkpt><trkpt lat="45.606928320598364" lon="10.310646379524476"><ele>334.6666666666667</ele><time>2026-05-01T17:33:19Z</time></trkpt><trkpt lat="45.606752436016855" lon="10.310581775490549"><ele>336.0</ele><time>2026-05-01T17:33:20Z</time></trkpt><trkpt lat="45.606581644063084" lon="10.310509708364506"><ele>336.0</ele><time>2026-05-01T17:33:21Z</time></trkpt><trkpt lat="45.60641223185896" lon="10.310426427194951"><ele>336.0</ele><time>2026-05-01T17:33:22Z</time></trkpt><trkpt lat="45.60624911846355" lon="10.310345401716917"><ele>336.0</ele><time>2026-05-01T17:33:23Z</time></trkpt><trkpt lat="45.606082502076326" lon="10.310274935175382"><ele>331.6666666666667</ele><time>2026-05-01T17:33:24Z</time></trkpt><trkpt lat="45.60592053261564" lon="10.310210907603189"><ele>327.33333333333337</ele><time>2026-05-01T17:33:25Z</time></trkpt><trkpt lat="45.60576370476509" lon="10.310146968661753"><ele>323.0</ele><time>2026-05-01T17:33:26Z</time></trkpt><trkpt lat="45.605601929430016" lon="10.310093418372256"><ele>323.0</ele><time>2026-05-01T17:33:27Z</time></trkpt><trkpt lat="45.60544276066107" lon="10.310029905879237"><ele>323.0</ele><time>2026-05-01T17:33:28Z</time></trkpt><trkpt lat="45.60527669258258" lon="10.309976665759297"><ele>323.0</ele><time>2026-05-01T17:33:29Z</time></trkpt><trkpt lat="45.60510178048018" lon="10.309966750744335"><ele>321.6666666666667</ele><time>2026-05-01T17:33:30Z</time></trkpt><trkpt lat="45.60493201839314" lon="10.309989411078558"><ele>320.3333333333333</ele><time>2026-05-01T17:33:31Z</time></trkpt><trkpt lat="45.60477124356472" lon="10.30999978785987"><ele>319.0</ele><time>2026-05-01T17:33:32Z</time></trkpt><trkpt lat="45.60461438568436" lon="10.310004477374074"><ele>316.0</ele><time>2026-05-01T17:33:33Z</time></trkpt><trkpt lat="45.60445801016844" lon="10.310006682399786"><ele>313.0</ele><time>2026-05-01T17:33:34Z</time></trkpt><trkpt lat="45.604294032183574" lon="10.310003118999274"><ele>310.0</ele><time>2026-05-01T17:33:35Z</time></trkpt><trkpt lat="45.60413843304953" lon="10.309958119962655"><ele>310.0</ele><time>2026-05-01T17:33:36Z</time></trkpt><trkpt lat="45.60401823118012" lon="10.309816320258662"><ele>310.0</ele><time>2026-05-01T17:33:37Z</time></trkpt><trkpt lat="45.60390247166667" lon="10.309657048719613"><ele>310.0</ele><time>2026-05-01T17:33:38Z</time></trkpt><trkpt lat="45.60377694888513" lon="10.309487633067567"><ele>309.0</ele><time>2026-05-01T17:33:39Z</time></trkpt><trkpt lat="45.60365475761939" lon="10.309295780828958"><ele>308.0</ele><time>2026-05-01T17:33:40Z</time></trkpt><trkpt lat="45.603523126401804" lon="10.309106952556332"><ele>307.0</ele><time>2026-05-01T17:33:41Z</time></trkpt><trkpt lat="45.60339302870943" lon="10.308917038929332"><ele>308.66666666666663</ele><time>2026-05-01T17:33:42Z</time></trkpt><trkpt lat="45.60326298399193" lon="10.308727546408864"><ele>310.3333333333333</ele><time>2026-05-01T17:33:43Z</time></trkpt><trkpt lat="45.60313086314157" lon="10.3085357425928"><ele>312.0</ele><time>2026-05-01T17:33:44Z</time></trkpt><trkpt lat="45.60300476377562" lon="10.308348914471878"><ele>312.0</ele><time>2026-05-01T17:33:45Z</time></trkpt><trkpt lat="45.602881460470314" lon="10.308164214411242"><ele>312.0</ele><time>2026-05-01T17:33:46Z</time></trkpt><trkpt lat="45.602747982742876" lon="10.307993463222255"><ele>312.0</ele><time>2026-05-01T17:33:47Z</time></trkpt><trkpt lat="45.6026295430493" lon="10.307825716286311"><ele>310.6666666666667</ele><time>2026-05-01T17:33:48Z</time></trkpt><trkpt lat="45.60251364890553" lon="10.307660409689051"><ele>309.33333333333337</ele><time>2026-05-01T17:33:49Z</time></trkpt><trkpt lat="45.602390600722586" lon="10.307538967638312"><ele>308.0</ele><time>2026-05-01T17:33:50Z</time></trkpt><trkpt lat="45.60223450599943" lon="10.307434131912663"><ele>308.0</ele><time>2026-05-01T17:33:51Z</time></trkpt><trkpt lat="45.60206881242924" lon="10.307355419881178"><ele>308.0</ele><time>2026-05-01T17:33:52Z</time></trkpt><trkpt lat="45.60189464971793" lon="10.307295523652348"><ele>308.0</ele><time>2026-05-01T17:33:53Z</time></trkpt><trkpt lat="45.60171173285512" lon="10.307240753534868"><ele>308.6666666666667</ele><time>2026-05-01T17:33:54Z</time></trkpt><trkpt lat="45.601531039286805" lon="10.307186868844095"><ele>309.3333333333333</ele><time>2026-05-01T17:33:55Z</time></trkpt><trkpt lat="45.60135262603354" lon="10.307146758283238"><ele>310.0</ele><time>2026-05-01T17:33:56Z</time></trkpt><trkpt lat="45.60117260269742" lon="10.307134448822595"><ele>310.3333333333333</ele><time>2026-05-01T17:33:57Z</time></trkpt><trkpt lat="45.600994454334526" lon="10.307143726993479"><ele>310.6666666666667</ele><time>2026-05-01T17:33:58Z</time></trkpt><trkpt lat="45.600815933757254" lon="10.307187585867034"><ele>311.0</ele><time>2026-05-01T17:33:59Z</time></trkpt><trkpt lat="45.600643026887205" lon="10.30726008559624"><ele>310.0</ele><time>2026-05-01T17:34:00Z</time></trkpt><trkpt lat="45.60047240341288" lon="10.307359594389718"><ele>309.0</ele><time>2026-05-01T17:34:01Z</time></trkpt><trkpt lat="45.60030696652104" lon="10.307474128391055"><ele>308.0</ele><time>2026-05-01T17:34:02Z</time></trkpt><trkpt lat="45.60013905246946" lon="10.30759810158812"><ele>308.0</ele><time>2026-05-01T17:34:03Z</time></trkpt><trkpt lat="45.59996769333227" lon="10.307723163440084"><ele>308.0</ele><time>2026-05-01T17:34:04Z</time></trkpt><trkpt lat="45.599795896744006" lon="10.307852139412692"><ele>308.0</ele><time>2026-05-01T17:34:05Z</time></trkpt><trkpt lat="45.59963046285544" lon="10.307972667324963"><ele>305.33333333333337</ele><time>2026-05-01T17:34:06Z</time></trkpt><trkpt lat="45.59946550248965" lon="10.308088748647123"><ele>302.6666666666667</ele><time>2026-05-01T17:34:07Z</time></trkpt><trkpt lat="45.599308106413375" lon="10.308197896332388"><ele>300.0</ele><time>2026-05-01T17:34:08Z</time></trkpt><trkpt lat="45.59914780124741" lon="10.308310078807036"><ele>300.0</ele><time>2026-05-01T17:34:09Z</time></trkpt><trkpt lat="45.5989977701204" lon="10.308416099604544"><ele>300.0</ele><time>2026-05-01T17:34:10Z</time></trkpt><trkpt lat="45.598846372130346" lon="10.308530767683418"><ele>300.0</ele><time>2026-05-01T17:34:10.999Z</time></trkpt><trkpt lat="45.59870108454198" lon="10.308661091268945"><ele>298.3333333333333</ele><time>2026-05-01T17:34:11.999Z</time></trkpt><trkpt lat="45.59856639973029" lon="10.308828538166976"><ele>296.66666666666663</ele><time>2026-05-01T17:34:12.999Z</time></trkpt><trkpt lat="45.59845387723433" lon="10.309007352199306"><ele>295.0</ele><time>2026-05-01T17:34:13.999Z</time></trkpt><trkpt lat="45.598358992343485" lon="10.309177199672117"><ele>295.0</ele><time>2026-05-01T17:34:14.999Z</time></trkpt><trkpt lat="45.598248024716796" lon="10.309303868972902"><ele>295.0</ele><time>2026-05-01T17:34:15.999Z</time></trkpt><trkpt lat="45.59810851811878" lon="10.30934438853508"><ele>295.0</ele><time>2026-05-01T17:34:16.999Z</time></trkpt><trkpt lat="45.59795228585329" lon="10.309381278764368"><ele>295.0</ele><time>2026-05-01T17:34:17.999Z</time></trkpt><trkpt lat="45.59779958876856" lon="10.30934716498985"><ele>294.0</ele><time>2026-05-01T17:34:18.999Z</time></trkpt><trkpt lat="45.59764645625975" lon="10.309307999243991"><ele>293.0</ele><time>2026-05-01T17:34:19.999Z</time></trkpt><trkpt lat="45.59748484919607" lon="10.309284462231975"><ele>292.0</ele><time>2026-05-01T17:34:20.999Z</time></trkpt><trkpt lat="45.597320655540436" lon="10.309249730752258"><ele>292.0</ele><time>2026-05-01T17:34:21.999Z</time></trkpt><trkpt lat="45.59715774244668" lon="10.309236561270419"><ele>292.0</ele><time>2026-05-01T17:34:22.999Z</time></trkpt><trkpt lat="45.59700588423935" lon="10.309242289185681"><ele>292.0</ele><time>2026-05-01T17:34:24Z</time></trkpt><trkpt lat="45.59686020200712" lon="10.309282605255216"><ele>291.75</ele><time>2026-05-01T17:34:25Z</time></trkpt><trkpt lat="45.59672557650067" lon="10.309355512766302"><ele>291.5</ele><time>2026-05-01T17:34:26Z</time></trkpt><trkpt lat="45.596613024780396" lon="10.309468930803048"><ele>291.25</ele><time>2026-05-01T17:34:27Z</time></trkpt><trkpt lat="45.59652346719325" lon="10.30956256173664"><ele>291.0</ele><time>2026-05-01T17:34:28Z</time></trkpt><trkpt lat="45.59642329877046" lon="10.309616627330831"><ele>291.0</ele><time>2026-05-01T17:34:29Z</time></trkpt><trkpt lat="45.59630575827519" lon="10.309578257111223"><ele>291.0</ele><time>2026-05-01T17:34:30Z</time></trkpt><trkpt lat="45.596162134881894" lon="10.30958759659625"><ele>291.0</ele><time>2026-05-01T17:34:31Z</time></trkpt><trkpt lat="45.59601058826752" lon="10.309553343819152"><ele>291.0</ele><time>2026-05-01T17:34:32Z</time></trkpt><trkpt lat="45.5958536828944" lon="10.309571886256814"><ele>289.6666666666667</ele><time>2026-05-01T17:34:33Z</time></trkpt><trkpt lat="45.59568771579596" lon="10.30964486631664"><ele>288.33333333333337</ele><time>2026-05-01T17:34:34Z</time></trkpt><trkpt lat="45.59553462084561" lon="10.309767304611139"><ele>287.0</ele><time>2026-05-01T17:34:35Z</time></trkpt><trkpt lat="45.59539751303778" lon="10.309935215979056"><ele>288.6666666666667</ele><time>2026-05-01T17:34:36Z</time></trkpt><trkpt lat="45.595241032942496" lon="10.310093616132402"><ele>290.3333333333333</ele><time>2026-05-01T17:34:37Z</time></trkpt><trkpt lat="45.59507314879008" lon="10.3102025655636"><ele>292.0</ele><time>2026-05-01T17:34:38Z</time></trkpt><trkpt lat="45.59490620572699" lon="10.310297062289074"><ele>292.0</ele><time>2026-05-01T17:34:39Z</time></trkpt><trkpt lat="45.59475689808265" lon="10.310385374077665"><ele>292.0</ele><time>2026-05-01T17:34:40Z</time></trkpt><trkpt lat="45.59461092984106" lon="10.310458290798634"><ele>292.0</ele><time>2026-05-01T17:34:41Z</time></trkpt><trkpt lat="45.594451891603796" lon="10.31047408515605"><ele>291.3333333333333</ele><time>2026-05-01T17:34:42Z</time></trkpt><trkpt lat="45.59428213190457" lon="10.310453546905036"><ele>290.6666666666667</ele><time>2026-05-01T17:34:43Z</time></trkpt><trkpt lat="45.594097966773184" lon="10.310436036653565"><ele>290.0</ele><time>2026-05-01T17:34:44Z</time></trkpt><trkpt lat="45.59392399062222" lon="10.310404628131915"><ele>290.0</ele><time>2026-05-01T17:34:45Z</time></trkpt><trkpt lat="45.593748115629886" lon="10.310424395490793"><ele>290.0</ele><time>2026-05-01T17:34:46Z</time></trkpt><trkpt lat="45.59357577362183" lon="10.310480297958176"><ele>290.0</ele><time>2026-05-01T17:34:47Z</time></trkpt><trkpt lat="45.593419353033894" lon="10.310575790008773"><ele>285.5</ele><time>2026-05-01T17:34:48Z</time></trkpt><trkpt lat="45.5932766826931" lon="10.310675509075224"><ele>281.0</ele><time>2026-05-01T17:34:49Z</time></trkpt><trkpt lat="45.59314300470846" lon="10.310756531663603"><ele>276.5</ele><time>2026-05-01T17:34:50Z</time></trkpt><trkpt lat="45.593023599604294" lon="10.310814559732552"><ele>272.0</ele><time>2026-05-01T17:34:51Z</time></trkpt><trkpt lat="45.59290007795142" lon="10.310799096631596"><ele>271.75</ele><time>2026-05-01T17:34:52Z</time></trkpt><trkpt lat="45.59278077425546" lon="10.310752884753061"><ele>271.5</ele><time>2026-05-01T17:34:53Z</time></trkpt><trkpt lat="45.592668940042685" lon="10.310639579740684"><ele>271.25</ele><time>2026-05-01T17:34:54Z</time></trkpt><trkpt lat="45.59255861797366" lon="10.310493976868722"><ele>271.0</ele><time>2026-05-01T17:34:55Z</time></trkpt><trkpt lat="45.592446704881844" lon="10.310338011572929"><ele>270.66666666666663</ele><time>2026-05-01T17:34:56Z</time></trkpt><trkpt lat="45.5923241506974" lon="10.310160410261451"><ele>270.3333333333333</ele><time>2026-05-01T17:34:57Z</time></trkpt><trkpt lat="45.59221147994948" lon="10.309946774951491"><ele>270.0</ele><time>2026-05-01T17:34:58Z</time></trkpt><trkpt lat="45.59209564206565" lon="10.309721795302341"><ele>267.3333333333333</ele><time>2026-05-01T17:34:59Z</time></trkpt><trkpt lat="45.59197472269879" lon="10.309495876857861"><ele>264.66666666666663</ele><time>2026-05-01T17:35:00Z</time></trkpt><trkpt lat="45.591855305884245" lon="10.309257067656512"><ele>262.0</ele><time>2026-05-01T17:35:01Z</time></trkpt><trkpt lat="45.5917335566854" lon="10.30902277173954"><ele>266.66666666666663</ele><time>2026-05-01T17:35:02Z</time></trkpt><trkpt lat="45.591609484441946" lon="10.308795340097577"><ele>271.3333333333333</ele><time>2026-05-01T17:35:03Z</time></trkpt><trkpt lat="45.591493667319504" lon="10.308581146096452"><ele>276.0</ele><time>2026-05-01T17:35:04Z</time></trkpt><trkpt lat="45.59138014295966" lon="10.308375947705473"><ele>276.0</ele><time>2026-05-01T17:35:05Z</time></trkpt><trkpt lat="45.59127271706732" lon="10.308171384566247"><ele>276.0</ele><time>2026-05-01T17:35:06Z</time></trkpt><trkpt lat="45.591170954503106" lon="10.307970600683614"><ele>276.0</ele><time>2026-05-01T17:35:07Z</time></trkpt><trkpt lat="45.591070293576145" lon="10.307773975544494"><ele>272.6666666666667</ele><time>2026-05-01T17:35:08Z</time></trkpt><trkpt lat="45.590966998085015" lon="10.307582198260405"><ele>269.33333333333337</ele><time>2026-05-01T17:35:09Z</time></trkpt><trkpt lat="45.59086891803579" lon="10.307394519079027"><ele>266.0</ele><time>2026-05-01T17:35:10Z</time></trkpt><trkpt lat="45.590776569705405" lon="10.307212883284965"><ele>266.0</ele><time>2026-05-01T17:35:11Z</time></trkpt><trkpt lat="45.59068206257396" lon="10.30702553794775"><ele>266.0</ele><time>2026-05-01T17:35:12Z</time></trkpt><trkpt lat="45.59059431512304" lon="10.30685136612827"><ele>266.0</ele><time>2026-05-01T17:35:13Z</time></trkpt><trkpt lat="45.59050976478078" lon="10.306684361606793"><ele>266.0</ele><time>2026-05-01T17:35:14Z</time></trkpt><trkpt lat="45.59041104224198" lon="10.306515797271906"><ele>266.0</ele><time>2026-05-01T17:35:15Z</time></trkpt><trkpt lat="45.590307809382786" lon="10.306364189204398"><ele>266.0</ele><time>2026-05-01T17:35:16Z</time></trkpt><trkpt lat="45.59019567085789" lon="10.306228586775292"><ele>266.0</ele><time>2026-05-01T17:35:17Z</time></trkpt><trkpt lat="45.590090275740884" lon="10.30609912361492"><ele>264.25</ele><time>2026-05-01T17:35:18Z</time></trkpt><trkpt lat="45.58998449210698" lon="10.305971555176002"><ele>262.5</ele><time>2026-05-01T17:35:19Z</time></trkpt><trkpt lat="45.58989808027357" lon="10.305818236300224"><ele>260.75</ele><time>2026-05-01T17:35:20Z</time></trkpt><trkpt lat="45.58981010041692" lon="10.3056702970108"><ele>259.0</ele><time>2026-05-01T17:35:21Z</time></trkpt><trkpt lat="45.58972806110789" lon="10.30551938738453"><ele>257.25</ele><time>2026-05-01T17:35:22Z</time></trkpt><trkpt lat="45.58964479392642" lon="10.305363557165888"><ele>255.5</ele><time>2026-05-01T17:35:23Z</time></trkpt><trkpt lat="45.589557709419225" lon="10.305204824584028"><ele>253.75</ele><time>2026-05-01T17:35:24Z</time></trkpt><trkpt lat="45.589473396264154" lon="10.30505305209278"><ele>252.0</ele><time>2026-05-01T17:35:25Z</time></trkpt><trkpt lat="45.58939292231044" lon="10.304905076557061"><ele>252.0</ele><time>2026-05-01T17:35:26Z</time></trkpt><trkpt lat="45.58931926782018" lon="10.304764538627753"><ele>252.0</ele><time>2026-05-01T17:35:27Z</time></trkpt><trkpt lat="45.58924286262168" lon="10.304611684328393"><ele>252.0</ele><time>2026-05-01T17:35:28Z</time></trkpt><trkpt lat="45.58915479065657" lon="10.304453064085477"><ele>252.0</ele><time>2026-05-01T17:35:29Z</time></trkpt><trkpt lat="45.589067802235334" lon="10.304288585499732"><ele>255.66666666666669</ele><time>2026-05-01T17:35:30Z</time></trkpt><trkpt lat="45.58899632952378" lon="10.304100455468493"><ele>259.33333333333337</ele><time>2026-05-01T17:35:31Z</time></trkpt><trkpt lat="45.588921775951405" lon="10.303915549133018"><ele>263.0</ele><time>2026-05-01T17:35:32Z</time></trkpt><trkpt lat="45.58885829965896" lon="10.303720711800102"><ele>266.6666666666667</ele><time>2026-05-01T17:35:33Z</time></trkpt><trkpt lat="45.58880032680922" lon="10.303518792284061"><ele>270.3333333333333</ele><time>2026-05-01T17:35:34Z</time></trkpt><trkpt lat="45.588744621935746" lon="10.30331409742047"><ele>274.0</ele><time>2026-05-01T17:35:35Z</time></trkpt><trkpt lat="45.58870801653168" lon="10.30311056398298"><ele>275.66666666666663</ele><time>2026-05-01T17:35:36Z</time></trkpt><trkpt lat="45.58868779616743" lon="10.302901080832974"><ele>277.3333333333333</ele><time>2026-05-01T17:35:37Z</time></trkpt><trkpt lat="45.588677923180626" lon="10.302689099114636"><ele>279.0</ele><time>2026-05-01T17:35:38Z</time></trkpt><trkpt lat="45.588671461559294" lon="10.302470304443142"><ele>271.25</ele><time>2026-05-01T17:35:39Z</time></trkpt><trkpt lat="45.58866318334168" lon="10.30225095041393"><ele>263.5</ele><time>2026-05-01T17:35:40Z</time></trkpt><trkpt lat="45.58865229323553" lon="10.302047693854336"><ele>255.75</ele><time>2026-05-01T17:35:41Z</time></trkpt><trkpt lat="45.5886418833257" lon="10.301858339450446"><ele>248.0</ele><time>2026-05-01T17:35:42Z</time></trkpt><trkpt lat="45.58862752474405" lon="10.30168063135162"><ele>247.5</ele><time>2026-05-01T17:35:43Z</time></trkpt><trkpt lat="45.58860157094758" lon="10.301499076428543"><ele>247.0</ele><time>2026-05-01T17:35:44Z</time></trkpt><trkpt lat="45.58854142546035" lon="10.301317187885187"><ele>246.5</ele><time>2026-05-01T17:35:45Z</time></trkpt><trkpt lat="45.5884777017706" lon="10.301131688344665"><ele>246.0</ele><time>2026-05-01T17:35:46Z</time></trkpt><trkpt lat="45.588386474204256" lon="10.300958914040407"><ele>245.66666666666669</ele><time>2026-05-01T17:35:47Z</time></trkpt><trkpt lat="45.588281944198705" lon="10.300781248690713"><ele>245.33333333333334</ele><time>2026-05-01T17:35:48Z</time></trkpt><trkpt lat="45.588181355809944" lon="10.30061441070894"><ele>245.0</ele><time>2026-05-01T17:35:49Z</time></trkpt><trkpt lat="45.58808122175605" lon="10.30043408910496"><ele>244.33333333333334</ele><time>2026-05-01T17:35:50Z</time></trkpt><trkpt lat="45.58802614227962" lon="10.300234401817049"><ele>243.66666666666669</ele><time>2026-05-01T17:35:51Z</time></trkpt><trkpt lat="45.587977891264" lon="10.300029813532719"><ele>243.0</ele><time>2026-05-01T17:35:52Z</time></trkpt><trkpt lat="45.58793477328291" lon="10.299824583742465"><ele>242.75</ele><time>2026-05-01T17:35:53Z</time></trkpt><trkpt lat="45.58789352242199" lon="10.29962494074828"><ele>242.5</ele><time>2026-05-01T17:35:54Z</time></trkpt><trkpt lat="45.5878543851836" lon="10.299435528295552"><ele>242.25</ele><time>2026-05-01T17:35:55Z</time></trkpt><trkpt lat="45.58781544676691" lon="10.299247661364431"><ele>242.0</ele><time>2026-05-01T17:35:56Z</time></trkpt><trkpt lat="45.58777961123291" lon="10.299074677235607"><ele>241.75</ele><time>2026-05-01T17:35:57Z</time></trkpt><trkpt lat="45.58774327452234" lon="10.298899273858934"><ele>241.5</ele><time>2026-05-01T17:35:58Z</time></trkpt><trkpt lat="45.58769086456948" lon="10.298726301569257"><ele>241.25</ele><time>2026-05-01T17:35:59Z</time></trkpt><trkpt lat="45.587657128959606" lon="10.29853066628444"><ele>241.0</ele><time>2026-05-01T17:36:00Z</time></trkpt><trkpt lat="45.58761960162745" lon="10.298332312214116"><ele>241.0</ele><time>2026-05-01T17:36:01Z</time></trkpt><trkpt lat="45.58757363472656" lon="10.298124930432223"><ele>241.0</ele><time>2026-05-01T17:36:02Z</time></trkpt><trkpt lat="45.58753132275943" lon="10.2979102392874"><ele>241.0</ele><time>2026-05-01T17:36:03Z</time></trkpt><trkpt lat="45.58748527147151" lon="10.297691720735793"><ele>240.66666666666666</ele><time>2026-05-01T17:36:04Z</time></trkpt><trkpt lat="45.58743899162265" lon="10.297471736232213"><ele>240.33333333333331</ele><time>2026-05-01T17:36:05Z</time></trkpt><trkpt lat="45.58739170285415" lon="10.297252475527339"><ele>240.0</ele><time>2026-05-01T17:36:06Z</time></trkpt><trkpt lat="45.58734527748325" lon="10.29702610641763"><ele>239.66666666666669</ele><time>2026-05-01T17:36:07Z</time></trkpt><trkpt lat="45.587299049591245" lon="10.29680302780836"><ele>239.33333333333334</ele><time>2026-05-01T17:36:08Z</time></trkpt><trkpt lat="45.58725512732222" lon="10.296582458896292"><ele>239.0</ele><time>2026-05-01T17:36:09Z</time></trkpt><trkpt lat="45.58721001357323" lon="10.296365067258648"><ele>239.0</ele><time>2026-05-01T17:36:10Z</time></trkpt><trkpt lat="45.587171080389474" lon="10.296160461433539"><ele>239.0</ele><time>2026-05-01T17:36:11Z</time></trkpt><trkpt lat="45.58713103116292" lon="10.295959753550207"><ele>239.0</ele><time>2026-05-01T17:36:12Z</time></trkpt><trkpt lat="45.58709881608695" lon="10.295759887700001"><ele>239.0</ele><time>2026-05-01T17:36:13Z</time></trkpt><trkpt lat="45.587053666040326" lon="10.295564806093754"><ele>238.66666666666669</ele><time>2026-05-01T17:36:14Z</time></trkpt><trkpt lat="45.58701279233992" lon="10.295365081272271"><ele>238.33333333333331</ele><time>2026-05-01T17:36:15Z</time></trkpt><trkpt lat="45.586975792865346" lon="10.295148818811686"><ele>238.0</ele><time>2026-05-01T17:36:16Z</time></trkpt><trkpt lat="45.58694281105656" lon="10.294934367679557"><ele>238.0</ele><time>2026-05-01T17:36:17Z</time></trkpt><trkpt lat="45.586912122489956" lon="10.294712432321596"><ele>238.0</ele><time>2026-05-01T17:36:18Z</time></trkpt><trkpt lat="45.5868747469758" lon="10.294485610986602"><ele>238.0</ele><time>2026-05-01T17:36:19Z</time></trkpt><trkpt lat="45.5868548326799" lon="10.29426097953431"><ele>238.0</ele><time>2026-05-01T17:36:20Z</time></trkpt><trkpt lat="45.586819520312226" lon="10.294029577619122"><ele>238.0</ele><time>2026-05-01T17:36:21Z</time></trkpt><trkpt lat="45.58678603446677" lon="10.293808352045893"><ele>238.0</ele><time>2026-05-01T17:36:22Z</time></trkpt><trkpt lat="45.58675222034015" lon="10.29358495755597"><ele>237.0</ele><time>2026-05-01T17:36:23Z</time></trkpt><trkpt lat="45.58671888267905" lon="10.293365338792572"><ele>236.0</ele><time>2026-05-01T17:36:24Z</time></trkpt><trkpt lat="45.58668701729563" lon="10.293155989869627"><ele>235.0</ele><time>2026-05-01T17:36:25Z</time></trkpt><trkpt lat="45.58665331424011" lon="10.29293456549448"><ele>234.0</ele><time>2026-05-01T17:36:26Z</time></trkpt><trkpt lat="45.586618354517164" lon="10.292700017650825"><ele>233.0</ele><time>2026-05-01T17:36:27Z</time></trkpt><trkpt lat="45.58658206554069" lon="10.292457052101755"><ele>232.0</ele><time>2026-05-01T17:36:28Z</time></trkpt><trkpt lat="45.58654459918153" lon="10.292206203673869"><ele>232.0</ele><time>2026-05-01T17:36:29Z</time></trkpt><trkpt lat="45.58650787331701" lon="10.291960313419956"><ele>232.0</ele><time>2026-05-01T17:36:30Z</time></trkpt><trkpt lat="45.58647373644923" lon="10.29173175714855"><ele>232.0</ele><time>2026-05-01T17:36:31Z</time></trkpt><trkpt lat="45.586442610343205" lon="10.291523358959845"><ele>231.8</ele><time>2026-05-01T17:36:32Z</time></trkpt><trkpt lat="45.58641679702565" lon="10.29135053084548"><ele>231.6</ele><time>2026-05-01T17:36:33Z</time></trkpt><trkpt lat="45.58639483470867" lon="10.291202011469498"><ele>231.40000000000003</ele><time>2026-05-01T17:36:34Z</time></trkpt><trkpt lat="45.58637623428575" lon="10.291079323829518"><ele>231.20000000000002</ele><time>2026-05-01T17:36:35Z</time></trkpt><trkpt lat="45.58635860641283" lon="10.29096330941093"><ele>231.0</ele><time>2026-05-01T17:36:36Z</time></trkpt><trkpt lat="45.58634158956175" lon="10.290851316535516"><ele>231.0</ele><time>2026-05-01T17:36:37Z</time></trkpt><trkpt lat="45.58632386305455" lon="10.290734653161453"><ele>231.00000000000003</ele><time>2026-05-01T17:36:38Z</time></trkpt><trkpt lat="45.586304764893164" lon="10.290610464849118"><ele>231.00000000000003</ele><time>2026-05-01T17:36:39Z</time></trkpt><trkpt lat="45.58628498713923" lon="10.29047639378878"><ele>231.0</ele><time>2026-05-01T17:36:40Z</time></trkpt><trkpt lat="45.586265447723584" lon="10.29034269263269"><ele>231.0</ele><time>2026-05-01T17:36:41Z</time></trkpt><trkpt lat="45.5862444012814" lon="10.29019590945031"><ele>231.0</ele><time>2026-05-01T17:36:42Z</time></trkpt><trkpt lat="45.58622494489034" lon="10.290049603683796"><ele>231.00000000000003</ele><time>2026-05-01T17:36:43Z</time></trkpt><trkpt lat="45.58620569952757" lon="10.289895243883075"><ele>231.00000000000003</ele><time>2026-05-01T17:36:44Z</time></trkpt><trkpt lat="45.58618813408039" lon="10.289747638791704"><ele>231.0</ele><time>2026-05-01T17:36:45Z</time></trkpt><trkpt lat="45.58616926733311" lon="10.289589139459627"><ele>231.0</ele><time>2026-05-01T17:36:46Z</time></trkpt><trkpt lat="45.58614997581381" lon="10.28943565728274"><ele>231.0</ele><time>2026-05-01T17:36:47Z</time></trkpt><trkpt lat="45.586130494066346" lon="10.289282839817284"><ele>231.00000000000003</ele><time>2026-05-01T17:36:48Z</time></trkpt><trkpt lat="45.58611081969584" lon="10.289128511379543"><ele>231.00000000000003</ele><time>2026-05-01T17:36:49Z</time></trkpt><trkpt lat="45.58609055698977" lon="10.288973305917551"><ele>231.0</ele><time>2026-05-01T17:36:50Z</time></trkpt><trkpt lat="45.58607088494741" lon="10.288826344255341"><ele>231.0</ele><time>2026-05-01T17:36:51Z</time></trkpt><trkpt lat="45.58605140196767" lon="10.28868079496475"><ele>231.0</ele><time>2026-05-01T17:36:52Z</time></trkpt><trkpt lat="45.58603060295632" lon="10.288531924470231"><ele>231.00000000000003</ele><time>2026-05-01T17:36:53Z</time></trkpt><trkpt lat="45.58600859750809" lon="10.288385028713831"><ele>231.00000000000003</ele><time>2026-05-01T17:36:54Z</time></trkpt><trkpt lat="45.585984083897195" lon="10.288229175830333"><ele>231.0</ele><time>2026-05-01T17:36:55Z</time></trkpt><trkpt lat="45.58595931644348" lon="10.288072392735241"><ele>231.0</ele><time>2026-05-01T17:36:56Z</time></trkpt><trkpt lat="45.5859348649309" lon="10.287917609539265"><ele>231.25</ele><time>2026-05-01T17:36:57Z</time></trkpt><trkpt lat="45.58591052305881" lon="10.287763520376016"><ele>231.5</ele><time>2026-05-01T17:36:58Z</time></trkpt><trkpt lat="45.585886636331416" lon="10.287609732038726"><ele>231.75</ele><time>2026-05-01T17:36:59Z</time></trkpt><trkpt lat="45.585861892371774" lon="10.287449542480001"><ele>232.0</ele><time>2026-05-01T17:37:00Z</time></trkpt><trkpt lat="45.58583713170421" lon="10.287284409786121"><ele>231.5</ele><time>2026-05-01T17:37:01Z</time></trkpt><trkpt lat="45.58581157032375" lon="10.287113936678834"><ele>231.0</ele><time>2026-05-01T17:37:02Z</time></trkpt><trkpt lat="45.58578539107547" lon="10.286931720023658"><ele>230.5</ele><time>2026-05-01T17:37:03Z</time></trkpt><trkpt lat="45.58575727199111" lon="10.286734203040536"><ele>230.0</ele><time>2026-05-01T17:37:04Z</time></trkpt><trkpt lat="45.58572846725713" lon="10.286525562005428"><ele>229.0</ele><time>2026-05-01T17:37:05Z</time></trkpt><trkpt lat="45.58570009016929" lon="10.286308225837297"><ele>228.0</ele><time>2026-05-01T17:37:06Z</time></trkpt><trkpt lat="45.58567021625232" lon="10.286090205209728"><ele>227.0</ele><time>2026-05-01T17:37:07Z</time></trkpt><trkpt lat="45.58564026903928" lon="10.285867246887086"><ele>227.0</ele><time>2026-05-01T17:37:08Z</time></trkpt><trkpt lat="45.58561096696519" lon="10.285650883787776"><ele>227.0</ele><time>2026-05-01T17:37:09Z</time></trkpt><trkpt lat="45.585577275364116" lon="10.285435781511048"><ele>227.0</ele><time>2026-05-01T17:37:10Z</time></trkpt><trkpt lat="45.585543693374674" lon="10.285227204691198"><ele>227.0</ele><time>2026-05-01T17:37:11Z</time></trkpt><trkpt lat="45.58550910970403" lon="10.28501240665733"><ele>227.0</ele><time>2026-05-01T17:37:12Z</time></trkpt><trkpt lat="45.58547502888683" lon="10.284798880171426"><ele>227.0</ele><time>2026-05-01T17:37:13Z</time></trkpt><trkpt lat="45.585441527330076" lon="10.28458924606037"><ele>227.0</ele><time>2026-05-01T17:37:14Z</time></trkpt><trkpt lat="45.585407161063166" lon="10.284374320496228"><ele>227.0</ele><time>2026-05-01T17:37:15Z</time></trkpt><trkpt lat="45.5853731708421" lon="10.284161746750721"><ele>227.0</ele><time>2026-05-01T17:37:16Z</time></trkpt><trkpt lat="45.58533923269851" lon="10.28394949864275"><ele>225.66666666666669</ele><time>2026-05-01T17:37:17Z</time></trkpt><trkpt lat="45.58530507618913" lon="10.283735887110732"><ele>224.33333333333331</ele><time>2026-05-01T17:37:18Z</time></trkpt><trkpt lat="45.58527128267403" lon="10.28352188353852"><ele>223.0</ele><time>2026-05-01T17:37:19Z</time></trkpt><trkpt lat="45.58523627652613" lon="10.283300904656803"><ele>223.0</ele><time>2026-05-01T17:37:20Z</time></trkpt><trkpt lat="45.5852037681287" lon="10.283089030632174"><ele>223.0</ele><time>2026-05-01T17:37:21Z</time></trkpt><trkpt lat="45.585172421766416" lon="10.282876670328134"><ele>223.0</ele><time>2026-05-01T17:37:22Z</time></trkpt><trkpt lat="45.585147044437214" lon="10.282681514959641"><ele>223.0</ele><time>2026-05-01T17:37:23Z</time></trkpt><trkpt lat="45.58512147927018" lon="10.2824929687574"><ele>223.0</ele><time>2026-05-01T17:37:24Z</time></trkpt><trkpt lat="45.58509654527025" lon="10.282316677296802"><ele>223.0</ele><time>2026-05-01T17:37:25Z</time></trkpt><trkpt lat="45.58507285861551" lon="10.282139312720117"><ele>223.0</ele><time>2026-05-01T17:37:26Z</time></trkpt><trkpt lat="45.58505002661368" lon="10.281968348103204"><ele>223.0</ele><time>2026-05-01T17:37:27Z</time></trkpt><trkpt lat="45.585029393131606" lon="10.281812623221185"><ele>222.8</ele><time>2026-05-01T17:37:28Z</time></trkpt><trkpt lat="45.58500855397976" lon="10.281655410035441"><ele>222.60000000000002</ele><time>2026-05-01T17:37:29Z</time></trkpt><trkpt lat="45.5849874241284" lon="10.28150239892429"><ele>222.39999999999998</ele><time>2026-05-01T17:37:30Z</time></trkpt><trkpt lat="45.58496701687512" lon="10.281362471380318"><ele>222.2</ele><time>2026-05-01T17:37:31Z</time></trkpt><trkpt lat="45.58494726540182" lon="10.28122704015771"><ele>222.0</ele><time>2026-05-01T17:37:32Z</time></trkpt><trkpt lat="45.584929229888736" lon="10.281103374993995"><ele>221.83333333333334</ele><time>2026-05-01T17:37:33Z</time></trkpt><trkpt lat="45.58491398837734" lon="10.28099886754133"><ele>221.66666666666669</ele><time>2026-05-01T17:37:34Z</time></trkpt><trkpt lat="45.584894061096705" lon="10.280862231056203"><ele>221.5</ele><time>2026-05-01T17:37:36Z</time></trkpt><trkpt lat="45.5848777513448" lon="10.280738652634245"><ele>221.33333333333334</ele><time>2026-05-01T17:37:39Z</time></trkpt><trkpt lat="45.58486401909125" lon="10.28062303605897"><ele>221.16666666666669</ele><time>2026-05-01T17:37:42Z</time></trkpt><trkpt lat="45.584846609491876" lon="10.28047901125968"><ele>221.0</ele><time>2026-05-01T17:37:44Z</time></trkpt><trkpt lat="45.58485175829033" lon="10.280355402344995"><ele>221.0</ele><time>2026-05-01T17:37:46Z</time></trkpt><trkpt lat="45.58483090726437" lon="10.28020227444124"><ele>221.00000000000003</ele><time>2026-05-01T17:37:48Z</time></trkpt><trkpt lat="45.5847877445383" lon="10.280103925592556"><ele>221.00000000000003</ele><time>2026-05-01T17:37:49Z</time></trkpt><trkpt lat="45.58475440637625" lon="10.279983172949455"><ele>221.0</ele><time>2026-05-01T17:37:50Z</time></trkpt><trkpt lat="45.58472725767279" lon="10.279828313432816"><ele>221.0</ele><time>2026-05-01T17:37:51Z</time></trkpt><trkpt lat="45.584703300227766" lon="10.279678308188053"><ele>221.0</ele><time>2026-05-01T17:37:52Z</time></trkpt><trkpt lat="45.58468205391828" lon="10.279524651257358"><ele>221.00000000000003</ele><time>2026-05-01T17:37:53Z</time></trkpt><trkpt lat="45.58465898601812" lon="10.279382090288687"><ele>221.00000000000003</ele><time>2026-05-01T17:37:54Z</time></trkpt><trkpt lat="45.58463663259752" lon="10.2792461348562"><ele>221.0</ele><time>2026-05-01T17:37:55Z</time></trkpt><trkpt lat="45.58461143670102" lon="10.279111440352931"><ele>221.0</ele><time>2026-05-01T17:37:56Z</time></trkpt><trkpt lat="45.58459116729522" lon="10.278970792718868"><ele>220.75</ele><time>2026-05-01T17:37:57Z</time></trkpt><trkpt lat="45.5845700703963" lon="10.278817509148356"><ele>220.5</ele><time>2026-05-01T17:37:58Z</time></trkpt><trkpt lat="45.584542800154374" lon="10.278661710897815"><ele>220.25</ele><time>2026-05-01T17:37:59Z</time></trkpt><trkpt lat="45.584521376164176" lon="10.278494334250407"><ele>220.0</ele><time>2026-05-01T17:38:00Z</time></trkpt><trkpt lat="45.58449705640612" lon="10.278326315858068"><ele>219.5</ele><time>2026-05-01T17:38:01Z</time></trkpt><trkpt lat="45.584472896999486" lon="10.27815705598828"><ele>219.0</ele><time>2026-05-01T17:38:02Z</time></trkpt><trkpt lat="45.584445357499966" lon="10.277978441246923"><ele>218.5</ele><time>2026-05-01T17:38:03Z</time></trkpt><trkpt lat="45.58441660042569" lon="10.277793192133622"><ele>218.0</ele><time>2026-05-01T17:38:04Z</time></trkpt><trkpt lat="45.58438827054506" lon="10.27760876450508"><ele>218.0</ele><time>2026-05-01T17:38:05Z</time></trkpt><trkpt lat="45.5843613528306" lon="10.277419715253256"><ele>218.0</ele><time>2026-05-01T17:38:06Z</time></trkpt><trkpt lat="45.58433400898469" lon="10.277236077903103"><ele>218.0</ele><time>2026-05-01T17:38:07Z</time></trkpt><trkpt lat="45.58432220543482" lon="10.27704156755594"><ele>218.0</ele><time>2026-05-01T17:38:08Z</time></trkpt><trkpt lat="45.58429530956956" lon="10.276854874555305"><ele>218.0</ele><time>2026-05-01T17:38:09Z</time></trkpt><trkpt lat="45.58426715912213" lon="10.27666228963295"><ele>218.0</ele><time>2026-05-01T17:38:10Z</time></trkpt><trkpt lat="45.584238841727924" lon="10.276466939090701"><ele>218.0</ele><time>2026-05-01T17:38:11Z</time></trkpt><trkpt lat="45.58420987855749" lon="10.276266643927102"><ele>218.0</ele><time>2026-05-01T17:38:12Z</time></trkpt><trkpt lat="45.58418038595285" lon="10.276069500438757"><ele>217.5</ele><time>2026-05-01T17:38:13Z</time></trkpt><trkpt lat="45.58415119399297" lon="10.27587130366293"><ele>217.0</ele><time>2026-05-01T17:38:14Z</time></trkpt><trkpt lat="45.58412393567544" lon="10.275686235135323"><ele>216.5</ele><time>2026-05-01T17:38:15Z</time></trkpt><trkpt lat="45.584098192204756" lon="10.27551145180034"><ele>216.0</ele><time>2026-05-01T17:38:16Z</time></trkpt><trkpt lat="45.58407028860496" lon="10.275322002155436"><ele>215.5</ele><time>2026-05-01T17:38:17Z</time></trkpt><trkpt lat="45.58404285405293" lon="10.275126227502698"><ele>215.0</ele><time>2026-05-01T17:38:18Z</time></trkpt><trkpt lat="45.584023843715904" lon="10.274936442281566"><ele>214.5</ele><time>2026-05-01T17:38:19Z</time></trkpt><trkpt lat="45.5840072581392" lon="10.274739217112689"><ele>214.0</ele><time>2026-05-01T17:38:20Z</time></trkpt><trkpt lat="45.583993198228704" lon="10.274555469387014"><ele>213.79999999999998</ele><time>2026-05-01T17:38:21Z</time></trkpt><trkpt lat="45.58398088531088" lon="10.274390312737765"><ele>213.59999999999997</ele><time>2026-05-01T17:38:22Z</time></trkpt><trkpt lat="45.58396823474777" lon="10.274241954340754"><ele>213.4</ele><time>2026-05-01T17:38:23Z</time></trkpt><trkpt lat="45.5839576101135" lon="10.27412252566095"><ele>213.2</ele><time>2026-05-01T17:38:24Z</time></trkpt><trkpt lat="45.58394933095056" lon="10.27402473429681"><ele>213.0</ele><time>2026-05-01T17:38:25Z</time></trkpt><trkpt lat="45.58390296128783" lon="10.27388108388456"><ele>213.0</ele><time>2026-05-01T17:38:27Z</time></trkpt><trkpt lat="45.58389509858352" lon="10.273727639497263"><ele>213.0</ele><time>2026-05-01T17:38:29Z</time></trkpt><trkpt lat="45.58387094149585" lon="10.273637954182254"><ele>213.0</ele><time>2026-05-01T17:38:30Z</time></trkpt><trkpt lat="45.58390405302569" lon="10.2735029355102"><ele>213.0</ele><time>2026-05-01T17:38:31Z</time></trkpt><trkpt lat="45.5838888046776" lon="10.273364070314987"><ele>213.0</ele><time>2026-05-01T17:38:32Z</time></trkpt><trkpt lat="45.583861681107734" lon="10.273210863571224"><ele>213.0</ele><time>2026-05-01T17:38:33Z</time></trkpt><trkpt lat="45.5838860553704" lon="10.273050451522769"><ele>213.0</ele><time>2026-05-01T17:38:34Z</time></trkpt><trkpt lat="45.58386527141055" lon="10.272886026208601"><ele>213.0</ele><time>2026-05-01T17:38:35Z</time></trkpt><trkpt lat="45.58385449549627" lon="10.272696964962755"><ele>213.0</ele><time>2026-05-01T17:38:36Z</time></trkpt><trkpt lat="45.583835416785675" lon="10.27249323804346"><ele>213.0</ele><time>2026-05-01T17:38:37Z</time></trkpt><trkpt lat="45.58384985049978" lon="10.272274315119795"><ele>213.0</ele><time>2026-05-01T17:38:38Z</time></trkpt><trkpt lat="45.58383749688817" lon="10.272058438998926"><ele>213.0</ele><time>2026-05-01T17:38:39Z</time></trkpt><trkpt lat="45.58382432388748" lon="10.271848405221546"><ele>213.0</ele><time>2026-05-01T17:38:40Z</time></trkpt><trkpt lat="45.58381055540986" lon="10.271636577540438"><ele>213.0</ele><time>2026-05-01T17:38:41Z</time></trkpt><trkpt lat="45.58379673825936" lon="10.271424000996774"><ele>213.0</ele><time>2026-05-01T17:38:42Z</time></trkpt><trkpt lat="45.583782355999915" lon="10.271202730349568"><ele>213.66666666666669</ele><time>2026-05-01T17:38:43Z</time></trkpt><trkpt lat="45.58376793793002" lon="10.270983121868671"><ele>214.33333333333334</ele><time>2026-05-01T17:38:44Z</time></trkpt><trkpt lat="45.583753286612435" lon="10.270768405450607"><ele>215.0</ele><time>2026-05-01T17:38:45Z</time></trkpt><trkpt lat="45.583738823212215" lon="10.270556442988912"><ele>216.5</ele><time>2026-05-01T17:38:46Z</time></trkpt><trkpt lat="45.58372566532438" lon="10.270358631119057"><ele>218.0</ele><time>2026-05-01T17:38:47Z</time></trkpt><trkpt lat="45.58371466984339" lon="10.270171555112753"><ele>219.5</ele><time>2026-05-01T17:38:48Z</time></trkpt><trkpt lat="45.58370446860055" lon="10.269994009868581"><ele>221.0</ele><time>2026-05-01T17:38:49Z</time></trkpt><trkpt lat="45.58369507055044" lon="10.269809945912929"><ele>221.0</ele><time>2026-05-01T17:38:50Z</time></trkpt><trkpt lat="45.58368716116744" lon="10.269619546731846"><ele>221.0</ele><time>2026-05-01T17:38:51Z</time></trkpt><trkpt lat="45.583682373070445" lon="10.269418651912229"><ele>221.0</ele><time>2026-05-01T17:38:52Z</time></trkpt><trkpt lat="45.58368605631394" lon="10.269214020757135"><ele>221.0</ele><time>2026-05-01T17:38:53Z</time></trkpt><trkpt lat="45.58369367884005" lon="10.269009109221358"><ele>219.5</ele><time>2026-05-01T17:38:54Z</time></trkpt><trkpt lat="45.58370139620971" lon="10.268809518327705"><ele>218.0</ele><time>2026-05-01T17:38:55Z</time></trkpt><trkpt lat="45.58370820909999" lon="10.268615558669284"><ele>216.5</ele><time>2026-05-01T17:38:56Z</time></trkpt><trkpt lat="45.58371360907161" lon="10.268440311652945"><ele>215.0</ele><time>2026-05-01T17:38:57Z</time></trkpt><trkpt lat="45.58371865832643" lon="10.268276446535817"><ele>215.00000000000003</ele><time>2026-05-01T17:38:58Z</time></trkpt><trkpt lat="45.5836972022692" lon="10.268130057316858"><ele>215.0</ele><time>2026-05-01T17:38:59Z</time></trkpt><trkpt lat="45.58372784161494" lon="10.268015278767843"><ele>215.0</ele><time>2026-05-01T17:39:00Z</time></trkpt><trkpt lat="45.583749742483434" lon="10.26791085721391"><ele>215.0</ele><time>2026-05-01T17:39:01Z</time></trkpt><trkpt lat="45.58377636324233" lon="10.267820052909547"><ele>215.00000000000003</ele><time>2026-05-01T17:39:02Z</time></trkpt><trkpt lat="45.58381783143656" lon="10.267751682581512"><ele>215.0</ele><time>2026-05-01T17:39:03Z</time></trkpt><trkpt lat="45.58384658774514" lon="10.26766752020822"><ele>214.4</ele><time>2026-05-01T17:39:04Z</time></trkpt><trkpt lat="45.58387972319136" lon="10.267501401999267"><ele>213.8</ele><time>2026-05-01T17:39:06Z</time></trkpt><trkpt lat="45.583817760504" lon="10.267390156621545"><ele>213.2</ele><time>2026-05-01T17:39:07Z</time></trkpt><trkpt lat="45.58377036800124" lon="10.267277958725801"><ele>212.6</ele><time>2026-05-01T17:39:08Z</time></trkpt><trkpt lat="45.583762674373986" lon="10.267136797601857"><ele>212.0</ele><time>2026-05-01T17:39:09Z</time></trkpt><trkpt lat="45.58374942495889" lon="10.266985759648723"><ele>210.25</ele><time>2026-05-01T17:39:10Z</time></trkpt><trkpt lat="45.583762669808664" lon="10.266800807622673"><ele>208.5</ele><time>2026-05-01T17:39:11Z</time></trkpt><trkpt lat="45.58377746678246" lon="10.266593583428694"><ele>206.75</ele><time>2026-05-01T17:39:12Z</time></trkpt><trkpt lat="45.58379403242207" lon="10.266370074215207"><ele>205.0</ele><time>2026-05-01T17:39:13Z</time></trkpt><trkpt lat="45.58381152743604" lon="10.266129442450678"><ele>204.33333333333331</ele><time>2026-05-01T17:39:14Z</time></trkpt><trkpt lat="45.58385155032227" lon="10.265890549870175"><ele>203.66666666666669</ele><time>2026-05-01T17:39:15Z</time></trkpt><trkpt lat="45.583863836065504" lon="10.265639731534973"><ele>203.0</ele><time>2026-05-01T17:39:16Z</time></trkpt><trkpt lat="45.583859879528376" lon="10.26540088143207"><ele>203.0</ele><time>2026-05-01T17:39:17Z</time></trkpt><trkpt lat="45.5838755507262" lon="10.265175940379077"><ele>203.0</ele><time>2026-05-01T17:39:18Z</time></trkpt><trkpt lat="45.58388770068794" lon="10.264943732383475"><ele>203.0</ele><time>2026-05-01T17:39:19Z</time></trkpt><trkpt lat="45.583903923671635" lon="10.264722183440005"><ele>203.0</ele><time>2026-05-01T17:39:20Z</time></trkpt><trkpt lat="45.58391685882077" lon="10.264501164535737"><ele>203.0</ele><time>2026-05-01T17:39:21Z</time></trkpt><trkpt lat="45.583932068050245" lon="10.264290614906642"><ele>203.0</ele><time>2026-05-01T17:39:22Z</time></trkpt><trkpt lat="45.583943004472616" lon="10.264080598680755"><ele>202.33333333333334</ele><time>2026-05-01T17:39:23Z</time></trkpt><trkpt lat="45.58395579718218" lon="10.263865229075245"><ele>201.66666666666669</ele><time>2026-05-01T17:39:24Z</time></trkpt><trkpt lat="45.58396423301587" lon="10.263651829681676"><ele>201.0</ele><time>2026-05-01T17:39:25Z</time></trkpt><trkpt lat="45.5839746816096" lon="10.263437176896057"><ele>201.0</ele><time>2026-05-01T17:39:26Z</time></trkpt><trkpt lat="45.58398340872965" lon="10.263224287532026"><ele>201.0</ele><time>2026-05-01T17:39:27Z</time></trkpt><trkpt lat="45.58399353408748" lon="10.26301124950557"><ele>201.0</ele><time>2026-05-01T17:39:28Z</time></trkpt><trkpt lat="45.584001253836895" lon="10.262790829550882"><ele>200.66666666666669</ele><time>2026-05-01T17:39:29Z</time></trkpt><trkpt lat="45.58400722312347" lon="10.262569526263478"><ele>200.33333333333334</ele><time>2026-05-01T17:39:30Z</time></trkpt><trkpt lat="45.58401407166786" lon="10.262349745659776"><ele>200.0</ele><time>2026-05-01T17:39:31Z</time></trkpt><trkpt lat="45.58402153021287" lon="10.262122364415902"><ele>200.0</ele><time>2026-05-01T17:39:32Z</time></trkpt><trkpt lat="45.584027943703866" lon="10.261903871691443"><ele>200.0</ele><time>2026-05-01T17:39:33Z</time></trkpt><trkpt lat="45.58403455012914" lon="10.261680308034123"><ele>200.0</ele><time>2026-05-01T17:39:34Z</time></trkpt><trkpt lat="45.58403939129204" lon="10.261468618415067"><ele>199.75</ele><time>2026-05-01T17:39:35Z</time></trkpt><trkpt lat="45.584044965219" lon="10.2612683965583"><ele>199.5</ele><time>2026-05-01T17:39:36Z</time></trkpt><trkpt lat="45.58404879259176" lon="10.261075855572905"><ele>199.25</ele><time>2026-05-01T17:39:37Z</time></trkpt><trkpt lat="45.58405050575122" lon="10.260893828708538"><ele>199.0</ele><time>2026-05-01T17:39:38Z</time></trkpt><trkpt lat="45.584050598077" lon="10.260731541873652"><ele>198.79999999999998</ele><time>2026-05-01T17:39:39Z</time></trkpt><trkpt lat="45.58405085597255" lon="10.26057826419213"><ele>198.6</ele><time>2026-05-01T17:39:40Z</time></trkpt><trkpt lat="45.584064752477516" lon="10.260439266359022"><ele>198.4</ele><time>2026-05-01T17:39:41Z</time></trkpt><trkpt lat="45.58411101161917" lon="10.260323004632188"><ele>198.2</ele><time>2026-05-01T17:39:42Z</time></trkpt><trkpt lat="45.58419494441845" lon="10.26024769064391"><ele>198.0</ele><time>2026-05-01T17:39:43Z</time></trkpt><trkpt lat="45.58421394108107" lon="10.260112268586251"><ele>198.0</ele><time>2026-05-01T17:39:44Z</time></trkpt><trkpt lat="45.58416624678441" lon="10.259944596422628"><ele>198.0</ele><time>2026-05-01T17:39:45Z</time></trkpt><trkpt lat="45.5841333693997" lon="10.259786021264773"><ele>198.0</ele><time>2026-05-01T17:39:46Z</time></trkpt><trkpt lat="45.58413500134009" lon="10.25961419721028"><ele>198.0</ele><time>2026-05-01T17:39:47Z</time></trkpt><trkpt lat="45.58414760376913" lon="10.259428171731955"><ele>197.5</ele><time>2026-05-01T17:39:48Z</time></trkpt><trkpt lat="45.584159910101306" lon="10.259234482737993"><ele>197.0</ele><time>2026-05-01T17:39:49Z</time></trkpt><trkpt lat="45.58416831718538" lon="10.25902479568418"><ele>196.5</ele><time>2026-05-01T17:39:50Z</time></trkpt><trkpt lat="45.58417503475887" lon="10.258801444056328"><ele>196.0</ele><time>2026-05-01T17:39:51Z</time></trkpt><trkpt lat="45.584200031606876" lon="10.258568465121186"><ele>196.0</ele><time>2026-05-01T17:39:52Z</time></trkpt><trkpt lat="45.58419489787009" lon="10.258322075883674"><ele>196.0</ele><time>2026-05-01T17:39:53Z</time></trkpt><trkpt lat="45.58420787222757" lon="10.258070902151083"><ele>196.0</ele><time>2026-05-01T17:39:54Z</time></trkpt><trkpt lat="45.58422071678722" lon="10.257819692119083"><ele>196.33333333333331</ele><time>2026-05-01T17:39:55Z</time></trkpt><trkpt lat="45.58423076173403" lon="10.257561322893807"><ele>196.66666666666669</ele><time>2026-05-01T17:39:56Z</time></trkpt><trkpt lat="45.58424229981875" lon="10.257305038322782"><ele>197.0</ele><time>2026-05-01T17:39:57Z</time></trkpt><trkpt lat="45.58426908485114" lon="10.25705534707586"><ele>197.0</ele><time>2026-05-01T17:39:58Z</time></trkpt><trkpt lat="45.58427862076463" lon="10.256821347425992"><ele>197.0</ele><time>2026-05-01T17:39:59Z</time></trkpt><trkpt lat="45.58428791740201" lon="10.25659321964694"><ele>197.0</ele><time>2026-05-01T17:40:00Z</time></trkpt><trkpt lat="45.584279966963656" lon="10.256381492204607"><ele>196.5</ele><time>2026-05-01T17:40:01Z</time></trkpt><trkpt lat="45.58430515358839" lon="10.256170264962638"><ele>196.0</ele><time>2026-05-01T17:40:02Z</time></trkpt><trkpt lat="45.58431327878595" lon="10.255970882831837"><ele>195.5</ele><time>2026-05-01T17:40:03Z</time></trkpt><trkpt lat="45.58432139172817" lon="10.255780855644064"><ele>195.0</ele><time>2026-05-01T17:40:04Z</time></trkpt><trkpt lat="45.58431621169591" lon="10.25561865918828"><ele>195.0</ele><time>2026-05-01T17:40:05Z</time></trkpt><trkpt lat="45.58434722934695" lon="10.255489035018687"><ele>195.0</ele><time>2026-05-01T17:40:06Z</time></trkpt><trkpt lat="45.5843639700718" lon="10.255383753897897"><ele>195.0</ele><time>2026-05-01T17:40:07Z</time></trkpt><trkpt lat="45.58436983482331" lon="10.255289994341549"><ele>195.0</ele><time>2026-05-01T17:40:08Z</time></trkpt><trkpt lat="45.58444401600426" lon="10.255255230374798"><ele>195.0</ele><time>2026-05-01T17:40:09Z</time></trkpt><trkpt lat="45.58448739050096" lon="10.255078695133697"><ele>195.0</ele><time>2026-05-01T17:40:11Z</time></trkpt><trkpt lat="45.58444375018046" lon="10.254954439203237"><ele>195.0</ele><time>2026-05-01T17:40:12Z</time></trkpt><trkpt lat="45.58442311349143" lon="10.254819047381302"><ele>195.0</ele><time>2026-05-01T17:40:13Z</time></trkpt><trkpt lat="45.584387312041855" lon="10.254689902879013"><ele>195.0</ele><time>2026-05-01T17:40:14Z</time></trkpt><trkpt lat="45.58438987419666" lon="10.25453775403951"><ele>195.0</ele><time>2026-05-01T17:40:15Z</time></trkpt><trkpt lat="45.584391152578505" lon="10.254369373018172"><ele>195.0</ele><time>2026-05-01T17:40:16Z</time></trkpt><trkpt lat="45.58439532646224" lon="10.254182782827401"><ele>194.75</ele><time>2026-05-01T17:40:17Z</time></trkpt><trkpt lat="45.584401543780004" lon="10.253972853994236"><ele>194.5</ele><time>2026-05-01T17:40:18Z</time></trkpt><trkpt lat="45.58440906501064" lon="10.25376191975196"><ele>194.25</ele><time>2026-05-01T17:40:19Z</time></trkpt><trkpt lat="45.58441942556281" lon="10.25355069218883"><ele>194.0</ele><time>2026-05-01T17:40:20Z</time></trkpt><trkpt lat="45.5844292224804" lon="10.253333654941486"><ele>194.0</ele><time>2026-05-01T17:40:21Z</time></trkpt><trkpt lat="45.58443938005687" lon="10.253104735598544"><ele>194.0</ele><time>2026-05-01T17:40:22Z</time></trkpt><trkpt lat="45.58444993998612" lon="10.252866748226335"><ele>194.0</ele><time>2026-05-01T17:40:23Z</time></trkpt><trkpt lat="45.584460550631505" lon="10.252627618103807"><ele>194.0</ele><time>2026-05-01T17:40:24Z</time></trkpt><trkpt lat="45.584471162141384" lon="10.252388468350128"><ele>194.0</ele><time>2026-05-01T17:40:25Z</time></trkpt><trkpt lat="45.584481821961134" lon="10.25214441359957"><ele>194.0</ele><time>2026-05-01T17:40:26Z</time></trkpt><trkpt lat="45.58449220892602" lon="10.25190224988323"><ele>193.33333333333334</ele><time>2026-05-01T17:40:27Z</time></trkpt><trkpt lat="45.584502435984746" lon="10.251663814252924"><ele>192.66666666666669</ele><time>2026-05-01T17:40:28Z</time></trkpt><trkpt lat="45.58451287496422" lon="10.251420437988253"><ele>192.0</ele><time>2026-05-01T17:40:29Z</time></trkpt><trkpt lat="45.58452387624519" lon="10.251163952024958"><ele>192.0</ele><time>2026-05-01T17:40:30Z</time></trkpt><trkpt lat="45.5845343347167" lon="10.250920121202954"><ele>192.0</ele><time>2026-05-01T17:40:31Z</time></trkpt><trkpt lat="45.58454584183404" lon="10.25067335673168"><ele>192.0</ele><time>2026-05-01T17:40:32Z</time></trkpt><trkpt lat="45.584556629623485" lon="10.25044569847841"><ele>192.0</ele><time>2026-05-01T17:40:33Z</time></trkpt><trkpt lat="45.58456706416941" lon="10.25022636093871"><ele>192.0</ele><time>2026-05-01T17:40:34Z</time></trkpt><trkpt lat="45.58454612266489" lon="10.250000414769998"><ele>192.0</ele><time>2026-05-01T17:40:35Z</time></trkpt><trkpt lat="45.584555116217366" lon="10.249790356903775"><ele>191.5</ele><time>2026-05-01T17:40:36Z</time></trkpt><trkpt lat="45.58456428477049" lon="10.24958433557768"><ele>191.0</ele><time>2026-05-01T17:40:37Z</time></trkpt><trkpt lat="45.584575592957115" lon="10.249382666021766"><ele>190.5</ele><time>2026-05-01T17:40:38Z</time></trkpt><trkpt lat="45.58462807288048" lon="10.249176462363907"><ele>190.0</ele><time>2026-05-01T17:40:39Z</time></trkpt><trkpt lat="45.584642304996976" lon="10.248959333957036"><ele>190.0</ele><time>2026-05-01T17:40:40Z</time></trkpt><trkpt lat="45.58465782296532" lon="10.248734135966275"><ele>190.0</ele><time>2026-05-01T17:40:41Z</time></trkpt><trkpt lat="45.58467410976998" lon="10.248503652927175"><ele>190.0</ele><time>2026-05-01T17:40:42Z</time></trkpt><trkpt lat="45.58469100072357" lon="10.248267271069606"><ele>190.5</ele><time>2026-05-01T17:40:43Z</time></trkpt><trkpt lat="45.584706885852626" lon="10.248044965245827"><ele>191.0</ele><time>2026-05-01T17:40:44Z</time></trkpt><trkpt lat="45.584722056387434" lon="10.247835702931246"><ele>191.5</ele><time>2026-05-01T17:40:45Z</time></trkpt><trkpt lat="45.58473750031651" lon="10.247631615302287"><ele>192.0</ele><time>2026-05-01T17:40:46Z</time></trkpt><trkpt lat="45.584751678170434" lon="10.247444258564405"><ele>191.6</ele><time>2026-05-01T17:40:47Z</time></trkpt><trkpt lat="45.58476594540518" lon="10.247255720545173"><ele>191.2</ele><time>2026-05-01T17:40:48Z</time></trkpt><trkpt lat="45.58477882377357" lon="10.24708553619271"><ele>190.8</ele><time>2026-05-01T17:40:49Z</time></trkpt><trkpt lat="45.584778153835664" lon="10.246942338618672"><ele>190.4</ele><time>2026-05-01T17:40:50Z</time></trkpt><trkpt lat="45.5848062075447" lon="10.246834185405175"><ele>190.0</ele><time>2026-05-01T17:40:51Z</time></trkpt><trkpt lat="45.58483703360147" lon="10.24673989134318"><ele>190.0</ele><time>2026-05-01T17:40:52Z</time></trkpt><trkpt lat="45.58487776982642" lon="10.246657958082897"><ele>190.0</ele><time>2026-05-01T17:40:53Z</time></trkpt><trkpt lat="45.58494225328276" lon="10.24660700027561"><ele>190.0</ele><time>2026-05-01T17:40:54Z</time></trkpt><trkpt lat="45.584993464426084" lon="10.246502384147506"><ele>190.0</ele><time>2026-05-01T17:40:55Z</time></trkpt><trkpt lat="45.585026672154534" lon="10.246399311780234"><ele>190.0</ele><time>2026-05-01T17:40:56Z</time></trkpt><trkpt lat="45.58501347940262" lon="10.246271458802816"><ele>190.0</ele><time>2026-05-01T17:40:57Z</time></trkpt><trkpt lat="45.58495729766515" lon="10.246158056273014"><ele>189.2</ele><time>2026-05-01T17:40:58Z</time></trkpt><trkpt lat="45.58488451383187" lon="10.24605962604036"><ele>188.4</ele><time>2026-05-01T17:40:59Z</time></trkpt><trkpt lat="45.58484633657142" lon="10.245935390293452"><ele>187.60000000000002</ele><time>2026-05-01T17:41:00Z</time></trkpt><trkpt lat="45.5848402248898" lon="10.245782254754653"><ele>186.8</ele><time>2026-05-01T17:41:01Z</time></trkpt><trkpt lat="45.58488817400681" lon="10.245626282338366"><ele>186.0</ele><time>2026-05-01T17:41:02Z</time></trkpt><trkpt lat="45.58490134712891" lon="10.245448871456267"><ele>186.0</ele><time>2026-05-01T17:41:03Z</time></trkpt><trkpt lat="45.58491589469142" lon="10.245252950105096"><ele>186.0</ele><time>2026-05-01T17:41:04Z</time></trkpt><trkpt lat="45.58493209517348" lon="10.245034771512046"><ele>186.0</ele><time>2026-05-01T17:41:05Z</time></trkpt><trkpt lat="45.58494613042287" lon="10.244807371670316"><ele>186.0</ele><time>2026-05-01T17:41:06Z</time></trkpt><trkpt lat="45.58496127769587" lon="10.244578499166817"><ele>186.0</ele><time>2026-05-01T17:41:07Z</time></trkpt><trkpt lat="45.584961811381596" lon="10.244356752360721"><ele>186.0</ele><time>2026-05-01T17:41:08Z</time></trkpt><trkpt lat="45.58497982944143" lon="10.244138512965895"><ele>186.0</ele><time>2026-05-01T17:41:09Z</time></trkpt><trkpt lat="45.58498916096153" lon="10.243917379917875"><ele>186.0</ele><time>2026-05-01T17:41:10Z</time></trkpt><trkpt lat="45.584977412109865" lon="10.243713453567262"><ele>186.0</ele><time>2026-05-01T17:41:11Z</time></trkpt><trkpt lat="45.58495494548412" lon="10.243511944710319"><ele>186.0</ele><time>2026-05-01T17:41:12Z</time></trkpt><trkpt lat="45.58492867728993" lon="10.243322693497277"><ele>186.0</ele><time>2026-05-01T17:41:13Z</time></trkpt><trkpt lat="45.58489662768876" lon="10.24313338219006"><ele>186.0</ele><time>2026-05-01T17:41:14Z</time></trkpt><trkpt lat="45.584865798637686" lon="10.242944504154728"><ele>186.0</ele><time>2026-05-01T17:41:15Z</time></trkpt><trkpt lat="45.58483379689959" lon="10.24275568846925"><ele>186.0</ele><time>2026-05-01T17:41:16Z</time></trkpt><trkpt lat="45.58480048734316" lon="10.242562652766408"><ele>186.0</ele><time>2026-05-01T17:41:17Z</time></trkpt><trkpt lat="45.58476599914855" lon="10.242387767865923"><ele>186.0</ele><time>2026-05-01T17:41:18Z</time></trkpt><trkpt lat="45.584730425380776" lon="10.242206813217626"><ele>186.0</ele><time>2026-05-01T17:41:19Z</time></trkpt><trkpt lat="45.58469241789751" lon="10.242011788594668"><ele>186.0</ele><time>2026-05-01T17:41:20Z</time></trkpt><trkpt lat="45.584651799018914" lon="10.241819549856263"><ele>186.0</ele><time>2026-05-01T17:41:21Z</time></trkpt><trkpt lat="45.58459441133619" lon="10.241631120748833"><ele>186.0</ele><time>2026-05-01T17:41:22Z</time></trkpt><trkpt lat="45.58453227680492" lon="10.24146075833986"><ele>186.0</ele><time>2026-05-01T17:41:23Z</time></trkpt><trkpt lat="45.584473537459594" lon="10.241288868405057"><ele>186.0</ele><time>2026-05-01T17:41:24Z</time></trkpt><trkpt lat="45.58440017752621" lon="10.24112736515362"><ele>186.25</ele><time>2026-05-01T17:41:25Z</time></trkpt><trkpt lat="45.5843091077984" lon="10.240971402624407"><ele>186.5</ele><time>2026-05-01T17:41:26Z</time></trkpt><trkpt lat="45.58420733636346" lon="10.24082263285479"><ele>186.75</ele><time>2026-05-01T17:41:27Z</time></trkpt><trkpt lat="45.58409729748797" lon="10.240677538282563"><ele>187.0</ele><time>2026-05-01T17:41:28Z</time></trkpt><trkpt lat="45.58398349676561" lon="10.240532517037325"><ele>186.33333333333334</ele><time>2026-05-01T17:41:29Z</time></trkpt><trkpt lat="45.58385542962316" lon="10.240377050625009"><ele>185.66666666666666</ele><time>2026-05-01T17:41:30Z</time></trkpt><trkpt lat="45.5837281478954" lon="10.24022051221552"><ele>185.0</ele><time>2026-05-01T17:41:31Z</time></trkpt><trkpt lat="45.583601931481525" lon="10.240070839766428"><ele>184.75</ele><time>2026-05-01T17:41:32Z</time></trkpt><trkpt lat="45.583485700499025" lon="10.239938511126821"><ele>184.5</ele><time>2026-05-01T17:41:33Z</time></trkpt><trkpt lat="45.583390752106546" lon="10.239818185349785"><ele>184.25</ele><time>2026-05-01T17:41:34Z</time></trkpt><trkpt lat="45.583299551380186" lon="10.239717476362285"><ele>184.0</ele><time>2026-05-01T17:41:35Z</time></trkpt><trkpt lat="45.58321822917602" lon="10.239625826541253"><ele>184.0</ele><time>2026-05-01T17:41:36Z</time></trkpt><trkpt lat="45.58315211909271" lon="10.239546035282467"><ele>184.0</ele><time>2026-05-01T17:41:37Z</time></trkpt><trkpt lat="45.58310425333986" lon="10.239479940861857"><ele>184.0</ele><time>2026-05-01T17:41:38Z</time></trkpt><trkpt lat="45.58304238788109" lon="10.239417116285866"><ele>184.0</ele><time>2026-05-01T17:41:40Z</time></trkpt><trkpt lat="45.58294805461997" lon="10.239309915210569"><ele>184.0</ele><time>2026-05-01T17:41:59Z</time></trkpt><trkpt lat="45.58288242533548" lon="10.2392278505909"><ele>184.0</ele><time>2026-05-01T17:42:00Z</time></trkpt><trkpt lat="45.582801674132114" lon="10.239134165514647"><ele>183.5</ele><time>2026-05-01T17:42:01Z</time></trkpt><trkpt lat="45.582714127442024" lon="10.23904862854228"><ele>183.0</ele><time>2026-05-01T17:42:02Z</time></trkpt><trkpt lat="45.58262516914127" lon="10.238946136378903"><ele>182.5</ele><time>2026-05-01T17:42:03Z</time></trkpt><trkpt lat="45.58251802726942" lon="10.238841341166491"><ele>182.0</ele><time>2026-05-01T17:42:04Z</time></trkpt><trkpt lat="45.58240059299552" lon="10.238723874096356"><ele>182.0</ele><time>2026-05-01T17:42:05Z</time></trkpt><trkpt lat="45.58227152000339" lon="10.23859836512975"><ele>182.0</ele><time>2026-05-01T17:42:06Z</time></trkpt><trkpt lat="45.58213435718308" lon="10.238466534032204"><ele>182.0</ele><time>2026-05-01T17:42:07Z</time></trkpt><trkpt lat="45.58199172246031" lon="10.238322460034324"><ele>181.66666666666666</ele><time>2026-05-01T17:42:08Z</time></trkpt><trkpt lat="45.58184495481541" lon="10.238178541664873"><ele>181.33333333333334</ele><time>2026-05-01T17:42:09Z</time></trkpt><trkpt lat="45.58169092795615" lon="10.238032928027314"><ele>181.0</ele><time>2026-05-01T17:42:10Z</time></trkpt><trkpt lat="45.581538354356155" lon="10.237886617287902"><ele>181.0</ele><time>2026-05-01T17:42:11Z</time></trkpt><trkpt lat="45.58139214541849" lon="10.237744367980449"><ele>181.0</ele><time>2026-05-01T17:42:12Z</time></trkpt><trkpt lat="45.581245687554016" lon="10.237595950842794"><ele>181.0</ele><time>2026-05-01T17:42:13Z</time></trkpt><trkpt lat="45.581098441647825" lon="10.23745136494415"><ele>181.0</ele><time>2026-05-01T17:42:14Z</time></trkpt><trkpt lat="45.580948720557075" lon="10.23731069190405"><ele>181.0</ele><time>2026-05-01T17:42:15Z</time></trkpt><trkpt lat="45.58079741864346" lon="10.237167124272608"><ele>181.0</ele><time>2026-05-01T17:42:16Z</time></trkpt><trkpt lat="45.58064819736561" lon="10.237028067558906"><ele>181.0</ele><time>2026-05-01T17:42:17Z</time></trkpt><trkpt lat="45.58049823351166" lon="10.236889865945273"><ele>181.0</ele><time>2026-05-01T17:42:18Z</time></trkpt><trkpt lat="45.58035127490389" lon="10.236747992725059"><ele>181.0</ele><time>2026-05-01T17:42:19Z</time></trkpt><trkpt lat="45.58020291340391" lon="10.236604846463269"><ele>180.33333333333334</ele><time>2026-05-01T17:42:20Z</time></trkpt><trkpt lat="45.5800576751589" lon="10.236463973666138"><ele>179.66666666666666</ele><time>2026-05-01T17:42:21Z</time></trkpt><trkpt lat="45.579915494810145" lon="10.23632109998379"><ele>179.0</ele><time>2026-05-01T17:42:22Z</time></trkpt><trkpt lat="45.57977465051638" lon="10.236175928738218"><ele>179.0</ele><time>2026-05-01T17:42:23Z</time></trkpt><trkpt lat="45.57964242883302" lon="10.23603511848331"><ele>179.0</ele><time>2026-05-01T17:42:24Z</time></trkpt><trkpt lat="45.57951884591048" lon="10.235903803568135"><ele>179.0</ele><time>2026-05-01T17:42:25Z</time></trkpt><trkpt lat="45.57939131161247" lon="10.235775880719668"><ele>179.0</ele><time>2026-05-01T17:42:26Z</time></trkpt><trkpt lat="45.579260295600214" lon="10.235643895196693"><ele>179.0</ele><time>2026-05-01T17:42:27Z</time></trkpt><trkpt lat="45.579129052019404" lon="10.23550615654785"><ele>179.0</ele><time>2026-05-01T17:42:28Z</time></trkpt><trkpt lat="45.578992242110274" lon="10.23536762209763"><ele>179.33333333333331</ele><time>2026-05-01T17:42:29Z</time></trkpt><trkpt lat="45.578839937643814" lon="10.235211067889615"><ele>179.66666666666666</ele><time>2026-05-01T17:42:30Z</time></trkpt><trkpt lat="45.578692298287" lon="10.235056212061188"><ele>180.0</ele><time>2026-05-01T17:42:31Z</time></trkpt><trkpt lat="45.578550523841606" lon="10.234911094650233"><ele>179.66666666666666</ele><time>2026-05-01T17:42:32Z</time></trkpt><trkpt lat="45.57842338612416" lon="10.23477752758323"><ele>179.33333333333331</ele><time>2026-05-01T17:42:33Z</time></trkpt><trkpt lat="45.578296121025936" lon="10.234647582961719"><ele>179.0</ele><time>2026-05-01T17:42:34Z</time></trkpt><trkpt lat="45.578167218204726" lon="10.234512423817371"><ele>179.0</ele><time>2026-05-01T17:42:35Z</time></trkpt><trkpt lat="45.57803822746819" lon="10.234382655018226"><ele>179.0</ele><time>2026-05-01T17:42:36Z</time></trkpt><trkpt lat="45.5779030004441" lon="10.234245988822291"><ele>179.0</ele><time>2026-05-01T17:42:37Z</time></trkpt><trkpt lat="45.57777424504415" lon="10.234111566381346"><ele>178.66666666666666</ele><time>2026-05-01T17:42:38Z</time></trkpt><trkpt lat="45.57764466864026" lon="10.233970009322155"><ele>178.33333333333334</ele><time>2026-05-01T17:42:39Z</time></trkpt><trkpt lat="45.5775105537985" lon="10.233831608968535"><ele>178.0</ele><time>2026-05-01T17:42:40Z</time></trkpt><trkpt lat="45.577371230273386" lon="10.233683987795752"><ele>178.0</ele><time>2026-05-01T17:42:41Z</time></trkpt><trkpt lat="45.57722844883802" lon="10.23353041939073"><ele>178.0</ele><time>2026-05-01T17:42:42Z</time></trkpt><trkpt lat="45.57708214365947" lon="10.233373713562077"><ele>178.0</ele><time>2026-05-01T17:42:43Z</time></trkpt><trkpt lat="45.576929403271485" lon="10.23321385269132"><ele>177.66666666666669</ele><time>2026-05-01T17:42:44Z</time></trkpt><trkpt lat="45.57678109370212" lon="10.233053808826341"><ele>177.33333333333334</ele><time>2026-05-01T17:42:45Z</time></trkpt><trkpt lat="45.57663599515328" lon="10.232904691046008"><ele>177.0</ele><time>2026-05-01T17:42:46Z</time></trkpt><trkpt lat="45.57649191789023" lon="10.23276030566885"><ele>177.0</ele><time>2026-05-01T17:42:47Z</time></trkpt><trkpt lat="45.57635200339568" lon="10.232624067891905"><ele>177.0</ele><time>2026-05-01T17:42:47.999Z</time></trkpt><trkpt lat="45.57621901783768" lon="10.232492108300567"><ele>177.0</ele><time>2026-05-01T17:42:48.999Z</time></trkpt><trkpt lat="45.57609517083244" lon="10.232350249175164"><ele>176.75</ele><time>2026-05-01T17:42:49.999Z</time></trkpt><trkpt lat="45.575993287373635" lon="10.23220049726819"><ele>176.5</ele><time>2026-05-01T17:42:50.999Z</time></trkpt><trkpt lat="45.575910312672875" lon="10.232039525004375"><ele>176.25</ele><time>2026-05-01T17:42:51.999Z</time></trkpt><trkpt lat="45.575842055774906" lon="10.231869688438675"><ele>176.0</ele><time>2026-05-01T17:42:52.999Z</time></trkpt><trkpt lat="45.57580567629075" lon="10.23171847201151"><ele>176.0</ele><time>2026-05-01T17:42:54Z</time></trkpt><trkpt lat="45.57578681616446" lon="10.231587206864985"><ele>176.0</ele><time>2026-05-01T17:42:55Z</time></trkpt><trkpt lat="45.57577962414463" lon="10.231485436965954"><ele>176.0</ele><time>2026-05-01T17:42:56Z</time></trkpt><trkpt lat="45.57578216434835" lon="10.23134865560717"><ele>176.0</ele><time>2026-05-01T17:42:58Z</time></trkpt><trkpt lat="45.575791504622764" lon="10.23125716138682"><ele>176.0</ele><time>2026-05-01T17:43:03Z</time></trkpt><trkpt lat="45.57582813348471" lon="10.231092228796768"><ele>176.0</ele><time>2026-05-01T17:43:05Z</time></trkpt><trkpt lat="45.57586570762768" lon="10.230968545976562"><ele>176.0</ele><time>2026-05-01T17:43:06Z</time></trkpt><trkpt lat="45.575907149454466" lon="10.2308204526355"><ele>176.0</ele><time>2026-05-01T17:43:07Z</time></trkpt><trkpt lat="45.5759645587174" lon="10.230677253521014"><ele>176.0</ele><time>2026-05-01T17:43:08Z</time></trkpt><trkpt lat="45.576058972099176" lon="10.230536574993945"><ele>176.0</ele><time>2026-05-01T17:43:09Z</time></trkpt><trkpt lat="45.57616543496539" lon="10.230432065935736"><ele>176.0</ele><time>2026-05-01T17:43:10Z</time></trkpt><trkpt lat="45.57626543635505" lon="10.230355590999935"><ele>176.0</ele><time>2026-05-01T17:43:11Z</time></trkpt><trkpt lat="45.57638150385649" lon="10.230308345078113"><ele>176.0</ele><time>2026-05-01T17:43:12Z</time></trkpt><trkpt lat="45.576524115561675" lon="10.230309542801058"><ele>176.0</ele><time>2026-05-01T17:43:13Z</time></trkpt><trkpt lat="45.57665666911122" lon="10.230224017420017"><ele>176.0</ele><time>2026-05-01T17:43:14Z</time></trkpt><trkpt lat="45.576802156663405" lon="10.23018636432817"><ele>176.0</ele><time>2026-05-01T17:43:15Z</time></trkpt><trkpt lat="45.576961443653204" lon="10.230140267566389"><ele>176.0</ele><time>2026-05-01T17:43:16Z</time></trkpt><trkpt lat="45.57712843562166" lon="10.230087623291608"><ele>176.66666666666666</ele><time>2026-05-01T17:43:17Z</time></trkpt><trkpt lat="45.5773014734793" lon="10.230028503786112"><ele>177.33333333333334</ele><time>2026-05-01T17:43:18Z</time></trkpt><trkpt lat="45.57748760253775" lon="10.229986845997495"><ele>178.0</ele><time>2026-05-01T17:43:19Z</time></trkpt><trkpt lat="45.57767280840762" lon="10.229925893341049"><ele>179.0</ele><time>2026-05-01T17:43:20Z</time></trkpt><trkpt lat="45.5778618546479" lon="10.229870774971209"><ele>180.0</ele><time>2026-05-01T17:43:21Z</time></trkpt><trkpt lat="45.57805150124337" lon="10.229825820718402"><ele>181.0</ele><time>2026-05-01T17:43:22Z</time></trkpt><trkpt lat="45.57823871148652" lon="10.229809756534786"><ele>180.66666666666669</ele><time>2026-05-01T17:43:23Z</time></trkpt><trkpt lat="45.57842598884613" lon="10.22979277261399"><ele>180.33333333333334</ele><time>2026-05-01T17:43:24Z</time></trkpt><trkpt lat="45.57859372816607" lon="10.229757816280305"><ele>180.0</ele><time>2026-05-01T17:43:25Z</time></trkpt><trkpt lat="45.57876092910496" lon="10.229742398285282"><ele>179.75</ele><time>2026-05-01T17:43:26Z</time></trkpt><trkpt lat="45.57890151502095" lon="10.229730039828167"><ele>179.5</ele><time>2026-05-01T17:43:27Z</time></trkpt><trkpt lat="45.57903230020901" lon="10.229721091854621"><ele>179.25</ele><time>2026-05-01T17:43:28Z</time></trkpt><trkpt lat="45.57915344140678" lon="10.229706569447696"><ele>179.0</ele><time>2026-05-01T17:43:29Z</time></trkpt><trkpt lat="45.579267775214475" lon="10.229697406782156"><ele>179.0</ele><time>2026-05-01T17:43:30Z</time></trkpt><trkpt lat="45.57937429877195" lon="10.229685519611229"><ele>179.0</ele><time>2026-05-01T17:43:31Z</time></trkpt><trkpt lat="45.57947365317797" lon="10.229679397711893"><ele>179.0</ele><time>2026-05-01T17:43:32Z</time></trkpt><trkpt lat="45.579567387573974" lon="10.229672887171603"><ele>179.0</ele><time>2026-05-01T17:43:33Z</time></trkpt><trkpt lat="45.57965087340959" lon="10.22966874423852"><ele>179.0</ele><time>2026-05-01T17:43:34Z</time></trkpt><trkpt lat="45.57971377904326" lon="10.229664385991617"><ele>179.0</ele><time>2026-05-01T17:43:35Z</time></trkpt><trkpt lat="45.579791035313605" lon="10.229659960578246"><ele>179.0</ele><time>2026-05-01T17:43:38Z</time></trkpt><trkpt lat="45.57986069890382" lon="10.229655882057362"><ele>179.0</ele><time>2026-05-01T17:43:40Z</time></trkpt><trkpt lat="45.579968050037614" lon="10.229654642096028"><ele>179.0</ele><time>2026-05-01T17:43:43Z</time></trkpt><trkpt lat="45.58003461207112" lon="10.229663696179948"><ele>179.0</ele><time>2026-05-01T17:43:45Z</time></trkpt><trkpt lat="45.58010718671374" lon="10.22968282450312"><ele>179.0</ele><time>2026-05-01T17:43:47Z</time></trkpt><trkpt lat="45.58019527784445" lon="10.229689683188765"><ele>179.0</ele><time>2026-05-01T17:43:49Z</time></trkpt><trkpt lat="45.58026549360192" lon="10.229598802866153"><ele>179.0</ele><time>2026-05-01T17:43:51Z</time></trkpt><trkpt lat="45.58034180571355" lon="10.22950534219161"><ele>179.0</ele><time>2026-05-01T17:43:53Z</time></trkpt><trkpt lat="45.58042731501903" lon="10.229442198625598"><ele>179.0</ele><time>2026-05-01T17:43:55Z</time></trkpt><trkpt lat="45.58051006901306" lon="10.22938793739074"><ele>179.0</ele><time>2026-05-01T17:43:57Z</time></trkpt><trkpt lat="45.580591633749684" lon="10.229335671066014"><ele>179.0</ele><time>2026-05-01T17:43:59Z</time></trkpt><trkpt lat="45.58065786457578" lon="10.229298889301878"><ele>179.0</ele><time>2026-05-01T17:44:01Z</time></trkpt><trkpt lat="45.580719681979495" lon="10.229280808137041"><ele>179.5</ele><time>2026-05-01T17:44:04Z</time></trkpt><trkpt lat="45.58082785392387" lon="10.229282064778316"><ele>180.0</ele><time>2026-05-01T17:44:16Z</time></trkpt><trkpt lat="45.58095309079351" lon="10.229304804562185"><ele>180.5</ele><time>2026-05-01T17:44:18Z</time></trkpt><trkpt lat="45.58103571162139" lon="10.229219548307844"><ele>181.0</ele><time>2026-05-01T17:44:20Z</time></trkpt><trkpt lat="45.581048797857" lon="10.22905583485679"><ele>180.4</ele><time>2026-05-01T17:44:22Z</time></trkpt><trkpt lat="45.581016690678545" lon="10.228950919195283"><ele>179.8</ele><time>2026-05-01T17:44:23Z</time></trkpt><trkpt lat="45.580985414525934" lon="10.228834226488276"><ele>179.20000000000002</ele><time>2026-05-01T17:44:24Z</time></trkpt><trkpt lat="45.58097385829453" lon="10.228682696493525"><ele>178.60000000000002</ele><time>2026-05-01T17:44:25Z</time></trkpt><trkpt lat="45.580989551498426" lon="10.228509294296547"><ele>178.0</ele><time>2026-05-01T17:44:26Z</time></trkpt><trkpt lat="45.58101182867591" lon="10.22832572634756"><ele>178.25</ele><time>2026-05-01T17:44:27Z</time></trkpt><trkpt lat="45.581035765992254" lon="10.228126218091052"><ele>178.5</ele><time>2026-05-01T17:44:28Z</time></trkpt><trkpt lat="45.58105501796226" lon="10.22793043587399"><ele>178.75</ele><time>2026-05-01T17:44:29Z</time></trkpt><trkpt lat="45.58107825231871" lon="10.227722728409224"><ele>179.0</ele><time>2026-05-01T17:44:30Z</time></trkpt><trkpt lat="45.581101331122035" lon="10.227514374784525"><ele>179.0</ele><time>2026-05-01T17:44:31Z</time></trkpt><trkpt lat="45.58112287729612" lon="10.227292933058196"><ele>179.0</ele><time>2026-05-01T17:44:32Z</time></trkpt><trkpt lat="45.58114656445831" lon="10.227067421608298"><ele>179.0</ele><time>2026-05-01T17:44:33Z</time></trkpt><trkpt lat="45.58117131000535" lon="10.226842622434607"><ele>179.66666666666666</ele><time>2026-05-01T17:44:34Z</time></trkpt><trkpt lat="45.581197904642096" lon="10.226613505666132"><ele>180.33333333333334</ele><time>2026-05-01T17:44:35Z</time></trkpt><trkpt lat="45.58122109876381" lon="10.226388472722938"><ele>181.0</ele><time>2026-05-01T17:44:36Z</time></trkpt><trkpt lat="45.58124486778985" lon="10.22615543771172"><ele>181.0</ele><time>2026-05-01T17:44:37Z</time></trkpt><trkpt lat="45.58126700740423" lon="10.225921664599014"><ele>181.0</ele><time>2026-05-01T17:44:38Z</time></trkpt><trkpt lat="45.58129076909092" lon="10.225685950646076"><ele>181.0</ele><time>2026-05-01T17:44:39Z</time></trkpt><trkpt lat="45.581315281878936" lon="10.225453210825835"><ele>181.0</ele><time>2026-05-01T17:44:40Z</time></trkpt><trkpt lat="45.58134087321052" lon="10.225223487571155"><ele>181.0</ele><time>2026-05-01T17:44:41Z</time></trkpt><trkpt lat="45.58136549949353" lon="10.224986733933934"><ele>181.0</ele><time>2026-05-01T17:44:42Z</time></trkpt><trkpt lat="45.58139189871779" lon="10.224754686199068"><ele>181.66666666666669</ele><time>2026-05-01T17:44:43Z</time></trkpt><trkpt lat="45.58142042309081" lon="10.22452814584716"><ele>182.33333333333334</ele><time>2026-05-01T17:44:44Z</time></trkpt><trkpt lat="45.5814474904509" lon="10.22430430599785"><ele>183.0</ele><time>2026-05-01T17:44:45Z</time></trkpt><trkpt lat="45.58146706768687" lon="10.224071309915955"><ele>183.0</ele><time>2026-05-01T17:44:46Z</time></trkpt><trkpt lat="45.58147427817683" lon="10.223845709181214"><ele>183.0</ele><time>2026-05-01T17:44:47Z</time></trkpt><trkpt lat="45.58146043353119" lon="10.223612435491225"><ele>183.0</ele><time>2026-05-01T17:44:48Z</time></trkpt><trkpt lat="45.581420773633674" lon="10.223383241204335"><ele>183.0</ele><time>2026-05-01T17:44:49Z</time></trkpt><trkpt lat="45.58136439325295" lon="10.223161839806217"><ele>183.0</ele><time>2026-05-01T17:44:50Z</time></trkpt><trkpt lat="45.581283835438526" lon="10.22294316600178"><ele>183.0</ele><time>2026-05-01T17:44:51Z</time></trkpt><trkpt lat="45.58117165277102" lon="10.222761167298962"><ele>182.33333333333334</ele><time>2026-05-01T17:44:52Z</time></trkpt><trkpt lat="45.581055732132555" lon="10.22258854531768"><ele>181.66666666666669</ele><time>2026-05-01T17:44:53Z</time></trkpt><trkpt lat="45.5809311830703" lon="10.22243427174376"><ele>181.0</ele><time>2026-05-01T17:44:54Z</time></trkpt><trkpt lat="45.58079908742445" lon="10.222284863682669"><ele>180.33333333333334</ele><time>2026-05-01T17:44:55Z</time></trkpt><trkpt lat="45.58066074180917" lon="10.222125359011008"><ele>179.66666666666666</ele><time>2026-05-01T17:44:56Z</time></trkpt><trkpt lat="45.58050968391645" lon="10.221986724703708"><ele>179.0</ele><time>2026-05-01T17:44:57Z</time></trkpt><trkpt lat="45.58035168336796" lon="10.221839355085818"><ele>178.66666666666666</ele><time>2026-05-01T17:44:58Z</time></trkpt><trkpt lat="45.58019097569863" lon="10.22170120518554"><ele>178.33333333333334</ele><time>2026-05-01T17:44:59Z</time></trkpt><trkpt lat="45.58002650107877" lon="10.22156156142609"><ele>178.0</ele><time>2026-05-01T17:45:00Z</time></trkpt><trkpt lat="45.57986355758788" lon="10.221407036865745"><ele>177.66666666666669</ele><time>2026-05-01T17:45:01Z</time></trkpt><trkpt lat="45.57970563651049" lon="10.221246134185806"><ele>177.33333333333334</ele><time>2026-05-01T17:45:02Z</time></trkpt><trkpt lat="45.579545950923624" lon="10.221079869930426"><ele>177.0</ele><time>2026-05-01T17:45:03Z</time></trkpt><trkpt lat="45.57938391089696" lon="10.220927580837593"><ele>177.0</ele><time>2026-05-01T17:45:04Z</time></trkpt><trkpt lat="45.5792160089222" lon="10.22077343358086"><ele>177.0</ele><time>2026-05-01T17:45:05Z</time></trkpt><trkpt lat="45.57905320131602" lon="10.220617859274935"><ele>177.0</ele><time>2026-05-01T17:45:06Z</time></trkpt><trkpt lat="45.578886058016515" lon="10.220463416169018"><ele>176.66666666666666</ele><time>2026-05-01T17:45:07Z</time></trkpt><trkpt lat="45.57871904022123" lon="10.22031313836416"><ele>176.33333333333331</ele><time>2026-05-01T17:45:08Z</time></trkpt><trkpt lat="45.57855068463512" lon="10.220160452803835"><ele>176.0</ele><time>2026-05-01T17:45:09Z</time></trkpt><trkpt lat="45.57838183472968" lon="10.22000609235349"><ele>176.0</ele><time>2026-05-01T17:45:10Z</time></trkpt><trkpt lat="45.57821153805245" lon="10.219851150954373"><ele>176.0</ele><time>2026-05-01T17:45:11Z</time></trkpt><trkpt lat="45.57803960969247" lon="10.219696075516278"><ele>176.0</ele><time>2026-05-01T17:45:12Z</time></trkpt><trkpt lat="45.57787239715851" lon="10.219542422555277"><ele>175.0</ele><time>2026-05-01T17:45:13Z</time></trkpt><trkpt lat="45.57769614763121" lon="10.219401246221157"><ele>174.0</ele><time>2026-05-01T17:45:14Z</time></trkpt><trkpt lat="45.57751639632121" lon="10.219260794326772"><ele>173.0</ele><time>2026-05-01T17:45:15Z</time></trkpt><trkpt lat="45.577327124365276" lon="10.21912431909316"><ele>172.5</ele><time>2026-05-01T17:45:16Z</time></trkpt><trkpt lat="45.577127254893234" lon="10.218982613706839"><ele>172.0</ele><time>2026-05-01T17:45:17Z</time></trkpt><trkpt lat="45.576920344611565" lon="10.2188450332469"><ele>171.66666666666669</ele><time>2026-05-01T17:45:18Z</time></trkpt><trkpt lat="45.57672737390422" lon="10.218720623992999"><ele>171.33333333333334</ele><time>2026-05-01T17:45:19Z</time></trkpt><trkpt lat="45.576544043645555" lon="10.21861280018848"><ele>171.0</ele><time>2026-05-01T17:45:20Z</time></trkpt><trkpt lat="45.57636522871371" lon="10.21849650054063"><ele>171.0</ele><time>2026-05-01T17:45:21Z</time></trkpt><trkpt lat="45.57619735642042" lon="10.218388350301467"><ele>171.0</ele><time>2026-05-01T17:45:22Z</time></trkpt><trkpt lat="45.57602754338912" lon="10.218274107833269"><ele>171.0</ele><time>2026-05-01T17:45:23Z</time></trkpt><trkpt lat="45.57585290035304" lon="10.218160771170371"><ele>171.0</ele><time>2026-05-01T17:45:24Z</time></trkpt><trkpt lat="45.575678310233656" lon="10.218052526248053"><ele>171.0</ele><time>2026-05-01T17:45:25Z</time></trkpt><trkpt lat="45.57551302215547" lon="10.217948611792071"><ele>171.0</ele><time>2026-05-01T17:45:26Z</time></trkpt><trkpt lat="45.57535126445316" lon="10.217847123759691"><ele>171.0</ele><time>2026-05-01T17:45:27Z</time></trkpt><trkpt lat="45.57518884795452" lon="10.217742260629958"><ele>171.0</ele><time>2026-05-01T17:45:28Z</time></trkpt><trkpt lat="45.575028862320885" lon="10.217645621484424"><ele>171.0</ele><time>2026-05-01T17:45:29Z</time></trkpt><trkpt lat="45.57486707824589" lon="10.217543285541328"><ele>171.0</ele><time>2026-05-01T17:45:30Z</time></trkpt><trkpt lat="45.57470793928575" lon="10.217444868064401"><ele>171.0</ele><time>2026-05-01T17:45:31Z</time></trkpt><trkpt lat="45.574549110787665" lon="10.217346756140937"><ele>171.0</ele><time>2026-05-01T17:45:32Z</time></trkpt><trkpt lat="45.574385206267344" lon="10.217247784862261"><ele>171.33333333333334</ele><time>2026-05-01T17:45:33Z</time></trkpt><trkpt lat="45.57421736016361" lon="10.217143779950923"><ele>171.66666666666669</ele><time>2026-05-01T17:45:34Z</time></trkpt><trkpt lat="45.57405240183754" lon="10.217032311382146"><ele>172.0</ele><time>2026-05-01T17:45:35Z</time></trkpt><trkpt lat="45.57388182149265" lon="10.216919199378209"><ele>172.0</ele><time>2026-05-01T17:45:36Z</time></trkpt><trkpt lat="45.57370821300676" lon="10.21680703298669"><ele>172.0</ele><time>2026-05-01T17:45:37Z</time></trkpt><trkpt lat="45.57352458729194" lon="10.216690585810554"><ele>172.0</ele><time>2026-05-01T17:45:38Z</time></trkpt><trkpt lat="45.57333781692828" lon="10.216572108318127"><ele>171.33333333333334</ele><time>2026-05-01T17:45:39Z</time></trkpt><trkpt lat="45.573151240712775" lon="10.216449157679628"><ele>170.66666666666666</ele><time>2026-05-01T17:45:40Z</time></trkpt><trkpt lat="45.572958190730205" lon="10.216328637530584"><ele>170.0</ele><time>2026-05-01T17:45:41Z</time></trkpt><trkpt lat="45.57276366282672" lon="10.21620449116037"><ele>169.33333333333331</ele><time>2026-05-01T17:45:42Z</time></trkpt><trkpt lat="45.572569959556674" lon="10.216074424655249"><ele>168.66666666666666</ele><time>2026-05-01T17:45:43Z</time></trkpt><trkpt lat="45.57237314420034" lon="10.21594589238958"><ele>168.0</ele><time>2026-05-01T17:45:44Z</time></trkpt><trkpt lat="45.57217533763831" lon="10.215820241038122"><ele>168.0</ele><time>2026-05-01T17:45:45Z</time></trkpt><trkpt lat="45.57197754981616" lon="10.21569148584618"><ele>168.0</ele><time>2026-05-01T17:45:46Z</time></trkpt><trkpt lat="45.571779008166416" lon="10.215563780884818"><ele>168.0</ele><time>2026-05-01T17:45:47Z</time></trkpt><trkpt lat="45.571586192127384" lon="10.215434038562865"><ele>168.0</ele><time>2026-05-01T17:45:48Z</time></trkpt><trkpt lat="45.571391146132356" lon="10.215301983477799"><ele>168.0</ele><time>2026-05-01T17:45:49Z</time></trkpt><trkpt lat="45.57119963466053" lon="10.215169153791402"><ele>168.0</ele><time>2026-05-01T17:45:50Z</time></trkpt><trkpt lat="45.571009763405115" lon="10.215038918442685"><ele>167.66666666666666</ele><time>2026-05-01T17:45:51Z</time></trkpt><trkpt lat="45.57081844399502" lon="10.214909633622984"><ele>167.33333333333331</ele><time>2026-05-01T17:45:52Z</time></trkpt><trkpt lat="45.57062773556681" lon="10.214782859110818"><ele>167.0</ele><time>2026-05-01T17:45:53Z</time></trkpt><trkpt lat="45.57043748524056" lon="10.214659570274687"><ele>167.0</ele><time>2026-05-01T17:45:54Z</time></trkpt><trkpt lat="45.570246897098905" lon="10.21453530510734"><ele>167.0</ele><time>2026-05-01T17:45:55Z</time></trkpt><trkpt lat="45.57005733934258" lon="10.214413016007088"><ele>167.0</ele><time>2026-05-01T17:45:56Z</time></trkpt><trkpt lat="45.56987653154776" lon="10.21428933460401"><ele>167.0</ele><time>2026-05-01T17:45:57Z</time></trkpt><trkpt lat="45.56970607767943" lon="10.214172839677145"><ele>167.0</ele><time>2026-05-01T17:45:58Z</time></trkpt><trkpt lat="45.56954537033618" lon="10.214058345531823"><ele>167.0</ele><time>2026-05-01T17:45:59Z</time></trkpt><trkpt lat="45.56939279137422" lon="10.213948044355945"><ele>166.66666666666666</ele><time>2026-05-01T17:46:00Z</time></trkpt><trkpt lat="45.56924637005658" lon="10.213835952945912"><ele>166.33333333333334</ele><time>2026-05-01T17:46:01Z</time></trkpt><trkpt lat="45.569104927504135" lon="10.213721764688898"><ele>166.0</ele><time>2026-05-01T17:46:02Z</time></trkpt><trkpt lat="45.568961297972514" lon="10.213605774648448"><ele>166.0</ele><time>2026-05-01T17:46:03Z</time></trkpt><trkpt lat="45.56881631642192" lon="10.213490213273339"><ele>166.0</ele><time>2026-05-01T17:46:04Z</time></trkpt><trkpt lat="45.56867322218605" lon="10.213374628663809"><ele>166.0</ele><time>2026-05-01T17:46:05Z</time></trkpt><trkpt lat="45.56852918423291" lon="10.213255384435199"><ele>165.0</ele><time>2026-05-01T17:46:06Z</time></trkpt><trkpt lat="45.56838115523463" lon="10.213126047046622"><ele>164.0</ele><time>2026-05-01T17:46:07Z</time></trkpt><trkpt lat="45.568228223674154" lon="10.212992749934878"><ele>163.0</ele><time>2026-05-01T17:46:08Z</time></trkpt><trkpt lat="45.56806776268321" lon="10.21285188170607"><ele>163.0</ele><time>2026-05-01T17:46:09Z</time></trkpt><trkpt lat="45.567895438209504" lon="10.212706349695098"><ele>163.0</ele><time>2026-05-01T17:46:10Z</time></trkpt><trkpt lat="45.56771504905688" lon="10.212555617890457"><ele>163.0</ele><time>2026-05-01T17:46:11Z</time></trkpt><trkpt lat="45.56752391652801" lon="10.212400114779323"><ele>163.0</ele><time>2026-05-01T17:46:12Z</time></trkpt><trkpt lat="45.56732035546196" lon="10.21223619683982"><ele>163.0</ele><time>2026-05-01T17:46:13Z</time></trkpt><trkpt lat="45.56711201012692" lon="10.212059820366559"><ele>163.5</ele><time>2026-05-01T17:46:14Z</time></trkpt><trkpt lat="45.56689413059524" lon="10.211877747473057"><ele>164.0</ele><time>2026-05-01T17:46:15Z</time></trkpt><trkpt lat="45.56667015018157" lon="10.211696522485706"><ele>164.0</ele><time>2026-05-01T17:46:16Z</time></trkpt><trkpt lat="45.56643629542824" lon="10.211508141930022"><ele>164.0</ele><time>2026-05-01T17:46:17Z</time></trkpt><trkpt lat="45.5662049026586" lon="10.211324504383606"><ele>163.5</ele><time>2026-05-01T17:46:18Z</time></trkpt><trkpt lat="45.56596580666623" lon="10.211144114734003"><ele>163.0</ele><time>2026-05-01T17:46:19Z</time></trkpt><trkpt lat="45.56572533654442" lon="10.210967158451673"><ele>163.0</ele><time>2026-05-01T17:46:20Z</time></trkpt><trkpt lat="45.565485001368856" lon="10.210793926483259"><ele>163.0</ele><time>2026-05-01T17:46:21Z</time></trkpt><trkpt lat="45.565248087696176" lon="10.210631770896812"><ele>162.0</ele><time>2026-05-01T17:46:22Z</time></trkpt><trkpt lat="45.565006960384416" lon="10.21047444946145"><ele>161.0</ele><time>2026-05-01T17:46:23Z</time></trkpt><trkpt lat="45.564766068812276" lon="10.21031989194379"><ele>161.5</ele><time>2026-05-01T17:46:24Z</time></trkpt><trkpt lat="45.56452599579897" lon="10.210182832318283"><ele>162.0</ele><time>2026-05-01T17:46:25Z</time></trkpt><trkpt lat="45.56428407643497" lon="10.210048151789577"><ele>162.0</ele><time>2026-05-01T17:46:26Z</time></trkpt><trkpt lat="45.5640459798466" lon="10.209920574316916"><ele>162.0</ele><time>2026-05-01T17:46:27Z</time></trkpt><trkpt lat="45.56381259278526" lon="10.209803894877732"><ele>160.5</ele><time>2026-05-01T17:46:28Z</time></trkpt><trkpt lat="45.56359096743647" lon="10.209696538718182"><ele>159.0</ele><time>2026-05-01T17:46:29Z</time></trkpt><trkpt lat="45.56337819913036" lon="10.209597688264926"><ele>159.0</ele><time>2026-05-01T17:46:30Z</time></trkpt><trkpt lat="45.563174729917044" lon="10.209497148101644"><ele>159.0</ele><time>2026-05-01T17:46:31Z</time></trkpt><trkpt lat="45.562973533116" lon="10.209392886495964"><ele>159.0</ele><time>2026-05-01T17:46:32Z</time></trkpt><trkpt lat="45.562776802334454" lon="10.209255210445605"><ele>159.33333333333334</ele><time>2026-05-01T17:46:33Z</time></trkpt><trkpt lat="45.56257133314976" lon="10.209145082495287"><ele>159.66666666666669</ele><time>2026-05-01T17:46:34Z</time></trkpt><trkpt lat="45.56235735337273" lon="10.209059723975022"><ele>160.0</ele><time>2026-05-01T17:46:35Z</time></trkpt><trkpt lat="45.56215096786924" lon="10.20895160682275"><ele>159.0</ele><time>2026-05-01T17:46:36Z</time></trkpt><trkpt lat="45.56195068021074" lon="10.20884878339218"><ele>158.0</ele><time>2026-05-01T17:46:37Z</time></trkpt><trkpt lat="45.56176251070014" lon="10.208749542867414"><ele>157.0</ele><time>2026-05-01T17:46:38Z</time></trkpt><trkpt lat="45.56158452735517" lon="10.2086523990364"><ele>157.0</ele><time>2026-05-01T17:46:39Z</time></trkpt><trkpt lat="45.561413259247544" lon="10.208557746536284"><ele>157.0</ele><time>2026-05-01T17:46:40Z</time></trkpt><trkpt lat="45.56125305088096" lon="10.208474103057474"><ele>157.0</ele><time>2026-05-01T17:46:41Z</time></trkpt><trkpt lat="45.56110659258043" lon="10.208395445499232"><ele>157.33333333333334</ele><time>2026-05-01T17:46:42Z</time></trkpt><trkpt lat="45.56097971086269" lon="10.208279127302976"><ele>157.66666666666666</ele><time>2026-05-01T17:46:43Z</time></trkpt><trkpt lat="45.560883972133304" lon="10.208094880623555"><ele>158.0</ele><time>2026-05-01T17:46:44Z</time></trkpt><trkpt lat="45.56082199198507" lon="10.207879384959474"><ele>158.0</ele><time>2026-05-01T17:46:45Z</time></trkpt><trkpt lat="45.56073903400027" lon="10.207702577872285"><ele>158.0</ele><time>2026-05-01T17:46:46Z</time></trkpt><trkpt lat="45.56059733415701" lon="10.207583672115879"><ele>158.0</ele><time>2026-05-01T17:46:47Z</time></trkpt><trkpt lat="45.56042700255262" lon="10.207533835195795"><ele>158.0</ele><time>2026-05-01T17:46:48Z</time></trkpt><trkpt lat="45.5602382219783" lon="10.207475574680714"><ele>158.0</ele><time>2026-05-01T17:46:49Z</time></trkpt><trkpt lat="45.56006537155184" lon="10.20740314566516"><ele>158.0</ele><time>2026-05-01T17:46:50Z</time></trkpt><trkpt lat="45.559941425044435" lon="10.207144727473459"><ele>158.0</ele><time>2026-05-01T17:46:51Z</time></trkpt><trkpt lat="45.55983020222283" lon="10.20690468934059"><ele>158.0</ele><time>2026-05-01T17:46:52Z</time></trkpt><trkpt lat="45.55973528049474" lon="10.206622535802326"><ele>158.0</ele><time>2026-05-01T17:46:53Z</time></trkpt><trkpt lat="45.5596271623433" lon="10.206347183833142"><ele>158.0</ele><time>2026-05-01T17:46:54Z</time></trkpt><trkpt lat="45.55951481831891" lon="10.206093778957554"><ele>158.0</ele><time>2026-05-01T17:46:55Z</time></trkpt><trkpt lat="45.55939474739992" lon="10.20586182144994"><ele>158.0</ele><time>2026-05-01T17:46:56Z</time></trkpt><trkpt lat="45.55928179394819" lon="10.205650050403419"><ele>157.33333333333331</ele><time>2026-05-01T17:46:57Z</time></trkpt><trkpt lat="45.559168351084836" lon="10.20545070584669"><ele>156.66666666666666</ele><time>2026-05-01T17:46:58Z</time></trkpt><trkpt lat="45.559055867209935" lon="10.205263358645798"><ele>156.0</ele><time>2026-05-01T17:46:59Z</time></trkpt><trkpt lat="45.55892887453662" lon="10.205067776239162"><ele>156.0</ele><time>2026-05-01T17:47:00Z</time></trkpt><trkpt lat="45.55879714748577" lon="10.20487780087868"><ele>156.0</ele><time>2026-05-01T17:47:01Z</time></trkpt><trkpt lat="45.55865843010538" lon="10.204682624797014"><ele>156.0</ele><time>2026-05-01T17:47:02Z</time></trkpt><trkpt lat="45.55851151905057" lon="10.204495018047922"><ele>156.0</ele><time>2026-05-01T17:47:03Z</time></trkpt><trkpt lat="45.55836446752267" lon="10.204308595042846"><ele>156.0</ele><time>2026-05-01T17:47:04Z</time></trkpt><trkpt lat="45.558211192821624" lon="10.204121721950346"><ele>156.0</ele><time>2026-05-01T17:47:05Z</time></trkpt><trkpt lat="45.55805021633138" lon="10.203942463949984"><ele>156.0</ele><time>2026-05-01T17:47:06Z</time></trkpt><trkpt lat="45.55788643644778" lon="10.20376759493101"><ele>156.0</ele><time>2026-05-01T17:47:07Z</time></trkpt><trkpt lat="45.55771595496806" lon="10.203603602660705"><ele>156.0</ele><time>2026-05-01T17:47:08Z</time></trkpt><trkpt lat="45.55754133299074" lon="10.203444261058396"><ele>156.0</ele><time>2026-05-01T17:47:09Z</time></trkpt><trkpt lat="45.5573655574646" lon="10.203283381672648"><ele>156.0</ele><time>2026-05-01T17:47:10Z</time></trkpt><trkpt lat="45.55718517307408" lon="10.203116365090013"><ele>156.0</ele><time>2026-05-01T17:47:11Z</time></trkpt><trkpt lat="45.55701537346248" lon="10.202950800978302"><ele>155.66666666666666</ele><time>2026-05-01T17:47:12Z</time></trkpt><trkpt lat="45.55685600595103" lon="10.202796526011229"><ele>155.33333333333331</ele><time>2026-05-01T17:47:13Z</time></trkpt><trkpt lat="45.55670018324207" lon="10.202647564099653"><ele>155.0</ele><time>2026-05-01T17:47:14Z</time></trkpt><trkpt lat="45.556549993083195" lon="10.202503100418884"><ele>155.0</ele><time>2026-05-01T17:47:15Z</time></trkpt><trkpt lat="45.55639449247022" lon="10.202362553257691"><ele>155.0</ele><time>2026-05-01T17:47:16Z</time></trkpt><trkpt lat="45.556245712831945" lon="10.202208627030181"><ele>155.0</ele><time>2026-05-01T17:47:17Z</time></trkpt><trkpt lat="45.55609233891837" lon="10.202066656875923"><ele>154.0</ele><time>2026-05-01T17:47:18Z</time></trkpt><trkpt lat="45.55594503565311" lon="10.20192368411049"><ele>153.0</ele><time>2026-05-01T17:47:19Z</time></trkpt><trkpt lat="45.55579882645684" lon="10.201776923969064"><ele>152.0</ele><time>2026-05-01T17:47:20Z</time></trkpt><trkpt lat="45.555648650289285" lon="10.201630162013199"><ele>152.0</ele><time>2026-05-01T17:47:21Z</time></trkpt><trkpt lat="45.555492464716814" lon="10.201471974301699"><ele>152.0</ele><time>2026-05-01T17:47:22Z</time></trkpt><trkpt lat="45.55533019428074" lon="10.201307518357867"><ele>152.0</ele><time>2026-05-01T17:47:23Z</time></trkpt><trkpt lat="45.55517713790018" lon="10.201126085038288"><ele>152.33333333333331</ele><time>2026-05-01T17:47:24Z</time></trkpt><trkpt lat="45.55503078574145" lon="10.200935213449158"><ele>152.66666666666666</ele><time>2026-05-01T17:47:25Z</time></trkpt><trkpt lat="45.554882868839414" lon="10.200735061212255"><ele>153.0</ele><time>2026-05-01T17:47:26Z</time></trkpt><trkpt lat="45.554738973856296" lon="10.200531274592757"><ele>152.33333333333334</ele><time>2026-05-01T17:47:27Z</time></trkpt><trkpt lat="45.554591175447705" lon="10.200323322254231"><ele>151.66666666666669</ele><time>2026-05-01T17:47:28Z</time></trkpt><trkpt lat="45.554440637876105" lon="10.200116990901432"><ele>151.0</ele><time>2026-05-01T17:47:29Z</time></trkpt><trkpt lat="45.554289982679165" lon="10.199908953074285"><ele>150.66666666666669</ele><time>2026-05-01T17:47:30Z</time></trkpt><trkpt lat="45.55413546129686" lon="10.199696495460575"><ele>150.33333333333334</ele><time>2026-05-01T17:47:31Z</time></trkpt><trkpt lat="45.55398287137114" lon="10.19948083410887"><ele>150.0</ele><time>2026-05-01T17:47:32Z</time></trkpt><trkpt lat="45.553830461784806" lon="10.199261335483852"><ele>150.0</ele><time>2026-05-01T17:47:33Z</time></trkpt><trkpt lat="45.55368220590427" lon="10.19903555320227"><ele>150.0</ele><time>2026-05-01T17:47:34Z</time></trkpt><trkpt lat="45.55353229891333" lon="10.198808306051752"><ele>150.0</ele><time>2026-05-01T17:47:35Z</time></trkpt><trkpt lat="45.55337801788313" lon="10.198583283993248"><ele>150.0</ele><time>2026-05-01T17:47:36Z</time></trkpt><trkpt lat="45.553227825875126" lon="10.198356861324706"><ele>150.0</ele><time>2026-05-01T17:47:37Z</time></trkpt><trkpt lat="45.55307853345663" lon="10.198132236583334"><ele>150.0</ele><time>2026-05-01T17:47:38Z</time></trkpt><trkpt lat="45.552930423358966" lon="10.197907181718215"><ele>150.0</ele><time>2026-05-01T17:47:39Z</time></trkpt><trkpt lat="45.552784220546265" lon="10.197678062710125"><ele>150.0</ele><time>2026-05-01T17:47:40Z</time></trkpt><trkpt lat="45.552639351932015" lon="10.197445975463468"><ele>150.0</ele><time>2026-05-01T17:47:41Z</time></trkpt><trkpt lat="45.55250202444248" lon="10.197214175536315"><ele>149.33333333333334</ele><time>2026-05-01T17:47:42Z</time></trkpt><trkpt lat="45.5523731182438" lon="10.196974450645815"><ele>148.66666666666669</ele><time>2026-05-01T17:47:43Z</time></trkpt><trkpt lat="45.55224942111312" lon="10.196731309310843"><ele>148.0</ele><time>2026-05-01T17:47:44Z</time></trkpt><trkpt lat="45.55212804846782" lon="10.19648779442825"><ele>148.0</ele><time>2026-05-01T17:47:45Z</time></trkpt><trkpt lat="45.552003650182044" lon="10.196240747624323"><ele>148.0</ele><time>2026-05-01T17:47:46Z</time></trkpt><trkpt lat="45.55188347167653" lon="10.195994675603062"><ele>148.0</ele><time>2026-05-01T17:47:47Z</time></trkpt><trkpt lat="45.551766814945694" lon="10.195756189105943"><ele>147.66666666666669</ele><time>2026-05-01T17:47:48Z</time></trkpt><trkpt lat="45.551655993090804" lon="10.195532000371399"><ele>147.33333333333334</ele><time>2026-05-01T17:47:49Z</time></trkpt><trkpt lat="45.55154112166182" lon="10.195304894585476"><ele>147.0</ele><time>2026-05-01T17:47:50Z</time></trkpt><trkpt lat="45.55142953705433" lon="10.195070213275999"><ele>147.0</ele><time>2026-05-01T17:47:51Z</time></trkpt><trkpt lat="45.55131647696447" lon="10.194839628800123"><ele>147.0</ele><time>2026-05-01T17:47:52Z</time></trkpt><trkpt lat="45.55120234237806" lon="10.194600937426317"><ele>147.0</ele><time>2026-05-01T17:47:53Z</time></trkpt><trkpt lat="45.55107753554513" lon="10.194359227489707"><ele>147.0</ele><time>2026-05-01T17:47:54Z</time></trkpt><trkpt lat="45.550953345665825" lon="10.194097236112713"><ele>147.0</ele><time>2026-05-01T17:47:55Z</time></trkpt><trkpt lat="45.55082354849758" lon="10.193834141844887"><ele>147.0</ele><time>2026-05-01T17:47:56Z</time></trkpt><trkpt lat="45.55069171168244" lon="10.193565322754425"><ele>147.0</ele><time>2026-05-01T17:47:57Z</time></trkpt><trkpt lat="45.550564855948096" lon="10.193298216809243"><ele>147.0</ele><time>2026-05-01T17:47:58Z</time></trkpt><trkpt lat="45.550430553170344" lon="10.193041754330311"><ele>145.5</ele><time>2026-05-01T17:47:59Z</time></trkpt><trkpt lat="45.55029175655344" lon="10.192772964683103"><ele>144.0</ele><time>2026-05-01T17:48:00Z</time></trkpt><trkpt lat="45.55015857759401" lon="10.192497044676738"><ele>143.5</ele><time>2026-05-01T17:48:01Z</time></trkpt><trkpt lat="45.55002660561571" lon="10.192229747055574"><ele>143.0</ele><time>2026-05-01T17:48:02Z</time></trkpt><trkpt lat="45.54989272736578" lon="10.191956930704064"><ele>143.0</ele><time>2026-05-01T17:48:03Z</time></trkpt><trkpt lat="45.549758805912106" lon="10.19168734275585"><ele>143.0</ele><time>2026-05-01T17:48:04Z</time></trkpt><trkpt lat="45.549629057510785" lon="10.191408528698627"><ele>144.0</ele><time>2026-05-01T17:48:05Z</time></trkpt><trkpt lat="45.5494949807211" lon="10.191132719857709"><ele>145.0</ele><time>2026-05-01T17:48:06Z</time></trkpt><trkpt lat="45.54935815550992" lon="10.190857888772982"><ele>144.0</ele><time>2026-05-01T17:48:07Z</time></trkpt><trkpt lat="45.54922161451786" lon="10.190581935113322"><ele>143.0</ele><time>2026-05-01T17:48:08Z</time></trkpt><trkpt lat="45.54909125366149" lon="10.190298390778818"><ele>143.0</ele><time>2026-05-01T17:48:09Z</time></trkpt><trkpt lat="45.54896048723606" lon="10.190012622933677"><ele>143.0</ele><time>2026-05-01T17:48:10Z</time></trkpt><trkpt lat="45.54882544529249" lon="10.18973609336503"><ele>143.0</ele><time>2026-05-01T17:48:11Z</time></trkpt><trkpt lat="45.54868551314816" lon="10.189472142076339"><ele>143.0</ele><time>2026-05-01T17:48:12Z</time></trkpt><trkpt lat="45.54855313489113" lon="10.189207361483984"><ele>143.33333333333331</ele><time>2026-05-01T17:48:13Z</time></trkpt><trkpt lat="45.548424305120065" lon="10.188946606802029"><ele>143.66666666666666</ele><time>2026-05-01T17:48:14Z</time></trkpt><trkpt lat="45.54829819577176" lon="10.188679679620535"><ele>144.0</ele><time>2026-05-01T17:48:15Z</time></trkpt><trkpt lat="45.548163763933914" lon="10.1884273183059"><ele>143.66666666666666</ele><time>2026-05-01T17:48:16Z</time></trkpt><trkpt lat="45.548028558903674" lon="10.188171802899154"><ele>143.33333333333331</ele><time>2026-05-01T17:48:17Z</time></trkpt><trkpt lat="45.54789740914069" lon="10.187915732611115"><ele>143.0</ele><time>2026-05-01T17:48:18Z</time></trkpt><trkpt lat="45.54776799144338" lon="10.187655004189628"><ele>143.0</ele><time>2026-05-01T17:48:19Z</time></trkpt><trkpt lat="45.54763545450648" lon="10.1874003740927"><ele>143.0</ele><time>2026-05-01T17:48:20Z</time></trkpt><trkpt lat="45.54749733697235" lon="10.18714803243011"><ele>143.0</ele><time>2026-05-01T17:48:21Z</time></trkpt><trkpt lat="45.54734472386549" lon="10.186904435900008"><ele>143.0</ele><time>2026-05-01T17:48:22Z</time></trkpt><trkpt lat="45.54717720044031" lon="10.186659214868245"><ele>143.0</ele><time>2026-05-01T17:48:23Z</time></trkpt><trkpt lat="45.546999432400796" lon="10.186422182477802"><ele>143.5</ele><time>2026-05-01T17:48:24Z</time></trkpt><trkpt lat="45.54681324840192" lon="10.18619633993386"><ele>144.0</ele><time>2026-05-01T17:48:25Z</time></trkpt><trkpt lat="45.546614962180904" lon="10.185980225665418"><ele>144.0</ele><time>2026-05-01T17:48:26Z</time></trkpt><trkpt lat="45.546412382236554" lon="10.185776655720368"><ele>144.0</ele><time>2026-05-01T17:48:27Z</time></trkpt><trkpt lat="45.5462051094288" lon="10.185584905981017"><ele>143.0</ele><time>2026-05-01T17:48:28Z</time></trkpt><trkpt lat="45.54598789744796" lon="10.185402396264676"><ele>142.0</ele><time>2026-05-01T17:48:29Z</time></trkpt><trkpt lat="45.54576475777174" lon="10.185233257558929"><ele>142.0</ele><time>2026-05-01T17:48:30Z</time></trkpt><trkpt lat="45.54553927986117" lon="10.185083356513154"><ele>142.0</ele><time>2026-05-01T17:48:31Z</time></trkpt><trkpt lat="45.5453094996635" lon="10.184943885650856"><ele>142.0</ele><time>2026-05-01T17:48:32Z</time></trkpt><trkpt lat="45.54507709983614" lon="10.184817861295073"><ele>142.0</ele><time>2026-05-01T17:48:33Z</time></trkpt><trkpt lat="45.54484267970255" lon="10.184698307322211"><ele>142.0</ele><time>2026-05-01T17:48:34Z</time></trkpt><trkpt lat="45.54462162092826" lon="10.18458019077974"><ele>142.0</ele><time>2026-05-01T17:48:35Z</time></trkpt><trkpt lat="45.544419105487336" lon="10.184468244430816"><ele>140.66666666666669</ele><time>2026-05-01T17:48:36Z</time></trkpt><trkpt lat="45.54422924044926" lon="10.18437787279174"><ele>139.33333333333334</ele><time>2026-05-01T17:48:37Z</time></trkpt><trkpt lat="45.54404115034253" lon="10.18426410193443"><ele>138.0</ele><time>2026-05-01T17:48:38Z</time></trkpt><trkpt lat="45.54384665001814" lon="10.184161916156649"><ele>137.0</ele><time>2026-05-01T17:48:39Z</time></trkpt><trkpt lat="45.54365391538502" lon="10.184054071296321"><ele>136.0</ele><time>2026-05-01T17:48:40Z</time></trkpt><trkpt lat="45.543452204904796" lon="10.183942286534304"><ele>135.0</ele><time>2026-05-01T17:48:41Z</time></trkpt><trkpt lat="45.543251277347714" lon="10.18382840333418"><ele>134.66666666666666</ele><time>2026-05-01T17:48:42Z</time></trkpt><trkpt lat="45.543048686044536" lon="10.18371254540963"><ele>134.33333333333331</ele><time>2026-05-01T17:48:43Z</time></trkpt><trkpt lat="45.54284579310907" lon="10.18360137562201"><ele>134.0</ele><time>2026-05-01T17:48:44Z</time></trkpt><trkpt lat="45.54264206827037" lon="10.18349462766537"><ele>133.66666666666666</ele><time>2026-05-01T17:48:45Z</time></trkpt><trkpt lat="45.5424383065519" lon="10.183392499488336"><ele>133.33333333333334</ele><time>2026-05-01T17:48:46Z</time></trkpt><trkpt lat="45.542230967134834" lon="10.183295249242038"><ele>133.0</ele><time>2026-05-01T17:48:47Z</time></trkpt><trkpt lat="45.54203932093017" lon="10.183204363336875"><ele>134.5</ele><time>2026-05-01T17:48:48Z</time></trkpt><trkpt lat="45.54181513451251" lon="10.183121524964337"><ele>136.0</ele><time>2026-05-01T17:48:49Z</time></trkpt><trkpt lat="45.54159701856273" lon="10.183035597277927"><ele>136.0</ele><time>2026-05-01T17:48:50Z</time></trkpt><trkpt lat="45.54138784133347" lon="10.182954607588579"><ele>136.0</ele><time>2026-05-01T17:48:51Z</time></trkpt><trkpt lat="45.54118707042114" lon="10.182875350384794"><ele>136.0</ele><time>2026-05-01T17:48:52Z</time></trkpt><trkpt lat="45.54098002957112" lon="10.182793969086717"><ele>136.33333333333334</ele><time>2026-05-01T17:48:53Z</time></trkpt><trkpt lat="45.540772314785" lon="10.182713905205826"><ele>136.66666666666666</ele><time>2026-05-01T17:48:54Z</time></trkpt><trkpt lat="45.540561600780364" lon="10.182625914274805"><ele>137.0</ele><time>2026-05-01T17:48:55Z</time></trkpt><trkpt lat="45.540351768733345" lon="10.182533117476005"><ele>137.0</ele><time>2026-05-01T17:48:56Z</time></trkpt><trkpt lat="45.54013500833401" lon="10.182446178428727"><ele>137.0</ele><time>2026-05-01T17:48:57Z</time></trkpt><trkpt lat="45.53991586621192" lon="10.18235725917016"><ele>136.0</ele><time>2026-05-01T17:48:58Z</time></trkpt><trkpt lat="45.539696192093366" lon="10.182268021533456"><ele>135.0</ele><time>2026-05-01T17:48:59Z</time></trkpt><trkpt lat="45.53947957986642" lon="10.18218351194132"><ele>135.0</ele><time>2026-05-01T17:49:00Z</time></trkpt><trkpt lat="45.53926577083181" lon="10.182098454469335"><ele>135.0</ele><time>2026-05-01T17:49:01Z</time></trkpt><trkpt lat="45.53905684666011" lon="10.182018509237585"><ele>135.0</ele><time>2026-05-01T17:49:02Z</time></trkpt><trkpt lat="45.538853340246774" lon="10.181934704958463"><ele>134.66666666666666</ele><time>2026-05-01T17:49:03Z</time></trkpt><trkpt lat="45.53865432644502" lon="10.181842273795436"><ele>134.33333333333331</ele><time>2026-05-01T17:49:04Z</time></trkpt><trkpt lat="45.53844949732662" lon="10.181755609380895"><ele>134.0</ele><time>2026-05-01T17:49:05Z</time></trkpt><trkpt lat="45.53824708461287" lon="10.181655296588202"><ele>134.0</ele><time>2026-05-01T17:49:06Z</time></trkpt><trkpt lat="45.5380463703897" lon="10.181554317791798"><ele>134.0</ele><time>2026-05-01T17:49:07Z</time></trkpt><trkpt lat="45.53784220639464" lon="10.18144993394597"><ele>134.0</ele><time>2026-05-01T17:49:08Z</time></trkpt><trkpt lat="45.53764242311979" lon="10.18133891430261"><ele>133.33333333333331</ele><time>2026-05-01T17:49:09Z</time></trkpt><trkpt lat="45.5374430145292" lon="10.181228289844844"><ele>132.66666666666666</ele><time>2026-05-01T17:49:10Z</time></trkpt><trkpt lat="45.537246248988694" lon="10.181116455096136"><ele>132.0</ele><time>2026-05-01T17:49:11Z</time></trkpt><trkpt lat="45.537050327983906" lon="10.181005797688757"><ele>131.33333333333334</ele><time>2026-05-01T17:49:12Z</time></trkpt><trkpt lat="45.53685785002228" lon="10.180888719111989"><ele>130.66666666666669</ele><time>2026-05-01T17:49:13Z</time></trkpt><trkpt lat="45.53666113637426" lon="10.180773856413204"><ele>130.0</ele><time>2026-05-01T17:49:14Z</time></trkpt><trkpt lat="45.53646475313434" lon="10.180654864567844"><ele>129.66666666666669</ele><time>2026-05-01T17:49:15Z</time></trkpt><trkpt lat="45.53626822440437" lon="10.180535259460603"><ele>129.33333333333334</ele><time>2026-05-01T17:49:16Z</time></trkpt><trkpt lat="45.53606740513152" lon="10.180416341019603"><ele>129.0</ele><time>2026-05-01T17:49:17Z</time></trkpt><trkpt lat="45.535867067635785" lon="10.180298891720163"><ele>129.0</ele><time>2026-05-01T17:49:18Z</time></trkpt><trkpt lat="45.53567257873662" lon="10.180188175528036"><ele>129.0</ele><time>2026-05-01T17:49:19Z</time></trkpt><trkpt lat="45.535484668641125" lon="10.180075052804499"><ele>129.0</ele><time>2026-05-01T17:49:20Z</time></trkpt><trkpt lat="45.535308313305435" lon="10.17996892592694"><ele>128.66666666666666</ele><time>2026-05-01T17:49:21Z</time></trkpt><trkpt lat="45.535121292817834" lon="10.17985510786825"><ele>128.33333333333331</ele><time>2026-05-01T17:49:22Z</time></trkpt><trkpt lat="45.5349250871086" lon="10.179742591324578"><ele>128.0</ele><time>2026-05-01T17:49:23Z</time></trkpt><trkpt lat="45.534754673923764" lon="10.179614597923505"><ele>128.66666666666666</ele><time>2026-05-01T17:49:24Z</time></trkpt><trkpt lat="45.534579601925905" lon="10.179482943197812"><ele>129.33333333333334</ele><time>2026-05-01T17:49:25Z</time></trkpt><trkpt lat="45.53437438490475" lon="10.179356340705425"><ele>130.0</ele><time>2026-05-01T17:49:26Z</time></trkpt><trkpt lat="45.53416094263807" lon="10.179244114674791"><ele>130.0</ele><time>2026-05-01T17:49:27Z</time></trkpt><trkpt lat="45.533972659022965" lon="10.179091948532587"><ele>130.0</ele><time>2026-05-01T17:49:28Z</time></trkpt><trkpt lat="45.533785926505686" lon="10.178935449864928"><ele>130.0</ele><time>2026-05-01T17:49:29Z</time></trkpt><trkpt lat="45.53358818533381" lon="10.17878885352216"><ele>129.33333333333334</ele><time>2026-05-01T17:49:30Z</time></trkpt><trkpt lat="45.533393509900506" lon="10.17867252739101"><ele>128.66666666666666</ele><time>2026-05-01T17:49:31Z</time></trkpt><trkpt lat="45.533193400045505" lon="10.178551380791811"><ele>128.0</ele><time>2026-05-01T17:49:32Z</time></trkpt><trkpt lat="45.53300827846004" lon="10.178444196606668"><ele>127.66666666666666</ele><time>2026-05-01T17:49:33Z</time></trkpt><trkpt lat="45.532839826740016" lon="10.178340635765947"><ele>127.33333333333334</ele><time>2026-05-01T17:49:34Z</time></trkpt><trkpt lat="45.53268215774459" lon="10.178230977263746"><ele>127.0</ele><time>2026-05-01T17:49:35Z</time></trkpt><trkpt lat="45.53253885359895" lon="10.178109193186025"><ele>128.0</ele><time>2026-05-01T17:49:36Z</time></trkpt><trkpt lat="45.53241800400661" lon="10.177960370795168"><ele>129.0</ele><time>2026-05-01T17:49:37Z</time></trkpt><trkpt lat="45.53231433460204" lon="10.177782118945231"><ele>130.0</ele><time>2026-05-01T17:49:38Z</time></trkpt><trkpt lat="45.532229100403654" lon="10.177557559540388"><ele>129.66666666666669</ele><time>2026-05-01T17:49:39Z</time></trkpt><trkpt lat="45.53216878208395" lon="10.177307577477192"><ele>129.33333333333334</ele><time>2026-05-01T17:49:40Z</time></trkpt><trkpt lat="45.532130846899925" lon="10.17702470590076"><ele>129.0</ele><time>2026-05-01T17:49:41Z</time></trkpt><trkpt lat="45.532105020347565" lon="10.176719214814103"><ele>128.33333333333334</ele><time>2026-05-01T17:49:42Z</time></trkpt><trkpt lat="45.53208240302431" lon="10.176409158900661"><ele>127.66666666666667</ele><time>2026-05-01T17:49:43Z</time></trkpt><trkpt lat="45.53205892218909" lon="10.176100290017965"><ele>127.0</ele><time>2026-05-01T17:49:44Z</time></trkpt><trkpt lat="45.532028482348885" lon="10.175799477438773"><ele>127.33333333333334</ele><time>2026-05-01T17:49:45Z</time></trkpt><trkpt lat="45.53200290383387" lon="10.175487634303854"><ele>127.66666666666666</ele><time>2026-05-01T17:49:46Z</time></trkpt><trkpt lat="45.53197456924291" lon="10.175184256041796"><ele>128.0</ele><time>2026-05-01T17:49:47Z</time></trkpt><trkpt lat="45.53194199109614" lon="10.17487211294218"><ele>128.0</ele><time>2026-05-01T17:49:48Z</time></trkpt><trkpt lat="45.53190920999455" lon="10.174556717970345"><ele>128.0</ele><time>2026-05-01T17:49:49Z</time></trkpt><trkpt lat="45.53187683528449" lon="10.174245840043621"><ele>128.0</ele><time>2026-05-01T17:49:50Z</time></trkpt><trkpt lat="45.53184156302172" lon="10.173934487641993"><ele>127.66666666666666</ele><time>2026-05-01T17:49:51Z</time></trkpt><trkpt lat="45.53180754270611" lon="10.173620786026552"><ele>127.33333333333334</ele><time>2026-05-01T17:49:52Z</time></trkpt><trkpt lat="45.53177558175637" lon="10.173305819356871"><ele>127.0</ele><time>2026-05-01T17:49:53Z</time></trkpt><trkpt lat="45.53174355839186" lon="10.172990456857711"><ele>126.66666666666667</ele><time>2026-05-01T17:49:54Z</time></trkpt><trkpt lat="45.53171104835497" lon="10.172676299293116"><ele>126.33333333333334</ele><time>2026-05-01T17:49:55Z</time></trkpt><trkpt lat="45.53168510229899" lon="10.17236093930731"><ele>126.0</ele><time>2026-05-01T17:49:56Z</time></trkpt><trkpt lat="45.53166163382571" lon="10.172041408088592"><ele>126.66666666666666</ele><time>2026-05-01T17:49:57Z</time></trkpt><trkpt lat="45.531640713733125" lon="10.171726671678345"><ele>127.33333333333333</ele><time>2026-05-01T17:49:58Z</time></trkpt><trkpt lat="45.531620297071946" lon="10.171413213681705"><ele>128.0</ele><time>2026-05-01T17:49:59Z</time></trkpt><trkpt lat="45.53160479332192" lon="10.171106660402963"><ele>128.0</ele><time>2026-05-01T17:50:00Z</time></trkpt><trkpt lat="45.531592295503" lon="10.170795606197984"><ele>128.0</ele><time>2026-05-01T17:50:01Z</time></trkpt><trkpt lat="45.5315828012569" lon="10.17048708354529"><ele>128.0</ele><time>2026-05-01T17:50:02Z</time></trkpt><trkpt lat="45.53157428964534" lon="10.170178988755119"><ele>128.0</ele><time>2026-05-01T17:50:03Z</time></trkpt><trkpt lat="45.531566227055684" lon="10.169868405052926"><ele>128.0</ele><time>2026-05-01T17:50:04Z</time></trkpt><trkpt lat="45.53155441398357" lon="10.169564192986476"><ele>128.0</ele><time>2026-05-01T17:50:05Z</time></trkpt><trkpt lat="45.53154308490461" lon="10.169255403107275"><ele>128.33333333333331</ele><time>2026-05-01T17:50:06Z</time></trkpt><trkpt lat="45.53152954610101" lon="10.168945436310212"><ele>128.66666666666666</ele><time>2026-05-01T17:50:07Z</time></trkpt><trkpt lat="45.531512202425745" lon="10.168644533615428"><ele>129.0</ele><time>2026-05-01T17:50:08Z</time></trkpt><trkpt lat="45.531478330228744" lon="10.16834926587141"><ele>129.33333333333334</ele><time>2026-05-01T17:50:09Z</time></trkpt><trkpt lat="45.531423384794806" lon="10.168069453727771"><ele>129.66666666666669</ele><time>2026-05-01T17:50:10Z</time></trkpt><trkpt lat="45.531352857391845" lon="10.167803909128992"><ele>130.0</ele><time>2026-05-01T17:50:11Z</time></trkpt><trkpt lat="45.53127117347588" lon="10.167568277952405"><ele>129.75</ele><time>2026-05-01T17:50:12Z</time></trkpt><trkpt lat="45.531183071056276" lon="10.167377408820462"><ele>129.5</ele><time>2026-05-01T17:50:13Z</time></trkpt><trkpt lat="45.53111030598362" lon="10.167196289921339"><ele>129.25</ele><time>2026-05-01T17:50:14Z</time></trkpt><trkpt lat="45.53107656929443" lon="10.167012283269546"><ele>129.0</ele><time>2026-05-01T17:50:15Z</time></trkpt><trkpt lat="45.531036193623336" lon="10.166855642894252"><ele>129.0</ele><time>2026-05-01T17:50:16Z</time></trkpt><trkpt lat="45.53095001367119" lon="10.166752386857569"><ele>129.0</ele><time>2026-05-01T17:50:17Z</time></trkpt><trkpt lat="45.530823750719016" lon="10.166684654413558"><ele>129.0</ele><time>2026-05-01T17:50:18Z</time></trkpt><trkpt lat="45.53068669682333" lon="10.166613335584696"><ele>129.0</ele><time>2026-05-01T17:50:19Z</time></trkpt><trkpt lat="45.530548212607265" lon="10.166484535497387"><ele>128.66666666666666</ele><time>2026-05-01T17:50:20Z</time></trkpt><trkpt lat="45.53042524425299" lon="10.166297053434128"><ele>128.33333333333331</ele><time>2026-05-01T17:50:21Z</time></trkpt><trkpt lat="45.53028552898009" lon="10.16609705344837"><ele>128.0</ele><time>2026-05-01T17:50:22Z</time></trkpt><trkpt lat="45.530142957269796" lon="10.165917875322373"><ele>127.33333333333333</ele><time>2026-05-01T17:50:23Z</time></trkpt><trkpt lat="45.52999254605123" lon="10.165728968374422"><ele>126.66666666666666</ele><time>2026-05-01T17:50:24Z</time></trkpt><trkpt lat="45.5298577016876" lon="10.165552695664225"><ele>126.0</ele><time>2026-05-01T17:50:25Z</time></trkpt><trkpt lat="45.52972571874852" lon="10.165381190440042"><ele>126.0</ele><time>2026-05-01T17:50:26Z</time></trkpt><trkpt lat="45.52959907791814" lon="10.165216529550577"><ele>126.0</ele><time>2026-05-01T17:50:27Z</time></trkpt><trkpt lat="45.529471304846474" lon="10.165051433673822"><ele>126.0</ele><time>2026-05-01T17:50:28Z</time></trkpt><trkpt lat="45.529336497336146" lon="10.164879887053086"><ele>125.66666666666666</ele><time>2026-05-01T17:50:29Z</time></trkpt><trkpt lat="45.52921300320127" lon="10.164698977812716"><ele>125.33333333333333</ele><time>2026-05-01T17:50:30Z</time></trkpt><trkpt lat="45.529112212700376" lon="10.16449098684739"><ele>125.0</ele><time>2026-05-01T17:50:31Z</time></trkpt><trkpt lat="45.52900708253465" lon="10.16428531850943"><ele>125.0</ele><time>2026-05-01T17:50:32Z</time></trkpt><trkpt lat="45.52891259434708" lon="10.164085965072815"><ele>125.0</ele><time>2026-05-01T17:50:33Z</time></trkpt><trkpt lat="45.52880266977784" lon="10.1639072100247"><ele>125.0</ele><time>2026-05-01T17:50:34Z</time></trkpt><trkpt lat="45.528716565191615" lon="10.163741954616512"><ele>125.25</ele><time>2026-05-01T17:50:35Z</time></trkpt><trkpt lat="45.528627639670816" lon="10.16360566624303"><ele>125.5</ele><time>2026-05-01T17:50:36Z</time></trkpt><trkpt lat="45.52855280539111" lon="10.163479285866512"><ele>125.75</ele><time>2026-05-01T17:50:37Z</time></trkpt><trkpt lat="45.52849048401836" lon="10.163323699714018"><ele>126.0</ele><time>2026-05-01T17:50:38Z</time></trkpt><trkpt lat="45.52841709406124" lon="10.163160081743296"><ele>125.33333333333334</ele><time>2026-05-01T17:50:39Z</time></trkpt><trkpt lat="45.528333250946915" lon="10.162986262476629"><ele>124.66666666666667</ele><time>2026-05-01T17:50:40Z</time></trkpt><trkpt lat="45.52825598391757" lon="10.162787445128082"><ele>124.0</ele><time>2026-05-01T17:50:41Z</time></trkpt><trkpt lat="45.5281580474212" lon="10.162597213016346"><ele>124.0</ele><time>2026-05-01T17:50:42Z</time></trkpt><trkpt lat="45.52808237314619" lon="10.162385913024291"><ele>124.0</ele><time>2026-05-01T17:50:43Z</time></trkpt><trkpt lat="45.52797812812075" lon="10.162200550331109"><ele>124.0</ele><time>2026-05-01T17:50:44Z</time></trkpt><trkpt lat="45.52787099071304" lon="10.162004385720076"><ele>123.66666666666667</ele><time>2026-05-01T17:50:45Z</time></trkpt><trkpt lat="45.527760355837195" lon="10.161802536425329"><ele>123.33333333333334</ele><time>2026-05-01T17:50:46Z</time></trkpt><trkpt lat="45.527650698742384" lon="10.161596648759803"><ele>123.0</ele><time>2026-05-01T17:50:47Z</time></trkpt><trkpt lat="45.527550234782716" lon="10.161397774861483"><ele>122.66666666666666</ele><time>2026-05-01T17:50:48Z</time></trkpt><trkpt lat="45.52745514863635" lon="10.161208334361294"><ele>122.33333333333333</ele><time>2026-05-01T17:50:49Z</time></trkpt><trkpt lat="45.52736999091788" lon="10.161040487013087"><ele>122.0</ele><time>2026-05-01T17:50:50Z</time></trkpt><trkpt lat="45.52728430489996" lon="10.160867442575395"><ele>122.0</ele><time>2026-05-01T17:50:51Z</time></trkpt><trkpt lat="45.52720325377931" lon="10.160732626782492"><ele>121.99999999999999</ele><time>2026-05-01T17:50:52Z</time></trkpt><trkpt lat="45.52715061659677" lon="10.16058112604647"><ele>121.99999999999999</ele><time>2026-05-01T17:50:53Z</time></trkpt><trkpt lat="45.52709299775499" lon="10.160442086877298"><ele>122.0</ele><time>2026-05-01T17:50:55Z</time></trkpt><trkpt lat="45.52707637820504" lon="10.160353178273057"><ele>122.0</ele><time>2026-05-01T17:50:57Z</time></trkpt><trkpt lat="45.52706496134512" lon="10.160246604635702"><ele>122.19999999999999</ele><time>2026-05-01T17:51:00Z</time></trkpt><trkpt lat="45.527093017039014" lon="10.16010528230127"><ele>122.39999999999999</ele><time>2026-05-01T17:51:02Z</time></trkpt><trkpt lat="45.52702631452746" lon="10.160037406373203"><ele>122.60000000000001</ele><time>2026-05-01T17:51:03Z</time></trkpt><trkpt lat="45.52695973755622" lon="10.159982934622109"><ele>122.80000000000001</ele><time>2026-05-01T17:51:04Z</time></trkpt><trkpt lat="45.5268765164874" lon="10.15990243097432"><ele>123.0</ele><time>2026-05-01T17:51:05Z</time></trkpt><trkpt lat="45.52680005476155" lon="10.15979194357029"><ele>123.5</ele><time>2026-05-01T17:51:06Z</time></trkpt><trkpt lat="45.5267208558108" lon="10.159663584423598"><ele>124.0</ele><time>2026-05-01T17:51:07Z</time></trkpt><trkpt lat="45.52665549259434" lon="10.159493380867845"><ele>124.5</ele><time>2026-05-01T17:51:08Z</time></trkpt><trkpt lat="45.526567068231465" lon="10.159315038485538"><ele>125.0</ele><time>2026-05-01T17:51:09Z</time></trkpt><trkpt lat="45.526481011778415" lon="10.159140066671592"><ele>125.0</ele><time>2026-05-01T17:51:10Z</time></trkpt><trkpt lat="45.526395102544505" lon="10.1589650522546"><ele>125.0</ele><time>2026-05-01T17:51:11Z</time></trkpt><trkpt lat="45.526296591914566" lon="10.1588048142708"><ele>125.0</ele><time>2026-05-01T17:51:12Z</time></trkpt><trkpt lat="45.52621979835574" lon="10.158641434151669"><ele>125.0</ele><time>2026-05-01T17:51:13Z</time></trkpt><trkpt lat="45.52614799878137" lon="10.158488699966496"><ele>124.4</ele><time>2026-05-01T17:51:14Z</time></trkpt><trkpt lat="45.52607645297077" lon="10.158353828222449"><ele>123.8</ele><time>2026-05-01T17:51:15Z</time></trkpt><trkpt lat="45.52601283514397" lon="10.158215821427254"><ele>123.19999999999999</ele><time>2026-05-01T17:51:16Z</time></trkpt><trkpt lat="45.52594724791661" lon="10.158092196134458"><ele>122.6</ele><time>2026-05-01T17:51:17Z</time></trkpt><trkpt lat="45.5258893434023" lon="10.157975413772869"><ele>122.0</ele><time>2026-05-01T17:51:18Z</time></trkpt><trkpt lat="45.52584140501067" lon="10.157859995748188"><ele>121.8</ele><time>2026-05-01T17:51:19Z</time></trkpt><trkpt lat="45.525788335150466" lon="10.157754359084247"><ele>121.6</ele><time>2026-05-01T17:51:20Z</time></trkpt><trkpt lat="45.52573224579071" lon="10.157643096005888"><ele>121.39999999999999</ele><time>2026-05-01T17:51:21Z</time></trkpt><trkpt lat="45.52568047403187" lon="10.157538440388452"><ele>121.19999999999999</ele><time>2026-05-01T17:51:22Z</time></trkpt><trkpt lat="45.52563425241147" lon="10.157441290177482"><ele>121.0</ele><time>2026-05-01T17:51:23Z</time></trkpt><trkpt lat="45.52557939809695" lon="10.157335268535897"><ele>121.0</ele><time>2026-05-01T17:51:24Z</time></trkpt><trkpt lat="45.52551785140243" lon="10.157211857365468"><ele>121.0</ele><time>2026-05-01T17:51:25Z</time></trkpt><trkpt lat="45.525450397211536" lon="10.157074531681767"><ele>121.0</ele><time>2026-05-01T17:51:26Z</time></trkpt><trkpt lat="45.52537772900451" lon="10.156924528911118"><ele>121.0</ele><time>2026-05-01T17:51:27Z</time></trkpt><trkpt lat="45.52530249198167" lon="10.156776711373238"><ele>121.0</ele><time>2026-05-01T17:51:28Z</time></trkpt><trkpt lat="45.525234461978854" lon="10.156631170951796"><ele>121.0</ele><time>2026-05-01T17:51:29Z</time></trkpt><trkpt lat="45.525156883328194" lon="10.156478159495178"><ele>121.0</ele><time>2026-05-01T17:51:30Z</time></trkpt><trkpt lat="45.52507002975111" lon="10.156305937287536"><ele>121.0</ele><time>2026-05-01T17:51:31Z</time></trkpt><trkpt lat="45.52498018867821" lon="10.156114977185638"><ele>120.66666666666667</ele><time>2026-05-01T17:51:32Z</time></trkpt><trkpt lat="45.52488517113772" lon="10.155926456825059"><ele>120.33333333333334</ele><time>2026-05-01T17:51:33Z</time></trkpt><trkpt lat="45.52479564440276" lon="10.155734556194155"><ele>120.0</ele><time>2026-05-01T17:51:34Z</time></trkpt><trkpt lat="45.524700308281616" lon="10.155546100179555"><ele>120.0</ele><time>2026-05-01T17:51:35Z</time></trkpt><trkpt lat="45.5246131480326" lon="10.155368796478252"><ele>120.0</ele><time>2026-05-01T17:51:36Z</time></trkpt><trkpt lat="45.5245269990038" lon="10.155192238548452"><ele>120.0</ele><time>2026-05-01T17:51:37Z</time></trkpt><trkpt lat="45.524441155457765" lon="10.155020468414511"><ele>120.0</ele><time>2026-05-01T17:51:38Z</time></trkpt><trkpt lat="45.524358458824864" lon="10.154851638406582"><ele>120.0</ele><time>2026-05-01T17:51:39Z</time></trkpt><trkpt lat="45.52427311693356" lon="10.154686595506458"><ele>120.0</ele><time>2026-05-01T17:51:40Z</time></trkpt><trkpt lat="45.524188530177575" lon="10.154513453726404"><ele>120.0</ele><time>2026-05-01T17:51:41Z</time></trkpt><trkpt lat="45.52410757015302" lon="10.154346296877552"><ele>120.0</ele><time>2026-05-01T17:51:42Z</time></trkpt><trkpt lat="45.524024306086574" lon="10.15416678525523"><ele>120.0</ele><time>2026-05-01T17:51:43Z</time></trkpt><trkpt lat="45.52393908769188" lon="10.15399334046672"><ele>120.0</ele><time>2026-05-01T17:51:44Z</time></trkpt><trkpt lat="45.52384903774901" lon="10.153821211243642"><ele>120.0</ele><time>2026-05-01T17:51:45Z</time></trkpt><trkpt lat="45.5237690199116" lon="10.153634575530448"><ele>120.0</ele><time>2026-05-01T17:51:46Z</time></trkpt><trkpt lat="45.523668080514085" lon="10.153463014328544"><ele>120.0</ele><time>2026-05-01T17:51:47Z</time></trkpt><trkpt lat="45.52357431752267" lon="10.153272465585498"><ele>120.33333333333334</ele><time>2026-05-01T17:51:48Z</time></trkpt><trkpt lat="45.52350028781454" lon="10.15307592215459"><ele>120.66666666666667</ele><time>2026-05-01T17:51:49Z</time></trkpt><trkpt lat="45.523417060569926" lon="10.152901229603287"><ele>121.0</ele><time>2026-05-01T17:51:50Z</time></trkpt><trkpt lat="45.52333524153177" lon="10.152729492841479"><ele>121.0</ele><time>2026-05-01T17:51:51Z</time></trkpt><trkpt lat="45.523254018253226" lon="10.152553882091631"><ele>121.0</ele><time>2026-05-01T17:51:52Z</time></trkpt><trkpt lat="45.52316302081489" lon="10.152380718330576"><ele>121.0</ele><time>2026-05-01T17:51:53Z</time></trkpt><trkpt lat="45.52307968407334" lon="10.152199320507469"><ele>121.0</ele><time>2026-05-01T17:51:54Z</time></trkpt><trkpt lat="45.52299660244952" lon="10.152023398693691"><ele>121.0</ele><time>2026-05-01T17:51:55Z</time></trkpt><trkpt lat="45.522921467175905" lon="10.151850348321819"><ele>121.0</ele><time>2026-05-01T17:51:56Z</time></trkpt><trkpt lat="45.52284442596075" lon="10.151691865838576"><ele>121.0</ele><time>2026-05-01T17:51:57Z</time></trkpt><trkpt lat="45.5227698990264" lon="10.151524849250473"><ele>121.0</ele><time>2026-05-01T17:51:58Z</time></trkpt><trkpt lat="45.52269255419759" lon="10.151348749196107"><ele>121.0</ele><time>2026-05-01T17:51:59Z</time></trkpt><trkpt lat="45.52261360951131" lon="10.151183598654283"><ele>121.0</ele><time>2026-05-01T17:52:00Z</time></trkpt><trkpt lat="45.52253729410817" lon="10.151015820730235"><ele>121.0</ele><time>2026-05-01T17:52:01Z</time></trkpt><trkpt lat="45.52245981199783" lon="10.150867266269952"><ele>121.0</ele><time>2026-05-01T17:52:02Z</time></trkpt><trkpt lat="45.52239261257494" lon="10.150715133129752"><ele>121.0</ele><time>2026-05-01T17:52:03Z</time></trkpt><trkpt lat="45.522331311611126" lon="10.150556197646328"><ele>121.0</ele><time>2026-05-01T17:52:04Z</time></trkpt><trkpt lat="45.522254645473865" lon="10.150418134488119"><ele>121.0</ele><time>2026-05-01T17:52:05Z</time></trkpt><trkpt lat="45.522188554582705" lon="10.150276603240247"><ele>120.75</ele><time>2026-05-01T17:52:06Z</time></trkpt><trkpt lat="45.522128568587114" lon="10.150128932683671"><ele>120.5</ele><time>2026-05-01T17:52:07Z</time></trkpt><trkpt lat="45.52206202548819" lon="10.149983576907161"><ele>120.25</ele><time>2026-05-01T17:52:08Z</time></trkpt><trkpt lat="45.52199027851025" lon="10.1498341566366"><ele>120.0</ele><time>2026-05-01T17:52:09Z</time></trkpt><trkpt lat="45.52191225166906" lon="10.149679736628828"><ele>119.5</ele><time>2026-05-01T17:52:10Z</time></trkpt><trkpt lat="45.521841649889375" lon="10.14952731387458"><ele>119.0</ele><time>2026-05-01T17:52:11Z</time></trkpt><trkpt lat="45.52177377905328" lon="10.149374459604637"><ele>118.5</ele><time>2026-05-01T17:52:12Z</time></trkpt><trkpt lat="45.521704328848465" lon="10.149228727201743"><ele>118.0</ele><time>2026-05-01T17:52:13Z</time></trkpt><trkpt lat="45.521645612836025" lon="10.149065855862652"><ele>117.75</ele><time>2026-05-01T17:52:14Z</time></trkpt><trkpt lat="45.52156385362886" lon="10.148927359470726"><ele>117.5</ele><time>2026-05-01T17:52:15Z</time></trkpt><trkpt lat="45.52150308649578" lon="10.148758218713528"><ele>117.25</ele><time>2026-05-01T17:52:16Z</time></trkpt><trkpt lat="45.52141534568444" lon="10.148611724375728"><ele>117.0</ele><time>2026-05-01T17:52:17Z</time></trkpt><trkpt lat="45.52134514045686" lon="10.148416517614509"><ele>117.0</ele><time>2026-05-01T17:52:18Z</time></trkpt><trkpt lat="45.52124018958035" lon="10.148191564879946"><ele>117.0</ele><time>2026-05-01T17:52:19Z</time></trkpt><trkpt lat="45.5211227378734" lon="10.14794087521566"><ele>117.0</ele><time>2026-05-01T17:52:20Z</time></trkpt><trkpt lat="45.52099402679592" lon="10.147665640915715"><ele>117.0</ele><time>2026-05-01T17:52:21Z</time></trkpt><trkpt lat="45.520849167007654" lon="10.147395147392073"><ele>117.0</ele><time>2026-05-01T17:52:22Z</time></trkpt><trkpt lat="45.520717959007044" lon="10.14711298844556"><ele>117.0</ele><time>2026-05-01T17:52:23Z</time></trkpt><trkpt lat="45.5206023126022" lon="10.146828391217324"><ele>117.0</ele><time>2026-05-01T17:52:24Z</time></trkpt><trkpt lat="45.5204767085432" lon="10.146561400838744"><ele>116.66666666666666</ele><time>2026-05-01T17:52:25Z</time></trkpt><trkpt lat="45.52036096935286" lon="10.14631537972545"><ele>116.33333333333333</ele><time>2026-05-01T17:52:26Z</time></trkpt><trkpt lat="45.52023846032821" lon="10.146094360665641"><ele>116.0</ele><time>2026-05-01T17:52:27Z</time></trkpt><trkpt lat="45.5201331292328" lon="10.145869756109494"><ele>116.66666666666666</ele><time>2026-05-01T17:52:28Z</time></trkpt><trkpt lat="45.520045905226375" lon="10.145647067799622"><ele>117.33333333333334</ele><time>2026-05-01T17:52:29Z</time></trkpt><trkpt lat="45.519950181639885" lon="10.145444438233136"><ele>118.0</ele><time>2026-05-01T17:52:30Z</time></trkpt><trkpt lat="45.51984177359438" lon="10.145264497302811"><ele>118.0</ele><time>2026-05-01T17:52:31Z</time></trkpt><trkpt lat="45.519728248562885" lon="10.145095056484568"><ele>118.0</ele><time>2026-05-01T17:52:32Z</time></trkpt><trkpt lat="45.5196254773167" lon="10.144911428673044"><ele>118.0</ele><time>2026-05-01T17:52:33Z</time></trkpt><trkpt lat="45.51955482560603" lon="10.144709369320543"><ele>116.66666666666667</ele><time>2026-05-01T17:52:34Z</time></trkpt><trkpt lat="45.51946104170357" lon="10.144526915370939"><ele>115.33333333333334</ele><time>2026-05-01T17:52:35Z</time></trkpt><trkpt lat="45.519366300396015" lon="10.14433900394514"><ele>114.0</ele><time>2026-05-01T17:52:36Z</time></trkpt><trkpt lat="45.5192989655185" lon="10.144111115963213"><ele>114.33333333333334</ele><time>2026-05-01T17:52:37Z</time></trkpt><trkpt lat="45.51920926604361" lon="10.14390504467966"><ele>114.66666666666667</ele><time>2026-05-01T17:52:38Z</time></trkpt><trkpt lat="45.51910714473914" lon="10.143713921343974"><ele>115.0</ele><time>2026-05-01T17:52:39Z</time></trkpt><trkpt lat="45.519017448664044" lon="10.143540556229476"><ele>115.0</ele><time>2026-05-01T17:52:40Z</time></trkpt><trkpt lat="45.51893299631827" lon="10.1433617408288"><ele>115.0</ele><time>2026-05-01T17:52:41Z</time></trkpt><trkpt lat="45.518838417395145" lon="10.143167735375263"><ele>115.0</ele><time>2026-05-01T17:52:42Z</time></trkpt><trkpt lat="45.51873414893105" lon="10.142944944052829"><ele>115.0</ele><time>2026-05-01T17:52:43Z</time></trkpt><trkpt lat="45.51863885115174" lon="10.142733261458371"><ele>115.0</ele><time>2026-05-01T17:52:44Z</time></trkpt><trkpt lat="45.518553892210726" lon="10.142533823944532"><ele>115.0</ele><time>2026-05-01T17:52:45Z</time></trkpt><trkpt lat="45.518473353924044" lon="10.142348564079693"><ele>114.6</ele><time>2026-05-01T17:52:46Z</time></trkpt><trkpt lat="45.51840570751644" lon="10.142205402448553"><ele>114.2</ele><time>2026-05-01T17:52:47Z</time></trkpt><trkpt lat="45.518379626900305" lon="10.142096244884856"><ele>113.80000000000001</ele><time>2026-05-01T17:52:48Z</time></trkpt><trkpt lat="45.51833205790147" lon="10.141996261070132"><ele>113.4</ele><time>2026-05-01T17:52:49Z</time></trkpt><trkpt lat="45.518260108842064" lon="10.141875481648817"><ele>113.0</ele><time>2026-05-01T17:52:50Z</time></trkpt><trkpt lat="45.518190442574515" lon="10.141714937920597"><ele>113.33333333333333</ele><time>2026-05-01T17:52:51Z</time></trkpt><trkpt lat="45.518110022588495" lon="10.141542038984745"><ele>113.66666666666666</ele><time>2026-05-01T17:52:52Z</time></trkpt><trkpt lat="45.51803162359333" lon="10.141353139709672"><ele>114.0</ele><time>2026-05-01T17:52:53Z</time></trkpt><trkpt lat="45.517927828880936" lon="10.14116321315604"><ele>114.0</ele><time>2026-05-01T17:52:54Z</time></trkpt><trkpt lat="45.51782857640114" lon="10.140944796399554"><ele>114.0</ele><time>2026-05-01T17:52:55Z</time></trkpt><trkpt lat="45.51772279384817" lon="10.14072043274681"><ele>114.0</ele><time>2026-05-01T17:52:56Z</time></trkpt><trkpt lat="45.517614150931486" lon="10.140493591744152"><ele>114.0</ele><time>2026-05-01T17:52:57Z</time></trkpt><trkpt lat="45.51750181920133" lon="10.140261829808447"><ele>114.0</ele><time>2026-05-01T17:52:58Z</time></trkpt><trkpt lat="45.51738980737917" lon="10.140020767206169"><ele>114.0</ele><time>2026-05-01T17:52:59Z</time></trkpt><trkpt lat="45.51727742396768" lon="10.139779676960893"><ele>114.0</ele><time>2026-05-01T17:53:00Z</time></trkpt><trkpt lat="45.517163412139254" lon="10.139539309034792"><ele>114.0</ele><time>2026-05-01T17:53:01Z</time></trkpt><trkpt lat="45.51705267535957" lon="10.139301692078469"><ele>114.0</ele><time>2026-05-01T17:53:02Z</time></trkpt><trkpt lat="45.5169471316453" lon="10.139068255350605"><ele>113.66666666666666</ele><time>2026-05-01T17:53:03Z</time></trkpt><trkpt lat="45.516848190205934" lon="10.13885866406339"><ele>113.33333333333333</ele><time>2026-05-01T17:53:04Z</time></trkpt><trkpt lat="45.51674429741543" lon="10.138659692615752"><ele>113.0</ele><time>2026-05-01T17:53:05Z</time></trkpt><trkpt lat="45.5166539959622" lon="10.138474462989999"><ele>113.0</ele><time>2026-05-01T17:53:06Z</time></trkpt><trkpt lat="45.51656783032174" lon="10.138290168144549"><ele>113.0</ele><time>2026-05-01T17:53:07Z</time></trkpt><trkpt lat="45.51650209887537" lon="10.138114360227119"><ele>113.0</ele><time>2026-05-01T17:53:08Z</time></trkpt><trkpt lat="45.51648267648399" lon="10.137902905262779"><ele>113.0</ele><time>2026-05-01T17:53:09Z</time></trkpt><trkpt lat="45.51650480950582" lon="10.137683826507569"><ele>113.0</ele><time>2026-05-01T17:53:10Z</time></trkpt><trkpt lat="45.51650987782038" lon="10.137465681247152"><ele>113.0</ele><time>2026-05-01T17:53:11Z</time></trkpt><trkpt lat="45.51645683228985" lon="10.137264812195495"><ele>113.0</ele><time>2026-05-01T17:53:12Z</time></trkpt><trkpt lat="45.51638964439892" lon="10.13708373408047"><ele>113.0</ele><time>2026-05-01T17:53:13Z</time></trkpt><trkpt lat="45.51634141107295" lon="10.136897454303588"><ele>113.0</ele><time>2026-05-01T17:53:14Z</time></trkpt><trkpt lat="45.516315747709314" lon="10.13668829498234"><ele>113.0</ele><time>2026-05-01T17:53:15Z</time></trkpt><trkpt lat="45.516352245767905" lon="10.136463889991902"><ele>113.0</ele><time>2026-05-01T17:53:16Z</time></trkpt><trkpt lat="45.51637458781913" lon="10.136211639488383"><ele>113.0</ele><time>2026-05-01T17:53:17Z</time></trkpt><trkpt lat="45.51640002737337" lon="10.135957663237459"><ele>113.0</ele><time>2026-05-01T17:53:18Z</time></trkpt><trkpt lat="45.516425578056726" lon="10.135693638885908"><ele>113.0</ele><time>2026-05-01T17:53:19Z</time></trkpt><trkpt lat="45.51645100745024" lon="10.135427313538521"><ele>113.33333333333333</ele><time>2026-05-01T17:53:20Z</time></trkpt><trkpt lat="45.51647702603615" lon="10.13515481753101"><ele>113.66666666666666</ele><time>2026-05-01T17:53:21Z</time></trkpt><trkpt lat="45.51650279599953" lon="10.134885037166708"><ele>114.0</ele><time>2026-05-01T17:53:22Z</time></trkpt><trkpt lat="45.51652938620575" lon="10.134612435481637"><ele>114.0</ele><time>2026-05-01T17:53:23Z</time></trkpt><trkpt lat="45.51655623015515" lon="10.13433723242829"><ele>114.0</ele><time>2026-05-01T17:53:24Z</time></trkpt><trkpt lat="45.516583340093554" lon="10.13405930247406"><ele>114.0</ele><time>2026-05-01T17:53:25Z</time></trkpt><trkpt lat="45.51661066664533" lon="10.133779151802868"><ele>114.0</ele><time>2026-05-01T17:53:26Z</time></trkpt><trkpt lat="45.51663846369062" lon="10.133494177654557"><ele>114.0</ele><time>2026-05-01T17:53:27Z</time></trkpt><trkpt lat="45.516646182171826" lon="10.133206193882499"><ele>114.0</ele><time>2026-05-01T17:53:28Z</time></trkpt><trkpt lat="45.51667136698991" lon="10.132917647093965"><ele>113.66666666666666</ele><time>2026-05-01T17:53:29Z</time></trkpt><trkpt lat="45.51669383249196" lon="10.132651345604948"><ele>113.33333333333333</ele><time>2026-05-01T17:53:30Z</time></trkpt><trkpt lat="45.51671360041759" lon="10.132417184352358"><ele>113.0</ele><time>2026-05-01T17:53:31Z</time></trkpt><trkpt lat="45.51673662365871" lon="10.132203481543309"><ele>113.0</ele><time>2026-05-01T17:53:32Z</time></trkpt><trkpt lat="45.51678087348622" lon="10.13201997968414"><ele>113.0</ele><time>2026-05-01T17:53:33Z</time></trkpt><trkpt lat="45.51681529379501" lon="10.131843877452104"><ele>113.0</ele><time>2026-05-01T17:53:34Z</time></trkpt><trkpt lat="45.516897319346015" lon="10.131706814017152"><ele>113.0</ele><time>2026-05-01T17:53:35Z</time></trkpt><trkpt lat="45.51694000137051" lon="10.131535564221961"><ele>113.0</ele><time>2026-05-01T17:53:36Z</time></trkpt><trkpt lat="45.516914115724624" lon="10.131324242505467"><ele>113.0</ele><time>2026-05-01T17:53:37Z</time></trkpt><trkpt lat="45.51686037114146" lon="10.131078606780564"><ele>113.0</ele><time>2026-05-01T17:53:38Z</time></trkpt><trkpt lat="45.51689789134866" lon="10.130810032222989"><ele>112.5</ele><time>2026-05-01T17:53:39Z</time></trkpt><trkpt lat="45.51692886855584" lon="10.130494103418961"><ele>112.0</ele><time>2026-05-01T17:53:40Z</time></trkpt><trkpt lat="45.51694407283989" lon="10.130157807930532"><ele>112.5</ele><time>2026-05-01T17:53:41Z</time></trkpt><trkpt lat="45.51697952299936" lon="10.129817336574426"><ele>113.0</ele><time>2026-05-01T17:53:42Z</time></trkpt><trkpt lat="45.51701376993414" lon="10.129456090266533"><ele>113.0</ele><time>2026-05-01T17:53:43Z</time></trkpt><trkpt lat="45.517047844992405" lon="10.129093699678906"><ele>113.0</ele><time>2026-05-01T17:53:44Z</time></trkpt><trkpt lat="45.51708389745969" lon="10.128735870260472"><ele>113.0</ele><time>2026-05-01T17:53:45Z</time></trkpt><trkpt lat="45.51711318134435" lon="10.128402887805251"><ele>113.0</ele><time>2026-05-01T17:53:46Z</time></trkpt><trkpt lat="45.517140400820935" lon="10.128090639383752"><ele>113.33333333333333</ele><time>2026-05-01T17:53:47Z</time></trkpt><trkpt lat="45.51716914452245" lon="10.127802113679854"><ele>113.66666666666666</ele><time>2026-05-01T17:53:48Z</time></trkpt><trkpt lat="45.517199173461755" lon="10.12752489978759"><ele>114.0</ele><time>2026-05-01T17:53:49Z</time></trkpt><trkpt lat="45.5172115409592" lon="10.127265037100674"><ele>114.0</ele><time>2026-05-01T17:53:50Z</time></trkpt><trkpt lat="45.51719779842063" lon="10.127007785296692"><ele>114.0</ele><time>2026-05-01T17:53:51Z</time></trkpt><trkpt lat="45.51715222723153" lon="10.126757421643035"><ele>114.0</ele><time>2026-05-01T17:53:52Z</time></trkpt><trkpt lat="45.51706487300271" lon="10.126527780940316"><ele>113.66666666666666</ele><time>2026-05-01T17:53:53Z</time></trkpt><trkpt lat="45.51696712245765" lon="10.126313356451107"><ele>113.33333333333333</ele><time>2026-05-01T17:53:54Z</time></trkpt><trkpt lat="45.51685184845463" lon="10.126069313006827"><ele>113.0</ele><time>2026-05-01T17:53:55Z</time></trkpt><trkpt lat="45.51673049360954" lon="10.125818331416358"><ele>113.0</ele><time>2026-05-01T17:53:56Z</time></trkpt><trkpt lat="45.516604805701206" lon="10.125557110509254"><ele>113.0</ele><time>2026-05-01T17:53:57Z</time></trkpt><trkpt lat="45.516472347235265" lon="10.125295093853907"><ele>113.0</ele><time>2026-05-01T17:53:58Z</time></trkpt><trkpt lat="45.51634296818536" lon="10.12502507759949"><ele>112.5</ele><time>2026-05-01T17:53:59Z</time></trkpt><trkpt lat="45.51621352924599" lon="10.124754687457445"><ele>112.0</ele><time>2026-05-01T17:54:00Z</time></trkpt><trkpt lat="45.51608735886147" lon="10.124485887971256"><ele>112.0</ele><time>2026-05-01T17:54:01Z</time></trkpt><trkpt lat="45.515958236906414" lon="10.124223444844851"><ele>112.0</ele><time>2026-05-01T17:54:02Z</time></trkpt><trkpt lat="45.51583431647198" lon="10.123967558373076"><ele>112.0</ele><time>2026-05-01T17:54:03Z</time></trkpt><trkpt lat="45.515707510168546" lon="10.12371264408033"><ele>112.0</ele><time>2026-05-01T17:54:04Z</time></trkpt><trkpt lat="45.515604287636094" lon="10.12345410432654"><ele>112.0</ele><time>2026-05-01T17:54:05Z</time></trkpt><trkpt lat="45.515494812817494" lon="10.123224558786792"><ele>112.0</ele><time>2026-05-01T17:54:06Z</time></trkpt><trkpt lat="45.515388607229035" lon="10.123001868116262"><ele>112.0</ele><time>2026-05-01T17:54:07Z</time></trkpt><trkpt lat="45.51528827661334" lon="10.122791373734945"><ele>112.0</ele><time>2026-05-01T17:54:08Z</time></trkpt><trkpt lat="45.51519435329288" lon="10.122593748894532"><ele>112.0</ele><time>2026-05-01T17:54:09Z</time></trkpt><trkpt lat="45.5151167046101" lon="10.12243036766233"><ele>112.0</ele><time>2026-05-01T17:54:10Z</time></trkpt><trkpt lat="45.5150476432531" lon="10.122284173850518"><ele>112.0</ele><time>2026-05-01T17:54:11Z</time></trkpt><trkpt lat="45.51498006080786" lon="10.122140593388243"><ele>112.0</ele><time>2026-05-01T17:54:12Z</time></trkpt><trkpt lat="45.514905381616195" lon="10.122011618316042"><ele>112.0</ele><time>2026-05-01T17:54:13Z</time></trkpt><trkpt lat="45.51484092889366" lon="10.121878833409948"><ele>112.0</ele><time>2026-05-01T17:54:14Z</time></trkpt><trkpt lat="45.51478416331808" lon="10.12174943816766"><ele>111.99999999999999</ele><time>2026-05-01T17:54:15Z</time></trkpt><trkpt lat="45.51472104456502" lon="10.121632182106655"><ele>111.99999999999999</ele><time>2026-05-01T17:54:16Z</time></trkpt><trkpt lat="45.51466637457328" lon="10.12150823262291"><ele>112.0</ele><time>2026-05-01T17:54:17Z</time></trkpt><trkpt lat="45.514603229154446" lon="10.121380529843538"><ele>112.0</ele><time>2026-05-01T17:54:18Z</time></trkpt><trkpt lat="45.51454735651141" lon="10.121248645347144"><ele>111.8</ele><time>2026-05-01T17:54:19Z</time></trkpt><trkpt lat="45.514489458817984" lon="10.1211316109914"><ele>111.6</ele><time>2026-05-01T17:54:20Z</time></trkpt><trkpt lat="45.51443541085295" lon="10.121020939276717"><ele>111.39999999999999</ele><time>2026-05-01T17:54:21Z</time></trkpt><trkpt lat="45.51438615207856" lon="10.120915636159626"><ele>111.19999999999999</ele><time>2026-05-01T17:54:22Z</time></trkpt><trkpt lat="45.51434425873582" lon="10.120807726271435"><ele>111.0</ele><time>2026-05-01T17:54:23Z</time></trkpt><trkpt lat="45.51431724676768" lon="10.120700315166069"><ele>110.85714285714285</ele><time>2026-05-01T17:54:24Z</time></trkpt><trkpt lat="45.51429269595245" lon="10.120600233851086"><ele>110.71428571428572</ele><time>2026-05-01T17:54:25Z</time></trkpt><trkpt lat="45.51427473791689" lon="10.120502884642418"><ele>110.57142857142857</ele><time>2026-05-01T17:54:26Z</time></trkpt><trkpt lat="45.51427052793883" lon="10.120407234189777"><ele>110.42857142857142</ele><time>2026-05-01T17:54:27Z</time></trkpt><trkpt lat="45.51428574974395" lon="10.12031424377842"><ele>110.28571428571428</ele><time>2026-05-01T17:54:28Z</time></trkpt><trkpt lat="45.51431989891307" lon="10.120238009721765"><ele>110.14285714285714</ele><time>2026-05-01T17:54:29Z</time></trkpt><trkpt lat="45.51438827626253" lon="10.120183286124647"><ele>110.0</ele><time>2026-05-01T17:54:30Z</time></trkpt><trkpt lat="45.5144289703879" lon="10.12011239734759"><ele>110.0</ele><time>2026-05-01T17:54:31Z</time></trkpt><trkpt lat="45.514477277791556" lon="10.119955292688976"><ele>110.0</ele><time>2026-05-01T17:54:33Z</time></trkpt><trkpt lat="45.51447678326888" lon="10.119855503271152"><ele>110.0</ele><time>2026-05-01T17:54:34Z</time></trkpt><trkpt lat="45.51445080994158" lon="10.119749861897965"><ele>110.0</ele><time>2026-05-01T17:54:35Z</time></trkpt><trkpt lat="45.5144009662431" lon="10.119647138744925"><ele>110.0</ele><time>2026-05-01T17:54:36Z</time></trkpt><trkpt lat="45.51432925689902" lon="10.11952369324339"><ele>110.0</ele><time>2026-05-01T17:54:37Z</time></trkpt><trkpt lat="45.51424812384522" lon="10.119365190498879"><ele>110.0</ele><time>2026-05-01T17:54:38Z</time></trkpt><trkpt lat="45.51419950108234" lon="10.119135213201396"><ele>110.0</ele><time>2026-05-01T17:54:39Z</time></trkpt><trkpt lat="45.51412640519117" lon="10.1188965719171"><ele>110.0</ele><time>2026-05-01T17:54:40Z</time></trkpt><trkpt lat="45.51407395959725" lon="10.118618962245785"><ele>110.0</ele><time>2026-05-01T17:54:41Z</time></trkpt><trkpt lat="45.514042079776175" lon="10.11832114420852"><ele>110.0</ele><time>2026-05-01T17:54:42Z</time></trkpt><trkpt lat="45.514030714927486" lon="10.117993834435321"><ele>110.0</ele><time>2026-05-01T17:54:43Z</time></trkpt><trkpt lat="45.51403028487264" lon="10.11765363888688"><ele>110.0</ele><time>2026-05-01T17:54:44Z</time></trkpt><trkpt lat="45.51403805762585" lon="10.117296910121587"><ele>110.5</ele><time>2026-05-01T17:54:45Z</time></trkpt><trkpt lat="45.51408466033253" lon="10.116935224880832"><ele>111.0</ele><time>2026-05-01T17:54:46Z</time></trkpt><trkpt lat="45.51414201394013" lon="10.116565194087485"><ele>111.0</ele><time>2026-05-01T17:54:47Z</time></trkpt><trkpt lat="45.51421531915335" lon="10.116201122659904"><ele>111.0</ele><time>2026-05-01T17:54:48Z</time></trkpt><trkpt lat="45.514299614876926" lon="10.115836170319769"><ele>111.5</ele><time>2026-05-01T17:54:49Z</time></trkpt><trkpt lat="45.51439333696911" lon="10.1154817272005"><ele>112.0</ele><time>2026-05-01T17:54:50Z</time></trkpt><trkpt lat="45.514496523880155" lon="10.115142653590812"><ele>112.5</ele><time>2026-05-01T17:54:51Z</time></trkpt><trkpt lat="45.51461562213527" lon="10.114811874286758"><ele>113.0</ele><time>2026-05-01T17:54:52Z</time></trkpt><trkpt lat="45.5147144989476" lon="10.114461006131572"><ele>113.0</ele><time>2026-05-01T17:54:53Z</time></trkpt><trkpt lat="45.51483970101065" lon="10.114137601265572"><ele>113.0</ele><time>2026-05-01T17:54:54Z</time></trkpt><trkpt lat="45.5149664706452" lon="10.113821869348767"><ele>113.0</ele><time>2026-05-01T17:54:55Z</time></trkpt><trkpt lat="45.51509222658867" lon="10.113504935709864"><ele>113.0</ele><time>2026-05-01T17:54:56Z</time></trkpt><trkpt lat="45.515214466012566" lon="10.113186127622638"><ele>113.0</ele><time>2026-05-01T17:54:57Z</time></trkpt><trkpt lat="45.515335009471116" lon="10.112869228035972"><ele>113.0</ele><time>2026-05-01T17:54:58Z</time></trkpt><trkpt lat="45.51547607689463" lon="10.112569488470337"><ele>113.5</ele><time>2026-05-01T17:54:59Z</time></trkpt><trkpt lat="45.51559878037212" lon="10.112251838317137"><ele>114.0</ele><time>2026-05-01T17:55:00Z</time></trkpt><trkpt lat="45.515717055499564" lon="10.111946232747016"><ele>114.0</ele><time>2026-05-01T17:55:01Z</time></trkpt><trkpt lat="45.5158372108246" lon="10.111632827486263"><ele>114.0</ele><time>2026-05-01T17:55:02Z</time></trkpt><trkpt lat="45.51595638082038" lon="10.111321705820746"><ele>114.0</ele><time>2026-05-01T17:55:03Z</time></trkpt><trkpt lat="45.51605969627026" lon="10.110993968399715"><ele>114.0</ele><time>2026-05-01T17:55:04Z</time></trkpt><trkpt lat="45.51617737174291" lon="10.110685075502749"><ele>114.0</ele><time>2026-05-01T17:55:05Z</time></trkpt><trkpt lat="45.51628857862048" lon="10.110381717944485"><ele>114.0</ele><time>2026-05-01T17:55:06Z</time></trkpt><trkpt lat="45.5163929774231" lon="10.110100909957028"><ele>114.0</ele><time>2026-05-01T17:55:07Z</time></trkpt><trkpt lat="45.51649474305938" lon="10.109843474989757"><ele>114.0</ele><time>2026-05-01T17:55:08Z</time></trkpt><trkpt lat="45.51658247285885" lon="10.109598615478815"><ele>114.0</ele><time>2026-05-01T17:55:09Z</time></trkpt><trkpt lat="45.51665400377639" lon="10.109352029024729"><ele>114.0</ele><time>2026-05-01T17:55:10Z</time></trkpt><trkpt lat="45.516711773046886" lon="10.109119345818213"><ele>114.0</ele><time>2026-05-01T17:55:11Z</time></trkpt><trkpt lat="45.51678016976385" lon="10.108915855258799"><ele>114.0</ele><time>2026-05-01T17:55:12Z</time></trkpt><trkpt lat="45.51688598379118" lon="10.108774057982636"><ele>114.0</ele><time>2026-05-01T17:55:13Z</time></trkpt><trkpt lat="45.517004937356916" lon="10.10867151392022"><ele>114.0</ele><time>2026-05-01T17:55:14Z</time></trkpt><trkpt lat="45.517060188104544" lon="10.108535498120586"><ele>114.0</ele><time>2026-05-01T17:55:15Z</time></trkpt><trkpt lat="45.51706644744353" lon="10.10836918853395"><ele>114.0</ele><time>2026-05-01T17:55:16Z</time></trkpt><trkpt lat="45.51698200027727" lon="10.10822693076391"><ele>114.0</ele><time>2026-05-01T17:55:17Z</time></trkpt><trkpt lat="45.516878950931925" lon="10.108126781391578"><ele>114.0</ele><time>2026-05-01T17:55:18Z</time></trkpt><trkpt lat="45.51673800298216" lon="10.108076472938397"><ele>114.0</ele><time>2026-05-01T17:55:19Z</time></trkpt><trkpt lat="45.516609099025764" lon="10.10792360785981"><ele>114.0</ele><time>2026-05-01T17:55:20Z</time></trkpt><trkpt lat="45.51653324046782" lon="10.107675211208985"><ele>114.0</ele><time>2026-05-01T17:55:21Z</time></trkpt><trkpt lat="45.51642641988914" lon="10.107406561710212"><ele>114.0</ele><time>2026-05-01T17:55:22Z</time></trkpt><trkpt lat="45.516296963229365" lon="10.107117524391086"><ele>114.0</ele><time>2026-05-01T17:55:23Z</time></trkpt><trkpt lat="45.51615440931544" lon="10.106806968005117"><ele>114.0</ele><time>2026-05-01T17:55:24Z</time></trkpt><trkpt lat="45.51599013879442" lon="10.106497514797022"><ele>114.0</ele><time>2026-05-01T17:55:25Z</time></trkpt><trkpt lat="45.515820608668385" lon="10.106175291642723"><ele>114.0</ele><time>2026-05-01T17:55:26Z</time></trkpt><trkpt lat="45.51564968957899" lon="10.105852599776675"><ele>114.0</ele><time>2026-05-01T17:55:27Z</time></trkpt><trkpt lat="45.515481047608496" lon="10.105528132357026"><ele>114.0</ele><time>2026-05-01T17:55:28Z</time></trkpt><trkpt lat="45.51531720259332" lon="10.105214733141018"><ele>114.5</ele><time>2026-05-01T17:55:29Z</time></trkpt><trkpt lat="45.51515919520632" lon="10.104903240223138"><ele>115.0</ele><time>2026-05-01T17:55:30Z</time></trkpt><trkpt lat="45.51500142588527" lon="10.104595928852184"><ele>115.0</ele><time>2026-05-01T17:55:31Z</time></trkpt><trkpt lat="45.51485433510693" lon="10.104305226522214"><ele>115.0</ele><time>2026-05-01T17:55:32Z</time></trkpt><trkpt lat="45.51471013673336" lon="10.104019828777766"><ele>114.0</ele><time>2026-05-01T17:55:33Z</time></trkpt><trkpt lat="45.51456130645699" lon="10.103732853759793"><ele>113.0</ele><time>2026-05-01T17:55:34Z</time></trkpt><trkpt lat="45.51441030587331" lon="10.10344708671848"><ele>112.5</ele><time>2026-05-01T17:55:35Z</time></trkpt><trkpt lat="45.51426117180347" lon="10.103164012253105"><ele>112.0</ele><time>2026-05-01T17:55:36Z</time></trkpt><trkpt lat="45.514116917599175" lon="10.102881323868314"><ele>112.0</ele><time>2026-05-01T17:55:37Z</time></trkpt><trkpt lat="45.513976949761094" lon="10.10259484041345"><ele>112.0</ele><time>2026-05-01T17:55:38Z</time></trkpt><trkpt lat="45.513837706914146" lon="10.102310938160837"><ele>113.5</ele><time>2026-05-01T17:55:39Z</time></trkpt><trkpt lat="45.51368748925917" lon="10.102039973981046"><ele>115.0</ele><time>2026-05-01T17:55:40Z</time></trkpt><trkpt lat="45.51353871260988" lon="10.10177177393249"><ele>115.0</ele><time>2026-05-01T17:55:41Z</time></trkpt><trkpt lat="45.513382719925836" lon="10.101507216537675"><ele>115.0</ele><time>2026-05-01T17:55:42Z</time></trkpt><trkpt lat="45.513226569885994" lon="10.101253741572082"><ele>115.0</ele><time>2026-05-01T17:55:43Z</time></trkpt><trkpt lat="45.51306354598981" lon="10.101005077275987"><ele>115.0</ele><time>2026-05-01T17:55:44Z</time></trkpt><trkpt lat="45.5129016333508" lon="10.100760765550685"><ele>113.0</ele><time>2026-05-01T17:55:45Z</time></trkpt><trkpt lat="45.512737971791324" lon="10.100516632421911"><ele>111.0</ele><time>2026-05-01T17:55:46Z</time></trkpt><trkpt lat="45.512581750109455" lon="10.100267922038645"><ele>111.0</ele><time>2026-05-01T17:55:47Z</time></trkpt><trkpt lat="45.51242562531099" lon="10.100022313734975"><ele>111.0</ele><time>2026-05-01T17:55:48Z</time></trkpt><trkpt lat="45.51226254271897" lon="10.099777397483297"><ele>111.5</ele><time>2026-05-01T17:55:49Z</time></trkpt><trkpt lat="45.512107820536954" lon="10.09952624209813"><ele>112.0</ele><time>2026-05-01T17:55:50Z</time></trkpt><trkpt lat="45.511949787639296" lon="10.099283047026852"><ele>111.0</ele><time>2026-05-01T17:55:51Z</time></trkpt><trkpt lat="45.5117807232841" lon="10.0990452046058"><ele>110.0</ele><time>2026-05-01T17:55:52Z</time></trkpt><trkpt lat="45.51163322544431" lon="10.09880669429776"><ele>110.0</ele><time>2026-05-01T17:55:53Z</time></trkpt><trkpt lat="45.511492132458834" lon="10.098585040834251"><ele>110.0</ele><time>2026-05-01T17:55:54Z</time></trkpt><trkpt lat="45.51136505994742" lon="10.098383619267537"><ele>110.0</ele><time>2026-05-01T17:55:55Z</time></trkpt><trkpt lat="45.511239579647174" lon="10.098208283109186"><ele>110.75</ele><time>2026-05-01T17:55:56Z</time></trkpt><trkpt lat="45.51114008762603" lon="10.098037605293246"><ele>111.5</ele><time>2026-05-01T17:55:57Z</time></trkpt><trkpt lat="45.51104477547621" lon="10.09789260643883"><ele>112.25</ele><time>2026-05-01T17:55:58Z</time></trkpt><trkpt lat="45.510903573503185" lon="10.09784135732257"><ele>113.0</ele><time>2026-05-01T17:55:59Z</time></trkpt><trkpt lat="45.51085348146027" lon="10.097692643082297"><ele>113.0</ele><time>2026-05-01T17:56:00Z</time></trkpt><trkpt lat="45.51080675168589" lon="10.097562546457068"><ele>113.0</ele><time>2026-05-01T17:56:01Z</time></trkpt><trkpt lat="45.510706616253735" lon="10.097471495713199"><ele>113.0</ele><time>2026-05-01T17:56:02Z</time></trkpt><trkpt lat="45.510567638838914" lon="10.097452276955595"><ele>113.0</ele><time>2026-05-01T17:56:03Z</time></trkpt><trkpt lat="45.510406651856385" lon="10.097429268118692"><ele>112.66666666666666</ele><time>2026-05-01T17:56:04Z</time></trkpt><trkpt lat="45.51025329882227" lon="10.097322673713865"><ele>112.33333333333334</ele><time>2026-05-01T17:56:05Z</time></trkpt><trkpt lat="45.510098850213254" lon="10.097151604141555"><ele>112.0</ele><time>2026-05-01T17:56:06Z</time></trkpt><trkpt lat="45.509918357265384" lon="10.097005791583634"><ele>112.0</ele><time>2026-05-01T17:56:07Z</time></trkpt><trkpt lat="45.50971775854855" lon="10.096898409820348"><ele>112.0</ele><time>2026-05-01T17:56:08Z</time></trkpt><trkpt lat="45.509527119582536" lon="10.09680178268776"><ele>112.0</ele><time>2026-05-01T17:56:09Z</time></trkpt><trkpt lat="45.50934489425724" lon="10.096703986819772"><ele>112.0</ele><time>2026-05-01T17:56:10Z</time></trkpt><trkpt lat="45.509166910561056" lon="10.096603105374164"><ele>112.0</ele><time>2026-05-01T17:56:11Z</time></trkpt><trkpt lat="45.508988624975544" lon="10.096502900951457"><ele>112.0</ele><time>2026-05-01T17:56:12Z</time></trkpt><trkpt lat="45.508808486444394" lon="10.096399842887093"><ele>111.33333333333334</ele><time>2026-05-01T17:56:13Z</time></trkpt><trkpt lat="45.50863122629298" lon="10.096300879027117"><ele>110.66666666666666</ele><time>2026-05-01T17:56:14Z</time></trkpt><trkpt lat="45.50845863776335" lon="10.096203301672915"><ele>110.0</ele><time>2026-05-01T17:56:15Z</time></trkpt><trkpt lat="45.50828128717613" lon="10.096107959698536"><ele>110.0</ele><time>2026-05-01T17:56:16Z</time></trkpt><trkpt lat="45.50810912314164" lon="10.096009177160013"><ele>110.0</ele><time>2026-05-01T17:56:17Z</time></trkpt><trkpt lat="45.50793737194652" lon="10.0959092177053"><ele>110.0</ele><time>2026-05-01T17:56:18Z</time></trkpt><trkpt lat="45.50776537438202" lon="10.095811444349806"><ele>110.0</ele><time>2026-05-01T17:56:19Z</time></trkpt><trkpt lat="45.507590341511985" lon="10.095714015791236"><ele>110.0</ele><time>2026-05-01T17:56:20Z</time></trkpt><trkpt lat="45.5074217219414" lon="10.095618986784844"><ele>110.0</ele><time>2026-05-01T17:56:21Z</time></trkpt><trkpt lat="45.50725074531823" lon="10.095521768774365"><ele>110.0</ele><time>2026-05-01T17:56:22Z</time></trkpt><trkpt lat="45.507079498462424" lon="10.095422618211828"><ele>110.0</ele><time>2026-05-01T17:56:23Z</time></trkpt><trkpt lat="45.50691672681394" lon="10.095320956495977"><ele>110.0</ele><time>2026-05-01T17:56:24Z</time></trkpt><trkpt lat="45.50675238501285" lon="10.095206032592541"><ele>110.33333333333333</ele><time>2026-05-01T17:56:25Z</time></trkpt><trkpt lat="45.50659899877684" lon="10.09506728946295"><ele>110.66666666666666</ele><time>2026-05-01T17:56:26Z</time></trkpt><trkpt lat="45.50645728369879" lon="10.094899990941526"><ele>111.0</ele><time>2026-05-01T17:56:27Z</time></trkpt><trkpt lat="45.50632721598827" lon="10.094711402437435"><ele>111.0</ele><time>2026-05-01T17:56:28Z</time></trkpt><trkpt lat="45.50621689077937" lon="10.094503014582719"><ele>111.0</ele><time>2026-05-01T17:56:29Z</time></trkpt><trkpt lat="45.50612697394645" lon="10.094270704631235"><ele>111.0</ele><time>2026-05-01T17:56:30Z</time></trkpt><trkpt lat="45.50606285911815" lon="10.09401696502299"><ele>111.0</ele><time>2026-05-01T17:56:31Z</time></trkpt><trkpt lat="45.50600546288891" lon="10.093761206896213"><ele>111.0</ele><time>2026-05-01T17:56:32Z</time></trkpt><trkpt lat="45.50595071802679" lon="10.093506630358563"><ele>111.0</ele><time>2026-05-01T17:56:33Z</time></trkpt><trkpt lat="45.505894286334396" lon="10.093252499526088"><ele>111.0</ele><time>2026-05-01T17:56:34Z</time></trkpt><trkpt lat="45.505824952949574" lon="10.09299997042845"><ele>111.0</ele><time>2026-05-01T17:56:35Z</time></trkpt><trkpt lat="45.50572606395598" lon="10.092751416445129"><ele>111.0</ele><time>2026-05-01T17:56:36Z</time></trkpt><trkpt lat="45.50559002111199" lon="10.09251226014161"><ele>111.0</ele><time>2026-05-01T17:56:37Z</time></trkpt><trkpt lat="45.50542963892053" lon="10.0923004038982"><ele>111.0</ele><time>2026-05-01T17:56:38Z</time></trkpt><trkpt lat="45.50524825503047" lon="10.092101293722623"><ele>111.0</ele><time>2026-05-01T17:56:39Z</time></trkpt><trkpt lat="45.50504926202483" lon="10.091929587331455"><ele>111.0</ele><time>2026-05-01T17:56:40Z</time></trkpt><trkpt lat="45.504837570751654" lon="10.091776784132438"><ele>111.0</ele><time>2026-05-01T17:56:41Z</time></trkpt><trkpt lat="45.50462048997711" lon="10.091631849368158"><ele>111.0</ele><time>2026-05-01T17:56:42Z</time></trkpt><trkpt lat="45.50440178367735" lon="10.09148606976358"><ele>111.0</ele><time>2026-05-01T17:56:43Z</time></trkpt><trkpt lat="45.50418301571868" lon="10.091335420704521"><ele>111.0</ele><time>2026-05-01T17:56:44Z</time></trkpt><trkpt lat="45.503966021850935" lon="10.091181417468308"><ele>111.0</ele><time>2026-05-01T17:56:45Z</time></trkpt><trkpt lat="45.50375033124077" lon="10.0910307417944"><ele>111.0</ele><time>2026-05-01T17:56:46Z</time></trkpt><trkpt lat="45.50353246599638" lon="10.090877259140596"><ele>111.0</ele><time>2026-05-01T17:56:47Z</time></trkpt><trkpt lat="45.50332088642445" lon="10.09072607695289"><ele>111.0</ele><time>2026-05-01T17:56:48Z</time></trkpt><trkpt lat="45.50310888321011" lon="10.090575483253504"><ele>111.0</ele><time>2026-05-01T17:56:49Z</time></trkpt><trkpt lat="45.502899158108505" lon="10.09042519955258"><ele>110.5</ele><time>2026-05-01T17:56:50Z</time></trkpt><trkpt lat="45.50269394007324" lon="10.090275507394944"><ele>110.0</ele><time>2026-05-01T17:56:51Z</time></trkpt><trkpt lat="45.50249130215474" lon="10.090130198053473"><ele>110.0</ele><time>2026-05-01T17:56:52Z</time></trkpt><trkpt lat="45.50228838158072" lon="10.089995556716387"><ele>110.0</ele><time>2026-05-01T17:56:53Z</time></trkpt><trkpt lat="45.502079357111086" lon="10.089886036031272"><ele>110.0</ele><time>2026-05-01T17:56:54Z</time></trkpt><trkpt lat="45.501865912996735" lon="10.089819573676928"><ele>110.33333333333333</ele><time>2026-05-01T17:56:55Z</time></trkpt><trkpt lat="45.50164718766747" lon="10.08978729995589"><ele>110.66666666666666</ele><time>2026-05-01T17:56:56Z</time></trkpt><trkpt lat="45.50142597173781" lon="10.089779076290604"><ele>111.0</ele><time>2026-05-01T17:56:57Z</time></trkpt><trkpt lat="45.50121312639547" lon="10.089788993094828"><ele>111.33333333333334</ele><time>2026-05-01T17:56:58Z</time></trkpt><trkpt lat="45.50101809290802" lon="10.089809696453907"><ele>111.66666666666667</ele><time>2026-05-01T17:56:59Z</time></trkpt><trkpt lat="45.50084365749422" lon="10.089840444588818"><ele>112.0</ele><time>2026-05-01T17:57:00Z</time></trkpt><trkpt lat="45.500696836193484" lon="10.089845688142743"><ele>112.0</ele><time>2026-05-01T17:57:01Z</time></trkpt><trkpt lat="45.50056851437358" lon="10.089810454190276"><ele>112.0</ele><time>2026-05-01T17:57:02Z</time></trkpt><trkpt lat="45.500451880808356" lon="10.089710909357446"><ele>112.0</ele><time>2026-05-01T17:57:03Z</time></trkpt><trkpt lat="45.50032991068358" lon="10.089584410774547"><ele>112.0</ele><time>2026-05-01T17:57:04Z</time></trkpt><trkpt lat="45.50017938789381" lon="10.089501767997584"><ele>111.66666666666667</ele><time>2026-05-01T17:57:05Z</time></trkpt><trkpt lat="45.500010105916694" lon="10.089404325227624"><ele>111.33333333333334</ele><time>2026-05-01T17:57:06Z</time></trkpt><trkpt lat="45.49987010815082" lon="10.089196035828715"><ele>111.0</ele><time>2026-05-01T17:57:07Z</time></trkpt><trkpt lat="45.49970654376978" lon="10.088964891624617"><ele>111.5</ele><time>2026-05-01T17:57:08Z</time></trkpt><trkpt lat="45.49955463625121" lon="10.088687199764125"><ele>112.0</ele><time>2026-05-01T17:57:09Z</time></trkpt><trkpt lat="45.499421558963675" lon="10.088372704934587"><ele>112.0</ele><time>2026-05-01T17:57:10Z</time></trkpt><trkpt lat="45.49925929581319" lon="10.088058404749647"><ele>112.0</ele><time>2026-05-01T17:57:11Z</time></trkpt><trkpt lat="45.499110655881836" lon="10.087723697558866"><ele>111.0</ele><time>2026-05-01T17:57:12Z</time></trkpt><trkpt lat="45.498959000854484" lon="10.087388568334354"><ele>110.0</ele><time>2026-05-01T17:57:13Z</time></trkpt><trkpt lat="45.49880474953059" lon="10.087058653847997"><ele>109.5</ele><time>2026-05-01T17:57:14Z</time></trkpt><trkpt lat="45.49866062718242" lon="10.08674295653349"><ele>109.0</ele><time>2026-05-01T17:57:15Z</time></trkpt><trkpt lat="45.4985261173669" lon="10.086447927750568"><ele>108.5</ele><time>2026-05-01T17:57:16Z</time></trkpt><trkpt lat="45.49841404572277" lon="10.086157340297085"><ele>108.0</ele><time>2026-05-01T17:57:17Z</time></trkpt><trkpt lat="45.49828758299719" lon="10.085890007713852"><ele>108.0</ele><time>2026-05-01T17:57:18Z</time></trkpt><trkpt lat="45.49816739634305" lon="10.085637663909845"><ele>108.0</ele><time>2026-05-01T17:57:19Z</time></trkpt><trkpt lat="45.49804053697393" lon="10.085410739229603"><ele>108.0</ele><time>2026-05-01T17:57:20Z</time></trkpt><trkpt lat="45.49793694035972" lon="10.085187422543566"><ele>107.5</ele><time>2026-05-01T17:57:21Z</time></trkpt><trkpt lat="45.497847502301" lon="10.08499540811083"><ele>107.0</ele><time>2026-05-01T17:57:22Z</time></trkpt><trkpt lat="45.49777694847248" lon="10.084821910885053"><ele>106.5</ele><time>2026-05-01T17:57:23Z</time></trkpt><trkpt lat="45.49773465188054" lon="10.084636731262984"><ele>106.0</ele><time>2026-05-01T17:57:24Z</time></trkpt><trkpt lat="45.497711655969674" lon="10.084447387143705"><ele>106.0</ele><time>2026-05-01T17:57:25Z</time></trkpt><trkpt lat="45.49764873960033" lon="10.084284033357505"><ele>106.0</ele><time>2026-05-01T17:57:26Z</time></trkpt><trkpt lat="45.49754305652075" lon="10.084140409188038"><ele>106.0</ele><time>2026-05-01T17:57:27Z</time></trkpt><trkpt lat="45.4974319669521" lon="10.083990215992907"><ele>106.0</ele><time>2026-05-01T17:57:28Z</time></trkpt><trkpt lat="45.49733303871084" lon="10.083817625613273"><ele>107.0</ele><time>2026-05-01T17:57:29Z</time></trkpt><trkpt lat="45.49723261855328" lon="10.08363099134422"><ele>108.0</ele><time>2026-05-01T17:57:30Z</time></trkpt><trkpt lat="45.497140399012416" lon="10.083424877068165"><ele>109.0</ele><time>2026-05-01T17:57:31Z</time></trkpt><trkpt lat="45.49704593685505" lon="10.083210670220101"><ele>110.0</ele><time>2026-05-01T17:57:32Z</time></trkpt><trkpt lat="45.49695880327456" lon="10.0829957753794"><ele>111.0</ele><time>2026-05-01T17:57:33Z</time></trkpt><trkpt lat="45.49685696106875" lon="10.08275764783552"><ele>112.0</ele><time>2026-05-01T17:57:34Z</time></trkpt><trkpt lat="45.496733145811994" lon="10.08252259647842"><ele>111.33333333333334</ele><time>2026-05-01T17:57:35Z</time></trkpt><trkpt lat="45.49661205940793" lon="10.082259668020512"><ele>110.66666666666666</ele><time>2026-05-01T17:57:36Z</time></trkpt><trkpt lat="45.49650044270224" lon="10.08201664507714"><ele>110.0</ele><time>2026-05-01T17:57:37Z</time></trkpt><trkpt lat="45.49639640873" lon="10.081796318326504"><ele>109.66666666666666</ele><time>2026-05-01T17:57:38Z</time></trkpt><trkpt lat="45.49629699844379" lon="10.081589702518682"><ele>109.33333333333334</ele><time>2026-05-01T17:57:39Z</time></trkpt><trkpt lat="45.49620275384891" lon="10.081391776372136"><ele>109.0</ele><time>2026-05-01T17:57:40Z</time></trkpt><trkpt lat="45.496121744779785" lon="10.081206904526528"><ele>108.75</ele><time>2026-05-01T17:57:41Z</time></trkpt><trkpt lat="45.49605783403177" lon="10.081028669840354"><ele>108.5</ele><time>2026-05-01T17:57:42Z</time></trkpt><trkpt lat="45.49602854190244" lon="10.080841111016616"><ele>108.25</ele><time>2026-05-01T17:57:43Z</time></trkpt><trkpt lat="45.49604414003783" lon="10.08066189340656"><ele>108.0</ele><time>2026-05-01T17:57:44Z</time></trkpt><trkpt lat="45.496103770629574" lon="10.080501639221117"><ele>108.0</ele><time>2026-05-01T17:57:45Z</time></trkpt><trkpt lat="45.49613934463733" lon="10.080349902805763"><ele>108.0</ele><time>2026-05-01T17:57:46Z</time></trkpt><trkpt lat="45.49611591554627" lon="10.080195389626999"><ele>108.0</ele><time>2026-05-01T17:57:47Z</time></trkpt><trkpt lat="45.496036496882056" lon="10.080055507069037"><ele>108.0</ele><time>2026-05-01T17:57:48Z</time></trkpt><trkpt lat="45.495916159149225" lon="10.079964884926671"><ele>108.0</ele><time>2026-05-01T17:57:49Z</time></trkpt><trkpt lat="45.495776506341116" lon="10.079937511793123"><ele>108.0</ele><time>2026-05-01T17:57:50Z</time></trkpt><trkpt lat="45.49562980974511" lon="10.07991385169148"><ele>108.0</ele><time>2026-05-01T17:57:51Z</time></trkpt><trkpt lat="45.49548234590137" lon="10.07979834767908"><ele>108.33333333333334</ele><time>2026-05-01T17:57:52Z</time></trkpt><trkpt lat="45.49533353677243" lon="10.07959225525061"><ele>108.66666666666667</ele><time>2026-05-01T17:57:53Z</time></trkpt><trkpt lat="45.495225735962485" lon="10.079284196081682"><ele>109.0</ele><time>2026-05-01T17:57:54Z</time></trkpt><trkpt lat="45.49508199080542" lon="10.078974326276322"><ele>109.0</ele><time>2026-05-01T17:57:55Z</time></trkpt><trkpt lat="45.49491981864737" lon="10.078644127957846"><ele>109.0</ele><time>2026-05-01T17:57:56Z</time></trkpt><trkpt lat="45.49476422606697" lon="10.07830068016597"><ele>108.5</ele><time>2026-05-01T17:57:57Z</time></trkpt><trkpt lat="45.49461118983415" lon="10.077975464888592"><ele>108.0</ele><time>2026-05-01T17:57:58Z</time></trkpt><trkpt lat="45.494472178221216" lon="10.077672216675534"><ele>108.0</ele><time>2026-05-01T17:57:59Z</time></trkpt><trkpt lat="45.494339388878366" lon="10.077381279992395"><ele>108.0</ele><time>2026-05-01T17:58:00Z</time></trkpt><trkpt lat="45.49421446691738" lon="10.077112730764734"><ele>108.0</ele><time>2026-05-01T17:58:01Z</time></trkpt><trkpt lat="45.49408883469534" lon="10.076849647997243"><ele>108.0</ele><time>2026-05-01T17:58:02Z</time></trkpt><trkpt lat="45.49396977112505" lon="10.076591121037549"><ele>108.0</ele><time>2026-05-01T17:58:03Z</time></trkpt><trkpt lat="45.493850952816075" lon="10.076333640025293"><ele>108.0</ele><time>2026-05-01T17:58:04Z</time></trkpt><trkpt lat="45.493731799043125" lon="10.076083051437235"><ele>108.0</ele><time>2026-05-01T17:58:05Z</time></trkpt><trkpt lat="45.493616383854494" lon="10.07583157942019"><ele>108.0</ele><time>2026-05-01T17:58:06Z</time></trkpt><trkpt lat="45.493500680196945" lon="10.075578546988005"><ele>108.0</ele><time>2026-05-01T17:58:07Z</time></trkpt><trkpt lat="45.493385421679875" lon="10.075329525230785"><ele>108.0</ele><time>2026-05-01T17:58:08Z</time></trkpt><trkpt lat="45.49327132442284" lon="10.075078618195892"><ele>108.0</ele><time>2026-05-01T17:58:09Z</time></trkpt><trkpt lat="45.493157047659764" lon="10.07483575481474"><ele>108.0</ele><time>2026-05-01T17:58:10Z</time></trkpt><trkpt lat="45.49304382785863" lon="10.074598814930125"><ele>108.0</ele><time>2026-05-01T17:58:11Z</time></trkpt><trkpt lat="45.49293234367591" lon="10.074358693741072"><ele>108.0</ele><time>2026-05-01T17:58:12Z</time></trkpt><trkpt lat="45.492821347835836" lon="10.074121454596694"><ele>108.66666666666666</ele><time>2026-05-01T17:58:13Z</time></trkpt><trkpt lat="45.49271047781607" lon="10.073883520985719"><ele>109.33333333333333</ele><time>2026-05-01T17:58:14Z</time></trkpt><trkpt lat="45.4926019422074" lon="10.073642921789183"><ele>110.0</ele><time>2026-05-01T17:58:15Z</time></trkpt><trkpt lat="45.49249132709265" lon="10.073408444569653"><ele>110.0</ele><time>2026-05-01T17:58:16Z</time></trkpt><trkpt lat="45.49238016863447" lon="10.073172410000566"><ele>110.0</ele><time>2026-05-01T17:58:17Z</time></trkpt><trkpt lat="45.492268342739266" lon="10.072938667205253"><ele>110.0</ele><time>2026-05-01T17:58:18Z</time></trkpt><trkpt lat="45.49215981150545" lon="10.072703589267132"><ele>109.33333333333333</ele><time>2026-05-01T17:58:19Z</time></trkpt><trkpt lat="45.49205114855608" lon="10.072468677472134"><ele>108.66666666666666</ele><time>2026-05-01T17:58:20Z</time></trkpt><trkpt lat="45.49194396009062" lon="10.072231024968476"><ele>108.0</ele><time>2026-05-01T17:58:21Z</time></trkpt><trkpt lat="45.49183442162463" lon="10.071994120611604"><ele>108.0</ele><time>2026-05-01T17:58:22Z</time></trkpt><trkpt lat="45.49172462025847" lon="10.071755430343948"><ele>108.0</ele><time>2026-05-01T17:58:23Z</time></trkpt><trkpt lat="45.491612287934615" lon="10.071510834716378"><ele>108.0</ele><time>2026-05-01T17:58:24Z</time></trkpt><trkpt lat="45.49149694870386" lon="10.071266142844788"><ele>108.0</ele><time>2026-05-01T17:58:25Z</time></trkpt><trkpt lat="45.49138049601453" lon="10.071017069339819"><ele>108.0</ele><time>2026-05-01T17:58:26Z</time></trkpt><trkpt lat="45.4912624338674" lon="10.070765230881447"><ele>108.0</ele><time>2026-05-01T17:58:27Z</time></trkpt><trkpt lat="45.49114311796484" lon="10.070511555761984"><ele>108.0</ele><time>2026-05-01T17:58:28Z</time></trkpt><trkpt lat="45.491025593720096" lon="10.07025170414185"><ele>108.0</ele><time>2026-05-01T17:58:29Z</time></trkpt><trkpt lat="45.49090744548692" lon="10.069985385030298"><ele>108.0</ele><time>2026-05-01T17:58:30Z</time></trkpt><trkpt lat="45.490786983204835" lon="10.069718929074076"><ele>108.0</ele><time>2026-05-01T17:58:31Z</time></trkpt><trkpt lat="45.49066357247031" lon="10.06945636946392"><ele>108.0</ele><time>2026-05-01T17:58:32Z</time></trkpt><trkpt lat="45.49053989604111" lon="10.069190888891454"><ele>108.0</ele><time>2026-05-01T17:58:33Z</time></trkpt><trkpt lat="45.49042891955559" lon="10.068911765200825"><ele>108.0</ele><time>2026-05-01T17:58:34Z</time></trkpt><trkpt lat="45.49030540875488" lon="10.068645282973703"><ele>108.0</ele><time>2026-05-01T17:58:35Z</time></trkpt><trkpt lat="45.49017965290776" lon="10.068375883882696"><ele>108.33333333333334</ele><time>2026-05-01T17:58:36Z</time></trkpt><trkpt lat="45.4900428015971" lon="10.068124320763921"><ele>108.66666666666667</ele><time>2026-05-01T17:58:37Z</time></trkpt><trkpt lat="45.48992266628821" lon="10.067854071921664"><ele>109.0</ele><time>2026-05-01T17:58:38Z</time></trkpt><trkpt lat="45.48980018279236" lon="10.067583630944544"><ele>109.33333333333334</ele><time>2026-05-01T17:58:39Z</time></trkpt><trkpt lat="45.48967749997018" lon="10.067313378410121"><ele>109.66666666666666</ele><time>2026-05-01T17:58:40Z</time></trkpt><trkpt lat="45.48955394468621" lon="10.067049760007974"><ele>110.0</ele><time>2026-05-01T17:58:41Z</time></trkpt><trkpt lat="45.48943093609847" lon="10.066783619961681"><ele>110.0</ele><time>2026-05-01T17:58:42Z</time></trkpt><trkpt lat="45.48931286346764" lon="10.06652635440751"><ele>110.0</ele><time>2026-05-01T17:58:43Z</time></trkpt><trkpt lat="45.48920140067373" lon="10.06628235157058"><ele>110.0</ele><time>2026-05-01T17:58:44Z</time></trkpt><trkpt lat="45.489100279095254" lon="10.066046903241533"><ele>110.0</ele><time>2026-05-01T17:58:45Z</time></trkpt><trkpt lat="45.489000668787995" lon="10.065828417083814"><ele>110.0</ele><time>2026-05-01T17:58:46Z</time></trkpt><trkpt lat="45.488907800082686" lon="10.065634866220636"><ele>110.0</ele><time>2026-05-01T17:58:47Z</time></trkpt><trkpt lat="45.48882046913074" lon="10.065451360250156"><ele>109.75</ele><time>2026-05-01T17:58:48Z</time></trkpt><trkpt lat="45.48875278872699" lon="10.065281160818126"><ele>109.5</ele><time>2026-05-01T17:58:49Z</time></trkpt><trkpt lat="45.488689221154964" lon="10.065134697268112"><ele>109.25</ele><time>2026-05-01T17:58:50Z</time></trkpt><trkpt lat="45.48863364917726" lon="10.065010836410776"><ele>109.0</ele><time>2026-05-01T17:58:51Z</time></trkpt><trkpt lat="45.48872170500667" lon="10.064744585539728"><ele>108.33333333333334</ele><time>2026-05-01T17:58:52Z</time></trkpt><trkpt lat="45.4886341604576" lon="10.064610543452648"><ele>107.66666666666666</ele><time>2026-05-01T17:58:53Z</time></trkpt><trkpt lat="45.48849337714638" lon="10.06451870156206"><ele>107.0</ele><time>2026-05-01T17:58:54Z</time></trkpt><trkpt lat="45.48834580638484" lon="10.064376913585582"><ele>107.0</ele><time>2026-05-01T17:58:55Z</time></trkpt><trkpt lat="45.488220289961" lon="10.064147654426408"><ele>107.0</ele><time>2026-05-01T17:58:56Z</time></trkpt><trkpt lat="45.48810344080562" lon="10.063888135887195"><ele>107.0</ele><time>2026-05-01T17:58:57Z</time></trkpt><trkpt lat="45.487987479453764" lon="10.063630211577731"><ele>107.33333333333333</ele><time>2026-05-01T17:58:58Z</time></trkpt><trkpt lat="45.48786859997875" lon="10.063377841443758"><ele>107.66666666666666</ele><time>2026-05-01T17:58:59Z</time></trkpt><trkpt lat="45.48774923452589" lon="10.063130911572307"><ele>108.0</ele><time>2026-05-01T17:59:00Z</time></trkpt><trkpt lat="45.487642090332436" lon="10.062893468623107"><ele>108.66666666666666</ele><time>2026-05-01T17:59:01Z</time></trkpt><trkpt lat="45.48753561939372" lon="10.06266474014293"><ele>109.33333333333333</ele><time>2026-05-01T17:59:02Z</time></trkpt><trkpt lat="45.487434191683356" lon="10.062441114305141"><ele>110.0</ele><time>2026-05-01T17:59:03Z</time></trkpt><trkpt lat="45.487331086312984" lon="10.062223943137035"><ele>110.0</ele><time>2026-05-01T17:59:04Z</time></trkpt><trkpt lat="45.48723055796014" lon="10.062005618000947"><ele>110.0</ele><time>2026-05-01T17:59:05Z</time></trkpt><trkpt lat="45.48713655999761" lon="10.061798828172387"><ele>110.0</ele><time>2026-05-01T17:59:06Z</time></trkpt><trkpt lat="45.4870451814657" lon="10.061605537286223"><ele>109.66666666666666</ele><time>2026-05-01T17:59:07Z</time></trkpt><trkpt lat="45.48695491266288" lon="10.061419740368574"><ele>109.33333333333334</ele><time>2026-05-01T17:59:08Z</time></trkpt><trkpt lat="45.48686786583046" lon="10.06123517087812"><ele>109.0</ele><time>2026-05-01T17:59:09Z</time></trkpt><trkpt lat="45.486779245157216" lon="10.061043050161357"><ele>109.0</ele><time>2026-05-01T17:59:10Z</time></trkpt><trkpt lat="45.48668679548625" lon="10.060846451545146"><ele>109.0</ele><time>2026-05-01T17:59:11Z</time></trkpt><trkpt lat="45.48659005398181" lon="10.060651412281006"><ele>109.0</ele><time>2026-05-01T17:59:12Z</time></trkpt><trkpt lat="45.486494340289546" lon="10.060445983770594"><ele>109.0</ele><time>2026-05-01T17:59:13Z</time></trkpt><trkpt lat="45.48639674421123" lon="10.06024151673842"><ele>109.0</ele><time>2026-05-01T17:59:14Z</time></trkpt><trkpt lat="45.486299508749354" lon="10.060029971266104"><ele>109.0</ele><time>2026-05-01T17:59:15Z</time></trkpt><trkpt lat="45.48619934788793" lon="10.059819742155346"><ele>108.66666666666667</ele><time>2026-05-01T17:59:16Z</time></trkpt><trkpt lat="45.48610048371073" lon="10.059608474238509"><ele>108.33333333333334</ele><time>2026-05-01T17:59:17Z</time></trkpt><trkpt lat="45.48600330969834" lon="10.05940136820971"><ele>108.0</ele><time>2026-05-01T17:59:18Z</time></trkpt><trkpt lat="45.485901874480646" lon="10.059187388546519"><ele>108.33333333333334</ele><time>2026-05-01T17:59:19Z</time></trkpt><trkpt lat="45.48580276880549" lon="10.058974415253124"><ele>108.66666666666667</ele><time>2026-05-01T17:59:20Z</time></trkpt><trkpt lat="45.48570107735897" lon="10.058756378649864"><ele>109.0</ele><time>2026-05-01T17:59:21Z</time></trkpt><trkpt lat="45.48560340114313" lon="10.058537498585194"><ele>109.0</ele><time>2026-05-01T17:59:22Z</time></trkpt><trkpt lat="45.48550339820972" lon="10.058321316507902"><ele>109.0</ele><time>2026-05-01T17:59:23Z</time></trkpt><trkpt lat="45.4854091243627" lon="10.058118680845471"><ele>109.0</ele><time>2026-05-01T17:59:24Z</time></trkpt><trkpt lat="45.48531907299466" lon="10.057925949662891"><ele>109.25</ele><time>2026-05-01T17:59:25Z</time></trkpt><trkpt lat="45.48523328775591" lon="10.057741119626947"><ele>109.5</ele><time>2026-05-01T17:59:26Z</time></trkpt><trkpt lat="45.485150132508394" lon="10.057562775633787"><ele>109.75</ele><time>2026-05-01T17:59:27Z</time></trkpt><trkpt lat="45.48507443756774" lon="10.057397751145228"><ele>110.0</ele><time>2026-05-01T17:59:28Z</time></trkpt><trkpt lat="45.485004287820594" lon="10.057250424399525"><ele>110.2</ele><time>2026-05-01T17:59:29Z</time></trkpt><trkpt lat="45.48494106890342" lon="10.057116804271518"><ele>110.4</ele><time>2026-05-01T17:59:30Z</time></trkpt><trkpt lat="45.484888861297485" lon="10.057002051115779"><ele>110.6</ele><time>2026-05-01T17:59:31Z</time></trkpt><trkpt lat="45.48484967278502" lon="10.056921639961864"><ele>110.8</ele><time>2026-05-01T17:59:32Z</time></trkpt><trkpt lat="45.484811300471925" lon="10.056839952021758"><ele>111.0</ele><time>2026-05-01T17:59:34Z</time></trkpt><trkpt lat="45.48475497641383" lon="10.056712355243839"><ele>110.75</ele><time>2026-05-01T18:00:18Z</time></trkpt><trkpt lat="45.4846803021839" lon="10.056566217029093"><ele>110.5</ele><time>2026-05-01T18:00:20Z</time></trkpt><trkpt lat="45.484605919941174" lon="10.056402593090214"><ele>110.25</ele><time>2026-05-01T18:00:22Z</time></trkpt><trkpt lat="45.48455757231218" lon="10.056291350682804"><ele>110.0</ele><time>2026-05-01T18:00:23Z</time></trkpt><trkpt lat="45.48449751283133" lon="10.05615967592246"><ele>110.5</ele><time>2026-05-01T18:00:24Z</time></trkpt><trkpt lat="45.48443438698988" lon="10.056016549224566"><ele>111.0</ele><time>2026-05-01T18:00:25Z</time></trkpt><trkpt lat="45.48437305165875" lon="10.055866791451164"><ele>111.5</ele><time>2026-05-01T18:00:26Z</time></trkpt><trkpt lat="45.48429719749796" lon="10.055701982843782"><ele>112.0</ele><time>2026-05-01T18:00:27Z</time></trkpt><trkpt lat="45.48421214478991" lon="10.055510958462671"><ele>112.0</ele><time>2026-05-01T18:00:28Z</time></trkpt><trkpt lat="45.4841246851503" lon="10.055297541439021"><ele>112.0</ele><time>2026-05-01T18:00:29Z</time></trkpt><trkpt lat="45.484027967893994" lon="10.055102294238756"><ele>112.0</ele><time>2026-05-01T18:00:30Z</time></trkpt><trkpt lat="45.483944144417194" lon="10.054924474800156"><ele>111.5</ele><time>2026-05-01T18:00:31Z</time></trkpt><trkpt lat="45.48387081536775" lon="10.054743029465284"><ele>111.0</ele><time>2026-05-01T18:00:32Z</time></trkpt><trkpt lat="45.48379501680388" lon="10.054564166725005"><ele>110.5</ele><time>2026-05-01T18:00:33Z</time></trkpt><trkpt lat="45.48371393602487" lon="10.054383861961817"><ele>110.0</ele><time>2026-05-01T18:00:34Z</time></trkpt><trkpt lat="45.48363007135589" lon="10.054198373284969"><ele>110.0</ele><time>2026-05-01T18:00:35Z</time></trkpt><trkpt lat="45.483545978932504" lon="10.054006101352254"><ele>110.0</ele><time>2026-05-01T18:00:36Z</time></trkpt><trkpt lat="45.48348575816003" lon="10.053786389623596"><ele>110.0</ele><time>2026-05-01T18:00:37Z</time></trkpt><trkpt lat="45.48336471422644" lon="10.053606342633799"><ele>110.0</ele><time>2026-05-01T18:00:38Z</time></trkpt><trkpt lat="45.483272354966104" lon="10.053405467554994"><ele>110.0</ele><time>2026-05-01T18:00:39Z</time></trkpt><trkpt lat="45.48317342650204" lon="10.053199462120663"><ele>110.0</ele><time>2026-05-01T18:00:40Z</time></trkpt><trkpt lat="45.48306606168436" lon="10.05298560910209"><ele>110.0</ele><time>2026-05-01T18:00:41Z</time></trkpt><trkpt lat="45.482947568944105" lon="10.052754185264007"><ele>110.0</ele><time>2026-05-01T18:00:42Z</time></trkpt><trkpt lat="45.482845084930936" lon="10.052484008711904"><ele>110.0</ele><time>2026-05-01T18:00:43Z</time></trkpt><trkpt lat="45.48271995317785" lon="10.052221230261315"><ele>109.5</ele><time>2026-05-01T18:00:44Z</time></trkpt><trkpt lat="45.48259256676563" lon="10.051951179695555"><ele>109.0</ele><time>2026-05-01T18:00:45Z</time></trkpt><trkpt lat="45.48245010967379" lon="10.051688539914874"><ele>108.5</ele><time>2026-05-01T18:00:46Z</time></trkpt><trkpt lat="45.482323400327196" lon="10.051407723747438"><ele>108.0</ele><time>2026-05-01T18:00:47Z</time></trkpt><trkpt lat="45.482197113251935" lon="10.051126983353527"><ele>107.5</ele><time>2026-05-01T18:00:48Z</time></trkpt><trkpt lat="45.482069582695466" lon="10.05084571354583"><ele>107.0</ele><time>2026-05-01T18:00:49Z</time></trkpt><trkpt lat="45.481941061453334" lon="10.050568282974094"><ele>107.0</ele><time>2026-05-01T18:00:50Z</time></trkpt><trkpt lat="45.48181373006649" lon="10.050297777557795"><ele>107.0</ele><time>2026-05-01T18:00:51Z</time></trkpt><trkpt lat="45.48169372681651" lon="10.050036383633836"><ele>107.0</ele><time>2026-05-01T18:00:52Z</time></trkpt><trkpt lat="45.48158111825252" lon="10.04978592489535"><ele>106.66666666666666</ele><time>2026-05-01T18:00:53Z</time></trkpt><trkpt lat="45.48146469620526" lon="10.049535373656687"><ele>106.33333333333334</ele><time>2026-05-01T18:00:54Z</time></trkpt><trkpt lat="45.481343786605294" lon="10.049292181419588"><ele>106.0</ele><time>2026-05-01T18:00:55Z</time></trkpt><trkpt lat="45.481212821691535" lon="10.049055427159097"><ele>105.66666666666667</ele><time>2026-05-01T18:00:56Z</time></trkpt><trkpt lat="45.48106681423684" lon="10.048832903369235"><ele>105.33333333333334</ele><time>2026-05-01T18:00:57Z</time></trkpt><trkpt lat="45.480906949922336" lon="10.048624180560932"><ele>105.0</ele><time>2026-05-01T18:00:58Z</time></trkpt><trkpt lat="45.48074068240428" lon="10.048423274187764"><ele>105.0</ele><time>2026-05-01T18:00:59Z</time></trkpt><trkpt lat="45.48056729519076" lon="10.04822575858027"><ele>105.0</ele><time>2026-05-01T18:01:00Z</time></trkpt><trkpt lat="45.480395789924145" lon="10.048027352121125"><ele>105.0</ele><time>2026-05-01T18:01:01Z</time></trkpt><trkpt lat="45.48022494877066" lon="10.047823765291433"><ele>105.0</ele><time>2026-05-01T18:01:02Z</time></trkpt><trkpt lat="45.48005571661669" lon="10.047617906677857"><ele>105.0</ele><time>2026-05-01T18:01:03Z</time></trkpt><trkpt lat="45.479884424047995" lon="10.047413175376423"><ele>105.0</ele><time>2026-05-01T18:01:04Z</time></trkpt><trkpt lat="45.47971583715221" lon="10.047213379130756"><ele>105.0</ele><time>2026-05-01T18:01:05Z</time></trkpt><trkpt lat="45.47954721716348" lon="10.047012001324994"><ele>105.0</ele><time>2026-05-01T18:01:06Z</time></trkpt><trkpt lat="45.47938076249756" lon="10.046811190296497"><ele>105.0</ele><time>2026-05-01T18:01:07Z</time></trkpt><trkpt lat="45.47921438969551" lon="10.046612923180307"><ele>105.0</ele><time>2026-05-01T18:01:08Z</time></trkpt><trkpt lat="45.479047798671026" lon="10.04641350424153"><ele>105.0</ele><time>2026-05-01T18:01:09Z</time></trkpt><trkpt lat="45.47888487554174" lon="10.04621346377336"><ele>105.0</ele><time>2026-05-01T18:01:10Z</time></trkpt><trkpt lat="45.47872164897464" lon="10.04601453881439"><ele>105.0</ele><time>2026-05-01T18:01:11Z</time></trkpt><trkpt lat="45.47855807370388" lon="10.045817789182303"><ele>105.0</ele><time>2026-05-01T18:01:12Z</time></trkpt><trkpt lat="45.47839878241082" lon="10.045625124393185"><ele>105.0</ele><time>2026-05-01T18:01:13Z</time></trkpt><trkpt lat="45.478242506299466" lon="10.0454317812994"><ele>105.66666666666666</ele><time>2026-05-01T18:01:14Z</time></trkpt><trkpt lat="45.47808930129305" lon="10.045243636241748"><ele>106.33333333333333</ele><time>2026-05-01T18:01:15Z</time></trkpt><trkpt lat="45.47793437879575" lon="10.045057988731244"><ele>107.0</ele><time>2026-05-01T18:01:16Z</time></trkpt><trkpt lat="45.47778060079248" lon="10.044875888138785"><ele>107.33333333333333</ele><time>2026-05-01T18:01:17Z</time></trkpt><trkpt lat="45.477628757126496" lon="10.044698776849797"><ele>107.66666666666666</ele><time>2026-05-01T18:01:18Z</time></trkpt><trkpt lat="45.47749064765579" lon="10.044527363234677"><ele>108.0</ele><time>2026-05-01T18:01:19Z</time></trkpt><trkpt lat="45.477359540462295" lon="10.044363476495471"><ele>108.0</ele><time>2026-05-01T18:01:20Z</time></trkpt><trkpt lat="45.47723304958471" lon="10.044209179164081"><ele>108.0</ele><time>2026-05-01T18:01:21Z</time></trkpt><trkpt lat="45.47712075982423" lon="10.044078937132435"><ele>108.0</ele><time>2026-05-01T18:01:22Z</time></trkpt><trkpt lat="45.47702663153411" lon="10.043968079766051"><ele>108.0</ele><time>2026-05-01T18:01:23Z</time></trkpt><trkpt lat="45.47695259720099" lon="10.043868620928663"><ele>107.80000000000001</ele><time>2026-05-01T18:01:24Z</time></trkpt><trkpt lat="45.47689851345039" lon="10.043802834956534"><ele>107.60000000000001</ele><time>2026-05-01T18:01:25Z</time></trkpt><trkpt lat="45.47682597654736" lon="10.04371215952099"><ele>107.39999999999999</ele><time>2026-05-01T18:01:27Z</time></trkpt><trkpt lat="45.476761044867295" lon="10.043637185099394"><ele>107.19999999999999</ele><time>2026-05-01T18:01:29Z</time></trkpt><trkpt lat="45.476701004540494" lon="10.043496923874828"><ele>107.0</ele><time>2026-05-01T18:01:31Z</time></trkpt><trkpt lat="45.4767347683777" lon="10.043257485173964"><ele>106.8</ele><time>2026-05-01T18:01:33Z</time></trkpt><trkpt lat="45.47677189159741" lon="10.043148793401"><ele>106.6</ele><time>2026-05-01T18:01:34Z</time></trkpt><trkpt lat="45.47681178474297" lon="10.043021886737376"><ele>106.39999999999999</ele><time>2026-05-01T18:01:35Z</time></trkpt><trkpt lat="45.47685183370019" lon="10.04288949003574"><ele>106.19999999999999</ele><time>2026-05-01T18:01:36Z</time></trkpt><trkpt lat="45.476892455887935" lon="10.04275146248603"><ele>106.0</ele><time>2026-05-01T18:01:37Z</time></trkpt><trkpt lat="45.476925039352764" lon="10.042600431093542"><ele>106.0</ele><time>2026-05-01T18:01:38Z</time></trkpt><trkpt lat="45.476951092221846" lon="10.042399260425343"><ele>106.0</ele><time>2026-05-01T18:01:39Z</time></trkpt><trkpt lat="45.47697484548191" lon="10.042168545446168"><ele>106.0</ele><time>2026-05-01T18:01:40Z</time></trkpt><trkpt lat="45.47700789431824" lon="10.041966260237015"><ele>106.0</ele><time>2026-05-01T18:01:41Z</time></trkpt><trkpt lat="45.47705018066625" lon="10.041777945099861"><ele>106.0</ele><time>2026-05-01T18:01:42Z</time></trkpt><trkpt lat="45.47709162831852" lon="10.041605930303536"><ele>106.0</ele><time>2026-05-01T18:01:43Z</time></trkpt><trkpt lat="45.47712698163888" lon="10.041443027101602"><ele>106.0</ele><time>2026-05-01T18:01:44Z</time></trkpt><trkpt lat="45.477160677396625" lon="10.041293817808352"><ele>106.19999999999999</ele><time>2026-05-01T18:01:45Z</time></trkpt><trkpt lat="45.47719262482599" lon="10.041142585286307"><ele>106.39999999999999</ele><time>2026-05-01T18:01:46Z</time></trkpt><trkpt lat="45.47722261340018" lon="10.040996457521073"><ele>106.6</ele><time>2026-05-01T18:01:47Z</time></trkpt><trkpt lat="45.47725204263791" lon="10.040851392513446"><ele>106.8</ele><time>2026-05-01T18:01:48Z</time></trkpt><trkpt lat="45.477281185791" lon="10.040715752021091"><ele>107.0</ele><time>2026-05-01T18:01:49Z</time></trkpt><trkpt lat="45.47730644141019" lon="10.04059173692418"><ele>106.99999999999999</ele><time>2026-05-01T18:01:50Z</time></trkpt><trkpt lat="45.47733131723695" lon="10.040474388237477"><ele>107.0</ele><time>2026-05-01T18:01:51Z</time></trkpt><trkpt lat="45.477357922158504" lon="10.040367708309011"><ele>107.0</ele><time>2026-05-01T18:01:52Z</time></trkpt><trkpt lat="45.47738360007533" lon="10.04025934390976"><ele>107.0</ele><time>2026-05-01T18:01:53Z</time></trkpt><trkpt lat="45.47741154173569" lon="10.040149544546699"><ele>106.99999999999999</ele><time>2026-05-01T18:01:54Z</time></trkpt><trkpt lat="45.477436472924175" lon="10.040010863249863"><ele>107.0</ele><time>2026-05-01T18:01:55Z</time></trkpt><trkpt lat="45.47747034868311" lon="10.039864470920474"><ele>107.0</ele><time>2026-05-01T18:01:56Z</time></trkpt><trkpt lat="45.47750689223382" lon="10.039705951841524"><ele>107.0</ele><time>2026-05-01T18:01:57Z</time></trkpt><trkpt lat="45.47754320924649" lon="10.039536259189035"><ele>107.0</ele><time>2026-05-01T18:01:58Z</time></trkpt><trkpt lat="45.47758079880526" lon="10.03935666003451"><ele>107.0</ele><time>2026-05-01T18:01:59Z</time></trkpt><trkpt lat="45.47761894159159" lon="10.039169739202055"><ele>106.75</ele><time>2026-05-01T18:02:00Z</time></trkpt><trkpt lat="45.47766063486059" lon="10.038983003810962"><ele>106.5</ele><time>2026-05-01T18:02:01Z</time></trkpt><trkpt lat="45.477701021830384" lon="10.038800298606962"><ele>106.25</ele><time>2026-05-01T18:02:02Z</time></trkpt><trkpt lat="45.47774024476063" lon="10.038606647166192"><ele>106.0</ele><time>2026-05-01T18:02:03Z</time></trkpt><trkpt lat="45.477777430446245" lon="10.038425016243865"><ele>105.75</ele><time>2026-05-01T18:02:04Z</time></trkpt><trkpt lat="45.47781810247344" lon="10.038244937236328"><ele>105.5</ele><time>2026-05-01T18:02:05Z</time></trkpt><trkpt lat="45.47785583192411" lon="10.038079748478715"><ele>105.25</ele><time>2026-05-01T18:02:06Z</time></trkpt><trkpt lat="45.47788917510066" lon="10.037918600663433"><ele>105.0</ele><time>2026-05-01T18:02:07Z</time></trkpt><trkpt lat="45.477920495876994" lon="10.037772419309096"><ele>105.4</ele><time>2026-05-01T18:02:08Z</time></trkpt><trkpt lat="45.47795793890114" lon="10.03764092262251"><ele>105.8</ele><time>2026-05-01T18:02:09Z</time></trkpt><trkpt lat="45.47801868658844" lon="10.037535013768796"><ele>106.19999999999999</ele><time>2026-05-01T18:02:10Z</time></trkpt><trkpt lat="45.47808690199727" lon="10.037460607987516"><ele>106.6</ele><time>2026-05-01T18:02:11Z</time></trkpt><trkpt lat="45.47812548939379" lon="10.037359305923912"><ele>107.0</ele><time>2026-05-01T18:02:12Z</time></trkpt><trkpt lat="45.47812176684097" lon="10.037234028367953"><ele>107.0</ele><time>2026-05-01T18:02:13Z</time></trkpt><trkpt lat="45.47810118355942" lon="10.0370884141917"><ele>107.0</ele><time>2026-05-01T18:02:14Z</time></trkpt><trkpt lat="45.478103155777646" lon="10.036908754663179"><ele>107.0</ele><time>2026-05-01T18:02:15Z</time></trkpt><trkpt lat="45.4781407447345" lon="10.036705454480899"><ele>107.0</ele><time>2026-05-01T18:02:16Z</time></trkpt><trkpt lat="45.47819817412919" lon="10.036466567557728"><ele>107.0</ele><time>2026-05-01T18:02:17Z</time></trkpt><trkpt lat="45.47825807000303" lon="10.036188341259452"><ele>107.0</ele><time>2026-05-01T18:02:18Z</time></trkpt><trkpt lat="45.47832037687453" lon="10.035878398114923"><ele>107.0</ele><time>2026-05-01T18:02:19Z</time></trkpt><trkpt lat="45.478387986122" lon="10.035536944276139"><ele>107.0</ele><time>2026-05-01T18:02:20Z</time></trkpt><trkpt lat="45.47846293746632" lon="10.035185676392919"><ele>107.0</ele><time>2026-05-01T18:02:21Z</time></trkpt><trkpt lat="45.47854753790637" lon="10.034822119575649"><ele>107.0</ele><time>2026-05-01T18:02:22Z</time></trkpt><trkpt lat="45.47863043813734" lon="10.03445467694839"><ele>107.0</ele><time>2026-05-01T18:02:23Z</time></trkpt><trkpt lat="45.478706819933464" lon="10.034120891417583"><ele>106.5</ele><time>2026-05-01T18:02:24Z</time></trkpt><trkpt lat="45.47878069035362" lon="10.033801463710288"><ele>106.0</ele><time>2026-05-01T18:02:25Z</time></trkpt><trkpt lat="45.47885136530347" lon="10.0334831588185"><ele>106.0</ele><time>2026-05-01T18:02:26Z</time></trkpt><trkpt lat="45.47891906171841" lon="10.033166589361585"><ele>106.0</ele><time>2026-05-01T18:02:27Z</time></trkpt><trkpt lat="45.47898897420195" lon="10.032848140281605"><ele>106.0</ele><time>2026-05-01T18:02:28Z</time></trkpt><trkpt lat="45.47904906483608" lon="10.032523960488302"><ele>106.0</ele><time>2026-05-01T18:02:29Z</time></trkpt><trkpt lat="45.47909682739821" lon="10.032198108221758"><ele>106.5</ele><time>2026-05-01T18:02:30Z</time></trkpt><trkpt lat="45.47912585095642" lon="10.031870000583558"><ele>107.0</ele><time>2026-05-01T18:02:31Z</time></trkpt><trkpt lat="45.47914794825414" lon="10.031532428100732"><ele>107.0</ele><time>2026-05-01T18:02:32Z</time></trkpt><trkpt lat="45.47915603581619" lon="10.0311910626557"><ele>107.0</ele><time>2026-05-01T18:02:33Z</time></trkpt><trkpt lat="45.479154588116266" lon="10.030850531159766"><ele>107.5</ele><time>2026-05-01T18:02:34Z</time></trkpt><trkpt lat="45.47913588419655" lon="10.030504792955334"><ele>108.0</ele><time>2026-05-01T18:02:35Z</time></trkpt><trkpt lat="45.47909723178152" lon="10.030163223432794"><ele>107.5</ele><time>2026-05-01T18:02:36Z</time></trkpt><trkpt lat="45.479044429280684" lon="10.029823373469343"><ele>107.0</ele><time>2026-05-01T18:02:37Z</time></trkpt><trkpt lat="45.478984637516476" lon="10.029484391046282"><ele>107.0</ele><time>2026-05-01T18:02:38Z</time></trkpt><trkpt lat="45.47892027087385" lon="10.029145773775364"><ele>107.0</ele><time>2026-05-01T18:02:39Z</time></trkpt><trkpt lat="45.47885996590724" lon="10.028803491070136"><ele>107.0</ele><time>2026-05-01T18:02:40Z</time></trkpt><trkpt lat="45.47880076790804" lon="10.0284638964678"><ele>107.0</ele><time>2026-05-01T18:02:41Z</time></trkpt><trkpt lat="45.47873838108494" lon="10.028122337382865"><ele>107.0</ele><time>2026-05-01T18:02:42Z</time></trkpt><trkpt lat="45.47867365127874" lon="10.027776536247776"><ele>107.0</ele><time>2026-05-01T18:02:43Z</time></trkpt><trkpt lat="45.47861501530084" lon="10.02742872445887"><ele>107.0</ele><time>2026-05-01T18:02:44Z</time></trkpt><trkpt lat="45.47855697738227" lon="10.027085103816098"><ele>107.0</ele><time>2026-05-01T18:02:45Z</time></trkpt><trkpt lat="45.47850154162967" lon="10.026742446516193"><ele>106.5</ele><time>2026-05-01T18:02:46Z</time></trkpt><trkpt lat="45.4784463478231" lon="10.026401865728856"><ele>106.0</ele><time>2026-05-01T18:02:47Z</time></trkpt><trkpt lat="45.4783884569449" lon="10.026058678824198"><ele>106.5</ele><time>2026-05-01T18:02:48Z</time></trkpt><trkpt lat="45.478327253042885" lon="10.025720768105431"><ele>107.0</ele><time>2026-05-01T18:02:49Z</time></trkpt><trkpt lat="45.4782642766994" lon="10.025383265465369"><ele>107.0</ele><time>2026-05-01T18:02:50Z</time></trkpt><trkpt lat="45.4782180259292" lon="10.025035494221077"><ele>107.0</ele><time>2026-05-01T18:02:51Z</time></trkpt><trkpt lat="45.4781611463596" lon="10.024690842025278"><ele>106.5</ele><time>2026-05-01T18:02:52Z</time></trkpt><trkpt lat="45.478125109979594" lon="10.024338435946133"><ele>106.0</ele><time>2026-05-01T18:02:53Z</time></trkpt><trkpt lat="45.47809485263137" lon="10.023990933977732"><ele>106.0</ele><time>2026-05-01T18:02:54Z</time></trkpt><trkpt lat="45.47807155238165" lon="10.023641013505209"><ele>106.0</ele><time>2026-05-01T18:02:55Z</time></trkpt><trkpt lat="45.478055432783826" lon="10.023295850816442"><ele>106.0</ele><time>2026-05-01T18:02:56Z</time></trkpt><trkpt lat="45.47804553671965" lon="10.022945409721254"><ele>106.0</ele><time>2026-05-01T18:02:57Z</time></trkpt><trkpt lat="45.4780409842264" lon="10.022605682741295"><ele>106.5</ele><time>2026-05-01T18:02:58Z</time></trkpt><trkpt lat="45.47803289914561" lon="10.022267937272693"><ele>107.0</ele><time>2026-05-01T18:02:59Z</time></trkpt><trkpt lat="45.478026681081055" lon="10.021949513950194"><ele>106.66666666666666</ele><time>2026-05-01T18:03:00Z</time></trkpt><trkpt lat="45.478022048987775" lon="10.021644498694148"><ele>106.33333333333334</ele><time>2026-05-01T18:03:01Z</time></trkpt><trkpt lat="45.47801664006715" lon="10.021355696203042"><ele>106.0</ele><time>2026-05-01T18:03:02Z</time></trkpt><trkpt lat="45.47800588387266" lon="10.021090836941298"><ele>106.0</ele><time>2026-05-01T18:03:03Z</time></trkpt><trkpt lat="45.478005292904" lon="10.020886740823807"><ele>106.0</ele><time>2026-05-01T18:03:04Z</time></trkpt><trkpt lat="45.47801455815222" lon="10.020704348286843"><ele>106.0</ele><time>2026-05-01T18:03:05Z</time></trkpt><trkpt lat="45.47805291946264" lon="10.02053436568549"><ele>106.0</ele><time>2026-05-01T18:03:06Z</time></trkpt><trkpt lat="45.47805811617334" lon="10.020378632279746"><ele>106.33333333333334</ele><time>2026-05-01T18:03:07Z</time></trkpt><trkpt lat="45.47801103488609" lon="10.020214884549349"><ele>106.66666666666666</ele><time>2026-05-01T18:03:08Z</time></trkpt><trkpt lat="45.47796547734231" lon="10.020028078952878"><ele>107.0</ele><time>2026-05-01T18:03:09Z</time></trkpt><trkpt lat="45.47771198957812" lon="10.020040635949583"><ele>107.25</ele><time>2026-05-01T18:03:10Z</time></trkpt><trkpt lat="45.47765598557621" lon="10.019902194280073"><ele>107.5</ele><time>2026-05-01T18:03:11Z</time></trkpt><trkpt lat="45.477604473595626" lon="10.019761163084898"><ele>107.75</ele><time>2026-05-01T18:03:12Z</time></trkpt><trkpt lat="45.477547179779755" lon="10.01961169175524"><ele>108.0</ele><time>2026-05-01T18:03:13Z</time></trkpt><trkpt lat="45.47748456360314" lon="10.019442498191717"><ele>108.0</ele><time>2026-05-01T18:03:14Z</time></trkpt><trkpt lat="45.47742271207029" lon="10.019263573514358"><ele>108.0</ele><time>2026-05-01T18:03:15Z</time></trkpt><trkpt lat="45.477885895639815" lon="10.018541861630235"><ele>108.0</ele><time>2026-05-01T18:03:16Z</time></trkpt><trkpt lat="45.477874331119935" lon="10.01829143001764"><ele>108.0</ele><time>2026-05-01T18:03:17Z</time></trkpt><trkpt lat="45.4778719943966" lon="10.018028195725039"><ele>108.0</ele><time>2026-05-01T18:03:18Z</time></trkpt><trkpt lat="45.4778792271836" lon="10.01777565103664"><ele>108.0</ele><time>2026-05-01T18:03:19Z</time></trkpt><trkpt lat="45.47789771195386" lon="10.017528854420211"><ele>108.0</ele><time>2026-05-01T18:03:20Z</time></trkpt><trkpt lat="45.47791540946239" lon="10.017289039201286"><ele>108.0</ele><time>2026-05-01T18:03:21Z</time></trkpt><trkpt lat="45.47793277624545" lon="10.017068747327583"><ele>108.0</ele><time>2026-05-01T18:03:22Z</time></trkpt><trkpt lat="45.47794348909563" lon="10.016851964262314"><ele>108.0</ele><time>2026-05-01T18:03:23Z</time></trkpt><trkpt lat="45.47794877869369" lon="10.016645701701574"><ele>108.0</ele><time>2026-05-01T18:03:24Z</time></trkpt><trkpt lat="45.47795723881652" lon="10.01644377331778"><ele>108.0</ele><time>2026-05-01T18:03:25Z</time></trkpt><trkpt lat="45.47795639709221" lon="10.016232383608223"><ele>108.0</ele><time>2026-05-01T18:03:26Z</time></trkpt><trkpt lat="45.47792708407676" lon="10.016030544979335"><ele>108.0</ele><time>2026-05-01T18:03:27Z</time></trkpt><trkpt lat="45.4778847996454" lon="10.015820702276441"><ele>108.0</ele><time>2026-05-01T18:03:28Z</time></trkpt><trkpt lat="45.47783526584717" lon="10.015602415474879"><ele>108.0</ele><time>2026-05-01T18:03:29Z</time></trkpt><trkpt lat="45.47778559907073" lon="10.015391779499438"><ele>108.0</ele><time>2026-05-01T18:03:30Z</time></trkpt><trkpt lat="45.477739091526665" lon="10.015174593801717"><ele>108.0</ele><time>2026-05-01T18:03:31Z</time></trkpt><trkpt lat="45.47770015150966" lon="10.014955696949793"><ele>108.33333333333334</ele><time>2026-05-01T18:03:32Z</time></trkpt><trkpt lat="45.47765607949815" lon="10.014736935715534"><ele>108.66666666666667</ele><time>2026-05-01T18:03:33Z</time></trkpt><trkpt lat="45.47761245343653" lon="10.014526999246243"><ele>109.0</ele><time>2026-05-01T18:03:34Z</time></trkpt><trkpt lat="45.477569480298015" lon="10.014330608926917"><ele>109.0</ele><time>2026-05-01T18:03:35Z</time></trkpt><trkpt lat="45.47752113992936" lon="10.014144763083907"><ele>109.0</ele><time>2026-05-01T18:03:36Z</time></trkpt><trkpt lat="45.477468356847815" lon="10.01397593089565"><ele>109.0</ele><time>2026-05-01T18:03:37Z</time></trkpt><trkpt lat="45.47741975639399" lon="10.01381703414289"><ele>109.0</ele><time>2026-05-01T18:03:38Z</time></trkpt><trkpt lat="45.47737103559971" lon="10.013680632665466"><ele>109.00000000000001</ele><time>2026-05-01T18:03:39Z</time></trkpt><trkpt lat="45.4773239338513" lon="10.013544163125756"><ele>109.0</ele><time>2026-05-01T18:03:40Z</time></trkpt><trkpt lat="45.47728723082707" lon="10.013428653425706"><ele>109.0</ele><time>2026-05-01T18:03:41Z</time></trkpt><trkpt lat="45.477261234215625" lon="10.013332585036416"><ele>109.0</ele><time>2026-05-01T18:03:42Z</time></trkpt><trkpt lat="45.47722894668283" lon="10.013227610503662"><ele>109.00000000000001</ele><time>2026-05-01T18:03:44Z</time></trkpt><trkpt lat="45.47720357099523" lon="10.013087811753783"><ele>109.0</ele><time>2026-05-01T18:03:48Z</time></trkpt><trkpt lat="45.477170381187015" lon="10.012921918078098"><ele>109.00000000000001</ele><time>2026-05-01T18:03:50Z</time></trkpt><trkpt lat="45.47715151497408" lon="10.012768795404613"><ele>109.0</ele><time>2026-05-01T18:03:52Z</time></trkpt><trkpt lat="45.477152700781474" lon="10.012672923511698"><ele>109.0</ele><time>2026-05-01T18:03:53Z</time></trkpt><trkpt lat="45.47715591529795" lon="10.012560024602688"><ele>109.0</ele><time>2026-05-01T18:03:54Z</time></trkpt><trkpt lat="45.477160821305986" lon="10.012434096923425"><ele>109.00000000000001</ele><time>2026-05-01T18:03:55Z</time></trkpt><trkpt lat="45.477167977249195" lon="10.01229625280808"><ele>109.0</ele><time>2026-05-01T18:03:56Z</time></trkpt><trkpt lat="45.47718259640341" lon="10.01213803815789"><ele>109.0</ele><time>2026-05-01T18:03:57Z</time></trkpt><trkpt lat="45.47719743611848" lon="10.011979310198667"><ele>109.0</ele><time>2026-05-01T18:03:58Z</time></trkpt><trkpt lat="45.477211573559615" lon="10.011828962896455"><ele>109.0</ele><time>2026-05-01T18:03:59Z</time></trkpt><trkpt lat="45.4772221484371" lon="10.011681275427103"><ele>109.0</ele><time>2026-05-01T18:04:00Z</time></trkpt><trkpt lat="45.47723657437251" lon="10.011516795418677"><ele>109.0</ele><time>2026-05-01T18:04:01Z</time></trkpt><trkpt lat="45.477251582875944" lon="10.011348308811849"><ele>109.0</ele><time>2026-05-01T18:04:02Z</time></trkpt><trkpt lat="45.47726296298062" lon="10.011194184416492"><ele>109.0</ele><time>2026-05-01T18:04:03Z</time></trkpt><trkpt lat="45.47727509365094" lon="10.011041339619359"><ele>109.0</ele><time>2026-05-01T18:04:04Z</time></trkpt><trkpt lat="45.477286120406255" lon="10.010872829573042"><ele>109.0</ele><time>2026-05-01T18:04:05Z</time></trkpt><trkpt lat="45.47729162297337" lon="10.010705269465166"><ele>109.25</ele><time>2026-05-01T18:04:06Z</time></trkpt><trkpt lat="45.47728298573158" lon="10.010531784769256"><ele>109.5</ele><time>2026-05-01T18:04:07Z</time></trkpt><trkpt lat="45.477276215359616" lon="10.01035811143237"><ele>109.75</ele><time>2026-05-01T18:04:08Z</time></trkpt><trkpt lat="45.47726968922032" lon="10.010190487448297"><ele>110.0</ele><time>2026-05-01T18:04:09Z</time></trkpt><trkpt lat="45.47726378763155" lon="10.010012336133459"><ele>109.5</ele><time>2026-05-01T18:04:10Z</time></trkpt><trkpt lat="45.47724685730229" lon="10.00984747471893"><ele>109.0</ele><time>2026-05-01T18:04:11Z</time></trkpt><trkpt lat="45.47722811234885" lon="10.009674617543434"><ele>108.5</ele><time>2026-05-01T18:04:12Z</time></trkpt><trkpt lat="45.477201327697024" lon="10.00950652681626"><ele>108.0</ele><time>2026-05-01T18:04:13Z</time></trkpt><trkpt lat="45.47717147421317" lon="10.009345185067378"><ele>108.0</ele><time>2026-05-01T18:04:14Z</time></trkpt><trkpt lat="45.477144015427754" lon="10.009180436906567"><ele>108.0</ele><time>2026-05-01T18:04:15Z</time></trkpt><trkpt lat="45.4771148072607" lon="10.009015487143488"><ele>108.0</ele><time>2026-05-01T18:04:16Z</time></trkpt><trkpt lat="45.477089003178186" lon="10.008847374399874"><ele>108.0</ele><time>2026-05-01T18:04:17Z</time></trkpt><trkpt lat="45.47706271726116" lon="10.008680970684454"><ele>108.0</ele><time>2026-05-01T18:04:18Z</time></trkpt><trkpt lat="45.47706482500923" lon="10.00849759555868"><ele>108.0</ele><time>2026-05-01T18:04:19Z</time></trkpt><trkpt lat="45.477042080118785" lon="10.008329758774346"><ele>108.0</ele><time>2026-05-01T18:04:20Z</time></trkpt><trkpt lat="45.47702447501938" lon="10.008169568186515"><ele>108.0</ele><time>2026-05-01T18:04:21Z</time></trkpt><trkpt lat="45.47701415654086" lon="10.008031105093469"><ele>108.0</ele><time>2026-05-01T18:04:22Z</time></trkpt><trkpt lat="45.47700671942493" lon="10.007904674319866"><ele>108.00000000000001</ele><time>2026-05-01T18:04:23Z</time></trkpt><trkpt lat="45.47700498412819" lon="10.00777582254413"><ele>108.00000000000001</ele><time>2026-05-01T18:04:24Z</time></trkpt><trkpt lat="45.47700505419715" lon="10.007639244820648"><ele>108.0</ele><time>2026-05-01T18:04:25Z</time></trkpt><trkpt lat="45.47700839414988" lon="10.00748822143977"><ele>108.0</ele><time>2026-05-01T18:04:26Z</time></trkpt><trkpt lat="45.47701478440914" lon="10.007336126479949"><ele>108.0</ele><time>2026-05-01T18:04:27Z</time></trkpt><trkpt lat="45.47702440482617" lon="10.007183675298174"><ele>108.00000000000001</ele><time>2026-05-01T18:04:28Z</time></trkpt><trkpt lat="45.477035399297904" lon="10.007036939211188"><ele>108.00000000000001</ele><time>2026-05-01T18:04:29Z</time></trkpt><trkpt lat="45.47704776293294" lon="10.006888916501843"><ele>108.0</ele><time>2026-05-01T18:04:30Z</time></trkpt><trkpt lat="45.47706207736146" lon="10.006737953033202"><ele>108.0</ele><time>2026-05-01T18:04:31Z</time></trkpt><trkpt lat="45.477076707222906" lon="10.006589595228462"><ele>108.0</ele><time>2026-05-01T18:04:32Z</time></trkpt><trkpt lat="45.4770897959633" lon="10.00645686553958"><ele>108.00000000000001</ele><time>2026-05-01T18:04:33Z</time></trkpt><trkpt lat="45.47710093963371" lon="10.00634386032953"><ele>108.00000000000001</ele><time>2026-05-01T18:04:34Z</time></trkpt><trkpt lat="45.47711734181016" lon="10.006177529946045"><ele>108.0</ele><time>2026-05-01T18:04:36Z</time></trkpt><trkpt lat="45.47720181140704" lon="10.00602819004234"><ele>108.0</ele><time>2026-05-01T18:04:38Z</time></trkpt><trkpt lat="45.4771361425871" lon="10.005830685993313"><ele>108.0</ele><time>2026-05-01T18:04:39Z</time></trkpt><trkpt lat="45.47711436903068" lon="10.005622239295763"><ele>108.0</ele><time>2026-05-01T18:04:40Z</time></trkpt><trkpt lat="45.47710774389357" lon="10.005383160628499"><ele>108.0</ele><time>2026-05-01T18:04:41Z</time></trkpt><trkpt lat="45.477101725279844" lon="10.005123146633473"><ele>108.0</ele><time>2026-05-01T18:04:42Z</time></trkpt><trkpt lat="45.47707166517186" lon="10.004899060253946"><ele>108.0</ele><time>2026-05-01T18:04:43Z</time></trkpt><trkpt lat="45.47704945674488" lon="10.004675557683457"><ele>108.0</ele><time>2026-05-01T18:04:44Z</time></trkpt><trkpt lat="45.47702338903008" lon="10.004414972221134"><ele>107.66666666666666</ele><time>2026-05-01T18:04:45Z</time></trkpt><trkpt lat="45.4769797510702" lon="10.004147716522782"><ele>107.33333333333333</ele><time>2026-05-01T18:04:46Z</time></trkpt><trkpt lat="45.476936789154486" lon="10.00388459373524"><ele>107.0</ele><time>2026-05-01T18:04:47Z</time></trkpt><trkpt lat="45.47686276929096" lon="10.003651960113544"><ele>107.0</ele><time>2026-05-01T18:04:48Z</time></trkpt><trkpt lat="45.476821572244596" lon="10.003426239797536"><ele>107.0</ele><time>2026-05-01T18:04:49Z</time></trkpt><trkpt lat="45.476777979191915" lon="10.003183946535637"><ele>107.0</ele><time>2026-05-01T18:04:50Z</time></trkpt><trkpt lat="45.47673714370815" lon="10.002921530427251"><ele>106.66666666666666</ele><time>2026-05-01T18:04:51Z</time></trkpt><trkpt lat="45.476702222234024" lon="10.002654303177607"><ele>106.33333333333334</ele><time>2026-05-01T18:04:52Z</time></trkpt><trkpt lat="45.47667039440687" lon="10.002385827963103"><ele>106.0</ele><time>2026-05-01T18:04:53Z</time></trkpt><trkpt lat="45.476632871364" lon="10.00211933697699"><ele>106.0</ele><time>2026-05-01T18:04:54Z</time></trkpt><trkpt lat="45.47659277600342" lon="10.001844518712094"><ele>106.0</ele><time>2026-05-01T18:04:55Z</time></trkpt><trkpt lat="45.476548360802965" lon="10.001566801843074"><ele>106.0</ele><time>2026-05-01T18:04:56Z</time></trkpt><trkpt lat="45.47650041854377" lon="10.001289124131363"><ele>106.33333333333334</ele><time>2026-05-01T18:04:57Z</time></trkpt><trkpt lat="45.476451297345335" lon="10.00100544195697"><ele>106.66666666666666</ele><time>2026-05-01T18:04:58Z</time></trkpt><trkpt lat="45.476405244091794" lon="10.000721117084419"><ele>107.0</ele><time>2026-05-01T18:04:59Z</time></trkpt><trkpt lat="45.47636293317445" lon="10.000433900956036"><ele>107.0</ele><time>2026-05-01T18:05:00Z</time></trkpt><trkpt lat="45.47632478884758" lon="10.000149587342369"><ele>107.0</ele><time>2026-05-01T18:05:01Z</time></trkpt><trkpt lat="45.476292670711715" lon="9.999866233793202"><ele>107.0</ele><time>2026-05-01T18:05:02Z</time></trkpt><trkpt lat="45.476264398585045" lon="9.99957125986458"><ele>106.66666666666666</ele><time>2026-05-01T18:05:03Z</time></trkpt><trkpt lat="45.47623996501264" lon="9.999281097573721"><ele>106.33333333333334</ele><time>2026-05-01T18:05:04Z</time></trkpt><trkpt lat="45.47621404099818" lon="9.998994241958652"><ele>106.0</ele><time>2026-05-01T18:05:05Z</time></trkpt><trkpt lat="45.47618708850769" lon="9.998704886949406"><ele>105.66666666666667</ele><time>2026-05-01T18:05:06Z</time></trkpt><trkpt lat="45.47615962417744" lon="9.998419962034598"><ele>105.33333333333334</ele><time>2026-05-01T18:05:07Z</time></trkpt><trkpt lat="45.47613500546188" lon="9.998127497042157"><ele>105.0</ele><time>2026-05-01T18:05:08Z</time></trkpt><trkpt lat="45.476111003366924" lon="9.997838884923516"><ele>104.66666666666666</ele><time>2026-05-01T18:05:09Z</time></trkpt><trkpt lat="45.47608480928647" lon="9.997549946396719"><ele>104.33333333333333</ele><time>2026-05-01T18:05:10Z</time></trkpt><trkpt lat="45.4760580839962" lon="9.99726843088304"><ele>104.0</ele><time>2026-05-01T18:05:11Z</time></trkpt><trkpt lat="45.47603142547953" lon="9.996990790645288"><ele>104.33333333333333</ele><time>2026-05-01T18:05:12Z</time></trkpt><trkpt lat="45.476003120294564" lon="9.996713730434985"><ele>104.66666666666666</ele><time>2026-05-01T18:05:13Z</time></trkpt><trkpt lat="45.475959658131934" lon="9.996449813995214"><ele>105.0</ele><time>2026-05-01T18:05:14Z</time></trkpt><trkpt lat="45.47590849169932" lon="9.996189228918006"><ele>105.0</ele><time>2026-05-01T18:05:15Z</time></trkpt><trkpt lat="45.4758507417131" lon="9.995931823553668"><ele>105.0</ele><time>2026-05-01T18:05:16Z</time></trkpt><trkpt lat="45.47579121128222" lon="9.995676076018256"><ele>105.0</ele><time>2026-05-01T18:05:17Z</time></trkpt><trkpt lat="45.475726328177366" lon="9.995411484866422"><ele>105.0</ele><time>2026-05-01T18:05:18Z</time></trkpt><trkpt lat="45.47565950655918" lon="9.995144164242577"><ele>105.0</ele><time>2026-05-01T18:05:19Z</time></trkpt><trkpt lat="45.47559052870944" lon="9.994873046117034"><ele>105.0</ele><time>2026-05-01T18:05:20Z</time></trkpt><trkpt lat="45.47552128967239" lon="9.994602738794372"><ele>105.0</ele><time>2026-05-01T18:05:21Z</time></trkpt><trkpt lat="45.475453889745886" lon="9.994330524737052"><ele>105.0</ele><time>2026-05-01T18:05:22Z</time></trkpt><trkpt lat="45.47539137692919" lon="9.994055264657344"><ele>105.0</ele><time>2026-05-01T18:05:23Z</time></trkpt><trkpt lat="45.47532955315832" lon="9.993776141510889"><ele>105.0</ele><time>2026-05-01T18:05:24Z</time></trkpt><trkpt lat="45.475268557164924" lon="9.99349882820428"><ele>105.0</ele><time>2026-05-01T18:05:25Z</time></trkpt><trkpt lat="45.475213977320244" lon="9.993221652559855"><ele>105.0</ele><time>2026-05-01T18:05:26Z</time></trkpt><trkpt lat="45.4751773867358" lon="9.992949463853812"><ele>105.0</ele><time>2026-05-01T18:05:27Z</time></trkpt><trkpt lat="45.47514639107103" lon="9.99270514613006"><ele>105.0</ele><time>2026-05-01T18:05:28Z</time></trkpt><trkpt lat="45.475117541472436" lon="9.992464202864545"><ele>105.0</ele><time>2026-05-01T18:05:29Z</time></trkpt><trkpt lat="45.47508933685816" lon="9.99223419150518"><ele>105.0</ele><time>2026-05-01T18:05:30Z</time></trkpt><trkpt lat="45.47506358868198" lon="9.99200341006877"><ele>105.0</ele><time>2026-05-01T18:05:31Z</time></trkpt><trkpt lat="45.475026691526885" lon="9.99175278691169"><ele>105.0</ele><time>2026-05-01T18:05:32Z</time></trkpt><trkpt lat="45.47498695631318" lon="9.991504662235872"><ele>104.66666666666666</ele><time>2026-05-01T18:05:33Z</time></trkpt><trkpt lat="45.474944905137455" lon="9.991248471935533"><ele>104.33333333333333</ele><time>2026-05-01T18:05:34Z</time></trkpt><trkpt lat="45.47490673497284" lon="9.990988948136629"><ele>104.0</ele><time>2026-05-01T18:05:35Z</time></trkpt><trkpt lat="45.47486764736588" lon="9.990733020939784"><ele>104.66666666666666</ele><time>2026-05-01T18:05:36Z</time></trkpt><trkpt lat="45.474828633889764" lon="9.990478921812857"><ele>105.33333333333334</ele><time>2026-05-01T18:05:37Z</time></trkpt><trkpt lat="45.474791022515774" lon="9.990234475922186"><ele>106.0</ele><time>2026-05-01T18:05:38Z</time></trkpt><trkpt lat="45.4747552129773" lon="9.989995579624553"><ele>106.0</ele><time>2026-05-01T18:05:39Z</time></trkpt><trkpt lat="45.474723124326474" lon="9.989761732707173"><ele>106.0</ele><time>2026-05-01T18:05:40Z</time></trkpt><trkpt lat="45.47468673970495" lon="9.989527917606184"><ele>106.0</ele><time>2026-05-01T18:05:41Z</time></trkpt><trkpt lat="45.47465311157393" lon="9.989298616646648"><ele>106.0</ele><time>2026-05-01T18:05:42Z</time></trkpt><trkpt lat="45.47462052790435" lon="9.989078851318114"><ele>106.0</ele><time>2026-05-01T18:05:43Z</time></trkpt><trkpt lat="45.47458794333591" lon="9.988873680213473"><ele>106.0</ele><time>2026-05-01T18:05:44Z</time></trkpt><trkpt lat="45.474559736094676" lon="9.988676181383598"><ele>106.0</ele><time>2026-05-01T18:05:45Z</time></trkpt><trkpt lat="45.47453148760934" lon="9.988479669967903"><ele>106.0</ele><time>2026-05-01T18:05:46Z</time></trkpt><trkpt lat="45.47452766959596" lon="9.988286018626313"><ele>106.0</ele><time>2026-05-01T18:05:47Z</time></trkpt><trkpt lat="45.474510373347236" lon="9.988103335152998"><ele>106.0</ele><time>2026-05-01T18:05:48Z</time></trkpt><trkpt lat="45.47449776853254" lon="9.987932553108552"><ele>106.0</ele><time>2026-05-01T18:05:49Z</time></trkpt><trkpt lat="45.47448322477885" lon="9.987763629826471"><ele>106.0</ele><time>2026-05-01T18:05:50Z</time></trkpt><trkpt lat="45.47445147218801" lon="9.987597732468105"><ele>106.0</ele><time>2026-05-01T18:05:51Z</time></trkpt><trkpt lat="45.47443830008296" lon="9.987441493406536"><ele>106.0</ele><time>2026-05-01T18:05:52Z</time></trkpt><trkpt lat="45.47442542599504" lon="9.987294455027728"><ele>106.0</ele><time>2026-05-01T18:05:53Z</time></trkpt><trkpt lat="45.474416117019736" lon="9.987151480518232"><ele>106.0</ele><time>2026-05-01T18:05:54Z</time></trkpt><trkpt lat="45.47439808572173" lon="9.9870181594457"><ele>106.19999999999999</ele><time>2026-05-01T18:05:55Z</time></trkpt><trkpt lat="45.4743910469998" lon="9.98687651758581"><ele>106.39999999999999</ele><time>2026-05-01T18:05:56Z</time></trkpt><trkpt lat="45.47437940996774" lon="9.986734673945417"><ele>106.6</ele><time>2026-05-01T18:05:57Z</time></trkpt><trkpt lat="45.474370707990644" lon="9.986593086255171"><ele>106.8</ele><time>2026-05-01T18:05:58Z</time></trkpt><trkpt lat="45.47435042050185" lon="9.986454157933238"><ele>107.0</ele><time>2026-05-01T18:05:59Z</time></trkpt><trkpt lat="45.47433108288821" lon="9.986316566720484"><ele>107.0</ele><time>2026-05-01T18:06:00Z</time></trkpt><trkpt lat="45.47431597074412" lon="9.986169301495094"><ele>106.99999999999999</ele><time>2026-05-01T18:06:01Z</time></trkpt><trkpt lat="45.474304357953685" lon="9.986024302196903"><ele>106.99999999999999</ele><time>2026-05-01T18:06:02Z</time></trkpt><trkpt lat="45.47429521577602" lon="9.985873579261872"><ele>107.0</ele><time>2026-05-01T18:06:03Z</time></trkpt><trkpt lat="45.47428711402704" lon="9.985725421955282"><ele>107.0</ele><time>2026-05-01T18:06:04Z</time></trkpt><trkpt lat="45.47428507107685" lon="9.985573291292441"><ele>107.0</ele><time>2026-05-01T18:06:05Z</time></trkpt><trkpt lat="45.47429786185967" lon="9.98541720951637"><ele>107.0</ele><time>2026-05-01T18:06:06Z</time></trkpt><trkpt lat="45.474288068794735" lon="9.985247348380819"><ele>107.0</ele><time>2026-05-01T18:06:07Z</time></trkpt><trkpt lat="45.47429052491209" lon="9.985083220112406"><ele>107.0</ele><time>2026-05-01T18:06:08Z</time></trkpt><trkpt lat="45.47430219907781" lon="9.984919091442048"><ele>107.0</ele><time>2026-05-01T18:06:09Z</time></trkpt><trkpt lat="45.47431094625225" lon="9.984754440395221"><ele>107.0</ele><time>2026-05-01T18:06:10Z</time></trkpt><trkpt lat="45.47432706267414" lon="9.984586632168734"><ele>107.0</ele><time>2026-05-01T18:06:11Z</time></trkpt><trkpt lat="45.47433707645495" lon="9.98442026681578"><ele>107.0</ele><time>2026-05-01T18:06:12Z</time></trkpt><trkpt lat="45.474352859452935" lon="9.984253585887327"><ele>106.75</ele><time>2026-05-01T18:06:13Z</time></trkpt><trkpt lat="45.47436566183964" lon="9.984085198498946"><ele>106.5</ele><time>2026-05-01T18:06:14Z</time></trkpt><trkpt lat="45.474377582457834" lon="9.983919169736051"><ele>106.25</ele><time>2026-05-01T18:06:15Z</time></trkpt><trkpt lat="45.47438934079673" lon="9.983756358377601"><ele>106.0</ele><time>2026-05-01T18:06:16Z</time></trkpt><trkpt lat="45.47440332322487" lon="9.98360915454361"><ele>106.0</ele><time>2026-05-01T18:06:17Z</time></trkpt><trkpt lat="45.47441738590675" lon="9.983473363639401"><ele>106.0</ele><time>2026-05-01T18:06:18Z</time></trkpt><trkpt lat="45.47442963659275" lon="9.983337329570652"><ele>106.0</ele><time>2026-05-01T18:06:19Z</time></trkpt><trkpt lat="45.47444504903829" lon="9.983181429468535"><ele>106.0</ele><time>2026-05-01T18:06:20Z</time></trkpt><trkpt lat="45.47446095740307" lon="9.983005208442155"><ele>106.0</ele><time>2026-05-01T18:06:21Z</time></trkpt><trkpt lat="45.4744772039384" lon="9.982820228286432"><ele>106.0</ele><time>2026-05-01T18:06:22Z</time></trkpt><trkpt lat="45.4744918723912" lon="9.98265476174729"><ele>106.0</ele><time>2026-05-01T18:06:23Z</time></trkpt><trkpt lat="45.474507242654845" lon="9.982501278940132"><ele>106.0</ele><time>2026-05-01T18:06:24Z</time></trkpt><trkpt lat="45.474516913192836" lon="9.982361430250686"><ele>106.0</ele><time>2026-05-01T18:06:25Z</time></trkpt><trkpt lat="45.47452570696967" lon="9.982205750650321"><ele>106.0</ele><time>2026-05-01T18:06:26Z</time></trkpt><trkpt lat="45.47454297065861" lon="9.982036449694208"><ele>106.0</ele><time>2026-05-01T18:06:27Z</time></trkpt><trkpt lat="45.47456071431296" lon="9.98185086463761"><ele>106.0</ele><time>2026-05-01T18:06:28Z</time></trkpt><trkpt lat="45.47458028142234" lon="9.981673496480767"><ele>106.0</ele><time>2026-05-01T18:06:29Z</time></trkpt><trkpt lat="45.47458891588296" lon="9.981515036608268"><ele>106.0</ele><time>2026-05-01T18:06:30Z</time></trkpt><trkpt lat="45.47459984068711" lon="9.981357954146183"><ele>106.0</ele><time>2026-05-01T18:06:31Z</time></trkpt><trkpt lat="45.47461690359706" lon="9.98120704006948"><ele>106.0</ele><time>2026-05-01T18:06:32Z</time></trkpt><trkpt lat="45.47463609952896" lon="9.981062357041871"><ele>106.0</ele><time>2026-05-01T18:06:33Z</time></trkpt><trkpt lat="45.474649561507015" lon="9.98091813979552"><ele>106.0</ele><time>2026-05-01T18:06:34Z</time></trkpt><trkpt lat="45.474663475498154" lon="9.980784060257056"><ele>106.0</ele><time>2026-05-01T18:06:35Z</time></trkpt><trkpt lat="45.474676448909676" lon="9.98066240663351"><ele>106.0</ele><time>2026-05-01T18:06:36Z</time></trkpt><trkpt lat="45.474686837385974" lon="9.980509444715025"><ele>106.0</ele><time>2026-05-01T18:06:38Z</time></trkpt><trkpt lat="45.47471227878256" lon="9.980388898407583"><ele>106.0</ele><time>2026-05-01T18:06:41Z</time></trkpt><trkpt lat="45.4748132312052" lon="9.980427848683306"><ele>106.0</ele><time>2026-05-01T18:06:43Z</time></trkpt><trkpt lat="45.47489317038511" lon="9.980462536595658"><ele>106.0</ele><time>2026-05-01T18:06:44Z</time></trkpt><trkpt lat="45.474951695215424" lon="9.980519254023886"><ele>106.00000000000001</ele><time>2026-05-01T18:06:45Z</time></trkpt><trkpt lat="45.4750175685839" lon="9.980566822303851"><ele>106.0</ele><time>2026-05-01T18:06:46Z</time></trkpt><trkpt lat="45.47508444443575" lon="9.980620650038382"><ele>106.0</ele><time>2026-05-01T18:06:47Z</time></trkpt><trkpt lat="45.47515480996938" lon="9.980674356846206"><ele>106.0</ele><time>2026-05-01T18:06:48Z</time></trkpt><trkpt lat="45.47521692630122" lon="9.980724695199697"><ele>106.00000000000001</ele><time>2026-05-01T18:06:49Z</time></trkpt><trkpt lat="45.47527236962733" lon="9.980775043122676"><ele>106.0</ele><time>2026-05-01T18:06:50Z</time></trkpt><trkpt lat="45.47536448745819" lon="9.980854560017127"><ele>106.25</ele><time>2026-05-01T18:06:52Z</time></trkpt><trkpt lat="45.47545236974313" lon="9.980582247650677"><ele>106.5</ele><time>2026-05-01T18:06:54Z</time></trkpt><trkpt lat="45.47546442267666" lon="9.98044000111484"><ele>106.75</ele><time>2026-05-01T18:06:55Z</time></trkpt><trkpt lat="45.4754822095052" lon="9.98027326560502"><ele>107.0</ele><time>2026-05-01T18:06:56Z</time></trkpt><trkpt lat="45.47550304729328" lon="9.98010024746385"><ele>107.0</ele><time>2026-05-01T18:06:57Z</time></trkpt><trkpt lat="45.47552296780535" lon="9.979946880731585"><ele>107.0</ele><time>2026-05-01T18:06:58Z</time></trkpt><trkpt lat="45.47554614628786" lon="9.979798262520392"><ele>107.0</ele><time>2026-05-01T18:06:59Z</time></trkpt><trkpt lat="45.475568118018785" lon="9.979630622307313"><ele>107.0</ele><time>2026-05-01T18:07:00Z</time></trkpt><trkpt lat="45.475589035654956" lon="9.979453623699959"><ele>107.0</ele><time>2026-05-01T18:07:01Z</time></trkpt><trkpt lat="45.4756131718571" lon="9.979266533405603"><ele>107.0</ele><time>2026-05-01T18:07:02Z</time></trkpt><trkpt lat="45.47563619804328" lon="9.979083749778217"><ele>107.0</ele><time>2026-05-01T18:07:03Z</time></trkpt><trkpt lat="45.47565754156092" lon="9.978911016570583"><ele>107.0</ele><time>2026-05-01T18:07:04Z</time></trkpt><trkpt lat="45.47569746782924" lon="9.978735166663038"><ele>107.0</ele><time>2026-05-01T18:07:05Z</time></trkpt><trkpt lat="45.47571945163201" lon="9.97856989136014"><ele>107.0</ele><time>2026-05-01T18:07:06Z</time></trkpt><trkpt lat="45.475723706824134" lon="9.97840135634347"><ele>107.0</ele><time>2026-05-01T18:07:07Z</time></trkpt><trkpt lat="45.475758297151714" lon="9.978244764931484"><ele>107.0</ele><time>2026-05-01T18:07:08Z</time></trkpt><trkpt lat="45.47576215784647" lon="9.978074848916533"><ele>107.0</ele><time>2026-05-01T18:07:09Z</time></trkpt><trkpt lat="45.47578387759907" lon="9.977897313258492"><ele>107.0</ele><time>2026-05-01T18:07:10Z</time></trkpt><trkpt lat="45.47581174894261" lon="9.977701040033724"><ele>107.0</ele><time>2026-05-01T18:07:11Z</time></trkpt><trkpt lat="45.475829704458086" lon="9.977486810661404"><ele>107.0</ele><time>2026-05-01T18:07:12Z</time></trkpt><trkpt lat="45.47584968986804" lon="9.977283040196953"><ele>107.0</ele><time>2026-05-01T18:07:13Z</time></trkpt><trkpt lat="45.475887216517684" lon="9.97709242088128"><ele>107.0</ele><time>2026-05-01T18:07:14Z</time></trkpt><trkpt lat="45.47589157455638" lon="9.976906123835143"><ele>107.0</ele><time>2026-05-01T18:07:15Z</time></trkpt><trkpt lat="45.475918106259925" lon="9.976726257290673"><ele>107.0</ele><time>2026-05-01T18:07:16Z</time></trkpt><trkpt lat="45.47593667044357" lon="9.976555663745023"><ele>107.0</ele><time>2026-05-01T18:07:17Z</time></trkpt><trkpt lat="45.475955327736465" lon="9.976382555635801"><ele>107.0</ele><time>2026-05-01T18:07:18Z</time></trkpt><trkpt lat="45.47597628449108" lon="9.976191678366241"><ele>107.0</ele><time>2026-05-01T18:07:19Z</time></trkpt><trkpt lat="45.475994713080134" lon="9.97597782253308"><ele>107.0</ele><time>2026-05-01T18:07:20Z</time></trkpt><trkpt lat="45.47601899580102" lon="9.975748642108908"><ele>107.0</ele><time>2026-05-01T18:07:21Z</time></trkpt><trkpt lat="45.47603161611546" lon="9.975501063579738"><ele>107.0</ele><time>2026-05-01T18:07:22Z</time></trkpt><trkpt lat="45.47603983950094" lon="9.975234444267675"><ele>107.0</ele><time>2026-05-01T18:07:23Z</time></trkpt><trkpt lat="45.47606844226859" lon="9.974963191542615"><ele>106.66666666666666</ele><time>2026-05-01T18:07:24Z</time></trkpt><trkpt lat="45.47608294085258" lon="9.974676990948616"><ele>106.33333333333334</ele><time>2026-05-01T18:07:25Z</time></trkpt><trkpt lat="45.47609847707435" lon="9.97438889650071"><ele>106.0</ele><time>2026-05-01T18:07:26Z</time></trkpt><trkpt lat="45.47611495859513" lon="9.974080521627489"><ele>106.0</ele><time>2026-05-01T18:07:27Z</time></trkpt><trkpt lat="45.47613078930082" lon="9.973773182668698"><ele>106.0</ele><time>2026-05-01T18:07:28Z</time></trkpt><trkpt lat="45.47613569883086" lon="9.973458722475671"><ele>106.0</ele><time>2026-05-01T18:07:29Z</time></trkpt><trkpt lat="45.476159750120715" lon="9.973165327869093"><ele>106.0</ele><time>2026-05-01T18:07:30Z</time></trkpt><trkpt lat="45.47617916737772" lon="9.972860881854212"><ele>106.0</ele><time>2026-05-01T18:07:31Z</time></trkpt><trkpt lat="45.4761926220132" lon="9.972556106010702"><ele>106.0</ele><time>2026-05-01T18:07:32Z</time></trkpt><trkpt lat="45.47620426890304" lon="9.972254127885192"><ele>106.0</ele><time>2026-05-01T18:07:33Z</time></trkpt><trkpt lat="45.47622153573599" lon="9.971947985910095"><ele>106.0</ele><time>2026-05-01T18:07:34Z</time></trkpt><trkpt lat="45.476240287295205" lon="9.971626833204223"><ele>106.0</ele><time>2026-05-01T18:07:35Z</time></trkpt><trkpt lat="45.47625561316213" lon="9.971302452571765"><ele>106.0</ele><time>2026-05-01T18:07:36Z</time></trkpt><trkpt lat="45.476276260803694" lon="9.970969063707885"><ele>106.0</ele><time>2026-05-01T18:07:37Z</time></trkpt><trkpt lat="45.476299381678245" lon="9.970636996761453"><ele>105.66666666666667</ele><time>2026-05-01T18:07:38Z</time></trkpt><trkpt lat="45.476329388500055" lon="9.970318613097424"><ele>105.33333333333334</ele><time>2026-05-01T18:07:39Z</time></trkpt><trkpt lat="45.47635751836304" lon="9.970012294823002"><ele>105.0</ele><time>2026-05-01T18:07:40Z</time></trkpt><trkpt lat="45.476388012482154" lon="9.969706561539446"><ele>105.0</ele><time>2026-05-01T18:07:41Z</time></trkpt><trkpt lat="45.47641918832184" lon="9.969406096007692"><ele>105.0</ele><time>2026-05-01T18:07:42Z</time></trkpt><trkpt lat="45.47645158902054" lon="9.96910320584888"><ele>105.0</ele><time>2026-05-01T18:07:43Z</time></trkpt><trkpt lat="45.47648240120978" lon="9.968826537083398"><ele>105.0</ele><time>2026-05-01T18:07:44Z</time></trkpt><trkpt lat="45.47650222342134" lon="9.968555116356692"><ele>105.0</ele><time>2026-05-01T18:07:45Z</time></trkpt><trkpt lat="45.47647564945065" lon="9.968288105176859"><ele>105.0</ele><time>2026-05-01T18:07:46Z</time></trkpt><trkpt lat="45.47640087262911" lon="9.968016522538724"><ele>104.5</ele><time>2026-05-01T18:07:47Z</time></trkpt><trkpt lat="45.47629644728406" lon="9.967743064819249"><ele>104.0</ele><time>2026-05-01T18:07:48Z</time></trkpt><trkpt lat="45.4761770415268" lon="9.96745060299457"><ele>103.5</ele><time>2026-05-01T18:07:49Z</time></trkpt><trkpt lat="45.476054713298744" lon="9.96714487498703"><ele>103.0</ele><time>2026-05-01T18:07:50Z</time></trkpt><trkpt lat="45.475928805580665" lon="9.966830038585197"><ele>104.0</ele><time>2026-05-01T18:07:51Z</time></trkpt><trkpt lat="45.47580705064228" lon="9.966509470209264"><ele>105.0</ele><time>2026-05-01T18:07:52Z</time></trkpt><trkpt lat="45.47568465148715" lon="9.966195309019305"><ele>105.0</ele><time>2026-05-01T18:07:53Z</time></trkpt><trkpt lat="45.47556004562819" lon="9.965883260801773"><ele>105.0</ele><time>2026-05-01T18:07:54Z</time></trkpt><trkpt lat="45.47544184110371" lon="9.965568153057333"><ele>105.0</ele><time>2026-05-01T18:07:55Z</time></trkpt><trkpt lat="45.475335817658156" lon="9.965237311815633"><ele>105.0</ele><time>2026-05-01T18:07:56Z</time></trkpt><trkpt lat="45.47525980838842" lon="9.964898244243155"><ele>105.0</ele><time>2026-05-01T18:07:57Z</time></trkpt><trkpt lat="45.47520716650329" lon="9.964539769655323"><ele>105.0</ele><time>2026-05-01T18:07:58Z</time></trkpt><trkpt lat="45.47517414398213" lon="9.964185765449756"><ele>105.0</ele><time>2026-05-01T18:07:59Z</time></trkpt><trkpt lat="45.475139210997995" lon="9.96382248116412"><ele>105.0</ele><time>2026-05-01T18:08:00Z</time></trkpt><trkpt lat="45.47510474920516" lon="9.963460993145253"><ele>104.5</ele><time>2026-05-01T18:08:01Z</time></trkpt><trkpt lat="45.475068505840596" lon="9.963101132405113"><ele>104.0</ele><time>2026-05-01T18:08:02Z</time></trkpt><trkpt lat="45.4750273035989" lon="9.962743597417978"><ele>103.5</ele><time>2026-05-01T18:08:03Z</time></trkpt><trkpt lat="45.4749903705046" lon="9.962385663120601"><ele>103.0</ele><time>2026-05-01T18:08:04Z</time></trkpt><trkpt lat="45.474953869402654" lon="9.962029255288954"><ele>103.5</ele><time>2026-05-01T18:08:05Z</time></trkpt><trkpt lat="45.474917827929076" lon="9.961675977270003"><ele>104.0</ele><time>2026-05-01T18:08:06Z</time></trkpt><trkpt lat="45.47489706576112" lon="9.961321599402291"><ele>104.0</ele><time>2026-05-01T18:08:07Z</time></trkpt><trkpt lat="45.474860910491444" lon="9.960970060023136"><ele>104.0</ele><time>2026-05-01T18:08:08Z</time></trkpt><trkpt lat="45.474806944083326" lon="9.960627330105313"><ele>104.0</ele><time>2026-05-01T18:08:09Z</time></trkpt><trkpt lat="45.47476103331582" lon="9.960286750173863"><ele>104.0</ele><time>2026-05-01T18:08:10Z</time></trkpt><trkpt lat="45.474704125738796" lon="9.959969752649805"><ele>104.0</ele><time>2026-05-01T18:08:11Z</time></trkpt><trkpt lat="45.474639814661096" lon="9.959671574232509"><ele>104.0</ele><time>2026-05-01T18:08:12Z</time></trkpt><trkpt lat="45.47457462517182" lon="9.959390168988412"><ele>104.0</ele><time>2026-05-01T18:08:13Z</time></trkpt><trkpt lat="45.47450971639124" lon="9.959119844740789"><ele>103.66666666666666</ele><time>2026-05-01T18:08:14Z</time></trkpt><trkpt lat="45.474450553610005" lon="9.958859926904209"><ele>103.33333333333334</ele><time>2026-05-01T18:08:15Z</time></trkpt><trkpt lat="45.47439365323171" lon="9.958614273593009"><ele>103.0</ele><time>2026-05-01T18:08:16Z</time></trkpt><trkpt lat="45.47434486431763" lon="9.958387944179552"><ele>103.0</ele><time>2026-05-01T18:08:17Z</time></trkpt><trkpt lat="45.4743049985781" lon="9.95817563139024"><ele>103.0</ele><time>2026-05-01T18:08:18Z</time></trkpt><trkpt lat="45.47427613076247" lon="9.957975304391523"><ele>103.0</ele><time>2026-05-01T18:08:19Z</time></trkpt><trkpt lat="45.474268083195355" lon="9.957780615488524"><ele>103.0</ele><time>2026-05-01T18:08:20Z</time></trkpt><trkpt lat="45.47426627597904" lon="9.957587834844666"><ele>103.0</ele><time>2026-05-01T18:08:21Z</time></trkpt><trkpt lat="45.47422544454308" lon="9.957415775479811"><ele>103.0</ele><time>2026-05-01T18:08:22Z</time></trkpt><trkpt lat="45.47416272989741" lon="9.95723140112585"><ele>103.0</ele><time>2026-05-01T18:08:23Z</time></trkpt><trkpt lat="45.474124391459256" lon="9.957021969802383"><ele>103.0</ele><time>2026-05-01T18:08:24Z</time></trkpt><trkpt lat="45.474138756872456" lon="9.956807724408494"><ele>103.0</ele><time>2026-05-01T18:08:25Z</time></trkpt><trkpt lat="45.4741320284911" lon="9.956577049819478"><ele>103.0</ele><time>2026-05-01T18:08:26Z</time></trkpt><trkpt lat="45.47419587583218" lon="9.956331160277728"><ele>103.0</ele><time>2026-05-01T18:08:27Z</time></trkpt><trkpt lat="45.47423530245091" lon="9.956057517938705"><ele>103.33333333333334</ele><time>2026-05-01T18:08:28Z</time></trkpt><trkpt lat="45.47427351706206" lon="9.9557673960174"><ele>103.66666666666666</ele><time>2026-05-01T18:08:29Z</time></trkpt><trkpt lat="45.47433056010882" lon="9.955458849972162"><ele>104.0</ele><time>2026-05-01T18:08:30Z</time></trkpt><trkpt lat="45.47437487197921" lon="9.95513316045015"><ele>103.5</ele><time>2026-05-01T18:08:31Z</time></trkpt><trkpt lat="45.47441540481624" lon="9.954790186551044"><ele>103.0</ele><time>2026-05-01T18:08:32Z</time></trkpt><trkpt lat="45.474459636195135" lon="9.954486915740945"><ele>103.0</ele><time>2026-05-01T18:08:33Z</time></trkpt><trkpt lat="45.47450188879754" lon="9.95421426705464"><ele>103.0</ele><time>2026-05-01T18:08:34Z</time></trkpt><trkpt lat="45.474539779233346" lon="9.953972306780575"><ele>103.0</ele><time>2026-05-01T18:08:35Z</time></trkpt><trkpt lat="45.47457242126301" lon="9.953756280384516"><ele>103.25</ele><time>2026-05-01T18:08:36Z</time></trkpt><trkpt lat="45.474596419360005" lon="9.953562557903545"><ele>103.5</ele><time>2026-05-01T18:08:37Z</time></trkpt><trkpt lat="45.47462438028676" lon="9.953393859158014"><ele>103.75</ele><time>2026-05-01T18:08:38Z</time></trkpt><trkpt lat="45.47467169276169" lon="9.953250138973361"><ele>104.0</ele><time>2026-05-01T18:08:39Z</time></trkpt><trkpt lat="45.4747532690574" lon="9.953149600757936"><ele>104.2</ele><time>2026-05-01T18:08:40Z</time></trkpt><trkpt lat="45.474822215609755" lon="9.9530765572368"><ele>104.4</ele><time>2026-05-01T18:08:41Z</time></trkpt><trkpt lat="45.474842001628794" lon="9.95296976813467"><ele>104.6</ele><time>2026-05-01T18:08:42Z</time></trkpt><trkpt lat="45.474804435844824" lon="9.952859483060159"><ele>104.8</ele><time>2026-05-01T18:08:43Z</time></trkpt><trkpt lat="45.47475575522615" lon="9.95277286077713"><ele>105.0</ele><time>2026-05-01T18:08:44Z</time></trkpt><trkpt lat="45.47463158806217" lon="9.95280399292646"><ele>105.0</ele><time>2026-05-01T18:08:45Z</time></trkpt><trkpt lat="45.47452749793872" lon="9.952858761997602"><ele>105.0</ele><time>2026-05-01T18:08:46Z</time></trkpt><trkpt lat="45.474410945142665" lon="9.95289383019975"><ele>105.0</ele><time>2026-05-01T18:08:47Z</time></trkpt><trkpt lat="45.47429332100551" lon="9.952879878987853"><ele>105.0</ele><time>2026-05-01T18:08:48Z</time></trkpt><trkpt lat="45.474173011611136" lon="9.952834395655012"><ele>105.0</ele><time>2026-05-01T18:08:49Z</time></trkpt><trkpt lat="45.47406163461187" lon="9.952800942789445"><ele>105.0</ele><time>2026-05-01T18:08:50Z</time></trkpt><trkpt lat="45.47395251451066" lon="9.95277351419666"><ele>105.0</ele><time>2026-05-01T18:08:51Z</time></trkpt><trkpt lat="45.4738408770115" lon="9.952749740903197"><ele>105.0</ele><time>2026-05-01T18:08:52Z</time></trkpt><trkpt lat="45.47372899409007" lon="9.952725468132147"><ele>105.0</ele><time>2026-05-01T18:08:53Z</time></trkpt></trkseg></trk></gpx>